<<back to data home page

    Month/Day/Year       Maximum   Minimum    Rel    Dew       Rainfall  Seasonal  Soil     Soil      Baro       Wind    Wind        Peak     Peak Speed    Leaf     Net       EvapPan  EvapPan    EvapPan   EvapPan
    and                  Air Temp  Air Temp   Hum    Point     Inches    Rainfall  Temp     Moisture  Pressure   Speed   Direction   Speed    Direction    Wetness  Radiation   Wind    WindRun    H20Temp   Level  
    Local Time           Deg F     Deg F      %      Deg F               Inches    Deg F    dS/m      mbar       MPH     comp  deg   MPH      comp  deg      mV        W_m2     MPH      Miles     Deg F     Inches
---------------------------------------------------------------------------------------------------------------------------------------------------------------------------------------------------------------------
   07/08/2020 05:10      58.0      57.5       80     51.7      0.00      0.00      84.3     0.46      1012.7     0.4     SSE   162   1.1     SSE     166     266       -63       0.0       0.0      65.1      6.39
   07/08/2020 05:00      58.1      57.6       80     51.8      0.00      0.00      84.3     0.46      1012.7     0.4     SSE   156   1.1       S     179     269       -64       0.0       0.0      65.5      6.39
   07/08/2020 04:50      58.5      58.0       79     51.6      0.00      0.00      84.4     0.46      1012.6     0.2       S   173   0.7       S     181     268       -64       0.0       0.0      65.7      6.39
   07/08/2020 04:40      58.7      58.4       79     52.1      0.00      0.00      84.5     0.46      1012.5     0.3     SSE   159   0.7     SSE     159     271       -63       0.0       0.0      66.0      6.39
   07/08/2020 04:30      58.9      58.4       78     51.8      0.00      0.00      84.5     0.46      1012.5     0.2     SSE   157   1.2      SE     145     270       -65       0.0       0.0      66.3      6.39
   07/08/2020 04:20      59.4      58.9       77     52.1      0.00      0.00      84.6     0.46      1012.4     0.6     SSE   151   1.3      SE     145     270       -65       0.0       0.0      66.5      6.39
   07/08/2020 04:10      59.6      59.2       77     52.3      0.00      0.00      84.6     0.46      1012.3     0.1     SSE   155   1.1     SSE     149     271       -65       0.0       0.0      66.8      6.39
   07/08/2020 04:00      59.5      59.0       77     52.1      0.00      0.00      84.7     0.46      1012.3     0.0       S   173   0.4       S     171     270       -66       0.0       0.0      67.1      6.39
   07/08/2020 03:50      59.7      59.0       76     51.8      0.00      0.00      84.7     0.46      1012.3     0.4     SSE   162   1.9     SSE     150     271       -68       0.0       0.0      67.5      6.39
   07/08/2020 03:40      59.7      59.3       77     52.1      0.00      0.00      84.8     0.46      1012.2     0.3     SSE   168   1.1       S     185     271       -68       0.0       0.0      67.9      6.40
   07/08/2020 03:30      60.3      59.4       75     51.8      0.00      0.00      84.9     0.46      1012.2     0.5       S   174   1.0       S     173     271       -69       0.0       0.0      68.1      6.40
   07/08/2020 03:20      60.8      60.3       74     52.2      0.00      0.00      84.9     0.46      1012.1     0.0     SSE   165   0.6     SSE     165     271       -68       0.0       0.0      68.5      6.40
   07/08/2020 03:10      61.2      60.8       73     52.4      0.00      0.00      85.0     0.46      1012.1     0.2     SSW   193   1.1     SSW     203     271       -69       0.0       0.0      68.8      6.40
   07/08/2020 03:00      61.5      61.1       73     52.6      0.00      0.00      85.0     0.46      1012.0     0.3       S   182   1.6       S     190     271       -69       0.0       0.0      69.2      6.40
   07/08/2020 02:50      61.6      61.0       73     52.5      0.00      0.00      85.1     0.46      1012.0     0.2     SSW   194   0.9     SSW     205     270       -69       0.0       0.0      69.5      6.40
   07/08/2020 02:40      61.6      61.2       72     52.2      0.00      0.00      85.1     0.46      1012.0     0.0       S   175   0.8       S     176     270       -71       0.0       0.0      70.0      6.40
   07/08/2020 02:30      61.9      61.3       70     52.0      0.00      0.00      85.2     0.46      1012.0     0.0     SSE   162   0.7      SE     141     270       -72       0.0       0.0      70.3      6.40
   07/08/2020 02:20      63.4      61.8       68     51.8      0.00      0.00      85.3     0.46      1011.9     0.3     SSE   154   1.1      SE     146     270       -72       0.0       0.0      70.6      6.40
   07/08/2020 02:10      63.6      63.2       68     52.7      0.00      0.00      85.3     0.46      1011.9     0.2       S   188   0.8       S     187     270       -72       0.0       0.0      71.0      6.40
   07/08/2020 02:00      63.6      63.3       67     52.4      0.00      0.00      85.4     0.46      1011.9     0.5     SSE   153   1.4     ESE     102     270       -73       0.0       0.0      71.3      6.40
   07/08/2020 01:50      64.1      63.5       67     52.7      0.00      0.00      85.4     0.46      1012.0     0.6      SE   146   1.9      SE     140     269       -72       0.0       0.0      71.6      6.40
   07/08/2020 01:40      64.5      63.9       67     53.2      0.00      0.00      85.4     0.46      1012.0     0.1       S   170   0.9     SSE     165     269       -71       0.0       0.0      72.0      6.41
   07/08/2020 01:30      65.2      64.5       66     53.1      0.00      0.00      85.4     0.46      1012.0     0.0       N     0   0.0       S     176     269       -71       0.0       0.0      72.4      6.41
   07/08/2020 01:20      65.6      65.2       64     53.1      0.00      0.00      85.6     0.46      1012.0     0.3      SE   139   1.7       E      96     268       -73       0.0       0.0      72.7      6.41
   07/08/2020 01:10      65.5      64.9       64     52.9      0.00      0.00      85.6     0.46      1012.0     0.9      SE   125   1.8      SE     135     268       -73       0.0       0.0      73.0      6.41
   07/08/2020 01:00      66.1      65.0       62     52.4      0.00      0.00      85.6     0.46      1012.0     0.6     SSE   146   1.8      SE     137     268       -72       0.0       0.0      73.4      6.41
   07/08/2020 00:50      66.1      65.7       62     52.3      0.00      0.00      85.7     0.46      1012.0     0.3      SE   127   1.4     ESE     112     268       -73       0.0       0.0      73.8      6.41
   07/08/2020 00:40      66.0      65.4       61     51.7      0.00      0.00      85.7     0.47      1012.1     0.4      SE   135   1.6      SE     130     268       -73       0.0       0.0      74.1      6.41
   07/08/2020 00:30      65.6      65.2       60     51.3      0.00      0.00      85.8     0.46      1012.1     0.0       S   175   0.6     SSE     161     268       -73       0.0       0.0      74.6      6.41
   07/08/2020 00:20      66.0      65.1       58     50.3      0.00      0.00      85.8     0.46      1012.0     0.2     SSE   154   0.7      SW     215     268       -73       0.0       0.0      74.9      6.41
   07/08/2020 00:10      66.3      65.7       57     50.3      0.00      0.00      85.8     0.47      1012.0     0.0       S   174   0.2       S     170     267       -73       0.0       0.0      75.3      6.42
   07/08/2020 00:00      66.4      65.8       56     50.2      0.00      0.00      85.8     0.47      1012.0     0.4     SSE   157   1.5     SSE     149     267       -74       0.0      20.5      75.7      6.42
   07/07/2020 23:50      67.0      65.9       56     50.2      0.00      0.00      85.7     0.46      1012.0     0.7     SSE   164   1.8      SE     143     267       -74       0.1      20.5      76.1      6.42
   07/07/2020 23:40      68.1      67.0       54     50.3      0.00      0.00      85.8     0.47      1012.0     0.3       S   176   1.1       S     189     267       -74       0.0      20.5      76.6      6.42
   07/07/2020 23:30      68.3      67.9       52     49.6      0.00      0.00      85.8     0.47      1011.9     1.0     SSW   207   1.6     SSE     156     267       -73       0.0      20.5      76.9      6.42
   07/07/2020 23:20      68.0      67.4       53     50.0      0.00      0.00      85.7     0.47      1011.9     0.2     SSW   205   1.1      SW     226     266       -73       0.0      20.5      77.4      6.42
   07/07/2020 23:10      68.4      67.5       52     49.5      0.00      0.00      85.8     0.47      1011.8     0.2     SSE   158   0.7      SE     136     266       -76       0.0      20.5      77.9      6.42
   07/07/2020 23:00      69.1      68.3       50     49.5      0.00      0.00      85.8     0.47      1011.7     0.0     ESE   108   0.8     ENE      71     266       -77       0.0      20.5      78.4      6.42
   07/07/2020 22:50      71.1      69.1       46     48.6      0.00      0.00      86.3     0.47      1011.7     0.8     SSE   165   2.5     SSW     201     266       -77       0.1      20.5      79.4      6.42
   07/07/2020 22:40      71.1      70.8       45     48.6      0.00      0.00      86.5     0.46      1011.8     2.4     SSW   207   2.8     SSW     200     266       -76       0.9      20.5      80.1      6.43
   07/07/2020 22:30      71.1      70.8       46     48.9      0.00      0.00      86.5     0.47      1011.8     1.8     SSW   210   2.6     SSW     208     266       -76       0.3      20.4      80.6      6.43
   07/07/2020 22:20      71.4      70.7       46     49.4      0.00      0.00      86.6     0.46      1011.8     0.5     SSW   204   1.3     SSW     204     266       -79       0.0      20.3      81.1      6.43
   07/07/2020 22:10      72.7      71.3       45     49.4      0.00      0.00      86.6     0.46      1011.7     0.0       S   173   0.6     SSW     202     266       -80       0.0      20.3      81.6      6.43
   07/07/2020 22:00      73.6      72.7       43     49.5      0.00      0.00      86.6     0.46      1011.6     0.6     ENE    76   1.6     ENE      75     265       -83       0.0      20.3      82.1      6.43
   07/07/2020 21:50      74.4      73.4       42     49.4      0.00      0.00      87.0     0.46      1011.4     0.5      SE   132   2.1      SW     234     266       -84       0.0      20.3      82.9      6.43
   07/07/2020 21:40      75.1      74.3       41     49.4      0.00      0.00      87.3     0.46      1011.3     0.4       S   169   1.5     SSE     167     266       -84       0.0      20.3      83.4      6.44
   07/07/2020 21:30      76.2      75.2       39     49.2      0.00      0.00      87.3     0.46      1011.3     1.2     SSW   193   2.7     SSW     205     266       -83       0.3      20.3      84.1      6.44
   07/07/2020 21:20      76.9      76.1       38     48.9      0.00      0.00      87.4     0.46      1011.2     2.0     SSW   208   2.8     SSW     194     265       -83       1.1      20.3      84.7      6.44
   07/07/2020 21:10      77.7      76.8       36     48.6      0.00      0.00      87.5     0.46      1011.2     1.9      SW   220   3.9     WSW     251     264       -86       0.8      20.1      85.2      6.44
   07/07/2020 21:00      78.5      77.4       35     48.2      0.00      0.00      87.4     0.46      1011.1     2.3     SSW   213   4.5      SW     228     264       -87       1.1      19.9      85.8      6.45
   07/07/2020 20:50      79.4      78.3       33     47.5      0.00      0.00      87.4     0.46      1011.0     0.9      SW   219   2.1     SSW     212     264       -88       0.0      19.8      86.5      6.45
   07/07/2020 20:40      80.2      79.3       32     47.0      0.00      0.00      87.3     0.46      1010.9     1.8     WSW   246   3.5     WSW     245     264       -90       0.9      19.8      87.0      6.45
   07/07/2020 20:30      80.7      80.1       31     47.2      0.00      0.00      87.3     0.46      1010.9     1.1       W   275   3.2     WNW     286     264       -90       0.7      19.6      87.6      6.45
   07/07/2020 20:20      81.8      80.7       30     47.4      0.00      0.00      87.3     0.46      1010.9     1.4       W   274   3.9     WSW     241     264       -90       0.9      19.5      88.3      6.46
   07/07/2020 20:10      82.6      81.6       30     47.6      0.00      0.00      87.3     0.46      1010.8     1.1      NW   322   4.1     NNE      22     264       -90       0.9      19.3      88.8      6.46
   07/07/2020 20:00      83.5      82.5       29     47.7      0.00      0.00      87.1     0.46      1010.8     1.2      NW   311   3.5       W     276     264       -87       1.0      19.2      89.5      6.46
   07/07/2020 19:50      84.8      83.5       28     47.6      0.00      0.00      87.1     0.46      1010.8     1.3      NW   309   3.9      NW     305     263       -84       1.0      19.0      90.1      6.47
   07/07/2020 19:40      85.8      84.7       27     47.3      0.00      0.00      86.9     0.46      1010.8     1.4     WNW   303   3.4     WNW     285     263       -72       1.0      18.8      90.7      6.47
   07/07/2020 19:30      86.8      85.7       26     47.1      0.00      0.00      86.8     0.46      1010.7     2.0      NW   307   4.0      NW     324     263       -54       1.3      18.7      91.3      6.48
   07/07/2020 19:20      87.4      86.7       24     46.4      0.00      0.00      86.0     0.46      1010.6     1.0     NNW   336   2.9     NNE      28     263       -36       0.4      18.5      91.1      6.48
   07/07/2020 19:10      88.6      87.2       23     46.2      0.00      0.00      85.5     0.46      1010.5     1.2     NNW   343   3.3     WNW     300     263       -15       0.4      18.4      91.2      6.49
   07/07/2020 19:00      89.8      88.3       23     45.9      0.00      0.00      85.5     0.46      1010.5     1.2     NNW   333   2.9       N       2     263         8       0.6      18.3      91.8      6.49
   07/07/2020 18:50      89.8      89.3       22     46.3      0.00      0.00      85.3     0.46      1010.4     1.1      NW   326   4.2     WSW     251     263        31       1.1      18.2      92.3      6.50
   07/07/2020 18:40      90.8      89.6       22     46.3      0.00      0.00      85.3     0.46      1010.4     1.9     WNW   295   4.6      NW     322     263        54       1.6      18.1      92.9      6.50
   07/07/2020 18:30      90.7      90.2       22     46.6      0.00      0.00      85.3     0.46      1010.4     1.6      NW   304   4.1      NW     321     263        80       1.6      17.8      93.6      6.51
   07/07/2020 18:20      92.0      90.6       22     47.0      0.00      0.00      85.6     0.46      1010.4     1.8      NW   325   4.1     NNW     334     263       104       1.2      17.5      94.4      6.51
   07/07/2020 18:10      92.4      91.8       22     47.3      0.00      0.00      85.7     0.46      1010.4     1.6      NW   306   4.5     WSW     258     263       127       1.3      17.3      94.8      6.52
   07/07/2020 18:00      93.5      92.3       21     47.0      0.00      0.00      85.6     0.46      1010.4     1.6      NW   324   3.9       W     278     263       151       1.2      17.1      95.3      6.53
   07/07/2020 17:50      94.2      92.6       20     46.5      0.00      0.00      85.6     0.46      1010.4     2.6     WNW   288   7.1     WSW     258     263       175       2.3      16.9      95.7      6.53
   07/07/2020 17:40      93.6      91.9       20     46.0      0.00      0.00      85.5     0.46      1010.4     2.1       W   281   6.7      NW     310     263       198       2.1      16.5      96.0      6.54
   07/07/2020 17:30      93.0      92.1       20     45.5      0.00      0.00      85.5     0.46      1010.5     3.5       W   272   8.6       W     266     263       222       2.7      16.2      96.5      6.54
   07/07/2020 17:20      93.1      92.1       22     48.7      0.00      0.00      85.3     0.46      1010.5     3.2     WSW   245   7.2     WSW     241     263       246       2.5      15.7      96.9      6.55
   07/07/2020 17:10      92.8      91.8       22     47.8      0.00      0.00      85.1     0.46      1010.6     2.4      SW   228   5.5     SSW     212     263       272       2.0      15.3      97.1      6.55
   07/07/2020 17:00      92.1      91.2       24     49.6      0.00      0.00      85.1     0.46      1010.7     3.8       S   178   7.5     WSW     238     263       297       2.4      15.0      97.4      6.56
   07/07/2020 16:50      92.7      91.0       24     49.8      0.00      0.00      85.0     0.46      1010.8     4.0     SSW   193   8.7       S     190     263       319       2.7      14.6      97.5      6.56
   07/07/2020 16:40      92.3      91.4       23     49.4      0.00      0.00      84.9     0.46      1010.8     4.3       S   172   7.6       S     187     263       340       2.8      14.1      97.7      6.56
   07/07/2020 16:30      92.4      91.3       23     48.7      0.00      0.00      85.0     0.46      1010.8     3.9       S   169   7.5       S     181     263       360       2.4      13.6      97.9      6.57
   07/07/2020 16:20      92.1      90.5       23     48.1      0.00      0.00      85.0     0.46      1010.9     4.7       S   182   9.3     SSW     210     263       383       2.9      13.2      98.0      6.57
   07/07/2020 16:10      91.6      90.8       22     47.4      0.00      0.00      85.0     0.46      1010.9     4.7     SSE   165   7.0     SSW     208     263       405       2.6      12.8      98.2      6.58
   07/07/2020 16:00      91.8      90.7       22     47.1      0.00      0.00      84.9     0.46      1011.0     5.3     SSE   165   9.2     SSE     158     263       425       3.0      12.3      98.5      6.59
   07/07/2020 15:50      91.3      90.4       22     46.9      0.00      0.00      84.8     0.45      1011.1     5.4       S   177   9.4      SE     137     263       443       3.4      11.8      98.7      6.59
   07/07/2020 15:40      92.0      90.8       22     47.5      0.00      0.00      84.7     0.45      1011.1     5.5       S   185  10.5       S     184     263       458       3.4      11.3      99.0      6.60
   07/07/2020 15:30      92.6      90.9       23     48.3      0.00      0.00      84.8     0.45      1011.2     4.9       S   177   9.5     SSW     198     263       473       3.0      10.7      98.9      6.60
   07/07/2020 15:20      93.4      90.9       23     48.7      0.00      0.00      84.7     0.45      1011.2     6.0       S   189   9.6     SSW     202     263       487       3.8      10.2      98.8      6.61
   07/07/2020 15:10      93.4      91.5       22     48.2      0.00      0.00      84.6     0.45      1011.3     3.9     SSE   166   7.1       S     189     263       503       2.2       9.6      98.6      6.61
   07/07/2020 15:00      92.8      91.0       22     48.0      0.00      0.00      84.5     0.45      1011.4     5.6       S   176   8.6     SSW     195     263       517       3.4       9.2      98.6      6.62
   07/07/2020 14:50      93.3      91.8       22     48.5      0.00      0.00      84.3     0.45      1011.5     4.2       S   178  10.4     SSW     196     263       525       2.6       8.6      98.2      6.62
   07/07/2020 14:40      93.2      91.7       23     49.4      0.00      0.00      84.2     0.45      1011.6     6.5     SSE   166  11.0      SE     133     263       539       3.6       8.2      97.8      6.63
   07/07/2020 14:30      92.9      92.0       23     49.6      0.00      0.00      84.1     0.45      1011.6     5.7       S   188   9.8      SW     235     263       547       3.8       7.6      97.3      6.63
   07/07/2020 14:20      94.0      92.4       24     50.6      0.00      0.00      83.9     0.45      1011.6     4.8     SSW   203   9.2       S     176     263       548       3.1       7.0      97.2      6.64
   07/07/2020 14:10      95.6      93.9       21     49.3      0.00      0.00      83.8     0.45      1011.7     4.1      SW   233  10.6      SW     224     263       554       2.9       6.4      96.5      6.64
   07/07/2020 14:00      94.9      93.4       21     48.9      0.00      0.00      83.7     0.45      1011.8     1.9     ESE   108   4.6     ESE     119     263       563       1.6       6.0      95.8      6.65
   07/07/2020 13:50      94.4      93.6       22     49.8      0.00      0.00      83.6     0.45      1011.7     3.1       E    80   6.8       E      85     263       574       1.7       5.7      95.0      6.65
   07/07/2020 13:40      94.4      93.6       22     49.6      0.00      0.00      83.4     0.45      1011.8     2.8       E    88   7.0       E      98     263       576       1.8       5.4      94.5      6.66
   07/07/2020 13:30      94.3      93.1       22     49.7      0.00      0.00      83.3     0.45      1011.9     2.9       E    98   5.2     ENE      73     263       581       1.8       5.1      93.8      6.66
   07/07/2020 13:20      94.8      93.8       22     49.8      0.00      0.00      83.1     0.45      1012.0     2.5       E    85   4.9      SE     126     263       585       1.6       4.8      92.8      6.66
   07/07/2020 13:10      94.2      93.1       23     49.8      0.00      0.00      83.0     0.45      1012.1     2.5       E    80   4.5       S     174     263       585       1.7       4.5      91.6      6.66
   07/07/2020 13:00      93.9      92.1       23     49.8      0.00      0.00      82.8     0.45      1012.3     2.1      NE    48   5.7     ENE      60     263       582       1.2       4.2      90.8      6.67
   07/07/2020 12:50      93.1      92.2       23     49.8      0.00      0.00      82.8     0.45      1012.4     3.0     ENE    61   6.7     ESE     103     263       583       1.5       4.1      89.9      6.67
   07/07/2020 12:40      93.9      92.6       24     51.2      0.00      0.00      82.6     0.45      1012.4     1.9     ENE    61   4.5     ENE      76     263       579       1.0       3.8      88.7      6.67
   07/07/2020 12:30      92.8      91.3       27     53.2      0.00      0.00      82.5     0.45      1012.5     1.8       N     0   4.2     NNW     345     263       576       0.9       3.6      87.4      6.67
   07/07/2020 12:20      91.9      90.6       28     53.7      0.00      0.00      82.3     0.45      1012.6     2.1     NNE    18   5.3     ENE      58     263       573       1.1       3.5      86.2      6.67
   07/07/2020 12:10      91.8      90.8       27     53.1      0.00      0.00      82.2     0.45      1012.6     2.2     ENE    67   4.1     NNE      29     263       573       1.5       3.3      85.1      6.67
   07/07/2020 12:00      91.7      90.7       28     53.3      0.00      0.00      82.2     0.45      1012.7     2.2     ENE    66   5.6       E      97     263       568       1.5       3.1      83.8      6.67
   07/07/2020 11:50      90.9      88.7       29     53.6      0.00      0.00      82.1     0.45      1012.7     1.6     ENE    61   3.8       E      80     263       562       1.2       2.8      82.6      6.67
   07/07/2020 11:40      90.9      88.8       29     53.1      0.00      0.00      82.0     0.45      1012.8     2.2     ENE    78   6.1     ENE      75     263       551       1.2       2.6      81.2      6.67
   07/07/2020 11:30      90.2      88.8       28     52.4      0.00      0.00      82.0     0.45      1012.9     1.3     ENE    72   4.1       N       6     263       544       0.9       2.4      79.9      6.67
   07/07/2020 11:20      89.2      88.1       29     52.1      0.00      0.00      81.9     0.45      1013.0     1.6      NE    34   3.6     NNW     344     263       534       0.8       2.3      78.5      6.67
   07/07/2020 11:10      88.9      87.6       29     51.9      0.00      0.00      82.0     0.45      1013.1     1.4     NNE    33   4.2     NNW     338     263       524       0.6       2.1      77.4      6.67
   07/07/2020 11:00      87.6      86.1       31     52.4      0.00      0.00      81.9     0.45      1013.0     1.6     NNE    20   4.0      NE      36     263       515       1.1       2.0      76.2      6.67
   07/07/2020 10:50      86.2      85.6       31     51.8      0.00      0.00      82.0     0.45      1013.0     1.7     ENE    72   3.9       E      92     263       504       0.9       1.8      75.3      6.67
   07/07/2020 10:40      86.0      85.0       31     51.3      0.00      0.00      82.0     0.45      1013.0     1.2     ESE   117   3.2     SSE     155     263       491       0.8       1.7      74.2      6.67
   07/07/2020 10:30      85.8      83.9       32     51.6      0.00      0.00      82.0     0.45      1013.1     1.0       E    89   3.0     NNE      24     263       482       0.8       1.6      73.0      6.67
   07/07/2020 10:20      83.9      82.5       35     52.2      0.00      0.00      82.1     0.45      1013.2     1.2     NNE    23   4.1     NNE      26     263       464       0.8       1.4      72.0      6.67
   07/07/2020 10:10      82.7      81.8       36     52.4      0.00      0.00      82.2     0.45      1013.3     1.1     NNE    16   3.3       N       9     263       448       0.5       1.3      71.1      6.67
   07/07/2020 10:00      82.3      79.8       38     53.3      0.00      0.00      82.2     0.45      1013.4     0.5     NNW   329   2.7     WNW     284     263       430       0.3       1.2      70.1      6.67
   07/07/2020 09:50      80.6      79.6       39     53.2      0.00      0.00      82.3     0.46      1013.4     1.2       N    11   3.9     NNE      29     264       414       0.8       1.2      69.3      6.67
   07/07/2020 09:40      80.4      78.3       40     52.8      0.00      0.00      82.4     0.46      1013.5     0.8     NNE    14   2.5      SW     214     264       398       0.5       1.0      68.4      6.67
   07/07/2020 09:30      78.4      77.2       44     53.9      0.00      0.00      82.4     0.46      1013.5     0.8       N     9   2.5      NE      44     264       381       0.5       0.9      67.5      6.67
   07/07/2020 09:20      77.2      76.2       46     54.6      0.00      0.00      82.5     0.46      1013.5     1.3       W   267   3.1     WSW     245     265       364       0.9       0.9      66.7      6.67
   07/07/2020 09:10      76.2      74.3       50     55.4      0.00      0.00      82.6     0.46      1013.6     0.9      NW   304   2.9     NNE      20     265       354       0.8       0.7      66.2      6.67
   07/07/2020 09:00      74.4      72.1       54     55.5      0.00      0.00      82.7     0.46      1013.6     0.6       N   357   2.8      NE      54     266       360       0.5       0.6      65.6      6.67
   07/07/2020 08:50      72.3      71.1       56     55.3      0.00      0.00      82.7     0.46      1013.7     0.5      NE    52   2.3     NNE      31     266       109       0.3       0.5      65.0      6.67
   07/07/2020 08:40      71.2      70.1       58     55.1      0.00      0.00      82.7     0.46      1013.7     0.6     WSW   245   2.2     SSW     194     268       -10       0.2       0.5      64.3      6.67
   07/07/2020 08:30      70.3      69.3       59     54.9      0.00      0.00      82.8     0.46      1013.6     1.0      SE   127   2.8     ESE     109     269       -29       0.8       0.4      64.2      6.67
   07/07/2020 08:20      69.4      68.7       61     55.2      0.00      0.00      82.9     0.46      1013.6     0.8     NNE    13   2.3       N       6     269       -28       0.1       0.3      64.2      6.67
   07/07/2020 08:10      68.9      68.0       64     55.7      0.00      0.00      82.9     0.46      1013.6     0.8     ESE   118   2.3     WSW     246     269       -19       0.6       0.3      64.2      6.67
   07/07/2020 08:00      68.2      67.5       66     55.9      0.00      0.00      83.0     0.46      1013.5     0.5     NNE    20   1.6       W     272     269       -29       0.1       0.2      64.2      6.67
   07/07/2020 07:50      67.7      67.1       67     56.1      0.00      0.00      83.1     0.46      1013.5     0.9      NE    55   2.7      NE      52     270       -16       0.2       0.1      64.2      6.67
   07/07/2020 07:40      67.3      66.3       68     56.1      0.00      0.00      83.1     0.46      1013.5     0.8      NE    44   2.1     ENE      58     270        -8       0.0       0.1      64.2      6.67
   07/07/2020 07:30      66.3      65.5       69     55.4      0.00      0.00      83.2     0.46      1013.4     0.2     NNW   326   1.2     WNW     302     270       -13       0.0       0.1      64.3      6.67
   07/07/2020 07:20      65.5      64.7       68     54.3      0.00      0.00      83.3     0.46      1013.4     0.0       N     0   0.0     SSE     156     270       -31       0.0       0.0      64.4      6.67
   07/07/2020 07:10      64.8      63.6       68     53.4      0.00      0.00      83.3     0.46      1013.5     0.0      SE   139   0.5      SE     138     270       -31       0.0       0.0      64.3      6.67
   07/07/2020 07:00      63.8      62.7       70     53.4      0.00      0.00      83.4     0.46      1013.4     0.4      SE   144   0.9     SSE     146     270       -35       0.0       0.0      64.4      6.67
   07/07/2020 06:50      62.8      61.4       75     54.3      0.00      0.00      83.5     0.46      1013.3     0.0       N     0   0.0      SE     146     270       -37       0.0       0.0      64.6      6.67
   07/07/2020 06:40      61.6      60.6       77     53.6      0.00      0.00      83.5     0.46      1013.2     0.0       N     0   0.0      SE     142     271       -42       0.0       0.0      64.6      6.67
   07/07/2020 06:30      61.0      60.3       78     53.6      0.00      0.00      83.6     0.46      1013.2     0.0      SE   142   0.6      SE     142     270       -49       0.0       0.0      64.7      6.67
   07/07/2020 06:20      60.4      60.0       78     53.3      0.00      0.00      83.6     0.46      1013.1     0.3      SE   142   0.9      SE     146     270       -47       0.0       0.0      64.9      6.67
   07/07/2020 06:10      60.0      59.5       79     53.1      0.00      0.00      83.7     0.46      1013.0     0.0       N     0   0.0     SSE     162     270       -50       0.0       0.0      65.0      6.67
   07/07/2020 06:00      59.8      59.4       78     52.7      0.00      0.00      83.7     0.46      1012.9     0.5     SSE   160   1.0       S     177     271       -55       0.0       0.0      65.2      6.67
   07/07/2020 05:50      60.1      59.4       76     52.1      0.00      0.00      83.8     0.46      1012.9     0.3     SSE   162   1.0      SE     146     271       -59       0.0       0.0      65.4      6.67
   07/07/2020 05:40      60.0      59.7       76     52.4      0.00      0.00      83.9     0.46      1012.8     0.3     SSE   161   1.2     SSE     148     270       -60       0.0       0.0      65.6      6.67
   07/07/2020 05:30      60.1      59.8       77     52.5      0.00      0.00      83.9     0.46      1012.7     0.3     SSE   151   0.9     SSE     148     270       -61       0.0       0.0      65.9      6.68
   07/07/2020 05:20      60.0      59.6       76     52.2      0.00      0.00      83.9     0.46      1012.7     0.1     SSE   159   0.7     SSE     152     270       -61       0.0       0.0      66.2      6.68
   07/07/2020 05:10      60.2      59.8       75     52.0      0.00      0.00      84.0     0.46      1012.5     0.2     SSE   159   0.8       S     171     270       -63       0.0       0.0      66.4      6.68
   07/07/2020 05:00      60.2      59.8       73     51.4      0.00      0.00      84.1     0.46      1012.4     0.3     SSE   162   0.9     SSE     149     270       -63       0.0       0.0      66.7      6.68
   07/07/2020 04:50      60.6      59.9       71     50.8      0.00      0.00      84.1     0.46      1012.3     0.3     SSE   165   0.7       S     170     270       -63       0.0       0.0      66.9      6.68
   07/07/2020 04:40      61.2      60.4       71     51.3      0.00      0.00      84.1     0.46      1012.2     0.4     SSE   161   1.1     SSE     154     269       -63       0.0       0.0      67.1      6.68
   07/07/2020 04:30      61.4      61.1       70     51.3      0.00      0.00      84.2     0.46      1012.2     0.7     SSE   153   1.2      SE     142     269       -62       0.0       0.0      67.5      6.68
   07/07/2020 04:20      61.4      61.1       68     50.7      0.00      0.00      84.2     0.46      1012.2     0.2     SSE   155   0.7     SSE     156     269       -63       0.0       0.0      67.8      6.68
   07/07/2020 04:10      61.5      61.2       67     50.1      0.00      0.00      84.2     0.46      1012.0     0.3     SSE   152   1.0     SSE     147     268       -65       0.0       0.0      67.9      6.68
   07/07/2020 04:00      61.4      61.1       65     49.6      0.00      0.00      84.3     0.46      1012.0     1.0     SSE   151   1.9      SE     144     268       -65       0.1       0.0      68.2      6.68
   07/07/2020 03:50      62.0      61.3       64     49.5      0.00      0.00      84.3     0.46      1012.1     0.6     SSE   163   2.3     SSE     149     268       -65       0.0       0.0      68.5      6.68
   07/07/2020 03:40      62.8      61.9       63     49.6      0.00      0.00      84.4     0.46      1012.1     0.3       S   174   1.0       S     172     268       -65       0.0       0.0      68.8      6.68
   07/07/2020 03:30      62.8      62.5       62     49.6      0.00      0.00      84.4     0.46      1012.1     0.3       S   172   1.1       S     187     268       -65       0.0       0.0      69.2      6.68
   07/07/2020 03:20      63.1      62.3       60     48.4      0.00      0.00      84.5     0.46      1012.0     0.3       S   188   0.9     SSE     167     268       -65       0.0       0.0      69.4      6.68
   07/07/2020 03:10      63.6      63.0       57     47.9      0.00      0.00      84.5     0.46      1012.0     0.3     SSE   156   1.0     SSE     146     268       -65       0.0       0.0      69.7      6.68
   07/07/2020 03:00      64.0      63.3       56     47.8      0.00      0.00      84.6     0.46      1012.1     0.1       S   169   0.7       S     172     267       -64       0.0       0.0      70.0      6.68
   07/07/2020 02:50      64.2      63.7       55     47.6      0.00      0.00      84.9     0.46      1012.1     0.1     SSE   161   0.6       S     170     267       -64       0.0       0.0      70.5      6.69
   07/07/2020 02:40      64.1      63.6       55     47.5      0.00      0.00      85.6     0.46      1012.1     0.0     SSE   167   0.6     SSE     164     267       -65       0.0       0.0      71.4      6.69
   07/07/2020 02:30      64.5      63.6       54     47.3      0.00      0.00      85.6     0.46      1012.2     0.2     SSE   167   1.0       S     176     267       -66       0.0       0.0      71.7      6.69
   07/07/2020 02:20      65.5      64.3       52     47.0      0.00      0.00      85.7     0.46      1012.2     0.3     SSE   159   1.3      SE     141     267       -67       0.0       0.0      72.0      6.69
   07/07/2020 02:10      65.5      65.0       51     46.9      0.00      0.00      85.7     0.47      1012.2     0.4       S   171   1.0      SE     146     266       -67       0.0       0.0      72.4      6.69
   07/07/2020 02:00      65.6      65.1       50     46.5      0.00      0.00      85.8     0.47      1012.2     0.3     SSE   154   0.9     SSE     149     266       -67       0.0       0.0      72.7      6.69
   07/07/2020 01:50      65.8      65.3       50     46.5      0.00      0.00      85.9     0.46      1012.2     0.1     SSE   148   1.3     SSE     147     266       -67       0.0       0.0      73.1      6.69
   07/07/2020 01:40      65.9      65.6       49     46.2      0.00      0.00      85.9     0.47      1012.2     0.6     SSE   165   1.4      SE     138     266       -68       0.0       0.0      73.4      6.69
   07/07/2020 01:30      66.3      65.5       49     45.9      0.00      0.00      85.9     0.47      1012.1     0.5       S   174   1.1     SSW     213     266       -68       0.0       0.0      73.8      6.69
   07/07/2020 01:20      66.4      66.0       47     45.5      0.00      0.00      85.9     0.46      1012.1     0.2     SSE   162   0.9       S     179     266       -68       0.0       0.0      74.2      6.70
   07/07/2020 01:10      66.6      66.1       46     45.2      0.00      0.00      86.1     0.46      1012.1     0.6       S   174   1.6     SSW     198     266       -67       0.0       0.0      74.7      6.70
   07/07/2020 01:00      66.8      66.4       47     45.6      0.00      0.00      86.1     0.47      1012.1     0.3     SSW   206   1.6     SSW     203     266       -67       0.0       0.0      75.0      6.70
   07/07/2020 00:50      67.0      66.7       47     46.0      0.00      0.00      86.0     0.47      1012.1     0.1      SE   138   0.9      SE     146     266       -68       0.0       0.0      75.5      6.70
   07/07/2020 00:40      67.4      66.7       47     46.2      0.00      0.00      86.2     0.47      1012.1     0.6     SSE   166   1.4     SSE     148     266       -69       0.0       0.0      75.9      6.70
   07/07/2020 00:30      67.6      67.2       47     46.2      0.00      0.00      86.2     0.47      1012.1     1.4      SE   146   2.5      SE     140     266       -70       0.0       0.0      76.3      6.70
   07/07/2020 00:20      67.8      67.2       46     46.0      0.00      0.00      86.2     0.47      1012.1     0.5     SSE   160   1.2      SE     143     266       -70       0.1       0.0      76.7      6.70
   07/07/2020 00:10      68.5      67.7       45     46.0      0.00      0.00      86.3     0.47      1012.1     0.7     SSE   165   1.1     SSE     159     266       -70       0.0       0.0      77.1      6.71
   07/07/2020 00:00      68.3      67.7       46     46.2      0.00      0.00      86.3     0.47      1012.1     0.6     SSE   161   1.4     SSE     158     266       -71       0.0      18.3      77.5      6.71
   07/06/2020 23:50      69.2      68.2       45     46.5      0.00      0.00      86.4     0.47      1012.1     0.6     SSE   162   1.9      SE     143     266       -71       0.0      18.3      77.9      6.71
   07/06/2020 23:40      69.5      69.0       44     46.5      0.00      0.00      86.4     0.47      1012.1     0.4     SSE   163   1.1     SSE     156     266       -71       0.0      18.3      78.4      6.71
   07/06/2020 23:30      69.9      69.3       44     46.8      0.00      0.00      86.5     0.47      1012.1     0.4     SSE   163   1.1     SSE     151     266       -72       0.1      18.3      78.8      6.71
   07/06/2020 23:20      70.5      69.8       42     46.1      0.00      0.00      86.5     0.47      1012.1     0.4     SSE   158   1.1      SE     144     266       -72       0.2      18.3      79.3      6.71
   07/06/2020 23:10      71.2      70.3       40     45.4      0.00      0.00      86.5     0.47      1012.1     0.4     SSE   165   0.9     SSE     159     266       -72       0.0      18.3      79.8      6.71
   07/06/2020 23:00      71.9      71.1       40     45.7      0.00      0.00      86.5     0.47      1012.1     0.7       S   185   1.3     SSW     192     266       -73       0.0      18.3      80.2      6.72
   07/06/2020 22:50      72.7      71.5       39     46.0      0.00      0.00      86.6     0.47      1012.2     0.8       S   181   1.3       S     174     265       -73       0.0      18.3      80.8      6.72
   07/06/2020 22:40      73.3      72.5       38     46.1      0.00      0.00      86.6     0.47      1012.1     0.0       N     0   0.0     SSE     160     265       -73       0.0      18.3      81.2      6.72
   07/06/2020 22:30      73.7      73.1       37     45.8      0.00      0.00      86.6     0.47      1012.1     0.2       S   170   0.8       S     179     265       -74       0.0      18.3      81.8      6.72
   07/06/2020 22:20      74.4      73.6       36     45.3      0.00      0.00      86.5     0.47      1012.1     0.0     SSE   157   0.5     SSE     158     265       -76       0.0      18.3      82.4      6.73
   07/06/2020 22:10      75.1      74.4       35     45.3      0.00      0.00      86.7     0.47      1012.1     0.2     SSE   147   1.2      SE     128     264       -78       0.0      18.3      82.8      6.73
   07/06/2020 22:00      75.2      74.8       36     46.0      0.00      0.00      86.6     0.47      1012.0     0.3      SE   137   1.9       E      90     264       -78       0.0      18.3      83.2      6.73
   07/06/2020 21:50      75.6      75.0       36     46.6      0.00      0.00      86.5     0.47      1011.9     0.0     SSW   209   0.7      SW     223     264       -78       0.0      18.3      83.7      6.73
   07/06/2020 21:40      76.1      75.5       35     46.3      0.00      0.00      86.6     0.47      1011.8     0.0     ESE   112   0.7      SE     129     264       -79       0.0      18.3      84.2      6.74
   07/06/2020 21:30      76.3      75.8       33     45.0      0.00      0.00      86.5     0.47      1011.7     0.2     SSW   195   1.0       S     174     264       -79       0.0      18.3      84.7      6.74
   07/06/2020 21:20      76.9      76.1       31     43.8      0.00      0.00      86.5     0.47      1011.5     0.2       S   175   1.0      SW     222     264       -79       0.0      18.3      85.3      6.74
   07/06/2020 21:10      77.4      76.6       30     43.4      0.00      0.00      86.6     0.46      1011.3     0.2     SSW   203   1.1     SSW     199     264       -80       0.0      18.3      85.9      6.74
   07/06/2020 21:00      79.1      77.4       28     42.8      0.00      0.00      86.4     0.46      1011.2     0.3       S   171   0.9       S     178     263       -80       0.0      18.2      86.5      6.75
   07/06/2020 20:50      80.5      79.1       26     42.0      0.00      0.00      86.5     0.46      1011.2     0.0     ESE   110   0.5       E      87     263       -82       0.0      18.2      87.1      6.75
   07/06/2020 20:40      82.1      80.3       25     41.6      0.00      0.00      86.4     0.46      1011.1     0.3     SSE   168   1.1       S     175     263       -83       0.0      18.2      87.6      6.75
   07/06/2020 20:30      83.1      82.0       23     41.1      0.00      0.00      86.4     0.46      1011.0     1.6     SSW   192   2.6       S     173     263       -86       0.5      18.2      88.3      6.75
   07/06/2020 20:20      83.8      83.0       21     40.0      0.00      0.00      86.3     0.46      1010.9     1.8       S   187   2.7      SE     144     263       -87       0.8      18.1      88.9      6.76
   07/06/2020 20:10      84.9      83.6       21     40.3      0.00      0.00      86.4     0.46      1010.9     1.8     SSW   192   3.1       S     187     263       -86       0.8      18.0      89.6      6.76
   07/06/2020 20:00      85.7      84.9       21     40.6      0.00      0.00      86.3     0.46      1010.8     2.3     SSW   195   3.9     SSW     194     263       -84       1.1      17.9      90.2      6.76
   07/06/2020 19:50      86.3      85.6       20     40.9      0.00      0.00      86.3     0.46      1010.8     2.8     SSW   194   4.4     SSW     195     263       -82       1.5      17.7      90.8      6.77
   07/06/2020 19:40      87.6      86.2       21     41.7      0.00      0.00      86.3     0.46      1010.8     3.0       S   178   4.4      SE     134     263       -71       1.8      17.5      91.5      6.78
   07/06/2020 19:30      88.3      87.4       21     43.4      0.00      0.00      86.3     0.46      1010.8     2.4       S   174   4.4       S     188     263       -54       1.4      17.2      92.1      6.78
   07/06/2020 19:20      88.9      88.1       21     43.6      0.00      0.00      86.3     0.46      1010.8     2.8       S   184   5.0     SSW     192     263       -35       1.6      16.9      92.6      6.79
   07/06/2020 19:10      89.4      88.7       20     43.1      0.00      0.00      86.3     0.46      1010.8     3.4     SSW   203   6.0     SSW     205     263       -15       2.0      16.7      93.4      6.79
   07/06/2020 19:00      89.8      89.1       19     41.6      0.00      0.00      86.3     0.46      1010.8     2.8       S   181   4.6      SE     140     263         7       1.8      16.3      93.8      6.79
   07/06/2020 18:50      90.1      89.5       18     41.0      0.00      0.00      86.2     0.46      1010.7     2.6       S   174   5.2       S     185     263        30       1.7      16.0      94.4      6.80
   07/06/2020 18:40      90.4      89.6       18     41.3      0.00      0.00      86.3     0.46      1010.8     3.9       S   179   6.6       S     187     263        54       2.5      15.8      95.0      6.80
   07/06/2020 18:30      91.6      90.1       18     41.4      0.00      0.00      86.1     0.46      1010.7     4.7     SSW   193   7.3     SSW     203     263        77       3.0      15.3      95.7      6.81
   07/06/2020 18:20      91.8      91.0       18     41.4      0.00      0.00      86.1     0.46      1010.6     3.8       S   178   8.9      SW     217     263       102       2.3      14.8      96.1      6.82
   07/06/2020 18:10      92.8      91.6       17     41.7      0.00      0.00      85.8     0.46      1010.5     3.9       S   171   7.4     SSW     210     263       126       2.6      14.4      96.8      6.83
   07/06/2020 18:00      93.2      92.6       18     42.9      0.00      0.00      85.7     0.46      1010.5     3.8       S   178   7.4     SSE     154     263       150       2.5      14.0      97.3      6.83
   07/06/2020 17:50      93.9      92.9       18     43.7      0.00      0.00      85.6     0.46      1010.5     4.2       S   191   6.8     SSW     204     263       173       2.5      13.6      97.5      6.84
   07/06/2020 17:40      94.0      93.5       19     45.2      0.00      0.00      85.5     0.46      1010.5     3.4     SSW   202   7.0     SSW     203     263       196       2.3      13.2      97.6      6.84
   07/06/2020 17:30      96.5      94.1       21     49.3      0.00      0.00      85.3     0.46      1010.6     4.4     WSW   257   8.0       W     265     263       221       3.3      12.8      97.8      6.84
   07/06/2020 17:20      96.5      95.2       23     52.0      0.00      0.00      85.2     0.46      1010.8     1.8     WNW   296   6.3     WSW     242     263       241       1.6      12.3      98.1      6.85
   07/06/2020 17:10      96.5      94.9       23     52.4      0.00      0.00      84.9     0.46      1010.8     3.8     WNW   285   8.7     WSW     257     263       264       2.6      12.0      98.2      6.86
   07/06/2020 17:00      97.5      96.1       22     52.2      0.00      0.00      84.7     0.46      1010.8     3.6       W   281   6.7       W     278     263       285       2.8      11.6      98.3      6.86
   07/06/2020 16:50      96.5      95.8       22     51.6      0.00      0.00      84.5     0.46      1010.8     2.5     WNW   288   8.0       W     269     263       306       2.2      11.1      98.5      6.87
   07/06/2020 16:40      96.9      96.0       21     49.6      0.00      0.00      84.3     0.45      1010.9     4.3       W   265   9.0     WSW     259     263       326       3.4      10.7      98.6      6.87
   07/06/2020 16:30      98.0      96.0       17     45.1      0.00      0.00      84.1     0.45      1010.9     2.4     WSW   243   6.8      SW     232     263       344       2.0      10.2      98.6      6.88
   07/06/2020 16:20      96.1      95.1       17     44.7      0.00      0.00      83.9     0.45      1011.0     3.1     SSE   155   6.7       S     186     263       371       2.1       9.8      98.5      6.88
   07/06/2020 16:10      97.5      96.0       17     44.6      0.00      0.00      83.7     0.45      1011.2     2.8     SSW   203   7.4       W     266     262       390       1.8       9.5      98.4      6.89
   07/06/2020 16:00      98.1      96.4       17     44.9      0.00      0.00      83.6     0.45      1011.3     2.1     WSW   237   6.5      SW     225     263       407       1.8       9.2      98.3      6.89
   07/06/2020 15:50      96.9      95.2       17     44.3      0.00      0.00      83.4     0.45      1011.4     1.8     SSW   203   5.4      SW     225     263       426       1.5       8.9      98.2      6.89
   07/06/2020 15:40      96.7      94.7       17     43.1      0.00      0.00      83.1     0.45      1011.5     3.4     SSW   193   6.5     SSW     208     263       442       2.4       8.6      97.6      6.90
   07/06/2020 15:30      96.4      94.7       16     41.8      0.00      0.00      82.9     0.45      1011.6     3.1     SSE   150   9.5      SE     140     263       459       1.7       8.2      97.2      6.90
   07/06/2020 15:20      96.4      95.4       16     42.3      0.00      0.00      82.7     0.45      1011.6     2.4      SE   144   5.3      SE     131     262       476       1.7       7.9      96.9      6.91
   07/06/2020 15:10      95.8      94.8       16     41.3      0.00      0.00      82.5     0.45      1011.7     2.6     ESE   103   7.3      NE      48     262       492       1.4       7.7      96.4      6.91
   07/06/2020 15:00      95.9      94.5       15     40.8      0.00      0.00      82.4     0.45      1011.8     3.0       E    99   6.4     SSE     157     262       506       1.9       7.4      96.0      6.92
   07/06/2020 14:50      95.1      94.5       15     40.5      0.00      0.00      82.1     0.45      1011.9     3.5     ESE   114   6.8     ESE     105     262       519       2.2       7.1      95.6      6.92
   07/06/2020 14:40      96.2      95.2       15     41.1      0.00      0.00      82.0     0.45      1011.9     3.5     ESE   117   9.7       E      93     262       528       2.0       6.7      95.2      6.93
   07/06/2020 14:30      96.2      94.1       16     41.1      0.00      0.00      81.9     0.45      1011.9     2.7     ESE   113   6.2     SSE     161     262       539       1.4       6.4      94.7      6.93
   07/06/2020 14:20      96.7      94.1       16     41.4      0.00      0.00      81.8     0.45      1011.9     4.2     ESE   114   9.0      SE     140     262       549       2.5       6.2      94.4      6.93
   07/06/2020 14:10      96.6      95.3       16     42.2      0.00      0.00      81.8     0.45      1011.9     2.8       E    85   6.3     ENE      77     263       555       2.0       5.8      93.9      6.94
   07/06/2020 14:00      96.7      95.4       16     42.3      0.00      0.00      81.8     0.45      1012.1     3.0     ENE    56   6.3     NNE      24     263       559       1.7       5.4      93.3      6.95
   07/06/2020 13:50      97.3      95.5       16     43.3      0.00      0.00      81.7     0.45      1012.1     2.6     ENE    61   7.0     ESE     105     262       560       1.8       5.1      92.8      6.95
   07/06/2020 13:40      98.0      96.0       16     43.3      0.00      0.00      81.7     0.45      1012.1     2.4      NE    40   5.3     ENE      57     262       564       1.3       4.8      92.3      6.95
   07/06/2020 13:30      98.0      95.9       16     43.5      0.00      0.00      81.6     0.45      1012.2     1.6     NNE    26   4.1      NE      41     262       571       1.0       4.6      91.4      6.95
   07/06/2020 13:20      96.1      95.5       17     44.0      0.00      0.00      81.6     0.45      1012.3     2.2     ENE    77   4.5       E      87     262       579       1.6       4.4      90.7      6.96
   07/06/2020 13:10      95.6      93.8       18     44.0      0.00      0.00      81.5     0.45      1012.3     2.3     ENE    71   4.7     SSE     147     262       582       1.5       4.2      89.9      6.96
   07/06/2020 13:00      94.5      93.3       19     45.1      0.00      0.00      81.6     0.45      1012.4     2.6     ESE   118   6.2      SE     127     262       582       1.6       3.9      89.2      6.96
   07/06/2020 12:50      94.7      93.6       19     45.2      0.00      0.00      81.5     0.45      1012.5     2.8     ENE    69   5.9       E      79     262       580       1.4       3.7      88.2      6.96
   07/06/2020 12:40      94.6      94.0       19     45.4      0.00      0.00      81.5     0.45      1012.6     2.4     NNE    24   5.7      NE      56     262       575       1.0       3.4      87.3      6.97
   07/06/2020 12:30      94.4      92.9       20     46.0      0.00      0.00      81.6     0.45      1012.7     2.3     NNE    33   4.8      NE      51     262       574       1.1       3.3      86.3      6.97
   07/06/2020 12:20      93.8      92.6       20     46.3      0.00      0.00      81.6     0.45      1012.7     1.9       E    81   4.2       S     184     262       572       1.3       3.1      85.4      6.97
   07/06/2020 12:10      93.4      92.1       20     45.7      0.00      0.00      81.6     0.45      1012.8     2.2      NE    53   4.8       E      94     262       569       1.4       2.9      84.4      6.97
   07/06/2020 12:00      93.0      91.2       20     46.0      0.00      0.00      81.6     0.45      1012.8     2.1      NE    38   4.6     NNE      31     262       562       1.1       2.6      83.3      6.97
   07/06/2020 11:50      92.6      90.2       21     45.9      0.00      0.00      81.8     0.45      1012.9     1.5     NNE    14   4.2     NNE      21     262       558       0.9       2.4      82.1      6.97
   07/06/2020 11:40      91.8      90.2       21     46.5      0.00      0.00      81.8     0.45      1012.9     2.5     ENE    65   5.8       E      79     262       550       1.4       2.3      81.1      6.97
   07/06/2020 11:30      90.9      89.6       24     48.3      0.00      0.00      81.9     0.45      1012.9     1.6      NE    45   4.2       E      89     263       542       0.9       2.0      79.8      6.97
   07/06/2020 11:20      89.9      89.1       25     49.7      0.00      0.00      82.0     0.45      1013.0     2.3     ENE    57   5.0      SE     129     263       534       1.0       1.9      78.8      6.97
   07/06/2020 11:10      89.5      88.8       26     50.0      0.00      0.00      82.0     0.45      1013.1     2.1     NNE    22   3.9       E      92     263       523       0.9       1.7      77.6      6.97
   07/06/2020 11:00      89.7      87.8       27     50.3      0.00      0.00      82.0     0.45      1013.0     1.6      NE    44   3.8      NE      34     263       513       0.7       1.6      76.7      6.97
   07/06/2020 10:50      88.7      87.3       28     50.5      0.00      0.00      82.1     0.45      1013.1     1.6       N     8   5.1     NNE      30     263       502       0.8       1.5      75.7      6.97
   07/06/2020 10:40      87.9      86.7       28     50.3      0.00      0.00      82.1     0.45      1013.1     1.4      NW   314   5.2     ESE     110     263       490       1.1       1.3      74.7      6.97
   07/06/2020 10:30      87.6      86.6       28     50.2      0.00      0.00      82.1     0.45      1013.1     1.3     ENE    57   3.9      NE      54     263       476       0.8       1.1      73.7      6.97
   07/06/2020 10:20      87.1      84.4       30     50.3      0.00      0.00      82.2     0.45      1013.0     0.5       N     9   2.4     NNE      21     263       462       0.5       1.0      72.7      6.97
   07/06/2020 10:10      85.2      84.0       30     50.2      0.00      0.00      82.3     0.45      1012.9     1.6     ENE    79   4.2      SE     145     263       447       1.1       0.9      71.7      6.97
   07/06/2020 10:00      84.0      82.5       32     50.1      0.00      0.00      82.4     0.45      1013.0     1.2       E    82   4.1     ENE      69     263       430       0.6       0.7      70.7      6.97
   07/06/2020 09:50      82.9      82.3       32     50.1      0.00      0.00      82.4     0.45      1013.0     1.5     ESE   105   4.2     ESE     123     263       413       0.8       0.6      69.8      6.97
   07/06/2020 09:40      82.5      81.5       33     50.1      0.00      0.00      82.4     0.46      1013.0     1.0       N     5   2.6     ENE      59     264       396       0.6       0.5      68.9      6.97
   07/06/2020 09:30      82.1      81.1       33     50.1      0.00      0.00      82.5     0.46      1013.0     1.1     NNE    15   4.4     NNW     345     264       379       0.4       0.4      68.1      6.97
   07/06/2020 09:20      81.0      79.1       35     49.5      0.00      0.00      82.6     0.46      1013.0     1.1       E    91   3.1     ESE     108     264       365       0.5       0.3      67.4      6.97
   07/06/2020 09:10      79.5      78.0       36     49.1      0.00      0.00      82.7     0.46      1013.0     1.0     NNE    30   3.4     NNW     344     264       356       0.3       0.3      66.7      6.97
   07/06/2020 09:00      78.0      75.3       38     48.8      0.00      0.00      82.7     0.46      1013.0     0.7      NE    51   2.3      SE     136     264       364       0.1       0.2      66.1      6.97
   07/06/2020 08:50      75.4      74.1       40     48.9      0.00      0.00      82.7     0.46      1013.0     0.4       N     2   1.6     NNE      33     266       121       0.0       0.2      65.6      6.97
   07/06/2020 08:40      74.3      73.4       40     48.4      0.00      0.00      82.8     0.46      1013.0     0.8       N     6   2.4     NNE      21     267        -3       0.0       0.2      64.8      6.97
   07/06/2020 08:30      73.5      72.6       41     48.1      0.00      0.00      82.9     0.46      1013.0     0.5       W   275   1.8      NW     311     267       -29       0.0       0.2      64.8      6.97
   07/06/2020 08:20      72.6      71.7       43     48.2      0.00      0.00      82.9     0.46      1013.0     0.4      SW   222   2.0     SSW     209     267       -30       0.0       0.2      64.8      6.97
   07/06/2020 08:10      71.8      70.7       43     47.6      0.00      0.00      83.0     0.46      1013.0     0.4       N     1   1.7       N     353     267       -23       0.0       0.2      64.8      6.97
   07/06/2020 08:00      70.7      69.6       45     48.0      0.00      0.00      83.0     0.46      1013.0     0.7     NNE    22   1.5     NNE      16     267       -30       0.0       0.2      64.8      6.97
   07/06/2020 07:50      69.8      69.1       48     48.7      0.00      0.00      83.1     0.46      1012.9     0.6     NNE    12   1.8      NE      35     268       -17       0.0       0.1      64.8      6.97
   07/06/2020 07:40      69.2      68.2       51     49.8      0.00      0.00      83.2     0.46      1012.9     0.4       N   356   1.3     WNW     293     268        -8       0.0       0.1      64.9      6.97
   07/06/2020 07:30      68.2      67.1       53     49.9      0.00      0.00      83.2     0.46      1012.8     0.7     NNW   330   1.6      NW     311     268       -14       0.1       0.1      64.9      6.97
   07/06/2020 07:20      67.1      65.7       57     50.7      0.00      0.00      83.3     0.46      1012.7     0.3       E   101   0.9     NNE      11     268       -35       0.0       0.1      64.9      6.97
   07/06/2020 07:10      65.8      64.1       60     50.7      0.00      0.00      83.4     0.46      1012.6     0.7     ESE   114   1.1      SE     136     269       -35       0.2       0.1      65.0      6.98
   07/06/2020 07:00      64.1      62.4       63     50.5      0.00      0.00      83.4     0.46      1012.6     0.9      SE   132   1.3      SE     135     269       -40       0.0       0.0      65.0      6.98
   07/06/2020 06:50      62.4      61.1       66     50.6      0.00      0.00      83.4     0.46      1012.6     0.3      SE   130   0.9      SE     132     270       -41       0.0       0.0      65.1      6.98
   07/06/2020 06:40      61.1      60.4       69     50.5      0.00      0.00      83.5     0.46      1012.5     0.0       N     0   0.0     SSE     154     270       -46       0.0       0.0      65.2      6.98
   07/06/2020 06:30      60.5      59.9       70     50.2      0.00      0.00      83.6     0.46      1012.5     0.5     SSE   154   1.0     SSE     149     270       -53       0.0       0.0      65.3      6.98
   07/06/2020 06:20      60.0      59.2       71     50.1      0.00      0.00      83.6     0.46      1012.4     0.1     SSE   163   1.2     SSE     153     269       -50       0.0       0.0      65.5      6.98
   07/06/2020 06:10      59.4      59.0       70     49.6      0.00      0.00      83.7     0.46      1012.2     0.2     SSE   163   0.7     SSE     157     270       -53       0.0       0.0      65.7      6.98
   07/06/2020 06:00      59.8      59.2       69     49.3      0.00      0.00      83.7     0.46      1012.1     0.3     SSE   161   1.1     SSE     155     270       -57       0.0       0.0      65.9      6.98
   07/06/2020 05:50      60.0      59.5       67     48.8      0.00      0.00      83.8     0.46      1012.1     0.3     SSE   160   0.9     SSE     156     270       -59       0.0       0.0      66.2      6.98
   07/06/2020 05:40      60.0      59.5       68     49.2      0.00      0.00      83.9     0.46      1012.0     0.1       S   181   0.7     SSW     194     270       -61       0.0       0.0      66.5      6.98
   07/06/2020 05:30      59.9      59.5       69     49.7      0.00      0.00      83.9     0.46      1011.8     0.1     SSE   158   0.7     SSE     151     270       -62       0.0       0.0      66.7      6.98
   07/06/2020 05:20      60.0      59.4       70     49.9      0.00      0.00      84.0     0.46      1011.6     0.4     SSE   162   1.0     SSE     167     270       -63       0.0       0.0      67.0      6.98
   07/06/2020 05:10      60.1      59.7       70     50.0      0.00      0.00      84.0     0.46      1011.5     0.5     SSE   165   1.0     SSE     157     270       -64       0.0       0.0      67.3      6.98
   07/06/2020 05:00      60.3      59.8       69     49.9      0.00      0.00      84.1     0.46      1011.5     0.1      SE   144   0.7      SE     137     270       -64       0.0       0.0      67.5      6.98
   07/06/2020 04:50      60.6      60.2       68     49.7      0.00      0.00      84.1     0.46      1011.5     0.0     SSE   163   0.5     SSE     162     270       -64       0.0       0.0      67.8      6.98
   07/06/2020 04:40      61.5      60.6       65     49.5      0.00      0.00      84.1     0.46      1011.4     0.4     SSE   157   0.8       S     191     269       -64       0.0       0.0      68.1      6.99
   07/06/2020 04:30      61.8      61.4       64     49.1      0.00      0.00      84.3     0.46      1011.5     0.4       S   170   1.1       S     185     269       -63       0.0       0.0      68.4      6.99
   07/06/2020 04:20      61.8      61.5       63     49.1      0.00      0.00      84.3     0.46      1011.5     0.0     SSE   160   0.5     SSE     160     269       -63       0.0       0.0      68.7      6.99
   07/06/2020 04:10      61.7      61.2       65     49.5      0.00      0.00      84.3     0.46      1011.5     0.2     SSE   159   0.8     SSE     156     269       -63       0.0       0.0      69.0      6.99
   07/06/2020 04:00      61.4      61.1       65     49.4      0.00      0.00      84.4     0.46      1011.5     0.5     SSE   165   1.2     SSE     156     269       -64       0.0       0.0      69.3      6.99
   07/06/2020 03:50      61.5      61.2       64     49.0      0.00      0.00      84.5     0.46      1011.5     0.5     SSE   155   1.1       S     171     268       -64       0.0       0.0      69.7      6.99
   07/06/2020 03:40      62.3      61.5       62     48.7      0.00      0.00      84.5     0.46      1011.6     0.5     SSE   155   1.0      SE     146     268       -64       0.0       0.0      70.0      6.99
   07/06/2020 03:30      62.5      62.0       61     48.9      0.00      0.00      84.6     0.46      1011.6     0.4       S   172   1.1       S     173     268       -63       0.0       0.0      70.3      6.99
   07/06/2020 03:20      62.4      62.1       62     49.0      0.00      0.00      84.6     0.46      1011.6     0.2     SSE   163   0.9     SSE     156     268       -63       0.0       0.0      70.6      6.99
   07/06/2020 03:10      62.6      62.0       61     48.9      0.00      0.00      84.7     0.46      1011.6     0.1       S   170   0.8       S     177     268       -65       0.0       0.0      70.9      6.99
   07/06/2020 03:00      63.3      62.5       59     48.7      0.00      0.00      84.7     0.46      1011.6     0.4     SSE   152   1.2      SE     139     268       -65       0.0       0.0      71.3      6.99
   07/06/2020 02:50      62.8      62.3       60     48.6      0.00      0.00      84.8     0.46      1011.7     0.2       S   173   0.8       S     173     268       -65       0.0       0.0      71.6      6.99
   07/06/2020 02:40      63.1      62.7       59     48.5      0.00      0.00      84.8     0.46      1011.7     0.2     SSE   152   1.3      SE     138     268       -66       0.0       0.0      72.0      7.00
   07/06/2020 02:30      63.2      62.8       59     48.6      0.00      0.00      84.9     0.46      1011.7     0.4     SSE   165   1.4       S     176     268       -66       0.0       0.0      72.4      7.00
   07/06/2020 02:20      63.7      63.1       58     48.3      0.00      0.00      84.9     0.46      1011.8     0.4     SSE   149   1.6      SE     138     268       -67       0.0       0.0      72.8      7.00
   07/06/2020 02:10      63.8      63.4       58     48.6      0.00      0.00      85.0     0.47      1011.8     0.4       S   170   1.6       S     182     268       -67       0.0       0.0      73.1      7.00
   07/06/2020 02:00      64.0      63.5       58     48.6      0.00      0.00      85.0     0.46      1011.7     0.4     SSE   157   1.2      SE     142     268       -68       0.0       0.0      73.4      7.00
   07/06/2020 01:50      64.4      63.9       57     48.7      0.00      0.00      85.1     0.46      1011.7     0.3     SSE   147   1.3      SE     142     267       -69       0.0       0.0      73.7      7.00
   07/06/2020 01:40      64.9      64.2       57     48.9      0.00      0.00      85.1     0.47      1011.7     0.6     SSE   155   1.3     SSE     168     267       -69       0.1       0.0      74.1      7.00
   07/06/2020 01:30      65.2      64.8       55     48.7      0.00      0.00      85.1     0.47      1011.7     0.4     SSE   153   1.0       S     173     267       -69       0.0       0.0      74.5      7.00
   07/06/2020 01:20      65.6      65.0       56     49.2      0.00      0.00      85.2     0.46      1011.6     0.3       S   185   1.3     SSW     197     267       -69       0.0       0.0      74.9      7.00
   07/06/2020 01:10      66.5      65.6       53     48.5      0.00      0.00      85.2     0.46      1011.7     0.3     SSE   147   1.3      SE     139     267       -69       0.0       0.0      75.3      7.00
   07/06/2020 01:00      66.6      66.1       53     48.8      0.00      0.00      85.3     0.47      1011.8     0.3       S   174   1.0       S     181     267       -68       0.0       0.0      75.7      7.01
   07/06/2020 00:50      66.8      66.2       53     48.7      0.00      0.00      85.3     0.47      1011.8     0.2       S   175   1.1       S     178     267       -69       0.0       0.0      76.0      7.01
   07/06/2020 00:40      67.2      66.4       52     48.4      0.00      0.00      85.3     0.47      1011.7     0.2     SSE   167   1.1       S     175     267       -71       0.0       0.0      76.4      7.01
   07/06/2020 00:30      67.4      66.7       51     48.4      0.00      0.00      85.4     0.47      1011.8     0.8     SSE   166   1.3     SSE     166     266       -71       0.3       0.0      76.9      7.01
   07/06/2020 00:20      67.5      67.2       50     48.0      0.00      0.00      85.4     0.47      1011.9     0.5     SSE   166   1.1       S     172     266       -71       0.0       0.0      77.2      7.01
   07/06/2020 00:10      67.5      67.0       50     47.9      0.00      0.00      85.4     0.47      1011.9     0.6       S   174   1.1       S     181     266       -71       0.0       0.0      77.6      7.01
   07/06/2020 00:00      67.8      67.3       49     47.6      0.00      0.00      85.4     0.47      1011.8     0.3       S   180   1.1     SSW     198     266       -72       0.0      15.3      78.0      7.01
   07/05/2020 23:50      68.9      67.7       47     47.3      0.00      0.00      85.4     0.47      1011.8     0.4       S   172   1.4       S     183     266       -72       0.0      15.3      78.5      7.01
   07/05/2020 23:40      69.7      68.8       45     46.9      0.00      0.00      85.5     0.47      1011.8     0.2     SSE   156   0.9       S     175     266       -73       0.0      15.3      79.0      7.02
   07/05/2020 23:30      70.4      69.6       45     47.5      0.00      0.00      85.5     0.47      1011.8     0.2       S   170   0.9     SSE     163     266       -74       0.0      15.3      79.5      7.02
   07/05/2020 23:20      70.8      70.3       44     47.4      0.00      0.00      85.6     0.47      1011.8     0.1     SSE   165   0.8       S     172     266       -74       0.0      15.3      80.0      7.02
   07/05/2020 23:10      71.3      70.8       42     47.0      0.00      0.00      85.5     0.47      1011.7     0.3     SSE   165   0.9     SSE     164     266       -75       0.0      15.3      80.5      7.02
   07/05/2020 23:00      71.1      70.3       43     47.4      0.00      0.00      85.5     0.47      1011.8     0.3       S   172   1.2     SSE     169     266       -75       0.0      15.3      80.8      7.02
   07/05/2020 22:50      70.7      70.1       47     48.9      0.00      0.00      85.5     0.47      1011.8     0.7     SSE   164   1.6     SSE     168     266       -76       0.1      15.3      81.3      7.02
   07/05/2020 22:40      71.8      70.6       45     49.0      0.00      0.00      85.5     0.47      1012.0     0.4       S   169   1.2       S     176     266       -76       0.1      15.3      81.8      7.03
   07/05/2020 22:30      72.0      71.7       44     49.1      0.00      0.00      85.6     0.47      1012.0     0.3       S   175   1.1       S     181     266       -77       0.0      15.3      82.2      7.03
   07/05/2020 22:20      73.5      71.9       41     47.8      0.00      0.00      85.5     0.47      1012.0     0.3       S   176   1.1       S     172     266       -77       0.0      15.3      82.7      7.03
   07/05/2020 22:10      73.7      73.1       41     48.1      0.00      0.00      85.6     0.47      1012.0     0.8     SSW   193   1.6     SSW     204     266       -76       0.0      15.3      83.2      7.03
   07/05/2020 22:00      74.1      73.3       41     48.7      0.00      0.00      85.6     0.47      1012.1     0.3     SSW   194   1.2       S     186     266       -77       0.0      15.3      83.7      7.03
   07/05/2020 21:50      74.7      74.0       40     48.8      0.00      0.00      85.6     0.47      1012.0     0.2       S   169   0.9     SSW     192     266       -78       0.0      15.3      84.3      7.04
   07/05/2020 21:40      75.1      74.5       40     48.7      0.00      0.00      85.6     0.47      1011.9     0.0       S   171   0.6       S     171     266       -78       0.0      15.3      84.8      7.04
   07/05/2020 21:30      75.6      75.1       39     48.9      0.00      0.00      85.5     0.47      1011.8     0.0     ESE   120   0.8       E      95     265       -80       0.0      15.3      85.4      7.04
   07/05/2020 21:20      76.1      75.5       39     48.8      0.00      0.00      85.5     0.47      1011.7     0.3      SE   127   1.3      SE     133     265       -81       0.0      15.3      85.9      7.04
   07/05/2020 21:10      77.4      75.9       38     48.8      0.00      0.00      85.5     0.47      1011.7     0.5      SE   142   1.2      SE     134     265       -83       0.0      15.3      86.5      7.04
   07/05/2020 21:00      77.9      77.3       37     48.9      0.00      0.00      85.4     0.46      1011.7     0.3     SSE   152   1.4     ESE     101     265       -84       0.0      15.3      87.1      7.05
   07/05/2020 20:50      79.1      77.8       35     48.6      0.00      0.00      85.4     0.46      1011.6     0.7     SSE   152   1.9     SSE     152     264       -86       0.0      15.3      87.6      7.05
   07/05/2020 20:40      80.4      79.1       34     49.1      0.00      0.00      85.5     0.46      1011.5     0.1     ESE   121   0.8       E      92     264       -89       0.0      15.3      88.1      7.05
   07/05/2020 20:30      81.4      80.3       34     49.6      0.00      0.00      85.4     0.46      1011.4     0.3     ESE   107   1.4     ENE      67     264       -91       0.0      15.3      88.7      7.06
   07/05/2020 20:20      83.0      81.4       33     50.0      0.00      0.00      85.4     0.46      1011.4     0.1     ESE   104   0.8      SE     144     264       -92       0.0      15.3      89.3      7.06
   07/05/2020 20:10      84.2      82.9       32     50.5      0.00      0.00      85.3     0.46      1011.3     0.5     ESE   103   1.9     ESE     122     264       -92       0.0      15.3      89.9      7.07
   07/05/2020 20:00      85.9      84.1       31     50.9      0.00      0.00      85.2     0.46      1011.3     0.8     ESE   111   1.7     ESE     112     264       -90       0.4      15.3      90.3      7.07
   07/05/2020 19:50      87.7      85.9       29     50.9      0.00      0.00      85.2     0.46      1011.3     0.5     ESE   114   1.6     ESE     117     263       -87       0.3      15.2      90.8      7.07
   07/05/2020 19:40      89.0      87.7       27     50.3      0.00      0.00      85.2     0.46      1011.3     0.6      NE    47   1.9     ENE      57     263       -74       0.0      15.2      91.4      7.08
   07/05/2020 19:30      89.9      88.9       26     50.1      0.00      0.00      85.2     0.46      1011.3     0.7      NE    54   2.2     ENE      60     263       -55       0.4      15.2      91.9      7.08
   07/05/2020 19:20      90.6      89.9       25     50.0      0.00      0.00      85.3     0.46      1011.2     1.2      NE    43   2.2      NE      53     263       -36       0.2      15.1      92.3      7.09
   07/05/2020 19:10      92.1      90.4       24     49.5      0.00      0.00      85.2     0.46      1011.1     1.5      NE    39   3.2      NE      46     263       -16       0.5      15.1      92.9      7.09
   07/05/2020 19:00      94.0      92.1       20     46.3      0.00      0.00      85.2     0.46      1011.1     1.4      NE    35   3.8      NE      36     263         5       0.7      15.0      93.3      7.09
   07/05/2020 18:50      95.0      94.0       17     43.4      0.00      0.00      85.1     0.46      1010.9     0.7     NNW   342   3.8       N     353     263        27       0.6      14.8      93.8      7.10
   07/05/2020 18:40      94.9      94.3       17     43.1      0.00      0.00      85.1     0.46      1010.9     1.4      NW   309   3.6     WNW     301     263        51       1.2      14.7      94.2      7.10
   07/05/2020 18:30      94.7      94.2       17     43.1      0.00      0.00      85.0     0.46      1010.8     1.1     NNW   331   3.1     NNE      16     263        76       0.5      14.6      94.6      7.11
   07/05/2020 18:20      95.5      94.8       17     42.8      0.00      0.00      85.0     0.46      1010.9     1.8      NW   312   4.8     WNW     296     263       102       1.7      14.5      95.2      7.11
   07/05/2020 18:10      96.4      95.0       17     43.5      0.00      0.00      84.9     0.46      1010.9     1.6      NW   323   4.2      NW     318     263       125       1.2      14.2      95.7      7.12
   07/05/2020 18:00      96.4      95.8       17     44.7      0.00      0.00      84.8     0.46      1010.9     1.6      NW   315   4.8     WNW     283     263       150       1.3      14.0      96.0      7.12
   07/05/2020 17:50      96.7      96.0       17     44.3      0.00      0.00      84.8     0.46      1010.9     2.4     WNW   298   7.4     WSW     250     263       174       1.9      13.8      96.5      7.13
   07/05/2020 17:40      97.2      96.0       17     43.8      0.00      0.00      84.8     0.46      1011.0     3.6     WSW   249   7.5      SW     216     263       198       2.4      13.5      96.8      7.13
   07/05/2020 17:30      98.1      96.9       16     44.5      0.00      0.00      84.8     0.46      1011.1     2.7       W   261   6.8     WNW     289     263       221       2.2      13.1      97.3      7.14
   07/05/2020 17:20      98.4      97.6       17     45.5      0.00      0.00      84.8     0.46      1011.1     2.5       W   268   5.9       W     268     263       245       2.3      12.7      97.7      7.14
   07/05/2020 17:10      98.6      98.0       17     45.4      0.00      0.00      84.6     0.46      1011.2     2.8     WNW   300   8.4     WSW     248     263       267       2.2      12.3      98.0      7.15
   07/05/2020 17:00      98.7      97.0       18     47.5      0.00      0.00      84.5     0.46      1011.2     2.4       W   279   6.2       W     279     263       290       2.2      11.9      98.2      7.15
   07/05/2020 16:50      97.8      96.1       20     49.2      0.00      0.00      84.4     0.45      1011.3     3.9       W   275  10.3       W     268     263       311       3.2      11.6      98.4      7.16
   07/05/2020 16:40      98.5      97.1       20     50.1      0.00      0.00      83.8     0.45      1011.3     3.2     WNW   290  10.8     WSW     244     263       333       2.5      11.0      98.3      7.16
   07/05/2020 16:30      98.3      97.2       20     50.3      0.00      0.00      83.1     0.45      1011.4     3.0       W   278   9.2     WSW     246     263       355       2.1      10.6      97.5      7.17
   07/05/2020 16:20      98.5      96.6       21     50.9      0.00      0.00      83.1     0.45      1011.6     3.0     WNW   283   9.2     WSW     237     263       374       2.4      10.3      97.9      7.17
   07/05/2020 16:10      98.1      95.9       22     51.3      0.00      0.00      83.0     0.45      1011.7     5.1     WSW   246   9.7      SW     225     263       390       3.7       9.9      98.0      7.18
   07/05/2020 16:00      98.5      97.4       22     52.3      0.00      0.00      82.9     0.45      1011.7     3.2     WSW   246   7.9     SSW     210     263       405       2.4       9.3      98.0      7.19
   07/05/2020 15:50      98.6      96.9       22     52.1      0.00      0.00      82.7     0.45      1011.8     3.2       W   260   6.9      SW     229     263       420       2.2       8.9      97.9      7.20
   07/05/2020 15:40      98.9      97.6       21     51.6      0.00      0.00      82.6     0.45      1011.9     3.8      SW   233   9.4     WSW     245     263       439       2.7       8.5      97.8      7.20
   07/05/2020 15:30      98.8      96.2       21     51.1      0.00      0.00      82.5     0.45      1011.9     4.6      SW   228   9.6     SSW     207     263       460       3.1       8.0      97.7      7.20
   07/05/2020 15:20      98.5      96.9       20     50.6      0.00      0.00      82.5     0.45      1012.0     4.1     SSW   202  10.9     SSW     213     263       470       2.8       7.5      97.4      7.21
   07/05/2020 15:10      98.3      97.1       20     50.0      0.00      0.00      82.3     0.45      1012.0     2.8       S   189   6.9       S     188     263       486       1.9       7.0      97.1      7.21
   07/05/2020 15:00      98.3      96.6       20     49.2      0.00      0.00      82.3     0.45      1012.1     4.1       S   172  10.4     SSE     154     263       497       2.7       6.7      96.7      7.22
   07/05/2020 14:50      98.8      96.9       21     51.4      0.00      0.00      82.2     0.45      1012.1     3.1     ESE   123   7.1      SE     124     263       499       1.8       6.3      96.1      7.22
   07/05/2020 14:40      99.5      98.0       21     52.3      0.00      0.00      82.1     0.45      1012.2     2.1     ESE   120   5.9      SE     138     263       502       1.7       6.0      95.6      7.22
   07/05/2020 14:30     100.5      99.0       20     51.7      0.00      0.00      82.0     0.45      1012.3     1.9     ENE    64   6.7     ESE     120     263       497       1.4       5.7      95.0      7.23
   07/05/2020 14:20     100.3      98.4       21     51.9      0.00      0.00      81.9     0.45      1012.4     1.0      NE    56   5.9       E      93     263       517       1.2       5.5      94.7      7.23
   07/05/2020 14:10      99.9      99.3       21     52.6      0.00      0.00      81.8     0.45      1012.5     1.4      NE    40   4.4      NE      42     263       526       1.1       5.3      94.2      7.24
   07/05/2020 14:00      99.7      99.0       20     51.6      0.00      0.00      81.8     0.45      1012.7     1.5      NE    53   4.0      NE      46     263       538       1.2       5.1      93.5      7.24
   07/05/2020 13:50      99.6      98.2       19     49.9      0.00      0.00      81.7     0.45      1012.8     1.1       N   354   3.4      NE      48     263       545       0.9       4.9      92.7      7.24
   07/05/2020 13:40      98.5      97.5       19     49.5      0.00      0.00      81.8     0.45      1012.9     1.4     NNW   328   4.7       W     281     263       559       1.4       4.7      91.8      7.24
   07/05/2020 13:30      97.7      96.2       20     49.5      0.00      0.00      81.5     0.45      1013.1     2.0     NNE    22   3.9     NNW     337     263       564       1.2       4.5      90.8      7.25
   07/05/2020 13:20      96.5      95.5       20     49.1      0.00      0.00      81.4     0.45      1013.2     2.2     NNE    24   5.0     NNE      17     262       570       1.4       4.3      89.9      7.25
   07/05/2020 13:10      96.9      95.6       20     49.0      0.00      0.00      81.5     0.45      1013.3     2.3     NNE    32   5.2     NNE      12     262       568       1.2       4.1      89.0      7.25
   07/05/2020 13:00      96.4      95.0       20     48.8      0.00      0.00      81.4     0.45      1013.4     1.4      NE    35   3.0     ENE      67     263       575       1.1       3.9      88.0      7.25
   07/05/2020 12:50      95.2      94.2       21     48.8      0.00      0.00      81.4     0.45      1013.5     1.8      NE    40   5.3       E      97     262       578       1.3       3.7      87.0      7.25
   07/05/2020 12:40      94.3      93.2       21     48.4      0.00      0.00      81.4     0.45      1013.7     1.7       N     0   4.5     NNE      29     262       580       1.2       3.5      85.9      7.26
   07/05/2020 12:30      93.3      92.0       22     48.3      0.00      0.00      81.2     0.45      1013.8     2.1     ENE    69   4.3     ENE      58     263       578       1.4       3.3      84.7      7.26
   07/05/2020 12:20      93.1      92.0       22     48.8      0.00      0.00      81.2     0.45      1013.8     2.0      NE    53   5.1      NE      51     262       573       1.1       3.1      83.6      7.26
   07/05/2020 12:10      92.5      90.8       23     48.5      0.00      0.00      81.2     0.45      1013.9     1.5      NE    51   4.4     ENE      57     262       569       1.1       2.9      82.4      7.26
   07/05/2020 12:00      91.6      90.7       23     48.4      0.00      0.00      81.1     0.45      1014.0     1.9      NE    49   4.1     SSE     168     262       561       1.3       2.7      81.2      7.26
   07/05/2020 11:50      90.7      89.8       24     48.9      0.00      0.00      81.2     0.45      1014.1     1.9     NNE    16   4.8     NNE      14     263       558       0.8       2.5      80.0      7.26
   07/05/2020 11:40      90.1      88.8       25     49.0      0.00      0.00      81.1     0.45      1014.3     1.3      NE    35   4.8     ESE     110     263       549       0.7       2.3      78.8      7.26
   07/05/2020 11:30      89.0      88.0       26     48.9      0.00      0.00      81.2     0.45      1014.3     2.1     ENE    73   3.7       E      95     263       539       1.2       2.2      77.6      7.26
   07/05/2020 11:20      88.3      87.9       26     48.8      0.00      0.00      81.3     0.45      1014.4     1.9      NE    40   4.0       N       0     263       532       1.0       2.0      76.3      7.26
   07/05/2020 11:10      87.9      87.0       27     49.3      0.00      0.00      81.3     0.45      1014.5     1.9      NE    56   4.0      NE      46     263       521       1.2       1.9      75.3      7.26
   07/05/2020 11:00      87.3      86.2       28     50.1      0.00      0.00      81.2     0.45      1014.4     1.7     NNE    24   3.7       N       4     263       507       0.7       1.7      74.3      7.26
   07/05/2020 10:50      86.9      85.9       29     50.3      0.00      0.00      81.4     0.45      1014.5     1.6     NNE    23   4.3     NNE      32     263       497       0.5       1.5      73.4      7.26
   07/05/2020 10:40      86.2      84.3       29     49.8      0.00      0.00      81.4     0.45      1014.6     1.3      NE    40   4.2      NE      52     263       483       1.0       1.4      72.4      7.26
   07/05/2020 10:30      84.6      83.9       31     50.1      0.00      0.00      81.3     0.45      1014.6     1.8      NE    46   4.1     NNE      26     263       471       1.0       1.3      71.4      7.26
   07/05/2020 10:20      84.2      83.1       32     50.7      0.00      0.00      81.4     0.45      1014.6     1.7     NNE    32   3.9      NW     324     263       455       0.6       1.1      70.4      7.26
   07/05/2020 10:10      83.5      82.3       32     50.3      0.00      0.00      81.4     0.45      1014.7     1.6     NNE    33   4.5       E     101     263       440       0.9       1.0      69.5      7.26
   07/05/2020 10:00      82.7      81.6       32     49.6      0.00      0.00      81.5     0.45      1014.8     1.4      NE    36   4.1     NNE      30     263       424       0.6       0.9      68.6      7.26
   07/05/2020 09:50      81.8      80.0       33     49.5      0.00      0.00      81.6     0.45      1014.8     1.2      NE    38   2.5     NNE      33     264       408       0.5       0.8      67.7      7.26
   07/05/2020 09:40      80.2      79.4       35     49.8      0.00      0.00      81.7     0.46      1014.8     1.5       E    94   3.6      NE      48     264       390       0.8       0.7      66.9      7.26
   07/05/2020 09:30      79.7      77.9       36     49.5      0.00      0.00      81.7     0.46      1014.9     1.0     NNE    15   2.7     ENE      63     264       375       0.5       0.5      66.2      7.26
   07/05/2020 09:20      78.3      77.3       37     49.3      0.00      0.00      81.7     0.46      1015.0     1.2      NE    35   2.8     NNE      20     264       360       0.5       0.5      65.6      7.26
   07/05/2020 09:10      77.3      75.5       39     49.6      0.00      0.00      81.7     0.46      1015.1     1.2     NNE    28   2.8     ENE      75     264       349       0.4       0.4      64.9      7.26
   07/05/2020 09:00      75.5      73.3       42     49.8      0.00      0.00      81.9     0.46      1015.1     0.8      NE    55   2.4     NNE      22     265       352       0.2       0.3      64.4      7.26
   07/05/2020 08:50      73.3      72.1       45     50.3      0.00      0.00      81.9     0.46      1015.1     0.5     NNE    29   2.5       N     353     266       124       0.3       0.3      63.9      7.26
   07/05/2020 08:40      72.1      71.2       47     50.6      0.00      0.00      81.9     0.46      1015.1     0.8      NE    36   3.0     NNW     332     268        11       0.2       0.2      63.1      7.26
   07/05/2020 08:30      71.3      70.1       50     51.1      0.00      0.00      82.0     0.46      1015.0     0.7     ENE    66   2.1      NE      48     268       -16       0.0       0.2      63.0      7.26
   07/05/2020 08:20      70.2      69.4       52     51.5      0.00      0.00      82.1     0.46      1015.0     0.3     NNE    17   1.7     NNE      26     268       -18       0.0       0.2      63.0      7.26
   07/05/2020 08:10      69.5      68.8       54     52.0      0.00      0.00      82.2     0.46      1015.1     0.3       N     3   1.7     NNE      19     268       -12       0.0       0.1      63.0      7.26
   07/05/2020 08:00      68.8      67.9       57     52.4      0.00      0.00      82.2     0.46      1015.1     0.2      NE    47   1.0      NE      40     268       -18       0.0       0.1      63.0      7.26
   07/05/2020 07:50      67.9      67.1       58     52.2      0.00      0.00      82.3     0.46      1015.1     0.2       E    88   1.4       E      81     268        -6       0.0       0.1      62.9      7.26
   07/05/2020 07:40      67.1      65.6       59     51.6      0.00      0.00      82.3     0.46      1015.1     0.0     NNW   340   0.5       N       2     269        -0       0.0       0.1      62.9      7.26
   07/05/2020 07:30      65.5      64.3       62     51.3      0.00      0.00      82.4     0.46      1015.1     0.0       N     0   0.0     NNE      18     269        -7       0.0       0.1      62.9      7.26
   07/05/2020 07:20      64.4      63.0       63     50.9      0.00      0.00      82.5     0.46      1015.1     0.0       N     0   0.0     ENE      57     269       -26       0.0       0.1      62.9      7.26
   07/05/2020 07:10      63.0      61.9       63     49.9      0.00      0.00      82.5     0.46      1015.1     0.0       N     0   0.0      SE     125     269       -27       0.0       0.1      63.0      7.26
   07/05/2020 07:00      62.0      61.0       65     49.4      0.00      0.00      82.6     0.46      1015.1     0.3      SE   135   1.2      SE     135     269       -33       0.0       0.1      63.0      7.26
   07/05/2020 06:50      61.0      59.5       67     49.3      0.00      0.00      82.7     0.46      1015.1     0.2      SE   132   1.0      SE     132     269       -36       0.0       0.1      63.0      7.26
   07/05/2020 06:40      59.6      58.9       69     48.9      0.00      0.00      82.6     0.46      1015.0     0.0       N     0   0.0     SSE     158     270       -41       0.0       0.1      63.1      7.26
   07/05/2020 06:30      58.9      58.6       68     48.4      0.00      0.00      82.7     0.46      1015.1     0.1     SSE   158   0.6     SSE     155     269       -49       0.0       0.1      63.1      7.26
   07/05/2020 06:20      58.7      58.4       68     47.9      0.00      0.00      82.8     0.46      1015.0     0.2       S   175   1.2     SSW     202     269       -48       0.0       0.1      63.2      7.26
   07/05/2020 06:10      58.6      58.3       69     48.4      0.00      0.00      82.9     0.46      1015.0     0.4     SSE   162   1.2     SSW     206     270       -52       0.0       0.1      63.4      7.26
   07/05/2020 06:00      58.6      58.1       71     49.2      0.00      0.00      82.9     0.46      1015.0     0.3     SSE   155   0.8     SSE     154     270       -57       0.0       0.1      63.7      7.27
   07/05/2020 05:50      58.3      57.8       73     49.3      0.00      0.00      82.9     0.46      1014.8     0.4     SSE   159   1.0     SSE     153     270       -60       0.0       0.1      63.9      7.27
   07/05/2020 05:40      58.6      58.3       72     49.5      0.00      0.00      83.1     0.46      1014.8     0.3     SSE   151   1.1     SSE     159     270       -61       0.0       0.1      64.1      7.27
   07/05/2020 05:30      58.6      58.3       73     49.7      0.00      0.00      83.1     0.46      1014.7     0.3     SSE   158   0.8      SE     143     270       -62       0.0       0.1      64.4      7.27
   07/05/2020 05:20      59.0      58.3       70     48.9      0.00      0.00      83.1     0.46      1014.7     0.5     SSE   162   1.9      SE     144     270       -63       0.0       0.1      64.7      7.27
   07/05/2020 05:10      59.1      58.6       68     48.2      0.00      0.00      83.1     0.46      1014.6     0.2     SSE   152   0.9     SSE     149     270       -64       0.0       0.1      64.8      7.27
   07/05/2020 05:00      58.9      58.4       67     47.6      0.00      0.00      83.3     0.46      1014.7     0.4       S   188   1.3       S     187     269       -64       0.0       0.1      65.1      7.27
   07/05/2020 04:50      59.0      58.6       67     47.7      0.00      0.00      83.3     0.46      1014.7     0.5       S   186   1.0     SSW     204     269       -64       0.0       0.1      65.3      7.27
   07/05/2020 04:40      59.2      58.8       65     47.3      0.00      0.00      83.3     0.46      1014.6     0.2     SSE   158   0.6       S     181     269       -64       0.0       0.1      65.7      7.27
   07/05/2020 04:30      59.7      59.1       63     46.9      0.00      0.00      83.4     0.46      1014.4     0.0       N     0   0.0       S     169     269       -66       0.0       0.1      65.9      7.27
   07/05/2020 04:20      60.2      59.8       62     46.8      0.00      0.00      83.5     0.46      1014.3     0.3     SSE   150   1.1      SE     143     269       -66       0.0       0.1      66.2      7.27
   07/05/2020 04:10      60.2      59.8       62     46.9      0.00      0.00      83.5     0.46      1014.3     0.0       N     0   0.0     WSW     251     269       -66       0.0       0.1      66.5      7.27
   07/05/2020 04:00      60.6      59.8       63     47.8      0.00      0.00      83.6     0.46      1014.3     0.4       S   186   1.3     SSW     193     269       -67       0.2       0.1      66.7      7.28
   07/05/2020 03:50      60.6      60.3       68     50.0      0.00      0.00      83.6     0.46      1014.3     0.8     SSE   152   2.0      SE     143     269       -68       0.0       0.1      67.0      7.28
   07/05/2020 03:40      60.9      60.4       72     51.5      0.00      0.00      83.7     0.46      1014.2     0.6     SSE   152   1.3      SE     136     269       -67       0.0       0.1      67.3      7.28
   07/05/2020 03:30      61.5      60.8       71     51.6      0.00      0.00      83.7     0.46      1014.2     0.7     SSE   158   1.4       S     182     269       -67       0.0       0.1      67.5      7.28
   07/05/2020 03:20      61.6      61.2       68     50.7      0.00      0.00      83.8     0.46      1014.3     0.4     SSE   167   1.0       S     190     269       -67       0.0       0.1      67.8      7.28
   07/05/2020 03:10      61.8      61.4       65     49.8      0.00      0.00      83.8     0.46      1014.4     0.8     SSE   166   2.3      SE     142     268       -68       0.0       0.1      68.0      7.28
   07/05/2020 03:00      62.5      61.7       65     50.3      0.00      0.00      83.8     0.46      1014.4     0.8     SSE   150   2.2      SE     141     268       -67       0.0       0.1      68.3      7.28
   07/05/2020 02:50      62.3      62.1       64     50.0      0.00      0.00      83.9     0.46      1014.4     0.2       S   184   0.8       S     187     268       -67       0.0       0.0      68.6      7.28
   07/05/2020 02:40      62.3      61.8       59     47.7      0.00      0.00      84.0     0.46      1014.4     0.5     SSE   159   1.2     SSE     161     267       -69       0.0       0.0      68.9      7.28
   07/05/2020 02:30      62.9      61.9       58     47.3      0.00      0.00      84.0     0.46      1014.4     0.7     SSE   157   1.6      SE     139     267       -69       0.1       0.0      69.2      7.28
   07/05/2020 02:20      63.1      62.6       55     46.5      0.00      0.00      84.1     0.46      1014.5     0.7     SSE   158   1.1     SSE     168     267       -68       0.0       0.0      69.4      7.28
   07/05/2020 02:10      63.4      62.9       52     45.1      0.00      0.00      84.1     0.46      1014.6     0.3     SSE   157   0.9     SSE     151     266       -69       0.0       0.0      69.8      7.28
   07/05/2020 02:00      63.5      63.2       49     43.8      0.00      0.00      84.2     0.46      1014.6     0.6     SSE   165   1.4       S     177     266       -70       0.1       0.0      70.1      7.28
   07/05/2020 01:50      64.2      63.3       47     43.5      0.00      0.00      84.2     0.46      1014.6     0.6       S   180   1.2     SSW     202     266       -69       0.0       0.0      70.5      7.28
   07/05/2020 01:40      64.5      64.1       47     43.4      0.00      0.00      84.2     0.46      1014.6     0.2     SSE   162   0.8     SSE     166     266       -70       0.0       0.0      70.8      7.29
   07/05/2020 01:30      64.4      64.2       46     42.8      0.00      0.00      84.3     0.46      1014.6     0.2     SSE   168   1.0       S     178     266       -69       0.0       0.0      71.1      7.29
   07/05/2020 01:20      64.7      64.3       44     42.4      0.00      0.00      84.4     0.46      1014.6     0.4     SSE   164   1.3     SSE     168     266       -69       0.0       0.0      71.4      7.29
   07/05/2020 01:10      64.5      64.2       43     41.2      0.00      0.00      84.4     0.46      1014.7     0.2       S   188   0.7       S     185     266       -68       0.0       0.0      71.8      7.29
   07/05/2020 01:00      65.0      64.2       41     40.3      0.00      0.00      84.5     0.47      1014.7     0.2      SE   145   0.9     SSE     157     266       -69       0.0       0.0      72.1      7.29
   07/05/2020 00:50      65.7      64.9       39     40.0      0.00      0.00      84.4     0.46      1014.7     0.8     SSE   155   2.1      SE     137     265       -70       0.0       0.0      72.5      7.29
   07/05/2020 00:40      66.2      65.6       38     39.8      0.00      0.00      84.5     0.46      1014.8     0.1      SE   146   1.1      SE     140     265       -71       0.0       0.0      72.9      7.29
   07/05/2020 00:30      67.0      66.1       37     39.4      0.00      0.00      84.5     0.47      1014.8     0.8     SSE   161   1.8      SE     142     265       -72       0.0       0.0      73.4      7.29
   07/05/2020 00:20      67.5      67.0       35     38.5      0.00      0.00      84.5     0.47      1014.8     1.2       S   180   2.5       S     185     264       -72       0.2       0.0      73.8      7.29
   07/05/2020 00:10      67.7      67.3       35     38.6      0.00      0.00      84.6     0.47      1014.8     0.3     SSE   166   0.8     SSE     168     264       -74       0.0       0.0      74.2      7.30
   07/05/2020 00:00      69.2      67.6       32     37.5      0.00      0.00      84.6     0.46      1014.8     0.3     SSE   165   1.2     SSE     161     264       -74       0.0      34.9      74.5      7.30
   07/04/2020 23:50      69.6      69.0       31     37.4      0.00      0.00      84.6     0.46      1014.8     0.4       S   182   1.4     SSW     194     264       -72       0.0      34.9      75.0      7.30
   07/04/2020 23:40      70.6      69.5       30     37.4      0.00      0.00      84.7     0.47      1014.8     0.3       S   191   1.6     SSW     205     264       -74       0.0      34.9      75.4      7.30
   07/04/2020 23:30      71.6      70.6       29     37.5      0.00      0.00      84.7     0.47      1014.8     0.2     ENE    78   1.1     SSW     214     264       -76       0.0      34.9      75.8      7.31
   07/04/2020 23:20      73.4      71.5       28     37.4      0.00      0.00      84.7     0.46      1014.7     0.5     ENE    60   1.3      NE      38     264       -77       0.2      34.9      76.1      7.31
   07/04/2020 23:10      73.9      73.3       26     37.0      0.00      0.00      84.7     0.46      1014.7     0.5      SE   131   1.8      SE     134     264       -79       0.1      34.8      76.5      7.31
   07/04/2020 23:00      74.4      73.8       26     36.8      0.00      0.00      84.7     0.47      1014.8     1.6     SSW   195   3.5      SW     227     264       -81       0.7      34.8      76.9      7.31
   07/04/2020 22:50      74.4      74.2       26     37.1      0.00      0.00      84.7     0.46      1014.9     1.9     SSW   200   4.7      SW     214     264       -82       1.0      34.7      77.2      7.31
   07/04/2020 22:40      75.0      74.4       26     37.6      0.00      0.00      84.7     0.46      1014.9     2.1     SSW   201   4.2       S     191     264       -83       0.9      34.5      77.7      7.32
   07/04/2020 22:30      75.3      74.7       26     38.2      0.00      0.00      84.8     0.46      1015.0     3.5     SSW   211   6.7      SW     214     264       -84       2.1      34.4      78.1      7.32
   07/04/2020 22:20      75.8      75.2       26     38.0      0.00      0.00      84.8     0.46      1015.0     3.5     SSW   209   6.0     SSW     213     264       -84       2.2      34.0      78.6      7.32
   07/04/2020 22:10      76.0      75.6       25     38.0      0.00      0.00      84.8     0.46      1015.0     3.7     SSW   208   6.1      SW     225     264       -85       2.3      33.7      79.0      7.32
   07/04/2020 22:00      76.1      75.7       25     37.8      0.00      0.00      85.0     0.46      1014.9     3.7     SSW   206   6.2     SSW     207     264       -85       2.1      33.3      79.4      7.33
   07/04/2020 21:50      76.5      76.0       25     38.1      0.00      0.00      85.0     0.46      1014.9     3.0     SSW   197   5.3      SW     216     264       -86       1.6      33.0      79.8      7.33
   07/04/2020 21:40      77.2      76.3       26     39.3      0.00      0.00      85.0     0.46      1014.8     3.4     SSW   193   5.7      SW     220     264       -87       1.8      32.7      80.2      7.33
   07/04/2020 21:30      77.9      77.0       26     39.7      0.00      0.00      85.0     0.46      1014.8     3.0     SSW   210   4.9      SW     223     263       -88       1.7      32.4      80.8      7.33
   07/04/2020 21:20      78.4      77.7       25     39.5      0.00      0.00      85.0     0.46      1014.7     2.4      SW   227   5.2     WSW     240     263       -89       1.4      32.1      81.3      7.33
   07/04/2020 21:10      78.8      78.4       24     38.6      0.00      0.00      85.0     0.46      1014.6     3.4      SW   233   6.1      SW     233     263       -90       2.0      31.9      81.9      7.34
   07/04/2020 21:00      79.0      78.6       24     39.2      0.00      0.00      85.0     0.46      1014.6     3.7      SW   229   5.5     SSW     199     263       -91       2.4      31.5      82.4      7.34
   07/04/2020 20:50      79.9      78.8       25     40.4      0.00      0.00      85.0     0.46      1014.6     2.7      SW   229   5.7     SSW     204     263       -92       1.6      31.1      82.9      7.34
   07/04/2020 20:40      80.4      79.7       25     41.0      0.00      0.00      85.0     0.46      1014.6     1.4     WNW   288   3.4     WNW     284     263       -94       0.9      30.9      83.5      7.35
   07/04/2020 20:30      81.0      80.2       24     40.8      0.00      0.00      84.9     0.46      1014.6     1.7     WNW   299   4.7     WNW     283     263       -95       1.3      30.7      84.1      7.35
   07/04/2020 20:20      81.6      80.8       23     40.1      0.00      0.00      84.8     0.46      1014.5     1.5     WNW   291   5.5     WNW     299     263       -95       1.4      30.5      84.7      7.35
   07/04/2020 20:10      82.9      81.6       22     39.7      0.00      0.00      84.9     0.46      1014.4     1.9      NW   310   4.5     WNW     285     263       -94       1.3      30.3      85.4      7.36
   07/04/2020 20:00      84.3      82.8       21     39.4      0.00      0.00      84.8     0.46      1014.4     1.9     WNW   297   5.1     WNW     292     263       -91       1.6      30.1      86.2      7.36
   07/04/2020 19:50      86.2      84.3       21     40.2      0.00      0.00      84.9     0.46      1014.4     1.6      NW   313   4.4     WSW     258     263       -89       1.0      29.8      86.7      7.37
   07/04/2020 19:40      87.8      86.1       20     40.7      0.00      0.00      84.9     0.46      1014.2     1.7      NW   311   7.2     WNW     300     263       -74       1.1      29.6      87.3      7.37
   07/04/2020 19:30      89.3      87.7       19     40.6      0.00      0.00      84.9     0.46      1014.2     2.2     WNW   281   5.3      SW     229     263       -54       1.7      29.4      87.7      7.38
   07/04/2020 19:20      89.3      88.8       17     38.4      0.00      0.00      84.9     0.46      1014.2     2.0       W   279   7.4     WSW     251     263       -34       1.6      29.2      88.2      7.38
   07/04/2020 19:10      89.3      88.6       16     37.5      0.00      0.00      84.9     0.46      1014.1     3.6       W   270   8.7     WNW     283     262       -11       3.0      28.9      88.7      7.38
   07/04/2020 19:00      89.9      88.7       16     36.8      0.00      0.00      84.9     0.46      1013.9     6.3     WSW   242   8.6     WSW     238     262        12       4.3      28.4      89.5      7.39
   07/04/2020 18:50      90.7      89.8       15     37.2      0.00      0.00      84.8     0.46      1013.9     5.2     WSW   252   9.9     WSW     255     262        35       3.6      27.7      90.1      7.40
   07/04/2020 18:40      91.5      90.2       15     36.2      0.00      0.00      84.8     0.46      1013.8     5.1     WSW   250   9.1     WSW     243     262        59       3.6      27.1      90.6      7.40
   07/04/2020 18:30      91.9      91.2       14     35.1      0.00      0.00      84.9     0.46      1013.8     5.2     WSW   258  10.3       W     266     262        84       3.7      26.5      91.4      7.41
   07/04/2020 18:20      92.6      91.8       14     35.8      0.00      0.00      84.6     0.46      1013.7     4.5       W   261   8.2      NW     308     262       108       3.5      25.9      91.8      7.42
   07/04/2020 18:10      92.7      91.8       14     35.7      0.00      0.00      84.5     0.46      1013.7     5.2     WSW   257   9.4      SW     218     262       134       3.9      25.3      92.3      7.42
   07/04/2020 18:00      92.7      91.8       14     36.4      0.00      0.00      84.4     0.46      1013.6     4.7       W   264   9.3     WSW     248     262       158       3.5      24.6      93.2      7.43
   07/04/2020 17:50      93.2      91.7       14     36.5      0.00      0.00      84.3     0.46      1013.7     6.6     WSW   255  12.5     WSW     259     262       188       4.6      24.0      93.5      7.43
   07/04/2020 17:40      93.4      92.6       15     37.8      0.00      0.00      84.1     0.46      1013.7     6.0     WSW   254  10.7     WSW     248     262       207       4.6      23.3      93.8      7.44
   07/04/2020 17:30      93.4      92.8       15     38.8      0.00      0.00      84.0     0.46      1013.8     5.1     WSW   258   8.4     WSW     245     262       232       3.8      22.5      94.1      7.45
   07/04/2020 17:20      93.5      92.6       16     39.6      0.00      0.00      83.8     0.46      1013.8     5.5     WSW   243  10.7       W     270     263       257       4.1      21.9      94.3      7.46
   07/04/2020 17:10      93.4      92.4       16     39.8      0.00      0.00      83.7     0.46      1013.8     5.5       W   260   9.8       W     262     262       281       4.1      21.2      94.2      7.46
   07/04/2020 17:00      94.0      92.9       16     40.6      0.00      0.00      83.4     0.46      1013.9     5.4       W   268   9.4       W     259     262       302       3.8      20.5      94.6      7.47
   07/04/2020 16:50      93.6      92.8       16     41.0      0.00      0.00      83.2     0.46      1013.9     6.0     WSW   258  12.0       W     265     263       326       4.3      19.9      94.6      7.48
   07/04/2020 16:40      93.6      92.9       17     42.1      0.00      0.00      83.0     0.45      1014.0     6.1     WSW   241  10.1     WSW     250     262       349       4.3      19.1      94.9      7.48
   07/04/2020 16:30      93.9      93.0       18     43.0      0.00      0.00      82.9     0.45      1014.0     7.5     WSW   248  12.4      SW     232     263       371       5.2      18.4      94.9      7.49
   07/04/2020 16:20      94.4      93.2       18     44.0      0.00      0.00      82.7     0.45      1014.1     7.1     WSW   251  12.4     WNW     282     263       392       5.2      17.6      95.3      7.50
   07/04/2020 16:10      94.5      93.9       17     43.3      0.00      0.00      82.5     0.45      1014.1     5.5       W   265  11.0       W     264     263       409       4.2      16.7      95.4      7.50
   07/04/2020 16:00      94.6      93.6       17     42.2      0.00      0.00      82.3     0.45      1014.1     6.5      SW   234  10.8      SW     225     263       428       4.6      16.0      95.2      7.51
   07/04/2020 15:50      95.5      94.0       16     42.1      0.00      0.00      82.1     0.45      1014.2     6.6     WSW   246  14.4      SW     221     263       445       4.8      15.2      95.1      7.52
   07/04/2020 15:40      95.8      94.7       16     42.2      0.00      0.00      81.8     0.45      1014.3     5.7     WSW   249  10.6      SW     216     262       460       4.3      14.4      95.3      7.53
   07/04/2020 15:30      96.0      95.1       16     42.0      0.00      0.00      81.8     0.45      1014.4     5.4     WSW   258  10.3     WNW     296     262       473       4.2      13.7      95.0      7.53
   07/04/2020 15:20      96.4      95.0       16     41.6      0.00      0.00      81.4     0.45      1014.5     4.9       W   265  12.4       W     268     262       488       3.7      13.0      94.9      7.54
   07/04/2020 15:10      96.2      95.1       16     42.1      0.00      0.00      81.1     0.45      1014.6     5.6       W   259  12.1       W     263     262       502       4.2      12.4      94.6      7.55
   07/04/2020 15:00      97.8      94.9       16     42.6      0.00      0.00      81.0     0.45      1014.6     4.2       W   267  10.3       W     275     262       513       3.5      11.7      94.4      7.55
   07/04/2020 14:50      95.5      94.7       16     41.8      0.00      0.00      80.9     0.45      1014.7     5.5     WSW   237   9.3     WSW     250     263       527       3.8      11.1      93.9      7.56
   07/04/2020 14:40      95.8      95.0       16     42.1      0.00      0.00      80.6     0.45      1014.7     4.6     WSW   242   9.5     WSW     238     263       537       3.5      10.5      93.5      7.56
   07/04/2020 14:30      95.9      95.0       16     42.5      0.00      0.00      80.4     0.45      1014.8     5.2       W   265   9.3       W     264     262       546       3.9       9.9      92.9      7.57
   07/04/2020 14:20      95.8      95.0       16     42.0      0.00      0.00      80.4     0.45      1014.8     5.1     WSW   238  11.9       W     262     263       556       3.5       9.3      92.7      7.57
   07/04/2020 14:10      96.9      95.5       16     42.3      0.00      0.00      80.4     0.45      1014.9     4.6     WSW   241  10.6      SW     220     262       560       3.3       8.7      92.4      7.58
   07/04/2020 14:00      96.4      95.1       16     41.8      0.00      0.00      80.1     0.45      1015.1     4.5     WSW   248  10.0     WSW     251     263       568       3.2       8.2      91.8      7.58
   07/04/2020 13:50      96.7      95.7       15     41.8      0.00      0.00      80.2     0.45      1015.1     4.8     WSW   257  10.5     WSW     247     262       573       3.5       7.6      91.1      7.59
   07/04/2020 13:40      96.4      95.4       15     41.1      0.00      0.00      80.1     0.45      1015.2     3.2     WSW   246   9.8     WSW     242     262       577       2.5       7.0      90.4      7.59
   07/04/2020 13:30      96.2      95.0       15     40.6      0.00      0.00      80.0     0.45      1015.3     3.4      SW   229   7.1      SW     223     262       581       2.5       6.6      89.7      7.59
   07/04/2020 13:20      96.1      95.0       15     40.5      0.00      0.00      80.1     0.45      1015.4     3.8     WSW   252   8.2       W     275     262       585       2.8       6.2      88.8      7.60
   07/04/2020 13:10      97.2      95.8       16     42.1      0.00      0.00      80.0     0.45      1015.4     5.2     WSW   237  12.5      SW     227     262       585       4.0       5.7      88.4      7.60
   07/04/2020 13:00      97.5      95.3       21     50.0      0.00      0.00      80.0     0.45      1015.5     1.0       N   357   2.8      SW     233     262       578       0.8       5.1      87.4      7.61
   07/04/2020 12:50      95.3      94.5       23     51.0      0.00      0.00      80.0     0.45      1015.7     2.3      NE    55   4.7      NE      47     263       584       1.4       4.9      86.5      7.61
   07/04/2020 12:40      94.8      93.1       24     51.8      0.00      0.00      79.9     0.45      1015.8     2.5      NE    37   5.2      NE      54     262       583       1.1       4.7      85.4      7.61
   07/04/2020 12:30      94.3      92.9       24     51.7      0.00      0.00      80.0     0.45      1015.8     3.5       E    86   7.0     ENE      59     262       585       2.1       4.5      84.5      7.61
   07/04/2020 12:20      94.9      93.9       21     49.0      0.00      0.00      80.0     0.45      1015.9     3.1     ENE    78   7.8       E      98     262       578       1.9       4.2      83.4      7.61
   07/04/2020 12:10      94.5      92.8       22     49.2      0.00      0.00      80.0     0.45      1016.0     2.3      NE    47   5.3       E      92     261       571       1.2       3.8      82.4      7.61
   07/04/2020 12:00      94.3      92.4       20     46.9      0.00      0.00      79.9     0.45      1016.1     2.6       E    94   5.6       E      89     262       567       1.7       3.6      81.3      7.61
   07/04/2020 11:50      94.2      92.0       17     41.2      0.00      0.00      80.1     0.45      1016.2     2.1     SSE   151   3.8       E      90     262       560       1.2       3.4      80.3      7.61
   07/04/2020 11:40      93.4      92.3       16     39.5      0.00      0.00      80.1     0.45      1016.2     3.4     SSE   162   6.8      SE     129     261       556       2.4       3.2      79.0      7.61
   07/04/2020 11:30      93.7      92.6       16     40.9      0.00      0.00      80.2     0.45      1016.3     1.8       E    82   4.6      SE     144     261       543       1.5       2.8      77.9      7.61
   07/04/2020 11:20      93.2      92.3       17     41.7      0.00      0.00      80.3     0.45      1016.3     1.4       E    87   4.1     ESE     109     261       531       0.9       2.5      76.8      7.61
   07/04/2020 11:10      92.7      91.2       17     41.4      0.00      0.00      80.3     0.45      1016.3     1.4     NNE    19   3.5     NNE      19     262       523       0.8       2.4      75.7      7.61
   07/04/2020 11:00      91.8      90.9       18     41.6      0.00      0.00      80.5     0.45      1016.3     1.7      NW   316   3.7     WNW     291     261       513       1.1       2.2      74.8      7.61
   07/04/2020 10:50      91.4      89.4       18     41.7      0.00      0.00      80.5     0.45      1016.4     1.1       E    87   2.8      NE      44     261       503       0.6       2.1      73.8      7.61
   07/04/2020 10:40      90.5      89.2       19     42.4      0.00      0.00      80.5     0.45      1016.4     1.3       W   264   4.4       W     278     261       491       1.1       2.0      72.9      7.61
   07/04/2020 10:30      89.5      87.6       22     44.6      0.00      0.00      80.5     0.45      1016.4     0.9     WSW   239   4.1      SW     233     262       479       0.8       1.8      71.9      7.61
   07/04/2020 10:20      88.2      86.7       24     45.9      0.00      0.00      80.6     0.45      1016.4     1.4     NNE    16   3.4     ENE      58     262       464       0.7       1.6      71.0      7.61
   07/04/2020 10:10      87.3      86.6       25     46.4      0.00      0.00      80.6     0.45      1016.4     1.3      NE    34   3.4     NNE      19     262       450       0.3       1.5      70.0      7.61
   07/04/2020 10:00      87.0      85.4       26     46.9      0.00      0.00      80.8     0.45      1016.5     0.6      NE    52   2.8     NNE      14     262       437       0.5       1.5      69.1      7.61
   07/04/2020 09:50      85.5      84.8       27     47.5      0.00      0.00      80.8     0.45      1016.6     0.7       N     5   2.9       N       8     262       421       0.6       1.4      68.2      7.61
   07/04/2020 09:40      85.0      83.0       28     47.3      0.00      0.00      80.8     0.45      1016.5     0.5     NNW   343   2.4      NW     310     263       404       0.4       1.3      67.3      7.61
   07/04/2020 09:30      83.3      80.9       29     47.1      0.00      0.00      80.9     0.45      1016.5     0.4       N     8   2.7       N       9     264       388       0.2       1.2      66.5      7.61
   07/04/2020 09:20      81.0      78.8       33     48.3      0.00      0.00      81.0     0.46      1016.6     1.3     WSW   257   3.7     WSW     247     264       373       1.0       1.2      65.7      7.61
   07/04/2020 09:10      78.9      76.5       37     49.5      0.00      0.00      81.1     0.46      1016.7     1.3       W   261   4.1     WSW     254     264       365       1.0       1.0      65.2      7.61
   07/04/2020 09:00      76.7      73.9       41     50.0      0.00      0.00      81.1     0.46      1016.7     0.5       N   351   1.7       N     349     265       374       0.2       0.9      64.6      7.61
   07/04/2020 08:50      73.9      72.3       45     50.8      0.00      0.00      81.1     0.46      1016.7     1.1       W   280   2.7     WSW     258     266       123       0.8       0.8      64.1      7.61
   07/04/2020 08:40      72.3      71.1       48     50.7      0.00      0.00      81.2     0.46      1016.8     0.8       N     6   2.4       W     274     268        -4       0.3       0.7      63.3      7.61
   07/04/2020 08:30      71.2      70.2       50     51.0      0.00      0.00      81.3     0.46      1016.8     0.9       N     1   2.3     NNE      33     268       -33       0.2       0.7      63.2      7.61
   07/04/2020 08:20      70.2      69.5       52     51.4      0.00      0.00      81.3     0.46      1016.8     0.8      NW   317   2.7      NW     315     268       -35       0.2       0.6      63.2      7.61
   07/04/2020 08:10      69.6      68.7       54     51.6      0.00      0.00      81.3     0.46      1016.9     1.0     WNW   303   2.8       W     274     268       -25       0.5       0.6      63.1      7.61
   07/04/2020 08:00      68.8      67.9       56     52.0      0.00      0.00      81.4     0.46      1016.9     1.5       W   278   3.9       W     270     268       -32       0.8       0.5      63.3      7.61
   07/04/2020 07:50      67.9      67.3       58     52.5      0.00      0.00      81.5     0.46      1016.9     0.9     WSW   249   2.7       W     273     269       -16       0.6       0.4      63.1      7.61
   07/04/2020 07:40      67.4      66.6       58     52.0      0.00      0.00      81.5     0.46      1016.8     1.1       W   275   3.9       W     260     269        -7       0.5       0.3      63.2      7.61
   07/04/2020 07:30      66.6      65.5       60     51.8      0.00      0.00      81.5     0.46      1016.8     0.5       W   276   2.1       W     275     269       -17       0.0       0.2      63.2      7.61
   07/04/2020 07:20      65.6      64.3       60     50.9      0.00      0.00      81.6     0.46      1016.8     0.5      SE   130   1.1      SE     138     269       -37       0.0       0.2      63.2      7.61
   07/04/2020 07:10      64.2      62.5       62     50.2      0.00      0.00      81.7     0.46      1016.8     0.2      SE   129   1.4      SE     130     269       -34       0.0       0.2      63.3      7.61
   07/04/2020 07:00      62.7      61.6       62     49.2      0.00      0.00      81.9     0.46      1016.8     0.0     ESE   116   1.0       E      98     270       -39       0.0       0.2      63.4      7.61
   07/04/2020 06:50      61.6      59.9       64     48.6      0.00      0.00      82.0     0.46      1016.7     0.7     ESE   110   0.9      SE     132     269       -41       0.0       0.2      63.5      7.61
   07/04/2020 06:40      60.1      59.2       66     48.3      0.00      0.00      82.1     0.46      1016.7     0.2     ESE   122   0.7      SE     129     270       -46       0.0       0.2      63.6      7.61
   07/04/2020 06:30      59.3      58.3       68     48.4      0.00      0.00      82.2     0.46      1016.6     0.4      SE   137   0.8      SE     138     269       -53       0.0       0.2      63.7      7.61
   07/04/2020 06:20      58.4      57.9       71     48.8      0.00      0.00      82.2     0.46      1016.6     0.4      SE   141   1.2      SE     142     269       -48       0.0       0.2      63.7      7.62
   07/04/2020 06:10      58.4      57.7       75     50.2      0.00      0.00      82.3     0.46      1016.5     0.2       S   175   1.5       S     190     270       -51       0.0       0.2      63.9      7.62
   07/04/2020 06:00      58.1      57.8       77     50.6      0.00      0.00      82.2     0.46      1016.5     0.5     SSE   152   1.5     SSW     194     270       -56       0.0       0.2      64.2      7.62
   07/04/2020 05:50      58.4      57.5       77     50.8      0.00      0.00      82.4     0.46      1016.5     0.7      SE   135   1.8      SE     136     270       -58       0.0       0.2      64.4      7.62
   07/04/2020 05:40      58.4      57.5       77     50.9      0.00      0.00      82.4     0.46      1016.4     0.8     SSE   169   1.3       S     185     270       -59       0.0       0.2      64.6      7.62
   07/04/2020 05:30      58.3      57.4       73     49.0      0.00      0.00      82.4     0.46      1016.3     0.2     SSE   159   1.2      SE     140     270       -61       0.0       0.2      64.8      7.62
   07/04/2020 05:20      58.7      58.2       72     49.3      0.00      0.00      82.3     0.46      1016.2     0.2     SSE   147   0.8     SSE     160     270       -61       0.0       0.2      65.2      7.62
   07/04/2020 05:10      58.7      58.1       70     48.6      0.00      0.00      82.4     0.46      1016.0     0.2     SSE   157   0.9     SSW     198     269       -61       0.0       0.2      65.4      7.62
   07/04/2020 05:00      58.9      58.4       67     47.6      0.00      0.00      82.4     0.46      1016.0     0.4       S   174   1.0     SSE     163     269       -61       0.0       0.2      65.6      7.62
   07/04/2020 04:50      59.1      58.7       63     46.5      0.00      0.00      82.5     0.46      1015.9     0.3     SSE   153   0.7     SSE     148     269       -60       0.0       0.2      65.8      7.62
   07/04/2020 04:40      59.0      58.7       62     46.0      0.00      0.00      82.6     0.46      1015.9     0.0       N     0   0.0     SSW     192     268       -60       0.0       0.2      66.1      7.62
   07/04/2020 04:30      59.2      58.6       61     45.4      0.00      0.00      82.6     0.46      1015.8     0.1     SSE   166   0.7     SSE     147     268       -61       0.0       0.2      66.3      7.62
   07/04/2020 04:20      59.9      59.2       59     45.3      0.00      0.00      82.7     0.46      1015.8     0.4     SSE   155   1.0     SSE     160     268       -62       0.0       0.2      66.6      7.62
   07/04/2020 04:10      60.5      59.8       57     45.0      0.00      0.00      82.7     0.46      1015.7     0.5     SSE   155   0.9     SSE     158     268       -61       0.0       0.2      66.9      7.62
   07/04/2020 04:00      60.3      59.4       57     44.4      0.00      0.00      82.7     0.46      1015.7     0.4     SSE   164   1.0     SSE     166     268       -61       0.0       0.2      67.2      7.62
   07/04/2020 03:50      59.7      59.4       56     43.6      0.00      0.00      82.8     0.46      1015.7     0.2     SSE   167   0.8     SSE     158     268       -62       0.0       0.2      67.5      7.62
   07/04/2020 03:40      60.0      59.6       55     43.7      0.00      0.00      82.9     0.46      1015.7     0.3     SSE   157   0.8     SSE     149     268       -63       0.0       0.2      67.8      7.62
   07/04/2020 03:30      60.6      59.8       52     42.8      0.00      0.00      82.9     0.46      1015.6     0.5     SSE   160   1.0       S     188     267       -63       0.0       0.2      68.1      7.63
   07/04/2020 03:20      61.1      60.1       51     42.2      0.00      0.00      83.0     0.46      1015.5     0.2     SSE   164   0.8      SE     138     267       -63       0.0       0.2      68.4      7.63
   07/04/2020 03:10      60.8      60.5       51     42.6      0.00      0.00      83.0     0.46      1015.5     0.3       S   186   0.9       S     179     267       -63       0.0       0.2      68.7      7.63
   07/04/2020 03:00      60.9      60.4       52     42.8      0.00      0.00      83.0     0.46      1015.4     0.3     SSE   155   1.1       S     184     267       -64       0.0       0.2      69.0      7.63
   07/04/2020 02:50      61.2      60.3       51     42.3      0.00      0.00      83.1     0.46      1015.4     0.8     SSE   155   2.2      SE     139     267       -65       0.0       0.2      69.3      7.63
   07/04/2020 02:40      61.6      61.1       49     42.0      0.00      0.00      83.2     0.46      1015.4     0.4       S   174   1.1       S     187     267       -64       0.0       0.2      69.7      7.63
   07/04/2020 02:30      61.9      61.4       49     42.1      0.00      0.00      83.2     0.46      1015.3     0.1       S   171   1.7       S     177     267       -64       0.0       0.2      70.0      7.63
   07/04/2020 02:20      62.0      61.6       48     41.8      0.00      0.00      83.3     0.46      1015.3     0.0       S   187   0.6     SSW     213     267       -64       0.0       0.2      70.3      7.63
   07/04/2020 02:10      62.3      61.9       47     41.4      0.00      0.00      83.3     0.46      1015.4     0.4     SSE   165   1.3     SSE     154     266       -66       0.0       0.2      70.6      7.63
   07/04/2020 02:00      63.5      62.2       45     41.2      0.00      0.00      83.3     0.46      1015.4     0.6      SE   135   1.6      SE     143     266       -68       0.0       0.2      70.9      7.63
   07/04/2020 01:50      63.6      62.3       45     41.3      0.00      0.00      83.4     0.46      1015.4     0.7      NE    43   1.6       N       7     266       -67       0.1       0.2      71.2      7.63
   07/04/2020 01:40      62.4      61.3       47     41.5      0.00      0.00      83.4     0.46      1015.4     1.2     SSE   165   2.5       S     179     266       -67       0.6       0.2      71.5      7.64
   07/04/2020 01:30      62.3      61.6       47     41.8      0.00      0.00      83.5     0.46      1015.5     0.7     SSE   161   1.4      SE     140     266       -67       0.0       0.0      71.9      7.64
   07/04/2020 01:20      63.4      62.3       46     41.5      0.00      0.00      83.5     0.46      1015.6     0.8     SSE   168   1.1     SSE     163     266       -68       0.2       0.0      72.3      7.64
   07/04/2020 01:10      63.9      63.2       44     41.3      0.00      0.00      83.6     0.46      1015.8     0.5     SSE   165   1.3     SSE     152     266       -69       0.0       0.0      72.7      7.64
   07/04/2020 01:00      64.9      63.9       41     40.5      0.00      0.00      83.6     0.46      1015.8     0.4     SSE   160   1.3       S     172     266       -69       0.0       0.0      73.0      7.64
   07/04/2020 00:50      65.0      64.7       42     41.0      0.00      0.00      83.6     0.46      1015.8     0.5       S   171   1.2       S     179     266       -69       0.0       0.0      73.5      7.64
   07/04/2020 00:40      65.2      64.8       43     42.0      0.00      0.00      83.7     0.46      1015.8     0.2     SSE   151   0.8     SSE     151     266       -70       0.0       0.0      73.9      7.64
   07/04/2020 00:30      65.5      65.0       43     42.1      0.00      0.00      83.7     0.46      1015.8     0.2     SSE   167   0.9     SSE     166     266       -70       0.0       0.0      74.3      7.64
   07/04/2020 00:20      65.7      65.1       42     41.5      0.00      0.00      83.7     0.46      1015.8     0.3     SSE   164   0.9     SSE     152     266       -70       0.0       0.0      74.7      7.65
   07/04/2020 00:10      66.0      65.5       42     41.8      0.00      0.00      83.7     0.46      1015.8     0.2     SSE   159   0.8     SSE     168     266       -71       0.0       0.0      75.2      7.65
   07/04/2020 00:00      66.1      65.6       42     42.0      0.00      0.00      83.8     0.46      1015.9     0.5       S   180   2.6     SSW     192     266       -72       0.1      20.6      75.5      7.65
   07/03/2020 23:50      66.9      65.9       42     42.4      0.00      0.00      83.8     0.46      1016.0     0.2      SE   139   1.2      SW     234     266       -72       0.0      20.6      75.9      7.65
   07/03/2020 23:40      67.3      66.9       41     42.4      0.00      0.00      83.8     0.46      1016.0     0.4     SSE   162   1.2     SSE     167     266       -73       0.0      20.6      76.4      7.65
   07/03/2020 23:30      67.4      66.8       41     42.8      0.00      0.00      83.8     0.46      1015.9     0.6     SSW   191   1.6     SSW     200     266       -73       0.0      20.6      76.8      7.65
   07/03/2020 23:20      67.5      67.0       41     42.9      0.00      0.00      83.8     0.46      1015.9     0.4     SSE   166   1.8     SSW     199     266       -75       0.0      20.6      77.3      7.66
   07/03/2020 23:10      68.6      67.3       40     42.9      0.00      0.00      83.9     0.47      1015.9     0.0     SSE   148   0.5      SE     124     266       -77       0.0      20.5      77.7      7.66
   07/03/2020 23:00      69.9      68.5       38     42.5      0.00      0.00      83.9     0.46      1015.8     0.1      SE   134   0.7     ESE     105     266       -78       0.0      20.5      78.1      7.66
   07/03/2020 22:50      70.9      69.7       36     42.5      0.00      0.00      83.9     0.46      1015.8     0.1     SSE   146   0.9     ESE     103     266       -80       0.0      20.5      78.6      7.66
   07/03/2020 22:40      72.4      70.8       35     42.2      0.00      0.00      83.9     0.46      1015.8     0.0       S   174   0.8       S     181     266       -81       0.0      20.5      79.0      7.66
   07/03/2020 22:30      73.0      72.2       33     42.2      0.00      0.00      83.9     0.46      1015.8     0.1      SW   219   1.5       W     278     266       -83       0.0      20.5      79.5      7.67
   07/03/2020 22:20      73.5      72.8       34     43.1      0.00      0.00      83.9     0.46      1015.8     0.6      SW   216   2.5       W     280     265       -84       0.0      20.5      79.9      7.67
   07/03/2020 22:10      73.6      73.3       36     44.6      0.00      0.00      83.9     0.46      1015.8     0.9     SSW   203   3.9      SW     231     266       -85       0.2      20.5      80.3      7.67
   07/03/2020 22:00      74.7      73.6       36     45.9      0.00      0.00      83.9     0.46      1015.8     0.9       S   183   2.3      SE     145     265       -87       0.1      20.5      80.7      7.67
   07/03/2020 21:50      75.1      74.6       36     46.3      0.00      0.00      83.9     0.46      1015.6     1.6     SSW   197   2.9     SSW     206     265       -90       0.5      20.4      81.2      7.67
   07/03/2020 21:40      75.5      75.1       38     48.0      0.00      0.00      83.8     0.46      1015.6     2.1     SSW   210   3.5      SW     218     265       -91       1.0      20.4      81.6      7.68
   07/03/2020 21:30      76.0      75.3       39     49.3      0.00      0.00      83.8     0.46      1015.5     1.6     SSW   214   3.9      SW     221     266       -91       0.6      20.2      82.1      7.68
   07/03/2020 21:20      76.5      75.9       38     48.6      0.00      0.00      83.8     0.46      1015.3     1.7     SSW   206   4.4      SW     229     265       -92       0.7      20.1      82.5      7.68
   07/03/2020 21:10      77.7      76.5       34     46.4      0.00      0.00      83.8     0.46      1015.2     2.0      SW   216   3.6     WSW     250     265       -93       0.7      20.0      83.1      7.68
   07/03/2020 21:00      78.3      77.5       32     45.5      0.00      0.00      83.7     0.46      1015.1     3.3     WSW   238   6.0     SSW     210     264       -94       2.2      19.9      83.7      7.69
   07/03/2020 20:50      78.7      78.0       30     44.7      0.00      0.00      83.8     0.46      1015.0     3.5     WSW   245   6.8      SW     233     264       -95       2.2      19.5      84.2      7.69
   07/03/2020 20:40      79.4      78.5       26     41.5      0.00      0.00      83.7     0.46      1015.0     2.4      SW   230   4.4     WSW     244     264       -94       1.1      19.1      84.7      7.69
   07/03/2020 20:30      79.6      79.2       26     41.6      0.00      0.00      83.7     0.46      1015.0     2.1     WSW   246   3.4     WSW     244     264       -94       0.9      18.9      85.3      7.70
   07/03/2020 20:20      80.0      79.5       26     42.0      0.00      0.00      83.7     0.46      1014.9     1.8     WSW   245   3.2     WSW     253     264       -94       0.9      18.8      85.8      7.70
   07/03/2020 20:10      81.7      80.0       26     42.6      0.00      0.00      83.6     0.46      1014.9     1.0     WSW   242   2.5       W     281     263       -95       0.3      18.7      86.5      7.70
   07/03/2020 20:00      82.7      81.6       26     43.6      0.00      0.00      83.6     0.46      1014.8     1.2      NW   307   4.2     WNW     297     263       -92       0.8      18.6      87.0      7.71
   07/03/2020 19:50      83.8      82.5       27     45.7      0.00      0.00      83.5     0.46      1014.8     1.2     WNW   302   3.2     WSW     239     263       -89       0.8      18.5      87.6      7.71
   07/03/2020 19:40      85.3      83.8       27     47.2      0.00      0.00      83.4     0.46      1014.8     2.1     WNW   285   6.5     WNW     287     263       -73       1.6      18.4      88.2      7.71
   07/03/2020 19:30      86.6      85.4       27     48.4      0.00      0.00      83.4     0.46      1014.7     2.3       W   281   7.5       W     272     263       -53       1.9      18.1      88.7      7.72
   07/03/2020 19:20      87.7      86.5       28     49.7      0.00      0.00      83.2     0.46      1014.6     1.4      NW   307   3.6     WNW     292     263       -34       1.0      17.8      89.2      7.72
   07/03/2020 19:10      87.9      87.5       21     42.8      0.00      0.00      83.2     0.46      1014.6     1.8     WNW   283   3.6     NNW     340     263       -14       1.5      17.6      89.6      7.73
   07/03/2020 19:00      88.2      87.6       15     34.2      0.00      0.00      83.1     0.46      1014.6     2.0     SSW   213   3.9     SSW     201     262         5       1.5      17.4      89.9      7.73
   07/03/2020 18:50      88.2      87.6       15     34.1      0.00      0.00      83.0     0.46      1014.6     2.0       S   171   4.0       S     176     262        27       1.2      17.1      90.3      7.74
   07/03/2020 18:40      88.4      87.7       15     34.4      0.00      0.00      83.0     0.46      1014.6     2.3       S   182   5.8       S     183     262        50       1.6      16.9      90.8      7.74
   07/03/2020 18:30      89.0      88.2       15     34.6      0.00      0.00      82.9     0.46      1014.6     2.9     SSW   209   5.1     SSW     202     262        75       1.9      16.6      91.2      7.75
   07/03/2020 18:20      89.0      88.5       14     33.8      0.00      0.00      82.9     0.46      1014.6     2.8       S   187   5.3     SSE     152     262       101       1.7      16.3      91.5      7.75
   07/03/2020 18:10      89.0      88.5       13     32.5      0.00      0.00      82.7     0.46      1014.6     3.0       S   182   5.2     SSW     192     262       128       2.1      16.0      91.8      7.76
   07/03/2020 18:00      89.3      88.7       13     32.3      0.00      0.00      82.7     0.46      1014.6     2.9     SSW   193   5.9       S     171     262       154       2.0      15.7      92.1      7.76
   07/03/2020 17:50      90.1      89.1       12     31.2      0.00      0.00      82.7     0.46      1014.7     3.8     SSW   207   6.6      SW     226     262       178       2.7      15.3      92.4      7.77
   07/03/2020 17:40      90.0      89.3       12     30.9      0.00      0.00      82.6     0.46      1014.7     3.5     SSW   202   6.5     WSW     236     262       203       2.4      14.9      92.7      7.77
   07/03/2020 17:30      89.8      89.1       12     30.0      0.00      0.00      82.5     0.46      1014.8     4.2     SSW   207   6.6      SW     225     262       228       2.7      14.5      93.0      7.78
   07/03/2020 17:20      89.8      89.3       12     29.3      0.00      0.00      82.5     0.46      1014.9     4.2     SSW   206   6.6      SW     230     262       253       2.8      14.1      93.2      7.79
   07/03/2020 17:10      90.4      89.4       12     31.0      0.00      0.00      82.4     0.46      1014.9     4.4     SSW   203  10.4     SSW     196     262       276       3.0      13.6      93.5      7.79
   07/03/2020 17:00      90.2      89.6       13     31.6      0.00      0.00      82.3     0.46      1015.0     3.9       S   187   7.8     SSE     164     262       299       2.7      13.1      93.8      7.80
   07/03/2020 16:50      90.3      89.5       12     31.4      0.00      0.00      82.2     0.46      1015.1     5.3     SSW   207  11.0     SSW     209     262       323       3.6      12.6      93.9      7.80
   07/03/2020 16:40      90.9      89.9       12     31.3      0.00      0.00      82.2     0.46      1015.2     5.2       S   189   9.8     SSW     203     262       344       3.3      12.0      94.2      7.81
   07/03/2020 16:30      91.2      89.9       12     31.5      0.00      0.00      82.1     0.45      1015.2     5.0     SSW   196   9.6       S     190     262       364       3.3      11.5      94.3      7.82
   07/03/2020 16:20      91.7      90.9       12     31.2      0.00      0.00      82.1     0.45      1015.3     4.8     SSW   206   8.5       W     259     262       385       3.3      10.9      94.5      7.82
   07/03/2020 16:10      91.6      90.9       12     31.9      0.00      0.00      82.0     0.45      1015.4     4.6       S   189  10.0      SW     234     262       406       2.5      10.4      94.6      7.83
   07/03/2020 16:00      91.3      90.4       12     30.5      0.00      0.00      81.8     0.45      1015.3     4.8       S   191   8.5      SW     217     262       425       3.2      10.0      94.6      7.83
   07/03/2020 15:50      91.4      90.1       12     31.7      0.00      0.00      81.9     0.45      1015.3     5.3       S   189   9.9     SSW     205     262       445       3.3       9.4      94.8      7.84
   07/03/2020 15:40      91.5      90.9       12     31.5      0.00      0.00      81.9     0.45      1015.4     4.9       S   184   8.5     SSW     201     262       459       3.2       8.9      94.9      7.85
   07/03/2020 15:30      92.7      90.9       11     30.3      0.00      0.00      81.7     0.45      1015.5     4.7       S   187   8.7       S     172     262       470       3.1       8.3      94.6      7.85
   07/03/2020 15:20      92.7      92.0       11     30.6      0.00      0.00      80.9     0.45      1015.5     2.7     SSE   153   5.9     WNW     295     262       485       1.9       7.8      93.7      7.86
   07/03/2020 15:10      93.9      91.8       12     32.9      0.00      0.00      80.8     0.45      1015.5     2.4     SSE   150   5.7     SSE     163     262       497       1.7       7.5      93.4      7.86
   07/03/2020 15:00      92.4      90.9       13     33.6      0.00      0.00      80.7     0.45      1015.6     2.8     ESE   124   7.0     ESE     116     262       512       1.6       7.2      93.0      7.87
   07/03/2020 14:50      93.9      91.5       12     33.1      0.00      0.00      80.7     0.45      1015.6     2.9      SE   133   6.4      SE     134     262       523       1.8       7.0      92.6      7.87
   07/03/2020 14:40      93.7      91.8       12     32.3      0.00      0.00      80.6     0.45      1015.7     1.8       E    96   4.0      NE      51     262       531       1.3       6.7      92.1      7.88
   07/03/2020 14:30      92.6      90.9       11     30.5      0.00      0.00      80.5     0.45      1015.7     2.1     ENE    73   5.3       E     101     262       544       1.5       6.5      91.6      7.88
   07/03/2020 14:20      91.6      90.7       11     30.1      0.00      0.00      80.5     0.45      1015.8     2.8     SSE   155   5.9     SSE     156     263       555       1.7       6.2      91.6      7.88
   07/03/2020 14:10      91.5      90.2       11     30.0      0.00      0.00      80.5     0.45      1015.9     2.8       S   181   6.7       S     179     263       565       2.2       5.9      91.1      7.88
   07/03/2020 14:00      91.2      89.9       12     31.7      0.00      0.00      80.5     0.45      1016.0     2.4      SE   137   7.3      SE     145     263       573       1.5       5.6      90.5      7.89
   07/03/2020 13:50      92.7      90.7       12     33.0      0.00      0.00      80.5     0.45      1016.0     3.0       E    83   7.1      SE     139     262       578       1.6       5.3      89.9      7.89
   07/03/2020 13:40      92.0      90.2       13     33.6      0.00      0.00      80.5     0.45      1016.0     2.7     ENE    70   5.4      NE      39     262       585       1.8       5.1      89.2      7.90
   07/03/2020 13:30      91.9      90.8       13     33.7      0.00      0.00      80.5     0.45      1016.1     2.7       E    80   7.0      SE     132     262       587       1.5       4.8      88.7      7.90
   07/03/2020 13:20      91.6      90.7       14     35.8      0.00      0.00      80.5     0.45      1016.1     3.0      NE    50   6.0     ENE      59     262       591       1.7       4.5      87.9      7.90
   07/03/2020 13:10      91.0      89.7       14     34.8      0.00      0.00      80.5     0.45      1016.2     3.5     ENE    76   6.3     ESE     106     262       596       1.8       4.2      87.2      7.91
   07/03/2020 13:00      91.1      89.8       14     34.8      0.00      0.00      80.5     0.45      1016.2     3.0       E    93   7.6      NE      45     261       592       1.7       3.9      86.5      7.91
   07/03/2020 12:50      90.4      89.4       15     35.9      0.00      0.00      80.2     0.45      1016.2     3.0       E    94   6.5     ENE      75     262       593       1.6       3.6      85.4      7.91
   07/03/2020 12:40      90.9      90.0       15     36.1      0.00      0.00      80.2     0.45      1016.2     2.2      NE    43   6.0     ESE     103     262       589       1.3       3.4      84.5      7.91
   07/03/2020 12:30      91.1      89.8       16     38.5      0.00      0.00      80.2     0.45      1016.3     1.5     ESE   121   3.7     SSW     196     262       589       1.1       3.2      83.6      7.92
   07/03/2020 12:20      90.5      88.5       18     41.2      0.00      0.00      80.3     0.45      1016.3     2.4     NNE    26   6.4     ESE     122     263       586       1.8       3.0      82.7      7.92
   07/03/2020 12:10      88.7      87.7       19     40.8      0.00      0.00      80.4     0.45      1016.4     2.2       E    96   4.8      SE     139     263       583       1.3       2.7      81.6      7.92
   07/03/2020 12:00      88.2      87.2       20     41.3      0.00      0.00      80.4     0.45      1016.4     2.1      SE   137   5.1       N       2     263       578       1.3       2.5      80.7      7.92
   07/03/2020 11:50      87.9      87.2       22     44.5      0.00      0.00      80.4     0.45      1016.5     2.1     ENE    71   4.8     ENE      70     263       571       1.1       2.3      79.6      7.92
   07/03/2020 11:40      87.3      86.0       25     46.3      0.00      0.00      80.5     0.45      1016.6     1.0     NNW   348   3.1     NNE      20     263       559       0.9       2.1      78.5      7.92
   07/03/2020 11:30      86.2      84.6       27     47.9      0.00      0.00      80.6     0.45      1016.7     1.5       N     9   4.2       N       7     263       553       0.8       1.9      77.3      7.92
   07/03/2020 11:20      86.3      84.6       28     48.9      0.00      0.00      80.7     0.45      1016.8     2.1       N     7   4.7     NNW     343     263       543       1.1       1.8      76.1      7.92
   07/03/2020 11:10      85.8      85.1       28     48.5      0.00      0.00      80.6     0.45      1016.9     1.0     NNE    16   3.3     NNE      19     263       533       1.0       1.6      75.2      7.92
   07/03/2020 11:00      85.1      83.8       28     47.9      0.00      0.00      80.6     0.45      1016.9     1.4      NE    42   2.6       W     279     263       525       1.1       1.5      74.3      7.92
   07/03/2020 10:50      84.0      83.4       29     47.9      0.00      0.00      80.6     0.45      1017.0     1.2     NNE    32   3.0     NNE      18     263       512       0.7       1.3      73.4      7.92
   07/03/2020 10:40      83.4      82.4       30     48.2      0.00      0.00      80.6     0.45      1017.0     1.3     NNE    26   3.3       N     352     263       500       0.6       1.2      72.5      7.92
   07/03/2020 10:30      83.0      81.2       32     49.5      0.00      0.00      80.6     0.45      1016.9     0.8       N     8   2.9     NNE      29     263       487       0.6       1.1      71.5      7.92
   07/03/2020 10:20      81.3      79.9       33     48.9      0.00      0.00      80.6     0.45      1016.9     1.3     NNE    17   5.0      NE      54     263       470       0.6       1.0      70.6      7.92
   07/03/2020 10:10      80.1      78.6       33     48.0      0.00      0.00      80.6     0.45      1016.9     1.3     NNE    29   4.6       N      11     264       455       0.6       0.9      69.7      7.92
   07/03/2020 10:00      79.0      77.7       35     48.7      0.00      0.00      80.6     0.45      1017.0     1.4      NE    34   3.3       N       5     264       439       0.6       0.8      68.8      7.92
   07/03/2020 09:50      78.4      77.3       39     51.0      0.00      0.00      80.7     0.45      1017.1     1.3     NNW   346   3.5       N     349     265       421       0.9       0.7      68.0      7.92
   07/03/2020 09:40      77.3      76.5       40     50.4      0.00      0.00      80.7     0.45      1017.1     1.4       N   360   3.8     NNE      29     265       404       0.4       0.5      67.3      7.92
   07/03/2020 09:30      76.5      75.3       44     52.4      0.00      0.00      80.7     0.45      1017.1     1.0       N     6   3.2     NNW     346     266       389       0.3       0.4      66.5      7.92
   07/03/2020 09:20      75.5      74.7       45     52.4      0.00      0.00      80.2     0.46      1017.1     1.2      NE    37   3.7      NW     317     266       373       0.4       0.4      65.5      7.92
   07/03/2020 09:10      74.8      72.3       50     53.6      0.00      0.00      80.3     0.46      1017.1     0.9     ENE    59   2.5       E     101     266       365       0.4       0.3      64.8      7.92
   07/03/2020 09:00      72.4      70.2       56     54.9      0.00      0.00      80.4     0.46      1017.1     1.2     NNE    20   3.5     NNE      21     267       370       0.4       0.3      64.3      7.92
   07/03/2020 08:50      70.2      69.0       60     55.3      0.00      0.00      80.4     0.46      1017.1     0.9       N     9   2.8     NNE      23     269       118       0.2       0.2      63.8      7.92
   07/03/2020 08:40      69.0      68.2       64     55.9      0.00      0.00      80.5     0.46      1017.1     0.9       N     3   2.3     NNE      17     271        14       0.1       0.2      63.0      7.92
   07/03/2020 08:30      68.2      67.2       66     56.1      0.00      0.00      80.5     0.46      1017.0     0.6     ENE    65   2.5       E      98     272         8       0.2       0.1      62.9      7.92
   07/03/2020 08:20      67.4      66.4       69     56.2      0.00      0.00      80.5     0.46      1016.9     0.5       E    86   1.7       E      79     272        10       0.0       0.1      63.0      7.92
   07/03/2020 08:10      66.6      65.7       70     56.0      0.00      0.00      80.6     0.46      1016.9     0.5     SSW   205   1.9     SSW     193     272        19       0.0       0.0      63.0      7.92
   07/03/2020 08:00      65.8      64.6       72     56.0      0.00      0.00      80.7     0.46      1017.0     0.4     ESE   107   1.8      SE     143     272        14       0.0       0.0      63.0      7.92
   07/03/2020 07:50      64.6      63.8       74     55.7      0.00      0.00      80.7     0.46      1017.0     0.5       W   266   1.6       W     279     296        28       0.1       0.0      63.0      7.92
   07/03/2020 07:40      63.9      62.5       76     55.7      0.00      0.00      80.8     0.46      1016.9     0.1       S   173   1.3      SW     219     301        36       0.0       0.0      63.0      7.92
   07/03/2020 07:30      62.5      60.8       81     55.7      0.00      0.00      80.8     0.46      1016.7     0.2     ESE   116   1.1     ESE     121     304        23       0.0       0.0      63.0      7.92
   07/03/2020 07:20      61.0      59.7       84     55.6      0.00      0.00      80.8     0.46      1016.6     0.1      NE    49   1.3     NNE      32     307        10       0.0       0.0      63.1      7.92
   07/03/2020 07:10      59.7      58.8       87     55.3      0.00      0.00      80.9     0.46      1016.6     0.0       N     0   0.0     ESE     118     327        11       0.0       0.0      63.1      7.92
   07/03/2020 07:00      58.9      58.4       88     55.2      0.00      0.00      81.0     0.46      1016.5     0.0       N     0   0.0     NNE      27     339         5       0.0       0.0      63.1      7.92
   07/03/2020 06:50      58.5      57.3       89     54.8      0.00      0.00      81.0     0.46      1016.4     0.0     NNE    27   0.6     NNE      27     345         2       0.0       0.0      63.2      7.92
   07/03/2020 06:40      57.3      56.5       90     53.9      0.00      0.00      81.1     0.46      1016.3     0.0     NNE    27   0.6     NNE      27     348        -3       0.0       0.0      63.3      7.92
   07/03/2020 06:30      56.6      55.6       90     53.0      0.00      0.00      81.1     0.46      1016.3     0.0     SSE   150   0.6     SSE     150     344       -11       0.0       0.0      63.4      7.92
   07/03/2020 06:20      55.9      55.5       89     52.7      0.00      0.00      81.1     0.46      1016.3     0.2      SE   146   0.7      SE     145     346       -14       0.0       0.0      63.5      7.92
   07/03/2020 06:10      56.0      55.6       90     52.8      0.00      0.00      81.2     0.46      1016.2     0.2     SSE   153   0.7     SSE     149     363       -14       0.0       0.0      63.8      7.92
   07/03/2020 06:00      55.8      55.4       90     52.6      0.00      0.00      81.3     0.46      1016.1     0.2       S   187   0.9     SSW     192     369       -17       0.0       0.0      63.9      7.92
   07/03/2020 05:50      55.7      55.4       90     52.5      0.00      0.00      81.4     0.46      1016.1     0.0      SE   139   0.5      SE     139     365       -20       0.0       0.0      64.1      7.92
   07/03/2020 05:40      55.8      55.5       89     52.6      0.00      0.00      81.4     0.46      1015.9     0.0      SE   143   0.6      SE     135     358       -23       0.0       0.0      64.4      7.92
   07/03/2020 05:30      56.2      55.7       89     52.9      0.00      0.00      81.5     0.46      1015.8     0.3      SE   145   1.1      SE     144     348       -24       0.0       0.0      64.6      7.92
   07/03/2020 05:20      56.7      55.7       89     53.1      0.00      0.00      81.6     0.46      1015.7     0.2     SSE   149   1.0     SSE     147     339       -24       0.0       0.0      64.8      7.92
   07/03/2020 05:10      57.1      56.6       89     53.8      0.00      0.00      81.6     0.46      1015.7     0.0     SSE   154   0.4     SSE     154     331       -24       0.0       0.0      65.1      7.92
   07/03/2020 05:00      57.0      56.5       89     53.5      0.00      0.00      81.6     0.46      1015.6     0.2      SE   136   1.0      SE     135     322       -25       0.0       0.0      65.3      7.92
   07/03/2020 04:50      57.1      56.6       89     53.6      0.00      0.00      81.7     0.46      1015.6     0.3     SSE   158   0.9       S     190     312       -25       0.0       0.0      65.6      7.92
   07/03/2020 04:40      57.1      56.4       89     53.5      0.00      0.00      81.7     0.46      1015.6     0.2     SSE   154   0.7     SSE     158     303       -26       0.0       0.0      65.8      7.92
   07/03/2020 04:30      56.5      55.9       88     52.7      0.00      0.00      81.8     0.46      1015.6     0.4       S   174   1.0       S     179     296       -28       0.0       0.0      66.0      7.93
   07/03/2020 04:20      56.6      56.0       87     52.6      0.00      0.00      81.9     0.46      1015.6     0.1     SSE   162   0.7     SSE     166     290       -28       0.0       0.0      66.3      7.93
   07/03/2020 04:10      57.5      56.4       88     53.4      0.00      0.00      82.0     0.46      1015.6     0.2     SSE   162   0.7     SSE     149     282       -29       0.0       0.0      66.6      7.93
   07/03/2020 04:00      57.3      57.0       88     53.4      0.00      0.00      82.0     0.46      1015.6     0.2      SE   141   0.9      SE     141     277       -30       0.0       0.0      66.8      7.93
   07/03/2020 03:50      57.2      56.4       87     53.0      0.00      0.00      82.0     0.46      1015.6     0.3     SSE   161   0.8     SSE     160     270       -32       0.0       0.0      67.1      7.93
   07/03/2020 03:40      56.9      56.5       87     52.7      0.00      0.00      82.1     0.46      1015.6     0.4     SSE   149   1.2     SSE     157     263       -35       0.0       0.0      67.4      7.93
   07/03/2020 03:30      57.0      56.5       86     52.7      0.00      0.00      82.2     0.46      1015.5     0.3     SSE   152   1.2     SSE     155     258       -36       0.0       0.0      67.6      7.93
   07/03/2020 03:20      57.5      56.9       86     52.9      0.00      0.00      82.2     0.46      1015.6     0.6     SSE   149   1.1      SE     141     253       -37       0.0       0.0      67.9      7.93
   07/03/2020 03:10      57.8      57.3       85     53.0      0.00      0.00      82.3     0.46      1015.5     0.2     SSE   160   0.8     SSE     151     249       -38       0.0       0.0      68.3      7.93
   07/03/2020 03:00      58.2      57.6       85     53.4      0.00      0.00      82.3     0.46      1015.5     0.0      SE   146   0.9      SE     145     241       -40       0.0       0.0      68.5      7.93
   07/03/2020 02:50      58.1      57.8       85     53.4      0.00      0.00      82.4     0.46      1015.5     0.0       S   173   0.7       S     173     237       -41       0.0       0.0      68.8      7.93
   07/03/2020 02:40      58.4      57.9       84     53.5      0.00      0.00      82.4     0.46      1015.5     0.5     SSE   149   0.8     SSE     151     234       -43       0.0       0.0      69.1      7.93
   07/03/2020 02:30      58.3      57.9       85     53.5      0.00      0.00      82.4     0.46      1015.4     0.1     SSE   153   0.6     SSE     156     232       -45       0.0       0.0      69.4      7.93
   07/03/2020 02:20      58.3      57.9       84     53.3      0.00      0.00      82.5     0.46      1015.4     0.1     SSE   158   0.9       S     180     230       -47       0.0       0.0      69.8      7.93
   07/03/2020 02:10      58.5      57.9       84     53.2      0.00      0.00      82.5     0.46      1015.4     0.3       S   170   0.9       S     175     228       -49       0.0       0.0      70.1      7.94
   07/03/2020 02:00      58.9      58.2       83     53.5      0.00      0.00      82.6     0.46      1015.4     0.0     SSE   164   0.8     SSE     165     227       -51       0.0       0.0      70.4      7.94
   07/03/2020 01:50      59.0      58.6       83     53.7      0.00      0.00      82.6     0.46      1015.4     0.3     SSE   157   0.8       S     172     229       -52       0.0       0.0      70.7      7.94
   07/03/2020 01:40      59.5      58.7       83     53.8      0.00      0.00      82.7     0.46      1015.4     0.1     SSE   163   1.0     SSE     165     245       -55       0.0       0.0      71.0      7.94
   07/03/2020 01:30      59.6      59.3       83     54.2      0.00      0.00      82.7     0.46      1015.4     0.5       S   176   1.1       S     187     255       -56       0.0       0.0      71.3      7.94
   07/03/2020 01:20      59.6      59.3       82     54.1      0.00      0.00      82.7     0.46      1015.4     0.3       S   170   0.7     SSE     154     248       -59       0.0       0.0      71.7      7.94
   07/03/2020 01:10      59.8      59.4       82     54.1      0.00      0.00      82.8     0.46      1015.3     0.1       S   179   0.8       S     191     262       -62       0.0       0.0      72.0      7.94
   07/03/2020 01:00      60.1      59.6       81     54.1      0.00      0.00      82.8     0.46      1015.3     0.0       S   189   0.7       S     189     257       -63       0.0       0.0      72.4      7.94
   07/03/2020 00:50      60.5      60.1       80     54.2      0.00      0.00      82.8     0.46      1015.4     0.2       S   176   0.8       S     174     268       -65       0.0       0.0      72.8      7.94
   07/03/2020 00:40      60.9      60.3       80     54.3      0.00      0.00      82.9     0.46      1015.4     0.3       S   181   1.0       S     177     272       -64       0.0       0.0      73.1      7.94
   07/03/2020 00:30      61.0      60.5       79     54.3      0.00      0.00      82.9     0.46      1015.4     0.0       S   177   0.5       S     180     268       -67       0.0       0.0      73.5      7.95
   07/03/2020 00:20      61.5      60.9       78     54.4      0.00      0.00      82.9     0.46      1015.4     0.5       S   185   1.0     SSW     196     272       -67       0.0       0.0      73.9      7.95
   07/03/2020 00:10      61.8      61.4       77     54.5      0.00      0.00      83.0     0.46      1015.4     0.2       S   185   1.0       S     173     272       -68       0.0       0.0      74.2      7.95
   07/03/2020 00:00      61.8      61.6       77     54.4      0.00      0.00      83.0     0.46      1015.4     0.2       S   174   0.9     SSE     167     272       -69       0.0      20.6      74.6      7.95
   07/02/2020 23:50      62.1      61.8       76     54.4      0.00      0.00      83.0     0.46      1015.5     0.0       S   171   0.5       S     175     272       -70       0.0      20.6      75.0      7.95
   07/02/2020 23:40      62.5      62.0       75     54.0      0.00      0.00      83.1     0.46      1015.4     0.0     SSE   168   0.7      SE     144     271       -71       0.0      20.6      75.4      7.95
   07/02/2020 23:30      62.9      62.3       74     54.4      0.00      0.00      83.1     0.46      1015.5     0.0     SSE   157   1.1      SE     141     271       -72       0.0      20.6      75.8      7.95
   07/02/2020 23:20      63.4      62.8       73     54.3      0.00      0.00      83.1     0.46      1015.5     0.0       S   189   0.2       S     189     271       -72       0.0      20.6      76.2      7.95
   07/02/2020 23:10      63.5      63.1       71     53.9      0.00      0.00      83.1     0.46      1015.4     0.2      SE   124   1.1      SE     133     270       -73       0.0      20.6      76.6      7.96
   07/02/2020 23:00      64.3      63.4       70     53.9      0.00      0.00      83.0     0.46      1015.3     0.3      SE   136   1.1      SE     133     270       -75       0.0      20.6      76.9      7.96
   07/02/2020 22:50      65.1      64.1       68     53.8      0.00      0.00      83.2     0.46      1015.3     0.3      SE   134   1.6       E      87     270       -75       0.0      20.6      77.4      7.96
   07/02/2020 22:40      65.6      65.1       68     54.4      0.00      0.00      83.3     0.46      1015.3     0.3     ESE   110   1.4       E      88     270       -77       0.0      20.6      77.9      7.96
   07/02/2020 22:30      66.2      65.4       66     54.2      0.00      0.00      83.1     0.46      1015.2     0.4     ESE   110   1.7     ENE      70     269       -78       0.0      20.6      78.2      7.96
   07/02/2020 22:20      66.7      66.0       64     54.0      0.00      0.00      83.2     0.46      1015.1     0.5     ESE   118   2.1     ENE      68     269       -79       0.0      20.6      78.6      7.96
   07/02/2020 22:10      67.3      66.5       62     53.3      0.00      0.00      83.1     0.46      1015.0     0.2       E    95   1.0     ESE     109     268       -80       0.0      20.6      79.1      7.96
   07/02/2020 22:00      68.1      67.2       59     52.6      0.00      0.00      83.1     0.46      1015.0     0.6       E    89   2.6     ESE     120     268       -79       0.0      20.6      79.6      7.96
   07/02/2020 21:50      68.8      68.0       57     52.6      0.00      0.00      83.1     0.46      1014.8     0.6       E   100   1.5     ESE     107     268       -80       0.0      20.6      79.9      7.97
   07/02/2020 21:40      68.8      68.4       56     52.3      0.00      0.00      83.2     0.46      1014.7     0.7     ENE    65   1.9     NNE      25     268       -79       0.1      20.6      80.3      7.97
   07/02/2020 21:30      69.4      68.7       55     52.2      0.00      0.00      82.9     0.46      1014.5     0.7     SSE   165   1.7      SE     136     268       -78       0.0      20.5      80.8      7.97
   07/02/2020 21:20      69.9      69.3       53     51.5      0.00      0.00      83.0     0.46      1014.4     0.9     SSE   155   2.6     ESE     123     267       -80       0.1      20.5      81.2      7.97
   07/02/2020 21:10      70.3      69.7       51     50.9      0.00      0.00      83.1     0.46      1014.2     1.3     SSE   166   2.6     SSE     166     267       -81       0.4      20.5      81.6      7.97
   07/02/2020 21:00      71.0      70.2       48     50.1      0.00      0.00      83.1     0.46      1014.1     1.8     SSE   164   3.2       S     174     266       -82       0.9      20.4      82.1      7.98
   07/02/2020 20:50      71.5      70.9       47     49.8      0.00      0.00      83.2     0.46      1014.0     2.1       S   174   3.8       S     186     266       -83       1.2      20.3      82.7      7.98
   07/02/2020 20:40      72.0      71.4       46     49.7      0.00      0.00      83.2     0.46      1013.9     2.1       S   179   4.2     SSW     192     266       -84       1.0      20.1      83.3      7.98
   07/02/2020 20:30      72.8      71.9       44     49.4      0.00      0.00      83.1     0.46      1013.7     2.3       S   175   4.4       S     176     266       -85       1.5      19.9      83.7      7.99
   07/02/2020 20:20      73.6      72.8       41     48.2      0.00      0.00      82.7     0.46      1013.6     2.9       S   180   4.7     SSE     166     266       -85       1.7      19.7      83.9      7.99
   07/02/2020 20:10      74.5      73.5       39     47.4      0.00      0.00      82.3     0.46      1013.4     2.9       S   182   4.7     SSW     202     266       -83       1.7      19.4      83.9      7.99
   07/02/2020 20:00      75.6      74.3       36     45.9      0.00      0.00      82.3     0.46      1013.3     3.0       S   173   5.3       S     171     266       -80       1.9      19.1      84.8      8.00
   07/02/2020 19:50      77.0      75.5       32     44.6      0.00      0.00      82.2     0.46      1013.2     2.7       S   188   5.5       S     189     266       -78       1.6      18.8      85.5      8.00
   07/02/2020 19:40      78.2      76.9       30     44.0      0.00      0.00      82.1     0.46      1013.1     2.1     SSE   168   4.2     SSE     148     265       -65       1.4      18.5      86.1      8.01
   07/02/2020 19:30      79.4      78.0       29     43.9      0.00      0.00      82.1     0.46      1013.0     2.2       S   171   5.4       S     189     265       -47       1.3      18.3      86.6      8.01
   07/02/2020 19:20      80.3      79.4       27     42.6      0.00      0.00      82.6     0.46      1012.8     2.1       S   180   3.8     SSW     193     265       -31       1.4      18.1      87.8      8.01
   07/02/2020 19:10      80.6      80.2       25     41.4      0.00      0.00      83.0     0.46      1012.8     2.5       S   178   5.4     SSW     201     264       -10       1.8      17.8      88.8      8.02
   07/02/2020 19:00      81.4      80.5       26     42.8      0.00      0.00      82.7     0.46      1012.8     3.0       S   183   5.6     SSE     163     264        14       1.7      17.5      89.2      8.02
   07/02/2020 18:50      81.5      81.1       26     43.6      0.00      0.00      82.6     0.46      1012.7     3.3     SSW   193   5.8     SSW     211     264        37       2.1      17.3      89.6      8.03
   07/02/2020 18:40      82.1      81.4       26     44.0      0.00      0.00      82.5     0.46      1012.7     3.4     SSW   191   6.3      SE     139     264        61       2.3      16.9      90.0      8.03
   07/02/2020 18:30      82.4      81.9       26     43.8      0.00      0.00      82.3     0.46      1012.7     2.9     SSW   198   4.6     SSW     196     264        85       1.9      16.5      90.2      8.04
   07/02/2020 18:20      83.3      82.3       25     43.4      0.00      0.00      82.1     0.46      1012.7     2.8       S   181   5.8     SSW     197     264       110       1.8      16.2      90.5      8.04
   07/02/2020 18:10      83.3      82.6       26     44.2      0.00      0.00      82.1     0.46      1012.7     2.1       S   172   4.5     SSE     168     264       135       1.6      15.9      90.9      8.04
   07/02/2020 18:00      83.3      82.6       26     44.5      0.00      0.00      81.7     0.46      1012.7     3.3       S   182   5.8      SE     143     264       160       1.9      15.6      90.8      8.05
   07/02/2020 17:50      84.2      82.8       27     45.8      0.00      0.00      81.5     0.46      1012.7     3.2     SSE   152   6.2      SE     146     264       184       1.8      15.3      91.1      8.05
   07/02/2020 17:40      85.2      83.9       24     44.2      0.00      0.00      81.3     0.46      1012.8     2.3     SSE   157   6.4       S     183     264       207       1.6      15.0      91.1      8.06
   07/02/2020 17:30      84.5      83.3       23     41.8      0.00      0.00      81.3     0.46      1012.8     1.9      SE   127   5.4     ESE     110     264       232       1.4      14.8      91.4      8.06
   07/02/2020 17:20      84.7      83.6       23     42.2      0.00      0.00      81.1     0.46      1012.8     3.1       E    95   5.2      SE     129     264       255       1.7      14.5      91.4      8.06
   07/02/2020 17:10      84.2      83.0       23     42.4      0.00      0.00      80.8     0.46      1012.9     3.0     ESE   120   7.0      SE     135     264       280       1.8      14.2      91.6      8.07
   07/02/2020 17:00      85.4      84.0       23     42.9      0.00      0.00      80.7     0.46      1012.9     3.3     ESE   119   7.7       E      96     264       301       2.0      13.9      91.5      8.07
   07/02/2020 16:50      85.6      84.7       23     42.8      0.00      0.00      81.1     0.46      1013.0     2.5     ESE   106   5.1     SSE     160     264       324       1.6      13.6      91.9      8.08
   07/02/2020 16:40      85.1      83.4       24     43.6      0.00      0.00      81.2     0.46      1013.0     3.4      SE   139   8.7      SE     145     264       345       1.9      13.3      92.5      8.08
   07/02/2020 16:30      85.6      84.0       24     44.1      0.00      0.00      81.1     0.46      1013.0     3.4     ESE   104   7.1      SE     140     265       366       1.9      13.0      92.5      8.09
   07/02/2020 16:20      85.5      84.7       26     46.8      0.00      0.00      81.1     0.46      1013.0     3.3     ESE   117   7.8     ENE      67     265       390       2.1      12.7      92.6      8.09
   07/02/2020 16:10      85.8      84.5       28     48.8      0.00      0.00      81.0     0.46      1013.1     2.4      SE   125   6.0      SE     125     265       409       1.7      12.4      92.6      8.10
   07/02/2020 16:00      86.0      85.3       28     49.0      0.00      0.00      80.9     0.45      1013.2     2.6     ENE    73   5.5     NNE      32     265       424       1.5      12.1      92.5      8.10
   07/02/2020 15:50      85.7      84.9       30     49.9      0.00      0.00      80.9     0.46      1013.2     2.8      NE    48   5.2     ENE      67     265       443       1.5      11.8      92.7      8.11
   07/02/2020 15:40      85.0      84.0       32     51.1      0.00      0.00      80.9     0.45      1013.3     2.9     ENE    60   6.5      NE      52     265       464       1.8      11.6      92.6      8.11
   07/02/2020 15:30      86.3      84.8       32     52.7      0.00      0.00      80.9     0.45      1013.4     3.2     ENE    68   7.5     ENE      64     265       475       1.9      11.3      92.3      8.12
   07/02/2020 15:20      85.7      85.1       33     53.4      0.00      0.00      80.8     0.45      1013.4     3.1      NE    46   6.2      NE      47     265       486       1.5      11.0      92.3      8.12
   07/02/2020 15:10      85.6      84.6       34     53.4      0.00      0.00      80.8     0.45      1013.5     1.9      NE    45   4.6       E      96     265       500       1.1      10.7      91.9      8.12
   07/02/2020 15:00      85.5      84.5       34     53.7      0.00      0.00      80.8     0.45      1013.5     2.4     NNE    20   4.9      NE      55     265       513       1.3      10.5      91.6      8.13
   07/02/2020 14:50      85.2      84.1       35     54.2      0.00      0.00      80.7     0.45      1013.6     2.0     NNE    14   6.2     ESE     108     265       523       1.0      10.3      91.2      8.13
   07/02/2020 14:40      85.1      83.5       36     54.6      0.00      0.00      80.7     0.45      1013.7     2.1     NNW   340   5.3      NE      40     265       536       1.3      10.2      90.6      8.13
   07/02/2020 14:30      85.4      83.3       37     55.2      0.00      0.00      80.6     0.45      1013.7     1.9     NNE    27   4.4     ENE      61     265       552       1.1       9.9      90.4      8.14
   07/02/2020 14:20      83.9      83.0       38     55.0      0.00      0.00      80.6     0.45      1013.8     1.2     WSW   248   3.5      SE     128     265       561       1.3       9.7      90.2      8.14
   07/02/2020 14:10      83.7      82.4       38     55.0      0.00      0.00      80.7     0.45      1013.9     1.7     NNE    25   4.9     NNW     337     265       567       0.7       9.5      89.8      8.14
   07/02/2020 14:00      84.1      81.9       38     55.4      0.00      0.00      80.6     0.45      1014.0     1.4      NE    48   4.5     ENE      69     265       572       1.3       9.4      89.2      8.14
   07/02/2020 13:50      82.5      81.1       40     55.3      0.00      0.00      80.6     0.45      1014.2     2.1     NNE    26   4.4      NE      47     265       582       1.4       9.2      88.6      8.14
   07/02/2020 13:40      81.3      80.0       42     55.2      0.00      0.00      80.5     0.45      1014.3     1.9     ENE    71   5.4     ENE      74     265       589       1.1       9.0      87.9      8.14
   07/02/2020 13:30      81.5      80.1       42     55.2      0.00      0.00      80.5     0.45      1014.4     2.2     NNE    23   4.3       E      88     265       598       1.2       8.8      87.5      8.15
   07/02/2020 13:20      80.5      79.4       43     55.1      0.00      0.00      80.5     0.45      1014.5     2.1      NE    44   5.5       N     354     265       596       1.3       8.6      86.8      8.15
   07/02/2020 13:10      80.2      79.0       43     55.2      0.00      0.00      80.5     0.45      1014.6     1.5     NNW   339   4.8     ENE      60     266       597       1.4       8.4      86.1      8.15
   07/02/2020 13:00      79.5      78.3       44     55.1      0.00      0.00      80.4     0.45      1014.6     1.6     NNE    20   4.2      NE      45     266       601       1.0       8.1      85.2      8.15
   07/02/2020 12:50      78.8      78.0       44     54.9      0.00      0.00      80.4     0.45      1014.7     1.8     ENE    63   4.2     ENE      77     266       603       1.4       8.0      84.5      8.16
   07/02/2020 12:40      78.6      77.5       45     54.8      0.00      0.00      80.4     0.45      1014.8     1.5     NNE    15   3.5      NE      35     265       602       0.8       7.7      83.6      8.16
   07/02/2020 12:30      78.7      77.2       45     54.9      0.00      0.00      80.3     0.45      1014.8     1.9      NE    34   5.8       E      80     265       600       1.4       7.6      82.8      8.16
   07/02/2020 12:20      77.5      75.7       47     54.9      0.00      0.00      80.3     0.45      1014.9     1.8     NNE    33   5.2     NNE      15     266       599       1.2       7.3      81.8      8.16
   07/02/2020 12:10      76.9      75.5       48     55.0      0.00      0.00      80.2     0.45      1014.9     2.6       E    90   7.1      SE     141     266       594       1.5       7.1      81.0      8.16
   07/02/2020 12:00      77.3      75.2       48     55.2      0.00      0.00      80.2     0.45      1015.0     1.7     NNE    17   4.3      NE      38     266       585       1.1       6.9      80.1      8.16
   07/02/2020 11:50      75.5      73.2       50     54.9      0.00      0.00      80.1     0.45      1015.0     1.7       E    85   4.0       E      90     266       580       1.3       6.7      79.1      8.16
   07/02/2020 11:40      74.6      73.3       51     54.8      0.00      0.00      80.1     0.45      1015.0     3.1     ESE   101   6.5     ESE     120     266       573       1.7       6.5      78.1      8.16
   07/02/2020 11:30      74.7      73.3       51     55.1      0.00      0.00      80.0     0.45      1015.1     2.6      NE    45   5.7       E      99     266       564       1.5       6.2      77.0      8.16
   07/02/2020 11:20      74.8      73.4       51     55.1      0.00      0.00      80.1     0.45      1015.1     1.7      NE    49   4.1     ENE      70     266       552       1.1       6.0      76.1      8.17
   07/02/2020 11:10      73.5      72.5       53     55.0      0.00      0.00      80.0     0.45      1015.1     1.8     NNE    11   4.9      NE      46     266       544       0.7       5.8      75.3      8.17
   07/02/2020 11:00      72.4      70.3       56     54.8      0.00      0.00      80.0     0.45      1015.1     2.0      NE    54   4.3       E      88     266       533       1.2       5.7      74.5      8.17
   07/02/2020 10:50      72.2      70.8       55     54.7      0.00      0.00      80.0     0.45      1015.1     2.4     ESE   107   4.8       E      93     266       521       1.5       5.5      73.7      8.17
   07/02/2020 10:40      71.9      70.8       56     54.7      0.00      0.00      79.9     0.45      1015.1     2.4     ENE    65   4.3      SE     140     266       505       1.3       5.2      72.9      8.17
   07/02/2020 10:30      71.2      68.8       58     54.4      0.00      0.00      79.9     0.45      1015.1     1.5       E    81   4.0       S     190     266       504       1.3       5.0      72.1      8.17
   07/02/2020 10:20      70.0      69.3       58     54.2      0.00      0.00      79.9     0.45      1015.0     2.8       E    81   5.5     ESE     113     266       495       1.4       4.8      71.5      8.17
   07/02/2020 10:10      69.9      68.5       59     54.3      0.00      0.00      80.0     0.45      1015.0     1.9      NE    55   5.3      NE      54     266       491       1.0       4.6      70.7      8.17
   07/02/2020 10:00      68.9      67.7       60     54.1      0.00      0.00      79.9     0.46      1014.9     1.5       S   172   4.6     SSE     165     267       477       1.0       4.4      69.9      8.17
   07/02/2020 09:50      67.6      66.7       63     54.0      0.00      0.00      80.0     0.46      1015.0     1.7     ESE   101   4.0     ESE     111     268       303       1.0       4.2      69.0      8.17
   07/02/2020 09:40      67.8      67.2       62     54.0      0.00      0.00      80.0     0.46      1015.0     2.7      SE   126   6.7      SE     125     268       384       1.8       4.1      68.8      8.17
   07/02/2020 09:30      67.3      66.0       64     54.1      0.00      0.00      79.9     0.46      1015.0     1.3     NNE    31   6.2     ENE      66     268       351       0.5       3.7      68.1      8.17
   07/02/2020 09:20      66.1      65.2       67     54.2      0.00      0.00      80.0     0.46      1015.0     1.2      NE    54   2.9       E      96     269       207       0.8       3.7      67.5      8.17
   07/02/2020 09:10      65.3      64.3       68     53.8      0.00      0.00      80.0     0.46      1015.0     1.7      SE   129   3.9     ENE      67     270       151       1.0       3.5      67.1      8.17
   07/02/2020 09:00      64.8      64.2       68     53.8      0.00      0.00      80.0     0.46      1015.0     2.0      SE   131   4.9       E      89     270       129       1.0       3.4      67.1      8.17
   07/02/2020 08:50      64.8      64.3       69     54.0      0.00      0.00      80.0     0.46      1015.0     2.4     ESE   109   4.9       E      98     270       141       1.2       3.2      66.8      8.17
   07/02/2020 08:40      64.3      63.7       70     54.0      0.00      0.00      80.0     0.46      1015.0     1.1      SE   143   3.0       E      99     270       114       0.6       3.0      66.6      8.17
   07/02/2020 08:30      63.9      63.6       70     54.0      0.00      0.00      80.0     0.46      1014.9     1.5     ESE   104   3.1     ESE     107     270        78       0.6       2.9      66.5      8.17
   07/02/2020 08:20      63.9      63.3       71     54.0      0.00      0.00      80.0     0.46      1014.9     2.1     ESE   119   4.7     SSE     160     270        72       1.1       2.8      66.4      8.17
   07/02/2020 08:10      63.9      63.4       71     54.2      0.00      0.00      80.1     0.46      1014.9     1.5     ESE   106   4.1     ENE      79     270        49       0.8       2.6      66.3      8.17
   07/02/2020 08:00      63.6      63.3       71     53.9      0.00      0.00      80.2     0.46      1014.8     1.6      SE   139   4.1      SE     143     270        44       0.9       2.5      66.3      8.17
   07/02/2020 07:50      63.7      63.3       72     54.1      0.00      0.00      80.2     0.46      1014.7     1.6     ESE   108   5.3      SE     136     271        46       0.8       2.3      66.3      8.17
   07/02/2020 07:40      63.5      62.9       71     53.8      0.00      0.00      80.1     0.46      1014.6     2.2      SE   125   4.0       E      94     271        37       0.7       2.2      66.3      8.17
   07/02/2020 07:30      63.3      62.9       71     53.6      0.00      0.00      80.2     0.46      1014.5     2.7     ESE   119   5.5      SE     145     271        32       1.3       2.1      66.2      8.17
   07/02/2020 07:20      63.3      62.6       73     53.9      0.00      0.00      80.2     0.46      1014.4     1.2     ESE   117   3.8     ESE     114     271        24       0.7       1.9      66.2      8.17
   07/02/2020 07:10      62.8      62.4       72     53.6      0.00      0.00      80.2     0.46      1014.3     2.5      SE   128   5.5     ESE     106     271        17       1.2       1.8      66.3      8.17
   07/02/2020 07:00      62.8      62.5       72     53.6      0.00      0.00      80.3     0.46      1014.2     2.6      SE   132   5.0      SE     137     271        14       1.0       1.6      66.3      8.17
   07/02/2020 06:50      62.7      62.3       73     53.6      0.00      0.00      80.3     0.46      1014.2     0.8     ESE   122   2.1     ENE      70     271         9       0.3       1.4      66.3      8.17
   07/02/2020 06:40      62.5      62.1       74     53.8      0.00      0.00      80.3     0.46      1014.2     1.4     ESE   112   3.3     ESE     105     271         3       0.4       1.3      66.2      8.17
   07/02/2020 06:30      62.6      62.2       75     54.3      0.00      0.00      80.4     0.46      1014.1     0.8     ENE    76   2.2     ENE      71     272        -4       0.1       1.2      66.3      8.17
   07/02/2020 06:20      62.5      62.1       75     54.2      0.00      0.00      80.4     0.46      1014.1     0.4     ESE   102   1.6     ESE     115     272        -8       0.0       1.2      66.3      8.17
   07/02/2020 06:10      62.3      62.0       75     54.2      0.00      0.00      80.4     0.46      1014.0     1.0     ESE   111   2.2      NE      55     272       -11       0.3       1.2      66.3      8.17
   07/02/2020 06:00      62.2      61.9       75     54.2      0.00      0.00      80.4     0.46      1013.9     0.6     ESE   106   2.3     ENE      71     272       -12       0.2       1.2      66.4      8.17
   07/02/2020 05:50      62.1      61.9       76     54.5      0.00      0.00      80.5     0.46      1013.8     0.3      SE   125   1.9      SE     126     272       -14       0.2       1.1      66.5      8.17
   07/02/2020 05:40      62.0      61.8       77     54.5      0.00      0.00      80.6     0.46      1013.8     0.2     ESE   102   1.1      SE     137     272       -14       0.0       1.1      66.5      8.17
   07/02/2020 05:30      62.0      61.6       77     54.5      0.00      0.00      80.6     0.46      1013.8     0.5      SE   142   1.9      SE     136     272       -14       0.0       1.1      66.6      8.17
   07/02/2020 05:20      61.8      61.5       77     54.6      0.00      0.00      80.5     0.46      1013.8     0.5       S   173   1.4     SSE     163     272       -14       0.3       1.1      66.7      8.17
   07/02/2020 05:10      62.0      61.4       78     54.6      0.00      0.00      80.6     0.46      1013.8     0.2     ESE   123   1.3     SSE     157     272       -14       0.0       1.1      66.7      8.17
   07/02/2020 05:00      61.7      61.3       78     54.4      0.00      0.00      80.6     0.46      1013.6     0.7       E    90   3.0      SE     137     272       -13       0.3       1.0      66.8      8.17
   07/02/2020 04:50      61.5      61.2       79     54.7      0.00      0.00      80.6     0.46      1013.6     1.5     ESE   105   5.2      SE     142     272       -13       0.6       1.0      66.9      8.17
   07/02/2020 04:40      61.3      60.9       81     55.0      0.00      0.00      80.7     0.46      1013.5     1.6      SE   126   3.3      SE     141     272       -13       0.6       0.9      67.0      8.18
   07/02/2020 04:30      61.0      60.8       82     55.4      0.00      0.00      80.9     0.46      1013.5     1.0       E    95   2.3      SE     135     272       -12       0.3       0.8      67.0      8.18
   07/02/2020 04:20      61.0      60.6       83     55.5      0.00      0.00      80.9     0.46      1013.4     1.1      SE   133   3.2      SE     143     273       -12       0.4       0.8      67.2      8.18
   07/02/2020 04:10      60.9      60.3       83     55.4      0.00      0.00      81.0     0.46      1013.5     1.4      SE   144   3.5      SE     126     272       -12       0.5       0.7      67.3      8.18
   07/02/2020 04:00      60.6      60.2       84     55.6      0.00      0.00      80.9     0.46      1013.4     1.6     ESE   119   4.0     SSE     158     273       -12       0.6       0.6      67.3      8.18
   07/02/2020 03:50      60.4      60.0       85     55.6      0.00      0.00      81.1     0.46      1013.4     1.1      SE   137   3.0      SE     128     273       -12       0.4       0.5      67.5      8.18
   07/02/2020 03:40      60.2      59.9       85     55.5      0.00      0.00      81.8     0.46      1013.4     1.5      SE   130   3.4     SSE     151     273       -12       0.6       0.4      68.3      8.18
   07/02/2020 03:30      60.2      59.8       85     55.3      0.00      0.00      81.9     0.46      1013.4     1.3     SSE   151   3.1      SE     137     273       -12       0.4       0.3      68.4      8.18
   07/02/2020 03:20      60.2      59.8       84     55.0      0.00      0.00      81.9     0.46      1013.4     2.0     ESE   121   4.3     ESE     120     273       -13       0.9       0.3      68.6      8.18
   07/02/2020 03:10      60.1      59.8       83     54.7      0.00      0.00      82.0     0.46      1013.4     1.0     SSE   153   2.6      SE     139     273       -13       0.2       0.1      68.7      8.18
   07/02/2020 03:00      60.0      59.5       83     54.5      0.00      0.00      82.0     0.46      1013.4     0.7     ESE   118   2.0     ESE     118     273       -13       0.3       0.0      68.8      8.18
   07/02/2020 02:50      59.7      59.2       83     54.4      0.00      0.00      81.9     0.46      1013.5     0.4       S   177   1.4     SSW     198     273       -13       0.1       0.0      68.9      8.18
   07/02/2020 02:40      59.3      58.7       85     54.5      0.00      0.00      81.4     0.46      1013.5     0.6     ESE   123   1.9      SE     125     273       -12       0.0       0.0      68.4      8.18
   07/02/2020 02:30      58.9      58.5       86     54.5      0.00      0.00      81.4     0.46      1013.4     0.2       E    84   1.9       E      86     273       -11       0.0       0.0      68.5      8.18
   07/02/2020 02:20      58.6      58.0       87     54.4      0.00      0.00      81.5     0.46      1013.4     0.0       N     0   0.0       E      91     274       -11       0.0       0.0      68.7      8.18
   07/02/2020 02:10      58.1      57.5       87     54.0      0.00      0.00      81.5     0.46      1013.4     0.0       E    90   1.0       E      92     266       -14       0.0       0.0      68.8      8.18
   07/02/2020 02:00      57.8      57.4       87     53.6      0.00      0.00      81.6     0.46      1013.4     0.0       N     0   0.0     SSE     168     233       -22       0.0       0.0      69.0      8.18
   07/02/2020 01:50      57.6      57.4       87     53.6      0.00      0.00      81.6     0.46      1013.5     0.0       N     0   0.0       S     174     232       -27       0.0       0.0      69.2      8.18
   07/02/2020 01:40      57.6      57.1       86     53.3      0.00      0.00      81.6     0.46      1013.5     0.2       S   189   1.0     SSW     200     233       -32       0.0       0.0      69.5      8.18
   07/02/2020 01:30      57.6      57.1       86     53.2      0.00      0.00      81.7     0.46      1013.5     0.2     SSE   168   0.7     SSE     168     232       -40       0.0       0.0      69.7      8.18
   07/02/2020 01:20      57.6      57.3       85     53.0      0.00      0.00      81.7     0.46      1013.6     0.2       S   173   0.9     SSE     164     230       -44       0.0       0.0      70.0      8.18
   07/02/2020 01:10      57.9      57.5       85     53.1      0.00      0.00      81.8     0.46      1013.6     0.1     SSE   153   0.7     SSE     157     230       -47       0.0       0.0      70.4      8.19
   07/02/2020 01:00      58.3      57.8       84     53.4      0.00      0.00      81.8     0.46      1013.6     0.4       S   184   0.9     SSW     203     230       -48       0.0       0.0      70.7      8.19
   07/02/2020 00:50      58.6      58.1       84     53.6      0.00      0.00      81.9     0.46      1013.5     0.0       S   190   0.6       S     175     232       -51       0.0       0.0      71.0      8.19
   07/02/2020 00:40      58.5      58.3       84     53.8      0.00      0.00      81.8     0.46      1013.5     0.1     SSW   193   1.1     SSW     198     245       -53       0.0       0.0      71.4      8.19
   07/02/2020 00:30      58.4      57.9       84     53.4      0.00      0.00      81.9     0.46      1013.5     0.5       S   184   1.5     SSW     198     253       -57       0.0       0.0      71.7      8.19
   07/02/2020 00:20      59.0      58.2       83     53.3      0.00      0.00      82.1     0.46      1013.4     0.3       S   187   1.1       S     189     255       -58       0.0       0.0      72.1      8.19
   07/02/2020 00:10      59.4      59.0       83     54.0      0.00      0.00      82.6     0.46      1013.3     0.3       S   173   0.8       S     173     253       -59       0.0       0.0      73.0      8.19
   07/02/2020 00:00      59.6      59.1       82     53.9      0.00      0.00      82.6     0.46      1013.3     0.4     SSW   198   1.2     SSW     197     266       -61       0.0      23.0      73.3      8.19
   07/01/2020 23:50      59.6      59.3       82     53.9      0.00      0.00      82.6     0.46      1013.3     1.0     SSW   197   1.9     SSW     205     270       -63       0.2      23.0      73.8      8.19
   07/01/2020 23:40      59.7      59.3       81     53.8      0.00      0.00      82.7     0.46      1013.3     0.1     SSE   168   0.7     SSE     165     268       -64       0.0      22.9      74.1      8.19
   07/01/2020 23:30      60.0      59.4       81     53.8      0.00      0.00      82.7     0.46      1013.2     0.0     SSE   165   0.4     SSE     165     270       -66       0.0      22.9      74.5      8.20
   07/01/2020 23:20      60.0      59.5       80     53.5      0.00      0.00      82.7     0.46      1013.2     0.2     SSE   164   0.6      SE     139     272       -67       0.0      22.9      74.8      8.20
   07/01/2020 23:10      60.3      59.5       78     53.0      0.00      0.00      82.7     0.46      1013.2     0.2     SSE   151   0.8     SSE     157     273       -69       0.0      22.9      75.2      8.20
   07/01/2020 23:00      60.7      60.2       78     53.7      0.00      0.00      82.7     0.46      1013.1     0.5       S   179   1.4       S     190     272       -68       0.0      22.9      75.6      8.20
   07/01/2020 22:50      61.3      60.3       77     53.5      0.00      0.00      82.8     0.46      1013.1     0.8     SSW   201   1.7     SSW     204     272       -67       0.0      22.9      76.0      8.20
   07/01/2020 22:40      62.0      61.2       76     53.9      0.00      0.00      82.7     0.46      1013.1     1.0     SSW   201   1.4      SW     228     271       -68       0.0      22.9      76.4      8.20
   07/01/2020 22:30      62.5      61.9       75     54.3      0.00      0.00      82.8     0.46      1013.1     1.1     SSW   210   1.8      SW     228     271       -69       0.2      22.9      76.8      8.20
   07/01/2020 22:20      62.9      62.2       75     54.4      0.00      0.00      82.7     0.46      1013.1     1.2       S   180   2.2       S     183     271       -71       0.3      22.9      77.1      8.21
   07/01/2020 22:10      63.3      62.8       74     54.5      0.00      0.00      82.8     0.46      1013.0     1.2     SSW   197   2.1      SW     221     271       -72       0.2      22.8      77.6      8.21
   07/01/2020 22:00      63.9      63.1       72     54.4      0.00      0.00      82.8     0.46      1012.9     1.1      SW   217   2.0      SW     221     270       -73       0.4      22.8      77.9      8.21
   07/01/2020 21:50      64.3      63.7       71     54.4      0.00      0.00      82.7     0.46      1012.7     0.3      SE   125   1.6       S     185     270       -75       0.0      22.7      78.3      8.21
   07/01/2020 21:40      64.8      64.2       70     54.5      0.00      0.00      82.7     0.46      1012.5     1.4     SSE   167   3.0       S     177     270       -76       0.4      22.7      78.7      8.21
   07/01/2020 21:30      65.4      64.8       69     54.6      0.00      0.00      82.7     0.46      1012.4     1.3       S   170   3.1       S     179     270       -76       0.5      22.7      79.1      8.21
   07/01/2020 21:20      65.9      65.3       68     54.6      0.00      0.00      82.7     0.46      1012.3     1.8       S   190   3.5     SSE     162     270       -76       0.9      22.6      79.5      8.21
   07/01/2020 21:10      66.2      65.7       66     54.4      0.00      0.00      82.7     0.46      1012.1     1.5       S   175   3.0       S     177     269       -78       0.9      22.4      80.0      8.22
   07/01/2020 21:00      67.0      66.2       65     54.3      0.00      0.00      82.6     0.46      1012.0     0.7     SSE   161   1.7       S     178     269       -78       0.0      22.3      80.4      8.22
   07/01/2020 20:50      67.5      66.8       63     54.1      0.00      0.00      82.6     0.46      1011.9     0.2       S   180   0.8     SSW     199     269       -78       0.0      22.3      80.8      8.22
   07/01/2020 20:40      68.2      67.3       61     53.8      0.00      0.00      82.6     0.46      1011.8     1.0       S   173   1.9       S     179     269       -79       0.0      22.3      81.2      8.22
   07/01/2020 20:30      69.2      68.1       59     53.6      0.00      0.00      82.5     0.46      1011.7     0.4      SE   145   1.2      SE     126     268       -80       0.0      22.3      81.7      8.22
   07/01/2020 20:20      69.9      69.2       58     53.9      0.00      0.00      82.4     0.46      1011.6     0.8     ESE   118   2.1     ESE     114     268       -81       0.5      22.3      82.2      8.23
   07/01/2020 20:10      70.9      69.8       56     54.1      0.00      0.00      82.4     0.46      1011.6     1.3      SE   139   3.1     SSE     155     268       -80       0.7      22.2      82.7      8.23
   07/01/2020 20:00      72.0      70.9       54     54.2      0.00      0.00      82.3     0.46      1011.5     0.8       S   170   2.8     SSW     213     268       -76       0.3      22.1      83.2      8.23
   07/01/2020 19:50      72.5      71.9       53     54.4      0.00      0.00      82.2     0.46      1011.4     0.6     SSE   153   2.1      SE     143     268       -72       0.2      22.0      83.6      8.23
   07/01/2020 19:40      72.8      72.4       52     54.2      0.00      0.00      82.2     0.46      1011.4     1.6       S   187   3.0     SSW     207     268       -58       0.7      22.0      84.0      8.24
   07/01/2020 19:30      72.9      72.3       52     54.3      0.00      0.00      82.0     0.46      1011.4     2.5     SSW   196   3.8      SW     214     268       -39       1.5      21.9      84.4      8.24
   07/01/2020 19:20      73.2      72.4       52     54.4      0.00      0.00      82.0     0.46      1011.3     3.3       S   188   4.6       S     172     268       -20       2.0      21.6      84.8      8.24
   07/01/2020 19:10      74.0      73.1       52     54.6      0.00      0.00      81.9     0.46      1011.3     2.8       S   170   5.1     SSE     151     267         0       1.6      21.3      85.2      8.25
   07/01/2020 19:00      74.4      73.7       51     54.6      0.00      0.00      81.7     0.46      1011.2     3.1       S   176   5.7       S     170     267        23       2.1      21.0      85.6      8.25
   07/01/2020 18:50      75.4      74.3       49     54.8      0.00      0.00      81.7     0.46      1011.2     3.3       S   172   5.9       S     174     267        46       1.9      20.6      86.0      8.25
   07/01/2020 18:40      75.5      75.2       49     54.8      0.00      0.00      81.5     0.46      1011.2     3.0       S   183   6.0       S     170     267        70       1.8      20.3      86.2      8.26
   07/01/2020 18:30      76.1      75.3       48     54.9      0.00      0.00      81.4     0.46      1011.1     3.7       S   189   7.1      SW     231     267        94       2.3      20.0      86.5      8.26
   07/01/2020 18:20      76.3      75.7       49     55.2      0.00      0.00      81.3     0.46      1011.0     3.7     SSW   192   7.4       S     190     267       119       2.5      19.6      86.9      8.27
   07/01/2020 18:10      78.3      76.4       46     55.5      0.00      0.00      81.2     0.46      1011.0     3.7      SW   218   7.9     SSW     214     267       144       2.6      19.2      86.9      8.27
   07/01/2020 18:00      79.0      78.1       46     55.9      0.00      0.00      81.0     0.46      1011.1     1.6     SSW   192   5.1     SSW     209     266       167       1.0      18.8      87.0      8.27
   07/01/2020 17:50      78.6      77.5       46     55.8      0.00      0.00      80.9     0.46      1011.1     2.5       S   189   5.4     SSE     149     266       194       1.6      18.6      87.2      8.27
   07/01/2020 17:40      79.8      78.5       44     55.7      0.00      0.00      80.6     0.46      1011.1     2.6     SSE   168   5.2       S     175     266       219       1.6      18.4      87.0      8.28
   07/01/2020 17:30      79.5      78.5       45     55.9      0.00      0.00      80.5     0.46      1011.1     2.3     ESE   109   5.5       E      87     266       242       1.5      18.1      87.0      8.28
   07/01/2020 17:20      79.0      78.5       46     56.1      0.00      0.00      80.3     0.46      1011.1     3.0      SE   138   7.3     SSE     149     266       266       1.9      17.8      87.0      8.28
   07/01/2020 17:10      79.3      78.5       45     56.1      0.00      0.00      80.3     0.46      1011.2     3.8     SSE   149   6.8     ESE     123     266       288       1.8      17.5      86.9      8.29
   07/01/2020 17:00      81.5      79.3       44     56.5      0.00      0.00      80.2     0.46      1011.2     3.1     SSE   147   7.5     ESE     111     266       309       2.0      17.2      86.7      8.29
   07/01/2020 16:50      82.1      81.3       42     56.6      0.00      0.00      80.0     0.46      1011.2     1.9       E    93   4.9       E      93     266       329       1.3      16.9      86.6      8.29
   07/01/2020 16:40      82.3      81.3       42     56.3      0.00      0.00      79.8     0.46      1011.3     2.5      NE    48   6.4      NE      45     266       349       1.5      16.7      86.5      8.29
   07/01/2020 16:30      82.0      81.1       41     55.6      0.00      0.00      79.8     0.46      1011.3     2.0      NE    36   3.7     NNE      21     266       368       0.9      16.4      86.3      8.30
   07/01/2020 16:20      82.2      81.2       41     55.5      0.00      0.00      79.7     0.46      1011.4     2.2      NE    48   4.1       E      96     266       389       1.4      16.3      86.0      8.30
   07/01/2020 16:10      81.2      80.4       42     55.7      0.00      0.00      79.7     0.46      1011.5     1.8      NE    42   4.4     NNE      33     266       409       1.1      16.1      85.7      8.30
   07/01/2020 16:00      81.6      80.2       42     55.9      0.00      0.00      79.6     0.46      1011.6     2.5       E    80   6.2     ESE     123     266       429       1.5      15.9      85.6      8.31
   07/01/2020 15:50      81.9      81.1       42     56.2      0.00      0.00      79.6     0.46      1011.7     1.9      NE    51   4.8      NE      36     266       446       1.3      15.6      85.1      8.31
   07/01/2020 15:40      81.3      80.6       42     56.1      0.00      0.00      79.5     0.46      1011.8     1.5       N   360   4.4      NE      38     266       464       0.9      15.4      84.9      8.31
   07/01/2020 15:30      81.0      80.1       43     56.3      0.00      0.00      79.5     0.46      1012.0     2.4      NE    36   5.9     ESE     109     266       484       1.1      15.3      84.4      8.31
   07/01/2020 15:20      81.0      80.0       43     56.2      0.00      0.00      79.5     0.46      1012.2     2.2       N   355   5.7       N       7     266       497       1.3      15.1      84.0      8.31
   07/01/2020 15:10      80.8      79.4       44     56.1      0.00      0.00      79.4     0.46      1012.3     1.7      NW   316   4.1     WSW     257     266       513       1.7      14.8      83.4      8.31
   07/01/2020 15:00      79.7      78.2       45     56.0      0.00      0.00      79.4     0.46      1012.5     2.2     NNE    27   5.0       N       2     266       527       1.2      14.6      83.0      8.32
   07/01/2020 14:50      78.3      77.3       47     55.8      0.00      0.00      79.4     0.46      1012.6     2.2      SE   140   4.7     SSE     169     267       543       1.6      14.4      82.4      8.32
   07/01/2020 14:40      78.9      77.7       46     55.8      0.00      0.00      79.3     0.46      1012.7     2.2       E   101   7.0     SSE     147     266       554       1.3      14.1      81.6      8.32
   07/01/2020 14:30      78.5      77.5       46     55.8      0.00      0.00      79.4     0.45      1012.8     2.5     ENE    75   5.2       E      92     267       565       1.7      13.9      81.1      8.32
   07/01/2020 14:20      78.7      76.3       47     55.8      0.00      0.00      79.4     0.45      1012.9     2.0     NNE    33   6.8     ENE      63     266       576       1.5      13.6      80.6      8.32
   07/01/2020 14:10      78.8      76.3       46     55.5      0.00      0.00      79.4     0.45      1013.0     2.7       W   265   5.6       W     259     267       586       2.5      13.4      79.9      8.32
   07/01/2020 14:00      77.4      74.2       50     55.5      0.00      0.00      79.4     0.46      1013.2     2.0       E   101   7.3      SE     141     267       593       1.3      12.9      79.3      8.33
   07/01/2020 13:50      77.8      74.6       49     55.6      0.00      0.00      79.4     0.45      1013.4     3.5       E   100   7.3     SSE     162     266       601       1.9      12.7      78.5      8.33
   07/01/2020 13:40      77.5      75.5       49     55.9      0.00      0.00      79.4     0.45      1013.5     1.4     NNE    33   4.3     NNE      29     266       604       0.8      12.4      77.7      8.33
   07/01/2020 13:30      75.7      74.4       51     55.6      0.00      0.00      79.5     0.45      1013.6     1.4     NNW   334   4.3     NNE      30     266       609       0.7      12.3      76.7      8.33
   07/01/2020 13:20      75.2      73.9       52     55.5      0.00      0.00      79.5     0.46      1013.7     2.5      NE    43   4.8       E      96     266       616       1.3      12.2      75.8      8.33
   07/01/2020 13:10      74.4      73.1       53     55.7      0.00      0.00      79.6     0.46      1013.8     1.7      NE    43   5.5      NE      53     266       611       1.3      11.9      74.9      8.33
   07/01/2020 13:00      73.5      72.5       54     55.7      0.00      0.00      79.5     0.46      1013.9     1.8     NNE    19   4.7     NNE      15     266       617       1.1      11.7      73.9      8.33
   07/01/2020 12:50      72.7      71.1       56     55.8      0.00      0.00      79.5     0.46      1014.0     2.3      NE    51   4.6     NNE      12     267       654       1.5      11.6      73.2      8.33
   07/01/2020 12:40      71.4      69.7       60     55.5      0.00      0.00      79.6     0.46      1014.0     1.9     SSE   149   4.2      NE      51     267       576       1.1      11.3      72.0      8.33
   07/01/2020 12:30      70.2      69.1       61     55.5      0.00      0.00      79.6     0.46      1014.0     2.0      SE   144   5.6       E      84     268       362       1.4      11.1      71.1      8.33
   07/01/2020 12:20      70.0      68.8       61     55.5      0.00      0.00      79.7     0.46      1014.1     1.7     ESE   113   4.6     ESE     104     268       300       1.1      10.9      70.8      8.33
   07/01/2020 12:10      69.4      68.5       62     55.5      0.00      0.00      79.7     0.46      1014.1     1.9     ESE   112   4.8      SE     138     268       264       1.2      10.7      70.3      8.33
   07/01/2020 12:00      68.7      67.9       63     55.3      0.00      0.00      79.8     0.46      1014.1     1.7       E    85   3.8      NE      45     268       219       0.9      10.5      70.0      8.33
   07/01/2020 11:50      68.0      67.3       65     55.3      0.00      0.00      79.8     0.46      1014.0     2.0     ESE   108   4.8     SSE     149     268       237       1.3      10.3      69.8      8.33
   07/01/2020 11:40      67.4      66.6       66     55.3      0.00      0.00      79.8     0.46      1014.0     1.7       E   101   4.2     ENE      71     268       214       1.0      10.1      69.6      8.33
   07/01/2020 11:30      68.3      66.7       65     55.3      0.00      0.00      79.8     0.46      1014.0     3.0     ESE   107   6.7      SE     132     268       278       1.3      10.0      69.4      8.33
   07/01/2020 11:20      67.9      66.4       66     55.3      0.00      0.00      80.0     0.46      1014.1     1.5     ENE    61   3.7      NE      49     268       233       0.7       9.8      69.0      8.33
   07/01/2020 11:10      67.0      66.4       66     55.1      0.00      0.00      79.6     0.46      1014.1     2.0       E    89   4.5      SE     128     269       196       1.2       9.6      68.3      8.33
   07/01/2020 11:00      67.2      65.7       66     55.0      0.00      0.00      79.6     0.46      1014.0     1.3      NE    53   3.7       E      88     269       196       0.6       9.4      67.9      8.33
   07/01/2020 10:50      66.1      65.3       68     54.8      0.00      0.00      79.7     0.46      1014.1     1.9       S   175   5.2      SE     127     269       193       1.3       9.3      67.8      8.33
   07/01/2020 10:40      65.5      65.2       69     54.8      0.00      0.00      79.7     0.46      1014.1     1.9      SE   136   4.9      SE     134     270       178       1.2       9.1      67.5      8.33
   07/01/2020 10:30      65.3      64.3       71     55.0      0.00      0.00      79.6     0.46      1014.1     1.7       E    91   3.2       S     177     270       169       0.9       8.9      67.4      8.33
   07/01/2020 10:20      64.9      64.2       71     55.1      0.00      0.00      79.7     0.46      1014.1     2.1      SE   146   5.2     SSW     207     270       122       1.4       8.8      67.1      8.33
   07/01/2020 10:10      64.6      63.9       72     55.0      0.00      0.00      79.8     0.46      1014.1     1.1      SE   132   2.5       S     183     270        88       0.7       8.6      67.0      8.33
   07/01/2020 10:00      64.1      63.7       72     54.9      0.00      0.00      79.8     0.46      1014.1     2.3      SE   143   4.3       E      97     270        94       1.3       8.4      66.9      8.33
   07/01/2020 09:50      64.2      63.9       71     54.6      0.00      0.00      79.9     0.46      1014.0     1.6      SE   135   4.2      SE     128     270        88       0.9       8.2      66.9      8.34
   07/01/2020 09:40      64.0      63.7       71     54.4      0.00      0.00      79.9     0.46      1014.0     1.3     ESE   103   3.5       E      95     270        88       0.5       8.1      66.8      8.34
   07/01/2020 09:30      64.2      63.4       71     54.4      0.00      0.00      79.9     0.46      1014.0     1.6     ESE   106   4.1     ENE      71     270        96       0.8       8.0      66.8      8.34
   07/01/2020 09:20      64.1      63.6       71     54.3      0.00      0.00      80.0     0.46      1013.8     2.2     ESE   104   5.2      SE     141     270        96       1.0       7.8      66.7      8.34
   07/01/2020 09:10      63.7      63.3       72     54.1      0.00      0.00      80.1     0.46      1013.8     2.3      SE   124   4.5      SE     130     270       103       1.1       7.7      66.6      8.34
   07/01/2020 09:00      63.4      62.8       72     53.8      0.00      0.00      80.0     0.46      1013.8     1.9      SE   141   5.1     SSW     203     270       103       0.8       7.5      66.5      8.34
   07/01/2020 08:50      63.5      62.8       72     53.9      0.00      0.00      80.1     0.46      1013.8     2.6     ESE   121   6.0      SE     144     270       104       1.3       7.3      66.4      8.34
   07/01/2020 08:40      63.3      62.9       72     54.0      0.00      0.00      80.1     0.46      1013.7     2.8     ESE   117   6.4     ESE     123     270        90       1.5       7.1      66.4      8.34
   07/01/2020 08:30      63.2      62.8       73     54.1      0.00      0.00      80.2     0.46      1013.7     2.5     ESE   118   5.4     SSE     147     270        79       1.2       6.9      66.3      8.34
   07/01/2020 08:20      62.9      62.5       74     54.2      0.00      0.00      80.2     0.46      1013.6     1.9     ESE   111   4.0     WSW     258     270        65       1.0       6.7      66.3      8.34
   07/01/2020 08:10      62.7      61.8       75     54.3      0.00      0.00      80.3     0.46      1013.5     1.3     ESE   114   4.7      SE     139     270        55       0.5       6.5      66.2      8.34
   07/01/2020 08:00      62.0      61.5       76     54.2      0.00      0.00      80.3     0.46      1013.5     1.8      SE   139   3.9       S     188     271        46       0.8       6.5      66.2      8.34
   07/01/2020 07:50      61.9      61.3       77     54.2      0.00      0.00      80.4     0.46      1013.4     2.1     SSE   147   3.6      SE     146     271        43       1.0       6.3      66.2      8.34
   07/01/2020 07:40      61.5      60.9       77     54.3      0.00      0.00      80.7     0.46      1013.3     1.7     ESE   116   5.0      SE     132     271        36       0.7       6.2      66.5      8.34
   07/01/2020 07:30      61.2      60.8       78     54.1      0.00      0.00      80.8     0.46      1013.2     2.3      SE   134   4.7       S     175     271        31       1.1       6.0      66.7      8.34
   07/01/2020 07:20      61.2      60.9       78     54.2      0.00      0.00      80.9     0.46      1013.2     2.1      SE   135   4.4      SE     131     271        23       0.9       5.9      66.7      8.34
   07/01/2020 07:10      61.0      60.7       79     54.2      0.00      0.00      81.0     0.46      1013.1     2.2     SSE   149   4.4      SE     136     272        15       1.1       5.7      66.7      8.34
   07/01/2020 07:00      60.9      60.4       79     54.0      0.00      0.00      81.0     0.46      1013.1     1.5     ESE   112   3.9       E      97     272         8       0.9       5.5      66.8      8.34
   07/01/2020 06:50      60.6      60.3       79     53.9      0.00      0.00      81.0     0.46      1013.0     1.9     SSE   154   4.4     SSE     150     272         2       1.1       5.4      66.8      8.34
   07/01/2020 06:40      60.7      60.3       79     53.8      0.00      0.00      81.1     0.46      1013.0     1.3      SE   137   4.4      SE     131     272        -2       0.6       5.2      66.9      8.34
   07/01/2020 06:30      60.5      60.2       79     53.8      0.00      0.00      81.1     0.46      1012.9     1.2      SE   144   2.4      SE     134     272        -5       0.3       5.1      67.0      8.34
   07/01/2020 06:20      60.3      59.9       79     53.7      0.00      0.00      81.1     0.46      1012.9     1.7      SE   129   3.5     ESE     121     272        -8       0.7       5.0      67.0      8.34
   07/01/2020 06:10      60.2      59.9       79     53.6      0.00      0.00      81.2     0.46      1012.8     2.0       S   171   3.8     SSE     161     272       -10       1.2       4.9      67.1      8.34
   07/01/2020 06:00      60.1      59.8       79     53.5      0.00      0.00      81.2     0.46      1012.8     1.9     SSE   153   3.8     SSW     208     272       -12       0.7       4.7      67.3      8.34
   07/01/2020 05:50      60.1      59.7       80     53.6      0.00      0.00      81.2     0.46      1012.8     1.9      SE   144   3.5       S     173     272       -13       1.2       4.6      67.4      8.34
   07/01/2020 05:40      60.1      59.8       79     53.6      0.00      0.00      81.3     0.46      1012.8     2.4      SE   127   5.4      SE     136     272       -14       1.1       4.4      67.6      8.35
   07/01/2020 05:30      60.3      59.8       79     53.6      0.00      0.00      81.3     0.46      1012.7     2.5      SE   136   4.6      SE     135     272       -14       1.0       4.2      67.8      8.35
   07/01/2020 05:20      60.4      60.0       80     54.1      0.00      0.00      81.3     0.46      1012.6     2.1      SE   135   3.8       E      94     272       -14       1.1       4.1      67.9      8.35
   07/01/2020 05:10      60.5      60.3       80     54.3      0.00      0.00      81.6     0.46      1012.7     1.2     ESE   113   2.8     SSE     161     272       -14       0.7       3.9      68.0      8.35
   07/01/2020 05:00      60.5      60.3       80     54.4      0.00      0.00      81.7     0.46      1012.6     1.2     ENE    77   3.4       E      80     272       -14       0.6       3.8      68.2      8.35
   07/01/2020 04:50      60.5      60.1       81     54.5      0.00      0.00      81.7     0.46      1012.6     0.8     ENE    74   3.4       E      95     272       -14       0.2       3.7      68.3      8.35
   07/01/2020 04:40      60.5      59.8       81     54.4      0.00      0.00      81.8     0.46      1012.7     1.5     ENE    67   2.8      SE     133     272       -14       0.6       3.6      68.5      8.35
   07/01/2020 04:30      60.0      59.7       82     54.2      0.00      0.00      81.8     0.47      1012.7     0.7      SE   127   2.3      SE     143     272       -14       0.2       3.5      68.6      8.35
   07/01/2020 04:20      59.9      59.4       82     54.1      0.00      0.00      81.9     0.47      1012.7     0.6      SE   129   2.3      SE     137     272       -14       0.0       3.5      68.8      8.35
   07/01/2020 04:10      59.8      59.4       82     54.1      0.00      0.00      81.9     0.47      1012.8     2.0      SE   127   3.7      SE     138     272       -14       0.9       3.5      68.9      8.35
   07/01/2020 04:00      59.8      59.4       83     54.3      0.00      0.00      82.0     0.47      1012.8     1.3     SSE   164   3.1      SE     133     272       -14       0.8       3.3      69.1      8.35
   07/01/2020 03:50      59.6      59.3       83     54.3      0.00      0.00      82.0     0.47      1012.8     1.0     SSE   165   2.9      SE     144     272       -14       0.5       3.2      69.3      8.35
   07/01/2020 03:40      59.5      59.3       83     54.3      0.00      0.00      82.0     0.47      1012.7     1.8     SSE   164   3.0       S     184     272       -14       0.9       3.1      69.3      8.35
   07/01/2020 03:30      59.6      59.3       83     54.3      0.00      0.00      81.5     0.47      1012.7     1.6      SE   130   3.1     ESE     117     272       -14       0.8       3.0      69.3      8.35
   07/01/2020 03:20      59.6      59.3       83     54.3      0.00      0.00      81.6     0.47      1012.8     1.5     SSE   147   2.8      SE     132     272       -15       0.7       2.8      69.4      8.35
   07/01/2020 03:10      59.5      59.3       83     54.4      0.00      0.00      81.6     0.47      1012.8     1.4     SSE   157   3.0      SE     129     272       -15       0.8       2.7      69.6      8.35
   07/01/2020 03:00      59.6      59.3       84     54.5      0.00      0.00      81.7     0.47      1012.8     1.5       S   176   3.4     SSE     167     272       -15       1.0       2.6      69.8      8.35
   07/01/2020 02:50      59.6      59.3       84     54.4      0.00      0.00      81.6     0.47      1012.9     2.2       S   171   3.7     SSW     203     272       -15       1.3       2.4      70.0      8.36
   07/01/2020 02:40      59.7      59.3       82     54.2      0.00      0.00      81.7     0.47      1013.0     1.9      SE   136   3.8      SE     140     272       -15       0.9       2.2      70.3      8.36
   07/01/2020 02:30      59.6      59.3       82     54.1      0.00      0.00      81.7     0.47      1013.1     0.8      SE   125   2.1       E      95     272       -15       0.3       2.1      70.5      8.36
   07/01/2020 02:20      59.5      59.3       82     53.9      0.00      0.00      81.8     0.47      1013.1     1.4      SE   131   3.7      SE     127     272       -15       0.6       2.0      70.7      8.36
   07/01/2020 02:10      59.6      59.2       82     53.9      0.00      0.00      81.9     0.47      1013.1     1.5     SSE   160   3.1       S     183     272       -15       0.6       1.9      70.8      8.36
   07/01/2020 02:00      59.5      59.1       83     54.1      0.00      0.00      81.9     0.47      1013.1     1.4     SSE   151   3.1      SE     131     272       -15       0.7       1.8      71.1      8.36
   07/01/2020 01:50      59.3      58.9       84     54.4      0.00      0.00      82.0     0.47      1013.1     1.8     SSE   161   3.4     SSE     161     272       -15       0.8       1.7      71.4      8.36
   07/01/2020 01:40      59.1      58.7       85     54.5      0.00      0.00      82.0     0.47      1013.2     1.0     SSW   200   2.7       S     178     272       -15       0.4       1.5      71.5      8.36
   07/01/2020 01:30      58.9      58.6       85     54.4      0.00      0.00      82.0     0.47      1013.4     2.2       S   191   3.2       S     174     272       -15       1.4       1.5      71.8      8.36
   07/01/2020 01:20      58.9      58.6       85     54.3      0.00      0.00      82.1     0.47      1013.4     2.3     SSW   191   3.7       S     185     272       -15       1.5       1.2      72.0      8.36
   07/01/2020 01:10      59.2      58.7       85     54.4      0.00      0.00      82.2     0.47      1013.4     2.1       S   184   3.8       S     183     272       -16       1.1       1.0      72.3      8.36
   07/01/2020 01:00      59.6      59.0       84     54.6      0.00      0.00      82.2     0.47      1013.5     2.1     SSE   162   4.1       S     188     272       -15       1.0       0.8      72.6      8.36
   07/01/2020 00:50      59.8      59.5       84     54.6      0.00      0.00      82.2     0.47      1013.5     1.6      SE   138   4.7     ESE     123     272       -16       0.9       0.7      72.8      8.37
   07/01/2020 00:40      60.0      59.5       83     54.5      0.00      0.00      82.3     0.47      1013.5     1.9     SSE   150   3.6      SE     136     272       -16       1.0       0.5      73.1      8.37
   07/01/2020 00:30      60.5      59.9       83     55.0      0.00      0.00      82.3     0.47      1013.5     1.8       E    98   3.1       E     100     272       -18       0.8       0.3      73.3      8.37
   07/01/2020 00:20      60.5      60.3       83     55.3      0.00      0.00      82.3     0.47      1013.5     1.3      NE    52   3.1     ENE      66     272       -17       0.5       0.2      73.6      8.37
   07/01/2020 00:10      60.5      60.2       83     55.4      0.00      0.00      82.3     0.47      1013.5     1.9     ENE    67   4.0     ENE      62     272       -17       0.7       0.1      73.9      8.37
   07/01/2020 00:00      61.0      60.4       83     55.5      0.00     17.48      82.3     0.47      1013.6     1.7     ENE    73   5.2       E      92     272       -16       0.8      15.9      74.1      8.37
   06/30/2020 23:50      60.9      60.5       83     55.6      0.00     17.48      82.3     0.47      1013.6     1.4      NE    51   2.7     ENE      66     272       -18       0.5      15.8      74.5      8.37
   06/30/2020 23:40      60.7      60.2       84     55.7      0.00     17.48      82.4     0.47      1013.6     1.6      NE    49   3.1     NNE      32     272       -18       0.3      15.7      74.8      8.37
   06/30/2020 23:30      60.4      59.9       85     55.5      0.00     17.48      82.4     0.47      1013.5     1.2      NE    53   4.0      NE      41     273       -49       0.4      15.6      75.2      8.37
   06/30/2020 23:20      60.4      59.9       85     55.5      0.00     17.48      82.5     0.47      1013.5     1.1     ENE    63   2.2     ENE      68     262       -69       0.4      15.6      75.6      8.38
   06/30/2020 23:10      60.7      60.2       84     55.5      0.00     17.48      82.4     0.47      1013.5     1.6     ENE    72   4.1     ENE      76     267       -71       0.8      15.5      76.1      8.38
   06/30/2020 23:00      61.1      60.5       83     55.5      0.00     17.48      82.6     0.47      1013.6     1.6     ENE    59   4.2     ENE      75     270       -71       0.5      15.3      76.5      8.38
   06/30/2020 22:50      61.4      60.9       82     55.6      0.00     17.48      82.6     0.47      1013.6     1.4     ENE    61   3.5     ESE     111     271       -72       0.5      15.3      77.0      8.38
   06/30/2020 22:40      61.6      61.2       81     55.5      0.00     17.48      82.5     0.47      1013.6     1.3     ENE    63   2.4      SE     138     272       -72       0.6      15.2      77.5      8.38
   06/30/2020 22:30      62.0      61.5       80     55.5      0.00     17.48      82.5     0.47      1013.6     1.0     ENE    59   2.3     ENE      70     272       -73       0.4      15.1      78.0      8.38
   06/30/2020 22:20      62.2      61.8       79     55.6      0.00     17.48      82.5     0.47      1013.5     1.1      NE    48   2.4      NE      43     272       -74       0.2      15.0      78.3      8.39
   06/30/2020 22:10      62.6      62.0       79     55.6      0.00     17.48      82.6     0.47      1013.5     1.1     ENE    58   3.4       E      79     272       -74       0.5      15.0      78.8      8.39
   06/30/2020 22:00      62.8      62.3       78     55.6      0.00     17.48      82.5     0.47      1013.5     1.1     ENE    60   3.1     ENE      67     271       -74       0.3      14.9      79.3      8.39
   06/30/2020 21:50      63.2      62.6       77     55.6      0.00     17.48      82.6     0.47      1013.3     1.3     ENE    65   2.6     ESE     115     271       -75       0.4      14.8      79.8      8.39
   06/30/2020 21:40      63.7      63.1       76     55.6      0.00     17.48      82.5     0.47      1013.1     0.6     ENE    76   2.5      NE      42     271       -76       0.4      14.8      80.3      8.39
   06/30/2020 21:30      64.5      63.7       75     55.7      0.00     17.48      82.5     0.47      1013.0     1.1     ENE    62   3.4     ENE      74     270       -77       0.3      14.7      80.7      8.40
   06/30/2020 21:20      65.0      64.2       73     55.8      0.00     17.48      82.5     0.47      1012.9     1.6      NE    56   3.4      NE      44     270       -78       0.7      14.7      81.4      8.40
   06/30/2020 21:10      65.7      65.0       71     55.8      0.00     17.48      82.5     0.47      1012.7     1.2     ENE    58   2.3      NE      47     270       -79       0.3      14.5      81.9      8.40
   06/30/2020 21:00      66.4      65.8       70     55.9      0.00     17.48      82.4     0.47      1012.6     1.4      NE    39   3.8      NE      46     269       -80       0.4      14.5      82.4      8.40
   06/30/2020 20:50      67.0      66.3       68     55.9      0.00     17.48      82.7     0.47      1012.4     1.2      NE    47   2.8      NE      53     269       -81       0.4      14.4      83.1      8.41
   06/30/2020 20:40      67.8      66.8       67     55.9      0.00     17.48      83.0     0.47      1012.3     1.6      NE    51   3.2      NE      43     269       -82       0.6      14.4      83.9      8.41
   06/30/2020 20:30      69.0      67.6       65     55.9      0.00     17.48      82.9     0.47      1012.2     1.7     ENE    66   3.5      NE      36     268       -83       0.7      14.3      84.5      8.42
   06/30/2020 20:20      70.1      69.0       62     56.0      0.00     17.48      82.8     0.47      1012.1     1.4      NE    53   3.4      NE      48     268       -84       0.4      14.2      85.1      8.42
   06/30/2020 20:10      71.4      70.1       60     56.2      0.00     17.48      82.8     0.47      1011.9     1.8      NE    48   3.2     NNE      32     268       -82       0.7      14.1      85.6      8.42
   06/30/2020 20:00      72.8      71.3       58     56.3      0.00     17.48      82.7     0.47      1011.8     1.3     ENE    56   2.5     NNE      27     268       -79       0.4      14.0      86.2      8.43
   06/30/2020 19:50      74.0      72.6       56     56.5      0.00     17.48      82.6     0.47      1011.7     1.5      NE    41   3.0      NE      43     268       -75       0.3      13.9      86.9      8.43
   06/30/2020 19:40      74.8      73.9       54     56.5      0.00     17.48      82.5     0.47      1011.6     1.5      NE    56   3.0       E      80     267       -63       0.4      13.9      87.4      8.43
   06/30/2020 19:30      75.7      74.8       52     56.5      0.00     17.48      82.4     0.47      1011.6     1.4      NE    42   3.1      NE      56     267       -45       0.3      13.8      87.8      8.44
   06/30/2020 19:20      76.6      75.7       51     56.7      0.00     17.48      82.3     0.47      1011.4     1.8      NE    46   3.4     ENE      68     267       -27       0.5      13.7      88.3      8.44
   06/30/2020 19:10      77.5      76.4       50     56.8      0.00     17.48      82.2     0.47      1011.4     1.6     ENE    57   3.7       E      93     267        -7       0.9      13.7      88.7      8.44
   06/30/2020 19:00      78.5      77.5       48     56.9      0.00     17.48      82.0     0.46      1011.3     1.4      NE    50   3.1       E      98     266        15       0.5      13.5      89.1      8.45
   06/30/2020 18:50      79.7      78.4       47     57.1      0.00     17.48      81.9     0.46      1011.2     1.7     NNE    27   3.2     ENE      69     266        37       0.7      13.4      89.4      8.45
   06/30/2020 18:40      82.0      79.7       44     56.8      0.00     17.48      81.7     0.46      1011.2     1.7     NNE    23   3.6     NNE      21     266        61       0.8      13.3      89.7      8.45
   06/30/2020 18:30      83.0      81.9       39     55.2      0.00     17.48      81.6     0.46      1011.1     1.2      NW   321   4.2      NW     326     265        86       0.9      13.2      89.9      8.46
   06/30/2020 18:20      82.8      82.4       39     55.0      0.00     17.48      81.4     0.46      1011.1     1.2      NW   325   3.6       W     276     265       110       0.6      13.0      90.1      8.46
   06/30/2020 18:10      83.2      82.4       38     54.5      0.00     17.48      81.2     0.46      1011.0     2.3       W   272   6.2      SW     222     265       135       1.9      12.9      90.4      8.46
   06/30/2020 18:00      83.6      82.6       36     53.5      0.00     17.48      81.0     0.46      1011.0     2.8     WNW   294   7.5       W     270     265       161       2.1      12.6      90.4      8.47
   06/30/2020 17:50      84.5      83.6       35     53.6      0.00     17.48      80.7     0.46      1011.0     2.6     WNW   292   6.6     WNW     288     265       185       2.2      12.3      90.5      8.47
   06/30/2020 17:40      84.7      84.4       35     54.2      0.00     17.48      80.5     0.46      1010.9     1.9     WNW   304   6.5       W     265     265       209       2.0      11.9      90.3      8.48
   06/30/2020 17:30      85.0      84.3       36     54.6      0.00     17.48      80.4     0.46      1011.0     2.2      NW   304   5.8     WNW     301     265       233       1.8      11.6      90.5      8.48
   06/30/2020 17:20      85.2      84.7       35     54.6      0.00     17.48      80.3     0.46      1011.1     1.9      NW   318   5.5     NNW     342     265       255       1.5      11.3      90.7      8.49
   06/30/2020 17:10      85.8      85.1       35     54.8      0.00     17.48      80.2     0.46      1011.1     2.0      NW   314   5.1     NNE      24     265       278       1.5      11.0      90.9      8.49
   06/30/2020 17:00      86.3      85.1       35     54.9      0.00     17.48      80.0     0.46      1011.1     2.0      NW   323   5.3       W     265     265       302       1.7      10.8      91.1      8.49
   06/30/2020 16:50      86.4      85.6       35     55.2      0.00     17.48      80.1     0.46      1011.1     1.7     NNW   335   4.4     NNW     327     265       325       1.6      10.5      91.1      8.50
   06/30/2020 16:40      86.8      85.8       35     55.5      0.00     17.48      80.0     0.46      1011.2     1.8      NW   316   5.2     WNW     295     265       344       1.6      10.2      91.2      8.50
   06/30/2020 16:30      87.0      85.6       35     55.4      0.00     17.48      80.0     0.46      1011.3     2.1     NNW   347   5.2       N     349     265       365       1.3       9.9      91.2      8.51
   06/30/2020 16:20      87.2      86.5       34     55.4      0.00     17.48      79.8     0.46      1011.4     1.8      NW   318   5.1     NNW     327     265       384       1.3       9.7      91.3      8.51
   06/30/2020 16:10      86.6      85.3       35     55.1      0.00     17.48      79.9     0.46      1011.5     3.2     WSW   241   6.8     WNW     298     265       407       2.4       9.5      91.1      8.51
   06/30/2020 16:00      85.8      84.9       38     57.0      0.00     17.48      79.8     0.46      1011.5     1.1     SSW   192   6.6       W     267     265       423       0.8       9.1      91.2      8.51
   06/30/2020 15:50      86.8      84.9       38     57.0      0.00     17.48      79.8     0.46      1011.6     1.1      SE   128   3.1       E     101     265       442       0.9       9.0      91.1      8.52
   06/30/2020 15:40      87.1      85.9       37     57.1      0.00     17.48      79.7     0.46      1011.7     1.5       E    79   3.7     ESE     107     265       459       1.4       8.8      90.9      8.52
   06/30/2020 15:30      86.2      84.2       38     57.0      0.00     17.48      79.7     0.46      1011.8     1.4     NNW   339   3.0     NNW     340     265       475       1.1       8.6      90.6      8.52
   06/30/2020 15:20      86.5      83.6       38     56.8      0.00     17.48      79.5     0.46      1011.8     2.8     ESE   116   6.3      SE     139     265       492       1.6       8.4      90.3      8.52
   06/30/2020 15:10      86.2      85.2       38     56.9      0.00     17.48      79.4     0.46      1011.9     1.9      NE    47   4.7     NNE      15     265       505       1.0       8.1      89.9      8.53
   06/30/2020 15:00      85.8      85.1       38     56.7      0.00     17.48      79.4     0.46      1012.0     2.4      NE    55   5.1      NE      47     265       520       1.1       8.0      89.4      8.53
   06/30/2020 14:50      86.3      85.1       37     56.7      0.00     17.48      79.4     0.46      1012.0     2.3     ENE    71   4.9      NE      41     265       531       1.5       7.8      89.1      8.53
   06/30/2020 14:40      86.0      85.1       37     56.5      0.00     17.48      79.2     0.46      1012.1     2.7      NE    40   4.3     ENE      58     265       540       1.0       7.5      88.5      8.53
   06/30/2020 14:30      85.5      84.5       38     56.3      0.00     17.48      79.2     0.46      1012.2     2.9      NE    42   5.9       E      82     265       553       1.5       7.4      88.0      8.54
   06/30/2020 14:20      85.0      83.8       38     56.1      0.00     17.48      79.1     0.45      1012.2     2.5     ENE    66   4.9      NE      53     265       565       1.6       7.1      87.7      8.54
   06/30/2020 14:10      84.6      82.9       39     56.0      0.00     17.48      79.1     0.45      1012.4     3.0     ENE    63   5.8       E      95     265       575       1.8       6.8      87.2      8.54
   06/30/2020 14:00      84.6      83.6       38     55.9      0.00     17.48      79.0     0.45      1012.5     2.5     ENE    58   6.1     ESE     109     265       579       1.3       6.5      86.7      8.54
   06/30/2020 13:50      84.7      83.8       38     55.8      0.00     17.48      78.9     0.45      1012.6     2.3      NE    55   4.8     ESE     119     265       586       1.3       6.3      85.9      8.55
   06/30/2020 13:40      84.3      82.5       38     55.1      0.00     17.48      78.9     0.45      1012.7     2.6       E    89   6.2      SE     127     265       594       1.8       6.1      85.2      8.55
   06/30/2020 13:30      84.3      82.1       39     55.2      0.00     17.48      78.9     0.45      1012.8     1.9      NE    50   4.1       N       0     265       597       1.2       5.8      84.4      8.55
   06/30/2020 13:20      83.4      81.4       39     55.1      0.00     17.48      78.8     0.45      1013.0     2.1     ENE    65   5.0     SSE     148     265       599       1.2       5.6      83.7      8.55
   06/30/2020 13:10      82.1      80.7       40     55.2      0.00     17.48      78.8     0.45      1013.0     2.4     ENE    75   5.9       E      82     265       603       1.3       5.4      83.0      8.55
   06/30/2020 13:00      81.2      80.2       42     55.4      0.00     17.48      78.7     0.45      1013.1     2.9       E    89   6.4     ENE      72     265       607       1.7       5.2      82.0      8.55
   06/30/2020 12:50      82.4      81.3       40     54.8      0.00     17.48      78.7     0.45      1013.2     2.3       E    80   6.6       E      84     264       602       1.5       4.9      81.0      8.56
   06/30/2020 12:40      82.2      81.2       37     53.0      0.00     17.48      78.6     0.45      1013.3     2.3       N   354   5.5     NNW     340     264       598       1.6       4.7      80.1      8.56
   06/30/2020 12:30      82.1      80.8       38     53.2      0.00     17.48      78.7     0.45      1013.4     1.6       N   359   4.6      NE      42     264       594       0.8       4.4      79.1      8.56
   06/30/2020 12:20      81.7      80.5       38     53.1      0.00     17.48      78.7     0.45      1013.6     1.9       N     0   4.8      NE      38     264       591       0.8       4.2      78.1      8.56
   06/30/2020 12:10      81.2      77.9       40     53.1      0.00     17.48      78.7     0.45      1013.8     1.9     NNE    21   6.1      SW     223     264       590       1.2       4.1      77.2      8.56
   06/30/2020 12:00      79.0      78.0       41     52.7      0.00     17.48      78.6     0.45      1014.0     2.6     SSE   153   6.9     SSE     154     264       586       1.9       3.9      76.2      8.56
   06/30/2020 11:50      79.4      78.5       40     52.9      0.00     17.48      78.6     0.45      1014.1     2.1     ENE    66   5.5     ENE      68     264       577       1.5       3.6      75.1      8.56
   06/30/2020 11:40      78.8      77.4       42     53.0      0.00     17.48      78.6     0.45      1014.2     1.0     NNW   341   2.7       N       3     265       570       0.9       3.3      74.0      8.56
   06/30/2020 11:30      78.0      76.9       43     52.9      0.00     17.48      78.6     0.45      1014.3     2.0     NNE    24   4.5       N       2     265       560       1.2       3.2      72.9      8.56
   06/30/2020 11:20      77.3      75.0       44     52.7      0.00     17.48      78.5     0.45      1014.4     2.2      NE    48   4.4     NNE      24     265       552       1.2       3.0      71.8      8.56
   06/30/2020 11:10      76.0      74.7       44     52.3      0.00     17.48      78.6     0.45      1014.5     2.4      SW   216   5.1     SSW     213     266       542       1.8       2.8      70.9      8.56
   06/30/2020 11:00      75.8      74.9       44     52.4      0.00     17.48      78.6     0.45      1014.7     1.2     NNE    14   3.5     NNE      21     265       529       0.7       2.5      70.2      8.56
   06/30/2020 10:50      75.0      73.5       46     52.4      0.00     17.48      78.6     0.46      1014.7     1.8       N     4   4.4       N     349     266       518       1.3       2.4      69.4      8.56
   06/30/2020 10:40      74.5      73.4       47     52.5      0.00     17.48      78.6     0.46      1014.7     2.1     NNE    29   5.2     NNE      21     266       505       1.2       2.2      68.6      8.56
   06/30/2020 10:30      74.3      72.5       48     52.6      0.00     17.48      78.7     0.46      1014.7     1.2     NNW   346   3.4      NE      42     265       489       0.8       2.0      67.8      8.56
   06/30/2020 10:20      73.0      72.3       49     52.6      0.00     17.48      78.7     0.46      1014.8     2.1      NE    46   4.0     ENE      57     266       473       1.0       1.8      67.0      8.56
   06/30/2020 10:10      73.1      71.3       50     52.7      0.00     17.48      78.7     0.46      1014.8     1.1     NNE    12   3.0     NNE      23     266       457       0.6       1.7      66.2      8.56
   06/30/2020 10:00      71.6      70.2       52     52.5      0.00     17.48      78.8     0.46      1014.9     1.3     NNE    14   3.4      NE      34     266       441       0.6       1.6      65.5      8.56
   06/30/2020 09:50      70.7      69.4       53     52.4      0.00     17.48      78.8     0.46      1015.0     1.6      NE    38   3.1      NE      48     266       422       0.9       1.5      64.8      8.56
   06/30/2020 09:40      69.6      68.9       54     52.3      0.00     17.48      78.9     0.46      1015.2     1.3       N   356   3.0      NE      35     266       405       1.0       1.3      64.1      8.56
   06/30/2020 09:30      70.2      68.8       54     52.2      0.00     17.48      78.9     0.46      1015.2     1.7     WSW   252   5.0       W     270     266       387       1.3       1.2      63.5      8.56
   06/30/2020 09:20      69.1      68.0       56     52.1      0.00     17.48      79.0     0.46      1015.2     1.2       S   182   3.4      SW     231     266       371       1.1       0.9      63.0      8.56
   06/30/2020 09:10      68.7      66.8       57     52.1      0.00     17.48      79.0     0.46      1015.3     0.8       E   100   3.7     SSE     163     266       359       0.4       0.8      62.5      8.56
   06/30/2020 09:00      66.8      64.7       61     52.1      0.00     17.48      79.0     0.46      1015.4     0.9     WNW   283   3.3     WNW     286     267       362       0.7       0.7      62.0      8.56
   06/30/2020 08:50      64.7      63.8       64     51.8      0.00     17.48      79.1     0.46      1015.4     0.7     NNW   340   3.0       N       0     270       144       0.3       0.6      61.5      8.56
   06/30/2020 08:40      63.9      63.0       65     51.6      0.00     17.48      79.2     0.46      1015.4     1.0     NNE    19   3.4     NNE      24     270         2       0.2       0.5      60.9      8.56
   06/30/2020 08:30      63.1      62.7       68     52.0      0.00     17.48      79.2     0.46      1015.4     0.7       N     4   2.8     NNE      26     271       -18       0.4       0.5      60.8      8.56
   06/30/2020 08:20      62.7      61.8       69     51.9      0.00     17.48      79.3     0.46      1015.5     0.7     NNE    25   1.8      NE      48     271       -22       0.1       0.4      60.8      8.56
   06/30/2020 08:10      61.9      61.3       70     51.7      0.00     17.48      79.3     0.46      1015.5     0.5     WSW   245   2.3       W     268     271       -18       0.4       0.4      60.8      8.56
   06/30/2020 08:00      61.4      61.0       71     51.7      0.00     17.48      79.4     0.46      1015.4     0.9     WSW   253   2.3     WSW     241     271       -20       0.6       0.3      60.8      8.56
   06/30/2020 07:50      61.3      60.8       71     51.7      0.00     17.48      79.4     0.46      1015.4     0.3     NNE    27   2.0     NNW     340     272        -7       0.0       0.2      60.7      8.56
   06/30/2020 07:40      61.0      60.3       72     51.5      0.00     17.48      79.5     0.46      1015.4     0.4       N   359   1.6     ENE      60     273        31       0.1       0.2      60.8      8.56
   06/30/2020 07:30      60.3      59.2       74     51.4      0.00     17.48      79.6     0.46      1015.4     0.2     NNW   327   1.4     ENE      62     273        14       0.0       0.2      60.8      8.56
   06/30/2020 07:20      59.4      58.2       76     51.3      0.00     17.48      79.6     0.46      1015.3     0.6       N   358   1.8     NNE      22     273         3       0.0       0.2      60.8      8.56
   06/30/2020 07:10      58.3      57.0       81     51.7      0.00     17.48      79.6     0.46      1015.3     0.5     NNW   335   1.7     NNE      32     270         4       0.0       0.2      60.9      8.56
   06/30/2020 07:00      57.1      56.1       83     51.5      0.00     17.48      79.7     0.46      1015.2     0.0       N     0   0.0      SE     145     272         1       0.0       0.2      60.8      8.56
   06/30/2020 06:50      56.2      55.2       85     51.5      0.00     17.48      79.7     0.46      1015.2     0.0       N     0   0.0     SSE     166     273        -1       0.0       0.2      60.9      8.56
   06/30/2020 06:40      55.3      54.3       86     50.8      0.00     17.48      79.9     0.46      1015.2     0.0       N     0   0.0     SSE     166     279        -5       0.0       0.2      60.9      8.56
   06/30/2020 06:30      54.3      53.6       87     50.1      0.00     17.48      79.9     0.46      1015.1     0.0     SSE   167   0.3     SSE     167     279       -12       0.0       0.2      61.1      8.56
   06/30/2020 06:20      53.8      53.4       87     50.0      0.00     17.48      79.9     0.46      1015.0     0.3     SSE   152   0.9     SSE     148     281       -14       0.0       0.2      61.1      8.56
   06/30/2020 06:10      53.6      53.2       87     49.6      0.00     17.48      80.0     0.46      1014.9     0.4     SSE   148   0.8     SSE     147     296       -19       0.0       0.2      61.3      8.56
   06/30/2020 06:00      53.4      52.6       87     49.4      0.00     17.48      80.1     0.46      1014.8     0.2     SSE   166   0.9     SSE     154     296       -25       0.0       0.2      61.4      8.56
   06/30/2020 05:50      52.9      52.5       87     48.8      0.00     17.48      80.1     0.46      1014.8     0.4     SSE   149   1.7      SE     145     290       -30       0.0       0.2      61.6      8.56
   06/30/2020 05:40      53.2      52.7       86     48.9      0.00     17.48      80.2     0.46      1014.8     0.4       S   172   1.7       S     185     285       -32       0.0       0.2      61.8      8.56
   06/30/2020 05:30      53.6      53.2       86     49.4      0.00     17.48      80.2     0.46      1014.7     0.3     SSE   165   0.9       S     169     279       -33       0.0       0.2      62.0      8.56
   06/30/2020 05:20      53.4      53.0       86     49.0      0.00     17.48      80.3     0.46      1014.6     0.0     SSE   157   0.7      SE     142     271       -36       0.0       0.2      62.3      8.56
   06/30/2020 05:10      53.8      53.3       86     49.4      0.00     17.48      80.3     0.46      1014.5     0.2       S   184   0.9     SSW     198     266       -36       0.0       0.2      62.5      8.56
   06/30/2020 05:00      53.8      53.5       86     49.4      0.00     17.48      80.4     0.47      1014.5     0.0      SE   146   0.5     SSE     160     260       -39       0.0       0.2      62.7      8.56
   06/30/2020 04:50      53.8      53.3       85     49.2      0.00     17.48      80.5     0.47      1014.5     0.2     SSE   157   0.9      SE     137     251       -41       0.0       0.2      63.0      8.56
   06/30/2020 04:40      53.8      53.5       85     49.4      0.00     17.48      80.4     0.46      1014.4     0.2     SSE   150   0.9      SE     140     244       -43       0.0       0.2      63.2      8.57
   06/30/2020 04:30      53.8      53.4       84     48.8      0.00     17.48      80.6     0.47      1014.5     0.3       S   176   1.2       S     179     239       -45       0.0       0.2      63.4      8.57
   06/30/2020 04:20      54.3      53.7       83     49.2      0.00     17.48      80.6     0.47      1014.4     0.2     SSE   153   0.8     SSE     151     234       -46       0.0       0.2      63.6      8.57
   06/30/2020 04:10      54.5      54.2       83     49.4      0.00     17.48      80.7     0.47      1014.4     0.0     SSE   156   0.5     SSE     151     230       -47       0.0       0.2      63.9      8.57
   06/30/2020 04:00      54.7      54.4       83     49.5      0.00     17.48      80.8     0.47      1014.4     0.2       S   173   0.7     SSE     151     229       -49       0.0       0.2      64.1      8.57
   06/30/2020 03:50      54.8      54.4       83     49.5      0.00     17.48      80.8     0.47      1014.4     0.0       S   176   0.8       S     184     228       -51       0.0       0.2      64.4      8.57
   06/30/2020 03:40      54.8      54.5       83     49.3      0.00     17.48      80.9     0.47      1014.4     0.0     SSE   156   0.6     SSE     152     230       -53       0.0       0.2      64.6      8.57
   06/30/2020 03:30      54.8      54.3       82     49.1      0.00     17.48      80.9     0.47      1014.4     0.3     SSE   168   0.9     SSE     164     242       -55       0.0       0.2      64.9      8.57
   06/30/2020 03:20      54.9      54.5       81     48.9      0.00     17.48      80.9     0.47      1014.3     0.0      SW   221   0.6      SW     221     252       -57       0.0       0.2      65.2      8.57
   06/30/2020 03:10      55.3      54.8       81     49.4      0.00     17.48      80.9     0.47      1014.3     0.2     SSE   158   0.8     SSE     167     258       -57       0.0       0.2      65.4      8.57
   06/30/2020 03:00      55.3      55.0       81     49.5      0.00     17.48      81.1     0.47      1014.3     0.0       N     0   0.0       S     177     260       -58       0.0       0.2      65.7      8.57
   06/30/2020 02:50      55.5      54.9       80     49.1      0.00     17.48      81.1     0.47      1014.3     0.3     SSE   166   0.9     SSE     148     266       -60       0.0       0.2      66.0      8.57
   06/30/2020 02:40      55.8      55.4       80     49.5      0.00     17.48      81.1     0.47      1014.4     0.3     SSE   162   0.8     SSE     149     264       -58       0.0       0.2      66.2      8.57
   06/30/2020 02:30      55.8      55.4       80     49.5      0.00     17.48      81.2     0.47      1014.4     0.3       S   169   1.0     SSE     158     267       -59       0.0       0.2      66.5      8.57
   06/30/2020 02:20      55.6      55.1       80     49.3      0.00     17.48      81.2     0.47      1014.4     0.5       S   171   1.9     SSW     199     270       -61       0.0       0.2      66.7      8.57
   06/30/2020 02:10      55.8      55.1       79     49.0      0.00     17.48      81.3     0.47      1014.5     0.3       S   172   1.0       S     190     271       -61       0.0       0.2      67.0      8.58
   06/30/2020 02:00      56.2      55.5       79     49.4      0.00     17.48      81.3     0.47      1014.5     0.3       S   170   1.2       S     172     272       -61       0.1       0.2      67.3      8.58
   06/30/2020 01:50      56.3      55.9       79     49.5      0.00     17.48      81.4     0.47      1014.4     0.0       N     0   0.0      SE     131     270       -61       0.0       0.2      67.5      8.58
   06/30/2020 01:40      56.4      56.0       79     49.8      0.00     17.48      81.6     0.47      1014.5     0.4     SSE   148   0.9      SE     143     271       -61       0.0       0.2      67.8      8.58
   06/30/2020 01:30      56.4      56.0       78     49.5      0.00     17.48      81.7     0.47      1014.5     0.0     SSE   146   0.9     SSE     147     271       -62       0.0       0.2      68.2      8.58
   06/30/2020 01:20      56.7      56.2       78     49.7      0.00     17.48      81.7     0.47      1014.5     0.2     SSE   149   0.8     SSE     148     270       -63       0.0       0.2      68.5      8.58
   06/30/2020 01:10      56.8      56.5       77     49.6      0.00     17.48      81.7     0.47      1014.5     0.3     SSE   151   1.5      SE     144     271       -64       0.0       0.2      68.8      8.58
   06/30/2020 01:00      57.5      56.7       76     49.7      0.00     17.48      81.8     0.47      1014.5     0.7       S   170   1.6       S     183     272       -63       0.0       0.2      69.0      8.58
   06/30/2020 00:50      57.7      57.3       75     49.7      0.00     17.48      81.9     0.47      1014.6     0.6     SSE   162   1.3       S     189     272       -64       0.2       0.1      69.3      8.58
   06/30/2020 00:40      57.5      57.1       76     49.8      0.00     17.48      81.9     0.47      1014.6     1.1       S   189   2.1     SSW     206     272       -63       0.2       0.1      69.6      8.58
   06/30/2020 00:30      58.1      57.4       76     50.1      0.00     17.48      81.9     0.47      1014.6     0.6     SSE   158   1.5     SSE     154     272       -65       0.2       0.0      69.9      8.58
   06/30/2020 00:20      58.2      57.9       75     50.2      0.00     17.48      81.9     0.47      1014.6     0.6     SSE   154   1.3     SSE     153     271       -66       0.0       0.0      70.3      8.58
   06/30/2020 00:10      58.6      58.0       74     49.9      0.00     17.48      82.0     0.47      1014.6     1.0       S   181   2.0       S     188     271       -66       0.2       0.0      70.7      8.58
   06/30/2020 00:00      59.0      58.6       72     49.9      0.00     17.48      82.0     0.47      1014.5     0.4     SSE   166   1.1       S     185     271       -66       0.0      29.4      70.9      8.59
   06/29/2020 23:50      59.2      58.8       72     49.9      0.00     17.48      82.1     0.47      1014.5     1.1     SSW   199   1.9      SW     216     271       -65       0.0      29.4      71.3      8.59
   06/29/2020 23:40      59.1      58.5       72     49.9      0.00     17.48      82.1     0.47      1014.4     0.9     SSW   201   1.7      SW     214     270       -65       0.1      29.4      71.6      8.59
   06/29/2020 23:30      59.5      58.8       70     49.4      0.00     17.48      82.0     0.47      1014.4     0.3     ESE   120   1.1     ENE      78     270       -67       0.0      29.4      71.9      8.59
   06/29/2020 23:20      60.1      59.3       69     49.6      0.00     17.48      82.1     0.47      1014.4     0.6       S   182   1.8     SSW     192     270       -67       0.2      29.4      72.3      8.59
   06/29/2020 23:10      60.9      59.9       68     49.7      0.00     17.48      81.4     0.47      1014.3     0.2       S   190   1.2     SSW     197     270       -67       0.0      29.4      72.2      8.59
   06/29/2020 23:00      61.4      60.7       66     49.7      0.00     17.48      81.4     0.47      1014.4     0.6     SSW   203   1.8     SSW     207     270       -68       0.0      29.4      72.4      8.59
   06/29/2020 22:50      61.4      60.9       67     49.9      0.00     17.48      81.4     0.47      1014.3     1.4     SSW   198   2.8     SSW     209     270       -68       0.5      29.4      72.9      8.59
   06/29/2020 22:40      62.0      61.2       65     49.8      0.00     17.48      81.6     0.47      1014.3     0.2     SSE   154   1.0     ESE     115     270       -69       0.0      29.3      73.5      8.59
   06/29/2020 22:30      62.6      61.8       64     49.8      0.00     17.48      81.9     0.47      1014.3     0.4       E    98   1.3     ENE      76     270       -70       0.0      29.3      74.0      8.60
   06/29/2020 22:20      62.9      62.6       63     49.9      0.00     17.48      81.7     0.47      1014.4     0.6     SSW   195   2.3     WSW     237     269       -71       0.0      29.3      74.2      8.60
   06/29/2020 22:10      62.9      62.5       63     49.7      0.00     17.48      82.1     0.47      1014.4     2.1     SSW   204   2.7       S     177     269       -71       0.9      29.3      74.8      8.60
   06/29/2020 22:00      63.1      62.8       62     49.7      0.00     17.48      82.1     0.47      1014.3     2.1     SSW   203   3.6     SSW     202     269       -72       0.9      29.1      75.2      8.60
   06/29/2020 21:50      63.2      62.8       62     49.8      0.00     17.48      82.0     0.47      1014.2     2.8     SSW   199   4.0       S     186     269       -72       1.4      28.9      75.6      8.60
   06/29/2020 21:40      63.3      63.0       62     49.8      0.00     17.48      82.1     0.47      1014.1     2.6     SSW   205   3.7     SSW     193     269       -72       1.3      28.7      75.9      8.60
   06/29/2020 21:30      63.4      63.0       62     50.0      0.00     17.48      82.1     0.47      1014.0     1.9     SSW   204   3.0     SSW     200     269       -72       0.9      28.5      76.3      8.60
   06/29/2020 21:20      63.5      63.0       62     50.0      0.00     17.48      82.0     0.47      1013.9     1.6       S   182   2.4     SSW     195     269       -74       0.6      28.3      76.8      8.61
   06/29/2020 21:10      63.6      63.2       61     49.9      0.00     17.48      82.0     0.47      1013.7     1.5       S   187   2.6       S     184     269       -76       0.7      28.2      77.1      8.61
   06/29/2020 21:00      64.3      63.6       60     49.9      0.00     17.48      82.0     0.47      1013.5     1.6       S   180   3.3     SSW     194     268       -77       0.8      28.1      77.5      8.61
   06/29/2020 20:50      64.6      64.1       60     50.0      0.00     17.48      82.0     0.47      1013.4     2.0     SSE   167   4.7       S     183     268       -78       0.9      28.0      77.9      8.61
   06/29/2020 20:40      65.1      64.6       59     50.3      0.00     17.48      82.0     0.47      1013.2     0.8     SSE   153   2.2     SSW     192     268       -79       0.2      27.9      78.3      8.61
   06/29/2020 20:30      65.5      64.9       59     50.4      0.00     17.48      82.0     0.47      1013.1     2.2       S   185   5.5       S     186     268       -79       1.3      27.8      78.8      8.61
   06/29/2020 20:20      66.6      65.4       57     50.5      0.00     17.48      82.0     0.47      1013.0     2.8       S   176   5.4     SSE     169     268       -79       1.5      27.6      79.2      8.62
   06/29/2020 20:10      67.5      66.5       56     50.9      0.00     17.48      81.9     0.47      1012.9     2.5       S   187   4.5     SSW     196     268       -77       1.3      27.4      79.7      8.62
   06/29/2020 20:00      67.9      67.3       56     51.1      0.00     17.48      81.9     0.47      1012.8     2.2       S   184   4.6     SSW     193     268       -73       1.2      27.1      80.3      8.62
   06/29/2020 19:50      68.7      67.6       54     51.1      0.00     17.48      81.9     0.47      1012.6     3.5       S   180   6.1       S     177     268       -69       2.2      26.9      80.8      8.63
   06/29/2020 19:40      70.2      68.7       53     51.4      0.00     17.48      81.8     0.47      1012.4     3.8       S   181   7.4     SSW     197     268       -56       2.2      26.6      81.4      8.63
   06/29/2020 19:30      70.6      70.1       51     51.6      0.00     17.48      81.8     0.47      1012.3     3.0       S   178   5.0     SSW     192     267       -38       1.8      26.2      81.9      8.63
   06/29/2020 19:20      71.2      70.5       51     51.7      0.00     17.48      81.8     0.47      1012.3     3.3       S   187   6.5     SSW     197     267       -18       2.2      25.9      82.5      8.64
   06/29/2020 19:10      71.9      70.9       50     51.8      0.00     17.48      81.8     0.47      1012.1     3.7       S   185   7.4       S     189     267         2       2.4      25.5      82.8      8.64
   06/29/2020 19:00      72.3      71.7       49     51.9      0.00     17.48      81.7     0.47      1011.9     2.9       S   174   5.9       S     178     267        26       1.9      25.1      83.2      8.64
   06/29/2020 18:50      72.5      72.1       49     51.9      0.00     17.48      81.7     0.47      1011.8     3.8       S   190   6.0      SW     220     267        51       2.4      24.8      83.7      8.65
   06/29/2020 18:40      72.4      71.8       49     51.9      0.00     17.48      81.5     0.47      1011.7     3.2       S   180   6.3      SE     140     267        73       1.8      24.4      84.0      8.65
   06/29/2020 18:30      72.4      71.8       49     51.8      0.00     17.48      81.5     0.47      1011.7     4.1       S   176   7.1     SSE     165     267        99       2.5      24.1      84.4      8.65
   06/29/2020 18:20      72.9      72.2       48     51.8      0.00     17.48      81.5     0.47      1011.5     3.9       S   175   6.4      SW     216     267       126       2.5      23.7      84.6      8.66
   06/29/2020 18:10      72.9      72.4       48     51.8      0.00     17.48      81.3     0.47      1011.5     4.4       S   182   8.1      SE     144     267       150       2.8      23.3      84.9      8.66
   06/29/2020 18:00      73.4      72.5       48     51.9      0.00     17.48      81.2     0.47      1011.4     4.7     SSE   161   9.1       S     180     267       175       2.8      22.8      85.1      8.67
   06/29/2020 17:50      73.5      73.0       47     52.0      0.00     17.48      81.1     0.47      1011.2     4.2     SSE   161   8.7       E      96     267       197       2.4      22.3      85.3      8.67
   06/29/2020 17:40      73.8      73.3       47     52.0      0.00     17.48      81.0     0.47      1011.3     4.8     SSE   149   8.5      SE     133     267       223       2.7      21.9      85.5      8.67
   06/29/2020 17:30      73.9      72.9       47     51.9      0.00     17.48      81.0     0.47      1011.2     4.6     SSE   162  11.2     SSW     209     266       248       3.0      21.4      85.7      8.68
   06/29/2020 17:20      75.3      73.7       46     52.1      0.00     17.48      80.8     0.47      1011.1     5.3     SSE   163   9.0      SE     138     266       274       3.4      20.9      85.9      8.68
   06/29/2020 17:10      76.5      74.8       44     52.4      0.00     17.48      80.8     0.46      1011.0     5.2       S   174  11.4      SE     138     266       302       3.3      20.4      86.0      8.68
   06/29/2020 17:00      77.7      76.4       43     52.6      0.00     17.48      80.7     0.46      1010.8     5.1     SSW   194  10.6     SSW     213     266       297       3.4      19.8      86.0      8.69
   06/29/2020 16:50      77.8      76.0       43     52.6      0.00     17.48      80.6     0.46      1010.9     3.2     SSW   204   8.5      SW     227     266       355       2.3      19.3      85.9      8.69
   06/29/2020 16:40      77.6      77.0       42     52.6      0.00     17.48      80.5     0.46      1010.7     4.3       S   187   8.7      SW     226     266       363       2.9      18.9      85.8      8.70
   06/29/2020 16:30      78.0      77.1       42     52.7      0.00     17.48      80.4     0.46      1010.7     4.4     SSW   192   7.3      SE     145     266       381       3.0      18.4      85.6      8.70
   06/29/2020 16:20      77.5      75.8       43     52.5      0.00     17.48      80.3     0.46      1010.9     2.7      SE   129   8.7      SE     130     266       404       1.7      17.9      85.5      8.70
   06/29/2020 16:10      76.7      75.9       43     52.4      0.00     17.48      80.2     0.46      1011.0     3.6      SE   145   8.5      SE     141     266       422       2.3      17.6      85.3      8.70
   06/29/2020 16:00      76.9      76.1       43     52.4      0.00     17.48      80.2     0.46      1011.1     2.8       S   173   5.7       S     176     266       437       1.8      17.2      85.1      8.71
   06/29/2020 15:50      77.0      75.7       43     52.4      0.00     17.48      80.1     0.46      1011.2     2.0     SSW   192   5.4     SSW     192     266       454       1.4      16.9      84.7      8.71
   06/29/2020 15:40      78.4      76.4       42     52.6      0.00     17.48      80.0     0.46      1011.3     2.0      SE   139   5.6     ENE      73     266       473       1.5      16.7      84.5      8.71
   06/29/2020 15:30      76.9      75.8       43     52.5      0.00     17.48      80.0     0.46      1011.3     3.1      SE   140   9.2      SE     144     266       472       2.0      16.4      84.2      8.71
   06/29/2020 15:20      75.9      75.2       45     52.5      0.00     17.48      79.9     0.46      1011.4     3.4      SE   138   8.4      SE     143     266       531       2.1      16.1      83.8      8.72
   06/29/2020 15:10      75.9      74.7       45     52.2      0.00     17.48      79.9     0.46      1011.4     4.4     SSW   204   7.7     SSW     212     266       542       3.0      15.8      83.5      8.72
   06/29/2020 15:00      76.3      74.8       44     52.4      0.00     17.48      79.8     0.46      1011.5     2.8     SSW   211   6.9      SW     231     266       601       2.2      15.3      83.0      8.72
   06/29/2020 14:50      75.9      74.3       45     52.4      0.00     17.48      79.8     0.46      1011.6     5.2       S   191   9.0     SSW     213     266       634       3.5      14.9      82.4      8.72
   06/29/2020 14:40      76.3      73.8       45     52.4      0.00     17.48      79.8     0.46      1011.6     4.2       S   174   9.8       S     187     266       579       2.9      14.3      81.8      8.72
   06/29/2020 14:30      76.7      73.9       45     52.4      0.00     17.48      79.8     0.46      1011.7     3.8     SSE   169   9.3     SSW     194     266       401       2.4      13.8      81.3      8.73
   06/29/2020 14:20      75.9      73.3       46     52.4      0.00     17.48      79.7     0.46      1011.7     2.9     SSE   158   8.8       S     187     266       560       2.1      13.4      81.1      8.73
   06/29/2020 14:10      76.8      74.0       44     52.5      0.00     17.48      79.8     0.46      1011.8     2.6      SE   140   8.1       S     179     266       315       1.8      13.1      80.9      8.73
   06/29/2020 14:00      76.3      74.8       45     52.5      0.00     17.48      79.8     0.46      1011.8     2.8     ESE   108   7.8     ENE      58     266       653       1.7      12.8      80.2      8.73
   06/29/2020 13:50      76.0      74.1       44     51.9      0.00     17.48      79.6     0.46      1011.8     2.0      SE   138   3.8     ENE      64     266       401       1.4      12.5      79.8      8.73
   06/29/2020 13:40      74.9      73.2       46     52.2      0.00     17.48      79.7     0.46      1011.9     3.5     ESE   119   7.1      SE     130     266       704       1.8      12.2      79.3      8.73
   06/29/2020 13:30      73.5      72.2       48     52.1      0.00     17.48      79.6     0.46      1011.9     3.2     ESE   108   6.5     ENE      64     266       404       2.0      11.9      78.5      8.73
   06/29/2020 13:20      73.0      71.2       49     51.9      0.00     17.48      79.6     0.46      1012.0     4.2     ESE   108   9.3      SE     141     267       385       1.9      11.6      78.0      8.74
   06/29/2020 13:10      73.4      72.3       48     52.1      0.00     17.48      79.7     0.46      1012.1     2.7      SE   130   6.9     SSE     163     266       448       1.4      11.3      77.7      8.74
   06/29/2020 13:00      72.9      71.5       49     52.1      0.00     17.48      79.6     0.46      1012.0     3.0     SSE   160   8.0      SE     136     266       441       1.9      11.1      77.1      8.74
   06/29/2020 12:50      72.9      72.2       48     51.9      0.00     17.48      79.6     0.46      1012.0     1.3      SE   135   3.9       E      88     267       181       1.0      10.7      76.6      8.74
   06/29/2020 12:40      73.0      71.7       49     52.2      0.00     17.48      79.6     0.46      1012.1     1.7       E   101   5.3      NE      55     266       206       1.3      10.6      76.6      8.74
   06/29/2020 12:30      73.3      71.0       49     52.0      0.00     17.48      79.6     0.46      1012.2     2.1     ESE   106   4.4     NNE      24     266       309       1.5      10.3      76.6      8.74
   06/29/2020 12:20      71.8      70.9       50     51.7      0.00     17.48      79.7     0.46      1012.3     2.9      SE   134   6.1     SSE     164     266       316       1.7      10.1      76.3      8.74
   06/29/2020 12:10      72.1      71.0       49     51.7      0.00     17.48      79.7     0.46      1012.3     2.6       E    91   6.8     ENE      72     267       247       1.3       9.8      75.6      8.74
   06/29/2020 12:00      72.4      71.0       49     51.5      0.00     17.48      79.7     0.46      1012.3     2.0     ESE   106   6.1     SSE     154     266       171       1.3       9.6      75.5      8.75
   06/29/2020 11:50      73.2      72.3       47     51.1      0.00     17.48      79.8     0.46      1012.3     3.2      SE   127   8.1     ENE      75     264       692       1.8       9.4      75.5      8.75
   06/29/2020 11:40      73.0      71.3       47     51.0      0.00     17.48      79.8     0.46      1012.5     2.5     ESE   103   6.8     ENE      71     266       704       1.7       9.1      74.5      8.75
   06/29/2020 11:30      73.4      70.9       48     51.8      0.00     17.48      79.8     0.46      1012.6     2.9     ESE   118   6.8     SSE     148     266       597       1.7       8.8      73.3      8.75
   06/29/2020 11:20      73.7      71.2       48     51.7      0.00     17.48      79.9     0.46      1012.6     2.7     ESE   123   7.7      SE     141     266       603       1.9       8.5      72.4      8.75
   06/29/2020 11:10      71.4      69.6       52     52.2      0.00     17.48      79.9     0.46      1012.6     2.0      SE   133   5.8     ENE      57     266       593       1.5       8.2      71.5      8.75
   06/29/2020 11:00      70.3      69.2       54     52.5      0.00     17.48      80.0     0.46      1012.6     3.1     ESE   106   5.6       E      83     266       518       2.0       7.9      70.7      8.75
   06/29/2020 10:50      71.6      69.9       53     52.7      0.00     17.48      80.1     0.46      1012.6     2.2     ENE    78   6.3       E      84     267       152       1.4       7.6      70.1      8.75
   06/29/2020 10:40      72.2      71.2       51     52.5      0.00     17.48      80.0     0.46      1012.6     2.4       E    86   4.6       E      98     266       558       1.3       7.4      70.2      8.75
   06/29/2020 10:30      71.8      70.4       51     52.0      0.00     17.48      80.2     0.46      1012.6     2.8     ENE    75   6.2       E      90     266       645       1.7       7.2      69.3      8.75
   06/29/2020 10:20      70.7      67.8       55     52.3      0.00     17.48      80.2     0.46      1012.6     2.1      SE   134   5.4       S     185     266       577       1.5       6.9      68.6      8.75
   06/29/2020 10:10      68.1      67.2       57     52.0      0.00     17.48      80.2     0.46      1012.7     2.8      SE   125   6.3     SSE     157     268       317       1.5       6.6      67.6      8.75
   06/29/2020 10:00      68.1      66.4       58     52.4      0.00     17.48      80.2     0.46      1012.7     2.1      SE   140   5.4      SE     130     267       451       1.5       6.4      67.4      8.75
   06/29/2020 09:50      66.6      66.0       61     52.4      0.00     17.48      80.3     0.46      1012.8     2.3     ESE   116   6.2      SE     136     268       305       1.5       6.1      66.3      8.75
   06/29/2020 09:40      66.2      65.3       63     52.6      0.00     17.48      80.4     0.46      1012.8     2.0     ENE    70   4.1      SE     136     269       145       0.9       5.9      66.0      8.75
   06/29/2020 09:30      65.6      65.3       63     52.4      0.00     17.48      80.5     0.46      1012.9     2.4     ENE    76   5.2     ENE      58     269       132       1.0       5.7      65.8      8.75
   06/29/2020 09:20      65.8      65.5       63     52.7      0.00     17.48      80.5     0.46      1012.8     2.6     ENE    58   4.6     ENE      61     269       131       0.8       5.5      65.8      8.75
   06/29/2020 09:10      65.6      64.9       63     52.5      0.00     17.48      80.2     0.47      1012.8     2.2     ENE    74   6.6      SE     136     269       203       1.1       5.4      65.3      8.75
   06/29/2020 09:00      65.1      64.3       64     52.4      0.00     17.48      79.8     0.47      1012.8     2.4       E    97   5.6     SSE     152     270       132       1.1       5.2      64.5      8.75
   06/29/2020 08:50      64.6      64.2       66     52.7      0.00     17.48      79.8     0.47      1012.7     1.9       E    99   6.1       E      88     270        74       0.9       5.0      64.4      8.75
   06/29/2020 08:40      65.0      64.3       66     53.1      0.00     17.48      79.9     0.47      1012.5     2.5     SSE   150   5.8      SE     126     270        90       1.4       4.9      64.3      8.75
   06/29/2020 08:30      65.0      63.4       68     53.3      0.00     17.48      79.9     0.47      1012.5     1.7       E    80   4.2     ENE      76     270       104       0.9       4.6      64.1      8.75
   06/29/2020 08:20      63.8      63.3       69     53.1      0.00     17.48      80.0     0.47      1012.4     3.4       E    82   6.3     ENE      63     270        29       1.7       4.5      64.0      8.75
   06/29/2020 08:10      64.1      63.4       69     53.4      0.00     17.48      80.0     0.47      1012.3     2.3     ENE    72   6.3     ENE      71     270        -4       1.2       4.2      64.1      8.75
   06/29/2020 08:00      63.8      62.8       71     53.7      0.00     17.48      80.0     0.47      1012.4     1.7     ENE    59   5.0     ENE      72     270        14       0.7       4.0      64.2      8.75
   06/29/2020 07:50      63.0      62.6       71     53.5      0.00     17.48      80.1     0.47      1012.4     1.9     ENE    66   4.2     ENE      63     271        -8       0.7       3.9      64.1      8.75
   06/29/2020 07:40      62.9      62.3       72     53.3      0.00     17.48      80.0     0.47      1012.4     2.0     ENE    75   4.5       E      94     271        14       0.8       3.8      64.2      8.76
   06/29/2020 07:30      62.3      62.0       72     53.1      0.00     17.48      80.1     0.47      1012.4     2.2     ENE    75   5.4      NE      47     271        24       0.8       3.7      64.1      8.75
   06/29/2020 07:20      62.5      62.0       73     53.6      0.00     17.48      80.2     0.47      1012.3     2.6       E    99   5.5       E      91     271        59       1.5       3.5      64.2      8.75
   06/29/2020 07:10      62.4      62.1       74     53.9      0.00     17.48      80.2     0.47      1012.2     1.2     ENE    59   2.4       E      86     271        33       0.3       3.3      64.1      8.76
   06/29/2020 07:00      62.2      61.7       74     53.7      0.00     17.48      80.2     0.47      1012.1     0.4     ENE    60   1.7     ENE      69     271        19       0.0       3.2      64.1      8.76
   06/29/2020 06:50      61.8      61.2       75     53.5      0.00     17.48      80.3     0.47      1012.0     0.4     ENE    60   1.6      NE      40     271        17       0.2       3.2      64.0      8.76
   06/29/2020 06:40      61.4      60.8       75     53.2      0.00     17.48      80.2     0.47      1011.8     0.4     ENE    65   1.6     ENE      58     272         7       0.0       3.2      63.9      8.76
   06/29/2020 06:30      61.0      60.6       75     53.0      0.00     17.48      80.0     0.47      1011.6     0.2       N   350   1.5       N     355     271       -10       0.1       3.2      63.8      8.76
   06/29/2020 06:20      60.7      60.4       76     52.9      0.00     17.48      80.0     0.47      1011.7     0.3      SE   144   1.1     SSE     154     272        -5       0.0       3.2      63.8      8.76
   06/29/2020 06:10      60.6      60.3       76     53.0      0.00     17.48      80.1     0.47      1011.6     0.0       N     0   0.0     ESE     108     272       -10       0.0       3.2      63.9      8.76
   06/29/2020 06:00      60.4      60.2       76     52.9      0.00     17.48      80.2     0.47      1011.5     0.0       N     0   0.0       W     264     272       -15       0.0       3.2      64.0      8.76
   06/29/2020 05:50      60.4      60.2       77     53.0      0.00     17.48      80.3     0.47      1011.4     0.0       W   261   1.0       W     260     272       -29       0.0       3.2      64.0      8.76
   06/29/2020 05:40      60.3      59.9       77     52.9      0.00     17.48      80.2     0.47      1011.3     0.1       S   181   1.3       S     179     272       -18       0.0       3.2      64.1      8.76
   06/29/2020 05:30      60.2      59.9       78     53.1      0.00     17.48      80.2     0.47      1011.2     0.8       S   182   2.0       S     178     272       -15       0.2       3.2      64.0      8.76
   06/29/2020 05:20      60.1      59.8       78     53.1      0.00     17.48      80.2     0.47      1011.1     0.2     SSW   206   1.1       S     190     272       -15       0.0       3.1      64.2      8.76
   06/29/2020 05:10      60.1      59.8       79     53.3      0.00     17.48      80.3     0.47      1011.0     0.6     SSW   195   1.7       S     176     272       -26       0.1       3.1      64.2      8.76
   06/29/2020 05:00      60.0      59.6       79     53.3      0.00     17.48      80.3     0.47      1011.0     0.6     SSW   196   1.5      SW     215     272       -16       0.1       3.1      64.3      8.76
   06/29/2020 04:50      59.8      59.5       80     53.3      0.00     17.48      80.3     0.47      1010.9     0.3     SSW   206   1.2       S     180     272       -20       0.0       3.1      64.3      8.76
   06/29/2020 04:40      59.7      59.5       80     53.4      0.00     17.48      80.4     0.47      1010.9     0.8     SSW   213   2.1      SW     230     272       -33       0.3       3.1      64.4      8.76
   06/29/2020 04:30      59.8      59.5       80     53.4      0.00     17.48      80.4     0.47      1010.9     1.0     SSW   198   3.4     WSW     245     272       -25       0.4       3.0      64.5      8.76
   06/29/2020 04:20      59.8      59.3       80     53.4      0.00     17.48      80.5     0.47      1010.9     1.9     WSW   246   3.4     WSW     249     273       -30       1.2       3.0      64.6      8.76
   06/29/2020 04:10      59.5      59.1       80     53.2      0.00     17.48      80.5     0.47      1010.9     0.4     SSW   209   2.2     SSW     207     272       -17       0.2       2.8      64.7      8.76
   06/29/2020 04:00      59.5      59.0       80     53.1      0.00     17.48      80.5     0.47      1010.9     0.0     SSE   152   0.7      SE     141     272       -20       0.0       2.7      64.8      8.76
   06/29/2020 03:50      59.6      59.2       80     53.3      0.00     17.48      80.5     0.47      1010.8     1.2      SW   229   2.7      SW     233     273       -41       0.5       2.7      64.9      8.76
   06/29/2020 03:40      59.5      59.1       81     53.3      0.00     17.48      80.6     0.47      1010.9     0.7      SW   224   2.4      SW     223     272       -40       0.2       2.6      65.1      8.76
   06/29/2020 03:30      59.4      59.0       81     53.2      0.00     17.48      80.6     0.47      1010.8     0.3       W   265   1.4       W     273     272       -31       0.0       2.6      65.1      8.76
   06/29/2020 03:20      59.2      59.0       80     53.1      0.00     17.48      80.6     0.47      1010.9     0.2     SSE   163   1.0       S     182     272       -43       0.0       2.6      65.3      8.76
   06/29/2020 03:10      59.4      59.0       80     53.0      0.00     17.48      80.7     0.47      1010.8     0.5     ESE   117   2.4       S     186     272       -54       0.1       2.6      65.4      8.76
   06/29/2020 03:00      59.5      59.3       80     53.1      0.00     17.48      80.8     0.47      1010.9     0.7     SSW   193   3.5      SW     219     272       -52       0.4       2.6      65.5      8.76
   06/29/2020 02:50      59.6      59.2       80     53.0      0.00     17.48      80.7     0.47      1010.9     1.2     SSW   206   3.8      SW     220     272       -51       0.6       2.5      65.7      8.76
   06/29/2020 02:40      59.5      59.1       79     52.9      0.00     17.48      80.8     0.47      1010.7     1.5       S   190   3.2       S     186     272       -63       0.7       2.4      66.0      8.76
   06/29/2020 02:30      59.9      59.3       79     53.1      0.00     17.48      80.8     0.47      1010.8     0.7     SSW   199   2.2     WSW     240     271       -59       0.3       2.3      66.2      8.76
   06/29/2020 02:20      60.3      59.8       78     53.2      0.00     17.48      80.9     0.47      1010.7     1.0     ESE   122   2.3       S     190     271       -65       0.3       2.2      66.4      8.76
   06/29/2020 02:10      60.7      60.1       78     53.5      0.00     17.48      80.9     0.47      1010.7     0.9       S   185   2.5      SW     214     271       -63       0.3       2.2      66.6      8.77
   06/29/2020 02:00      61.0      60.5       78     53.8      0.00     17.48      80.9     0.47      1010.7     0.8      SW   214   2.5       S     187     270       -55       0.3       2.1      66.8      8.77
   06/29/2020 01:50      61.2      60.7       78     53.9      0.00     17.48      81.1     0.47      1010.6     2.3       S   191   4.2       S     172     271       -40       1.5       2.1      67.0      8.77
   06/29/2020 01:40      61.2      60.9       78     54.0      0.00     17.48      81.0     0.47      1010.5     1.0       S   184   2.5      SE     138     271       -34       0.4       1.8      67.1      8.77
   06/29/2020 01:30      61.4      61.0       77     54.0      0.00     17.48      81.0     0.47      1010.6     1.6     SSW   196   3.2     SSW     193     271       -39       0.8       1.8      67.3      8.77
   06/29/2020 01:20      61.4      61.2       77     54.1      0.00     17.48      81.1     0.47      1010.8     1.6       S   178   3.8     SSE     147     271       -29       0.6       1.6      67.4      8.77
   06/29/2020 01:10      61.6      61.1       77     54.2      0.00     17.48      81.1     0.47      1010.8     1.7     SSW   200   4.2     SSW     211     271       -26       0.9       1.5      67.5      8.77
   06/29/2020 01:00      61.5      61.3       77     54.2      0.00     17.48      81.0     0.47      1010.7     0.5       S   184   3.0     SSW     193     271       -26       0.1       1.4      67.7      8.77
   06/29/2020 00:50      61.4      61.1       78     54.3      0.00     17.48      81.0     0.47      1010.6     0.6       S   186   2.1     ESE     123     271       -26       0.4       1.4      67.7      8.77
   06/29/2020 00:40      61.4      61.0       78     54.3      0.00     17.48      81.0     0.47      1010.5     2.9     SSW   196   4.9      SW     217     271       -26       1.7       1.3      67.9      8.77
   06/29/2020 00:30      61.4      61.0       78     54.3      0.00     17.48      81.1     0.47      1010.4     2.9       S   187   5.5     WSW     238     271       -24       1.7       1.0      68.1      8.77
   06/29/2020 00:20      61.4      61.0       78     54.4      0.00     17.48      81.1     0.47      1010.4     3.2       S   181   7.1     SSW     195     271       -24       2.0       0.7      68.2      8.77
   06/29/2020 00:10      61.8      61.2       78     54.5      0.00     17.48      81.1     0.47      1010.4     4.1     SSW   192   6.6      SW     222     271       -24       2.4       0.4      68.3      8.77
   06/29/2020 00:00      62.0      61.6       77     54.6      0.00     17.48      81.2     0.47      1010.4     1.7       S   176   2.9      SE     131     271       -20       1.1      36.0      68.5      8.77
   06/28/2020 23:50      62.1      61.7       77     54.5      0.00     17.48      81.1     0.47      1010.4     2.5       S   174   5.8      SE     138     271       -18       1.4      35.8      68.8      8.77
   06/28/2020 23:40      62.3      61.8       76     54.5      0.00     17.48      81.2     0.47      1010.4     3.3     ESE   123   6.8      SE     127     271       -18       1.7      35.6      69.0      8.77
   06/28/2020 23:30      62.5      61.9       76     54.5      0.00     17.48      81.2     0.47      1010.4     2.1     SSE   159   4.9       S     189     271       -18       1.0      35.3      69.1      8.77
   06/28/2020 23:20      62.5      62.1       76     54.6      0.00     17.48      81.2     0.47      1010.4     2.0      SE   137   4.4      SE     136     271       -18       1.0      35.1      69.2      8.78
   06/28/2020 23:10      62.5      62.2       76     54.6      0.00     17.48      81.2     0.47      1010.4     2.0       S   181   4.1       S     175     270       -19       1.2      35.0      69.4      8.78
   06/28/2020 23:00      62.7      62.3       76     54.6      0.00     17.48      81.3     0.47      1010.4     1.5     SSE   159   4.0       E      84     270       -21       0.7      34.8      69.6      8.78
   06/28/2020 22:50      62.6      62.2       76     54.7      0.00     17.48      81.3     0.47      1010.4     1.2       S   171   2.6     SSE     151     270       -21       0.5      34.6      69.8      8.78
   06/28/2020 22:40      62.7      62.3       76     54.6      0.00     17.48      81.3     0.47      1010.5     1.8      SE   145   4.3      SE     132     270       -20       0.9      34.6      69.9      8.78
   06/28/2020 22:30      62.5      62.2       76     54.7      0.00     17.48      81.3     0.47      1010.5     2.2     SSW   207   5.3      SW     225     271       -19       1.3      34.4      70.1      8.78
   06/28/2020 22:20      62.6      62.2       76     54.6      0.00     17.48      81.3     0.47      1010.4     2.8     SSW   199   5.5     WSW     245     270       -24       1.6      34.2      70.2      8.78
   06/28/2020 22:10      62.8      62.4       75     54.6      0.00     17.48      81.3     0.47      1010.4     2.5       S   169   5.7       S     178     270       -28       1.3      33.9      70.5      8.78
   06/28/2020 22:00      62.6      62.3       76     54.8      0.00     17.48      81.4     0.47      1010.3     3.0     SSW   195   4.6      SW     228     270       -25       1.9      33.7      70.7      8.78
   06/28/2020 21:50      62.8      62.5       76     55.0      0.00     17.48      81.3     0.47      1010.3     2.9      SW   221   6.9      SW     220     270       -20       1.9      33.4      71.0      8.78
   06/28/2020 21:40      63.0      62.6       75     54.9      0.00     17.48      81.4     0.47      1010.1     2.4     SSW   200   5.3     ESE     116     270       -19       1.5      33.1      71.1      8.78
   06/28/2020 21:30      63.1      62.7       75     54.8      0.00     17.48      81.4     0.47      1010.0     1.8     SSW   207   4.4       S     189     270       -19       1.0      32.8      71.4      8.79
   06/28/2020 21:20      62.9      62.6       75     54.7      0.00     17.48      81.3     0.47      1009.8     2.2     SSW   201   4.1       S     178     270       -18       1.2      32.6      71.5      8.79
   06/28/2020 21:10      62.9      62.6       75     54.7      0.00     17.48      81.4     0.47      1009.8     2.6       S   189   7.5     SSW     203     270       -18       1.8      32.4      71.6      8.79
   06/28/2020 21:00      62.8      62.5       75     54.7      0.00     17.48      81.4     0.47      1009.6     2.6       S   187   4.6      SW     214     270       -19       1.7      32.1      71.9      8.79
   06/28/2020 20:50      62.9      62.5       75     54.6      0.00     17.48      81.3     0.47      1009.4     3.4       S   175   5.8     SSE     158     270       -19       2.0      31.9      72.0      8.79
   06/28/2020 20:40      63.1      62.8       74     54.5      0.00     17.48      81.4     0.47      1009.4     3.6     SSE   165   6.7     SSW     205     270       -20       2.2      31.5      72.4      8.79
   06/28/2020 20:30      63.4      62.9       73     54.5      0.00     17.48      81.4     0.47      1009.4     3.9       S   170   6.9     SSW     209     270       -23       2.1      31.2      72.7      8.79
   06/28/2020 20:20      64.0      63.2       73     54.6      0.00     17.48      81.3     0.47      1009.3     4.9       S   183   8.5     SSW     211     270       -24       3.2      30.8      73.1      8.80
   06/28/2020 20:10      64.5      63.8       71     54.7      0.00     17.48      81.3     0.47      1009.2     3.8       S   187   6.5     SSE     163     270       -21       2.3      30.3      73.4      8.80
   06/28/2020 20:00      64.7      64.3       71     54.7      0.00     17.48      81.4     0.47      1009.1     3.1       S   173   7.5     SSW     194     270       -20       1.7      29.9      73.7      8.80
   06/28/2020 19:50      64.9      64.3       70     54.8      0.00     17.48      81.3     0.47      1009.1     4.1       S   176   6.9     SSE     165     270       -22       2.4      29.6      74.1      8.80
   06/28/2020 19:40      65.5      64.8       69     54.7      0.00     17.48      81.3     0.47      1009.1     3.7     SSE   159   7.3       S     185     270       -32       1.9      29.2      74.5      8.80
   06/28/2020 19:30      66.0      65.4       68     54.8      0.00     17.48      81.3     0.47      1009.1     3.3     SSE   166   7.0       S     189     270       -18       2.0      28.9      74.7      8.80
   06/28/2020 19:20      66.0      65.7       67     54.8      0.00     17.48      81.3     0.47      1009.1     3.0       S   186   6.2     SSW     198     269        -8       1.7      28.6      75.0      8.80
   06/28/2020 19:10      66.7      65.8       67     54.8      0.00     17.48      81.2     0.47      1009.0     3.2       S   191   5.8     SSW     214     269       -35       2.0      28.3      75.3      8.81
   06/28/2020 19:00      67.0      66.4       66     54.9      0.00     17.48      81.2     0.47      1008.9     2.7       S   189   5.3      SE     140     269       -29       1.8      27.9      75.6      8.81
   06/28/2020 18:50      67.4      66.9       65     55.1      0.00     17.48      81.2     0.47      1008.8     3.6       S   191   7.7     SSW     207     269        -9       2.4      27.6      75.9      8.81
   06/28/2020 18:40      67.5      67.1       65     55.2      0.00     17.48      81.1     0.47      1008.7     3.9       S   175   6.5       S     171     269        14       2.2      27.2      76.2      8.81
   06/28/2020 18:30      68.2      67.4       64     55.3      0.00     17.48      81.2     0.47      1008.7     4.9       S   176   7.6      SE     135     269        30       2.9      26.9      76.6      8.82
   06/28/2020 18:20      68.7      68.1       63     55.4      0.00     17.48      81.1     0.47      1008.7     4.5     SSE   163   8.2       S     179     268        64       2.6      26.4      76.9      8.82
   06/28/2020 18:10      69.5      68.6       62     55.6      0.00     17.48      81.1     0.47      1008.6     4.4     SSE   156   7.8      SE     137     268        62       2.1      25.9      77.2      8.82
   06/28/2020 18:00      70.2      69.3       61     55.8      0.00     17.48      81.1     0.47      1008.6     4.4       S   176   8.6       S     180     268        77       2.8      25.6      77.4      8.83
   06/28/2020 17:50      70.3      69.5       61     55.8      0.00     17.48      81.0     0.47      1008.7     3.7       S   169   7.7     SSE     152     268        64       2.4      25.1      77.5      8.83
   06/28/2020 17:40      71.5      70.3       58     55.7      0.00     17.48      81.0     0.47      1008.7     4.8     SSE   162   8.3       S     182     268       144       2.8      24.7      77.8      8.83
   06/28/2020 17:30      71.5      70.9       58     55.8      0.00     17.48      81.0     0.47      1008.8     5.0       S   170   9.1     SSW     193     268       246       3.0      24.3      77.7      8.83
   06/28/2020 17:20      71.5      70.3       59     55.7      0.00     17.48      80.9     0.47      1008.9     4.9       S   172   9.9       S     187     268       233       3.1      23.7      77.7      8.83
   06/28/2020 17:10      71.5      70.7       58     55.5      0.00     17.48      81.0     0.47      1008.9     5.8     SSE   153  10.0      SE     129     268       263       3.1      23.2      77.6      8.83
   06/28/2020 17:00      71.7      71.2       57     55.3      0.00     17.48      81.0     0.47      1009.0     4.1     SSE   159   7.6     SSE     161     268       118       2.2      22.7      77.6      8.84
   06/28/2020 16:50      73.1      71.2       56     55.4      0.00     17.48      80.9     0.47      1009.1     5.4     SSE   161   9.8     SSW     202     268       110       3.2      22.3      77.8      8.84
   06/28/2020 16:40      74.2      73.1       53     55.5      0.00     17.48      80.9     0.47      1009.3     3.0       S   173   7.1      SE     131     268       146       1.9      21.8      77.9      8.84
   06/28/2020 16:30      74.5      73.7       53     55.7      0.00     17.48      81.9     0.47      1009.5     3.4     SSW   198   9.2      SE     125     268       261       2.4      21.5      78.6      8.84
   06/28/2020 16:20      74.4      72.8       53     55.6      0.00     17.48      81.9     0.47      1009.5     3.7      SE   145   8.3      SE     139     267       552       2.3      21.1      78.2      8.85
   06/28/2020 16:10      74.4      72.9       53     55.5      0.00     17.48      82.0     0.47      1009.6     3.0      SE   125   7.3      SE     139     267       426       2.0      20.7      77.8      8.85
   06/28/2020 16:00      73.3      72.3       55     55.4      0.00     17.48      81.9     0.47      1009.7     2.7     ESE   103   6.4     ENE      75     268       277       1.6      20.4      77.5      8.85
   06/28/2020 15:50      73.0      72.2       55     55.3      0.00     17.48      82.0     0.47      1009.8     2.3       E    97   4.7     ESE     114     268       191       1.5      20.1      77.6      8.85
   06/28/2020 15:40      73.0      72.3       55     55.7      0.00     17.48      81.9     0.47      1009.9     2.8      SE   130   6.9      SE     134     268       169       1.7      19.8      77.5      8.85
   06/28/2020 15:30      72.7      72.2       54     54.6      0.00     17.48      81.9     0.47      1010.0     2.2     SSE   156   6.0     ENE      77     268       172       1.6      19.6      77.3      8.85
   06/28/2020 15:20      73.8      72.6       52     54.9      0.00     17.48      81.9     0.47      1010.2     4.2     SSW   200   7.6     SSW     210     268       326       3.1      19.3      77.3      8.85
   06/28/2020 15:10      73.8      71.2       55     55.5      0.00     17.48      82.0     0.47      1010.4     3.3     SSE   156   7.1     ESE     103     268       564       1.9      18.8      76.8      8.85
   06/28/2020 15:00      71.9      71.1       57     55.3      0.00     17.48      82.0     0.47      1010.6     2.8     ESE   102   5.9       W     276     268       260       1.7      18.5      76.2      8.85
   06/28/2020 14:50      72.3      71.1       56     55.4      0.00     17.48      82.0     0.47      1010.7     3.1      SE   142   6.3      SE     134     268       423       1.9      18.2      75.8      8.86
   06/28/2020 14:40      72.2      70.8       57     55.6      0.00     17.48      82.1     0.47      1010.8     3.2     SSE   159   6.6     ESE     114     268       624       2.1      17.9      75.1      8.86
   06/28/2020 14:30      71.1      70.0       60     56.0      0.00     17.48      82.1     0.47      1010.9     3.6     SSE   149   8.1      SE     143     268       542       1.9      17.5      74.5      8.86
   06/28/2020 14:20      70.5      69.3       61     56.2      0.00     17.48      82.2     0.47      1011.0     3.9       S   179   6.9     SSW     212     268       557       2.5      17.2      74.0      8.86
   06/28/2020 14:10      69.5      69.0       63     56.1      0.00     17.48      82.2     0.47      1011.1     4.6      SE   141   7.5      SE     124     268       515       2.3      16.8      73.4      8.86
   06/28/2020 14:00      69.5      68.1       64     56.2      0.00     17.48      82.2     0.47      1011.2     4.4       S   176  10.0       S     177     268       471       2.7      16.4      73.0      8.86
   06/28/2020 13:50      68.4      67.4       66     56.2      0.00     17.48      82.3     0.47      1011.3     3.9     SSE   152   8.5       S     190     269       319       2.6      15.9      72.4      8.86
   06/28/2020 13:40      67.9      67.0       67     56.2      0.00     17.48      82.2     0.47      1011.5     4.2     ESE   112   8.7      SE     133     269       229       2.3      15.5      72.0      8.86
   06/28/2020 13:30      68.4      67.8       65     56.0      0.00     17.48      82.3     0.47      1011.6     3.7      SE   126   6.9       E      80     269       141       1.9      15.1      71.7      8.86
   06/28/2020 13:20      69.3      68.2       63     55.9      0.00     17.48      82.3     0.47      1011.7     4.2       S   169   7.0      SE     136     268       195       2.4      14.8      71.7      8.86
   06/28/2020 13:10      69.7      69.2       62     55.8      0.00     17.48      82.3     0.47      1011.8     3.7      SE   142   7.8     ENE      60     268       281       2.0      14.4      71.5      8.86
   06/28/2020 13:00      69.5      68.2       63     55.9      0.00     17.48      82.3     0.47      1011.9     1.8     ESE   110   6.6      SE     142     268       306       1.0      14.0      71.1      8.86
   06/28/2020 12:50      68.2      67.4       66     55.9      0.00     17.48      82.3     0.47      1012.0     2.5     SSE   152   4.9       E      96     268       178       1.4      13.9      70.7      8.86
   06/28/2020 12:40      68.4      67.8       65     56.0      0.00     17.48      82.3     0.47      1012.1     3.2     ESE   123   7.6      SE     145     269       215       1.5      13.7      70.6      8.86
   06/28/2020 12:30      68.2      67.3       66     55.9      0.00     17.48      82.4     0.47      1012.1     2.4     ESE   116   4.8      SE     128     269       203       1.4      13.4      70.3      8.86
   06/28/2020 12:20      67.7      67.0       66     55.7      0.00     17.48      82.3     0.47      1012.2     3.5      SE   132   7.7      SE     134     269       210       1.7      13.2      70.0      8.86
   06/28/2020 12:10      68.2      66.4       66     55.8      0.00     17.48      82.3     0.47      1012.2     3.0     ESE   118   6.8       E      95     269       310       1.7      12.9      69.8      8.86
   06/28/2020 12:00      66.8      66.1       69     55.7      0.00     17.48      82.5     0.47      1012.4     3.5     ESE   122   7.6      SE     137     269       251       1.9      12.6      69.3      8.86
   06/28/2020 11:50      66.4      65.4       70     55.8      0.00     17.48      82.4     0.47      1012.5     3.5      SE   140   7.3      SE     138     269       198       2.0      12.3      69.0      8.87
   06/28/2020 11:40      65.8      65.3       71     55.8      0.00     17.48      82.4     0.47      1012.6     3.1      SE   128   5.8     ENE      63     270       107       1.4      11.9      68.8      8.87
   06/28/2020 11:30      65.6      65.3       71     55.8      0.00     17.48      82.4     0.47      1012.6     3.2      SE   138   5.7      SE     145     270        91       1.5      11.7      68.7      8.87
   06/28/2020 11:20      65.8      65.2       71     55.8      0.00     17.48      82.5     0.47      1012.7     2.4      SE   125   4.9      SE     143     270       101       1.2      11.5      68.6      8.87
   06/28/2020 11:10      65.3      64.8       72     55.8      0.00     17.48      82.4     0.47      1012.7     2.2      SE   133   4.8       S     182     270       108       1.2      11.3      68.5      8.87
   06/28/2020 11:00      65.2      64.8       72     55.6      0.00     17.48      82.5     0.47      1012.6     2.3     ESE   119   5.6      SE     141     270        82       1.3      11.1      68.3      8.87
   06/28/2020 10:50      65.0      64.2       73     55.6      0.00     17.48      82.4     0.47      1012.6     2.7      SE   126   6.0     SSE     148     270        88       1.1      10.8      68.3      8.87
   06/28/2020 10:40      64.7      64.2       74     55.8      0.00     17.48      82.5     0.47      1012.5     2.6      SE   126   6.0      SE     139     270        73       1.5      10.7      68.2      8.87
   06/28/2020 10:30      64.2      63.7       75     55.8      0.00     17.48      82.5     0.47      1012.6     2.7      SE   142   7.6     SSE     152     270        55       1.4      10.4      68.3      8.87
   06/28/2020 10:20      64.4      63.9       74     55.7      0.00     17.48      82.5     0.47      1012.5     3.4       S   177   6.5     SSW     193     270        53       1.9      10.2      68.2      8.87
   06/28/2020 10:10      64.7      64.2       73     55.7      0.00     17.48      82.5     0.47      1012.5     1.7     SSE   165   4.3     SSW     192     270        48       1.1       9.9      68.2      8.87
   06/28/2020 10:00      64.3      63.9       74     55.7      0.00     17.48      82.5     0.47      1012.5     1.6      SE   141   3.9      SE     132     270        52       0.6       9.7      68.2      8.87
   06/28/2020 09:50      64.2      63.4       76     56.1      0.00     17.48      82.5     0.47      1012.5     1.4       E    98   3.7      SE     131     270        77       0.5       9.6      68.2      8.87
   06/28/2020 09:40      63.5      63.2       77     56.2      0.00     17.48      82.6     0.47      1012.6     1.9      SE   141   5.0     ESE     121     271        70       0.9       9.5      68.1      8.87
   06/28/2020 09:30      63.6      63.2       77     55.9      0.00     17.48      82.6     0.47      1012.7     2.6      SE   141   5.6      SE     137     271        49       1.4       9.3      68.0      8.87
   06/28/2020 09:20      63.4      63.1       77     56.0      0.00     17.48      82.7     0.47      1012.7     1.9      SE   132   3.6     ESE     103     271        59       0.9       9.1      68.0      8.87
   06/28/2020 09:10      63.5      62.8       77     55.6      0.00     17.48      82.7     0.47      1012.8     2.8     SSE   153   5.7      SE     144     271        36       1.5       8.9      68.0      8.87
   06/28/2020 09:00      63.7      63.2       75     55.4      0.00     17.48      82.7     0.47      1012.8     1.8      SE   142   3.7     SSW     193     270        39       1.0       8.7      68.1      8.87
   06/28/2020 08:50      63.4      63.0       75     55.2      0.00     17.48      82.8     0.47      1012.7     2.5     SSE   149   5.1      SE     127     270        51       1.2       8.5      68.0      8.87
   06/28/2020 08:40      63.6      63.3       74     54.9      0.00     17.48      82.7     0.47      1012.8     2.8     ESE   122   5.7     SSE     160     270        36       1.4       8.3      68.0      8.87
   06/28/2020 08:30      63.6      63.2       73     54.6      0.00     17.48      82.8     0.47      1012.8     2.3     ESE   121   3.7       E      92     270        38       1.2       8.1      68.1      8.87
   06/28/2020 08:20      63.6      63.3       73     54.5      0.00     17.48      82.8     0.47      1012.7     3.6     ESE   123   5.8       E      99     270        32       1.7       7.9      68.1      8.87
   06/28/2020 08:10      63.9      63.5       73     54.9      0.00     17.48      82.8     0.47      1012.7     2.4      SE   124   5.6      SE     131     270        33       1.3       7.6      68.1      8.87
   06/28/2020 08:00      64.0      63.7       72     54.8      0.00     17.48      82.8     0.47      1012.7     2.4       E    99   4.9     ENE      63     270        17       1.2       7.4      68.1      8.87
   06/28/2020 07:50      63.9      63.7       72     54.6      0.00     17.48      82.8     0.47      1012.5     2.3       E    89   5.2     ENE      74     270        19       1.3       7.2      68.2      8.87
   06/28/2020 07:40      64.0      63.7       72     54.8      0.00     17.48      82.9     0.47      1012.6     1.9     ESE   103   3.9     ESE     110     270        21       0.9       7.0      68.3      8.88
   06/28/2020 07:30      64.1      63.6       72     54.7      0.00     17.48      82.9     0.47      1012.5     1.3     ESE   111   3.8       E      84     270        13       0.4       6.8      68.2      8.88
   06/28/2020 07:20      63.9      63.5       72     54.5      0.00     17.48      83.0     0.47      1012.5     1.5     ESE   104   3.9     ENE      57     270         7       0.6       6.8      68.3      8.88
   06/28/2020 07:10      63.8      63.4       72     54.2      0.00     17.48      83.0     0.47      1012.5     1.8     ESE   117   4.4       S     173     270         2       0.6       6.7      68.3      8.88
   06/28/2020 07:00      63.9      63.5       71     54.2      0.00     17.48      83.0     0.47      1012.5     1.5     ESE   107   4.3       E      95     270        -2       0.6       6.6      68.4      8.88
   06/28/2020 06:50      63.8      63.4       71     54.1      0.00     17.48      83.0     0.47      1012.4     1.9     SSE   151   4.1       S     180     270        -4       1.1       6.5      68.4      8.88
   06/28/2020 06:40      63.9      63.5       71     54.1      0.00     17.48      83.0     0.47      1012.2     2.6     SSE   149   6.2       S     172     270        -5       1.2       6.3      68.5      8.88
   06/28/2020 06:30      63.9      63.5       71     54.1      0.00     17.48      83.1     0.47      1012.3     1.3      SE   124   3.3      SE     139     270        -8       0.6       6.1      68.6      8.88
   06/28/2020 06:20      63.7      63.4       70     53.8      0.00     17.48      83.1     0.47      1012.2     2.6      SE   128   5.4     SSE     162     270        -9       1.5       6.0      68.7      8.88
   06/28/2020 06:10      63.9      63.5       71     54.0      0.00     17.48      83.1     0.47      1012.2     2.7      SE   135   7.9     SSE     147     270       -12       1.4       5.7      68.8      8.88
   06/28/2020 06:00      63.9      63.4       71     54.1      0.00     17.48      83.2     0.47      1012.2     1.9      SE   132   5.3       E      97     270       -14       1.1       5.5      68.9      8.88
   06/28/2020 05:50      63.7      63.4       71     54.2      0.00     17.48      83.2     0.47      1012.2     2.0     ESE   124   5.0     ESE     116     270       -16       1.3       5.3      69.0      8.88
   06/28/2020 05:40      63.7      63.4       71     54.0      0.00     17.48      83.3     0.47      1012.0     2.3       E    97   4.6      SE     132     270       -16       1.0       5.1      69.2      8.88
   06/28/2020 05:30      63.7      63.4       72     54.2      0.00     17.48      83.3     0.47      1011.9     2.3     ESE   110   5.6     ESE     108     270       -19       1.3       5.0      69.3      8.88
   06/28/2020 05:20      63.9      63.5       71     54.2      0.00     17.48      83.3     0.47      1011.9     2.4      SE   141   5.3      SE     142     270       -18       1.3       4.7      69.4      8.88
   06/28/2020 05:10      63.9      63.5       71     54.2      0.00     17.48      83.3     0.47      1011.8     2.3     ESE   122   4.9     ESE     114     270       -19       1.3       4.5      69.5      8.88
   06/28/2020 05:00      63.8      63.4       72     54.4      0.00     17.48      83.4     0.47      1011.8     1.7     ESE   123   3.9     ESE     102     270       -18       1.0       4.3      69.7      8.89
   06/28/2020 04:50      63.9      63.5       72     54.5      0.00     17.48      83.4     0.47      1011.9     2.8     ESE   104   5.9     ESE     118     270       -17       1.2       4.2      70.0      8.89
   06/28/2020 04:40      63.9      63.6       72     54.6      0.00     17.48      83.4     0.47      1012.0     2.0       E    97   4.5       E      92     270       -17       1.2       4.0      70.0      8.89
   06/28/2020 04:30      63.8      63.5       72     54.6      0.00     17.48      83.5     0.48      1011.9     2.6      SE   125   6.3      SE     130     270       -16       1.1       3.8      70.2      8.89
   06/28/2020 04:20      63.9      63.5       73     54.8      0.00     17.48      83.5     0.48      1011.9     1.9      SE   133   3.8       S     173     270       -17       0.9       3.6      70.3      8.89
   06/28/2020 04:10      63.9      63.5       73     55.0      0.00     17.48      83.6     0.47      1011.8     1.5      SE   133   3.9      SE     134     270       -17       0.6       3.4      70.5      8.89
   06/28/2020 04:00      63.9      63.4       74     55.0      0.00     17.48      83.6     0.47      1011.8     1.6      SE   127   3.7     SSE     163     270       -18       0.7       3.3      70.6      8.89
   06/28/2020 03:50      63.7      63.3       74     55.2      0.00     17.48      83.5     0.48      1011.8     1.3       E    88   3.1      SE     130     270       -18       0.5       3.2      70.8      8.89
   06/28/2020 03:40      63.5      63.0       76     55.5      0.00     17.48      83.6     0.48      1011.9     0.7       E    79   2.7     ESE     103     271       -17       0.4       3.1      70.9      8.89
   06/28/2020 03:30      63.4      62.9       77     55.8      0.00     17.48      83.6     0.48      1011.9     1.2       E    82   3.9     ENE      73     271       -16       0.6       3.1      71.1      8.89
   06/28/2020 03:20      63.0      62.5       78     55.8      0.00     17.48      83.7     0.48      1012.0     0.8       E    94   2.1       E      88     271       -16       0.5       3.0      71.2      8.89
   06/28/2020 03:10      62.8      62.5       78     55.8      0.00     17.48      83.7     0.48      1012.0     2.2      SE   141   5.6     SSE     157     271       -16       1.3       2.9      71.3      8.89
   06/28/2020 03:00      62.9      62.4       79     56.1      0.00     17.48      83.7     0.48      1012.0     1.7     ESE   113   4.9     SSE     157     271       -16       0.7       2.7      71.5      8.90
   06/28/2020 02:50      62.7      62.4       80     56.4      0.00     17.48      83.8     0.48      1012.0     1.6       E    81   4.9       E      91     271       -15       0.5       2.6      71.7      8.90
   06/28/2020 02:40      62.6      62.3       81     56.5      0.00     17.48      83.8     0.48      1012.0     1.9     ESE   121   4.0     SSE     149     271       -15       0.7       2.5      71.8      8.90
   06/28/2020 02:30      62.8      62.3       81     56.5      0.00     17.48      83.9     0.48      1012.1     1.2     ESE   114   4.5     ESE     103     271       -15       0.6       2.4      72.0      8.90
   06/28/2020 02:20      62.7      62.3       81     56.5      0.00     17.48      83.9     0.48      1012.1     0.5     ESE   116   2.1      SE     130     271       -15       0.3       2.3      72.2      8.90
   06/28/2020 02:10      62.5      62.2       81     56.5      0.00     17.48      83.9     0.48      1012.0     1.9     ESE   112   4.8     SSE     157     271       -15       0.9       2.2      72.4      8.90
   06/28/2020 02:00      62.6      62.3       80     56.4      0.00     17.48      83.9     0.48      1012.1     1.9     ESE   105   3.5     ESE     115     271       -15       0.8       2.1      72.5      8.90
   06/28/2020 01:50      62.6      62.2       81     56.4      0.00     17.48      84.0     0.48      1012.1     0.8       E    92   2.4      SE     131     271       -15       0.5       1.9      72.8      8.90
   06/28/2020 01:40      62.4      62.1       81     56.3      0.00     17.48      84.0     0.48      1012.1     1.3      SE   139   3.3      SE     128     271       -15       0.6       1.9      72.9      8.90
   06/28/2020 01:30      62.3      62.0       81     56.2      0.00     17.48      84.1     0.48      1012.2     1.4      SE   137   3.4      SE     129     271       -15       0.6       1.8      73.0      8.90
   06/28/2020 01:20      62.0      61.8       81     56.0      0.00     17.48      84.1     0.48      1012.2     1.7     SSE   150   3.9     SSE     151     271       -15       0.8       1.7      73.3      8.90
   06/28/2020 01:10      62.0      61.7       81     55.9      0.00     17.48      84.1     0.48      1012.2     2.3     SSE   154   4.7     SSE     153     271       -15       1.2       1.5      73.5      8.90
   06/28/2020 01:00      61.9      61.5       81     55.7      0.00     17.48      84.2     0.48      1012.3     2.0      SE   145   4.8      SE     138     271       -16       0.8       1.3      73.7      8.90
   06/28/2020 00:50      61.6      61.4       81     55.5      0.00     17.48      84.2     0.48      1012.3     2.0     SSE   154   4.5      SE     134     271       -26       1.1       1.2      74.0      8.90
   06/28/2020 00:40      61.8      61.4       80     55.3      0.00     17.48      84.3     0.48      1012.3     3.3      SE   130   5.1      SE     137     271       -57       1.8       1.0      74.3      8.91
   06/28/2020 00:30      62.4      61.7       79     55.2      0.00     17.48      84.2     0.48      1012.4     3.6      SE   130   6.0      SE     131     271       -62       1.7       0.7      74.6      8.91
   06/28/2020 00:20      63.5      62.1       76     55.2      0.00     17.48      84.2     0.48      1012.4     4.1      SE   131   7.0      SE     138     270       -63       1.8       0.4      75.1      8.91
   06/28/2020 00:10      64.1      63.5       75     55.6      0.00     17.48      84.2     0.48      1012.3     1.8       E    98   3.3     ENE      79     270       -63       0.7       0.1      75.5      8.91
   06/28/2020 00:00      64.5      64.0       74     55.8      0.00     17.48      84.3     0.48      1012.3     1.4       E    96   2.6      SE     125     270       -63       0.5      19.4      75.8      8.91
   06/27/2020 23:50      64.7      64.3       73     55.8      0.00     17.48      84.2     0.48      1012.2     1.7     ESE   122   3.7      SE     129     270       -63       0.6      19.3      76.2      8.91
   06/27/2020 23:40      65.1      64.5       72     55.8      0.00     17.48      84.3     0.48      1012.1     2.6      SE   137   4.6      SE     136     270       -62       0.8      19.2      76.4      8.92
   06/27/2020 23:30      65.6      65.0       71     55.8      0.00     17.48      84.3     0.48      1012.1     1.5      SE   136   3.8      SE     142     270       -62       0.4      19.1      76.8      8.92
   06/27/2020 23:20      65.6      65.3       71     55.8      0.00     17.48      84.2     0.48      1012.1     0.9       E    87   2.9       E      84     270       -62       0.4      19.0      77.1      8.92
   06/27/2020 23:10      65.9      65.6       70     55.9      0.00     17.48      84.3     0.48      1012.1     1.2     ENE    73   2.5       E      90     269       -63       0.4      18.9      77.4      8.92
   06/27/2020 23:00      66.5      65.8       69     55.9      0.00     17.48      84.2     0.48      1012.1     1.1     ENE    71   2.5     ENE      75     270       -63       0.2      18.9      77.7      8.92
   06/27/2020 22:50      66.8      66.3       68     55.9      0.00     17.48      84.2     0.48      1012.1     0.9     ENE    66   2.4     ENE      68     269       -63       0.3      18.8      78.0      8.92
   06/27/2020 22:40      67.0      66.7       68     55.9      0.00     17.48      84.3     0.48      1012.1     0.7      NE    49   2.3     NNE      28     269       -62       0.2      18.8      78.4      8.92
   06/27/2020 22:30      67.2      66.8       67     55.8      0.00     17.48      84.2     0.48      1012.0     0.8     ENE    68   1.8     ENE      66     269       -62       0.3      18.7      78.7      8.92
   06/27/2020 22:20      67.8      67.1       66     55.8      0.00     17.48      84.2     0.48      1012.0     1.3     ENE    65   2.7     ENE      77     269       -63       0.4      18.7      79.1      8.92
   06/27/2020 22:10      68.2      67.6       65     55.8      0.00     17.48      84.3     0.48      1012.0     0.9     ENE    57   2.1       E      98     268       -64       0.3      18.6      79.3      8.93
   06/27/2020 22:00      68.4      68.0       65     55.8      0.00     17.48      84.2     0.48      1012.0     1.1      NE    54   2.3      NE      56     268       -64       0.3      18.6      79.7      8.93
   06/27/2020 21:50      69.0      68.2       63     55.8      0.00     17.48      84.2     0.48      1012.0     1.3      NE    50   3.0     NNE      32     268       -66       0.4      18.5      79.9      8.93
   06/27/2020 21:40      69.5      68.9       62     55.6      0.00     17.48      84.1     0.48      1011.9     1.3     ENE    57   2.6      NE      56     268       -66       0.1      18.4      80.3      8.93
   06/27/2020 21:30      69.8      69.3       60     55.3      0.00     17.48      84.4     0.48      1011.9     0.7     ENE    64   2.2      NE      39     268       -67       0.3      18.4      80.9      8.93
   06/27/2020 21:20      70.1      69.5       59     55.0      0.00     17.48      84.8     0.48      1011.8     1.3       E    81   2.8      NE      53     268       -67       0.4      18.4      81.9      8.94
   06/27/2020 21:10      70.6      69.9       59     55.3      0.00     17.48      84.9     0.48      1011.8     1.1     ENE    79   3.0     ENE      75     268       -67       0.4      18.3      82.2      8.94
   06/27/2020 21:00      70.9      70.4       58     55.3      0.00     17.48      84.9     0.48      1011.7     1.1     ENE    67   2.4     ENE      77     267       -69       0.5      18.2      82.6      8.94
   06/27/2020 20:50      71.8      70.9       57     55.2      0.00     17.48      84.8     0.48      1011.7     1.4     ENE    65   3.3     NNE      18     267       -70       0.2      18.1      83.1      8.94
   06/27/2020 20:40      72.5      71.7       55     55.0      0.00     17.48      84.8     0.48      1011.6     1.3      NE    56   2.6     ENE      69     267       -71       0.4      18.1      83.5      8.95
   06/27/2020 20:30      73.0      72.2       51     53.6      0.00     17.48      84.9     0.48      1011.5     1.2     ENE    71   2.8       E      79     267       -71       0.4      18.1      84.2      8.95
   06/27/2020 20:20      73.3      72.7       50     53.5      0.00     17.48      85.3     0.48      1011.4     1.4     ESE   115   3.1      SE     131     266       -71       0.6      18.0      84.9      8.95
   06/27/2020 20:10      73.9      73.2       49     53.4      0.00     17.48      85.2     0.48      1011.5     2.0     ESE   110   4.8     SSE     149     266       -68       0.9      17.9      85.4      8.95
   06/27/2020 20:00      74.5      73.8       48     53.2      0.00     17.48      85.2     0.48      1011.5     2.0      SE   133   4.4      SE     139     266       -64       0.9      17.7      85.9      8.96
   06/27/2020 19:50      75.4      74.3       45     52.4      0.00     17.48      85.1     0.48      1011.5     2.4      SE   128   4.6       E      99     266       -61       1.2      17.6      86.4      8.96
   06/27/2020 19:40      76.4      75.2       43     51.9      0.00     17.48      85.1     0.48      1011.5     2.6     ESE   121   5.0      SE     131     266       -50       1.4      17.4      86.9      8.96
   06/27/2020 19:30      77.2      76.3       41     51.0      0.00     17.48      85.0     0.48      1011.5     2.3     ESE   123   4.5      SE     136     266       -33       1.2      17.1      87.4      8.97
   06/27/2020 19:20      77.6      77.0       39     50.5      0.00     17.48      85.0     0.48      1011.5     2.0     ESE   102   4.7      NE      51     266       -16       1.2      17.0      87.9      8.97
   06/27/2020 19:10      77.9      77.4       39     50.5      0.00     17.48      84.8     0.48      1011.5     2.4       E    88   4.4       E      96     266         4       1.1      16.8      88.3      8.97
   06/27/2020 19:00      78.6      77.8       37     50.1      0.00     17.48      84.6     0.48      1011.4     2.6       E    88   6.2     ENE      56     265        26       1.3      16.6      88.8      8.98
   06/27/2020 18:50      79.5      78.2       35     49.0      0.00     17.48      84.6     0.48      1011.4     3.9     ESE   117   6.8     SSE     159     265        45       2.0      16.4      89.1      8.98
   06/27/2020 18:40      79.7      79.2       34     48.8      0.00     17.48      84.5     0.47      1011.3     2.4     ESE   106   5.2      SE     134     265        66       1.4      16.0      89.6      8.99
   06/27/2020 18:30      79.9      79.3       35     49.7      0.00     17.48      84.5     0.48      1011.2     3.1     ESE   106   6.2     ESE     115     265        90       1.7      15.8      89.8      8.99
   06/27/2020 18:20      80.0      79.3       35     49.2      0.00     17.48      84.2     0.47      1011.2     3.7     ESE   113   8.0     ESE     116     265       116       2.1      15.5      90.1      9.00
   06/27/2020 18:10      81.0      80.0       34     49.5      0.00     17.48      84.1     0.47      1011.3     3.4     ESE   121   6.9     ESE     116     264       139       1.8      15.1      90.4      9.00
   06/27/2020 18:00      81.8      80.3       34     49.9      0.00     17.48      84.0     0.47      1011.3     4.3     ESE   122   7.3      SE     142     265       163       2.3      14.8      90.6      9.01
   06/27/2020 17:50      81.8      81.3       31     48.2      0.00     17.48      83.8     0.47      1011.3     3.4     ESE   112   7.4       E      85     264       185       1.8      14.5      90.8      9.01
   06/27/2020 17:40      82.0      81.4       30     47.7      0.00     17.48      83.5     0.47      1011.2     3.6      SE   141   6.7      SE     134     264       209       2.0      14.2      91.0      9.02
   06/27/2020 17:30      83.3      81.7       31     48.7      0.00     17.48      83.4     0.47      1011.2     3.9      SE   146   7.8      SE     136     264       232       2.3      13.8      91.1      9.02
   06/27/2020 17:20      83.4      82.4       30     47.9      0.00     17.48      83.3     0.47      1011.2     2.9     ESE   110   7.7     ENE      62     264       255       1.7      13.4      91.0      9.03
   06/27/2020 17:10      83.0      82.2       28     46.3      0.00     17.48      83.1     0.47      1011.2     4.0      SE   131   7.7     ENE      76     264       278       2.4      13.2      91.2      9.03
   06/27/2020 17:00      83.6      82.3       29     47.6      0.00     17.48      82.8     0.47      1011.3     4.4      SE   130   7.0      SE     140     264       302       2.2      12.8      91.2      9.04
   06/27/2020 16:50      84.4      83.5       30     48.9      0.00     17.48      82.6     0.47      1011.3     3.4     ESE   121   7.2       S     185     264       323       1.9      12.4      91.3      9.05
   06/27/2020 16:40      84.4      83.4       31     49.7      0.00     17.48      82.5     0.47      1011.3     3.7     ESE   123   7.2      SE     138     264       344       2.0      12.1      91.2      9.05
   06/27/2020 16:30      85.8      84.2       27     47.5      0.00     17.48      82.3     0.47      1011.2     3.4     ESE   107   7.8     ESE     114     264       362       2.2      11.7      91.2      9.06
   06/27/2020 16:20      86.4      85.0       27     47.5      0.00     17.48      82.2     0.47      1011.2     3.0       E    85   6.3      NE      54     264       382       1.7      11.4      91.2      9.06
   06/27/2020 16:10      86.4      85.4       26     47.0      0.00     17.48      82.0     0.47      1011.2     3.2       E    83   6.4       E     101     264       401       2.0      11.1      91.3      9.07
   06/27/2020 16:00      87.1      86.1       23     44.2      0.00     17.48      81.9     0.47      1011.2     3.7     ENE    78   7.6       E      96     263       419       2.0      10.7      91.1      9.07
   06/27/2020 15:50      87.0      85.5       20     40.8      0.00     17.48      81.8     0.47      1011.3     2.6       E    98   7.2     ENE      71     263       437       1.8      10.4      91.0      9.08
   06/27/2020 15:40      86.7      85.5       24     45.2      0.00     17.48      81.7     0.47      1011.4     3.6     ESE   104   7.6     ENE      74     263       455       2.1      10.1      91.0      9.08
   06/27/2020 15:30      87.2      86.4       24     46.2      0.00     17.48      81.6     0.47      1011.5     4.0      SE   127   8.4      SE     146     264       472       2.1       9.8      90.7      9.09
   06/27/2020 15:20      89.3      87.2       24     46.8      0.00     17.48      81.6     0.47      1011.6     3.9     ESE   108   8.9       E      87     263       484       2.4       9.4      90.7      9.09
   06/27/2020 15:10      89.6      88.8       22     45.4      0.00     17.48      81.5     0.47      1011.6     3.2     ENE    61   6.3      NE      45     263       493       1.8       9.0      90.4      9.10
   06/27/2020 15:00      89.6      88.9       22     45.6      0.00     17.48      81.4     0.47      1011.7     3.0      NE    55   5.3      NE      39     264       507       1.4       8.7      90.2      9.10
   06/27/2020 14:50      89.0      88.0       22     44.2      0.00     17.48      81.4     0.47      1011.7     3.0      NE    49   6.2     ENE      77     264       518       1.7       8.5      89.9      9.10
   06/27/2020 14:40      89.5      88.7       21     43.6      0.00     17.48      81.2     0.47      1011.8     2.9      NE    45   5.7     ESE     116     263       526       1.4       8.2      89.5      9.11
   06/27/2020 14:30      89.8      87.5       23     45.7      0.00     17.48      81.3     0.47      1011.9     2.4      NE    43   6.1     ENE      57     264       538       1.5       8.0      89.0      9.11
   06/27/2020 14:20      87.8      86.2       25     46.6      0.00     17.48      81.2     0.47      1012.0     2.9     ENE    64   5.0     ENE      69     264       552       1.5       7.7      88.9      9.11
   06/27/2020 14:10      87.3      86.6       27     49.4      0.00     17.48      81.2     0.47      1012.1     3.0     ESE   105   6.7     SSE     160     264       561       2.2       7.5      88.6      9.11
   06/27/2020 14:00      88.2      86.7       30     52.7      0.00     17.48      81.1     0.47      1012.2     2.4      NE    51   5.3       E      94     265       565       1.2       7.1      88.2      9.12
   06/27/2020 13:50      87.3      86.2       32     53.3      0.00     17.48      81.1     0.47      1012.3     2.1     ENE    63   6.1      SE     136     265       573       1.6       6.9      87.5      9.12
   06/27/2020 13:40      86.9      86.2       32     53.1      0.00     17.48      81.1     0.47      1012.5     2.1       E    88   4.7      SE     137     264       578       1.1       6.6      86.9      9.12
   06/27/2020 13:30      86.6      84.8       33     52.9      0.00     17.48      81.1     0.47      1012.6     2.4     ENE    57   4.6     ENE      57     264       585       1.4       6.4      86.5      9.12
   06/27/2020 13:20      86.4      83.8       34     53.7      0.00     17.48      81.1     0.47      1012.7     2.3     ENE    59   5.0       E      79     263       587       1.4       6.2      85.6      9.13
   06/27/2020 13:10      84.9      83.5       37     55.4      0.00     17.48      81.1     0.47      1012.8     2.7     ENE    63   6.6     ENE      63     265       590       1.6       6.0      85.0      9.13
   06/27/2020 13:00      85.2      83.4       38     55.9      0.00     17.48      81.1     0.47      1012.9     1.9      NE    44   4.4     NNE      31     264       591       1.1       5.7      84.4      9.13
   06/27/2020 12:50      84.2      83.1       41     57.1      0.00     17.48      81.0     0.47      1013.0     2.4      NE    53   5.5     SSE     150     264       592       1.2       5.5      83.6      9.13
   06/27/2020 12:40      83.5      82.4       43     57.9      0.00     17.48      81.1     0.47      1013.1     2.2      NE    51   6.1     ENE      69     265       591       1.5       5.3      82.9      9.13
   06/27/2020 12:30      83.2      81.0       44     57.9      0.00     17.48      81.1     0.47      1013.3     1.8     NNE    31   5.4      NE      54     265       588       0.9       5.1      82.3      9.13
   06/27/2020 12:20      81.8      80.9       45     58.3      0.00     17.48      81.2     0.47      1013.3     2.1     ENE    61   5.6      NE      38     265       585       1.3       4.9      81.6      9.13
   06/27/2020 12:10      81.3      80.3       47     58.6      0.00     17.48      81.1     0.47      1013.4     2.2      NE    43   4.6      NE      35     265       572       1.3       4.7      80.7      9.14
   06/27/2020 12:00      80.8      80.4       47     58.6      0.00     17.48      81.0     0.47      1013.5     2.7      NE    40   4.7      NE      38     265       571       1.5       4.5      80.1      9.14
   06/27/2020 11:50      80.8      79.3       48     58.7      0.00     17.48      81.3     0.47      1013.6     2.4      NE    44   4.8      NE      47     265       564       1.4       4.2      79.5      9.14
   06/27/2020 11:40      80.2      78.5       49     58.6      0.00     17.48      81.2     0.47      1013.6     2.0     ENE    71   5.7     ENE      72     265       557       1.2       4.0      78.7      9.14
   06/27/2020 11:30      79.2      77.9       50     58.7      0.00     17.48      81.3     0.47      1013.6     2.1      NE    35   4.9     ENE      73     266       547       0.7       3.8      77.8      9.14
   06/27/2020 11:20      78.5      78.0       51     58.7      0.00     17.48      81.3     0.47      1013.7     2.0      NE    44   5.5       N       7     265       539       1.1       3.7      77.1      9.14
   06/27/2020 11:10      78.3      77.0       52     58.5      0.00     17.48      81.2     0.47      1013.7     1.5     NNE    18   4.7       N       7     266       528       0.8       3.5      76.4      9.14
   06/27/2020 11:00      77.3      76.5       53     58.4      0.00     17.48      81.3     0.47      1013.8     2.0     ENE    70   4.9     ESE     113     266       518       1.2       3.4      75.8      9.14
   06/27/2020 10:50      76.6      75.0       54     58.3      0.00     17.48      81.3     0.47      1013.9     1.4     NNE    31   3.8      NW     325     266       508       0.8       3.1      75.3      9.14
   06/27/2020 10:40      75.1      73.8       57     58.0      0.00     17.48      81.3     0.47      1013.9     2.1     ENE    63   4.5       E      98     266       496       1.1       3.0      74.7      9.14
   06/27/2020 10:30      74.3      73.2       58     57.9      0.00     17.48      81.4     0.47      1013.8     1.5     NNE    33   4.4     NNE      14     266       481       1.0       2.8      74.0      9.14
   06/27/2020 10:20      73.3      72.1       60     57.9      0.00     17.48      81.4     0.47      1013.8     2.2     NNE    20   4.0      NE      53     266       466       0.8       2.7      73.6      9.14
   06/27/2020 10:10      72.3      71.4       61     57.7      0.00     17.48      81.5     0.47      1013.8     2.0     NNE    22   4.2     NNE      31     266       449       0.9       2.5      72.9      9.14
   06/27/2020 10:00      71.9      71.3       62     57.6      0.00     17.48      81.5     0.47      1013.8     1.9     ESE   103   3.7      SE     132     266       433       1.2       2.4      72.4      9.14
   06/27/2020 09:50      71.5      70.3       63     57.6      0.00     17.48      81.5     0.47      1013.7     1.6     ENE    79   3.3      NE      48     266       413       1.2       2.2      71.9      9.14
   06/27/2020 09:40      70.6      69.3       65     57.6      0.00     17.48      81.6     0.47      1013.8     1.8     NNE    31   3.7      NE      51     267       395       0.7       2.0      71.2      9.14
   06/27/2020 09:30      69.4      68.0       67     57.3      0.00     17.48      81.6     0.47      1013.9     1.5      NE    36   3.4     ESE     103     267       377       0.8       1.9      70.8      9.15
   06/27/2020 09:20      68.3      67.2       69     57.4      0.00     17.48      81.7     0.47      1014.0     1.8      NE    54   3.5      NE      41     267       358       0.6       1.7      70.5      9.15
   06/27/2020 09:10      67.3      66.2       72     57.3      0.00     17.48      81.7     0.47      1014.0     1.6       E    87   3.9     ESE     116     268       343       0.9       1.6      70.1      9.15
   06/27/2020 09:00      66.4      64.8       75     57.3      0.00     17.48      81.7     0.47      1014.1     1.3     ENE    60   3.2     NNE      32     268       339       0.5       1.5      69.8      9.14
   06/27/2020 08:50      65.1      64.7       77     57.4      0.00     17.48      81.8     0.47      1014.1     1.3      NE    51   3.1     SSE     156     270       193       0.7       1.4      69.4      9.15
   06/27/2020 08:40      64.6      63.5       79     57.3      0.00     17.48      81.8     0.47      1014.0     0.7       E    80   2.6       E      94     270        89       0.3       1.3      69.0      9.15
   06/27/2020 08:30      63.7      62.6       81     57.3      0.00     17.48      81.9     0.47      1014.0     1.1      NE    55   2.9     ESE     103     270       132       0.4       1.2      68.9      9.15
   06/27/2020 08:20      62.9      62.2       83     57.1      0.00     17.48      82.0     0.47      1014.1     1.1     ENE    68   2.8       E      95     271       130       0.5       1.1      68.7      9.15
   06/27/2020 08:10      62.5      62.1       83     57.0      0.00     17.48      82.0     0.47      1014.1     1.4     ENE    74   2.7     NNE      26     271       109       0.8       1.1      68.6      9.15
   06/27/2020 08:00      62.4      62.1       83     57.0      0.00     17.48      82.1     0.47      1014.1     1.2      NE    54   2.7      NE      41     272        91       0.4       0.9      68.5      9.15
   06/27/2020 07:50      62.3      61.7       84     57.2      0.00     17.48      82.1     0.47      1014.0     1.1     NNE    22   3.1       N      10     272        81       0.4       0.9      68.5      9.15
   06/27/2020 07:40      61.8      60.8       86     57.1      0.00     17.48      82.2     0.47      1013.9     0.9     NNE    33   2.4      NE      43     272        71       0.3       0.8      68.3      9.15
   06/27/2020 07:30      61.0      60.6       86     56.8      0.00     17.48      82.3     0.47      1013.9     1.4       E    99   2.9       E      83     272        56       0.8       0.7      68.3      9.15
   06/27/2020 07:20      60.7      60.3       87     56.5      0.00     17.48      82.3     0.47      1013.8     1.5       E    85   3.5       E      87     272        48       0.7       0.6      68.3      9.15
   06/27/2020 07:10      60.8      60.3       87     56.6      0.00     17.48      82.3     0.47      1013.9     1.0      NE    54   2.6       E      97     273        35       0.3       0.5      68.4      9.15
   06/27/2020 07:00      60.4      60.1       87     56.5      0.00     17.48      82.4     0.47      1013.8     0.8      NE    40   1.9      NE      37     274         9       0.1       0.4      68.4      9.15
   06/27/2020 06:50      60.4      60.0       87     56.3      0.00     17.48      82.4     0.47      1013.7     1.1     ENE    79   3.4       E      97     273        10       0.6       0.4      68.5      9.15
   06/27/2020 06:40      60.4      60.1       87     56.2      0.00     17.48      82.5     0.47      1013.6     0.7       E    83   2.6       E      97     273        -6       0.3       0.3      68.5      9.15
   06/27/2020 06:30      60.3      60.0       86     56.0      0.00     17.48      82.5     0.47      1013.5     0.8       E    80   2.3      NE      53     261       -25       0.2       0.2      68.7      9.15
   06/27/2020 06:20      60.2      59.8       86     55.8      0.00     17.48      82.6     0.47      1013.5     0.5     ENE    70   1.4       N       9     255       -33       0.3       0.2      68.8      9.15
   06/27/2020 06:10      60.2      59.8       86     55.7      0.00     17.48      82.7     0.47      1013.5     0.3       E    93   1.4       E      80     237       -39       0.1       0.2      69.0      9.15
   06/27/2020 06:00      60.3      60.0       85     55.6      0.00     17.48      82.7     0.47      1013.3     0.4     ENE    77   1.4     ENE      58     232       -44       0.1       0.2      69.2      9.15
   06/27/2020 05:50      60.4      60.1       85     55.6      0.00     17.48      82.7     0.48      1013.2     0.4     ENE    67   1.3      NE      54     230       -49       0.1       0.1      69.4      9.15
   06/27/2020 05:40      60.6      60.1       84     55.5      0.00     17.48      82.8     0.48      1013.2     0.2     ENE    79   1.9      NE      54     234       -52       0.0       0.1      69.7      9.15
   06/27/2020 05:30      60.6      60.3       84     55.6      0.00     17.48      82.8     0.48      1013.1     0.6     ENE    63   1.8     ENE      57     246       -53       0.0       0.1      69.9      9.15
   06/27/2020 05:20      60.8      60.3       84     55.6      0.00     17.48      82.9     0.48      1013.1     0.2       E    92   0.9     ENE      69     250       -54       0.0       0.0      70.0      9.16
   06/27/2020 05:10      61.1      60.8       84     55.9      0.00     17.48      82.9     0.48      1013.0     0.3       E    80   1.3       E      92     254       -54       0.0       0.0      70.3      9.16
   06/27/2020 05:00      61.1      60.8       83     55.8      0.00     17.48      82.9     0.48      1012.9     0.8     ESE   117   2.4       E      86     265       -53       0.2       0.0      70.4      9.16
   06/27/2020 04:50      61.2      60.8       83     55.7      0.00     17.48      82.3     0.48      1012.8     0.6       E   101   1.8     ENE      70     268       -53       0.2       0.0      69.9      9.16
   06/27/2020 04:40      61.2      60.8       82     55.4      0.00     17.48      82.3     0.48      1012.8     0.2     ENE    74   2.7       E      94     268       -53       0.0       0.0      70.1      9.16
   06/27/2020 04:30      61.1      60.8       82     55.3      0.00     17.48      82.4     0.48      1012.7     0.1     ENE    77   0.9     ENE      62     266       -53       0.0       0.0      70.3      9.16
   06/27/2020 04:20      61.2      60.8       82     55.2      0.00     17.48      82.5     0.48      1012.7     0.1     ESE   108   1.6     ENE      67     266       -53       0.0       0.0      70.5      9.16
   06/27/2020 04:10      61.1      60.7       81     54.9      0.00     17.48      82.6     0.48      1012.7     0.0       N     0   0.0     ENE      59     265       -53       0.0       0.0      70.8      9.16
   06/27/2020 04:00      61.1      60.8       80     54.7      0.00     17.48      82.5     0.48      1012.7     0.0     ENE    59   0.3     ENE      59     269       -54       0.0       0.0      71.1      9.16
   06/27/2020 03:50      61.2      60.9       80     54.7      0.00     17.48      82.7     0.48      1012.6     0.0     ENE    74   0.4       E      90     270       -54       0.0       0.0      71.3      9.16
   06/27/2020 03:40      61.4      61.0       80     54.7      0.00     17.48      82.7     0.48      1012.6     0.0       N     0   0.0       S     182     270       -54       0.0       0.0      71.5      9.16
   06/27/2020 03:30      61.5      61.0       78     54.5      0.00     17.48      82.8     0.48      1012.5     0.0       N     0   0.0       S     182     270       -53       0.0       0.0      71.7      9.16
   06/27/2020 03:20      61.8      61.4       78     54.8      0.00     17.48      82.9     0.48      1012.5     0.0       N     0   0.0       S     183     270       -54       0.0       0.0      72.0      9.16
   06/27/2020 03:10      61.9      61.5       78     54.7      0.00     17.48      82.9     0.48      1012.6     0.2       S   186   0.9       S     183     271       -54       0.0       0.0      72.3      9.17
   06/27/2020 03:00      62.1      61.7       76     54.4      0.00     17.48      82.9     0.48      1012.6     0.0     SSE   160   0.8      SE     142     271       -55       0.0       0.0      72.6      9.17
   06/27/2020 02:50      62.1      61.7       76     54.1      0.00     17.48      83.0     0.48      1012.6     0.0     SSW   195   0.5     SSW     195     271       -55       0.0       0.0      72.8      9.17
   06/27/2020 02:40      62.5      61.8       74     53.8      0.00     17.48      83.1     0.48      1012.6     0.0     SSE   156   0.4     SSE     156     271       -55       0.0       0.0      73.0      9.17
   06/27/2020 02:30      62.5      62.1       74     53.9      0.00     17.48      83.1     0.48      1012.7     0.0       N     0   0.0       S     175     271       -55       0.0       0.0      73.4      9.17
   06/27/2020 02:20      62.6      62.3       74     54.0      0.00     17.48      83.2     0.48      1012.7     0.2       S   182   1.1       S     181     271       -55       0.0       0.0      73.7      9.17
   06/27/2020 02:10      62.6      62.3       73     53.9      0.00     17.48      83.2     0.48      1012.8     0.2       S   187   0.9       S     182     271       -55       0.0       0.0      74.0      9.17
   06/27/2020 02:00      62.9      62.4       72     53.6      0.00     17.48      83.3     0.48      1012.8     0.0       N     0   0.0       S     169     270       -56       0.0       0.0      74.3      9.17
   06/27/2020 01:50      63.1      62.7       71     53.5      0.00     17.48      83.2     0.48      1012.9     0.0     SSE   167   0.5     SSE     167     270       -57       0.0       0.0      74.5      9.17
   06/27/2020 01:40      63.0      62.5       71     53.3      0.00     17.48      83.3     0.48      1012.9     0.2       S   184   0.9       S     191     270       -57       0.0       0.0      74.9      9.18
   06/27/2020 01:30      63.1      62.7       70     53.1      0.00     17.48      83.4     0.48      1012.9     0.2       S   173   0.8      SE     144     270       -58       0.0       0.0      75.1      9.18
   06/27/2020 01:20      63.5      62.8       68     52.6      0.00     17.48      83.4     0.48      1013.0     0.0       N     0   0.0     SSE     146     270       -59       0.0       0.0      75.4      9.18
   06/27/2020 01:10      63.9      63.3       68     52.8      0.00     17.48      83.4     0.48      1013.0     0.3       S   184   1.2     SSW     192     270       -58       0.0       0.0      75.8      9.18
   06/27/2020 01:00      64.4      63.7       67     52.8      0.00     17.48      83.4     0.48      1013.0     0.0       N     0   0.0       S     175     270       -58       0.0       0.0      76.0      9.18
   06/27/2020 00:50      64.7      64.2       66     52.9      0.00     17.48      83.6     0.48      1013.1     0.0       N     0   0.0       S     174     270       -59       0.0       0.0      76.3      9.18
   06/27/2020 00:40      65.0      64.4       66     53.0      0.00     17.48      83.5     0.48      1013.2     0.2       S   186   1.2     SSW     203     269       -59       0.0       0.0      76.7      9.18
   06/27/2020 00:30      65.0      64.7       65     52.9      0.00     17.48      83.6     0.48      1013.3     0.2      SE   129   1.3     ESE     107     269       -60       0.0       0.0      77.0      9.18
   06/27/2020 00:20      65.6      65.0       64     52.9      0.00     17.48      83.6     0.48      1013.4     0.5      SE   136   1.2      SE     134     269       -60       0.0       0.0      77.1      9.19
   06/27/2020 00:10      65.9      65.4       63     52.8      0.00     17.48      83.7     0.48      1013.5     0.0      SE   135   0.4      SE     134     269       -60       0.0       0.0      77.5      9.19
   06/27/2020 00:00      66.0      65.7       63     52.7      0.00     17.48      83.6     0.48      1013.6     0.0     SSE   148   0.7     SSE     148     269       -59       0.0      17.2      77.9      9.19
   06/26/2020 23:50      66.2      65.8       62     52.6      0.00     17.48      83.6     0.48      1013.6     0.2     ESE   120   1.2      SE     139     269       -59       0.0      17.2      78.2      9.19
   06/26/2020 23:40      66.5      66.1       62     52.7      0.00     17.48      83.7     0.48      1013.6     0.0     SSE   159   0.9     SSE     167     268       -59       0.0      17.2      78.5      9.19
   06/26/2020 23:30      66.9      66.4       61     52.7      0.00     17.48      83.8     0.48      1013.6     0.0       E    81   0.8      NE      51     268       -60       0.0      17.2      78.9      9.19
   06/26/2020 23:20      67.5      66.8       60     52.7      0.00     17.48      83.8     0.48      1013.5     0.0     SSE   159   0.5     ESE     112     268       -60       0.0      17.2      79.1      9.20
   06/26/2020 23:10      67.6      67.3       59     52.7      0.00     17.48      83.8     0.48      1013.5     0.5     ESE   103   1.9      SE     144     268       -62       0.0      17.2      79.5      9.20
   06/26/2020 23:00      67.8      67.5       59     52.8      0.00     17.48      83.8     0.48      1013.5     0.5       E   100   2.8       E      87     268       -62       0.1      17.2      79.8      9.20
   06/26/2020 22:50      67.9      67.7       59     53.1      0.00     17.48      83.8     0.48      1013.6     0.6     ESE   103   1.6     ENE      73     268       -63       0.2      17.2      80.2      9.20
   06/26/2020 22:40      68.2      67.8       59     53.2      0.00     17.48      83.9     0.48      1013.5     0.3       E    96   1.3      NE      44     268       -64       0.0      17.1      80.6      9.20
   06/26/2020 22:30      68.8      68.1       58     53.2      0.00     17.48      83.9     0.48      1013.5     0.1      SE   140   1.2     SSE     148     268       -64       0.0      17.1      81.0      9.20
   06/26/2020 22:20      69.0      68.6       58     53.4      0.00     17.48      83.9     0.48      1013.4     0.1     ENE    67   1.2      NE      37     268       -64       0.0      17.1      81.3      9.21
   06/26/2020 22:10      69.1      68.7       59     54.2      0.00     17.48      83.9     0.48      1013.4     0.6     ENE    62   1.8       E      79     268       -65       0.0      17.1      81.7      9.21
   06/26/2020 22:00      69.3      68.9       63     55.8      0.00     17.48      83.9     0.48      1013.3     0.3     ESE   112   1.1      SE     134     268       -65       0.0      17.1      82.1      9.21
   06/26/2020 21:50      69.5      69.1       63     56.3      0.00     17.48      84.0     0.48      1013.2     0.8     ESE   109   2.2     ESE     105     268       -65       0.3      17.1      82.4      9.21
   06/26/2020 21:40      69.8      69.3       63     56.4      0.00     17.48      83.9     0.48      1013.1     0.7     ESE   107   1.9     ENE      58     268       -66       0.0      17.1      82.7      9.22
   06/26/2020 21:30      70.9      69.7       61     56.4      0.00     17.48      83.9     0.48      1013.0     0.5      SE   132   1.4      SE     126     268       -67       0.0      17.1      83.2      9.22
   06/26/2020 21:20      71.1      70.8       61     56.7      0.00     17.48      83.9     0.48      1012.9     0.6      NE    36   1.7       N       7     268       -68       0.0      17.1      83.4      9.22
   06/26/2020 21:10      71.4      70.8       61     57.0      0.00     17.48      83.9     0.48      1012.7     0.3     NNE    29   1.9     NNE      22     268       -68       0.0      17.1      83.9      9.22
   06/26/2020 21:00      71.4      71.1       61     57.1      0.00     17.48      83.8     0.48      1012.7     0.6     NNE    28   2.5      NE      54     268       -69       0.0      17.1      84.3      9.23
   06/26/2020 20:50      71.7      71.2       60     57.0      0.00     17.48      83.8     0.48      1012.6     1.0      NE    36   2.4      NE      54     268       -70       0.3      17.0      84.7      9.23
   06/26/2020 20:40      72.0      71.5       60     57.0      0.00     17.48      83.8     0.48      1012.6     0.6      NE    53   2.2     ENE      58     268       -70       0.2      17.0      85.2      9.23
   06/26/2020 20:30      73.0      71.8       58     57.0      0.00     17.48      83.8     0.48      1012.5     1.3     ENE    74   3.2     ENE      76     267       -71       0.7      16.9      85.6      9.23
   06/26/2020 20:20      74.0      72.9       56     57.0      0.00     17.48      83.8     0.48      1012.3     1.1     ENE    77   3.5       E     101     267       -71       0.5      16.8      86.2      9.24
   06/26/2020 20:10      74.8      74.0       55     57.0      0.00     17.48      83.9     0.48      1012.4     1.3      NE    56   2.9     ENE      58     267       -69       0.4      16.8      86.8      9.24
   06/26/2020 20:00      76.7      74.8       53     57.1      0.00     17.48      83.8     0.48      1012.2     1.5     ENE    68   2.9       E      84     267       -66       0.5      16.7      87.4      9.24
   06/26/2020 19:50      77.7      76.7       50     57.2      0.00     17.48      83.9     0.48      1012.0     1.1     NNE    28   2.9     NNE      27     266       -61       0.4      16.6      87.9      9.25
   06/26/2020 19:40      78.4      77.6       49     57.3      0.00     17.48      83.8     0.48      1011.9     1.1     NNE    33   2.8     NNE      24     266       -50       0.4      16.5      88.4      9.25
   06/26/2020 19:30      79.4      78.3       48     57.3      0.00     17.48      83.8     0.48      1011.8     1.7      NE    35   3.1      NE      34     266       -33       0.7      16.5      88.9      9.25
   06/26/2020 19:20      80.8      79.4       46     57.6      0.00     17.48      83.6     0.48      1011.7     2.1      NE    42   3.8     ENE      63     265       -16       0.9      16.4      89.3      9.26
   06/26/2020 19:10      81.9      80.9       43     57.2      0.00     17.48      83.5     0.48      1011.6     1.8     ENE    75   4.1      NE      43     265         3       0.9      16.2      89.7      9.26
   06/26/2020 19:00      83.0      81.6       42     56.8      0.00     17.48      83.6     0.48      1011.4     3.0     SSE   162   5.2      SE     136     265        23       1.8      16.1      90.1      9.26
   06/26/2020 18:50      83.5      82.5       41     56.7      0.00     17.48      83.5     0.47      1011.3     3.1     SSE   157   7.9       S     177     265        43       2.0      15.8      90.4      9.27
   06/26/2020 18:40      84.2      83.4       40     56.7      0.00     17.48      83.4     0.47      1011.1     3.6     SSE   165   6.6      SE     136     265        65       2.2      15.4      91.0      9.27
   06/26/2020 18:30      85.3      84.1       38     56.7      0.00     17.48      83.3     0.47      1011.0     3.9       S   170   7.4     SSE     162     265        89       2.6      15.1      91.3      9.28
   06/26/2020 18:20      87.4      85.2       36     56.7      0.00     17.48      83.2     0.47      1010.8     4.0       S   171   7.7     SSW     203     265       112       2.4      14.7      91.7      9.28
   06/26/2020 18:10      88.8      86.4       34     55.7      0.00     17.48      83.3     0.47      1010.8     4.9      SW   229  10.9      SW     215     265       133       3.6      14.3      91.9      9.29
   06/26/2020 18:00      89.7      88.7       30     53.9      0.00     17.48      83.1     0.47      1010.8     2.7     WSW   251   7.8     SSW     207     265       155       2.2      13.6      92.2      9.29
   06/26/2020 17:50      88.8      88.0       32     54.8      0.00     17.48      83.0     0.47      1010.7     3.8     SSE   161   6.9      SE     134     265       182       2.5      13.3      92.5      9.29
   06/26/2020 17:40      88.4      87.5       33     55.5      0.00     17.48      82.9     0.47      1010.7     4.8     SSE   166   9.2      SW     230     264       207       3.3      12.9      92.8      9.30
   06/26/2020 17:30      88.6      87.7       36     57.6      0.00     17.48      82.9     0.47      1010.8     3.5     SSW   202   9.0       W     269     265       231       2.5      12.3      92.9      9.31
   06/26/2020 17:20      88.7      87.5       36     57.6      0.00     17.48      82.8     0.47      1010.9     3.4     SSE   153   6.3     SSW     207     265       251       2.0      11.9      93.0      9.31
   06/26/2020 17:10      88.6      87.8       35     57.0      0.00     17.48      82.6     0.47      1010.9     3.4       S   185   7.3     SSW     204     265       273       2.4      11.6      93.1      9.31
   06/26/2020 17:00      88.1      87.3       34     55.7      0.00     17.48      82.6     0.47      1010.9     4.3     SSE   154   7.5     SSW     193     264       296       2.2      11.2      93.3      9.32
   06/26/2020 16:50      89.1      87.7       33     55.5      0.00     17.48      82.4     0.47      1011.0     3.9      SE   144   7.6      SE     139     264       316       2.2      10.8      93.3      9.32
   06/26/2020 16:40      89.9      88.8       31     55.3      0.00     17.48      82.3     0.47      1011.0     3.2       S   186   7.0     SSW     214     264       334       2.1      10.4      93.0      9.33
   06/26/2020 16:30      90.9      88.8       31     55.0      0.00     17.48      82.2     0.47      1011.0     3.6     SSE   167   6.3       S     174     264       355       2.1      10.1      93.1      9.33
   06/26/2020 16:20      91.8      90.4       23     48.4      0.00     17.48      82.2     0.47      1011.1     2.2      SE   135   6.1     WSW     238     264       370       1.8       9.7      93.1      9.33
   06/26/2020 16:10      91.9      90.6       22     46.8      0.00     17.48      82.0     0.47      1011.2     2.0       E    92   4.7     ENE      71     264       388       1.3       9.4      92.9      9.34
   06/26/2020 16:00      91.8      90.9       21     46.3      0.00     17.48      82.0     0.47      1011.3     2.2       E    87   5.0     SSW     194     264       408       1.4       9.2      92.7      9.34
   06/26/2020 15:50      92.0      91.1       20     44.4      0.00     17.48      81.8     0.47      1011.4     2.8     ENE    75   5.1     ENE      70     263       423       1.4       8.9      92.5      9.34
   06/26/2020 15:40      91.9      90.7       21     45.4      0.00     17.48      81.7     0.47      1011.5     2.8     ENE    62   7.8     ESE     114     264       441       1.5       8.7      92.2      9.35
   06/26/2020 15:30      92.0      91.1       23     48.5      0.00     17.48      81.7     0.47      1011.6     2.4     ENE    65   5.7       E      86     264       457       1.3       8.5      92.0      9.35
   06/26/2020 15:20      91.5      90.9       24     49.5      0.00     17.48      81.9     0.47      1011.6     2.4      NE    55   5.1      SE     125     264       471       1.5       8.3      92.0      9.35
   06/26/2020 15:10      91.7      90.9       25     50.2      0.00     17.48      81.8     0.47      1011.6     2.5     ENE    58   5.1     ENE      62     264       487       1.6       8.0      92.1      9.35
   06/26/2020 15:00      91.9      90.9       26     51.8      0.00     17.48      81.8     0.47      1011.7     2.7      NE    46   7.6      SE     125     265       499       1.5       7.7      91.8      9.36
   06/26/2020 14:50      90.9      89.1       28     52.8      0.00     17.48      81.9     0.47      1011.7     2.2     ENE    73   4.2     NNE      34     265       514       1.3       7.5      91.3      9.36
   06/26/2020 14:40      90.2      88.9       28     52.5      0.00     17.48      81.9     0.47      1011.9     2.4     ESE   114   4.8       E      87     264       528       1.7       7.3      90.8      9.36
   06/26/2020 14:30      90.4      89.0       28     52.1      0.00     17.48      81.9     0.47      1012.0     2.7      NE    47   6.6     ENE      67     265       536       1.4       7.0      90.5      9.36
   06/26/2020 14:20      89.1      87.9       29     52.3      0.00     17.48      81.0     0.47      1012.1     2.0       E    92   5.5      NE      48     265       549       1.5       6.7      89.7      9.37
   06/26/2020 14:10      89.4      88.5       29     52.3      0.00     17.48      80.4     0.47      1012.2     2.6       E    94   5.3     ENE      70     264       556       1.6       6.5      88.5      9.37
   06/26/2020 14:00      89.2      87.6       30     53.1      0.00     17.48      80.5     0.47      1012.2     1.7       N   352   4.7      NE      34     265       562       1.1       6.2      88.0      9.37
   06/26/2020 13:50      88.6      87.7       31     54.0      0.00     17.48      80.5     0.47      1012.4     2.9     NNE    22   6.7     NNE      29     264       569       1.1       6.0      87.5      9.37
   06/26/2020 13:40      88.8      86.4       33     55.3      0.00     17.48      80.4     0.47      1012.4     1.5     NNE    25   3.9     NNE      32     265       575       1.1       5.9      87.1      9.37
   06/26/2020 13:30      87.6      86.1       35     56.2      0.00     17.48      80.4     0.47      1012.5     2.3       E    92   5.4      SE     140     265       583       1.7       5.7      86.4      9.37
   06/26/2020 13:20      87.1      85.3       36     56.0      0.00     17.48      80.2     0.47      1012.5     1.6     NNE    33   3.8      NE      41     264       587       1.2       5.4      85.9      9.37
   06/26/2020 13:10      85.7      84.5       36     55.5      0.00     17.48      80.4     0.47      1012.7     2.5       E    81   6.7     ESE     108     265       593       1.6       5.2      85.4      9.37
   06/26/2020 13:00      86.4      84.4       37     56.6      0.00     17.48      80.4     0.47      1012.8     2.4     ENE    68   6.6      SE     133     264       589       1.3       4.9      84.8      9.38
   06/26/2020 12:50      85.1      84.1       39     57.1      0.00     17.48      80.4     0.47      1013.0     2.0      NW   309   5.2     WNW     285     265       588       1.7       4.7      84.1      9.38
   06/26/2020 12:40      85.1      84.3       40     57.6      0.00     17.48      80.4     0.47      1013.1     2.4     ENE    63   4.4     NNE      14     264       587       1.4       4.4      83.5      9.38
   06/26/2020 12:30      85.1      84.1       41     58.5      0.00     17.48      80.5     0.47      1013.2     1.4     NNE    14   4.2     NNW     337     265       586       0.9       4.2      82.8      9.38
   06/26/2020 12:20      84.4      81.0       44     58.7      0.00     17.48      80.4     0.47      1013.2     1.4       N     0   3.7     NNE      30     265       585       1.2       4.0      82.2      9.38
   06/26/2020 12:10      82.2      80.9       46     58.5      0.00     17.48      80.4     0.47      1013.2     2.3       E    91   5.7       S     173     265       585       1.5       3.8      81.4      9.38
   06/26/2020 12:00      82.4      81.3       46     58.9      0.00     17.48      80.4     0.47      1013.4     1.8     ENE    65   4.8     ESE     109     264       576       1.2       3.6      80.7      9.38
   06/26/2020 11:50      81.7      79.9       48     59.2      0.00     17.48      80.2     0.47      1013.3     1.8     ENE    72   5.1     ESE     111     265       571       1.3       3.4      79.7      9.38
   06/26/2020 11:40      80.6      79.1       49     58.9      0.00     17.48      80.2     0.47      1013.5     2.2       E    93   5.0      SE     136     266       563       1.1       3.2      78.7      9.38
   06/26/2020 11:30      80.5      79.5       47     58.3      0.00     17.48      80.2     0.47      1013.6     1.6     NNE    23   3.5      NE      47     266       555       1.0       3.0      77.8      9.37
   06/26/2020 11:20      79.9      78.0       47     57.4      0.00     17.48      80.1     0.47      1013.8     1.2       N   356   3.4     NNE      25     266       548       1.1       2.8      76.9      9.37
   06/26/2020 11:10      78.5      77.4       49     57.1      0.00     17.48      80.2     0.47      1013.8     1.7     NNE    27   3.9      NE      41     266       542       0.9       2.7      76.0      9.37
   06/26/2020 11:00      78.7      76.6       50     57.7      0.00     17.48      80.3     0.47      1013.9     1.6      NE    48   3.7     ESE     102     265       530       1.1       2.5      74.9      9.37
   06/26/2020 10:50      76.6      74.9       52     57.1      0.00     17.48      80.4     0.47      1013.8     1.3     NNW   340   3.5     WSW     256     266       511       1.1       2.3      72.2      5.83
   06/26/2020 10:40      75.6      73.9       54     57.0      0.00     17.48      80.5     0.47      1013.7     1.6      NE    39   3.7     ENE      71     266       502       1.0       2.2      71.4      5.83
   06/26/2020 10:30      74.7      73.3       55     57.2      0.00     17.48      80.5     0.47      1013.7     1.5       E    90   4.6     ESE     110     266       487       1.1       2.0      70.6      5.83
   06/26/2020 10:20      73.7      72.8       57     57.1      0.00     17.48      80.5     0.47      1013.8     1.4       S   172   4.4      SE     127     266       470       1.1       1.8      69.8      5.83
   06/26/2020 10:10      73.0      70.7       59     57.0      0.00     17.48      80.6     0.47      1014.0     1.0       E    85   3.0     ENE      73     266       452       0.7       1.6      69.1      5.83
   06/26/2020 10:00      70.9      70.3       62     57.2      0.00     17.48      80.7     0.47      1014.0     1.8     NNW   338   3.7     NNE      24     267       437       1.0       1.5      68.4      5.83
   06/26/2020 09:50      70.6      69.5       64     57.5      0.00     17.48      80.7     0.47      1014.0     1.2       N     7   3.6      NW     307     267       419       0.4       1.4      67.8      5.83
   06/26/2020 09:40      69.7      68.1       67     57.5      0.00     17.48      80.8     0.47      1014.1     1.0     NNE    31   2.8     NNE      22     267       402       0.7       1.3      67.1      5.83
   06/26/2020 09:30      68.8      68.0       68     57.3      0.00     17.48      80.9     0.47      1014.2     1.3       E    93   2.9       E      88     267       381       0.8       1.2      66.5      5.84
   06/26/2020 09:20      68.5      66.4       70     57.5      0.00     17.48      80.9     0.47      1014.3     0.9       N   360   4.4       N       0     267       363       0.4       1.0      65.9      5.84
   06/26/2020 09:10      66.9      66.0       72     57.2      0.00     17.48      80.9     0.47      1014.3     1.6      NE    38   3.5      NE      52     268       347       0.7       1.0      65.4      5.84
   06/26/2020 09:00      66.0      63.7       77     57.4      0.00     17.48      81.0     0.47      1014.2     0.7       N   355   3.6       N       7     268       347       0.3       0.9      65.1      5.83
   06/26/2020 08:50      63.7      62.8       80     57.1      0.00     17.48      81.0     0.47      1014.2     0.9       N   350   3.3     NNE      21     270       209       0.2       0.8      64.7      5.83
   06/26/2020 08:40      62.9      62.2       81     56.9      0.00     17.48      81.1     0.47      1014.2     1.2       N     5   2.8       N       6     272        33       0.4       0.8      64.3      5.83
   06/26/2020 08:30      62.3      61.7       83     56.6      0.00     17.48      81.1     0.47      1014.2     1.7     NNE    27   4.4     NNE      32     272        26       0.4       0.7      64.1      5.83
   06/26/2020 08:20      62.0      61.5       83     56.4      0.00     17.48      81.2     0.47      1014.2     1.4     NNE    31   2.7      NE      41     272        35       0.3       0.7      64.2      5.83
   06/26/2020 08:10      61.8      61.2       83     56.4      0.00     17.48      81.4     0.47      1014.1     0.8       N     5   2.3      NE      39     272        38       0.2       0.6      64.1      5.83
   06/26/2020 08:00      61.5      60.9       84     56.2      0.00     17.48      81.4     0.47      1014.0     0.8     NNE    19   2.4     ENE      58     272        65       0.3       0.6      64.0      5.83
   06/26/2020 07:50      61.1      60.4       84     56.1      0.00     17.48      81.4     0.47      1013.9     0.7       N   356   2.6     NNE      15     272        70       0.1       0.5      64.0      5.83
   06/26/2020 07:40      60.6      59.9       86     55.9      0.00     17.48      81.4     0.47      1013.8     1.2     ENE    59   2.3     ENE      61     273        76       0.3       0.5      63.9      5.83
   06/26/2020 07:30      60.3      59.8       86     55.9      0.00     17.48      81.5     0.47      1013.7     1.4       E    79   3.5      SE     132     270        72       0.6       0.4      63.9      5.83
   06/26/2020 07:20      60.1      59.4       87     55.9      0.00     17.48      81.6     0.47      1013.7     1.3     NNE    32   3.5       N       0     286        55       0.0       0.3      63.9      5.83
   06/26/2020 07:10      59.7      59.2       88     56.0      0.00     17.48      81.6     0.47      1013.4     0.6     ENE    63   2.3     ESE     115     281        28       0.3       0.3      63.9      5.83
   06/26/2020 07:00      59.4      58.6       89     55.8      0.00     17.48      81.7     0.47      1013.5     0.7     ENE    61   1.6      NE      50     297        25       0.0       0.3      63.9      5.83
   06/26/2020 06:50      58.7      58.4       90     55.5      0.00     17.48      81.7     0.47      1013.4     0.9       E    88   3.8       E      79     313        26       0.4       0.3      64.0      5.83
   06/26/2020 06:40      58.6      58.1       90     55.4      0.00     17.48      81.8     0.47      1013.5     0.9       E    97   2.7     ENE      71     334        14       0.3       0.2      64.1      5.83
   06/26/2020 06:30      58.3      57.7       90     55.1      0.00     17.48      81.8     0.47      1013.5     0.8     ESE   119   1.8      SE     125     347         4       0.3       0.1      64.3      5.83
   06/26/2020 06:20      57.9      57.5       90     54.6      0.00     17.48      82.0     0.47      1013.5     0.3     ESE   119   1.6     ESE     114     349        -5       0.0       0.0      64.3      5.83
   06/26/2020 06:10      57.8      57.5       89     54.5      0.00     17.48      82.0     0.48      1013.3     0.0      NE    45   0.7     ENE      74     345       -12       0.0       0.0      64.4      5.83
   06/26/2020 06:00      57.6      57.3       89     54.4      0.00     17.48      82.0     0.48      1013.2     0.2      SE   139   1.2       S     184     340       -18       0.0       0.0      64.7      5.83
   06/26/2020 05:50      57.6      57.1       89     54.2      0.00     17.48      82.1     0.48      1013.2     0.4      SE   145   1.3      SE     136     331       -21       0.0       0.0      64.9      5.83
   06/26/2020 05:40      57.6      57.4       89     54.2      0.00     17.48      82.1     0.48      1013.2     0.0       S   171   0.0       S     171     325       -23       0.0       0.0      65.2      5.83
   06/26/2020 05:30      57.7      57.4       89     54.2      0.00     17.48      82.2     0.48      1013.0     0.0       N     0   0.0     SSE     158     321       -26       0.0       0.0      65.3      5.84
   06/26/2020 05:20      58.5      57.5       88     54.4      0.00     17.48      82.3     0.48      1013.0     0.6      SE   144   1.7     SSE     152     314       -26       0.0       0.0      65.6      5.84
   06/26/2020 05:10      58.5      58.2       88     54.9      0.00     17.48      82.2     0.48      1013.1     0.0     SSW   203   0.6     SSW     203     309       -26       0.0       0.0      65.9      5.84
   06/26/2020 05:00      58.5      58.1       88     54.7      0.00     17.48      82.2     0.48      1012.9     0.0       N     0   0.0       S     175     302       -28       0.0       0.0      66.1      5.84
   06/26/2020 04:50      58.7      58.4       88     54.9      0.00     17.48      82.3     0.48      1012.8     0.0      SE   139   0.7      SE     140     294       -29       0.0       0.0      66.3      5.84
   06/26/2020 04:40      58.8      58.4       87     54.9      0.00     17.48      82.4     0.48      1012.6     0.0       N     0   0.0     ESE     103     285       -30       0.0       0.0      66.6      5.84
   06/26/2020 04:30      58.9      58.6       87     55.0      0.00     17.48      82.5     0.48      1012.6     0.1     ESE   122   0.9       E      96     275       -32       0.0       0.0      66.8      5.84
   06/26/2020 04:20      59.2      58.7       87     55.2      0.00     17.48      82.5     0.48      1012.6     0.4     SSE   151   1.6     SSE     148     261       -34       0.0       0.0      67.0      5.84
   06/26/2020 04:10      59.1      58.8       87     55.2      0.00     17.48      82.6     0.48      1012.6     0.7      SE   126   1.7      SE     140     255       -35       0.0       0.0      67.3      5.84
   06/26/2020 04:00      59.0      58.7       87     55.1      0.00     17.48      82.6     0.48      1012.7     0.1       E    88   1.0     ENE      77     248       -37       0.0       0.0      67.6      5.84
   06/26/2020 03:50      59.0      58.7       87     55.0      0.00     17.48      82.7     0.48      1012.7     0.5      SE   139   1.4      SE     130     239       -38       0.0       0.0      67.8      5.84
   06/26/2020 03:40      59.4      58.8       86     55.0      0.00     17.48      82.7     0.48      1012.7     0.0      SE   142   0.4      SE     143     237       -40       0.0       0.0      68.0      5.84
   06/26/2020 03:30      59.5      59.1       86     55.1      0.00     17.48      82.8     0.48      1012.7     0.0       N     0   0.0     SSE     158     230       -42       0.0       0.0      68.4      5.84
   06/26/2020 03:20      59.6      59.2       85     55.0      0.00     17.48      82.9     0.48      1012.6     0.0      SE   143   0.7      SE     132     223       -45       0.0       0.0      68.7      5.84
   06/26/2020 03:10      59.8      59.3       85     55.0      0.00     17.48      82.8     0.48      1012.5     0.0      SW   234   0.6     WSW     240     222       -47       0.0       0.0      68.9      5.84
   06/26/2020 03:00      60.0      59.6       85     55.3      0.00     17.48      82.9     0.48      1012.5     0.3     ESE   105   1.2       E      94     223       -49       0.0       0.0      69.2      5.84
   06/26/2020 02:50      60.1      59.8       85     55.4      0.00     17.48      82.9     0.48      1012.6     0.3      SE   127   1.3      SE     130     236       -52       0.0       0.0      69.5      5.84
   06/26/2020 02:40      59.8      59.4       84     54.8      0.00     17.48      83.0     0.48      1012.5     0.6      SE   138   1.7       E      92     229       -54       0.0       0.0      69.8      5.84
   06/26/2020 02:30      60.4      59.5       84     55.3      0.00     17.48      83.0     0.48      1012.5     0.2     SSE   161   0.9       S     187     233       -53       0.0       0.0      70.1      5.84
   06/26/2020 02:20      60.6      60.3       84     55.6      0.00     17.48      83.1     0.48      1012.5     0.0     SSW   206   0.6     SSW     205     240       -54       0.0       0.0      70.5      5.84
   06/26/2020 02:10      60.5      60.3       84     55.4      0.00     17.48      83.1     0.48      1012.3     0.2       S   178   0.8     ESE     116     253       -56       0.0       0.0      70.7      5.84
   06/26/2020 02:00      60.9      60.3       83     55.4      0.00     17.48      83.2     0.48      1012.4     0.0     SSE   148   0.7     SSE     153     237       -57       0.0       0.0      71.1      5.84
   06/26/2020 01:50      61.3      60.8       83     55.7      0.00     17.48      83.2     0.48      1012.4     0.0       N     0   0.0       S     172     255       -58       0.0       0.0      71.5      5.85
   06/26/2020 01:40      61.4      61.0       82     55.7      0.00     17.48      83.2     0.48      1012.4     0.1       S   180   0.7       S     176     264       -60       0.0       0.0      71.8      5.85
   06/26/2020 01:30      61.6      61.2       81     55.5      0.00     17.48      83.3     0.48      1012.4     0.0     ESE   116   0.9       E      86     269       -62       0.0       0.0      72.1      5.85
   06/26/2020 01:20      61.8      61.4       81     55.6      0.00     17.48      83.3     0.48      1012.5     0.2       S   191   1.0      SW     216     270       -62       0.0       0.0      72.5      5.85
   06/26/2020 01:10      62.0      61.7       79     55.4      0.00     17.48      83.4     0.48      1012.5     0.0      SE   137   0.5      SE     137     272       -63       0.0       0.0      72.8      5.85
   06/26/2020 01:00      62.6      62.0       79     55.7      0.00     17.48      83.4     0.48      1012.5     0.2      SE   138   1.0      SE     137     272       -64       0.0       0.0      73.2      5.85
   06/26/2020 00:50      63.0      62.5       78     55.9      0.00     17.48      83.4     0.48      1012.5     0.2     ESE   119   1.0     ESE     110     272       -64       0.0       0.0      73.5      5.85
   06/26/2020 00:40      63.3      62.9       78     56.1      0.00     17.48      83.5     0.48      1012.6     0.4       E    95   1.5       E     101     272       -64       0.0       0.0      73.8      5.85
   06/26/2020 00:30      63.5      63.1       77     56.0      0.00     17.48      83.5     0.48      1012.6     0.8     ESE   116   2.0     ESE     122     272       -64       0.1       0.0      74.2      5.85
   06/26/2020 00:20      64.0      63.4       76     56.2      0.00     17.48      83.5     0.48      1012.7     0.6      SE   137   2.3     SSE     152     272       -64       0.0       0.0      74.5      5.85
   06/26/2020 00:10      64.4      63.8       76     56.2      0.00     17.48      83.5     0.48      1012.8     0.7     ESE   114   2.3       E      95     271       -64       0.3       0.0      74.9      5.86
   06/26/2020 00:00      64.7      64.2       74     56.1      0.00     17.48      83.6     0.48      1012.7     0.5     ESE   110   2.4     ENE      68     271       -63       0.0      20.3      75.3      5.86
   06/25/2020 23:50      64.6      64.2       75     56.1      0.00     17.48      83.7     0.48      1012.7     0.5      NE    53   1.9     ENE      72     271       -63       0.0      20.2      75.6      5.86
   06/25/2020 23:40      65.0      64.2       74     56.0      0.00     17.48      83.6     0.48      1012.6     0.2      SE   139   1.3      SE     140     271       -62       0.0      20.2      75.9      5.86
   06/25/2020 23:30      65.4      64.8       73     56.1      0.00     17.48      83.6     0.48      1012.7     0.0     ESE   109   0.7      SE     137     270       -62       0.0      20.2      76.4      5.86
   06/25/2020 23:20      65.9      65.3       72     56.3      0.00     17.48      83.7     0.48      1012.6     0.0       N     0   0.0       E     100     270       -63       0.0      20.2      76.8      5.86
   06/25/2020 23:10      66.3      65.8       71     56.5      0.00     17.48      83.7     0.48      1012.5     0.2       E    96   0.9       E      87     270       -64       0.0      20.2      77.2      5.86
   06/25/2020 23:00      66.7      66.2       71     56.6      0.00     17.48      83.7     0.48      1012.5     0.6       E    79   2.0     ENE      71     270       -65       0.1      20.2      77.5      5.86
   06/25/2020 22:50      67.3      66.5       70     56.7      0.00     17.48      83.7     0.48      1012.5     0.9       E    85   3.4     ENE      70     270       -65       0.3      20.2      77.9      5.86
   06/25/2020 22:40      67.6      67.2       69     56.7      0.00     17.48      83.8     0.48      1012.5     0.8      NE    54   2.2     NNE      21     270       -65       0.2      20.2      78.3      5.86
   06/25/2020 22:30      67.8      67.5       68     56.8      0.00     17.48      83.8     0.48      1012.4     0.7      NE    52   2.0     ENE      64     269       -65       0.0      20.1      78.7      5.87
   06/25/2020 22:20      68.1      67.6       67     56.7      0.00     17.48      83.8     0.48      1012.3     0.6     ENE    63   2.3      NE      55     269       -66       0.3      20.1      79.2      5.87
   06/25/2020 22:10      68.3      67.9       67     56.8      0.00     17.48      83.8     0.48      1012.3     0.8       E    89   2.7       E      93     269       -66       0.3      20.1      79.7      5.87
   06/25/2020 22:00      68.5      68.1       66     56.4      0.00     17.48      83.8     0.48      1012.1     0.7     ESE   112   2.2       E      89     269       -66       0.0      20.0      80.1      5.87
   06/25/2020 21:50      69.0      68.2       63     55.4      0.00     17.48      83.7     0.48      1011.9     0.3      SE   128   1.8     NNE      34     269       -65       0.0      20.0      80.3      5.87
   06/25/2020 21:40      69.8      69.0       61     55.5      0.00     17.48      83.4     0.48      1011.8     0.7     ESE   118   1.7      SE     138     268       -66       0.2      20.0      80.2      5.87
   06/25/2020 21:30      69.9      69.6       60     55.5      0.00     17.48      83.3     0.48      1011.6     0.5       E   100   1.6       E      85     268       -68       0.1      20.0      80.7      5.87
   06/25/2020 21:20      70.3      69.7       60     55.4      0.00     17.48      83.3     0.48      1011.5     1.0     SSE   159   2.5     SSW     193     268       -68       0.2      19.9      81.2      5.87
   06/25/2020 21:10      70.6      70.1       59     55.3      0.00     17.48      83.3     0.48      1011.4     0.8      SE   146   2.6     SSE     157     268       -69       0.3      19.9      81.7      5.88
   06/25/2020 21:00      71.1      70.6       58     55.2      0.00     17.48      83.3     0.48      1011.3     1.1      SW   218   2.7      SW     231     268       -70       0.4      19.9      82.1      5.88
   06/25/2020 20:50      71.4      70.9       57     55.0      0.00     17.48      83.3     0.48      1011.2     2.0     SSW   200   3.6     SSW     209     268       -70       0.9      19.8      82.7      5.88
   06/25/2020 20:40      71.7      71.2       58     55.7      0.00     17.48      83.3     0.48      1011.1     1.8     SSW   195   2.9     SSW     207     268       -71       0.8      19.6      83.2      5.88
   06/25/2020 20:30      72.9      71.7       58     56.6      0.00     17.48      83.2     0.48      1011.1     0.5      SE   143   1.6       S     172     268       -73       0.1      19.5      83.7      5.88
   06/25/2020 20:20      73.5      72.7       57     56.9      0.00     17.48      83.2     0.48      1011.0     0.3       E    95   1.0     ESE     102     268       -74       0.0      19.5      84.3      5.89
   06/25/2020 20:10      74.0      73.4       56     57.0      0.00     17.48      83.3     0.48      1010.9     0.3     ENE    70   1.4      NE      48     268       -72       0.0      19.5      84.8      5.89
   06/25/2020 20:00      74.5      73.8       55     56.9      0.00     17.48      83.3     0.48      1010.8     0.8      NE    46   2.0      NE      52     268       -69       0.2      19.5      85.3      5.89
   06/25/2020 19:50      75.3      74.3       54     57.0      0.00     17.48      83.3     0.48      1010.7     1.0      NE    46   1.9      NE      56     268       -67       0.2      19.4      85.9      5.89
   06/25/2020 19:40      76.4      75.3       52     57.3      0.00     17.48      83.3     0.48      1010.7     1.3      NE    46   2.9      NE      53     267       -56       0.3      19.4      86.6      5.89
   06/25/2020 19:30      77.0      76.3       51     57.4      0.00     17.48      83.3     0.48      1010.6     1.1      NE    44   2.2       E      98     267       -39       0.5      19.4      87.1      5.90
   06/25/2020 19:20      78.0      76.6       50     57.5      0.00     17.48      83.2     0.48      1010.6     1.6      NE    45   3.5      NE      50     267       -21       0.6      19.3      87.6      5.90
   06/25/2020 19:10      79.2      77.9       47     57.0      0.00     17.48      83.2     0.48      1010.4     1.0      NE    46   3.2     NNE      14     267        -4       0.7      19.2      88.2      5.90
   06/25/2020 19:00      78.3      77.8       41     52.5      0.00     17.48      83.1     0.48      1010.3     1.6      SE   125   4.1     SSE     159     266        20       0.9      19.1      88.6      5.91
   06/25/2020 18:50      79.4      78.0       41     52.9      0.00     17.48      83.0     0.48      1010.2     3.2     SSE   154   5.7      SE     138     265        45       1.5      18.9      89.1      5.91
   06/25/2020 18:40      80.9      79.2       40     53.3      0.00     17.48      83.0     0.48      1010.1     2.9     SSE   153   5.1      SE     135     266        66       1.5      18.7      89.7      5.91
   06/25/2020 18:30      82.0      80.8       38     54.0      0.00     17.48      83.0     0.48      1010.1     1.8     SSE   160   6.7       W     265     265        88       1.3      18.4      90.1      5.91
   06/25/2020 18:20      81.6      81.0       39     54.2      0.00     17.48      82.9     0.48      1010.0     1.7      SW   235   4.6     SSW     208     266       113       1.4      18.2      90.5      5.92
   06/25/2020 18:10      81.6      80.5       39     53.9      0.00     17.48      82.8     0.48      1009.8     3.9      SW   225   6.3      SW     214     266       140       2.8      18.0      90.9      5.92
   06/25/2020 18:00      81.7      81.2       39     54.4      0.00     17.48      82.9     0.48      1009.8     3.3       S   172   6.6      SE     142     266       166       1.9      17.5      91.2      5.92
   06/25/2020 17:50      81.9      81.1       39     54.6      0.00     17.48      82.7     0.48      1009.8     3.4       S   177   6.4       S     185     265       193       2.3      17.2      91.5      5.93
   06/25/2020 17:40      81.5      80.9       42     55.8      0.00     17.48      82.6     0.48      1009.8     5.4     SSW   193   7.8      SW     230     266       218       3.5      16.8      91.9      5.93
   06/25/2020 17:30      82.5      81.4       42     56.5      0.00     17.48      82.6     0.48      1009.7     5.6     SSW   200   8.5       S     178     266       241       3.7      16.2      92.2      5.94
   06/25/2020 17:20      83.0      82.0       41     56.3      0.00     17.48      82.4     0.47      1009.7     5.1       S   186   8.2       S     181     266       265       3.2      15.6      92.3      5.94
   06/25/2020 17:10      84.6      83.1       38     55.8      0.00     17.48      82.3     0.47      1009.7     4.9       S   178   9.1     SSW     210     265       285       3.1      15.1      92.6      5.95
   06/25/2020 17:00      85.0      83.5       37     54.9      0.00     17.48      82.4     0.47      1009.7     4.4       S   181   7.5     SSW     193     265       311       2.7      14.6      92.7      5.95
   06/25/2020 16:50      86.3      84.8       35     54.8      0.00     17.48      82.2     0.47      1009.7     4.0     SSE   164   8.6       S     191     265       338       2.4      14.1      92.8      5.96
   06/25/2020 16:40      86.9      85.3       34     54.6      0.00     17.48      82.2     0.47      1009.7     3.5       S   178   6.7       S     184     265       363       2.2      13.7      92.6      5.96
   06/25/2020 16:30      88.4      86.9       33     54.7      0.00     17.48      82.0     0.47      1009.8     2.6       E   100   7.6     SSE     158     265       399       1.4      13.3      92.5      5.96
   06/25/2020 16:20      88.7      87.5       33     55.1      0.00     17.48      82.0     0.47      1009.8     2.1       E    82   3.8       E      88     265       391       1.4      13.1      92.3      5.96
   06/25/2020 16:10      88.3      87.6       33     54.9      0.00     17.48      81.9     0.47      1009.9     2.1      NE    45   5.1     ENE      74     265       361       1.2      12.9      92.1      5.97
   06/25/2020 16:00      87.9      87.1       33     54.5      0.00     17.48      81.8     0.47      1009.9     2.0     ENE    68   5.0     SSE     156     265       426       1.3      12.7      91.9      5.97
   06/25/2020 15:50      88.0      87.1       33     54.9      0.00     17.48      81.8     0.47      1009.9     2.5     ENE    56   4.5      NE      43     265       386       1.1      12.4      91.6      5.97
   06/25/2020 15:40      88.2      87.2       34     56.1      0.00     17.48      81.7     0.47      1010.0     2.2     NNE    21   5.3     NNE      25     265       458       0.9      12.3      91.2      5.98
   06/25/2020 15:30      87.6      86.6       36     57.2      0.00     17.48      81.6     0.47      1010.0     1.5       N     0   4.6       E      79     266       478       1.2      12.1      90.8      5.98
   06/25/2020 15:20      87.2      86.7       37     57.5      0.00     17.48      81.6     0.47      1010.2     1.9      NE    47   6.0     NNE      20     266       500       1.1      11.9      90.2      5.98
   06/25/2020 15:10      87.1      86.0       38     57.9      0.00     17.48      81.5     0.47      1010.3     2.0     ENE    71   4.5     ESE     106     266       523       1.1      11.7      89.6      5.99
   06/25/2020 15:00      86.7      85.7       39     58.5      0.00     17.48      81.4     0.47      1010.4     2.1     ENE    66   6.4      SE     131     266       538       1.4      11.5      88.9      5.99
   06/25/2020 14:50      87.1      85.5       40     58.9      0.00     17.48      81.4     0.47      1010.5     1.4      NE    54   5.5     ENE      59     266       503       1.1      11.3      88.2      5.99
   06/25/2020 14:40      86.3      84.4       42     59.3      0.00     17.48      81.3     0.47      1010.6     1.5       N     6   5.6     NNE      33     266       475       1.3      11.1      87.3      5.99
   06/25/2020 14:30      84.3      82.3       43     58.8      0.00     17.48      81.3     0.47      1010.7     1.6     ENE    78   3.8     ESE     109     266       544       0.9      10.9      86.7      6.00
   06/25/2020 14:20      82.4      81.9       45     58.9      0.00     17.48      81.2     0.47      1010.7     2.5     ESE   113   5.1      SE     144     267       420       1.6      10.8      86.1      6.00
   06/25/2020 14:10      82.7      81.3       46     59.1      0.00     17.48      81.2     0.47      1010.8     2.3     ENE    61   5.0      NE      44     267       448       1.8      10.5      85.4      6.00
   06/25/2020 14:00      85.1      81.9       45     59.4      0.00     17.48      81.2     0.47      1010.9     2.6     ESE   112   6.3      SE     134     267       542       1.8      10.2      84.7      6.00
   06/25/2020 13:50      85.3      83.3       44     60.0      0.00     17.48      81.1     0.47      1011.1     0.8      NW   322   2.4       E      80     266       526       1.0       9.9      83.8      6.00
   06/25/2020 13:40      83.5      81.6       46     59.9      0.00     17.48      81.1     0.47      1011.2     1.7     NNE    24   4.4       N      10     266       592       1.1       9.7      82.9      6.01
   06/25/2020 13:30      81.6      78.8       50     59.4      0.00     17.48      81.1     0.47      1011.2     1.4      SW   235   4.0       W     274     266       564       1.3       9.6      82.0      6.01
   06/25/2020 13:20      79.9      78.5       51     59.5      0.00     17.48      81.2     0.47      1011.4     2.7       E    96   5.0       E      90     266       572       1.5       9.3      81.1      6.01
   06/25/2020 13:10      80.2      78.0       51     59.5      0.00     17.48      81.1     0.47      1011.4     2.2     NNE    23   4.7     ENE      77     266       574       0.9       9.1      80.2      6.01
   06/25/2020 13:00      79.0      77.7       52     59.1      0.00     17.48      81.1     0.47      1011.5     2.2     SSE   148   6.2     SSE     149     266       612       1.4       8.9      79.1      6.01
   06/25/2020 12:50      79.0      77.4       52     59.1      0.00     17.48      81.1     0.47      1011.6     1.5     NNE    15   3.1       N     350     266       526       1.2       8.7      78.0      6.01
   06/25/2020 12:40      77.5      76.4       54     58.9      0.00     17.48      81.1     0.47      1011.7     1.6     ESE   103   3.8      SE     133     267       524       1.2       8.5      77.2      6.01
   06/25/2020 12:30      76.3      74.4       56     58.6      0.00     17.48      81.1     0.47      1011.8     1.8     ENE    60   3.8      NW     319     267       566       1.1       8.3      76.4      6.01
   06/25/2020 12:20      75.5      72.8       58     58.4      0.00     17.48      81.2     0.47      1011.8     2.0     ENE    66   5.1     ENE      78     267       537       1.4       8.1      75.5      6.02
   06/25/2020 12:10      73.2      72.5       59     58.0      0.00     17.48      81.2     0.47      1011.9     2.4     SSE   168   5.8      SE     133     266       559       1.6       7.9      74.7      6.02
   06/25/2020 12:00      73.6      72.2       59     58.0      0.00     17.48      81.2     0.47      1012.1     2.3       E    89   5.3       E      84     266       578       1.5       7.6      73.9      6.02
   06/25/2020 11:50      73.0      71.8       61     58.0      0.00     17.48      81.3     0.47      1012.1     1.7     ESE   103   3.6      SE     133     267       559       1.0       7.4      73.1      6.02
   06/25/2020 11:40      73.3      71.8       60     57.9      0.00     17.48      81.4     0.47      1012.1     1.7     NNW   343   4.2       W     269     268       384       1.5       7.2      72.1      6.02
   06/25/2020 11:30      72.5      70.2       62     57.9      0.00     17.48      81.3     0.47      1012.1     1.1     NNW   349   4.7     NNE      27     267       592       0.9       6.9      71.3      6.02
   06/25/2020 11:20      70.4      69.6       65     57.6      0.00     17.48      81.4     0.47      1012.3     1.7     ESE   112   5.0     SSE     154     268       461       1.2       6.8      70.6      6.02
   06/25/2020 11:10      70.1      68.6       66     57.6      0.00     17.48      81.5     0.47      1012.2     1.5       E    88   4.7       E      86     268       492       1.0       6.6      69.8      6.02
   06/25/2020 11:00      68.7      68.1       68     57.4      0.00     17.48      81.5     0.47      1012.4     1.9      NW   307   4.0       W     271     269       305       1.5       6.4      69.3      6.02
   06/25/2020 10:50      68.3      67.5       69     57.3      0.00     17.48      81.6     0.47      1012.4     1.6       N     8   3.6     NNE      28     269       314       0.8       6.2      68.9      6.02
   06/25/2020 10:40      67.7      66.4       71     57.3      0.00     17.48      81.6     0.47      1012.4     0.7       N     5   2.1     NNW     342     270       211       0.3       6.0      68.4      6.02
   06/25/2020 10:30      66.5      65.6       73     57.2      0.00     17.48      81.7     0.47      1012.4     1.2     ESE   102   3.0       S     188     270       183       0.8       6.0      68.2      6.02
   06/25/2020 10:20      65.9      65.3       74     57.1      0.00     17.48      81.8     0.48      1012.5     1.3      SE   145   3.5     SSE     150     270       126       0.7       5.9      68.0      6.02
   06/25/2020 10:10      65.9      65.4       74     57.1      0.00     17.48      81.8     0.47      1012.6     1.4     ENE    57   2.8      NE      44     270       155       0.8       5.7      67.8      6.02
   06/25/2020 10:00      65.5      64.8       75     57.1      0.00     17.48      81.8     0.48      1012.5     1.5      NE    42   3.2      NE      54     270       120       0.6       5.6      67.7      6.02
   06/25/2020 09:50      64.9      64.0       77     57.1      0.00     17.48      81.9     0.48      1012.5     1.8     ESE   117   4.1     ESE     117     270       187       1.3       5.5      67.5      6.02
   06/25/2020 09:40      64.0      63.7       78     56.9      0.00     17.48      81.9     0.48      1012.6     1.8     ESE   123   3.7      SE     126     271       101       1.0       5.3      67.3      6.02
   06/25/2020 09:30      64.3      63.9       78     57.0      0.00     17.48      81.9     0.48      1012.8     1.9       E    83   4.5      SE     125     271        75       1.0       5.1      67.3      6.02
   06/25/2020 09:20      64.1      63.7       78     56.9      0.00     17.48      82.0     0.48      1012.7     2.1     ESE   108   5.2      SE     143     271        78       1.1       5.0      67.2      6.02
   06/25/2020 09:10      64.4      63.6       78     57.1      0.00     17.48      82.1     0.48      1012.8     1.8     ENE    74   4.5     ENE      79     271        90       0.7       4.8      67.1      6.02
   06/25/2020 09:00      63.8      63.3       79     57.0      0.00     17.48      82.1     0.48      1012.7     1.6     ESE   104   4.4       E      83     272        67       1.0       4.7      67.1      6.02
   06/25/2020 08:50      63.5      63.2       80     56.9      0.00     17.48      82.2     0.48      1012.6     1.9     ESE   109   4.1     ESE     116     272        44       1.1       4.5      67.1      6.02
   06/25/2020 08:40      63.6      62.8       80     57.0      0.00     17.48      82.2     0.48      1012.6     1.6     ENE    75   4.4     ESE     123     272        49       0.9       4.3      67.0      6.02
   06/25/2020 08:30      63.4      62.7       80     56.8      0.00     17.48      82.3     0.48      1012.5     2.4     ESE   116   4.6     ENE      78     272        54       1.2       4.2      67.0      6.02
   06/25/2020 08:20      63.4      62.8       81     57.0      0.00     17.48      82.3     0.48      1012.4     1.1     ENE    75   4.3       E      91     272        54       0.5       4.0      67.0      6.02
   06/25/2020 08:10      63.2      62.8       80     56.8      0.00     17.48      82.4     0.48      1012.4     1.3       E    99   3.5      SE     142     272        11       0.6       3.9      67.0      6.02
   06/25/2020 08:00      63.1      62.6       81     57.1      0.00     17.48      82.4     0.48      1012.3     1.2     ENE    68   3.1       E      99     272        37       0.4       3.8      67.1      6.02
   06/25/2020 07:50      62.8      62.1       83     57.1      0.00     17.48      82.4     0.48      1012.2     0.3      NE    39   2.2      NE      38     272        31       0.1       3.7      67.0      6.02
   06/25/2020 07:40      62.3      61.6       84     57.0      0.00     17.48      82.5     0.48      1012.2     0.6     ESE   103   1.7     ENE      70     272        26       0.2       3.7      67.0      6.02
   06/25/2020 07:30      61.8      61.4       85     56.9      0.00     17.48      82.6     0.48      1012.0     1.2     ESE   109   2.7      SE     124     272        29       0.4       3.7      67.0      6.02
   06/25/2020 07:20      61.6      61.3       85     56.7      0.00     17.48      82.6     0.48      1011.9     1.5     ESE   123   3.3     ESE     116     273        14       0.6       3.6      67.1      6.02
   06/25/2020 07:10      61.6      61.3       85     56.8      0.00     17.48      82.7     0.48      1011.9     1.6     ESE   121   3.6      SE     145     273        11       0.6       3.5      67.1      6.02
   06/25/2020 07:00      61.5      61.0       85     56.7      0.00     17.48      82.7     0.48      1011.9     1.8     ESE   118   5.5      SE     146     273        14       0.9       3.4      67.2      6.02
   06/25/2020 06:50      61.2      60.8       86     56.6      0.00     17.48      82.7     0.48      1011.9     1.9      SE   130   4.0     SSE     165     273        11       1.0       3.2      67.2      6.02
   06/25/2020 06:40      61.1      60.8       86     56.6      0.00     17.48      82.8     0.48      1011.9     1.4      SE   137   3.7      SE     134     273         6       0.7       3.1      67.3      6.02
   06/25/2020 06:30      61.2      60.9       86     56.6      0.00     17.48      82.8     0.48      1011.9     1.6     SSE   157   2.9       S     183     273        -3       0.9       3.0      67.4      6.02
   06/25/2020 06:20      61.2      60.9       86     56.7      0.00     17.48      82.9     0.48      1011.9     0.9       S   185   2.2       S     179     273        -7       0.5       2.8      67.4      6.02
   06/25/2020 06:10      61.0      60.8       86     56.6      0.00     17.48      82.9     0.48      1011.7     1.5     SSE   148   2.9     ESE     115     273        -9       0.7       2.7      67.5      6.03
   06/25/2020 06:00      61.2      60.8       86     56.6      0.00     17.48      83.0     0.48      1011.7     1.6     SSE   168   3.0      SE     143     273       -11       0.8       2.6      67.7      6.03
   06/25/2020 05:50      61.0      60.7       86     56.5      0.00     17.48      83.0     0.48      1011.7     1.3     SSE   157   3.4       S     170     273       -12       0.8       2.5      67.8      6.03
   06/25/2020 05:40      61.1      60.7       85     56.5      0.00     17.48      83.1     0.48      1011.5     2.0     SSE   159   3.6     SSE     149     273       -13       0.9       2.3      68.0      6.03
   06/25/2020 05:30      61.1      60.9       85     56.6      0.00     17.48      83.1     0.48      1011.3     1.9      SE   144   4.3      SE     134     273       -13       0.8       2.2      68.1      6.03
   06/25/2020 05:20      61.4      60.9       85     56.6      0.00     17.48      83.2     0.48      1011.2     1.8     SSE   147   3.9     SSE     149     273       -13       0.6       2.0      68.3      6.03
   06/25/2020 05:10      61.4      61.2       85     56.7      0.00     17.48      83.2     0.48      1011.1     1.2      SE   130   3.4     ESE     123     273       -13       0.6       1.9      68.4      6.03
   06/25/2020 05:00      61.9      61.3       85     56.9      0.00     17.48      83.3     0.48      1010.9     1.7     ESE   115   3.6      SE     138     273       -13       0.8       1.8      68.5      6.03
   06/25/2020 04:50      61.6      61.3       85     56.9      0.00     17.48      83.3     0.48      1010.7     1.6      SE   125   4.2     SSE     154     273       -13       0.8       1.7      68.7      6.03
   06/25/2020 04:40      61.8      61.3       85     56.9      0.00     17.48      83.4     0.48      1010.6     2.4      SE   142   4.1      SE     131     273       -13       0.9       1.6      68.8      6.03
   06/25/2020 04:30      61.9      61.6       84     56.9      0.00     17.48      83.4     0.48      1010.6     1.2      SE   139   3.6     SSE     156     273       -13       0.5       1.4      69.0      6.03
   06/25/2020 04:20      62.0      61.8       84     56.9      0.00     17.48      83.5     0.48      1010.5     0.8     ESE   103   2.4       S     171     273       -14       0.2       1.3      69.1      6.03
   06/25/2020 04:10      62.0      61.4       85     57.0      0.00     17.48      83.5     0.48      1010.4     0.9      NE    42   2.1     ENE      57     273       -13       0.3       1.3      69.2      6.03
   06/25/2020 04:00      61.8      61.5       85     56.9      0.00     17.48      83.7     0.48      1010.4     1.4      SE   133   3.3      SE     144     273       -13       0.4       1.3      69.4      6.03
   06/25/2020 03:50      61.6      61.3       85     56.9      0.00     17.48      83.6     0.48      1010.4     1.4     ESE   116   3.2      SE     126     273       -13       0.5       1.2      69.6      6.03
   06/25/2020 03:40      61.6      61.3       85     56.8      0.00     17.48      83.3     0.48      1010.3     1.1       E    90   2.7      SE     137     273       -13       0.3       1.1      69.6      6.03
   06/25/2020 03:30      61.6      61.3       84     56.7      0.00     17.48      83.3     0.48      1010.4     1.6     ESE   103   3.0      SE     138     273       -14       0.5       1.1      69.8      6.03
   06/25/2020 03:20      61.6      61.3       85     56.7      0.00     17.48      83.3     0.48      1010.3     1.2     ESE   105   3.1     ENE      67     273       -13       0.5       1.0      70.0      6.03
   06/25/2020 03:10      61.6      61.3       85     56.8      0.00     17.48      83.4     0.48      1010.3     1.7      SE   136   3.3     ESE     115     273       -14       0.8       0.9      70.1      6.03
   06/25/2020 03:00      61.6      61.4       85     57.0      0.00     17.48      83.4     0.48      1010.4     0.8     ESE   119   2.3     ENE      67     273       -14       0.3       0.8      70.3      6.03
   06/25/2020 02:50      61.6      61.3       86     57.2      0.00     17.48      83.4     0.48      1010.5     0.8       E   100   2.5     ENE      64     273       -13       0.5       0.7      70.5      6.03
   06/25/2020 02:40      61.4      61.2       86     57.1      0.00     17.48      83.0     0.48      1010.5     1.1      SE   125   2.5      SE     133     273       -13       0.4       0.6      70.0      6.03
   06/25/2020 02:30      61.4      61.2       86     57.0      0.00     17.48      82.9     0.48      1010.6     1.3      SE   136   2.4      SE     133     273       -14       0.4       0.6      70.1      6.03
   06/25/2020 02:20      61.4      61.1       86     57.0      0.00     17.48      82.9     0.48      1010.8     0.5     SSE   150   2.1      SE     129     273       -14       0.3       0.5      70.2      6.03
   06/25/2020 02:10      61.7      61.3       85     57.0      0.00     17.48      82.9     0.48      1010.9     1.1     ENE    71   3.7      NE      44     274       -15       0.3       0.4      70.5      6.03
   06/25/2020 02:00      61.7      61.3       86     57.1      0.00     17.48      83.0     0.48      1011.1     0.9     NNE    29   3.3       N      11     273       -15       0.3       0.4      70.7      6.04
   06/25/2020 01:50      61.4      61.1       86     57.1      0.00     17.48      83.1     0.48      1011.1     1.0      NE    40   2.7     NNE      20     273       -15       0.3       0.3      70.9      6.04
   06/25/2020 01:40      61.2      60.6       87     57.1      0.00     17.48      83.1     0.48      1011.2     1.1      NE    40   2.1      NE      46     274       -14       0.0       0.3      71.1      6.04
   06/25/2020 01:30      60.8      60.4       87     56.7      0.00     17.48      83.1     0.48      1011.2     1.5       E    89   3.1       E      98     274       -15       0.7       0.3      71.3      6.04
   06/25/2020 01:20      60.7      60.4       87     56.6      0.00     17.48      83.2     0.48      1011.3     0.5     ENE    70   2.5      NE      55     272       -30       0.2       0.1      71.6      6.04
   06/25/2020 01:10      60.6      60.4       87     56.6      0.00     17.48      83.2     0.48      1011.4     0.8     ENE    56   2.2      NE      53     233       -44       0.0       0.1      71.9      6.04
   06/25/2020 01:00      60.7      60.4       87     56.5      0.00     17.48      83.3     0.48      1011.3     1.0      NE    51   1.9     ESE     105     224       -49       0.1       0.1      72.3      6.04
   06/25/2020 00:50      60.7      60.4       86     56.4      0.00     17.48      83.3     0.48      1011.3     1.3     ENE    69   3.6     ESE     107     226       -52       0.4       0.0      72.7      6.04
   06/25/2020 00:40      61.0      60.6       86     56.5      0.00     17.48      83.4     0.48      1011.4     0.4       E    86   2.0      NE      55     226       -55       0.0       0.0      73.0      6.04
   06/25/2020 00:30      60.9      60.3       86     56.3      0.00     17.48      83.4     0.48      1011.3     0.6     ENE    59   1.8     NNE      32     227       -58       0.0       0.0      73.4      6.04
   06/25/2020 00:20      61.0      60.4       86     56.4      0.00     17.48      83.4     0.48      1011.4     0.4       E    94   2.3     SSE     147     227       -60       0.0       0.0      73.8      6.04
   06/25/2020 00:10      60.9      60.5       85     56.4      0.00     17.48      84.0     0.48      1011.5     0.3       E    82   1.5     NNE      23     230       -62       0.0       0.0      74.7      6.04
   06/25/2020 00:00      61.1      60.7       85     56.3      0.00     17.48      84.1     0.48      1011.4     0.6     ESE   114   1.9     ENE      68     246       -65       0.2      16.6      75.4      6.04
   06/24/2020 23:50      61.3      60.7       84     56.2      0.00     17.48      84.2     0.48      1011.5     0.0     ESE   118   0.9       E     101     249       -67       0.0      16.6      75.8      6.04
   06/24/2020 23:40      61.5      61.2       83     56.2      0.00     17.48      84.2     0.48      1011.4     0.2      SE   125   1.0      SE     131     257       -69       0.0      16.6      76.2      6.04
   06/24/2020 23:30      62.0      61.4       82     56.3      0.00     17.48      84.3     0.48      1011.6     0.4     ESE   117   1.9     ENE      75     267       -70       0.0      16.6      76.7      6.04
   06/24/2020 23:20      62.5      61.8       81     56.4      0.00     17.48      84.4     0.48      1011.7     0.4     ENE    78   1.2       E      88     271       -70       0.2      16.6      77.1      6.05
   06/24/2020 23:10      62.7      62.3       81     56.5      0.00     17.48      84.9     0.48      1011.7     0.2     ENE    69   1.2      NE      51     270       -71       0.0      16.6      77.8      6.05
   06/24/2020 23:00      62.7      62.5       81     56.6      0.00     17.48      85.1     0.48      1011.8     0.9      NE    40   1.8      NE      34     272       -72       0.2      16.5      78.3      6.05
   06/24/2020 22:50      63.1      62.5       80     56.6      0.00     17.48      85.1     0.48      1011.9     1.0     ENE    62   2.7      NE      55     272       -72       0.4      16.5      78.8      6.05
   06/24/2020 22:40      63.4      62.9       79     56.6      0.00     17.48      85.1     0.48      1012.0     1.2      NE    47   3.2     ENE      65     272       -73       0.3      16.4      79.3      6.05
   06/24/2020 22:30      63.7      63.2       78     56.3      0.00     17.48      85.2     0.48      1011.9     0.9     ENE    66   2.6     ENE      74     272       -73       0.5      16.4      79.8      6.05
   06/24/2020 22:20      64.7      63.7       75     56.3      0.00     17.48      85.2     0.48      1011.9     1.3     ENE    65   3.2     ENE      62     271       -74       0.7      16.3      80.5      6.05
   06/24/2020 22:10      65.6      64.7       72     56.1      0.00     17.48      85.2     0.48      1011.8     1.2      NE    37   2.7     ENE      64     270       -75       0.4      16.2      81.2      6.06
   06/24/2020 22:00      65.8      65.4       70     55.7      0.00     17.48      85.2     0.48      1011.7     1.0     NNE    30   2.1      NE      38     270       -75       0.3      16.1      81.8      6.06
   06/24/2020 21:50      65.7      65.3       70     55.3      0.00     17.48      85.2     0.48      1011.6     0.4      NE    50   1.5      NE      49     270       -74       0.0      16.1      82.3      6.06
   06/24/2020 21:40      66.3      65.4       69     55.3      0.00     17.48      85.2     0.48      1011.3     0.0      SE   134   0.5     SSE     168     270       -75       0.0      16.1      82.8      6.06
   06/24/2020 21:30      66.7      66.2       68     55.5      0.00     17.48      85.2     0.48      1011.0     0.6     ENE    76   1.6      NE      49     269       -77       0.0      16.1      83.3      6.06
   06/24/2020 21:20      67.4      66.7       67     55.6      0.00     17.48      85.2     0.48      1010.9     1.0      NE    51   2.3     NNE      18     269       -77       0.2      16.1      84.0      6.07
   06/24/2020 21:10      68.2      67.2       65     55.6      0.00     17.48      85.2     0.48      1010.7     1.2      NE    52   2.3     ENE      78     268       -78       0.4      16.0      84.6      6.07
   06/24/2020 21:00      68.8      68.1       64     55.7      0.00     17.48      85.2     0.48      1010.6     1.0      NE    46   1.9     ENE      59     268       -79       0.1      16.0      85.2      6.07
   06/24/2020 20:50      69.4      68.6       63     56.1      0.00     17.48      85.1     0.48      1010.5     1.1      NE    47   2.0      NE      43     268       -79       0.4      16.0      85.9      6.07
   06/24/2020 20:40      70.4      69.5       62     56.5      0.00     17.48      85.1     0.48      1010.4     1.1      NE    42   2.9     ENE      72     268       -80       0.4      15.9      86.4      6.08
   06/24/2020 20:30      71.0      70.1       61     56.4      0.00     17.48      85.1     0.48      1010.2     0.9      NE    35   2.2     ENE      57     268       -80       0.4      15.8      87.1      6.08
   06/24/2020 20:20      71.4      70.8       60     56.5      0.00     17.48      85.0     0.48      1010.1     0.9      NE    49   2.8     NNE      21     268       -80       0.4      15.8      87.7      6.08
   06/24/2020 20:10      72.5      71.3       59     56.6      0.00     17.48      84.9     0.48      1010.1     0.8     ENE    75   2.7      NE      54     268       -78       0.7      15.7      88.4      6.08
   06/24/2020 20:00      73.7      72.6       57     56.9      0.00     17.48      84.9     0.48      1009.9     1.1      NE    36   2.3     NNW     341     267       -74       0.7      15.6      89.1      6.09
   06/24/2020 19:50      75.0      73.7       55     57.0      0.00     17.48      84.8     0.48      1009.7     1.1      NE    50   2.8      NE      52     267       -73       0.4      15.5      89.9      6.09
   06/24/2020 19:40      76.9      75.0       53     57.3      0.00     17.48      84.7     0.48      1009.6     1.5     NNE    21   3.1      NE      35     267       -74       0.5      15.4      90.5      6.09
   06/24/2020 19:30      78.5      76.8       50     57.6      0.00     17.48      84.6     0.48      1009.5     1.3     ENE    67   2.5     NNE      32     266       -63       0.8      15.3      91.3      6.10
   06/24/2020 19:20      80.3      78.5       48     57.8      0.00     17.48      84.5     0.48      1009.4     1.8      NE    46   3.9     NNE      22     266       -25       0.9      15.2      91.7      6.10
   06/24/2020 19:10      81.7      80.1       46     57.9      0.00     17.48      84.4     0.48      1009.2     1.6      NE    41   3.3     NNE      30     266         0       0.6      15.1      92.3      6.11
   06/24/2020 19:00      81.7      81.1       45     58.1      0.00     17.48      84.3     0.48      1009.1     1.6     ENE    75   3.4       E      93     266        25       0.8      14.9      92.6      6.11
   06/24/2020 18:50      83.5      81.3       44     58.4      0.00     17.48      84.1     0.48      1008.9     2.3     ENE    73   4.8      NE      49     266        40       1.1      14.8      93.2      6.11
   06/24/2020 18:40      85.7      83.3       42     58.8      0.00     17.48      84.0     0.48      1008.7     2.1     ENE    71   4.6     ENE      71     265        58       1.3      14.6      93.6      6.12
   06/24/2020 18:30      85.6      84.9       40     58.3      0.00     17.48      83.8     0.48      1008.5     1.7       S   180   5.1     SSW     199     265        95       1.0      14.4      94.0      6.12
   06/24/2020 18:20      86.0      85.4       39     58.2      0.00     17.48      83.7     0.48      1008.5     2.2       S   173   5.0      SE     139     265       127       1.4      14.3      94.5      6.13
   06/24/2020 18:10      86.7      85.6       39     58.2      0.00     17.48      83.7     0.48      1008.4     3.4       S   171   6.8       S     177     265       154       2.1      14.0      94.8      6.13
   06/24/2020 18:00      87.0      86.5       38     58.1      0.00     17.48      83.3     0.48      1008.3     2.9     SSE   165   5.6     SSW     209     265       188       2.0      13.7      95.1      6.13
   06/24/2020 17:50      87.1      86.6       38     58.0      0.00     17.48      83.2     0.48      1008.3     3.3     SSE   155   7.1     SSE     162     265       217       2.2      13.3      95.2      6.14
   06/24/2020 17:40      87.1      86.5       38     57.9      0.00     17.48      83.1     0.48      1008.3     3.9       S   173   6.4      SE     145     265       239       2.4      13.0      95.4      6.14
   06/24/2020 17:30      87.7      86.8       37     57.9      0.00     17.48      82.8     0.48      1008.3     3.5       S   174   6.5     SSW     201     265       202       2.1      12.6      95.6      6.14
   06/24/2020 17:20      89.4      87.7       36     58.0      0.00     17.48      82.6     0.48      1008.3     3.4       S   169   5.5       S     179     265       104       2.3      12.2      95.8      6.15
   06/24/2020 17:10      89.8      88.9       35     58.5      0.00     17.48      82.5     0.47      1008.4     2.4       S   174   6.7      SE     139     265       275       1.7      11.8      95.9      6.16
   06/24/2020 17:00      91.8      89.2       35     58.7      0.00     17.48      82.2     0.47      1008.4     3.5     SSE   155   7.9     SSW     201     265       309       1.8      11.6      95.9      6.16
   06/24/2020 16:50      93.7      91.8       33     59.6      0.00     17.48      82.1     0.47      1008.5     1.5     SSE   155   4.3     ENE      75     265       297       1.3      11.3      95.6      6.16
   06/24/2020 16:40      93.5      92.3       33     59.7      0.00     17.48      81.9     0.47      1008.5     1.1     NNE    31   3.4     NNE      24     265       352       1.1      11.1      95.6      6.17
   06/24/2020 16:30      92.5      91.1       34     59.3      0.00     17.48      81.8     0.47      1008.5     1.8      NE    43   3.0      NE      40     265       335       1.0      10.9      95.3      6.17
   06/24/2020 16:20      91.2      90.5       35     59.1      0.00     17.48      81.5     0.47      1008.5     2.5      NE    56   4.3      NE      52     265       379       1.1      10.7      95.2      6.17
   06/24/2020 16:10      91.0      90.6       35     59.3      0.00     17.48      81.4     0.47      1008.6     2.8      NE    44   5.1      NE      55     265       446       1.3      10.5      95.1      6.18
   06/24/2020 16:00      90.7      89.8       36     59.7      0.00     17.48      81.2     0.47      1008.8     2.9      NE    55   5.3       E      92     265       439       1.4      10.3      94.9      6.18
   06/24/2020 15:50      90.6      89.1       37     60.3      0.00     17.48      81.2     0.47      1008.8     2.8     ENE    78   5.1     ENE      73     265       378       1.8      10.1      94.6      6.18
   06/24/2020 15:40      90.9      90.4       36     60.0      0.00     17.48      81.1     0.47      1009.0     2.2     ENE    68   4.6     ENE      70     265       357       1.3       9.8      94.6      6.19
   06/24/2020 15:30      91.5      90.6       35     59.9      0.00     17.48      81.0     0.47      1009.1     2.7     ENE    59   6.3     ENE      65     265       378       1.4       9.6      94.6      6.19
   06/24/2020 15:20      91.5      90.6       35     59.7      0.00     17.48      80.9     0.47      1009.2     2.2      NE    54   6.2      NE      41     265       465       1.2       9.3      94.3      6.19
   06/24/2020 15:10      91.9      90.7       35     59.9      0.00     17.48      80.8     0.47      1009.2     3.1      NE    54   5.7       E      83     265       491       1.3       9.1      94.0      6.20
   06/24/2020 15:00      91.7      91.0       35     59.8      0.00     17.48      80.8     0.47      1009.3     2.2      NE    42   4.9     ENE      58     265       501       1.2       8.9      93.5      6.20
   06/24/2020 14:50      91.8      90.9       34     59.3      0.00     17.48      80.8     0.47      1009.4     2.3     ENE    66   4.9       E      98     265       566       1.4       8.7      92.8      6.20
   06/24/2020 14:40      91.0      89.1       35     58.9      0.00     17.48      80.7     0.47      1009.6     1.7     ENE    77   3.8     ESE     105     265       519       1.3       8.5      92.3      6.21
   06/24/2020 14:30      90.4      89.1       36     59.0      0.00     17.48      80.6     0.47      1009.7     2.5     ESE   107   5.1     ESE     108     265       527       1.7       8.3      91.9      6.21
   06/24/2020 14:20      90.3      89.3       34     57.8      0.00     17.48      80.6     0.47      1009.8     2.4      NE    52   4.3      SE     140     265       477       1.4       8.0      91.6      6.21
   06/24/2020 14:10      90.9      89.9       32     56.3      0.00     17.48      80.5     0.47      1009.9     2.1       E    80   4.8     ESE     111     264       548       1.4       7.7      90.9      6.21
   06/24/2020 14:00      90.6      89.7       32     56.2      0.00     17.48      80.6     0.47      1010.0     1.8       E    81   5.0       E      93     265       533       1.1       7.5      90.3      6.22
   06/24/2020 13:50      89.8      89.0       35     57.8      0.00     17.48      80.5     0.47      1010.1     1.9      NE    41   4.1     ENE      59     265       538       1.1       7.3      89.5      6.22
   06/24/2020 13:40      89.5      88.5       35     57.6      0.00     17.48      80.6     0.47      1010.3     1.7       E   100   3.6      SE     146     265       491       1.1       7.1      88.8      6.22
   06/24/2020 13:30      89.4      88.2       35     57.7      0.00     17.48      80.5     0.47      1010.3     1.0     NNW   333   2.9      NW     312     264       488       1.1       6.9      88.0      6.22
   06/24/2020 13:20      88.9      86.9       37     58.2      0.00     17.48      80.5     0.47      1010.4     1.1     NNW   342   4.0     NNW     332     264       574       0.8       6.8      87.4      6.23
   06/24/2020 13:10      87.8      86.8       37     58.2      0.00     17.48      80.6     0.47      1010.6     1.3     NNE    15   3.9     NNW     343     264       602       0.6       6.6      86.5      6.23
   06/24/2020 13:00      88.4      86.7       38     58.6      0.00     17.48      80.6     0.47      1010.6     1.0       N   359   3.4     NNE      25     265       598       1.1       6.5      85.6      6.23
   06/24/2020 12:50      86.7      85.1       40     58.5      0.00     17.48      80.6     0.47      1010.8     1.4     NNW   335   3.6     WNW     289     264       596       1.6       6.3      84.8      6.24
   06/24/2020 12:40      85.4      84.2       41     58.5      0.00     17.48      80.6     0.47      1010.8     1.5     NNE    17   4.4     NNE      32     265       604       1.0       6.1      83.9      6.24
   06/24/2020 12:30      84.6      83.8       42     58.6      0.00     17.48      80.6     0.47      1011.0     1.5      NW   326   4.2     NNW     340     264       594       1.0       5.9      82.9      6.24
   06/24/2020 12:20      84.5      82.6       43     58.9      0.00     17.48      80.6     0.47      1011.1     1.6     NNE    28   4.7     NNE      28     265       590       0.8       5.7      82.1      6.24
   06/24/2020 12:10      83.5      81.3       44     58.3      0.00     17.48      80.6     0.47      1011.2     1.3     ENE    74   4.1       S     186     265       592       0.7       5.6      81.0      6.24
   06/24/2020 12:00      82.0      80.7       45     57.9      0.00     17.48      80.6     0.47      1011.3     1.7     WNW   290   3.5     NNW     342     265       595       1.5       5.5      79.9      6.24
   06/24/2020 11:50      80.7      79.7       46     57.5      0.00     17.48      80.6     0.47      1011.4     1.7     NNE    28   4.4     ENE      62     266       587       1.2       5.2      79.0      6.24
   06/24/2020 11:40      79.8      77.7       49     57.9      0.00     17.48      80.6     0.47      1011.5     1.5     NNE    11   3.5     NNW     328     266       579       0.7       5.0      78.2      6.25
   06/24/2020 11:30      79.3      77.5       50     58.2      0.00     17.48      80.7     0.47      1011.7     1.9      NE    52   4.4     NNE      15     266       565       0.9       4.9      77.2      6.25
   06/24/2020 11:20      78.7      76.9       52     58.5      0.00     17.48      80.7     0.47      1011.7     1.2      NE    41   3.5     ENE      58     266       543       0.7       4.8      76.1      6.25
   06/24/2020 11:10      77.1      75.7       54     58.3      0.00     17.48      80.7     0.47      1011.8     1.0       E    89   3.2       N     354     266       506       0.9       4.6      75.2      6.25
   06/24/2020 11:00      75.5      74.7       56     58.4      0.00     17.48      80.7     0.47      1012.0     1.0     WNW   290   2.6     WNW     293     266       485       1.1       4.5      74.5      6.25
   06/24/2020 10:50      74.9      73.7       57     58.2      0.00     17.48      80.8     0.47      1012.0     1.4     ENE    60   3.7     NNE      25     266       469       1.2       4.3      73.9      6.25
   06/24/2020 10:40      74.5      72.9       59     58.4      0.00     17.48      80.7     0.47      1012.0     1.7      NW   318   4.2       E      97     266       508       1.4       4.1      73.4      6.25
   06/24/2020 10:30      73.3      71.9       61     58.5      0.00     17.48      80.8     0.47      1012.1     1.4       N   360   3.9       N     351     266       494       0.9       3.9      72.5      6.25
   06/24/2020 10:20      72.3      71.7       62     58.4      0.00     17.48      80.9     0.47      1012.2     1.4     NNW   330   3.6     NNE      15     266       414       1.1       3.7      71.8      6.25
   06/24/2020 10:10      71.7      70.1       64     58.2      0.00     17.48      80.6     0.47      1012.4     1.2     NNE    22   2.8       E      87     267       442       0.7       3.5      70.9      6.25
   06/24/2020 10:00      70.3      68.4       67     58.0      0.00     17.48      80.3     0.47      1012.4     1.1      NE    47   3.1       E      94     267       457       0.6       3.4      69.8      6.25
   06/24/2020 09:50      69.4      68.4       68     58.0      0.00     17.48      80.3     0.47      1012.5     1.7      NE    45   4.1      NE      40     268       420       0.7       3.3      69.2      6.25
   06/24/2020 09:40      68.7      66.5       72     58.0      0.00     17.48      80.3     0.47      1012.6     0.7     NNE    24   1.9      SE     128     268       385       0.6       3.2      68.4      6.25
   06/24/2020 09:30      66.9      65.2       75     57.9      0.00     17.48      80.4     0.47      1012.8     1.1      NE    51   3.3       E      88     269       278       0.7       3.1      68.0      6.25
   06/24/2020 09:20      65.5      65.0       77     57.7      0.00     17.48      80.4     0.47      1013.0     1.4     WNW   302   3.3       N       3     270       240       0.7       3.0      67.6      6.25
   06/24/2020 09:10      65.1      64.0       78     57.7      0.00     17.48      80.5     0.48      1013.0     0.6       N   351   2.9     NNW     347     270       198       0.4       2.9      67.3      6.25
   06/24/2020 09:00      64.0      63.1       80     57.5      0.00     17.48      80.6     0.48      1013.0     1.0     NNE    23   2.1     NNW     329     270       183       0.4       2.8      67.1      6.25
   06/24/2020 08:50      63.3      62.8       82     57.3      0.00     17.48      80.6     0.48      1013.0     1.5       E    82   2.6      NE      46     271       142       0.7       2.8      66.8      6.25
   06/24/2020 08:40      62.9      61.9       84     57.5      0.00     17.48      80.6     0.48      1012.9     0.5      NE    44   1.9       E      86     271       106       0.2       2.6      66.8      6.25
   06/24/2020 08:30      62.0      61.5       85     57.2      0.00     17.48      80.7     0.48      1012.8     0.9     ENE    57   2.8       E      80     272        85       0.4       2.6      66.7      6.25
   06/24/2020 08:20      61.6      60.9       86     57.2      0.00     17.48      80.7     0.48      1012.8     0.4      NW   320   1.9     ENE      73     272        61       0.2       2.5      66.6      6.25
   06/24/2020 08:10      61.2      60.7       87     57.0      0.00     17.48      80.8     0.48      1012.8     0.9     WSW   237   3.0     SSW     211     272        55       0.7       2.5      66.6      6.25
   06/24/2020 08:00      60.9      60.5       87     56.8      0.00     17.48      80.9     0.48      1012.9     1.1       S   179   3.0     SSE     150     272        44       0.7       2.4      66.5      6.25
   06/24/2020 07:50      61.1      60.7       87     56.9      0.00     17.48      80.9     0.48      1012.8     1.4       E   101   3.7      SE     136     272        47       0.5       2.3      66.5      6.25
   06/24/2020 07:40      61.0      60.7       87     56.8      0.00     17.48      81.1     0.48      1012.7     1.0     ESE   105   2.3     ENE      73     272        47       0.6       2.2      66.7      6.25
   06/24/2020 07:30      61.3      60.9       87     57.1      0.00     17.48      81.4     0.48      1012.8     1.1     NNE    25   2.9     NNE      27     273        28       0.3       2.1      66.8      6.25
   06/24/2020 07:20      61.0      60.7       87     57.1      0.00     17.48      81.4     0.48      1012.7     0.5       N   350   2.7     WNW     285     273        16       0.1       2.1      67.0      6.25
   06/24/2020 07:10      60.9      60.4       88     57.0      0.00     17.48      81.4     0.48      1012.6     0.7     NNE    18   2.7      NE      50     273        12       0.2       2.0      67.0      6.25
   06/24/2020 07:00      60.7      60.4       88     56.8      0.00     17.48      81.5     0.48      1012.6     0.7      NE    47   1.8      NE      35     273        12       0.1       2.0      67.0      6.25
   06/24/2020 06:50      60.7      60.3       88     56.8      0.00     17.48      81.5     0.48      1012.6     1.1      NE    41   2.4      NE      54     273         7       0.4       2.0      67.2      6.25
   06/24/2020 06:40      60.7      60.3       88     56.8      0.00     17.48      81.5     0.48      1012.5     1.0      NE    44   2.2     ENE      70     273         6       0.3       1.9      67.1      6.25
   06/24/2020 06:30      60.7      60.3       88     56.8      0.00     17.48      81.2     0.48      1012.6     0.8     NNE    30   1.9       N       0     273        -0       0.2       1.9      67.0      6.25
   06/24/2020 06:20      60.5      60.2       88     56.7      0.00     17.48      81.3     0.48      1012.6     0.9     NNE    31   2.5     ENE      67     273        -3       0.1       1.8      67.1      6.25
   06/24/2020 06:10      60.6      60.2       87     56.6      0.00     17.48      81.3     0.48      1012.5     1.1      NE    38   2.6      NE      41     273        -5       0.2       1.8      67.2      6.25
   06/24/2020 06:00      60.4      60.2       87     56.4      0.00     17.48      81.5     0.48      1012.5     1.1      NE    55   3.4     ENE      67     273        -9       0.2       1.8      67.3      6.25
   06/24/2020 05:50      60.6      60.3       87     56.5      0.00     17.48      81.5     0.48      1012.5     1.1     ENE    66   4.2     ENE      67     273       -11       0.4       1.8      67.5      6.25
   06/24/2020 05:40      60.9      60.4       86     56.6      0.00     17.48      81.5     0.48      1012.5     0.8      NE    56   3.9       E      98     273       -12       0.3       1.7      67.6      6.26
   06/24/2020 05:30      60.9      60.5       86     56.6      0.00     17.48      81.6     0.48      1012.5     0.8     NNE    23   2.5       N       0     273       -13       0.3       1.6      67.8      6.26
   06/24/2020 05:20      61.0      60.7       86     56.7      0.00     17.48      81.6     0.48      1012.5     0.9     NNE    33   2.6     NNE      31     273       -13       0.3       1.6      67.9      6.26
   06/24/2020 05:10      61.0      60.7       86     56.7      0.00     17.48      81.6     0.48      1012.3     0.9     NNE    19   2.3       N       2     273       -13       0.2       1.5      68.1      6.26
   06/24/2020 05:00      60.9      60.7       86     56.6      0.00     17.48      81.8     0.48      1012.3     1.0     NNE    30   2.8      NW     319     273       -13       0.2       1.5      68.2      6.26
   06/24/2020 04:50      60.9      60.4       86     56.5      0.00     17.48      81.8     0.48      1012.4     0.8      NE    47   2.2      NE      53     273       -13       0.1       1.5      68.3      6.26
   06/24/2020 04:40      60.8      60.5       86     56.5      0.00     17.48      81.9     0.48      1012.4     0.9     NNE    30   2.2      NE      34     273       -14       0.1       1.5      68.4      6.26
   06/24/2020 04:30      60.9      60.4       86     56.5      0.00     17.48      81.9     0.48      1012.3     0.4      NE    50   2.0       S     188     273       -15       0.2       1.4      68.7      6.26
   06/24/2020 04:20      60.7      60.3       86     56.3      0.00     17.48      81.9     0.48      1012.3     0.7      NE    51   1.8      NE      54     273       -22       0.1       1.4      68.9      6.26
   06/24/2020 04:10      60.5      60.3       86     56.3      0.00     17.48      82.0     0.48      1012.2     1.0      NE    48   2.2      NE      41     273       -30       0.1       1.4      69.0      6.26
   06/24/2020 04:00      60.5      60.2       86     56.2      0.00     17.48      82.1     0.48      1012.2     1.0      NE    55   2.1      NE      52     272       -33       0.4       1.4      69.2      6.26
   06/24/2020 03:50      60.6      60.2       86     56.2      0.00     17.48      82.1     0.48      1012.2     0.8     ENE    66   2.8     ESE     109     272       -34       0.3       1.3      69.5      6.26
   06/24/2020 03:40      60.7      60.4       86     56.3      0.00     17.48      82.2     0.48      1012.2     1.1      NE    51   2.4     ENE      71     272       -32       0.3       1.3      69.7      6.26
   06/24/2020 03:30      60.7      60.4       86     56.2      0.00     17.48      82.2     0.48      1012.3     1.1     ENE    73   2.9     ENE      75     272       -40       0.4       1.2      70.0      6.26
   06/24/2020 03:20      61.2      60.5       84     56.1      0.00     17.48      82.2     0.48      1012.2     1.6       E    86   4.6      SE     136     272       -48       1.1       1.1      70.3      6.26
   06/24/2020 03:10      61.4      61.0       84     56.3      0.00     17.48      82.3     0.48      1012.2     1.1     ENE    61   2.7     ENE      61     272       -50       0.3       0.9      70.6      6.26
   06/24/2020 03:00      61.6      61.3       83     56.3      0.00     17.48      82.3     0.48      1012.2     1.1     ENE    71   3.2      NE      50     272       -51       0.4       0.9      71.0      6.26
   06/24/2020 02:50      61.6      61.4       83     56.4      0.00     17.48      82.3     0.48      1012.3     0.9      NE    55   2.1     ENE      59     272       -51       0.2       0.8      71.3      6.26
   06/24/2020 02:40      61.6      61.4       83     56.4      0.00     17.48      82.4     0.48      1012.3     0.6       E    92   2.7       E      88     272       -50       0.2       0.8      71.5      6.26
   06/24/2020 02:30      61.9      61.5       83     56.5      0.00     17.48      82.4     0.48      1012.4     1.1     ESE   104   3.6     ENE      74     272       -50       0.6       0.8      71.9      6.26
   06/24/2020 02:20      62.0      61.6       83     56.6      0.00     17.48      82.5     0.48      1012.5     1.1       E    95   2.6     ENE      75     272       -52       0.7       0.7      72.1      6.27
   06/24/2020 02:10      62.4      61.8       82     56.7      0.00     17.48      82.5     0.48      1012.5     1.1      SE   124   3.2     ESE     121     272       -51       0.4       0.6      72.4      6.27
   06/24/2020 02:00      62.5      62.2       82     56.6      0.00     17.48      82.6     0.48      1012.5     0.7       E    97   1.9     ESE     120     272       -50       0.2       0.5      72.8      6.27
   06/24/2020 01:50      63.0      62.5       80     56.6      0.00     17.48      82.5     0.48      1012.6     0.7     ESE   115   1.8       E      95     272       -52       0.3       0.5      73.0      6.27
   06/24/2020 01:40      63.1      62.9       80     56.6      0.00     17.48      82.6     0.48      1012.6     0.4     ENE    66   1.8     ENE      56     272       -53       0.2       0.4      73.3      6.27
   06/24/2020 01:30      63.5      62.9       79     56.5      0.00     17.48      82.6     0.48      1012.5     1.2       E    99   3.1     ENE      66     272       -53       0.7       0.4      73.8      6.27
   06/24/2020 01:20      63.9      63.4       78     56.5      0.00     17.48      82.7     0.48      1012.6     0.5       E    89   1.8       E      95     271       -53       0.1       0.3      74.1      6.27
   06/24/2020 01:10      64.1      63.7       77     56.6      0.00     17.48      82.7     0.48      1012.5     0.6       E    86   1.5      SE     139     271       -55       0.2       0.2      74.4      6.27
   06/24/2020 01:00      64.4      63.9       77     56.7      0.00     17.48      82.8     0.48      1012.5     0.5       E    86   2.0       E      87     271       -56       0.3       0.2      74.7      6.27
   06/24/2020 00:50      65.0      64.2       75     56.7      0.00     17.48      82.8     0.48      1012.5     1.0     ESE   111   3.0       E      90     271       -57       0.5       0.1      75.1      6.27
   06/24/2020 00:40      65.6      65.0       74     56.8      0.00     17.48      82.9     0.48      1012.6     0.9     ENE    74   2.0      SE     134     271       -58       0.2       0.0      75.4      6.27
   06/24/2020 00:30      65.8      65.5       73     56.8      0.00     17.48      82.9     0.48      1012.5     0.8      NE    47   2.2     ENE      65     270       -58       0.0       0.0      75.8      6.28
   06/24/2020 00:20      66.1      65.7       73     56.9      0.00     17.48      83.0     0.48      1012.6     1.0      NE    48   1.8      NE      47     270       -60       0.0       0.0      76.2      6.28
   06/24/2020 00:10      66.3      65.8       72     56.9      0.00     17.48      83.0     0.48      1012.6     0.6     ENE    59   2.1     ENE      60     270       -61       0.0       0.0      76.5      6.28
   06/24/2020 00:00      66.1      65.8       73     57.0      0.00     17.48      83.0     0.48      1012.7     0.3      NE    53   1.0     NNE      27     270       -61       0.0      16.4      76.8      6.28
   06/23/2020 23:50      66.3      65.9       72     56.9      0.00     17.48      83.0     0.48      1012.7     0.8     ESE   113   2.7       E     101     270       -62       0.3      16.4      77.2      6.28
   06/23/2020 23:40      66.7      66.2       71     56.8      0.00     17.48      83.0     0.48      1012.7     1.2     ESE   110   2.7     SSE     158     270       -62       0.7      16.3      77.5      6.28
   06/23/2020 23:30      67.3      66.7       70     56.8      0.00     17.48      82.9     0.48      1012.7     0.7       E    94   2.3       E      97     270       -61       0.4      16.2      78.0      6.28
   06/23/2020 23:20      67.8      67.2       69     56.9      0.00     17.48      83.0     0.48      1012.7     0.9     ENE    66   2.2       E      96     270       -61       0.3      16.1      78.3      6.28
   06/23/2020 23:10      67.9      67.5       68     56.7      0.00     17.48      83.1     0.48      1012.6     0.6      NE    56   1.4     ENE      57     269       -61       0.0      16.1      78.9      6.28
   06/23/2020 23:00      68.2      67.7       67     56.7      0.00     17.48      83.1     0.48      1012.7     0.4     ENE    59   1.3     ENE      61     269       -63       0.0      16.1      79.3      6.28
   06/23/2020 22:50      68.5      68.1       67     56.8      0.00     17.48      83.1     0.48      1012.8     0.1     ENE    74   0.9      NE      48     269       -65       0.0      16.1      79.5      6.29
   06/23/2020 22:40      68.9      68.3       66     56.8      0.00     17.48      83.3     0.48      1012.8     0.7       E    94   1.8       E     100     269       -67       0.0      16.1      80.0      6.29
   06/23/2020 22:30      69.5      68.8       65     56.8      0.00     17.48      83.2     0.48      1012.8     0.4     ESE   124   1.6      SE     136     268       -69       0.0      16.1      80.5      6.29
   06/23/2020 22:20      70.3      69.4       63     56.7      0.00     17.48      83.2     0.48      1012.8     1.0       E    83   2.9       E      81     268       -69       0.4      16.0      81.0      6.29
   06/23/2020 22:10      70.6      70.2       62     56.7      0.00     17.48      83.2     0.48      1012.8     0.8      NE    55   2.1     ENE      63     268       -69       0.0      16.0      81.5      6.29
   06/23/2020 22:00      71.0      70.6       61     56.7      0.00     17.48      83.3     0.48      1012.8     1.0       E    80   3.4       E      83     268       -69       0.3      16.0      82.0      6.29
   06/23/2020 21:50      71.4      70.6       59     55.7      0.00     17.48      83.2     0.48      1012.6     0.9     ENE    76   3.1     ESE     102     268       -68       0.2      15.9      82.4      6.30
   06/23/2020 21:40      72.3      71.2       56     55.4      0.00     17.48      83.3     0.48      1012.6     0.0     SSE   152   0.5     SSE     150     268       -68       0.0      15.9      82.9      6.30
   06/23/2020 21:30      73.3      72.3       54     55.4      0.00     17.48      83.3     0.48      1012.4     0.2     SSE   164   1.3      SE     143     268       -70       0.0      15.9      83.4      6.30
   06/23/2020 21:20      73.5      73.1       54     55.7      0.00     17.48      83.3     0.48      1012.5     1.0     WSW   247   4.1      SW     215     267       -73       0.4      15.9      83.8      6.30
   06/23/2020 21:10      73.9      73.3       54     55.8      0.00     17.48      83.2     0.48      1012.4     1.3      SW   228   3.9      SW     223     267       -74       0.7      15.8      84.3      6.30
   06/23/2020 21:00      74.6      73.8       53     55.9      0.00     17.48      83.4     0.48      1012.3     2.0     SSW   213   4.9      SW     230     267       -75       1.0      15.7      84.9      6.31
   06/23/2020 20:50      75.5      74.5       52     56.0      0.00     17.48      83.2     0.48      1012.3     1.2     SSW   192   4.4      SW     232     267       -77       0.6      15.5      85.4      6.31
   06/23/2020 20:40      76.2      75.3       50     56.0      0.00     17.48      83.1     0.48      1012.3     1.7      SW   217   4.0     SSW     205     267       -78       1.0      15.4      86.0      6.31
   06/23/2020 20:30      77.1      76.1       49     56.0      0.00     17.48      83.2     0.48      1012.2     2.9     WSW   241   5.6     WSW     246     267       -79       1.8      15.2      86.7      6.32
   06/23/2020 20:20      77.7      76.9       48     55.9      0.00     17.48      83.2     0.48      1012.1     3.6     WSW   253   6.0     WSW     245     266       -78       2.3      14.9      87.5      6.32
   06/23/2020 20:10      78.5      77.6       47     56.2      0.00     17.48      83.1     0.48      1012.0     3.0      SW   230   4.9      SW     232     266       -77       1.8      14.6      88.2      6.32
   06/23/2020 20:00      79.2      78.4       46     56.3      0.00     17.48      83.1     0.48      1011.9     3.7     WSW   240   5.6       W     269     266       -72       2.3      14.3      88.9      6.33
   06/23/2020 19:50      80.3      79.2       45     56.6      0.00     17.48      83.1     0.48      1011.7     3.9     WSW   243   6.6     WSW     252     266       -66       2.7      13.9      89.6      6.33
   06/23/2020 19:40      81.4      80.3       44     57.0      0.00     17.48      82.9     0.48      1011.7     2.7      SW   218   4.8     SSW     206     266       -59       1.6      13.4      90.4      6.33
   06/23/2020 19:30      82.0      81.2       43     57.0      0.00     17.48      82.9     0.48      1011.6     3.3      SW   233   7.3      SW     226     266       -41       2.1      13.2      90.9      6.34
   06/23/2020 19:20      84.1      81.9       41     57.0      0.00     17.48      82.9     0.48      1011.6     3.3      SW   234   6.9       S     180     266       -51       2.2      12.8      91.5      6.34
   06/23/2020 19:10      85.4      84.1       40     57.7      0.00     17.48      82.9     0.48      1011.4     2.8     WSW   242   5.7     WSW     247     265        -4       2.1      12.4      92.0      6.35
   06/23/2020 19:00      86.8      85.4       39     58.5      0.00     17.48      82.7     0.48      1011.4     1.6      SW   228   5.3      SW     215     265        37       0.9      12.1      92.4      6.35
   06/23/2020 18:50      86.2      85.6       40     58.7      0.00     17.48      82.7     0.48      1011.3     1.2     ENE    75   3.3       E      82     265        38       0.8      11.9      92.8      6.35
   06/23/2020 18:40      86.8      86.0       39     58.6      0.00     17.48      82.6     0.48      1011.2     1.2      NE    48   2.5      NE      49     265        57       0.4      11.8      93.0      6.36
   06/23/2020 18:30      87.5      86.7       38     58.6      0.00     17.48      82.6     0.48      1011.3     1.1      NE    56   3.1     NNE      28     265        85       0.6      11.8      93.3      6.36
   06/23/2020 18:20      86.8      86.0       39     58.7      0.00     17.48      82.4     0.48      1011.2     1.4     ENE    62   3.4     ENE      62     265       127       0.7      11.6      93.7      6.36
   06/23/2020 18:10      86.6      85.9       39     58.6      0.00     17.48      82.4     0.48      1011.2     1.8      NE    43   4.7      NE      51     265       141       0.7      11.5      93.8      6.36
   06/23/2020 18:00      87.8      86.2       38     58.4      0.00     17.48      83.0     0.48      1011.2     1.9      NE    45   4.3      NE      48     265       104       0.8      11.4      94.9      6.37
   06/23/2020 17:50      88.0      87.3       37     58.1      0.00     17.48      82.8     0.48      1011.3     1.6     ENE    72   3.4     ENE      68     265       177       0.9      11.3      95.0      6.37
   06/23/2020 17:40      88.3      87.4       36     57.5      0.00     17.48      82.6     0.48      1011.3     1.9      NE    47   4.9      NE      46     265       209       1.0      11.1      95.3      6.38
   06/23/2020 17:30      88.9      88.1       36     58.5      0.00     17.48      82.5     0.48      1011.3     1.9      NE    45   4.0     NNW     332     265       188       1.0      11.0      95.3      6.38
   06/23/2020 17:20      88.9      88.3       36     58.4      0.00     17.48      82.3     0.47      1011.4     2.1      NE    50   4.4     NNW     341     265       247       0.9      10.8      95.4      6.38
   06/23/2020 17:10      89.1      88.3       36     58.6      0.00     17.48      82.1     0.47      1011.6     2.1     ENE    68   4.6     ENE      65     265       266       1.1      10.7      95.5      6.39
   06/23/2020 17:00      89.8      88.4       36     58.7      0.00     17.48      82.0     0.47      1011.7     2.8      NE    43   5.0      NE      40     265       318       1.4      10.5      95.5      6.39
   06/23/2020 16:50      89.9      88.7       37     59.3      0.00     17.48      81.8     0.47      1011.8     2.2      NE    36   6.1     NNE      18     265       329       1.0      10.2      95.4      6.40
   06/23/2020 16:40      89.2      88.7       37     59.6      0.00     17.48      81.6     0.47      1011.9     2.4      NE    41   4.2      NE      54     265       319       1.1      10.1      95.0      6.40
   06/23/2020 16:30      89.3      88.4       38     59.9      0.00     17.48      81.5     0.47      1011.9     2.6      NE    45   4.8     NNE      33     265       384       1.5       9.9      95.0      6.40
   06/23/2020 16:20      89.0      87.6       39     60.1      0.00     17.48      81.2     0.47      1012.0     2.4     ENE    77   6.2     ESE     114     265       437       1.6       9.6      94.8      6.41
   06/23/2020 16:10      89.0      87.9       39     60.5      0.00     17.48      81.1     0.47      1012.1     2.4     ENE    60   4.7       E      90     266       152       1.3       9.4      94.8      6.41
   06/23/2020 16:00      89.4      88.7       39     60.7      0.00     17.48      80.9     0.47      1012.2     2.6     ENE    69   7.9      SE     142     265       241       1.5       9.2      94.9      6.42
   06/23/2020 15:50      90.6      89.0       37     60.6      0.00     17.48      80.7     0.47      1012.3     2.5       E    79   4.6       E      96     265       440       1.7       8.9      94.8      6.42
   06/23/2020 15:40      90.7      89.4       37     60.6      0.00     17.48      80.4     0.47      1012.4     2.2     ENE    67   4.8     ENE      62     265       433       1.4       8.6      94.2      6.42
   06/23/2020 15:30      90.3      89.6       37     60.6      0.00     17.48      80.4     0.47      1012.4     2.1     ENE    60   5.5       E      88     265       457       1.3       8.4      94.0      6.43
   06/23/2020 15:20      90.9      89.5       37     60.6      0.00     17.48      80.1     0.47      1012.5     2.5      NE    47   4.2       N       2     265       457       1.3       8.2      93.4      6.43
   06/23/2020 15:10      90.5      89.1       37     60.5      0.00     17.48      79.9     0.47      1012.7     2.4      NE    49   5.1       E      96     265       473       1.3       8.0      92.9      6.43
   06/23/2020 15:00      90.9      89.4       37     60.5      0.00     17.48      79.9     0.47      1012.7     1.8     ENE    62   4.8     ENE      75     265       526       1.5       7.7      92.4      6.44
   06/23/2020 14:50      89.9      89.3       37     60.1      0.00     17.48      79.7     0.47      1012.8     2.1     NNE    26   5.3     NNE      29     266       536       1.2       7.5      91.8      6.44
   06/23/2020 14:40      90.3      89.1       37     60.1      0.00     17.48      79.6     0.47      1012.8     2.1     NNE    18   5.8     WNW     302     265       518       0.9       7.3      91.0      6.45
   06/23/2020 14:30      89.2      87.7       38     59.9      0.00     17.48      79.5     0.47      1012.9     2.3     ENE    66   4.8     SSE     153     266       550       1.3       7.2      90.4      6.45
   06/23/2020 14:20      89.2      87.7       38     59.9      0.00     17.48      79.5     0.47      1013.1     2.1      NE    54   4.7     NNE      31     265       561       1.1       6.9      89.9      6.45
   06/23/2020 14:10      88.6      88.0       39     60.0      0.00     17.48      79.4     0.47      1013.2     2.2      NE    47   4.6       E     100     266       569       1.2       6.8      89.3      6.45
   06/23/2020 14:00      88.3      86.3       39     59.8      0.00     17.48      79.3     0.47      1013.3     2.3     NNE    25   4.9     NNE      23     266       578       1.0       6.6      88.5      6.45
   06/23/2020 13:50      87.1      86.2       40     59.6      0.00     17.48      79.4     0.47      1013.4     2.8     ENE    79   5.5     ENE      76     265       584       1.8       6.4      87.6      6.46
   06/23/2020 13:40      86.8      86.1       40     59.2      0.00     17.48      79.3     0.47      1013.5     2.5       E    98   6.3       E     101     265       591       1.7       6.1      86.8      6.46
   06/23/2020 13:30      87.2      86.3       40     59.8      0.00     17.48      79.3     0.47      1013.7     2.3      NE    48   4.9      SE     145     265       591       1.2       5.8      85.9      6.46
   06/23/2020 13:20      86.6      85.5       41     59.8      0.00     17.48      79.3     0.47      1013.9     2.5     ENE    72   5.8       S     172     265       597       1.3       5.6      85.0      6.47
   06/23/2020 13:10      86.6      84.7       42     60.1      0.00     17.48      79.3     0.47      1013.9     2.1      NE    44   4.7     NNE      32     265       592       1.2       5.4      84.1      6.47
   06/23/2020 13:00      85.5      82.6       44     59.3      0.00     17.48      79.3     0.47      1014.0     1.8     ESE   123   4.5       E      97     265       606       1.4       5.2      83.1      6.47
   06/23/2020 12:50      85.4      83.3       43     59.8      0.00     17.48      79.2     0.47      1014.0     2.2     ENE    72   4.6       E      87     265       600       1.2       5.0      82.3      6.47
   06/23/2020 12:40      84.6      82.8       45     60.3      0.00     17.48      79.2     0.47      1014.1     1.4      NW   322   4.1     WSW     255     265       597       1.1       4.8      81.2      6.47
   06/23/2020 12:30      82.9      81.8       47     60.3      0.00     17.48      79.4     0.47      1014.3     1.9       N    10   5.2     NNE      25     265       596       0.7       4.6      80.4      6.47
   06/23/2020 12:20      82.6      81.4       48     60.5      0.00     17.48      79.3     0.47      1014.4     2.0      NE    56   4.0     NNW     344     265       594       1.3       4.5      79.4      6.47
   06/23/2020 12:10      81.8      81.1       49     60.7      0.00     17.48      79.3     0.47      1014.5     1.7       N   356   4.1     NNE      21     265       590       0.8       4.2      78.5      6.48
   06/23/2020 12:00      81.1      79.8       51     60.5      0.00     17.48      79.4     0.47      1014.6     1.7      NE    52   4.6      NE      40     266       586       1.0       4.1      77.5      6.48
   06/23/2020 11:50      80.0      79.1       52     60.3      0.00     17.48      79.4     0.47      1014.7     2.1     NNE    24   3.9       N       7     266       580       0.9       3.9      76.6      6.48
   06/23/2020 11:40      79.4      78.2       52     59.9      0.00     17.48      79.5     0.47      1014.8     1.4     NNE    22   4.2     NNE      12     266       574       0.9       3.8      75.6      6.48
   06/23/2020 11:30      78.3      76.9       54     59.6      0.00     17.48      79.5     0.47      1014.9     1.6      NE    42   4.0      NE      41     266       569       0.8       3.6      74.5      6.48
   06/23/2020 11:20      77.2      76.0       56     59.5      0.00     17.48      79.5     0.47      1014.9     1.3       N     2   3.1      NE      44     266       561       0.9       3.5      73.5      6.48
   06/23/2020 11:10      76.2      74.7       57     59.3      0.00     17.48      79.6     0.47      1014.9     1.4       N   360   3.5     NNE      17     266       550       1.0       3.4      72.7      6.48
   06/23/2020 11:00      74.7      73.0       60     59.1      0.00     17.48      79.6     0.47      1014.9     1.3       N   352   2.8     NNE      17     267       539       0.9       3.2      72.1      6.48
   06/23/2020 10:50      73.0      72.0       62     58.8      0.00     17.48      79.7     0.47      1015.0     1.7     NNE    22   4.8     NNE      14     267       534       0.7       3.1      71.5      6.48
   06/23/2020 10:40      72.8      72.3       62     58.8      0.00     17.48      79.8     0.47      1015.0     1.3     NNE    22   2.9     ENE      63     268       437       0.8       2.9      70.8      6.48
   06/23/2020 10:30      72.5      71.5       63     58.7      0.00     17.48      79.8     0.47      1015.0     1.1      NE    35   3.2      NE      51     268       497       0.8       2.8      70.1      6.48
   06/23/2020 10:20      72.1      68.6       67     58.9      0.00     17.48      79.8     0.47      1015.1     0.6     NNW   329   2.3       W     264     268       500       0.8       2.7      69.4      6.48
   06/23/2020 10:10      68.6      66.3       74     58.5      0.00     17.48      79.9     0.47      1015.2     0.7     NNW   346   2.1     ESE     112     268       402       0.4       2.5      68.4      6.48
   06/23/2020 10:00      66.5      65.9       76     58.4      0.00     17.48      80.0     0.47      1015.2     1.6       E    90   3.5       E      91     270       288       1.0       2.5      67.8      6.48
   06/23/2020 09:50      65.9      64.9       79     58.5      0.00     17.48      80.0     0.47      1015.2     1.3     ENE    74   4.3     ENE      73     270       272       0.6       2.3      67.5      6.48
   06/23/2020 09:40      65.2      64.2       80     58.4      0.00     17.48      80.1     0.47      1015.4     1.3     NNE    32   3.2     ENE      67     270       217       0.7       2.2      67.2      6.48
   06/23/2020 09:30      64.3      63.4       82     58.3      0.00     17.48      80.0     0.47      1015.5     0.8     ENE    69   2.2       E      91     271       178       0.5       2.1      66.9      6.48
   06/23/2020 09:20      63.5      63.2       83     58.1      0.00     17.48      80.1     0.47      1015.6     1.6       E    82   3.8      SE     146     272       146       1.0       2.0      66.7      6.48
   06/23/2020 09:10      63.3      62.8       84     58.1      0.00     17.48      80.2     0.47      1015.8     1.1       E    97   3.9       E      93     272       113       0.5       1.8      66.5      6.48
   06/23/2020 09:00      62.9      62.3       85     58.0      0.00     17.48      80.2     0.48      1015.7     1.1      NE    42   3.4     NNE      25     272        98       0.7       1.8      66.3      6.48
   06/23/2020 08:50      62.9      62.3       85     58.0      0.00     17.48      80.3     0.48      1015.8     1.6     ESE   110   5.0      SE     130     272        85       0.8       1.6      66.3      6.48
   06/23/2020 08:40      62.6      62.3       86     58.1      0.00     17.48      80.4     0.48      1015.7     1.2      NE    51   3.4      SE     139     273        71       0.6       1.5      66.3      6.48
   06/23/2020 08:30      62.5      62.0       86     58.1      0.00     17.48      80.4     0.48      1015.7     1.1     ENE    66   3.0      NE      45     273        52       0.4       1.4      66.1      6.48
   06/23/2020 08:20      62.3      61.8       87     58.0      0.00     17.48      80.4     0.48      1015.5     1.3     NNE    33   2.7       E      84     273        57       0.4       1.3      66.2      6.48
   06/23/2020 08:10      62.4      61.9       86     58.1      0.00     17.48      80.4     0.48      1015.5     1.2     ENE    71   2.6     ENE      70     273        51       0.5       1.3      66.1      6.48
   06/23/2020 08:00      62.3      61.5       87     58.1      0.00     17.48      80.5     0.48      1015.4     0.4     ENE    76   1.7      NE      39     273        48       0.3       1.2      66.0      6.48
   06/23/2020 07:50      61.6      61.3       88     57.9      0.00     17.48      80.5     0.48      1015.3     0.7     ESE   104   2.5      SE     140     273        42       0.3       1.1      66.0      6.48
   06/23/2020 07:40      61.6      61.4       89     58.1      0.00     17.48      80.6     0.48      1015.3     0.9      NE    39   2.7      NE      45     274        32       0.4       1.1      66.0      6.48
   06/23/2020 07:30      61.6      61.3       89     58.2      0.00     17.48      80.5     0.48      1015.3     1.3      NE    34   3.3      NE      41     274        26       0.4       1.0      66.0      6.48
   06/23/2020 07:20      61.5      61.1       90     58.3      0.00     17.48      80.7     0.48      1015.3     1.3      NE    37   2.6      NE      39     274        23       0.2       1.0      66.0      6.48
   06/23/2020 07:10      61.4      60.9       90     58.2      0.00     17.48      80.7     0.48      1015.3     0.9      NE    46   1.9     NNE      33     274        16       0.2       0.9      66.0      6.48
   06/23/2020 07:00      61.2      60.8       90     58.1      0.00     17.48      80.8     0.48      1015.3     1.6       E    98   4.2     ESE     120     272        10       0.9       0.9      66.0      6.48
   06/23/2020 06:50      61.1      60.8       90     58.0      0.00     17.48      80.8     0.48      1015.2     1.1       E   100   2.7     ENE      72     272         6       0.9       0.8      66.1      6.48
   06/23/2020 06:40      61.1      60.9       90     58.0      0.00     17.48      80.9     0.48      1015.2     0.8       E    87   2.4     ENE      71     272         5       0.3       0.6      66.1      6.48
   06/23/2020 06:30      61.2      60.9       90     58.1      0.00     17.48      80.9     0.48      1015.1     1.1      NE    35   2.7      NE      53     273         2       0.2       0.6      66.1      6.48
   06/23/2020 06:20      61.0      60.8       90     58.0      0.00     17.48      81.0     0.48      1015.1     1.0     NNE    13   2.5      NE      43     272        -2       0.2       0.5      66.1      6.48
   06/23/2020 06:10      61.2      60.8       90     58.0      0.00     17.48      81.0     0.48      1015.1     1.1     NNE    33   2.6     ENE      62     271        -4       0.2       0.5      66.3      6.48
   06/23/2020 06:00      61.1      60.8       90     57.9      0.00     17.48      81.1     0.48      1015.1     0.7       E    93   2.7     ESE     114     270        -5       0.5       0.5      66.3      6.48
   06/23/2020 05:50      61.1      60.8       90     58.0      0.00     17.48      81.2     0.48      1015.0     1.1      NE    46   2.8      NE      39     271        -6       0.2       0.4      66.4      6.48
   06/23/2020 05:40      61.0      60.7       90     57.9      0.00     17.48      81.2     0.48      1014.9     1.4      NE    46   2.7       E      91     270        -6       0.3       0.3      66.5      6.48
   06/23/2020 05:30      60.9      60.6       90     57.7      0.00     17.48      81.2     0.48      1014.8     1.4      NE    44   3.0      NE      48     256        -6       0.2       0.3      66.5      6.48
   06/23/2020 05:20      60.8      60.4       90     57.6      0.00     17.48      81.3     0.48      1014.8     1.3      NE    47   3.2      NE      40     234        -5       0.2       0.3      66.7      6.48
   06/23/2020 05:10      60.6      59.9       90     57.4      0.00     17.48      81.4     0.48      1014.7     1.1      NE    47   2.4      NE      48     262        -5       0.2       0.2      66.8      6.48
   06/23/2020 05:00      60.1      59.7       90     56.9      0.00     17.48      81.4     0.48      1014.6     1.2     ENE    63   2.8      NE      40     303       -10       0.4       0.2      66.8      6.49
   06/23/2020 04:50      59.8      59.3       89     56.4      0.00     17.48      81.5     0.48      1014.4     0.5     ENE    64   2.3      NE      42     317       -28       0.0       0.1      67.1      6.49
   06/23/2020 04:40      59.5      58.9       89     55.7      0.00     17.48      81.5     0.48      1014.2     0.2      SE   125   2.7     ESE     103     308       -31       0.0       0.1      67.3      6.49
   06/23/2020 04:30      59.2      58.9       88     55.6      0.00     17.48      81.5     0.48      1014.1     0.0     SSE   148   0.8      SE     136     296       -32       0.0       0.1      67.6      6.49
   06/23/2020 04:20      59.4      59.0       88     55.7      0.00     17.48      81.6     0.48      1013.9     0.0       S   175   0.5       S     170     283       -33       0.0       0.1      67.8      6.49
   06/23/2020 04:10      59.6      59.0       88     55.7      0.00     17.48      81.6     0.48      1013.9     0.0       N     0   0.0     SSE     161     270       -35       0.0       0.1      68.1      6.49
   06/23/2020 04:00      59.6      59.1       87     55.6      0.00     17.48      81.7     0.48      1013.8     0.0     SSE   155   0.9     SSE     148     261       -38       0.0       0.1      68.2      6.49
   06/23/2020 03:50      60.1      59.3       87     56.0      0.00     17.48      81.7     0.48      1013.7     0.8       S   187   1.4       S     174     249       -38       0.0       0.1      68.5      6.49
   06/23/2020 03:40      60.3      59.8       87     56.1      0.00     17.48      81.7     0.48      1013.6     0.3       S   185   1.3     SSW     195     245       -40       0.0       0.1      68.8      6.49
   06/23/2020 03:30      60.7      60.1       87     56.5      0.00     17.48      81.8     0.48      1013.6     0.6       S   176   1.4       S     184     236       -42       0.0       0.1      69.1      6.49
   06/23/2020 03:20      60.9      60.4       86     56.4      0.00     17.48      81.9     0.48      1013.6     0.0       S   188   0.8       S     188     230       -46       0.0       0.1      69.3      6.49
   06/23/2020 03:10      61.2      60.6       86     56.6      0.00     17.48      82.0     0.48      1013.6     0.7     SSW   193   1.7     SSW     202     224       -48       0.0       0.1      69.6      6.49
   06/23/2020 03:00      61.5      61.0       85     56.7      0.00     17.48      82.0     0.48      1013.6     0.0       S   181   0.9       S     184     222       -52       0.0       0.1      69.9      6.49
   06/23/2020 02:50      61.8      61.2       84     56.5      0.00     17.48      82.0     0.48      1013.8     0.3     SSE   165   1.2     SSE     161     223       -54       0.0       0.1      70.1      6.49
   06/23/2020 02:40      62.0      61.6       84     56.9      0.00     17.48      82.0     0.48      1013.9     0.1     ESE   114   1.1      SE     135     228       -56       0.0       0.1      70.4      6.49
   06/23/2020 02:30      62.1      61.9       84     57.0      0.00     17.48      82.1     0.48      1014.1     0.5     ESE   103   1.2       E      83     254       -56       0.0       0.1      70.6      6.49
   06/23/2020 02:20      62.4      62.0       83     57.0      0.00     17.48      82.2     0.48      1014.1     0.8      SE   125   1.7      SE     138     263       -57       0.0       0.1      70.8      6.49
   06/23/2020 02:10      62.3      61.9       82     56.7      0.00     17.48      82.2     0.48      1014.1     0.8      SE   133   2.1      SE     135     262       -58       0.0       0.1      71.2      6.49
   06/23/2020 02:00      62.5      62.0       81     56.3      0.00     17.48      81.9     0.48      1014.0     0.0      SE   140   0.8      SE     140     251       -59       0.0       0.1      71.1      6.49
   06/23/2020 01:50      62.9      62.3       81     56.6      0.00     17.48      81.8     0.48      1014.2     0.0     ESE   108   1.0       E      88     255       -59       0.0       0.1      71.2      6.49
   06/23/2020 01:40      63.4      62.7       80     56.6      0.00     17.48      81.8     0.48      1014.2     0.0     ENE    73   0.2     ENE      73     262       -60       0.0       0.1      71.4      6.49
   06/23/2020 01:30      63.5      63.2       79     56.8      0.00     17.48      81.9     0.48      1014.1     0.2     ENE    72   1.6      NE      38     271       -61       0.0       0.1      71.8      6.49
   06/23/2020 01:20      64.0      63.4       78     56.8      0.00     17.48      81.9     0.48      1014.2     0.1       E    84   0.9     ESE     112     269       -61       0.0       0.1      72.0      6.49
   06/23/2020 01:10      64.2      63.8       78     57.1      0.00     17.48      82.0     0.48      1014.2     0.1     ENE    63   1.1       N      11     271       -63       0.0       0.1      72.2      6.50
   06/23/2020 01:00      64.4      64.1       78     57.2      0.00     17.48      82.3     0.48      1014.2     0.9       E    92   2.3       E      79     272       -63       0.3       0.1      72.8      6.50
   06/23/2020 00:50      64.3      63.7       78     57.1      0.00     17.48      82.6     0.48      1014.2     0.9       E    82   2.1       E      91     272       -63       0.4       0.0      73.3      6.50
   06/23/2020 00:40      63.9      63.5       77     56.5      0.00     17.48      82.6     0.48      1014.1     0.2      NE    39   2.0      NE      53     272       -62       0.0       0.0      73.7      6.50
   06/23/2020 00:30      64.0      63.6       76     56.0      0.00     17.48      82.6     0.48      1014.2     0.0      SE   143   0.7      SE     143     272       -62       0.0       0.0      73.9      6.50
   06/23/2020 00:20      64.3      63.9       75     56.1      0.00     17.48      82.6     0.48      1014.2     0.3       S   185   1.0      SE     137     272       -61       0.0       0.0      74.3      6.50
   06/23/2020 00:10      64.3      63.9       75     56.0      0.00     17.48      82.6     0.48      1014.2     0.2      SW   216   1.3      SW     222     272       -62       0.0       0.0      74.6      6.50
   06/23/2020 00:00      64.5      64.2       74     56.0      0.00     17.48      82.7     0.48      1014.2     0.5       S   175   1.6       S     184     272       -62       0.0      23.9      75.0      6.50
   06/22/2020 23:50      65.0      64.3       74     56.0      0.00     17.48      82.7     0.48      1014.3     0.2      SE   135   1.1       S     179     271       -63       0.0      23.9      75.3      6.50
   06/22/2020 23:40      64.8      64.3       73     55.8      0.00     17.48      82.7     0.48      1014.3     0.4       S   178   1.6       S     187     271       -63       0.0      23.9      75.6      6.50
   06/22/2020 23:30      65.3      64.4       71     55.4      0.00     17.48      82.7     0.48      1014.3     0.3     SSE   152   1.6      SE     135     271       -64       0.0      23.9      76.1      6.50
   06/22/2020 23:20      65.7      65.1       70     55.4      0.00     17.48      82.6     0.48      1014.2     0.6       S   186   1.7     SSW     193     270       -64       0.0      23.9      76.4      6.50
   06/22/2020 23:10      66.5      65.6       69     55.5      0.00     17.48      82.7     0.48      1014.2     0.6       S   186   1.6     SSW     195     270       -65       0.0      23.9      76.7      6.50
   06/22/2020 23:00      67.4      66.4       67     55.5      0.00     17.48      82.7     0.48      1014.2     0.7       S   191   1.8     SSW     203     270       -66       0.1      23.9      77.2      6.50
   06/22/2020 22:50      68.0      67.3       66     55.8      0.00     17.48      82.6     0.48      1014.3     1.5      SW   222   2.1      SW     219     270       -66       0.5      23.9      77.6      6.51
   06/22/2020 22:40      68.3      67.6       65     55.7      0.00     17.48      82.6     0.48      1014.3     0.8      SW   219   1.4       W     273     269       -68       0.0      23.8      77.9      6.51
   06/22/2020 22:30      68.7      68.2       64     55.7      0.00     17.48      82.7     0.48      1014.3     0.2      NE    47   1.4     NNE      16     269       -70       0.0      23.8      78.3      6.51
   06/22/2020 22:20      68.9      68.5       64     55.9      0.00     17.48      82.8     0.48      1014.4     0.6     ENE    77   1.7     SSE     163     269       -71       0.2      23.8      78.6      6.51
   06/22/2020 22:10      69.2      68.7       63     56.0      0.00     17.48      82.7     0.48      1014.3     1.1     SSW   210   4.5     SSW     205     269       -72       0.6      23.8      79.0      6.51
   06/22/2020 22:00      69.5      69.0       63     56.2      0.00     17.48      82.8     0.48      1014.3     2.3     SSW   214   4.8     WSW     246     269       -73       1.2      23.7      79.5      6.51
   06/22/2020 21:50      69.7      69.3       63     56.3      0.00     17.48      82.7     0.48      1014.3     3.5     WSW   249   6.5     WSW     250     269       -73       2.3      23.4      80.0      6.51
   06/22/2020 21:40      69.8      69.5       63     56.4      0.00     17.48      82.7     0.48      1014.3     2.8     WSW   242   6.7     WSW     249     269       -73       1.8      23.1      80.6      6.52
   06/22/2020 21:30      70.2      69.6       62     56.4      0.00     17.48      83.0     0.48      1014.2     2.6      SW   217   5.8      SW     229     269       -74       1.6      22.8      81.0      6.52
   06/22/2020 21:20      70.7      70.1       61     56.5      0.00     17.48      83.2     0.48      1014.3     3.6      SW   235   5.3      SW     219     268       -75       2.3      22.5      81.9      6.52
   06/22/2020 21:10      71.1      70.5       60     56.4      0.00     17.48      83.2     0.48      1014.2     2.4     SSW   206   5.0       W     261     268       -76       1.3      22.1      82.4      6.52
   06/22/2020 21:00      71.9      71.1       59     56.5      0.00     17.48      83.2     0.48      1014.0     1.7     SSW   207   3.6     SSW     201     268       -77       0.9      21.9      82.9      6.53
   06/22/2020 20:50      72.4      71.7       58     56.6      0.00     17.48      83.2     0.48      1014.0     1.9      SW   223   6.0     SSW     209     268       -78       0.9      21.7      83.5      6.53
   06/22/2020 20:40      73.0      72.2       57     56.6      0.00     17.48      83.1     0.48      1014.0     2.5      SW   228   4.5     WSW     252     268       -79       1.4      21.6      84.1      6.53
   06/22/2020 20:30      74.0      73.0       56     56.8      0.00     17.48      83.1     0.48      1014.0     2.7      SW   230   4.6     WSW     255     268       -80       1.7      21.4      84.7      6.53
   06/22/2020 20:20      74.8      73.9       54     56.8      0.00     17.48      83.2     0.48      1013.9     3.1     WSW   244   4.9     WSW     256     268       -80       1.9      21.1      85.4      6.54
   06/22/2020 20:10      75.7      74.7       53     57.0      0.00     17.48      83.2     0.48      1013.8     3.8     WSW   242   5.5     WSW     249     268       -78       2.4      20.8      86.1      6.54
   06/22/2020 20:00      76.9      75.7       51     57.1      0.00     17.48      83.2     0.48      1013.8     4.3     WSW   242   6.2     SSW     204     267       -75       2.9      20.4      86.8      6.54
   06/22/2020 19:50      77.7      76.8       50     57.2      0.00     17.48      83.1     0.48      1013.7     3.2     WSW   244   6.6     WSW     257     267       -72       2.2      19.9      87.4      6.55
   06/22/2020 19:40      78.6      77.6       49     57.3      0.00     17.48      83.1     0.48      1013.6     3.7     WSW   238   5.6      SW     229     267       -59       2.6      19.5      88.1      6.55
   06/22/2020 19:30      80.0      78.6       47     57.4      0.00     17.48      83.1     0.48      1013.5     4.5     WSW   239   7.9       W     260     267       -39       3.1      19.1      88.9      6.56
   06/22/2020 19:20      81.1      79.9       45     57.7      0.00     17.48      83.2     0.48      1013.5     3.2     WSW   247   5.7     SSW     199     266       -21       2.5      18.6      89.4      6.56
   06/22/2020 19:10      81.1      80.8       45     57.8      0.00     17.48      83.0     0.48      1013.4     4.3       W   266   7.1       W     274     266         0       3.3      18.1      90.0      6.56
   06/22/2020 19:00      82.6      81.1       44     57.9      0.00     17.48      82.9     0.48      1013.4     4.4       W   271   8.9     WSW     251     266        21       2.9      17.6      90.8      6.57
   06/22/2020 18:50      82.7      82.1       43     57.9      0.00     17.48      82.8     0.48      1013.3     3.7       W   264   7.1      SW     236     266        45       2.8      17.1      91.2      6.57
   06/22/2020 18:40      83.3      82.5       43     58.0      0.00     17.48      82.8     0.48      1013.3     3.8       W   264   7.5       W     271     266        68       2.7      16.6      91.7      6.57
   06/22/2020 18:30      84.5      83.1       42     58.1      0.00     17.48      82.6     0.48      1013.1     4.4       W   260   8.0     WSW     243     266        93       3.3      16.2      92.2      6.58
   06/22/2020 18:20      85.1      84.3       41     58.4      0.00     17.48      82.5     0.48      1013.0     3.0     WNW   287   7.8     WSW     256     265       117       2.5      15.7      92.7      6.58
   06/22/2020 18:10      85.3      84.5       41     58.3      0.00     17.48      82.4     0.48      1013.0     4.8     WSW   254   9.2       W     268     266       143       3.4      15.2      93.0      6.59
   06/22/2020 18:00      86.3      85.3       40     58.6      0.00     17.48      82.2     0.48      1013.1     4.2     WSW   258   8.4     WSW     255     265       166       3.0      14.7      93.4      6.59
   06/22/2020 17:50      86.8      86.0       40     58.9      0.00     17.48      82.1     0.48      1013.1     4.1       W   264   7.7      NW     319     265       190       3.4      14.2      93.6      6.60
   06/22/2020 17:40      86.6      85.6       40     59.1      0.00     17.48      81.9     0.48      1013.2     4.0       W   260   8.5       W     261     265       215       3.2      13.6      93.9      6.60
   06/22/2020 17:30      86.8      85.7       40     59.1      0.00     17.48      81.7     0.48      1013.3     5.4     WSW   243   9.0      SW     215     265       238       3.8      13.1      93.9      6.60
   06/22/2020 17:20      87.4      86.2       39     59.2      0.00     17.48      81.6     0.47      1013.3     5.0     WSW   246   8.2       W     269     265       260       3.6      12.4      94.2      6.61
   06/22/2020 17:10      87.8      87.1       39     59.6      0.00     17.48      81.4     0.47      1013.4     3.5     WSW   236   7.8     WSW     255     265       281       2.4      11.8      94.2      6.61
   06/22/2020 17:00      88.2      86.9       39     59.5      0.00     17.48      81.2     0.47      1013.5     2.8       S   175   6.6     ESE     119     265       302       1.4      11.4      94.0      6.62
   06/22/2020 16:50      87.9      87.2       39     59.5      0.00     17.48      81.1     0.47      1013.5     3.9      SW   225   8.5     SSW     204     265       325       2.7      11.2      93.9      6.62
   06/22/2020 16:40      88.3      86.8       38     58.8      0.00     17.48      80.8     0.47      1013.6     3.5       S   190   7.5     SSW     194     265       344       2.4      10.8      93.8      6.62
   06/22/2020 16:30      88.7      87.2       35     56.8      0.00     17.48      80.6     0.47      1013.7     2.7      SE   127   7.0     SSW     198     265       362       1.8      10.3      93.6      6.63
   06/22/2020 16:20      88.5      87.5       36     57.8      0.00     17.48      80.5     0.47      1013.8     2.2     SSE   166   6.2       S     177     265       382       1.5      10.1      93.4      6.63
   06/22/2020 16:10      89.8      88.2       33     55.8      0.00     17.48      80.3     0.47      1013.9     2.5     SSE   152   6.7       E      82     265       403       1.7       9.8      93.1      6.63
   06/22/2020 16:00      89.2      88.6       32     54.9      0.00     17.48      80.1     0.47      1013.9     2.1       E    85   8.7      NE      51     265       422       1.4       9.5      93.0      6.63
   06/22/2020 15:50      89.1      88.3       32     54.8      0.00     17.48      80.0     0.47      1013.9     2.8     ENE    73   6.7       E      86     265       437       1.3       9.3      92.6      6.64
   06/22/2020 15:40      89.4      88.3       33     56.0      0.00     17.48      79.7     0.47      1014.0     2.3       E    90   5.9      SE     131     265       456       1.5       9.1      92.1      6.64
   06/22/2020 15:30      88.8      88.2       33     56.0      0.00     17.48      79.6     0.47      1014.1     2.3       E    92   5.0     SSE     152     265       470       1.5       8.8      91.8      6.64
   06/22/2020 15:20      89.4      88.2       33     56.3      0.00     17.48      79.5     0.47      1014.2     2.5     ENE    68   5.7     ENE      65     265       484       1.3       8.6      91.3      6.65
   06/22/2020 15:10      89.6      88.7       34     57.0      0.00     17.48      79.2     0.47      1014.3     2.6     NNE    30   6.1      NE      54     265       498       1.1       8.3      90.8      6.65
   06/22/2020 15:00      88.8      88.0       35     57.5      0.00     17.48      79.1     0.47      1014.3     2.2      NE    43   7.0      SE     129     265       509       1.0       8.2      90.2      6.65
   06/22/2020 14:50      88.7      87.4       37     58.2      0.00     17.48      78.9     0.47      1014.3     2.5     NNE    26   6.2     NNE      21     265       523       1.2       8.0      89.6      6.66
   06/22/2020 14:40      88.8      87.9       37     58.5      0.00     17.48      78.8     0.47      1014.4     1.8      NE    44   5.3     ENE      79     265       534       0.6       7.8      88.7      6.66
   06/22/2020 14:30      87.9      86.4       39     59.1      0.00     17.48      78.7     0.47      1014.5     1.7       N   351   5.8     NNE      30     265       544       1.1       7.7      88.0      6.66
   06/22/2020 14:20      87.7      86.3       39     58.9      0.00     17.48      78.8     0.47      1014.6     2.5     NNE    32   6.2      NE      44     265       555       1.5       7.5      87.5      6.66
   06/22/2020 14:10      87.8      87.1       38     58.6      0.00     17.48      78.7     0.47      1014.7     2.0      NE    48   4.9     ENE      66     266       562       1.1       7.2      86.8      6.66
   06/22/2020 14:00      87.7      86.4       39     58.9      0.00     17.48      78.7     0.47      1014.7     2.3     NNE    23   4.7     NNE      14     266       571       1.0       7.1      85.8      6.67
   06/22/2020 13:50      86.7      85.3       40     59.1      0.00     17.48      78.6     0.47      1014.8     2.1      NE    48   5.7     NNE      14     265       578       1.2       6.9      85.0      6.67
   06/22/2020 13:40      86.2      85.0       41     59.3      0.00     17.48      78.6     0.47      1014.9     1.8       N   351   4.4     NNW     327     265       585       1.4       6.7      84.2      6.67
   06/22/2020 13:30      85.8      84.2       42     59.4      0.00     17.48      78.6     0.47      1014.9     1.8      NE    40   4.4     SSE     149     265       587       0.9       6.5      83.3      6.67
   06/22/2020 13:20      84.5      82.9       44     59.5      0.00     17.48      78.5     0.47      1015.1     1.6     NNE    13   4.3      NW     322     265       593       0.9       6.3      82.4      6.67
   06/22/2020 13:10      83.5      81.3       45     59.3      0.00     17.48      78.5     0.47      1015.3     1.5     NNW   339   3.6       N       6     265       595       1.0       6.2      81.5      6.68
   06/22/2020 13:00      81.6      80.6       47     59.1      0.00     17.48      78.5     0.47      1015.4     2.4     ESE   102   5.1     NNW     329     265       602       1.2       6.0      80.6      6.68
   06/22/2020 12:50      82.0      79.6       48     59.1      0.00     17.48      78.5     0.47      1015.5     2.3     SSW   192   5.9       S     174     266       602       1.7       5.8      79.6      6.68
   06/22/2020 12:40      81.2      79.7       49     59.2      0.00     17.48      78.5     0.47      1015.7     1.2     NNW   349   4.1     ENE      60     266       601       1.0       5.5      78.8      6.68
   06/22/2020 12:30      80.8      79.4       48     58.7      0.00     17.48      78.5     0.47      1015.8     1.5     ENE    68   5.1     ENE      62     266       596       1.0       5.3      77.8      6.68
   06/22/2020 12:20      79.4      77.4       50     58.6      0.00     17.48      78.6     0.47      1015.9     1.5     NNW   335   4.3      NW     309     266       595       1.2       5.2      76.7      6.69
   06/22/2020 12:10      77.4      76.3       52     57.7      0.00     17.48      78.6     0.47      1016.1     1.8       W   267   4.7       W     268     266       592       1.7       5.0      75.6      6.69
   06/22/2020 12:00      76.9      75.9       53     57.8      0.00     17.48      78.9     0.47      1016.1     1.9     NNW   348   4.5     NNE      22     266       588       1.1       4.7      75.1      6.69
   06/22/2020 11:50      76.6      75.7       53     57.8      0.00     17.48      79.9     0.47      1016.2     1.9      NE    44   4.5       E      95     266       583       1.0       4.5      75.1      6.69
   06/22/2020 11:40      75.6      73.6       56     57.6      0.00     17.48      79.9     0.47      1016.3     1.9     WNW   290   4.2     WSW     255     266       577       2.0       4.4      74.2      6.69
   06/22/2020 11:30      74.2      72.8       58     57.6      0.00     17.48      79.9     0.47      1016.4     1.9       S   182   4.5     ESE     123     266       569       1.4       4.0      73.1      6.69
   06/22/2020 11:20      73.0      71.9       59     57.5      0.00     17.48      79.9     0.47      1016.5     1.3       E    89   3.6       E     100     266       559       1.1       3.8      72.1      6.69
   06/22/2020 11:10      71.9      70.9       61     57.4      0.00     17.48      79.9     0.47      1016.5     1.6       E    98   4.7      SE     133     267       554       1.4       3.6      71.4      6.69
   06/22/2020 11:00      71.3      69.6       63     57.4      0.00     17.48      79.6     0.47      1016.6     1.5     ESE   103   4.5     ESE     113     267       545       1.1       3.4      70.4      6.69
   06/22/2020 10:50      69.8      67.7       67     57.2      0.00     17.48      78.6     0.47      1016.6     1.4      NW   324   2.9     WSW     254     267       538       1.0       3.2      68.9      6.69
   06/22/2020 10:40      67.9      66.8       69     57.0      0.00     17.48      78.7     0.47      1016.6     2.0      SE   138   4.3       S     186     268       476       1.3       3.0      68.0      6.69
   06/22/2020 10:30      66.8      66.2       71     57.0      0.00     17.48      78.7     0.47      1016.7     1.9     SSE   146   4.0      SE     135     269       281       1.3       2.8      67.2      6.69
   06/22/2020 10:20      66.9      66.1       72     57.0      0.00     17.48      78.8     0.47      1016.7     2.2      SE   132   6.1      SW     215     270       280       1.5       2.6      66.7      6.69
   06/22/2020 10:10      67.2      65.8       72     57.3      0.00     17.48      78.8     0.47      1016.7     1.3       E    86   3.8     ESE     113     270       289       0.7       2.4      66.4      6.69
   06/22/2020 10:00      65.8      64.9       76     57.2      0.00     17.48      78.9     0.47      1016.7     1.2      NE    40   2.6      NE      48     270       239       0.4       2.2      66.0      6.69
   06/22/2020 09:50      65.0      64.2       77     57.1      0.00     17.48      78.9     0.47      1016.6     0.6      NE    42   2.3       S     174     271       156       0.4       2.2      65.7      6.69
   06/22/2020 09:40      64.6      63.7       78     57.3      0.00     17.48      78.9     0.47      1016.7     0.8       E    97   2.2     SSW     205     271       128       0.6       2.1      65.5      6.69
   06/22/2020 09:30      63.9      63.2       80     57.2      0.00     17.48      79.0     0.47      1016.8     0.7     NNE    27   2.7       E      95     272       108       0.3       2.0      65.4      6.69
   06/22/2020 09:20      63.3      62.5       81     57.0      0.00     17.48      79.0     0.47      1016.8     0.6       E    80   1.8     ENE      64     272        93       0.2       2.0      65.3      6.69
   06/22/2020 09:10      62.6      62.2       82     56.8      0.00     17.48      79.0     0.47      1016.8     0.8      SE   143   2.0     ESE     104     272        79       0.5       1.9      65.2      6.69
   06/22/2020 09:00      62.6      62.3       82     57.0      0.00     17.48      79.2     0.47      1016.8     0.8     ESE   117   2.0     SSW     208     272        63       0.6       1.9      65.1      6.69
   06/22/2020 08:50      62.5      61.7       84     57.1      0.00     17.48      79.1     0.47      1016.7     0.4     NNE    23   2.0     NNE      32     272        58       0.2       1.8      65.1      6.69
   06/22/2020 08:40      61.9      61.4       84     56.8      0.00     17.48      79.2     0.47      1016.6     0.4     SSE   152   1.6       E      80     273        50       0.3       1.7      65.0      6.69
   06/22/2020 08:30      61.6      61.3       85     56.8      0.00     17.48      79.3     0.48      1016.6     0.6     ESE   103   2.0     ESE     103     273        44       0.2       1.7      65.0      6.69
   06/22/2020 08:20      61.5      60.9       86     57.0      0.00     17.48      79.3     0.47      1016.5     0.4       S   186   1.6     SSW     194     273        39       0.3       1.6      65.0      6.69
   06/22/2020 08:10      61.1      60.7       86     56.8      0.00     17.48      79.3     0.48      1016.5     0.7     ENE    65   2.2     ENE      75     273        34       0.4       1.6      65.0      6.69
   06/22/2020 08:00      61.0      60.5       87     56.7      0.00     17.48      79.4     0.48      1016.5     0.8     ESE   116   3.6      SE     140     273        30       0.5       1.5      65.0      6.69
   06/22/2020 07:50      60.7      60.3       87     56.6      0.00     17.48      79.4     0.48      1016.4     0.9     SSE   158   2.7     ESE     122     273        27       0.4       1.4      65.0      6.69
   06/22/2020 07:40      60.5      60.2       87     56.4      0.00     17.48      79.4     0.48      1016.3     1.3     ESE   123   3.5      SE     139     273        23       0.6       1.4      65.0      6.69
   06/22/2020 07:30      60.4      59.9       87     56.2      0.00     17.48      79.5     0.48      1016.2     1.8     SSE   153   3.6     ESE     116     273        19       0.9       1.3      65.0      6.69
   06/22/2020 07:20      60.1      59.7       87     56.0      0.00     17.48      79.6     0.48      1016.0     1.1     SSE   161   2.9     SSE     156     274        17       0.6       1.1      65.0      6.69
   06/22/2020 07:10      60.0      59.6       87     55.9      0.00     17.48      79.6     0.48      1016.0     1.5       S   177   3.7     SSW     208     274        12       1.0       1.0      65.0      6.69
   06/22/2020 07:00      59.7      59.3       88     55.8      0.00     17.48      79.7     0.48      1015.9     1.6     SSE   151   4.0      SE     141     274        10       0.6       0.9      65.0      6.69
   06/22/2020 06:50      59.7      59.3       88     55.9      0.00     17.48      79.7     0.48      1015.7     2.1       S   187   3.5       S     183     274         7       1.2       0.8      65.1      6.69
   06/22/2020 06:40      59.5      59.3       89     56.1      0.00     17.48      79.8     0.48      1015.6     1.4       S   176   3.0       S     188     274         5       0.9       0.6      65.1      6.69
   06/22/2020 06:30      59.5      59.1       90     56.3      0.00     17.48      79.8     0.48      1015.4     1.2       S   186   2.3     SSW     210     274         2       0.6       0.4      65.2      6.69
   06/22/2020 06:20      59.6      59.3       90     56.5      0.00     17.48      79.9     0.48      1015.3     0.6       S   169   1.8       S     178     273         0       0.2       0.3      65.3      6.69
   06/22/2020 06:10      59.6      59.2       90     56.5      0.00     17.48      79.9     0.48      1015.3     0.7     ESE   117   2.3     ENE      66     270        -2       0.1       0.3      65.3      6.69
   06/22/2020 06:00      59.5      59.0       90     56.5      0.00     17.48      80.0     0.48      1015.2     0.6       E    95   3.1       E      94     263        -4       0.3       0.3      65.5      6.69
   06/22/2020 05:50      59.2      58.9       90     56.2      0.00     17.48      80.1     0.48      1015.1     0.8       E    84   2.7       E      85     271        -5       0.4       0.2      65.5      6.69
   06/22/2020 05:40      59.2      58.9       90     56.2      0.00     17.48      80.1     0.48      1015.0     0.6     ENE    78   2.4       E      81     275        -5       0.3       0.1      65.7      6.69
   06/22/2020 05:30      59.1      58.8       90     56.2      0.00     17.48      80.2     0.48      1014.9     0.5       E    88   1.5     ENE      76     268        -5       0.1       0.1      65.8      6.69
   06/22/2020 05:20      59.0      58.7       90     56.1      0.00     17.48      80.2     0.48      1014.8     0.3     ENE    67   0.9      NE      55     272        -5       0.0       0.0      65.9      6.69
   06/22/2020 05:10      58.9      58.6       90     56.0      0.00     17.48      80.2     0.48      1014.7     0.8      NE    51   2.4      NE      55     286        -5       0.2       0.0      66.0      6.69
   06/22/2020 05:00      59.2      58.6       90     56.0      0.00     17.48      80.2     0.48      1014.6     1.2     ENE    60   2.3      NE      37     310        -6       0.1       0.0      66.2      6.70
   06/22/2020 04:50      59.2      58.8       91     56.3      0.00     17.48      80.4     0.48      1014.5     0.3     ENE    61   2.3     ENE      60     331        -5       0.1       0.0      66.3      6.70
   06/22/2020 04:40      59.0      58.0       91     55.9      0.00     17.48      80.5     0.48      1014.5     0.5      NE    46   1.6     NNE      30     347        -6       0.0       0.0      66.3      6.70
   06/22/2020 04:30      58.4      57.9       90     55.4      0.00     17.48      80.5     0.48      1014.4     0.1     ENE    71   1.0     ENE      62     355       -16       0.0       0.0      66.5      6.70
   06/22/2020 04:20      58.6      57.9       90     55.4      0.00     17.48      80.5     0.48      1014.4     0.3     ENE    67   1.6      NE      42     353       -22       0.0       0.0      66.8      6.70
   06/22/2020 04:10      58.2      57.8       90     55.0      0.00     17.48      80.4     0.48      1014.3     0.0     ESE   110   0.8     ENE      72     342       -21       0.0       0.0      67.0      6.70
   06/22/2020 04:00      58.0      57.6       90     54.8      0.00     17.48      80.6     0.48      1014.4     0.0       N     0   0.0     SSE     147     335       -20       0.0       0.0      67.2      6.70
   06/22/2020 03:50      58.1      57.8       89     54.9      0.00     17.48      80.6     0.48      1014.3     0.0     SSE   150   0.7     SSE     150     327       -25       0.0       0.0      67.5      6.70
   06/22/2020 03:40      58.4      57.9       89     54.9      0.00     17.48      80.7     0.48      1014.3     0.0       N     0   0.0      SE     146     317       -27       0.0       0.0      67.8      6.70
   06/22/2020 03:30      58.6      58.1       89     55.2      0.00     17.48      80.7     0.48      1014.3     0.1      SE   144   0.9      SE     131     309       -28       0.0       0.0      68.0      6.70
   06/22/2020 03:20      58.5      58.3       88     55.0      0.00     17.48      80.8     0.48      1014.2     0.0      SE   131   0.8      SE     131     301       -31       0.0       0.0      68.3      6.70
   06/22/2020 03:10      58.6      58.3       88     55.0      0.00     17.48      80.8     0.48      1014.2     0.0       N     0   0.0     SSE     162     288       -33       0.0       0.0      68.7      6.70
   06/22/2020 03:00      58.9      58.4       87     54.9      0.00     17.48      80.8     0.48      1014.3     0.0       N     0   0.0     SSE     162     274       -36       0.0       0.0      68.9      6.70
   06/22/2020 02:50      59.0      58.6       87     54.9      0.00     17.48      80.9     0.48      1014.4     0.0       N     0   0.0      SE     137     263       -39       0.0       0.0      69.2      6.70
   06/22/2020 02:40      59.5      59.0       87     55.3      0.00     17.48      80.9     0.48      1014.4     0.0      NE    51   0.7      NE      46     251       -43       0.0       0.0      69.5      6.70
   06/22/2020 02:30      59.5      59.3       86     55.3      0.00     17.48      81.0     0.48      1014.5     0.0       E   100   0.8       E     101     242       -46       0.0       0.0      69.9      6.70
   06/22/2020 02:20      59.6      59.1       86     55.1      0.00     17.48      81.1     0.48      1014.6     0.2      SE   145   1.3      SE     142     233       -50       0.0       0.0      70.1      6.70
   06/22/2020 02:10      60.0      59.4       85     55.4      0.00     17.48      81.0     0.48      1014.7     0.3     ESE   123   1.8      SE     144     228       -51       0.0       0.0      70.4      6.70
   06/22/2020 02:00      60.1      59.8       85     55.4      0.00     17.48      81.1     0.48      1014.7     0.5     ESE   121   1.3       E      93     225       -55       0.0       0.0      70.7      6.70
   06/22/2020 01:50      60.5      60.0       84     55.5      0.00     17.48      81.2     0.48      1014.7     0.4     ESE   117   1.2     ESE     107     225       -56       0.0       0.0      71.1      6.70
   06/22/2020 01:40      60.6      60.3       83     55.3      0.00     17.48      81.2     0.48      1014.8     0.3      SE   133   1.2     ESE     106     228       -58       0.0       0.0      71.4      6.70
   06/22/2020 01:30      60.9      60.5       82     55.3      0.00     17.48      81.3     0.48      1014.8     0.0     ESE   123   0.9     ESE     120     233       -59       0.0       0.0      71.7      6.70
   06/22/2020 01:20      61.4      60.8       81     55.3      0.00     17.48      81.3     0.48      1014.9     0.0       E    85   0.6     ENE      77     242       -59       0.0       0.0      72.0      6.71
   06/22/2020 01:10      61.6      61.2       80     55.4      0.00     17.48      81.3     0.48      1015.0     0.0       N     0   0.0     SSE     162     263       -60       0.0       0.0      72.4      6.71
   06/22/2020 01:00      62.0      61.6       80     55.5      0.00     17.48      81.3     0.48      1015.0     0.0     SSE   161   0.4       S     183     270       -61       0.0       0.0      72.7      6.71
   06/22/2020 00:50      62.4      61.8       79     55.4      0.00     17.48      81.4     0.48      1015.0     0.3      SE   142   1.1      SE     140     272       -62       0.0       0.0      73.1      6.71
   06/22/2020 00:40      62.6      62.3       78     55.5      0.00     17.48      81.4     0.48      1015.0     0.0     ENE    59   1.0      NE      50     272       -63       0.0       0.0      73.4      6.71
   06/22/2020 00:30      62.7      62.3       78     55.6      0.00     17.48      81.5     0.48      1015.0     0.4     ENE    60   1.5      NE      42     272       -63       0.0       0.0      73.7      6.71
   06/22/2020 00:20      62.8      62.3       78     55.4      0.00     17.48      81.5     0.48      1015.0     0.0      NE    49   0.5      NE      49     272       -63       0.0       0.0      74.0      6.71
   06/22/2020 00:10      63.1      62.5       77     55.4      0.00     17.48      81.5     0.48      1014.9     0.0       N     0   0.0     ESE     121     272       -63       0.0       0.0      74.4      6.71
   06/22/2020 00:00      63.4      62.9       76     55.6      0.00     17.48      81.6     0.48      1014.9     0.0       N     0   0.0     SSE     157     272       -63       0.0      18.1      74.7      6.71
   06/21/2020 23:50      63.9      63.3       75     55.7      0.00     17.48      81.5     0.48      1014.9     0.0       E    90   0.9     ESE     104     272       -63       0.0      18.1      75.1      6.71
   06/21/2020 23:40      64.5      63.7       74     55.6      0.00     17.48      81.6     0.48      1014.9     0.0     ESE   113   0.7       E      91     272       -63       0.0      18.1      75.4      6.72
   06/21/2020 23:30      64.4      64.0       74     55.9      0.00     17.48      81.6     0.48      1014.9     0.3     ESE   112   1.2     ESE     103     271       -64       0.0      18.1      75.9      6.72
   06/21/2020 23:20      64.2      63.7       75     55.7      0.00     17.48      81.6     0.48      1015.0     0.7     ESE   120   2.0     SSE     147     271       -64       0.0      18.1      76.2      6.72
   06/21/2020 23:10      64.7      63.9       74     55.7      0.00     17.48      81.7     0.48      1014.9     0.4      SE   140   1.0      SE     133     271       -64       0.0      18.1      76.6      6.72
   06/21/2020 23:00      65.5      64.6       72     55.8      0.00     17.48      81.7     0.48      1014.8     0.0       S   171   0.3       S     182     271       -64       0.0      18.1      77.1      6.72
   06/21/2020 22:50      66.5      65.3       70     55.8      0.00     17.48      81.7     0.48      1014.9     0.3     SSE   169   1.1     SSW     204     271       -64       0.0      18.1      77.5      6.72
   06/21/2020 22:40      66.5      66.2       70     56.4      0.00     17.48      81.7     0.48      1014.9     0.8      SW   227   1.5      SW     224     270       -65       0.0      18.1      77.9      6.72
   06/21/2020 22:30      66.8      66.3       70     56.3      0.00     17.48      81.7     0.48      1014.9     1.5     SSW   199   2.7     SSW     193     270       -67       0.5      18.1      78.3      6.73
   06/21/2020 22:20      66.9      66.6       69     56.3      0.00     17.48      81.7     0.48      1014.8     0.7     SSW   210   2.1      SW     215     270       -68       0.3      18.1      78.8      6.73
   06/21/2020 22:10      67.4      66.7       68     56.2      0.00     17.48      81.7     0.48      1014.7     0.8      SW   236   2.4       W     268     270       -69       0.3      18.0      79.2      6.73
   06/21/2020 22:00      67.5      67.1       68     56.3      0.00     17.48      81.7     0.48      1014.6     0.3       E    90   1.9       E      89     270       -70       0.2      17.9      79.6      6.73
   06/21/2020 21:50      68.0      67.4       67     56.3      0.00     17.48      81.7     0.48      1014.5     1.7     SSW   197   3.4     SSW     196     269       -69       0.9      17.9      80.1      6.73
   06/21/2020 21:40      68.6      68.0       66     56.4      0.00     17.48      81.7     0.48      1014.4     1.8     WSW   240   3.5      NW     311     269       -70       1.1      17.8      80.5      6.73
   06/21/2020 21:30      69.5      68.5       64     56.5      0.00     17.48      81.6     0.48      1014.2     2.2     WSW   240   4.3     WSW     244     269       -70       1.2      17.6      81.0      6.74
   06/21/2020 21:20      69.8      69.2       63     56.6      0.00     17.48      81.5     0.48      1014.0     2.0     WSW   245   4.6      SW     230     269       -71       1.1      17.4      81.4      6.74
   06/21/2020 21:10      70.3      69.7       63     56.7      0.00     17.48      81.6     0.48      1013.9     3.3     WSW   248   5.1     WSW     240     269       -71       2.1      17.2      81.9      6.74
   06/21/2020 21:00      70.7      70.2       62     56.8      0.00     17.48      81.5     0.48      1013.8     2.6      SW   222   3.9      SW     233     268       -72       1.4      16.9      82.5      6.75
   06/21/2020 20:50      70.7      70.3       61     56.6      0.00     17.48      81.4     0.48      1013.6     1.7     SSW   198   3.2     WSW     249     268       -73       0.8      16.6      82.9      6.75
   06/21/2020 20:40      71.3      70.5       60     56.5      0.00     17.48      81.3     0.48      1013.5     1.5       S   174   3.4     SSE     150     268       -74       0.8      16.5      83.2      6.75
   06/21/2020 20:30      72.3      71.2       59     56.9      0.00     17.48      81.3     0.48      1013.4     1.8       S   173   3.4       S     169     268       -75       1.0      16.4      83.8      6.75
   06/21/2020 20:20      72.6      72.0       59     57.1      0.00     17.48      81.3     0.48      1013.3     2.5     SSW   196   4.8     WSW     238     268       -75       1.6      16.2      84.4      6.75
   06/21/2020 20:10      73.6      72.5       57     57.1      0.00     17.48      81.2     0.48      1013.2     1.4     SSE   164   2.9     SSW     193     268       -74       0.6      15.9      84.9      6.76
   06/21/2020 20:00      74.9      73.4       55     56.9      0.00     17.48      81.2     0.48      1013.1     1.1      SE   140   2.6     SSE     153     268       -71       0.3      15.8      85.4      6.76
   06/21/2020 19:50      75.5      74.8       53     56.9      0.00     17.48      81.1     0.48      1013.1     0.3      NE    50   1.8      NE      40     268       -68       0.0      15.8      85.8      6.76
   06/21/2020 19:40      76.5      75.3       52     57.1      0.00     17.48      81.1     0.48      1012.9     1.0      NE    46   2.5     ENE      64     268       -57       0.3      15.8      86.3      6.76
   06/21/2020 19:30      77.0      76.4       51     57.4      0.00     17.48      81.0     0.48      1012.9     1.2      NE    36   2.4      NE      42     267       -37       0.3      15.7      86.7      6.77
   06/21/2020 19:20      77.5      76.9       51     57.6      0.00     17.48      81.0     0.48      1012.8     1.5      NE    45   3.2     ENE      73     267       -19       0.5      15.7      87.2      6.77
   06/21/2020 19:10      77.9      77.3       50     57.7      0.00     17.48      80.9     0.48      1012.8     1.6      NE    40   3.0      NE      41     267         0       0.4      15.6      87.5      6.77
   06/21/2020 19:00      78.5      77.8       50     57.8      0.00     17.48      80.9     0.48      1012.8     1.7      NE    41   3.8      NE      48     267        22       0.6      15.5      88.0      6.78
   06/21/2020 18:50      78.8      78.3       49     57.8      0.00     17.48      80.8     0.48      1012.7     1.6     NNE    33   4.6     NNE      23     267        44       0.7      15.4      88.3      6.78
   06/21/2020 18:40      78.6      78.1       49     57.8      0.00     17.48      80.7     0.48      1012.5     1.9     ENE    59   4.9     ENE      76     267        69       0.8      15.3      88.8      6.78
   06/21/2020 18:30      79.2      78.0       49     57.8      0.00     17.48      80.6     0.48      1012.4     2.5      NE    42   5.2      NE      53     267        92       0.8      15.2      89.0      6.78
   06/21/2020 18:20      79.4      78.7       48     57.8      0.00     17.48      80.5     0.48      1012.3     2.0      NE    45   3.3      NE      38     267       117       0.7      15.0      89.4      6.79
   06/21/2020 18:10      79.3      78.9       48     57.7      0.00     17.48      80.5     0.48      1012.3     2.2      NE    45   3.9      NE      48     266       141       0.8      14.9      89.6      6.79
   06/21/2020 18:00      80.4      79.3       47     57.7      0.00     17.48      80.4     0.48      1012.3     2.5      NE    36   5.3      NE      34     266       164       1.1      14.8      89.9      6.79
   06/21/2020 17:50      80.2      79.8       47     57.7      0.00     17.48      80.3     0.48      1012.4     2.5      NE    48   4.7     NNE      26     266       188       1.0      14.6      90.2      6.80
   06/21/2020 17:40      80.1      79.8       47     57.8      0.00     17.48      80.2     0.48      1012.5     2.7      NE    53   4.7     ENE      67     266       212       1.2      14.4      90.5      6.80
   06/21/2020 17:30      81.4      79.8       46     57.7      0.00     17.48      80.1     0.48      1012.6     2.9      NE    48   5.2      NE      53     266       233       1.2      14.3      90.7      6.80
   06/21/2020 17:20      81.9      81.3       45     57.9      0.00     17.48      80.1     0.48      1012.7     2.5      NE    50   5.1     NNE      32     266       256       1.2      14.1      90.9      6.81
   06/21/2020 17:10      82.5      81.4       44     58.0      0.00     17.48      80.0     0.47      1012.7     2.7     ENE    63   5.9       E      96     266       279       1.3      13.8      91.2      6.81
   06/21/2020 17:00      83.4      82.5       43     58.2      0.00     17.48      80.0     0.47      1012.8     2.3      NE    56   4.6     ENE      74     266       299       1.4      13.6      91.3      6.82
   06/21/2020 16:50      83.7      83.0       42     57.9      0.00     17.48      79.8     0.47      1012.9     2.1     ENE    70   4.9     ENE      71     266       322       1.4      13.4      91.6      6.82
   06/21/2020 16:40      84.4      83.0       41     58.0      0.00     17.48      79.8     0.47      1012.8     2.1      NE    43   4.6     ENE      75     266       343       1.2      13.2      91.4      6.82
   06/21/2020 16:30      84.5      83.0       42     58.2      0.00     17.48      79.5     0.47      1012.9     2.1      NE    51   5.8     ESE     109     266       366       1.2      12.9      91.5      6.83
   06/21/2020 16:20      83.8      82.5       43     58.2      0.00     17.48      79.4     0.47      1012.9     2.1     ESE   102   5.2     SSE     150     266       388       1.3      12.7      91.3      6.83
   06/21/2020 16:10      84.0      82.5       43     58.4      0.00     17.48      79.3     0.47      1013.0     3.0     ESE   118   5.8     ESE     114     266       407       1.8      12.5      91.0      6.83
   06/21/2020 16:00      84.0      83.0       42     58.3      0.00     17.48      79.2     0.47      1013.1     2.1     ENE    70   5.2     ENE      60     266       425       1.2      12.2      90.8      6.83
   06/21/2020 15:50      83.5      82.6       43     58.1      0.00     17.48      79.4     0.47      1013.2     3.0     ENE    70   7.4     ENE      66     266       444       1.5      12.0      91.0      6.84
   06/21/2020 15:40      84.6      82.9       42     58.0      0.00     17.48      79.2     0.47      1013.3     3.0       E    86   6.0      NE      46     266       460       1.9      11.8      91.0      6.84
   06/21/2020 15:30      85.3      84.5       40     58.2      0.00     17.48      79.0     0.47      1013.4     2.8      NE    54   5.6       E      82     266       470       1.4      11.4      90.5      6.85
   06/21/2020 15:20      85.3      83.4       41     58.0      0.00     17.48      78.9     0.47      1013.4     3.0     ENE    69   8.1      SE     141     266       488       1.7      11.2      90.2      6.85
   06/21/2020 15:10      86.3      83.8       40     57.8      0.00     17.48      78.8     0.47      1013.5     2.4     ESE   112   7.0      SE     141     265       501       1.3      10.9      89.8      6.86
   06/21/2020 15:00      86.1      84.7       38     57.2      0.00     17.48      78.6     0.47      1013.6     2.4      NE    53   5.0       N       3     265       512       1.2      10.7      89.3      6.86
   06/21/2020 14:50      85.2      83.5       39     56.5      0.00     17.48      78.6     0.47      1013.7     3.0     ENE    58  11.2     NNE      25     265       530       2.0      10.5      88.4      6.86
   06/21/2020 14:40      84.4      83.5       38     55.9      0.00     17.48      78.5     0.47      1013.8     1.3       N     6   3.3      SW     217     266       537       0.9      10.2      87.6      6.87
   06/21/2020 14:30      84.6      83.3       39     56.0      0.00     17.48      78.3     0.47      1013.9     2.3     ENE    72   4.1     ESE     111     265       550       1.5      10.0      87.0      6.87
   06/21/2020 14:20      85.3      84.1       38     56.5      0.00     17.48      78.4     0.47      1014.1     2.1     ENE    76   4.6      NE      42     265       559       1.6       9.8      86.7      6.87
   06/21/2020 14:10      84.1      83.0       39     56.3      0.00     17.48      78.3     0.47      1014.3     1.6      NE    49   3.1      SE     145     266       568       1.0       9.5      86.1      6.87
   06/21/2020 14:00      83.4      81.5       40     56.3      0.00     17.48      78.2     0.47      1014.4     1.5       N   353   4.5     ENE      60     266       575       1.2       9.3      85.3      6.88
   06/21/2020 13:50      81.6      80.0       42     55.7      0.00     17.48      78.2     0.47      1014.6     1.6      SE   142   4.5      SE     131     266       585       1.3       9.1      84.5      6.88
   06/21/2020 13:40      81.8      81.1       42     56.0      0.00     17.48      78.2     0.47      1014.8     1.4       N   351   3.7      NE      47     265       588       1.0       8.9      83.6      6.88
   06/21/2020 13:30      81.8      80.0       42     56.1      0.00     17.48      78.2     0.47      1015.0     1.3     NNE    22   4.6     NNE      23     266       592       0.9       8.8      82.9      6.88
   06/21/2020 13:20      80.0      78.8       45     56.2      0.00     17.48      78.1     0.47      1015.1     2.0     ENE    61   4.6      NE      43     265       598       1.3       8.6      82.0      6.88
   06/21/2020 13:10      78.9      78.3       47     56.4      0.00     17.48      78.1     0.47      1015.3     1.9     NNW   343   4.0     NNE      28     266       601       1.6       8.4      81.2      6.89
   06/21/2020 13:00      79.4      77.4       47     56.7      0.00     17.48      78.1     0.47      1015.4     1.9     NNE    17   4.8     NNE      33     266       602       0.9       8.1      80.3      6.89
   06/21/2020 12:50      78.5      77.0       48     56.2      0.00     17.48      78.1     0.47      1015.5     2.1      SW   234   4.7     WSW     239     266       605       1.9       8.0      79.2      6.89
   06/21/2020 12:40      78.5      77.3       49     56.7      0.00     17.48      78.2     0.47      1015.6     1.3      NW   310   3.2     NNW     332     266       601       1.2       7.7      78.4      6.89
   06/21/2020 12:30      77.4      75.2       51     56.5      0.00     17.48      78.2     0.47      1015.7     2.0      NW   310   5.5     WSW     253     266       593       1.4       7.5      77.4      6.89
   06/21/2020 12:20      75.3      74.0       53     56.1      0.00     17.48      78.2     0.47      1015.8     2.1     WNW   300   5.6       W     269     266       601       1.7       7.2      76.4      6.89
   06/21/2020 12:10      76.0      74.2       52     56.3      0.00     17.48      78.1     0.47      1015.9     2.4     WNW   293   6.4     WSW     249     266       594       2.3       6.9      75.7      6.89
   06/21/2020 12:00      74.7      72.3       54     56.2      0.00     17.48      78.2     0.47      1015.9     2.1     NNW   347   5.0     NNE      32     266       590       1.1       6.6      74.8      6.89
   06/21/2020 11:50      73.8      72.3       54     55.7      0.00     17.48      78.2     0.47      1016.0     2.8     WSW   254   5.5       W     279     266       585       2.3       6.4      73.9      6.90
   06/21/2020 11:40      74.1      72.8       55     56.2      0.00     17.48      78.3     0.47      1016.1     1.4      NW   319   5.0       W     265     266       578       1.8       6.0      73.0      6.90
   06/21/2020 11:30      72.9      71.2       56     55.9      0.00     17.48      78.3     0.47      1016.1     1.6     NNW   340   3.6     NNE      15     266       569       0.7       5.7      72.0      6.90
   06/21/2020 11:20      72.5      71.5       57     55.8      0.00     17.48      78.3     0.47      1016.0     1.2       N    10   3.8     WNW     292     266       564       1.0       5.6      71.1      6.90
   06/21/2020 11:10      71.7      69.8       59     55.7      0.00     17.48      78.4     0.47      1016.0     1.7     NNE    31   4.4      NE      43     266       558       0.8       5.4      70.3      6.90
   06/21/2020 11:00      70.6      68.5       61     55.7      0.00     17.48      78.5     0.47      1015.9     1.1       N   349   3.3     NNE      26     266       501       0.8       5.3      69.7      6.90
   06/21/2020 10:50      68.7      68.0       63     55.3      0.00     17.48      78.4     0.47      1015.9     1.4     NNW   342   3.1      NW     326     268       373       0.7       5.1      69.0      6.90
   06/21/2020 10:40      68.4      67.6       64     55.3      0.00     17.48      78.5     0.47      1015.9     1.0      NW   319   2.7     NNE      22     268       327       1.1       5.0      68.6      6.90
   06/21/2020 10:30      67.8      67.2       65     55.2      0.00     17.48      78.5     0.47      1015.9     1.0     NNE    17   3.6       N     351     268       279       0.5       4.8      68.2      6.90
   06/21/2020 10:20      67.4      65.8       67     55.2      0.00     17.48      78.6     0.47      1016.0     1.1      NE    43   3.0       N     354     268       310       0.6       4.7      67.8      6.90
   06/21/2020 10:10      65.8      64.8       69     55.1      0.00     17.48      78.7     0.47      1016.0     1.3      NE    39   3.1     NNE      24     269       260       0.5       4.6      67.4      6.90
   06/21/2020 10:00      65.1      64.3       71     55.0      0.00     17.48      78.7     0.47      1016.0     1.7     ENE    76   3.1      NE      54     270       187       1.0       4.5      67.1      6.90
   06/21/2020 09:50      65.1      63.9       71     55.0      0.00     17.48      78.8     0.47      1016.1     1.0      SE   131   2.6     ESE     106     270       169       0.7       4.4      66.9      6.90
   06/21/2020 09:40      63.9      63.0       73     54.8      0.00     17.48      78.8     0.47      1016.0     1.6     ENE    68   4.0      NE      50     270       155       0.7       4.3      66.7      6.90
   06/21/2020 09:30      63.6      63.0       73     54.6      0.00     17.48      78.8     0.47      1016.2     2.0     SSE   159   6.0      SE     128     270       131       1.1       4.1      66.5      6.90
   06/21/2020 09:20      63.4      62.5       75     54.6      0.00     17.48      78.8     0.47      1016.3     1.6     SSE   148   3.9      SE     136     270       116       0.9       3.9      66.3      6.90
   06/21/2020 09:10      62.9      62.5       75     54.5      0.00     17.48      78.8     0.47      1016.3     2.2     ESE   104   5.3       S     188     270       108       1.2       3.8      66.2      6.90
   06/21/2020 09:00      62.9      62.5       75     54.5      0.00     17.48      79.0     0.47      1016.3     1.5     ESE   103   3.4      SE     137     270        94       0.7       3.6      66.2      6.90
   06/21/2020 08:50      63.0      62.5       75     54.6      0.00     17.48      79.0     0.47      1016.3     1.6     ESE   105   4.3     ENE      61     270        89       0.8       3.5      66.1      6.90
   06/21/2020 08:40      62.8      62.3       75     54.6      0.00     17.48      79.1     0.47      1016.3     1.0     ESE   102   3.7       E      92     270        82       0.6       3.3      66.1      6.90
   06/21/2020 08:30      62.8      61.8       76     54.7      0.00     17.48      79.2     0.47      1016.3     0.7     ENE    76   1.8       E      96     271        74       0.3       3.2      66.0      6.90
   06/21/2020 08:20      61.9      61.3       78     54.5      0.00     17.48      79.2     0.47      1016.2     1.2     SSE   159   3.9       S     179     271        67       0.8       3.2      65.9      6.90
   06/21/2020 08:10      61.8      61.3       78     54.5      0.00     17.48      79.3     0.47      1016.1     1.3      SE   144   3.9      SE     140     271        59       0.5       3.0      65.9      6.90
   06/21/2020 08:00      61.6      61.2       79     54.8      0.00     17.48      79.3     0.48      1016.0     0.9      NE    40   2.6       E      82     271        55       0.5       3.0      65.9      6.90
   06/21/2020 07:50      61.5      61.0       80     54.9      0.00     17.48      79.3     0.48      1016.1     1.4     ENE    67   2.7       E      89     272        43       0.5       2.9      65.9      6.90
   06/21/2020 07:40      61.1      60.7       81     54.9      0.00     17.48      79.4     0.48      1016.0     1.1       E    93   2.6      SE     145     272        30       0.3       2.8      65.8      6.90
   06/21/2020 07:30      60.9      60.5       81     54.9      0.00     17.48      79.4     0.48      1016.0     1.5     ESE   110   3.2     ENE      63     272        21       0.7       2.8      66.0      6.90
   06/21/2020 07:20      61.0      60.5       82     55.1      0.00     17.48      79.5     0.48      1015.9     1.4       E    88   4.0       E      84     272        17       0.6       2.6      66.0      6.90
   06/21/2020 07:10      60.7      60.3       83     55.2      0.00     17.48      79.5     0.48      1015.8     1.1     ESE   105   2.7     ENE      71     272        13       0.4       2.5      66.1      6.90
   06/21/2020 07:00      60.5      60.2       83     55.2      0.00     17.48      79.5     0.48      1015.8     1.0     ESE   109   4.8      SE     132     272         8       0.4       2.5      66.1      6.90
   06/21/2020 06:50      60.4      59.9       84     55.1      0.00     17.48      79.5     0.48      1015.8     1.6     ESE   118   3.8     ESE     110     272         6       0.8       2.4      66.2      6.90
   06/21/2020 06:40      60.2      59.8       84     55.2      0.00     17.48      79.6     0.48      1015.7     1.2     SSE   151   3.5      SE     135     272         2       0.4       2.2      66.3      6.90
   06/21/2020 06:30      60.0      59.6       85     55.2      0.00     17.48      79.7     0.48      1015.7     1.4     SSE   159   3.9      SE     132     272        -1       0.6       2.2      66.3      6.90
   06/21/2020 06:20      59.8      59.5       85     55.2      0.00     17.48      79.7     0.48      1015.6     2.0      SE   136   3.8      SE     132     272        -5       0.6       2.1      66.4      6.90
   06/21/2020 06:10      59.8      59.5       85     55.2      0.00     17.48      79.7     0.48      1015.6     0.9     SSE   151   2.1     SSE     168     272        -8       0.4       2.0      66.5      6.90
   06/21/2020 06:00      59.6      59.3       86     55.1      0.00     17.48      79.7     0.48      1015.5     2.3      SE   142   3.7      SE     144     272        -9       0.9       1.9      66.6      6.90
   06/21/2020 05:50      59.8      59.4       85     55.0      0.00     17.48      79.8     0.48      1015.5     2.0     ESE   117   3.5      SE     139     272       -11       1.1       1.8      66.8      6.90
   06/21/2020 05:40      60.1      59.6       84     55.1      0.00     17.48      79.8     0.48      1015.4     2.1      SE   125   4.1      SE     143     272       -12       0.8       1.6      66.9      6.90
   06/21/2020 05:30      60.2      59.8       84     55.3      0.00     17.48      79.9     0.48      1015.4     1.4     ESE   110   2.7      SE     145     272       -13       0.6       1.4      67.1      6.90
   06/21/2020 05:20      60.2      59.9       84     55.3      0.00     17.48      79.9     0.48      1015.3     0.9     ESE   110   2.8     ESE     106     272       -13       0.6       1.3      67.2      6.91
   06/21/2020 05:10      60.4      59.8       84     55.3      0.00     17.48      79.9     0.48      1015.2     1.2      SE   132   3.0      SE     137     272       -13       0.6       1.2      67.4      6.91
   06/21/2020 05:00      60.4      60.1       84     55.5      0.00     17.48      80.0     0.48      1015.2     1.1       E    96   3.7     SSE     165     272       -13       0.5       1.2      67.5      6.91
   06/21/2020 04:50      60.5      60.3       84     55.6      0.00     17.48      80.0     0.48      1015.1     0.3       E    97   2.8       E      90     272       -13       0.0       1.1      67.6      6.91
   06/21/2020 04:40      60.4      60.1       85     55.6      0.00     17.48      80.0     0.48      1015.1     0.8      NE    49   2.0       E      92     272       -13       0.2       1.1      67.8      6.91
   06/21/2020 04:30      60.5      60.1       84     55.5      0.00     17.48      80.1     0.48      1015.1     0.5       S   179   1.9     SSW     193     272       -13       0.3       1.0      67.8      6.91
   06/21/2020 04:20      60.5      60.2       84     55.5      0.00     17.48      80.1     0.48      1015.2     0.3       W   263   2.1     NNE      20     272       -13       0.0       1.0      68.0      6.91
   06/21/2020 04:10      60.5      60.2       84     55.5      0.00     17.48      80.1     0.48      1015.2     1.0     NNE    17   3.0     NNE      21     272       -14       0.2       1.0      68.1      6.91
   06/21/2020 04:00      60.5      60.2       83     55.2      0.00     17.48      80.2     0.48      1015.2     0.8      SE   136   2.1     SSW     206     272       -14       0.2       0.9      68.3      6.91
   06/21/2020 03:50      60.4      60.1       83     55.2      0.00     17.48      80.3     0.48      1015.2     0.9       S   181   2.1     SSW     193     272       -14       0.4       0.9      68.4      6.91
   06/21/2020 03:40      60.4      60.2       83     55.2      0.00     17.48      80.2     0.48      1015.2     0.8     SSW   208   2.0       E      82     272       -14       0.5       0.8      68.6      6.91
   06/21/2020 03:30      60.5      60.2       83     55.2      0.00     17.48      80.3     0.48      1015.2     1.1       E    94   2.6     ENE      71     272       -14       0.4       0.8      68.7      6.91
   06/21/2020 03:20      60.9      60.4       82     55.1      0.00     17.48      80.3     0.48      1015.2     1.0     ESE   113   2.3     ESE     115     272       -14       0.2       0.7      68.9      6.91
   06/21/2020 03:10      61.0      60.7       82     55.4      0.00     17.48      80.3     0.48      1015.3     0.1       E    93   1.9     ENE      64     272       -14       0.0       0.7      69.1      6.91
   06/21/2020 03:00      61.0      60.8       82     55.4      0.00     17.48      80.4     0.48      1015.3     0.7     NNE    31   1.9      NE      40     272       -15       0.4       0.7      69.2      6.91
   06/21/2020 02:50      61.0      60.8       82     55.5      0.00     17.48      80.4     0.48      1015.4     0.5     NNE    24   1.9      NE      47     272       -14       0.0       0.6      69.4      6.91
   06/21/2020 02:40      61.1      60.7       82     55.5      0.00     17.48      80.4     0.48      1015.5     0.2       N     6   1.7       N       0     272       -14       0.0       0.6      69.5      6.91
   06/21/2020 02:30      61.0      60.6       83     55.5      0.00     17.48      80.5     0.48      1015.6     0.1       S   176   0.7      SW     221     272       -15       0.0       0.6      69.7      6.91
   06/21/2020 02:20      61.1      60.7       82     55.5      0.00     17.48      80.5     0.48      1015.7     0.7       N     5   2.5     NNE      18     272       -15       0.3       0.6      69.8      6.91
   06/21/2020 02:10      61.2      60.9       82     55.6      0.00     17.48      80.6     0.48      1015.8     0.6      NE    34   2.2     ENE      57     272       -15       0.0       0.5      70.0      6.91
   06/21/2020 02:00      61.1      60.7       83     55.7      0.00     17.48      80.6     0.48      1015.9     0.5     NNE    26   1.5       N      10     272       -15       0.0       0.5      70.2      6.91
   06/21/2020 01:50      60.8      60.5       84     55.7      0.00     17.48      80.6     0.48      1016.0     1.0       E    81   2.0     SSE     155     272       -14       0.3       0.5      70.4      6.91
   06/21/2020 01:40      60.7      60.3       84     55.5      0.00     17.48      80.6     0.48      1016.0     0.7      SE   145   1.9     SSE     153     272       -14       0.1       0.4      70.6      6.91
   06/21/2020 01:30      61.2      60.4       83     55.4      0.00     17.48      80.7     0.48      1016.1     0.9     ESE   122   2.4      SE     136     272       -15       0.3       0.4      70.7      6.91
   06/21/2020 01:20      61.4      60.9       82     55.5      0.00     17.48      80.7     0.48      1016.2     0.9      NE    50   3.2      NE      48     272       -15       0.3       0.4      71.0      6.91
   06/21/2020 01:10      61.4      60.9       82     55.7      0.00     17.48      80.7     0.48      1016.3     0.8      NE    35   2.0     NNE      24     272       -15       0.3       0.3      71.1      6.91
   06/21/2020 01:00      61.2      60.9       82     55.6      0.00     17.48      80.8     0.48      1016.3     1.3      NE    34   3.1      NE      37     272       -15       0.4       0.3      71.4      6.91
   06/21/2020 00:50      61.3      61.0       82     55.7      0.00     17.48      80.8     0.48      1016.4     0.8      NE    46   2.2     ENE      61     272       -15       0.0       0.2      71.6      6.92
   06/21/2020 00:40      61.6      61.2       82     55.8      0.00     17.48      80.9     0.48      1016.5     1.4      NE    43   3.1     NNE      31     272       -15       0.4       0.2      71.9      6.92
   06/21/2020 00:30      61.5      61.3       82     55.8      0.00     17.48      80.8     0.48      1016.5     1.6      NE    42   3.0     ENE      63     272       -16       0.3       0.1      72.0      6.92
   06/21/2020 00:20      61.6      61.3       82     55.9      0.00     17.48      80.9     0.48      1016.6     0.8     NNE    26   2.2     NNE      33     272       -16       0.2       0.0      72.3      6.92
   06/21/2020 00:10      61.6      61.3       82     55.9      0.00     17.48      80.9     0.48      1016.7     1.4      NE    45   3.1     NNE      25     272       -16       0.2       0.0      72.3      6.92
   06/21/2020 00:00      61.6      61.2       82     55.9      0.00     17.48      80.9     0.48      1016.8     1.5      NE    38   2.8      NE      46     272       -15       0.4      21.6      72.5      6.92
   06/20/2020 23:50      61.5      61.3       82     55.9      0.00     17.48      81.0     0.48      1016.8     1.2      NE    38   2.8       N     354     272       -15       0.2      21.6      72.7      6.92
   06/20/2020 23:40      61.4      61.3       82     55.9      0.00     17.48      81.0     0.48      1016.9     1.1      NE    54   2.9     NNE      31     272       -15       0.4      21.5      72.9      6.92
   06/20/2020 23:30      61.5      61.2       82     55.9      0.00     17.48      81.0     0.48      1016.9     0.9      NE    51   3.3       E      93     272       -16       0.2      21.5      73.2      6.92
   06/20/2020 23:20      61.5      61.2       82     55.9      0.00     17.48      80.8     0.48      1017.0     1.5      NE    42   2.8     NNE      26     272       -16       0.4      21.4      73.3      6.92
   06/20/2020 23:10      61.6      61.2       82     55.9      0.00     17.48      80.4     0.48      1017.0     1.2      NE    54   3.2       N       0     272       -15       0.4      21.4      73.2      6.92
   06/20/2020 23:00      61.5      61.1       83     56.0      0.00     17.48      80.4     0.48      1017.0     1.1      NE    35   2.9      NE      55     272       -23       0.3      21.3      73.5      6.92
   06/20/2020 22:50      61.4      61.0       83     55.9      0.00     17.48      80.5     0.48      1017.0     1.1     ENE    62   3.0       E      86     272       -34       0.5      21.3      73.8      6.92
   06/20/2020 22:40      61.5      61.2       82     55.9      0.00     17.48      80.4     0.48      1017.0     1.0     ENE    64   2.2     ENE      56     272       -37       0.4      21.2      74.1      6.92
   06/20/2020 22:30      61.5      61.3       82     55.8      0.00     17.48      80.5     0.48      1017.0     1.5     ENE    68   3.4      NE      45     272       -38       0.6      21.1      74.5      6.93
   06/20/2020 22:20      62.0      61.4       81     55.8      0.00     17.48      80.5     0.48      1017.0     1.1     ENE    61   2.8      NE      37     272       -57       0.5      21.0      74.9      6.93
   06/20/2020 22:10      62.0      61.8       80     55.8      0.00     17.48      80.3     0.48      1016.9     1.3      NE    53   2.4       E      92     272       -64       0.1      20.9      75.3      6.93
   06/20/2020 22:00      62.6      62.0       80     55.9      0.00     17.48      80.4     0.48      1016.9     1.3     ENE    59   2.6      NE      38     272       -66       0.5      20.9      75.7      6.93
   06/20/2020 21:50      62.8      62.3       79     55.9      0.00     17.48      80.5     0.48      1016.9     1.3     ENE    57   2.8      NE      47     272       -66       0.3      20.8      76.2      6.93
   06/20/2020 21:40      63.1      62.8       77     55.7      0.00     17.48      80.5     0.48      1016.8     0.9     ENE    61   2.2     ENE      76     272       -67       0.4      20.8      76.7      6.93
   06/20/2020 21:30      63.4      63.0       76     55.6      0.00     17.48      80.4     0.48      1016.6     0.2       E    96   1.2     ENE      75     271       -67       0.0      20.7      77.1      6.93
   06/20/2020 21:20      63.4      63.1       76     55.6      0.00     17.48      80.4     0.48      1016.5     0.5      SE   128   1.3     ENE      68     271       -68       0.2      20.7      77.4      6.94
   06/20/2020 21:10      63.5      63.2       76     55.7      0.00     17.48      80.4     0.48      1016.3     1.5       E    81   2.7     ENE      76     270       -69       0.7      20.7      77.9      6.94
   06/20/2020 21:00      63.9      63.4       76     55.8      0.00     17.48      80.4     0.48      1016.2     1.4     ESE   123   3.6     SSE     155     270       -69       0.7      20.6      78.3      6.94
   06/20/2020 20:50      64.3      63.7       75     55.9      0.00     17.48      80.6     0.48      1016.0     1.9      SE   133   4.2       E     101     270       -70       0.8      20.4      79.0      6.94
   06/20/2020 20:40      64.4      64.1       75     56.0      0.00     17.48      81.2     0.48      1016.0     1.8      SE   132   4.9     SSE     164     270       -70       0.7      20.3      80.2      6.94
   06/20/2020 20:30      64.7      64.2       74     56.0      0.00     17.48      81.1     0.48      1015.8     2.5      SE   144   4.5       S     175     270       -72       1.4      20.2      80.6      6.95
   06/20/2020 20:20      65.5      64.5       73     56.1      0.00     17.48      81.0     0.48      1015.7     3.0     SSE   161   5.5       S     188     270       -71       1.3      20.0      81.2      6.95
   06/20/2020 20:10      66.3      65.4       71     56.3      0.00     17.48      81.0     0.48      1015.6     2.7      SE   132   6.5     SSE     165     270       -69       1.5      19.8      82.0      6.95
   06/20/2020 20:00      66.5      66.1       71     56.5      0.00     17.48      80.8     0.48      1015.4     2.4     SSE   150   5.7       S     181     269       -66       1.1      19.5      82.3      6.95
   06/20/2020 19:50      67.7      66.3       69     56.5      0.00     17.48      80.7     0.48      1015.1     4.3       S   189   8.4     SSW     212     269       -61       2.6      19.3      83.0      6.96
   06/20/2020 19:40      69.1      67.7       66     56.7      0.00     17.48      80.2     0.48      1014.9     4.3     SSW   195   8.0      SW     222     268       -51       2.8      18.9      83.2      6.96
   06/20/2020 19:30      70.1      69.0       64     56.8      0.00     17.48      80.1     0.48      1014.6     4.5       S   180   8.5       S     188     268       -32       2.9      18.4      83.8      6.96
   06/20/2020 19:20      71.7      70.1       61     57.0      0.00     17.48      80.0     0.48      1014.5     5.0       S   191   8.4     SSE     168     268       -15       3.2      17.9      84.5      6.97
   06/20/2020 19:10      73.4      71.7       59     57.3      0.00     17.48      80.0     0.48      1014.3     5.1       S   181   9.6       S     169     268         4       3.2      17.4      85.1      6.97
   06/20/2020 19:00      75.7      73.2       56     57.6      0.00     17.48      79.9     0.48      1014.1     4.0       S   176   7.4      SW     223     267        24       2.4      16.9      85.6      6.98
   06/20/2020 18:50      77.2      75.5       53     58.0      0.00     17.48      79.9     0.48      1014.0     2.5      SE   136   5.0     SSW     192     267        45       1.6      16.4      86.1      6.98
   06/20/2020 18:40      78.1      77.0       51     57.9      0.00     17.48      79.9     0.48      1013.8     2.2      NE    54   4.3      NE      55     267        68       0.9      16.2      86.4      6.98
   06/20/2020 18:30      79.8      78.1       48     58.1      0.00     17.48      79.8     0.48      1013.7     1.5      NE    42   4.1     ENE      70     266        92       0.5      16.0      86.8      6.99
   06/20/2020 18:20      80.1      79.7       48     58.2      0.00     17.48      79.8     0.48      1013.7     0.9     NNE    34   2.7     ENE      68     266       117       0.5      15.9      87.0      6.99
   06/20/2020 18:10      80.3      79.6       47     58.1      0.00     17.48      79.7     0.48      1013.6     1.4     NNE    25   4.1     NNW     338     266       141       0.7      15.9      87.2      6.99
   06/20/2020 18:00      80.8      79.8       46     58.0      0.00     17.48      79.6     0.48      1013.5     2.0      NE    53   4.1     NNE      25     266       165       1.0      15.8      87.4      6.99
   06/20/2020 17:50      81.2      80.7       46     58.0      0.00     17.48      79.5     0.48      1013.4     1.6     ENE    61   3.2      NE      40     266       188       1.0      15.6      87.7      7.00
   06/20/2020 17:40      81.3      80.7       46     58.1      0.00     17.48      79.5     0.48      1013.4     2.0      NE    49   4.3      NE      49     266       210       0.9      15.4      87.8      7.00
   06/20/2020 17:30      81.6      81.2       45     58.1      0.00     17.48      79.4     0.48      1013.5     2.0      NE    48   4.4      NE      52     266       233       0.9      15.3      88.0      7.00
   06/20/2020 17:20      82.2      81.3       45     58.0      0.00     17.48      79.5     0.47      1013.6     2.3      NE    48   4.4     ENE      64     266       255       0.9      15.1      88.0      7.00
   06/20/2020 17:10      82.6      81.8       44     58.0      0.00     17.48      79.4     0.47      1013.7     2.4      NE    50   5.0     ENE      68     266       276       1.0      15.0      88.0      7.00
   06/20/2020 17:00      84.2      82.0       43     58.1      0.00     17.48      79.3     0.47      1013.8     2.6      NE    34   4.5       N       8     266       298       0.8      14.8      87.9      7.01
   06/20/2020 16:50      84.9      83.4       42     58.4      0.00     17.48      79.3     0.47      1013.9     1.3      NE    52   3.4      NE      55     266       323       0.8      14.7      87.9      7.01
   06/20/2020 16:40      84.5      83.4       42     58.0      0.00     17.48      79.2     0.47      1013.9     3.3       N    11   9.1       W     268     266       346       2.1      14.5      87.7      7.01
   06/20/2020 16:30      84.5      83.3       41     58.0      0.00     17.48      79.1     0.47      1014.0     2.4     WSW   254   8.9     WNW     284     266       365       1.9      14.2      87.5      7.01
   06/20/2020 16:20      84.4      83.5       41     57.9      0.00     17.48      79.0     0.47      1014.0     1.7     SSE   158   4.4       E      91     266       387       1.4      13.9      87.1      7.02
   06/20/2020 16:10      84.1      83.5       42     57.9      0.00     17.48      79.0     0.47      1014.1     2.1     ENE    74   5.4     ESE     114     266       404       1.2      13.6      86.9      7.02
   06/20/2020 16:00      85.2      82.9       41     57.6      0.00     17.48      78.9     0.47      1014.2     1.9     ENE    73   6.9      NE      55     266       423       1.2      13.4      86.5      7.02
   06/20/2020 15:50      84.7      83.5       40     57.1      0.00     17.48      78.8     0.47      1014.3     1.3      NW   315   3.9     WSW     241     266       440       0.9      13.2      86.2      7.02
   06/20/2020 15:40      83.9      81.7       41     57.1      0.00     17.48      78.9     0.47      1014.4     1.5       N     7   4.1       N       3     266       458       0.9      13.1      85.8      7.02
   06/20/2020 15:30      84.1      81.9       41     56.6      0.00     17.48      78.8     0.47      1014.6     3.4     WSW   257   6.7       W     266     266       474       2.9      12.9      85.1      7.03
   06/20/2020 15:20      83.6      82.1       41     57.1      0.00     17.48      78.8     0.47      1014.7     1.4     NNW   337   3.5       N     355     266       486       1.0      12.4      84.5      7.03
   06/20/2020 15:10      82.5      81.3       43     56.9      0.00     17.48      78.7     0.47      1014.9     1.7     NNW   338   4.8     WNW     297     266       502       1.1      12.3      83.8      7.03
   06/20/2020 15:00      82.0      80.9       43     56.9      0.00     17.48      78.6     0.47      1015.0     1.7     NNE    19   3.9       N       0     267       515       0.9      12.1      83.1      7.03
   06/20/2020 14:50      82.0      79.7       44     56.9      0.00     17.48      78.6     0.47      1015.1     1.4       N   353   3.7     NNE      26     266       527       1.1      11.9      82.2      7.03
   06/20/2020 14:40      79.7      78.3       46     56.5      0.00     17.48      78.5     0.47      1015.3     2.1     NNE    29   4.8      NE      51     267       541       1.2      11.8      81.5      7.04
   06/20/2020 14:30      78.6      77.4       47     56.3      0.00     17.48      78.5     0.47      1015.5     2.3     WSW   256   6.9       W     259     266       553       1.9      11.5      80.7      7.04
   06/20/2020 14:20      78.7      77.7       47     56.2      0.00     17.48      78.5     0.47      1015.6     2.4      SW   220   5.3       W     259     267       563       2.0      11.2      80.4      7.04
   06/20/2020 14:10      78.6      77.4       47     56.3      0.00     17.48      78.4     0.47      1015.8     2.0      NW   317   5.7     WSW     256     267       571       1.6      10.9      79.4      7.04
   06/20/2020 14:00      79.1      78.4       47     56.6      0.00     17.48      78.4     0.47      1016.1     1.2     NNW   326   3.5      NW     321     266       577       1.0      10.6      78.7      7.04
   06/20/2020 13:50      78.5      76.4       49     56.5      0.00     17.48      78.5     0.47      1016.2     1.2     NNE    33   3.1      NW     314     267       586       0.8      10.5      77.8      7.04
   06/20/2020 13:40      76.6      75.2       50     56.4      0.00     17.48      78.4     0.47      1016.4     1.7     NNE    26   4.1      NE      41     266       593       0.9      10.3      76.9      7.04
   06/20/2020 13:30      76.2      72.9       53     56.4      0.00     17.48      78.4     0.47      1016.6     1.1       N     3   3.5     NNW     346     266       599       0.9      10.2      76.0      7.05
   06/20/2020 13:20      73.3      72.3       55     55.6      0.00     17.48      78.5     0.47      1016.7     2.1      SW   225   7.3      SW     222     267       608       1.6      10.0      75.1      7.05
   06/20/2020 13:10      73.5      71.9       56     55.8      0.00     17.48      78.4     0.47      1016.8     3.3     WSW   250   7.4      SW     229     266       612       2.8       9.8      74.5      7.05
   06/20/2020 13:00      73.0      71.3       56     55.8      0.00     17.48      78.4     0.47      1017.0     2.2     WSW   244   6.1     WSW     239     267       615       2.3       9.3      73.5      7.05
   06/20/2020 12:50      72.3      71.2       57     55.6      0.00     17.48      78.4     0.47      1017.1     3.2       W   269   6.9       W     274     267       617       3.0       8.9      72.4      7.05
   06/20/2020 12:40      71.4      68.4       60     55.3      0.00     17.48      78.4     0.47      1017.3     1.5     WNW   283   4.7     WSW     252     266       623       1.3       8.4      71.7      7.05
   06/20/2020 12:30      69.9      68.5       61     55.0      0.00     17.48      78.5     0.47      1017.4     4.7     WSW   251   7.3     WSW     237     267       707       3.9       8.2      70.7      7.05
   06/20/2020 12:20      69.0      68.1       62     55.1      0.00     17.48      78.5     0.47      1017.5     1.9     ESE   121   4.2      SE     144     268       549       1.4       7.5      69.6      7.05
   06/20/2020 12:10      69.5      67.8       62     55.1      0.00     17.48      78.5     0.47      1017.5     2.6     SSW   207   5.4     WSW     242     267       746       2.2       7.3      68.6      7.05
   06/20/2020 12:00      68.4      66.4       65     55.2      0.00     17.48      78.5     0.47      1017.6     0.9       N   355   2.1       N       0     268       402       0.6       6.9      67.5      7.05
   06/20/2020 11:50      66.3      65.3       68     54.8      0.00     17.48      78.5     0.47      1017.7     1.0     SSW   209   3.1     SSW     210     269       257       0.7       6.8      67.0      7.05
   06/20/2020 11:40      66.5      65.5       67     55.0      0.00     17.48      78.5     0.47      1017.9     1.1       W   260   3.2      SW     231     269       201       1.4       6.7      66.7      7.05
   06/20/2020 11:30      65.5      64.8       69     54.8      0.00     17.48      78.6     0.47      1017.9     0.7     ENE    58   2.3       E      93     269       179       0.4       6.5      66.5      7.05
   06/20/2020 11:20      65.0      64.2       70     54.7      0.00     17.48      78.6     0.47      1017.9     1.2     NNE    20   3.7       N       2     269       161       0.4       6.4      66.3      7.05
   06/20/2020 11:10      65.0      63.9       71     54.8      0.00     17.48      78.6     0.47      1017.9     0.8     ENE    58   2.4       E      85     270       145       0.4       6.3      66.0      7.05
   06/20/2020 11:00      63.9      63.3       73     54.6      0.00     17.48      78.6     0.47      1017.8     1.1       E    95   2.6       E      81     270       134       0.6       6.3      65.9      7.05
   06/20/2020 10:50      64.1      63.4       72     54.5      0.00     17.48      78.7     0.47      1017.8     1.5       E    84   4.0      SE     127     270       123       1.0       6.2      65.7      7.05
   06/20/2020 10:40      64.2      63.3       73     54.7      0.00     17.48      78.9     0.48      1017.7     0.7       S   178   2.7     SSE     163     270       117       0.5       6.0      65.6      7.05
   06/20/2020 10:30      63.3      62.3       75     54.6      0.00     17.48      78.9     0.48      1017.7     0.8      SE   128   2.4      SW     217     270       107       0.6       5.9      65.5      7.05
   06/20/2020 10:20      62.8      62.0       75     54.3      0.00     17.48      79.0     0.48      1017.8     1.5     SSE   165   3.7      SE     130     270       106       0.8       5.8      65.4      7.05
   06/20/2020 10:10      63.1      62.5       74     54.4      0.00     17.48      79.0     0.48      1017.7     1.1     SSE   155   3.2       E     101     270       108       0.7       5.7      65.3      7.05
   06/20/2020 10:00      62.6      61.8       75     54.4      0.00     17.48      79.0     0.48      1017.7     1.0     WSW   241   2.9      NW     304     270       100       0.7       5.6      65.2      7.05
   06/20/2020 09:50      62.0      61.3       77     54.4      0.00     17.48      79.1     0.48      1017.7     1.2       W   264   3.0     WSW     256     270        87       1.0       5.4      65.0      7.05
   06/20/2020 09:40      61.5      61.0       78     54.2      0.00     17.48      78.3     0.48      1017.7     1.5     WSW   244   2.9     WSW     240     271        73       1.1       5.3      64.4      7.05
   06/20/2020 09:30      61.9      61.1       77     54.1      0.00     17.48      78.3     0.48      1017.7     2.6     SSW   211   4.9      SW     214     271        67       1.7       5.1      64.4      7.05
   06/20/2020 09:20      62.0      61.3       77     54.4      0.00     17.48      78.3     0.48      1017.7     0.6     SSE   149   2.9     SSW     212     271        61       0.3       4.8      64.3      7.06
   06/20/2020 09:10      61.4      60.9       78     54.3      0.00     17.48      78.3     0.48      1017.6     1.5     ENE    75   3.2     ENE      78     271        61       0.5       4.8      64.2      7.06
   06/20/2020 09:00      61.1      60.8       78     54.2      0.00     17.48      78.4     0.48      1017.5     1.7     ESE   117   4.1      SE     135     271        53       0.8       4.7      64.1      7.06
   06/20/2020 08:50      61.2      60.7       79     54.2      0.00     17.48      78.4     0.48      1017.4     1.2     ESE   114   2.3      SE     129     271        44       0.6       4.5      64.1      7.06
   06/20/2020 08:40      61.0      60.4       79     54.2      0.00     17.48      78.4     0.48      1017.3     1.2      SE   130   3.2      SE     129     271        42       0.6       4.4      64.1      7.06
   06/20/2020 08:30      60.6      60.2       80     54.1      0.00     17.48      78.4     0.48      1017.2     2.6     SSW   195   4.6     SSW     204     272        40       1.7       4.3      64.0      7.06
   06/20/2020 08:20      60.8      60.5       79     54.2      0.00     17.48      78.5     0.48      1017.1     1.8     SSW   203   3.2     SSW     211     272        34       1.1       4.0      64.0      7.06
   06/20/2020 08:10      60.7      60.3       80     54.3      0.00     17.48      78.5     0.48      1017.1     1.2      SW   224   3.0     SSW     209     271        30       0.7       3.9      63.9      7.06
   06/20/2020 08:00      60.4      59.9       81     54.2      0.00     17.48      78.6     0.48      1017.0     0.6     SSE   152   2.1       W     262     272        27       0.4       3.7      64.0      7.06
   06/20/2020 07:50      60.4      60.0       81     54.2      0.00     17.48      78.6     0.48      1016.9     2.1     SSW   202   3.8     WSW     251     272        25       1.3       3.7      64.0      7.06
   06/20/2020 07:40      60.3      59.9       81     54.2      0.00     17.48      78.7     0.48      1016.8     1.5       S   189   2.7     SSW     209     272        20       0.9       3.5      64.0      7.06
   06/20/2020 07:30      60.1      59.6       82     54.3      0.00     17.48      78.7     0.48      1016.7     0.3     SSW   193   1.3       S     178     272        17       0.1       3.3      63.9      7.06
   06/20/2020 07:20      59.8      59.4       82     54.1      0.00     17.48      78.7     0.48      1016.5     1.4     SSW   197   3.4     SSW     206     272        12       0.8       3.3      63.8      7.06
   06/20/2020 07:10      59.7      59.4       82     54.0      0.00     17.48      79.5     0.48      1016.6     1.5     SSW   205   2.4     SSW     196     272         7       1.0       3.1      64.4      7.06
   06/20/2020 07:00      59.6      59.3       82     54.0      0.00     17.48      79.5     0.48      1016.5     0.7       S   179   1.9       S     185     272         4       0.4       3.0      64.5      7.06
   06/20/2020 06:50      59.4      59.1       83     53.9      0.00     17.48      79.5     0.48      1016.5     1.5       S   189   2.5      SW     215     272         0       0.9       2.9      64.6      7.06
   06/20/2020 06:40      59.3      59.0       82     53.9      0.00     17.48      79.6     0.48      1016.5     1.8       S   188   3.0     SSW     196     272        -2       1.0       2.8      64.6      7.06
   06/20/2020 06:30      59.5      59.1       82     53.9      0.00     17.48      79.8     0.48      1016.5     1.1       S   190   2.8     SSW     203     272        -6       0.6       2.6      64.7      7.06
   06/20/2020 06:20      59.3      58.9       82     53.7      0.00     17.48      79.6     0.48      1016.5     1.6       S   180   2.8       S     185     272        -7       0.9       2.5      64.8      7.06
   06/20/2020 06:10      59.5      59.1       82     53.9      0.00     17.48      79.7     0.48      1016.4     1.2       S   179   3.3     SSE     149     272        -9       0.6       2.4      64.8      7.06
   06/20/2020 06:00      59.5      59.1       82     53.9      0.00     17.48      79.8     0.48      1016.4     1.2     SSW   196   2.4      SW     229     273       -11       0.7       2.3      65.0      7.06
   06/20/2020 05:50      59.3      59.0       82     53.8      0.00     17.48      79.8     0.48      1016.4     1.2      SW   222   2.5       S     189     272       -12       0.6       2.1      65.0      7.06
   06/20/2020 05:40      59.2      59.0       82     53.7      0.00     17.48      79.9     0.48      1016.3     1.4       S   181   2.6     SSW     201     272       -12       0.7       2.0      65.0      7.06
   06/20/2020 05:30      59.1      58.8       83     53.7      0.00     17.48      79.9     0.48      1016.3     1.1       S   174   2.1     SSW     205     272       -12       0.3       1.9      65.2      7.06
   06/20/2020 05:20      59.1      58.8       82     53.6      0.00     17.48      80.0     0.48      1016.2     1.8     SSW   198   2.5     SSW     212     272       -13       1.0       1.9      65.3      7.06
   06/20/2020 05:10      59.2      58.9       82     53.7      0.00     17.48      80.2     0.48      1016.1     1.0       S   174   2.3       S     183     272       -13       0.5       1.7      65.4      7.06
   06/20/2020 05:00      59.2      58.8       83     53.7      0.00     17.48      80.0     0.48      1016.1     0.5     WNW   291   1.6       W     270     273       -12       0.5       1.6      65.5      7.06
   06/20/2020 04:50      59.0      58.7       83     53.6      0.00     17.48      80.1     0.48      1016.0     1.6     SSW   205   3.4      SW     219     272       -12       1.1       1.5      65.5      7.06
   06/20/2020 04:40      59.2      58.7       83     53.6      0.00     17.48      80.2     0.48      1015.8     1.4     SSW   204   3.0     SSW     200     273       -12       0.8       1.4      65.8      7.06
   06/20/2020 04:30      59.0      58.7       83     53.6      0.00     17.48      80.1     0.48      1015.9     0.9       S   183   1.9       S     169     273       -12       0.5       1.2      65.8      7.06
   06/20/2020 04:20      58.9      58.5       83     53.6      0.00     17.48      80.3     0.48      1015.9     0.7       S   171   2.1       S     184     273       -12       0.3       1.2      65.9      7.06
   06/20/2020 04:10      58.7      58.3       84     53.6      0.00     17.48      80.2     0.48      1015.9     1.0       S   189   3.3      NE      54     273       -12       0.6       1.1      66.1      7.06
   06/20/2020 04:00      58.5      58.3       84     53.4      0.00     17.48      80.5     0.48      1015.9     2.1       S   186   3.7       S     188     273       -13       1.2       1.0      66.1      7.06
   06/20/2020 03:50      58.4      57.9       84     53.2      0.00     17.48      80.5     0.48      1016.0     1.7     SSE   154   3.1      SE     131     273       -13       0.7       0.8      66.4      7.06
   06/20/2020 03:40      58.3      57.8       84     53.1      0.00     17.48      80.3     0.48      1015.9     1.6     SSE   166   3.1     SSE     161     273       -13       0.8       0.7      66.4      7.06
   06/20/2020 03:30      57.9      57.5       84     52.9      0.00     17.48      80.6     0.48      1015.9     1.3       S   174   2.7     SSW     192     273       -13       0.8       0.5      66.6      7.06
   06/20/2020 03:20      57.6      57.3       84     52.8      0.00     17.48      80.5     0.48      1015.9     0.4       S   179   1.1     SSW     193     273       -14       0.0       0.4      66.8      7.06
   06/20/2020 03:10      57.5      57.0       84     52.5      0.00     17.48      80.6     0.48      1015.9     1.5       S   188   2.1     SSW     193     273       -20       0.4       0.4      67.0      7.06
   06/20/2020 03:00      57.2      57.0       84     52.3      0.00     17.48      80.6     0.48      1015.9     1.5       S   187   2.0       S     187     273       -28       0.5       0.3      67.2      7.07
   06/20/2020 02:50      57.3      57.0       84     52.2      0.00     17.48      80.7     0.48      1015.9     0.8       S   178   2.1       S     180     270       -46       0.3       0.3      67.4      7.07
   06/20/2020 02:40      57.6      57.0       83     52.0      0.00     17.48      80.7     0.48      1015.9     0.7       S   179   1.5       S     177     266       -57       0.3       0.2      67.8      7.07
   06/20/2020 02:30      57.8      57.5       82     52.3      0.00     17.48      80.6     0.48      1015.9     0.6     SSE   166   2.2       S     191     268       -58       0.2       0.2      67.9      7.07
   06/20/2020 02:20      57.9      57.6       82     52.4      0.00     17.48      81.0     0.48      1015.9     0.6     SSE   169   1.5       S     182     267       -58       0.0       0.1      68.2      7.07
   06/20/2020 02:10      58.5      57.8       82     52.5      0.00     17.48      80.9     0.48      1015.9     0.7       S   186   1.6     SSW     209     266       -57       0.2       0.1      68.4      7.07
   06/20/2020 02:00      58.6      58.1       81     52.6      0.00     17.48      81.0     0.48      1015.9     0.9       S   185   2.0     SSW     200     266       -57       0.0       0.1      68.8      7.07
   06/20/2020 01:50      58.9      58.5       81     52.8      0.00     17.48      80.9     0.48      1015.9     0.2       S   177   1.1       S     174     269       -58       0.0       0.0      69.1      7.07
   06/20/2020 01:40      59.1      58.7       81     53.0      0.00     17.48      81.0     0.48      1015.8     0.4       S   174   1.2       S     176     268       -58       0.0       0.0      69.3      7.07
   06/20/2020 01:30      59.1      58.6       82     53.1      0.00     17.48      81.1     0.48      1015.9     1.3       S   179   1.8       S     179     270       -57       0.2       0.0      69.7      7.07
   06/20/2020 01:20      58.9      58.5       81     52.9      0.00     17.48      81.0     0.48      1015.8     0.7       S   179   1.9       S     180     269       -58       0.0       0.0      69.9      7.07
   06/20/2020 01:10      59.2      58.8       81     53.2      0.00     17.48      81.4     0.48      1015.8     0.7       S   190   2.3     SSW     210     271       -58       0.0       0.0      70.2      7.07
   06/20/2020 01:00      59.5      59.0       80     53.1      0.00     17.48      81.2     0.48      1015.8     0.0       S   183   0.9       S     179     268       -59       0.0       0.0      70.6      7.07
   06/20/2020 00:50      59.6      59.3       79     53.1      0.00     17.48      81.2     0.48      1015.7     0.1     SSW   208   1.0     SSW     199     272       -59       0.0       0.0      70.8      7.07
   06/20/2020 00:40      60.1      59.5       78     52.9      0.00     17.48      81.3     0.48      1015.8     0.0      SE   145   0.5      SE     145     270       -61       0.0       0.0      71.2      7.07
   06/20/2020 00:30      60.6      60.0       78     53.3      0.00     17.48      81.2     0.48      1015.8     0.5     SSE   163   2.0     SSW     203     273       -61       0.1       0.0      71.3      7.08
   06/20/2020 00:20      60.8      60.3       77     53.3      0.00     17.48      81.3     0.48      1015.8     0.7       S   177   1.5     SSW     202     272       -61       0.0       0.0      71.8      7.08
   06/20/2020 00:10      60.8      60.1       77     53.5      0.00     17.48      81.3     0.48      1015.7     0.8     SSW   206   2.2     WSW     241     272       -61       0.2       0.0      72.1      7.08
   06/20/2020 00:00      60.7      60.0       77     52.9      0.00     17.48      81.5     0.48      1015.7     0.3      SW   232   1.8     WSW     256     272       -60       0.0      23.6      72.4      7.08
   06/19/2020 23:50      61.0      60.4       76     53.1      0.00     17.48      81.4     0.48      1015.6     0.2     SSE   169   0.7     SSE     154     272       -60       0.0      23.6      72.8      7.08
   06/19/2020 23:40      61.2      60.9       76     53.4      0.00     17.48      81.5     0.48      1015.6     0.5      SW   224   1.4      SW     235     272       -61       0.0      23.6      73.2      7.08
   06/19/2020 23:30      61.0      60.7       76     53.2      0.00     17.48      81.5     0.48      1015.5     0.9       S   187   1.4       S     190     272       -61       0.1      23.6      73.6      7.08
   06/19/2020 23:20      61.5      60.9       75     53.3      0.00     17.48      81.4     0.48      1015.5     0.6       S   185   1.8     SSW     201     271       -62       0.0      23.6      73.8      7.08
   06/19/2020 23:10      61.6      61.1       74     53.2      0.00     17.48      81.7     0.48      1015.5     0.2     SSW   196   1.6     SSW     208     271       -62       0.0      23.6      74.3      7.08
   06/19/2020 23:00      61.8      61.4       74     53.1      0.00     17.48      81.5     0.48      1015.5     0.3       S   172   1.3       S     187     271       -62       0.0      23.6      74.5      7.08
   06/19/2020 22:50      62.0      61.6       73     53.2      0.00     17.48      81.7     0.48      1015.4     0.5     SSW   199   1.6      SW     215     271       -62       0.0      23.6      75.0      7.08
   06/19/2020 22:40      62.6      62.0       72     53.0      0.00     17.48      81.6     0.48      1015.4     0.1       S   191   1.1     SSW     207     270       -63       0.0      23.6      75.3      7.08
   06/19/2020 22:30      63.5      62.5       70     53.1      0.00     17.48      81.6     0.48      1015.4     0.4     SSE   165   1.4     SSW     196     270       -65       0.0      23.6      75.8      7.09
   06/19/2020 22:20      64.0      63.5       69     53.4      0.00     17.48      81.6     0.48      1015.4     0.4     ENE    76   1.1     ENE      57     270       -67       0.0      23.6      76.1      7.09
   06/19/2020 22:10      64.5      63.9       68     53.5      0.00     17.48      81.6     0.48      1015.3     0.3     NNE    12   1.1     NNE      32     270       -67       0.3      23.6      76.6      7.09
   06/19/2020 22:00      65.0      64.4       68     53.6      0.00     17.48      81.6     0.48      1015.2     0.4      NE    49   1.7       N       2     270       -68       0.0      23.5      76.9      7.09
   06/19/2020 21:50      65.1      64.7       68     54.0      0.00     17.48      81.8     0.48      1015.0     0.5      NE    46   1.5     NNE      19     270       -67       0.2      23.5      77.2      7.09
   06/19/2020 21:40      65.4      65.0       68     54.2      0.00     17.48      81.8     0.48      1014.9     0.1       S   175   1.6     SSW     212     270       -68       0.0      23.5      77.7      7.09
   06/19/2020 21:30      65.6      65.2       67     54.4      0.00     17.48      81.7     0.48      1014.7     1.0       S   174   3.4       S     178     269       -68       0.4      23.5      78.0      7.09
   06/19/2020 21:20      66.0      65.3       67     54.4      0.00     17.48      81.6     0.48      1014.5     0.6     SSE   168   1.8       S     180     269       -68       0.1      23.4      78.4      7.09
   06/19/2020 21:10      66.3      65.9       66     54.4      0.00     17.48      81.7     0.48      1014.4     1.0       S   174   2.7     SSW     198     269       -69       0.2      23.4      78.8      7.10
   06/19/2020 21:00      66.7      66.2       65     54.5      0.00     17.48      81.8     0.48      1014.3     0.8       S   180   2.1       S     187     269       -70       0.1      23.4      79.2      7.10
   06/19/2020 20:50      66.8      66.5       65     54.5      0.00     17.48      81.7     0.48      1014.2     1.5       S   172   3.9     SSW     196     269       -71       0.9      23.4      79.6      7.10
   06/19/2020 20:40      67.3      66.7       64     54.5      0.00     17.48      81.8     0.48      1014.1     1.7       S   173   3.9      SE     134     269       -71       0.9      23.2      80.0      7.10
   06/19/2020 20:30      67.5      67.0       64     54.6      0.00     17.48      81.7     0.48      1014.0     3.0       S   175   5.8       S     176     269       -71       1.8      23.1      80.5      7.10
   06/19/2020 20:20      67.6      67.3       63     54.6      0.00     17.48      81.8     0.48      1013.9     2.8       S   174   4.7     SSW     206     268       -71       1.8      22.8      81.0      7.11
   06/19/2020 20:10      68.0      67.5       63     54.7      0.00     17.48      82.0     0.48      1013.9     3.2       S   183   5.4       S     191     268       -69       2.0      22.4      81.8      7.11
   06/19/2020 20:00      68.5      67.8       62     54.8      0.00     17.48      81.8     0.48      1013.8     3.4       S   187   6.0       S     186     268       -65       2.2      22.1      82.3      7.11
   06/19/2020 19:50      69.3      68.4       61     54.9      0.00     17.48      81.8     0.48      1013.7     3.5       S   183   6.2     SSW     196     268       -60       2.3      21.8      82.9      7.12
   06/19/2020 19:40      69.7      69.2       60     55.0      0.00     17.48      81.8     0.48      1013.7     3.4       S   185   6.7       S     172     268       -51       2.3      21.4      83.7      7.12
   06/19/2020 19:30      70.6      69.7       59     55.2      0.00     17.48      81.8     0.48      1013.5     4.3       S   180   6.8     SSW     199     268       -34       2.9      21.0      84.2      7.12
   06/19/2020 19:20      71.8      70.7       57     55.4      0.00     17.48      81.8     0.48      1013.4     4.3       S   176   6.7     SSW     196     268       -18       2.8      20.5      85.1      7.13
   06/19/2020 19:10      73.1      71.8       55     55.6      0.00     17.48      81.8     0.48      1013.3     3.9       S   187   6.2       S     176     267         0       2.7      20.0      85.6      7.13
   06/19/2020 19:00      73.9      72.9       54     55.8      0.00     17.48      81.7     0.48      1013.1     3.2       S   172   5.5     SSE     167     267        23       2.1      19.6      86.2      7.13
   06/19/2020 18:50      74.3      73.6       53     55.9      0.00     17.48      81.7     0.48      1013.1     3.3     SSW   193   7.8     SSW     209     267        46       1.9      19.2      86.6      7.13
   06/19/2020 18:40      75.9      74.1       51     55.8      0.00     17.48      81.6     0.48      1013.0     3.9      SW   218   7.3     WSW     241     267        69       2.7      18.9      87.2      7.14
   06/19/2020 18:30      75.8      75.2       50     55.6      0.00     17.48      81.6     0.48      1012.9     4.1      SW   229   7.4      SW     234     267        95       2.9      18.5      87.8      7.14
   06/19/2020 18:20      76.4      75.6       50     55.8      0.00     17.48      81.6     0.48      1012.9     5.3      SW   232   9.2     WSW     248     267       121       3.7      18.0      88.0      7.14
   06/19/2020 18:10      77.7      76.0       48     56.0      0.00     17.48      81.4     0.48      1012.8     4.9      SW   217   9.2     SSW     200     267       146       3.4      17.4      88.6      7.15
   06/19/2020 18:00      77.4      76.7       49     56.3      0.00     17.48      81.3     0.48      1012.8     3.5     SSW   200   7.1     WSW     244     267       171       2.3      16.8      88.7      7.15
   06/19/2020 17:50      78.3      76.9       48     56.3      0.00     17.48      81.3     0.48      1012.8     4.0     SSW   211   8.6     SSW     199     266       200       2.6      16.4      89.1      7.15
   06/19/2020 17:40      79.4      78.2       46     56.4      0.00     17.48      81.2     0.48      1012.7     4.5      SW   226  10.0      SW     224     266       231       3.0      16.0      89.1      7.16
   06/19/2020 17:30      80.4      79.3       45     56.5      0.00     17.48      81.2     0.48      1012.7     3.6      SW   234   7.2      SW     215     266       250       2.6      15.5      89.1      7.16
   06/19/2020 17:20      79.6      78.4       46     56.4      0.00     17.48      80.9     0.48      1012.7     2.8       W   262   6.4     WSW     240     266       207       1.9      15.1      89.2      7.16
   06/19/2020 17:10      79.7      78.4       45     56.3      0.00     17.48      80.5     0.48      1012.7     4.7      SW   225   9.1      SW     235     266       240       3.3      14.7      89.1      7.17
   06/19/2020 17:00      80.1      78.5       46     56.4      0.00     17.48      80.5     0.48      1012.8     3.2      SW   231   8.4     SSW     213     266       356       2.4      14.2      88.9      7.17
   06/19/2020 16:50      79.4      77.2       47     56.5      0.00     17.48      80.4     0.48      1012.8     3.2      SW   224   7.1       S     190     266       420       2.2      13.8      89.0      7.17
   06/19/2020 16:40      77.2      76.1       49     56.1      0.00     17.48      80.3     0.48      1012.8     3.3     SSW   195   7.4     WSW     244     266       239       2.1      13.4      88.8      7.17
   06/19/2020 16:30      77.3      76.4       48     56.0      0.00     17.48      80.3     0.48      1012.8     5.3      SW   233   9.5     WSW     244     266       202       3.6      13.1      89.1      7.18
   06/19/2020 16:20      77.9      77.1       48     56.1      0.00     17.48      80.2     0.48      1012.8     3.5      SW   234   6.6     SSW     211     266       209       2.5      12.5      89.4      7.18
   06/19/2020 16:10      77.5      76.6       48     56.0      0.00     17.48      80.1     0.48      1012.8     4.7       S   173   9.0     SSW     207     266       384       2.7      12.1      89.5      7.18
   06/19/2020 16:00      78.6      77.0       47     55.9      0.00     17.48      80.1     0.48      1012.9     5.3       S   185   8.8      SW     226     266       453       3.4      11.6      89.4      7.19
   06/19/2020 15:50      78.4      76.4       48     55.8      0.00     17.48      80.0     0.48      1013.0     4.3       S   184   7.6     SSW     204     266       474       2.9      11.0      89.3      7.19
   06/19/2020 15:40      77.6      76.0       48     55.7      0.00     17.48      79.9     0.48      1013.0     5.1       S   177   9.3     SSE     147     266       320       3.2      10.6      89.3      7.20
   06/19/2020 15:30      78.6      77.3       46     55.9      0.00     17.48      79.9     0.47      1013.0     5.0       S   184   8.1     SSW     213     266       405       3.4      10.0      89.2      7.20
   06/19/2020 15:20      79.2      78.6       45     56.0      0.00     17.48      79.9     0.47      1013.0     5.0       S   170   7.3       S     170     266       498       3.1       9.4      89.2      7.20
   06/19/2020 15:10      80.6      79.0       45     56.3      0.00     17.48      79.8     0.47      1013.0     5.0     SSE   156   9.5     ESE     103     266       507       3.0       8.9      88.9      7.21
   06/19/2020 15:00      83.3      80.3       43     56.5      0.00     17.48      79.8     0.47      1013.0     4.8     SSE   156  10.0     ESE     105     265       518       2.9       8.4      88.5      7.21
   06/19/2020 14:50      83.8      82.3       40     56.1      0.00     17.48      79.6     0.47      1012.9     2.2      NE    34   6.6      SE     136     265       525       1.1       7.9      87.9      7.21
   06/19/2020 14:40      82.5      81.4       40     55.6      0.00     17.48      79.6     0.47      1013.0     1.5     ESE   110   4.9      NE      55     265       538       1.3       7.8      87.1      7.21
   06/19/2020 14:30      82.1      80.8       41     55.5      0.00     17.48      79.5     0.47      1013.1     2.5     NNE    30   5.2       S     184     266       547       1.3       7.6      86.4      7.22
   06/19/2020 14:20      82.2      80.5       41     55.5      0.00     17.48      79.4     0.47      1013.3     2.9      SW   234   5.7     WSW     240     266       556       2.2       7.4      85.9      7.22
   06/19/2020 14:10      81.1      78.8       43     55.3      0.00     17.48      79.0     0.47      1013.3     2.4      SW   221   5.3     SSW     202     266       567       1.9       7.0      84.8      7.22
   06/19/2020 14:00      80.7      79.6       42     55.3      0.00     17.48      78.6     0.47      1013.4     2.5       W   265   6.7       W     260     266       572       1.8       6.7      83.7      7.22
   06/19/2020 13:50      81.0      79.4       43     55.5      0.00     17.48      78.5     0.47      1013.6     2.0     NNW   343   4.4     ENE      70     265       576       1.4       6.4      82.8      7.22
   06/19/2020 13:40      80.3      79.4       43     55.5      0.00     17.48      78.3     0.47      1013.7     2.1     NNE    29   5.3     NNE      32     265       582       1.2       6.1      82.1      7.23
   06/19/2020 13:30      80.0      79.0       44     55.4      0.00     17.48      78.5     0.47      1013.8     2.1       N     5   5.3       W     265     265       586       1.4       5.9      81.3      7.23
   06/19/2020 13:20      80.1      79.4       43     55.3      0.00     17.48      78.4     0.47      1013.9     1.5     WNW   304   4.9       S     182     266       592       1.8       5.7      80.4      7.23
   06/19/2020 13:10      80.0      78.5       43     55.2      0.00     17.48      78.5     0.47      1014.0     1.6      NW   318   4.9     NNW     332     266       596       1.7       5.4      79.5      7.23
   06/19/2020 13:00      78.5      77.2       46     55.0      0.00     17.48      78.5     0.47      1014.1     1.8     NNW   330   3.9       N       7     266       598       1.5       5.1      78.8      7.23
   06/19/2020 12:50      78.6      77.7       45     55.2      0.00     17.48      78.5     0.47      1014.2     1.6     NNE    26   4.0       N     355     266       598       1.6       4.9      77.8      7.24
   06/19/2020 12:40      77.8      75.8       48     55.2      0.00     17.48      78.4     0.47      1014.3     1.3     NNE    18   3.0       N       7     266       597       1.4       4.6      76.9      7.24
   06/19/2020 12:30      76.3      75.4       48     55.0      0.00     17.48      78.4     0.47      1014.4     1.6     NNW   330   4.2     ENE      58     266       594       1.2       4.4      76.0      7.24
   06/19/2020 12:20      75.9      75.3       49     55.0      0.00     17.48      78.4     0.47      1014.4     1.7       E    79   5.1     ESE     118     266       593       1.3       4.2      75.0      7.24
   06/19/2020 12:10      75.5      74.0       51     55.2      0.00     17.48      78.4     0.47      1014.5     1.7     NNW   329   5.4       N       8     266       590       1.6       4.0      74.1      7.24
   06/19/2020 12:00      74.5      73.0       52     55.4      0.00     17.48      78.4     0.47      1014.6     1.6     NNE    14   3.9       N       4     266       581       1.3       3.7      73.3      7.24
   06/19/2020 11:50      74.2      72.7       53     55.2      0.00     17.48      78.5     0.47      1014.7     1.9       N   349   4.5       E      86     266       577       1.4       3.5      72.3      7.24
   06/19/2020 11:40      73.3      72.2       54     55.2      0.00     17.48      78.5     0.47      1014.8     1.6     NNW   344   6.7     NNE      28     266       571       0.7       3.3      71.5      7.25
   06/19/2020 11:30      73.3      70.8       55     55.2      0.00     17.48      78.5     0.47      1014.8     1.2     NNE    28   4.2     ENE      60     266       564       1.1       3.1      70.6      7.25
   06/19/2020 11:20      70.8      69.7       58     54.8      0.00     17.48      78.7     0.47      1014.8     1.4       N     7   4.4      NE      45     267       551       1.3       3.0      69.8      7.25
   06/19/2020 11:10      71.4      70.4       57     54.9      0.00     17.48      78.6     0.47      1014.8     2.2     NNW   327   5.3       W     272     266       552       1.9       2.7      69.1      7.25
   06/19/2020 11:00      71.3      69.9       58     55.0      0.00     17.48      78.8     0.47      1014.8     1.8       N     1   3.9     NNW     331     266       525       1.1       2.4      68.4      7.25
   06/19/2020 10:50      70.5      69.2       59     54.8      0.00     17.48      78.8     0.47      1014.8     1.4      NE    50   3.5       N       9     267       574       1.0       2.2      67.8      7.25
   06/19/2020 10:40      69.0      67.1       63     54.7      0.00     17.48      78.8     0.47      1014.9     1.0     NNW   339   2.7       N     354     267       480       0.8       2.1      67.0      7.25
   06/19/2020 10:30      67.8      66.9       63     54.6      0.00     17.48      78.9     0.48      1014.9     1.1       N     3   3.2       N     352     268       249       0.8       1.9      66.5      7.25
   06/19/2020 10:20      67.2      65.7       65     54.6      0.00     17.48      79.0     0.48      1014.9     0.7     NNW   335   3.0       N      10     268       267       0.6       1.8      66.1      7.25
   06/19/2020 10:10      65.7      64.7       68     54.4      0.00     17.48      79.1     0.48      1014.9     0.8      SE   145   2.1     WSW     237     269       213       0.7       1.7      65.7      7.25
   06/19/2020 10:00      65.5      64.6       69     54.5      0.00     17.48      79.0     0.48      1014.8     1.5      SE   129   3.0      SE     137     270       161       1.0       1.6      65.4      7.25
   06/19/2020 09:50      65.4      64.5       69     54.7      0.00     17.48      79.1     0.48      1014.9     0.6     ENE    75   1.8     SSE     161     270       133       0.3       1.4      65.2      7.25
   06/19/2020 09:40      64.6      63.7       71     54.5      0.00     17.48      79.2     0.48      1014.9     0.2       W   260   1.3       W     263     270       111       0.2       1.4      65.1      7.25
   06/19/2020 09:30      63.9      63.3       72     54.4      0.00     17.48      79.2     0.48      1014.9     0.5       S   191   1.8       S     177     270        99       0.4       1.3      64.9      7.25
   06/19/2020 09:20      63.6      63.3       72     54.4      0.00     17.48      79.2     0.48      1014.9     0.9     ESE   103   2.5     ESE     115     270        88       0.6       1.2      64.8      7.25
   06/19/2020 09:10      64.0      63.3       72     54.3      0.00     17.48      79.3     0.48      1014.9     1.2     ESE   118   2.4     ESE     103     270        75       0.5       1.1      64.7      7.25
   06/19/2020 09:00      63.9      63.3       72     54.5      0.00     17.48      79.3     0.48      1014.9     0.1       N   352   1.2      NE      35     270        71       0.1       1.1      64.5      7.25
   06/19/2020 08:50      63.4      63.0       73     54.4      0.00     17.48      79.4     0.48      1014.9     0.5     NNE    30   1.4     NNE      14     271        65       0.2       1.0      64.5      7.25
   06/19/2020 08:40      63.4      62.9       74     54.5      0.00     17.48      79.4     0.48      1014.8     0.5     ENE    66   1.6     ENE      78     271        49       0.1       1.0      64.4      7.25
   06/19/2020 08:30      63.0      62.3       75     54.8      0.00     17.48      79.5     0.48      1014.8     0.0     NNW   326   1.3     WNW     295     271        42       0.3       1.0      64.3      7.25
   06/19/2020 08:20      62.5      62.0       75     54.4      0.00     17.48      79.5     0.48      1014.7     0.2       S   177   1.1       S     172     271        38       0.0       1.0      64.4      7.25
   06/19/2020 08:10      62.3      61.8       76     54.3      0.00     17.48      79.5     0.48      1014.7     0.7     NNW   329   2.1     NNE      33     271        37       0.3       0.9      64.3      7.25
   06/19/2020 08:00      62.4      61.8       76     54.6      0.00     17.48      79.6     0.48      1014.7     0.4     NNW   338   2.2     NNE      29     271        38       0.2       0.9      64.3      7.25
   06/19/2020 07:50      61.9      61.4       77     54.4      0.00     17.48      79.7     0.48      1014.7     0.3       E    92   1.4     ESE     110     272        36       0.1       0.9      64.2      7.25
   06/19/2020 07:40      61.6      61.2       77     54.3      0.00     17.48      79.7     0.48      1014.6     0.7      SE   132   1.9       S     184     272        26       0.4       0.8      64.2      7.25
   06/19/2020 07:30      61.6      61.2       78     54.3      0.00     17.48      79.7     0.48      1014.6     1.1      SE   133   2.5     SSW     195     272        20       0.7       0.8      64.1      7.25
   06/19/2020 07:20      61.3      61.0       78     54.1      0.00     17.48      79.7     0.48      1014.5     0.9      SE   141   2.9     SSE     154     272        18       0.3       0.7      64.2      7.25
   06/19/2020 07:10      61.2      60.9       78     54.1      0.00     17.48      79.8     0.48      1014.5     0.9       E    93   3.5       E      96     272        14       0.4       0.6      64.1      7.25
   06/19/2020 07:00      61.2      60.8       78     54.1      0.00     17.48      79.8     0.48      1014.5     0.4       S   186   1.7     SSW     201     272         9       0.1       0.5      64.2      7.25
   06/19/2020 06:50      61.0      60.7       79     54.2      0.00     17.48      79.9     0.48      1014.3     0.4       S   180   1.8       S     188     272         7       0.2       0.5      64.1      7.25
   06/19/2020 06:40      60.9      60.5       79     54.1      0.00     17.48      79.9     0.48      1014.3     0.5      SW   216   1.9     WSW     240     272         5       0.1       0.5      64.1      7.25
   06/19/2020 06:30      60.7      60.3       79     54.0      0.00     17.48      80.0     0.48      1014.3     0.1     SSW   198   0.9     SSW     209     272         0       0.0       0.5      64.2      7.25
   06/19/2020 06:20      60.6      60.2       80     54.0      0.00     17.48      80.0     0.48      1014.4     0.5       S   175   1.5       S     179     272        -4       0.0       0.5      64.2      7.25
   06/19/2020 06:10      60.4      60.2       79     54.0      0.00     17.48      80.1     0.48      1014.4     0.9       S   177   1.5       S     188     272        -7       0.3       0.4      64.2      7.25
   06/19/2020 06:00      60.3      60.0       80     53.9      0.00     17.48      80.2     0.48      1014.3     0.1       S   169   0.9       S     178     273       -10       0.0       0.4      64.2      7.25
   06/19/2020 05:50      60.1      59.8       80     53.8      0.00     17.48      80.2     0.48      1014.3     0.0       S   183   0.8       S     186     273       -12       0.0       0.4      64.3      7.25
   06/19/2020 05:40      60.0      59.6       80     53.8      0.00     17.48      80.3     0.48      1014.3     0.0     SSE   147   0.5     SSE     147     273       -13       0.0       0.4      64.5      7.25
   06/19/2020 05:30      59.8      59.5       81     53.8      0.00     17.48      80.3     0.48      1014.3     0.7       S   191   1.5     SSW     198     273       -13       0.1       0.4      64.5      7.25
   06/19/2020 05:20      59.6      59.2       82     53.8      0.00     17.48      80.4     0.48      1014.3     0.0     SSE   168   0.5       S     188     273       -13       0.0       0.4      64.6      7.25
   06/19/2020 05:10      59.4      58.9       83     53.9      0.00     17.48      80.5     0.48      1014.3     0.4      SE   142   1.4     ESE     123     273       -11       0.0       0.4      64.5      7.25
   06/19/2020 05:00      59.0      58.4       85     54.1      0.00     17.48      80.5     0.48      1014.3     0.6     SSW   208   1.3      SW     214     273       -10       0.3       0.4      64.6      7.25
   06/19/2020 04:50      58.6      57.7       86     54.1      0.00     17.48      80.6     0.48      1014.3     0.7       S   169   1.5      SE     130     273        -9       0.0       0.3      64.6      7.25
   06/19/2020 04:40      57.8      57.0       88     54.0      0.00     17.48      80.6     0.48      1014.4     0.4      SE   143   1.6      SE     138     273        -7       0.0       0.3      64.7      7.25
   06/19/2020 04:30      57.1      56.5       89     53.6      0.00     17.48      80.7     0.48      1014.4     0.2       E    99   1.1     ESE     106     248        -6       0.0       0.3      64.7      7.25
   06/19/2020 04:20      56.7      55.5       89     53.0      0.00     17.48      80.6     0.48      1014.5     0.5       S   188   1.6     WSW     252     256       -10       0.1       0.3      64.9      7.25
   06/19/2020 04:10      55.8      55.4       89     52.4      0.00     17.48      80.7     0.48      1014.5     0.0     SSE   159   0.5     SSE     152     286       -17       0.0       0.3      65.0      7.25
   06/19/2020 04:00      55.6      55.1       89     52.1      0.00     17.48      80.8     0.48      1014.6     0.0     SSE   156   0.9     SSE     155     296       -24       0.0       0.3      65.1      7.25
   06/19/2020 03:50      55.6      55.2       88     52.0      0.00     17.48      80.8     0.48      1014.6     0.0     SSE   158   0.4     SSE     158     297       -31       0.0       0.3      65.3      7.25
   06/19/2020 03:40      55.9      55.4       88     52.2      0.00     17.48      80.9     0.48      1014.6     0.6     SSE   167   1.4     SSW     194     292       -33       0.0       0.3      65.6      7.25
   06/19/2020 03:30      56.0      55.4       88     52.1      0.00     17.48      80.9     0.48      1014.7     0.3       S   183   1.1     SSW     203     285       -36       0.0       0.3      65.9      7.25
   06/19/2020 03:20      56.2      55.7       87     52.1      0.00     17.48      81.0     0.48      1014.7     0.0       S   176   0.7       S     179     275       -36       0.0       0.3      66.0      7.25
   06/19/2020 03:10      56.6      56.0       87     52.4      0.00     17.48      81.0     0.48      1014.7     0.2     SSE   159   0.6       S     169     264       -38       0.0       0.3      66.3      7.25
   06/19/2020 03:00      56.7      56.4       87     52.6      0.00     17.48      81.1     0.48      1014.8     0.0       N     0   0.0     SSE     162     254       -41       0.0       0.3      66.5      7.25
   06/19/2020 02:50      56.8      56.4       86     52.5      0.00     17.48      81.1     0.48      1014.8     0.1     SSE   162   0.7     SSE     163     247       -44       0.0       0.3      66.8      7.25
   06/19/2020 02:40      57.0      56.5       85     52.4      0.00     17.48      81.2     0.48      1014.8     0.0       S   179   0.7       S     183     238       -47       0.0       0.3      67.0      7.25
   06/19/2020 02:30      57.4      56.6       84     52.4      0.00     17.48      81.2     0.48      1014.8     0.3     SSE   157   1.3     SSE     154     231       -50       0.0       0.3      67.3      7.25
   06/19/2020 02:20      57.8      57.0       84     52.6      0.00     17.48      81.2     0.48      1014.8     0.0       N     0   0.0     SSW     208     226       -53       0.0       0.3      67.6      7.25
   06/19/2020 02:10      58.1      57.6       84     53.0      0.00     17.48      81.3     0.48      1014.7     0.4       S   185   1.6       S     188     223       -55       0.0       0.3      67.9      7.25
   06/19/2020 02:00      58.3      57.9       83     52.9      0.00     17.48      81.3     0.48      1014.7     1.1       S   172   2.8       S     175     254       -57       0.4       0.3      68.1      7.26
   06/19/2020 01:50      58.3      57.6       83     52.9      0.00     17.48      81.4     0.48      1014.6     1.5       S   183   2.3       S     180     267       -57       0.5       0.2      68.4      7.26
   06/19/2020 01:40      57.7      57.1       84     52.7      0.00     17.48      81.4     0.48      1014.5     1.6       S   175   2.9       S     190     264       -56       0.7       0.1      68.7      7.26
   06/19/2020 01:30      57.8      57.2       84     52.6      0.00     17.48      81.4     0.48      1014.6     0.4     SSE   161   1.6       S     169     235       -56       0.0       0.0      69.0      7.26
   06/19/2020 01:20      58.2      57.6       83     52.8      0.00     17.48      81.5     0.48      1014.6     0.5       S   177   1.4       S     178     232       -57       0.0       0.0      69.3      7.26
   06/19/2020 01:10      58.8      58.0       82     53.0      0.00     17.48      81.6     0.48      1014.6     0.4       S   181   1.0       S     174     243       -57       0.0       0.0      69.6      7.26
   06/19/2020 01:00      59.0      58.7       82     53.3      0.00     17.48      81.6     0.48      1014.5     0.3       S   171   0.7       S     171     248       -58       0.0       0.0      69.9      7.26
   06/19/2020 00:50      59.2      58.9       81     53.3      0.00     17.48      81.6     0.48      1014.6     0.0     SSE   168   0.5     SSE     168     257       -59       0.0       0.0      70.2      7.26
   06/19/2020 00:40      59.5      59.1       81     53.5      0.00     17.48      81.6     0.48      1014.6     0.3       S   176   1.0       S     181     266       -59       0.0       0.0      70.5      7.26
   06/19/2020 00:30      59.7      59.3       81     53.5      0.00     17.48      81.6     0.48      1014.6     0.0       S   181   0.7       S     182     264       -60       0.0       0.0      70.9      7.26
   06/19/2020 00:20      59.7      59.0       82     53.8      0.00     17.48      81.7     0.48      1014.6     0.2       S   181   0.7       S     181     270       -60       0.0       0.0      71.2      7.26
   06/19/2020 00:10      59.5      58.9       81     53.4      0.00     17.48      81.8     0.48      1014.7     0.0       S   178   0.3       S     174     266       -61       0.0       0.0      71.5      7.26
   06/19/2020 00:00      59.7      59.2       80     53.4      0.00     17.48      81.8     0.48      1014.7     0.1     SSE   152   0.9     SSE     159     270       -61       0.0      23.4      71.8      7.26
   06/18/2020 23:50      60.2      59.5       80     53.8      0.00     17.48      81.8     0.48      1014.7     0.1     SSE   152   0.7     SSE     154     271       -62       0.0      23.4      72.1      7.27
   06/18/2020 23:40      60.4      59.9       79     53.7      0.00     17.48      81.9     0.48      1014.7     0.6     SSE   166   1.5       S     180     270       -62       0.0      23.4      72.4      7.27
   06/18/2020 23:30      60.7      60.3       79     54.0      0.00     17.48      81.9     0.48      1014.7     0.8     SSW   206   1.7      SW     217     270       -61       0.0      23.4      72.8      7.27
   06/18/2020 23:20      61.3      60.5       78     54.0      0.00     17.48      81.9     0.48      1014.8     0.6     SSE   168   1.5       S     190     271       -62       0.0      23.4      73.2      7.27
   06/18/2020 23:10      61.7      61.2       78     54.3      0.00     17.48      81.9     0.48      1014.8     0.3     SSW   204   1.5     SSW     203     272       -61       0.0      23.4      73.5      7.27
   06/18/2020 23:00      62.4      61.6       76     54.3      0.00     17.48      82.0     0.48      1014.9     0.0      SE   137   0.5      SE     137     272       -64       0.0      23.4      73.9      7.27
   06/18/2020 22:50      62.8      62.3       75     54.6      0.00     17.48      82.0     0.48      1014.9     0.0       S   180   0.6       S     180     271       -65       0.0      23.4      74.2      7.27
   06/18/2020 22:40      63.0      62.7       75     54.8      0.00     17.48      82.0     0.48      1014.8     0.9     SSW   192   2.1     SSW     193     271       -65       0.2      23.4      74.4      7.27
   06/18/2020 22:30      63.1      62.6       75     54.9      0.00     17.48      81.6     0.48      1014.7     1.3     SSE   164   3.4       S     183     271       -66       0.3      23.4      74.5      7.28
   06/18/2020 22:20      63.3      62.8       75     54.9      0.00     17.48      81.5     0.48      1014.7     0.7     SSE   162   2.1       S     189     271       -66       0.0      23.4      74.9      7.28
   06/18/2020 22:10      63.7      63.2       74     55.1      0.00     17.48      81.5     0.48      1014.5     0.5     SSE   160   1.3     SSE     147     271       -66       0.0      23.3      75.2      7.28
   06/18/2020 22:00      64.0      63.6       74     55.2      0.00     17.48      81.5     0.48      1014.4     2.3       S   191   4.1     SSW     196     271       -67       1.2      23.3      75.5      7.28
   06/18/2020 21:50      64.3      63.8       73     55.2      0.00     17.48      81.5     0.48      1014.3     1.5     SSW   196   3.0      SW     230     270       -68       0.6      23.1      75.9      7.28
   06/18/2020 21:40      64.6      64.2       72     55.3      0.00     17.48      81.4     0.48      1014.2     2.1     SSW   192   3.6     SSW     204     270       -68       1.0      23.0      76.3      7.28
   06/18/2020 21:30      65.0      64.5       72     55.3      0.00     17.48      81.5     0.48      1014.1     2.5     SSW   197   4.7       S     180     270       -69       1.4      22.9      76.7      7.28
   06/18/2020 21:20      65.5      64.8       70     55.3      0.00     17.48      81.4     0.48      1014.0     1.9     SSW   194   3.9     SSW     210     270       -69       0.9      22.6      77.1      7.28
   06/18/2020 21:10      65.8      65.3       69     55.2      0.00     17.48      81.4     0.48      1013.8     1.2     SSW   200   3.8     SSW     197     270       -70       0.5      22.5      77.5      7.29
   06/18/2020 21:00      66.0      65.7       69     55.3      0.00     17.48      81.3     0.48      1013.7     2.0      SW   234   3.5     WSW     240     270       -70       1.0      22.4      77.8      7.29
   06/18/2020 20:50      66.3      65.9       68     55.0      0.00     17.48      81.3     0.48      1013.6     2.3     SSW   196   4.2     SSW     195     270       -71       1.2      22.2      78.2      7.29
   06/18/2020 20:40      66.5      66.1       66     54.6      0.00     17.48      81.3     0.48      1013.5     2.2     SSW   195   4.5     SSW     196     270       -72       1.1      22.0      78.5      7.29
   06/18/2020 20:30      66.9      66.3       65     54.4      0.00     17.48      81.2     0.48      1013.4     1.7       S   181   3.0     SSW     208     269       -72       0.9      21.9      78.9      7.29
   06/18/2020 20:20      67.3      66.6       64     54.4      0.00     17.48      81.3     0.48      1013.3     2.3       S   177   4.0       S     172     269       -72       1.4      21.7      79.5      7.30
   06/18/2020 20:10      67.8      67.1       63     54.5      0.00     17.48      81.1     0.48      1013.3     2.2       S   186   4.5     SSW     208     269       -70       1.2      21.5      79.8      7.30
   06/18/2020 20:00      68.2      67.6       63     54.7      0.00     17.48      81.1     0.48      1013.2     2.7       S   185   4.0       S     188     269       -66       1.6      21.3      80.3      7.30
   06/18/2020 19:50      68.8      68.1       62     54.8      0.00     17.48      81.0     0.48      1013.2     2.9       S   184   4.8     SSW     200     269       -61       1.7      21.0      80.7      7.30
   06/18/2020 19:40      69.7      68.8       60     54.9      0.00     17.48      80.9     0.48      1013.1     2.6       S   179   4.1     SSW     199     268       -51       1.7      20.7      81.1      7.30
   06/18/2020 19:30      70.4      69.5       59     55.1      0.00     17.48      80.8     0.48      1013.1     2.5       S   170   4.6       S     180     268       -34       1.4      20.4      81.4      7.31
   06/18/2020 19:20      70.6      70.1       59     55.2      0.00     17.48      80.8     0.48      1013.0     2.9       S   174   5.2       S     181     268       -17       1.6      20.2      81.8      7.31
   06/18/2020 19:10      71.7      70.5       57     55.3      0.00     17.48      80.8     0.48      1012.9     3.7     SSE   168   6.1       S     181     268         3       2.3      19.9      82.3      7.31
   06/18/2020 19:00      71.9      71.3       57     55.4      0.00     17.48      80.8     0.48      1012.9     2.7     SSE   165   5.7      SE     145     268        25       1.7      19.5      82.6      7.32
   06/18/2020 18:50      72.1      71.5       56     55.4      0.00     17.48      80.6     0.48      1012.8     3.6       S   177   6.5       S     189     268        46       2.3      19.2      83.0      7.32
   06/18/2020 18:40      72.8      72.0       55     55.6      0.00     17.48      80.6     0.48      1012.7     3.6       S   175   6.2     SSW     196     268        37       2.4      18.8      83.4      7.32
   06/18/2020 18:30      73.1      72.5       55     55.8      0.00     17.48      80.2     0.48      1012.6     3.8       S   186   6.5       S     174     268        91       2.5      18.4      83.7      7.33
   06/18/2020 18:20      74.3      72.9       54     55.9      0.00     17.48      80.1     0.48      1012.5     4.2     SSW   200   6.5       S     179     268       117       2.9      18.0      84.0      7.33
   06/18/2020 18:10      75.5      74.2       52     56.1      0.00     17.48      80.0     0.48      1012.5     2.8     SSW   212   6.6       S     188     268       139       1.9      17.5      84.1      7.33
   06/18/2020 18:00      75.5      74.2       52     56.2      0.00     17.48      80.0     0.48      1012.4     1.9      SW   232   5.2      SW     236     268       165       1.5      17.2      84.2      7.33
   06/18/2020 17:50      74.6      74.1       53     56.1      0.00     17.48      79.8     0.48      1012.4     3.2      SW   216   5.9      SW     222     268       191       2.3      17.0      84.3      7.34
   06/18/2020 17:40      75.1      74.1       53     56.0      0.00     17.48      79.6     0.48      1012.6     3.0     SSE   168   6.2     SSW     200     268       213       2.0      16.6      84.4      7.34
   06/18/2020 17:30      75.2      74.2       52     56.0      0.00     17.48      79.5     0.48      1012.7     3.1     SSE   166   6.6     SSE     160     268       236       2.2      16.3      84.4      7.34
   06/18/2020 17:20      75.2      74.0       52     55.9      0.00     17.48      79.4     0.48      1012.8     3.6     SSE   158   6.4      SE     129     267       259       2.3      15.9      84.3      7.34
   06/18/2020 17:10      74.9      74.0       52     55.8      0.00     17.48      79.3     0.48      1012.9     3.5       S   177   6.7     SSW     209     268       283       2.3      15.5      84.3      7.35
   06/18/2020 17:00      74.8      73.5       53     55.8      0.00     17.48      79.2     0.48      1012.9     2.7      SE   132   5.4     SSE     152     267       307       1.9      15.1      84.3      7.35
   06/18/2020 16:50      74.6      73.4       53     55.7      0.00     17.48      79.2     0.48      1012.9     4.0       S   174   7.5     SSE     161     267       327       2.6      14.8      84.2      7.35
   06/18/2020 16:40      74.6      73.7       53     55.7      0.00     17.48      79.0     0.48      1012.9     3.2       S   179   6.9     SSW     194     267       349       2.1      14.4      84.1      7.36
   06/18/2020 16:30      74.8      73.7       53     55.8      0.00     17.48      79.0     0.48      1012.9     4.0       S   170   7.2       S     191     267       373       2.5      14.0      83.9      7.36
   06/18/2020 16:20      74.4      73.7       53     55.9      0.00     17.48      78.9     0.48      1013.0     4.0     SSE   166   8.2       S     182     267       395       2.5      13.6      83.8      7.36
   06/18/2020 16:10      74.6      73.9       53     56.0      0.00     17.48      78.9     0.48      1013.0     4.3       S   183   8.5     SSW     196     268       414       2.9      13.2      83.6      7.36
   06/18/2020 16:00      74.7      73.5       53     56.1      0.00     17.48      78.9     0.48      1013.1     3.7       S   171   9.2     SSE     165     267       434       2.5      12.7      83.3      7.37
   06/18/2020 15:50      73.9      73.3       54     56.0      0.00     17.48      78.8     0.48      1013.1     4.5       S   182  10.3     SSW     191     268       453       2.9      12.3      83.1      7.37
   06/18/2020 15:40      74.7      73.8       53     56.2      0.00     17.48      78.8     0.48      1013.2     4.4       S   178   7.4     SSW     205     267       471       3.3      11.8      82.7      7.37
   06/18/2020 15:30      74.7      73.9       54     56.4      0.00     17.48      78.8     0.48      1013.3     4.5       S   180   8.3     SSW     211     267       496       3.0      11.3      82.2      7.37
   06/18/2020 15:20      75.0      73.7       54     56.4      0.00     17.48      78.6     0.48      1013.3     4.3       S   183  10.3       S     173     267       521       2.6      10.8      81.4      7.38
   06/18/2020 15:10      75.8      74.5       52     56.7      0.00     17.48      78.7     0.48      1013.4     3.0     SSE   148   6.8      SE     142     268       527       2.1      10.3      80.9      7.38
   06/18/2020 15:00      75.7      74.5       53     56.9      0.00     17.48      78.7     0.48      1013.5     2.0     ESE   112   5.1     ESE     104     267       529       1.5      10.0      80.3      7.38
   06/18/2020 14:50      76.6      75.1       53     57.1      0.00     17.48      78.7     0.48      1013.6     2.3       E    83   6.5     ENE      74     267       553       1.6       9.7      79.5      7.38
   06/18/2020 14:40      76.1      75.1       53     57.0      0.00     17.48      78.7     0.48      1013.8     1.9     ENE    75   4.7     ENE      57     267       509       1.3       9.5      79.0      7.38
   06/18/2020 14:30      76.1      74.2       54     57.1      0.00     17.48      78.6     0.48      1013.8     2.4     ESE   106   5.6       S     169     267       525       1.6       9.3      78.5      7.39
   06/18/2020 14:20      76.1      73.5       53     57.0      0.00     17.48      78.6     0.48      1013.8     1.9      NE    41   4.0      NE      47     267       624       1.2       9.0      78.0      7.39
   06/18/2020 14:10      75.4      73.7       54     56.8      0.00     17.48      78.7     0.48      1013.9     2.7     ENE    71   5.6     ESE     112     267       441       1.6       8.8      77.3      7.39
   06/18/2020 14:00      74.6      72.8       55     56.8      0.00     17.48      78.7     0.48      1014.0     2.6       E    97   6.2       E      90     268       626       1.8       8.5      76.8      7.39
   06/18/2020 13:50      73.1      72.3       57     56.7      0.00     17.48      78.7     0.48      1014.2     2.9     SSE   164   7.0       E     100     267       653       2.1       8.2      75.9      7.39
   06/18/2020 13:40      73.3      72.5       57     56.8      0.00     17.48      78.7     0.48      1014.3     2.3      SE   138   4.3      SE     129     267       551       1.6       7.9      75.2      7.39
   06/18/2020 13:30      73.8      71.8       57     56.7      0.00     17.48      78.8     0.48      1014.4     3.1      SE   141   6.2      SW     224     267       644       2.1       7.6      74.5      7.39
   06/18/2020 13:20      73.1      72.5       57     56.7      0.00     17.48      78.7     0.48      1014.5     2.1      NE    55   4.6     ENE      66     267       470       1.3       7.3      73.6      7.40
   06/18/2020 13:10      72.5      71.1       59     56.6      0.00     17.48      78.8     0.48      1014.5     2.5     ESE   108   6.3     SSE     151     267       611       1.3       7.0      73.0      7.40
   06/18/2020 13:00      71.2      69.7       61     56.6      0.00     17.48      78.8     0.48      1014.6     2.7     ESE   103   5.8     SSE     149     267       668       1.5       6.8      72.1      7.40
   06/18/2020 12:50      71.2      69.7       61     56.4      0.00     17.48      78.8     0.48      1014.7     3.1       E    87   7.1     ENE      68     268       463       1.9       6.6      71.4      7.40
   06/18/2020 12:40      70.6      69.0       62     56.1      0.00     17.48      78.9     0.48      1014.8     2.9     ENE    63   7.0       E      84     268       528       1.3       6.2      70.7      7.40
   06/18/2020 12:30      70.2      69.2       61     55.8      0.00     17.48      79.0     0.48      1014.8     2.1      SE   144   6.1      SE     137     267       612       1.3       6.0      70.0      7.40
   06/18/2020 12:20      69.3      67.3       64     55.6      0.00     17.48      79.0     0.48      1014.9     1.5     ENE    76   3.6      SE     127     268       344       0.9       5.8      69.0      7.40
   06/18/2020 12:10      69.0      67.7       63     55.5      0.00     17.48      79.1     0.48      1015.0     1.8     ESE   120   5.0     ESE     119     268       267       1.1       5.6      68.8      7.40
   06/18/2020 12:00      68.7      67.8       64     55.5      0.00     17.48      79.1     0.48      1015.0     1.2       N   353   3.8     NNE      14     268       252       0.7       5.5      68.5      7.40
   06/18/2020 11:50      68.1      67.1       65     55.3      0.00     17.48      79.1     0.48      1015.1     1.2      NE    54   2.8      NE      34     268       265       0.7       5.3      68.2      7.40
   06/18/2020 11:40      67.8      66.7       66     55.4      0.00     17.48      79.2     0.48      1015.2     1.4     NNE    27   3.5      NE      35     268       248       0.8       5.2      67.8      7.40
   06/18/2020 11:30      66.7      65.8       68     55.4      0.00     17.48      79.2     0.48      1015.1     1.6     ENE    62   4.0       E      92     269       238       0.9       5.1      67.5      7.40
   06/18/2020 11:20      66.3      65.7       69     55.4      0.00     17.48      79.2     0.48      1015.1     1.4       E    87   3.5     ENE      69     269       208       0.8       4.9      67.3      7.40
   06/18/2020 11:10      66.2      65.6       69     55.3      0.00     17.48      79.3     0.48      1015.2     1.6      SE   126   3.9     ENE      63     269       189       0.7       4.8      67.0      7.40
   06/18/2020 11:00      65.8      65.3       69     55.1      0.00     17.48      79.3     0.48      1015.3     1.6     WSW   240   3.2     WSW     247     270       174       1.1       4.7      66.7      7.40
   06/18/2020 10:50      66.2      65.8       68     55.2      0.00     17.48      79.3     0.48      1015.5     1.4      SW   231   3.5     SSW     204     270       167       1.1       4.5      66.5      7.40
   06/18/2020 10:40      65.9      65.0       70     55.3      0.00     17.48      79.4     0.48      1015.4     0.5     ESE   108   2.0      SE     141     270       169       0.4       4.3      66.3      7.40
   06/18/2020 10:30      65.0      64.2       71     55.1      0.00     17.48      79.4     0.48      1015.5     1.0     ESE   121   3.0       E      80     270       176       0.7       4.3      66.1      7.40
   06/18/2020 10:20      65.1      64.5       71     55.1      0.00     17.48      79.4     0.48      1015.5     1.0     ENE    63   3.9       E      85     270       171       0.5       4.1      65.9      7.40
   06/18/2020 10:10      64.5      63.5       73     55.1      0.00     17.48      79.5     0.48      1015.5     0.7       N   355   3.2     NNE      12     270       128       0.3       4.1      65.7      7.40
   06/18/2020 10:00      63.5      62.9       74     54.9      0.00     17.48      79.5     0.48      1015.6     0.8       N     6   2.2      NE      35     270       105       0.4       4.0      65.6      7.40
   06/18/2020 09:50      63.4      62.6       75     54.9      0.00     17.48      79.5     0.48      1015.7     1.1     NNE    19   2.7       N     353     270        91       0.2       3.9      65.4      7.40
   06/18/2020 09:40      63.3      62.6       75     54.8      0.00     17.48      79.6     0.48      1015.8     1.3      NE    51   2.4      NE      50     271        79       0.5       3.9      65.3      7.40
   06/18/2020 09:30      63.1      62.4       76     55.1      0.00     17.48      79.7     0.48      1015.8     0.6      NE    53   2.1     ESE     116     271        73       0.3       3.8      65.3      7.40
   06/18/2020 09:20      62.6      61.6       78     55.2      0.00     17.48      79.7     0.48      1015.9     0.7     ENE    65   2.1       E      93     271        66       0.3       3.8      65.2      7.40
   06/18/2020 09:10      61.9      61.5       79     55.0      0.00     17.48      79.7     0.48      1016.0     1.3     ESE   103   3.5       E      87     272        55       0.8       3.7      65.1      7.40
   06/18/2020 09:00      61.8      61.4       79     55.2      0.00     17.48      79.8     0.48      1016.1     0.8     ESE   106   2.9      SE     139     272        43       0.5       3.6      65.1      7.40
   06/18/2020 08:50      61.5      61.3       80     55.1      0.00     17.48      79.8     0.48      1016.1     1.6     ESE   111   3.4     SSE     147     272        41       0.8       3.5      65.1      7.40
   06/18/2020 08:40      61.5      61.2       80     55.1      0.00     17.48      79.8     0.48      1016.1     1.1     SSE   163   2.1     ESE     108     272        35       0.6       3.4      65.1      7.40
   06/18/2020 08:30      61.4      60.9       80     55.1      0.00     17.48      79.8     0.48      1016.1     1.3      SE   140   4.3     ESE     116     272        32       0.9       3.3      65.1      7.40
   06/18/2020 08:20      61.4      61.0       81     55.2      0.00     17.48      80.0     0.48      1016.0     1.8     ESE   109   4.6      SE     127     272        28       0.7       3.1      65.1      7.40
   06/18/2020 08:10      61.4      61.2       80     55.1      0.00     17.48      79.9     0.48      1016.0     1.7     ESE   120   3.9      SE     129     272        25       0.9       3.0      65.1      7.40
   06/18/2020 08:00      61.4      60.9       81     55.4      0.00     17.48      80.0     0.48      1016.0     1.0       E    96   2.3      SE     144     272        20       0.5       2.9      65.2      7.40
   06/18/2020 07:50      61.1      60.5       82     55.4      0.00     17.48      80.1     0.48      1016.0     0.9       S   183   2.9       S     184     272        20       0.5       2.8      65.1      7.41
   06/18/2020 07:40      61.2      60.7       83     55.7      0.00     17.48      80.1     0.48      1016.0     1.3      SE   140   3.7     SSE     163     272        14       0.5       2.7      65.1      7.41
   06/18/2020 07:30      61.0      60.4       84     55.9      0.00     17.48      80.1     0.48      1015.9     0.3       E    86   1.4     ENE      58     272        10       0.0       2.6      65.2      7.41
   06/18/2020 07:20      60.6      60.3       84     55.6      0.00     17.48      80.2     0.48      1015.9     1.2      SE   129   3.5      SE     131     264         8       0.5       2.6      65.2      7.41
   06/18/2020 07:10      60.5      60.2       84     55.6      0.00     17.48      80.2     0.48      1015.8     1.5      SE   135   3.6      SE     142     272         7       0.6       2.5      65.2      7.41
   06/18/2020 07:00      60.3      60.1       85     55.6      0.00     17.48      80.3     0.48      1015.8     2.0      SE   128   4.4      SE     127     271         3       1.0       2.4      65.3      7.41
   06/18/2020 06:50      60.5      60.1       84     55.5      0.00     17.48      80.4     0.48      1015.7     2.7      SE   142   5.0      SE     132     271         2       1.0       2.3      65.4      7.41
   06/18/2020 06:40      60.7      60.4       83     55.4      0.00     17.48      80.4     0.48      1015.6     2.0      SE   141   4.3       E      97     272        -1       0.5       2.1      65.4      7.41
   06/18/2020 06:30      60.9      60.5       82     55.3      0.00     17.48      80.4     0.48      1015.7     1.5      SE   133   4.8     SSE     154     272        -5       0.5       2.0      65.5      7.41
   06/18/2020 06:20      60.7      60.4       83     55.3      0.00     17.48      80.5     0.48      1015.6     1.0      SE   135   3.1      SE     133     272        -7       0.4       1.9      65.5      7.41
   06/18/2020 06:10      60.8      60.4       83     55.3      0.00     17.48      80.5     0.48      1015.5     1.6     SSE   161   3.2       S     185     272        -9       0.9       1.8      65.6      7.41
   06/18/2020 06:00      60.8      60.5       82     55.3      0.00     17.48      80.6     0.48      1015.5     2.1     SSE   148   4.6      SE     128     272       -10       0.7       1.7      65.6      7.41
   06/18/2020 05:50      61.2      60.7       82     55.3      0.00     17.48      80.6     0.48      1015.4     2.7      SE   141   4.4      SE     129     272       -10       1.4       1.6      65.8      7.41
   06/18/2020 05:40      61.3      61.0       81     55.4      0.00     17.48      80.7     0.48      1015.3     1.5     ESE   122   2.8      SE     125     272       -11       0.7       1.4      65.8      7.41
   06/18/2020 05:30      61.4      61.0       81     55.5      0.00     17.48      80.8     0.48      1015.2     1.4      SE   125   3.1      SE     134     272       -12       0.6       1.2      65.9      7.41
   06/18/2020 05:20      61.2      60.9       82     55.4      0.00     17.48      80.9     0.48      1015.1     1.4     SSE   167   3.0       S     180     272       -12       0.8       1.1      65.9      7.41
   06/18/2020 05:10      61.1      60.8       83     55.6      0.00     17.48      81.0     0.48      1015.1     1.7     SSE   150   4.3       S     170     273       -13       0.7       1.0      66.0      7.41
   06/18/2020 05:00      61.0      60.6       83     55.7      0.00     17.48      81.0     0.48      1015.1     1.5       S   173   3.0       S     188     273       -13       0.7       0.9      66.1      7.41
   06/18/2020 04:50      60.8      60.3       84     55.7      0.00     17.48      81.0     0.48      1015.1     0.6       S   183   1.6       S     188     273       -12       0.2       0.8      66.2      7.41
   06/18/2020 04:40      60.6      60.0       85     55.9      0.00     17.48      81.1     0.49      1015.1     0.4       S   179   1.2       S     180     273       -11       0.0       0.8      66.3      7.41
   06/18/2020 04:30      60.1      59.4       87     55.8      0.00     17.48      80.6     0.48      1015.0     0.4       S   172   1.4     SSW     197     273        -9       0.0       0.8      65.9      7.41
   06/18/2020 04:20      59.6      58.8       88     55.6      0.00     17.48      80.4     0.48      1014.9     0.0       N     0   0.0     SSE     151     273        -8       0.0       0.7      65.7      7.41
   06/18/2020 04:10      59.0      58.4       88     55.1      0.00     17.48      80.4     0.49      1015.0     0.0       N     0   0.0     SSE     151     262        -7       0.0       0.7      65.8      7.41
   06/18/2020 04:00      58.6      58.0       88     54.9      0.00     17.48      80.4     0.49      1014.9     0.0       N     0   0.0     SSE     151     237       -11       0.0       0.7      65.9      7.41
   06/18/2020 03:50      58.3      57.9       88     54.6      0.00     17.48      80.6     0.49      1015.0     0.0     SSE   151   0.4     SSE     151     252       -19       0.0       0.7      66.0      7.41
   06/18/2020 03:40      58.1      57.7       88     54.4      0.00     17.48      80.6     0.49      1014.9     0.0       S   175   0.6       S     175     268       -30       0.0       0.7      66.1      7.41
   06/18/2020 03:30      58.2      57.8       87     54.3      0.00     17.48      80.6     0.49      1014.9     0.0     SSW   192   0.7     SSW     193     266       -36       0.0       0.7      66.4      7.41
   06/18/2020 03:20      58.3      57.9       87     54.3      0.00     17.48      80.7     0.49      1014.8     0.1     SSW   197   0.9     SSW     197     260       -41       0.0       0.7      66.7      7.41
   06/18/2020 03:10      58.1      57.8       86     53.9      0.00     17.48      80.8     0.49      1014.8     0.0       S   191   0.7     SSW     211     251       -45       0.0       0.7      66.9      7.41
   06/18/2020 03:00      58.2      57.9       86     53.9      0.00     17.48      81.8     0.49      1014.8     0.0     SSE   167   0.2     SSE     167     240       -50       0.0       0.7      67.8      7.41
   06/18/2020 02:50      58.2      57.8       86     53.7      0.00     17.48      82.3     0.49      1014.8     0.2       S   177   1.2       S     177     230       -54       0.0       0.7      68.5      7.41
   06/18/2020 02:40      58.7      58.0       85     53.8      0.00     17.48      82.3     0.49      1014.8     0.2       S   169   1.7      SE     140     226       -55       0.0       0.7      68.7      7.41
   06/18/2020 02:30      59.0      58.4       84     53.9      0.00     17.48      82.4     0.49      1014.8     0.1       S   169   0.9     SSE     157     225       -57       0.0       0.7      69.1      7.41
   06/18/2020 02:20      59.5      58.9       84     54.3      0.00     17.48      82.3     0.49      1014.8     0.0       S   175   0.7       S     174     228       -58       0.0       0.7      69.2      7.41
   06/18/2020 02:10      59.6      59.3       84     54.6      0.00     17.48      82.4     0.49      1014.7     1.1       S   184   1.7       S     186     249       -58       0.0       0.7      69.5      7.41
   06/18/2020 02:00      59.8      59.5       83     54.4      0.00     17.48      82.0     0.49      1014.7     0.9       S   171   1.8      SE     133     263       -61       0.0       0.7      69.6      7.42
   06/18/2020 01:50      60.0      59.6       82     54.3      0.00     17.48      81.8     0.49      1014.7     1.5       S   174   3.0       S     185     272       -61       0.8       0.7      69.7      7.42
   06/18/2020 01:40      60.2      59.8       81     54.1      0.00     17.48      81.8     0.49      1014.7     1.3       S   169   2.7       S     184     273       -61       0.4       0.6      69.9      7.42
   06/18/2020 01:30      60.4      60.1       80     54.1      0.00     17.48      81.9     0.49      1014.8     1.8       S   183   3.1     SSW     202     273       -61       0.7       0.5      70.2      7.42
   06/18/2020 01:20      60.6      60.2       79     53.9      0.00     17.48      81.8     0.49      1014.8     1.3       S   176   2.7       S     177     273       -61       0.4       0.4      70.5      7.42
   06/18/2020 01:10      60.8      60.4       78     53.8      0.00     17.48      81.9     0.49      1014.8     1.4       S   175   3.1       S     182     272       -62       0.6       0.4      70.8      7.42
   06/18/2020 01:00      61.1      60.6       78     53.9      0.00     17.48      82.0     0.49      1014.8     1.4       S   180   2.6       S     187     272       -62       0.3       0.3      71.1      7.42
   06/18/2020 00:50      61.1      60.8       77     53.9      0.00     17.48      82.0     0.49      1014.8     1.6       S   174   3.2      SE     145     272       -62       0.6       0.2      71.4      7.42
   06/18/2020 00:40      61.4      60.9       77     53.8      0.00     17.48      82.0     0.49      1014.7     0.9       S   174   1.7       S     190     272       -62       0.2       0.1      71.7      7.42
   06/18/2020 00:30      62.0      61.3       75     53.7      0.00     17.48      82.1     0.49      1014.8     0.7     SSE   165   1.9     SSW     204     272       -62       0.0       0.0      72.0      7.42
   06/18/2020 00:20      62.2      61.6       75     53.8      0.00     17.48      82.1     0.49      1014.8     0.8       S   188   2.2       S     185     272       -62       0.2       0.0      72.2      7.42
   06/18/2020 00:10      62.5      62.0       74     53.9      0.00     17.48      82.1     0.49      1014.8     0.9     SSW   195   2.0      SW     229     271       -62       0.1       0.0      72.5      7.42
   06/18/2020 00:00      62.9      62.3       74     54.1      0.00     17.48      82.1     0.49      1014.9     1.1       S   183   1.9     SSW     203     271       -63       0.3      32.3      72.8      7.42
   06/17/2020 23:50      63.1      62.9       73     54.4      0.00     17.48      82.2     0.49      1014.9     1.3       S   179   2.6     SSE     147     270       -64       0.4      32.3      73.0      7.42
   06/17/2020 23:40      63.5      62.9       73     54.3      0.00     17.48      82.2     0.49      1014.9     1.1       S   181   2.2     SSE     166     270       -64       0.4      32.2      73.3      7.42
   06/17/2020 23:30      63.8      63.3       72     54.3      0.00     17.48      82.3     0.49      1014.9     1.4       S   177   3.2     SSW     203     270       -64       0.7      32.2      73.7      7.43
   06/17/2020 23:20      64.0      63.7       71     54.4      0.00     17.48      82.3     0.49      1014.9     2.3       S   188   4.1       S     186     270       -64       1.2      32.0      74.1      7.43
   06/17/2020 23:10      64.2      63.8       71     54.3      0.00     17.48      82.3     0.49      1014.9     3.0     SSW   197   5.4     SSW     206     270       -65       1.7      31.9      74.4      7.43
   06/17/2020 23:00      64.5      64.0       70     54.4      0.00     17.48      82.3     0.49      1014.9     2.1     SSW   208   4.1      SW     232     270       -65       0.9      31.6      74.7      7.43
   06/17/2020 22:50      64.5      64.2       70     54.4      0.00     17.48      82.3     0.49      1014.9     2.3     SSW   205   4.4     SSW     209     270       -65       1.2      31.4      75.0      7.43
   06/17/2020 22:40      65.0      64.4       69     54.4      0.00     17.48      82.4     0.49      1015.0     1.4     SSW   200   2.9     SSW     213     270       -66       0.7      31.2      75.5      7.43
   06/17/2020 22:30      65.3      64.8       69     54.4      0.00     17.48      82.3     0.49      1015.0     1.3     SSW   199   3.2     WSW     244     270       -66       0.6      31.1      75.8      7.43
   06/17/2020 22:20      65.5      65.2       68     54.5      0.00     17.48      82.4     0.49      1014.9     2.0      SW   225   4.8     WSW     239     270       -67       1.0      31.0      76.2      7.43
   06/17/2020 22:10      65.8      65.5       67     54.6      0.00     17.48      82.3     0.49      1014.8     3.1     WSW   237   6.1     WSW     248     269       -67       2.0      30.8      76.5      7.43
   06/17/2020 22:00      66.1      65.7       67     54.6      0.00     17.48      82.4     0.49      1014.8     3.0     WSW   239   5.0     WSW     254     269       -68       1.8      30.5      77.0      7.44
   06/17/2020 21:50      66.4      66.0       66     54.7      0.00     17.48      82.4     0.49      1014.7     3.8     WSW   240   5.7     WSW     251     269       -68       2.3      30.2      77.5      7.44
   06/17/2020 21:40      66.6      66.2       66     54.7      0.00     17.48      82.5     0.49      1014.6     2.9      SW   232   5.4     WSW     236     269       -69       1.7      29.8      78.0      7.44
   06/17/2020 21:30      67.0      66.4       65     54.8      0.00     17.48      82.5     0.49      1014.5     3.1      SW   227   6.0      SW     230     269       -69       1.9      29.5      78.3      7.44
   06/17/2020 21:20      67.0      66.7       65     54.8      0.00     17.48      82.6     0.49      1014.4     2.8      SW   232   4.9     WSW     252     269       -70       1.7      29.2      78.8      7.44
   06/17/2020 21:10      67.3      66.9       64     54.6      0.00     17.48      82.5     0.49      1014.3     2.7       S   190   4.3     SSW     209     268       -71       1.5      28.9      79.2      7.44
   06/17/2020 21:00      68.2      67.3       63     54.7      0.00     17.48      82.5     0.49      1014.2     3.0     SSW   195   4.7      SW     231     268       -72       1.7      28.7      79.6      7.45
   06/17/2020 20:50      68.8      68.1       62     55.1      0.00     17.48      82.4     0.49      1014.1     2.7     SSW   200   4.1     SSW     206     268       -73       1.6      28.4      80.2      7.45
   06/17/2020 20:40      69.7      68.8       61     55.3      0.00     17.48      82.5     0.49      1014.0     2.8      SW   226   5.3      SW     225     268       -73       1.9      28.1      80.7      7.45
   06/17/2020 20:30      70.0      69.6       60     55.5      0.00     17.48      82.4     0.49      1014.0     1.8       W   261   5.0       W     270     268       -73       1.1      27.8      81.1      7.45
   06/17/2020 20:20      70.7      69.7       60     55.5      0.00     17.48      82.4     0.49      1014.0     3.2      SW   228   6.0       W     265     268       -73       2.0      27.6      81.6      7.46
   06/17/2020 20:10      71.2      70.7       58     55.5      0.00     17.48      82.3     0.49      1014.0     1.8      SW   235   5.4     WSW     237     268       -71       1.0      27.3      82.0      7.46
   06/17/2020 20:00      71.4      70.9       57     55.4      0.00     17.48      82.4     0.49      1014.0     1.6      SW   214   3.4     SSW     198     268       -67       1.0      27.1      82.4      7.46
   06/17/2020 19:50      72.0      71.2       56     55.3      0.00     17.48      82.3     0.49      1013.9     1.4      SW   216   4.5     SSW     213     268       -62       1.0      27.0      82.9      7.46
   06/17/2020 19:40      72.3      71.8       56     55.3      0.00     17.48      82.2     0.49      1013.9     2.6     SSW   203   5.0     SSW     206     268       -53       1.5      26.8      83.4      7.46
   06/17/2020 19:30      72.4      71.9       55     55.0      0.00     17.48      82.2     0.49      1013.8     2.2       S   183   3.4     SSE     156     267       -37       1.4      26.5      83.8      7.47
   06/17/2020 19:20      73.5      72.0       54     54.9      0.00     17.48      82.1     0.49      1013.8     3.1       S   183   4.8     SSW     199     267       -23       1.9      26.3      84.2      7.47
   06/17/2020 19:10      73.9      73.5       52     55.0      0.00     17.48      82.1     0.49      1013.7     1.8      SE   135   4.5     SSE     149     267       -16       0.8      26.0      84.6      7.47
   06/17/2020 19:00      73.7      73.1       53     55.0      0.00     17.48      82.0     0.49      1013.7     1.4     SSE   165   4.3      SE     140     267        16       0.8      25.9      84.9      7.47
   06/17/2020 18:50      73.9      73.3       52     54.9      0.00     17.48      82.0     0.49      1013.6     2.2       S   170   6.0       S     190     267        39       1.5      25.7      85.3      7.48
   06/17/2020 18:40      73.5      73.0       52     54.8      0.00     17.48      81.9     0.49      1013.6     2.5       S   179   6.0     SSW     199     267        65       1.8      25.5      85.6      7.48
   06/17/2020 18:30      73.8      73.3       52     54.9      0.00     17.48      81.8     0.49      1013.6     3.2       S   172   6.3     SSW     193     267        92       2.1      25.2      86.0      7.48
   06/17/2020 18:20      74.3      73.6       52     54.9      0.00     17.48      81.8     0.49      1013.5     3.0     SSE   164   6.0      SE     125     267       114       1.7      24.8      86.2      7.49
   06/17/2020 18:10      74.0      73.4       52     54.9      0.00     17.48      81.7     0.49      1013.6     3.2     SSW   197   6.8     SSW     205     267       138       2.1      24.6      86.5      7.49
   06/17/2020 18:00      74.7      73.3       51     54.9      0.00     17.48      81.6     0.49      1013.6     2.9       S   178   5.8     SSW     200     267       165       2.1      24.2      86.7      7.49
   06/17/2020 17:50      74.5      73.5       51     54.9      0.00     17.48      81.5     0.49      1013.6     3.3       S   179   5.8       S     190     267       188       2.5      23.9      87.0      7.49
   06/17/2020 17:40      74.6      73.7       51     55.0      0.00     17.48      81.5     0.49      1013.6     3.6     SSE   165   7.8      SE     126     267       211       2.2      23.4      87.1      7.50
   06/17/2020 17:30      74.3      73.4       52     55.0      0.00     17.48      81.3     0.49      1013.7     3.6       S   185   6.4      SW     229     267       237       2.4      23.1      87.4      7.50
   06/17/2020 17:20      73.5      72.5       53     55.0      0.00     17.48      81.3     0.48      1013.8     4.3     SSW   201   9.0      SW     221     267       263       2.8      22.7      87.5      7.50
   06/17/2020 17:10      73.7      72.4       53     55.0      0.00     17.48      81.2     0.48      1013.8     6.2     SSW   209  10.3     SSW     214     267       284       4.2      22.2      87.8      7.50
   06/17/2020 17:00      74.7      73.5       52     55.1      0.00     17.48      81.1     0.48      1013.8     4.8     SSW   195   9.4     SSW     203     266       308       3.1      21.5      87.8      7.51
   06/17/2020 16:50      74.4      73.0       53     55.2      0.00     17.48      81.0     0.48      1013.8     4.2       S   183   7.7     SSW     202     267       330       2.6      21.0      87.8      7.51
   06/17/2020 16:40      74.0      72.3       53     55.3      0.00     17.48      81.0     0.48      1013.8     4.7       S   170   7.5     SSE     162     266       354       2.7      20.6      87.9      7.52
   06/17/2020 16:30      74.2      72.5       53     55.3      0.00     17.48      80.9     0.48      1013.8     6.2       S   184   9.6     SSW     209     267       376       4.3      20.1      88.0      7.52
   06/17/2020 16:20      74.5      74.0       52     55.5      0.00     17.48      80.8     0.48      1013.8     5.0       S   186   9.9     SSW     210     266       395       3.5      19.4      88.1      7.53
   06/17/2020 16:10      74.7      74.0       52     55.5      0.00     17.48      80.8     0.48      1013.7     4.8       S   183   9.5       S     189     267       416       3.2      18.8      88.1      7.53
   06/17/2020 16:00      75.2      74.1       51     55.5      0.00     17.48      80.7     0.48      1013.7     5.2       S   169  11.0      SE     135     267       434       3.4      18.3      88.1      7.53
   06/17/2020 15:50      74.7      74.1       51     55.3      0.00     17.48      80.6     0.48      1013.7     5.5     SSW   194  11.4     SSW     211     266       453       3.8      17.7      88.2      7.54
   06/17/2020 15:40      75.2      74.5       51     55.5      0.00     17.48      80.6     0.48      1013.8     4.8     SSE   153   9.3       S     182     266       470       2.8      17.1      88.0      7.54
   06/17/2020 15:30      75.7      75.0       50     55.5      0.00     17.48      80.5     0.48      1013.8     4.0     SSE   150   8.7     ESE     118     266       482       2.4      16.6      87.8      7.55
   06/17/2020 15:20      75.6      74.7       50     55.3      0.00     17.48      80.5     0.48      1013.9     3.0      SE   125   7.4     SSE     151     266       494       1.7      16.2      87.6      7.55
   06/17/2020 15:10      76.3      75.4       49     55.4      0.00     17.48      80.4     0.48      1013.9     3.7     ESE   116   7.1       E      95     266       511       2.0      15.9      87.4      7.55
   06/17/2020 15:00      75.6      74.5       50     55.3      0.00     17.48      80.3     0.48      1013.9     3.0     ESE   121   6.6      SE     126     266       527       1.8      15.6      87.0      7.55
   06/17/2020 14:50      75.5      74.5       50     55.2      0.00     17.48      80.4     0.48      1014.0     5.1     SSE   154  10.0     SSE     168     266       540       3.0      15.3      86.7      7.56
   06/17/2020 14:40      76.3      75.2       49     55.3      0.00     17.48      80.3     0.48      1014.0     4.7     SSE   158   8.6      SE     143     266       527       3.0      14.8      86.3      7.56
   06/17/2020 14:30      76.5      75.3       49     55.2      0.00     17.48      80.4     0.48      1014.1     3.0      SE   129   6.4     SSE     147     266       558       2.1      14.3      85.9      7.56
   06/17/2020 14:20      76.4      74.8       49     55.3      0.00     17.48      80.3     0.48      1014.2     2.8     ESE   106   8.5      SE     139     266       567       1.8      13.9      85.9      7.56
   06/17/2020 14:10      77.0      74.7       49     55.3      0.00     17.48      80.3     0.48      1014.2     3.7       E   100   9.7     ESE     106     266       578       2.1      13.6      85.4      7.57
   06/17/2020 14:00      76.6      74.8       50     55.4      0.00     17.48      80.2     0.48      1014.3     2.9     ESE   122   7.5     ESE     110     266       591       1.8      13.3      84.8      7.57
   06/17/2020 13:50      76.4      75.5       49     55.4      0.00     17.48      80.3     0.48      1014.4     4.4      SE   133   8.9      SE     139     266       615       2.8      13.0      84.4      7.57
   06/17/2020 13:40      76.1      75.5       49     55.3      0.00     17.48      80.3     0.48      1014.4     3.6     SSE   168   8.3     SSE     166     266       673       2.5      12.5      83.8      7.58
   06/17/2020 13:30      75.7      74.2       50     55.2      0.00     17.48      80.2     0.48      1014.5     3.5     SSE   147   6.5       S     188     266       539       2.3      12.1      83.0      7.58
   06/17/2020 13:20      76.0      74.1       50     55.1      0.00     17.48      80.2     0.48      1014.6     4.5       S   185   9.3     SSW     206     266       617       3.1      11.7      82.4      7.58
   06/17/2020 13:10      75.5      73.3       51     55.0      0.00     17.48      80.2     0.48      1014.7     3.8       S   174   7.9       S     180     266       320       2.3      11.2      81.6      7.58
   06/17/2020 13:00      75.5      73.3       51     55.1      0.00     17.48      80.0     0.48      1014.7     2.4       E   100   5.8     ENE      70     266       421       1.3      10.8      81.0      7.58
   06/17/2020 12:50      75.6      73.5       51     55.1      0.00     17.48      79.0     0.48      1014.7     4.8     SSW   198  10.0     SSW     200     266       296       3.2      10.6      79.8      7.58
   06/17/2020 12:40      75.5      74.4       48     54.1      0.00     17.48      78.9     0.48      1014.8     2.4     WSW   259   7.6       W     277     264       556       2.2      10.1      79.8      7.59
   06/17/2020 12:30      75.1      73.9       49     54.0      0.00     17.48      79.0     0.48      1014.9     2.3     SSE   159   6.3       E      86     265       692       1.6       9.7      79.0      7.59
   06/17/2020 12:20      75.3      73.3       50     54.5      0.00     17.48      79.0     0.48      1015.0     3.6      SE   135   8.8       S     186     266       546       2.4       9.4      78.3      7.59
   06/17/2020 12:10      73.1      72.2       52     53.8      0.00     17.48      78.9     0.48      1014.9     2.7     SSW   197   6.6      SE     127     266       405       2.0       9.0      77.1      7.59
   06/17/2020 12:00      74.2      72.9       50     53.8      0.00     17.48      78.9     0.48      1014.9     3.6     SSE   154   7.9      SE     141     266       332       2.1       8.7      77.0      7.59
   06/17/2020 11:50      73.8      72.6       51     53.7      0.00     17.48      78.8     0.48      1014.9     2.6      SE   134   6.5       E      94     266       591       1.9       8.3      76.3      7.60
   06/17/2020 11:40      73.1      72.6       50     53.1      0.00     17.48      78.8     0.48      1015.0     2.3      SE   135   7.3       E      83     266       307       1.5       8.0      75.3      7.60
   06/17/2020 11:30      74.9      72.2       50     53.5      0.00     17.48      78.8     0.48      1015.1     3.2     SSW   194   5.9       S     185     266       251       2.3       7.8      74.9      7.60
   06/17/2020 11:20      74.6      73.5       48     53.1      0.00     17.48      78.9     0.48      1015.1     1.8       N   357   3.8     NNW     348     265       458       0.7       7.4      74.6      7.60
   06/17/2020 11:10      73.9      71.3       50     53.1      0.00     17.48      78.9     0.48      1015.1     2.4      NE    50   4.4      NE      44     265       607       1.0       7.3      73.8      7.60
   06/17/2020 11:00      71.3      70.2       53     52.7      0.00     17.48      78.9     0.48      1015.1     3.8     SSW   200   7.4     SSW     200     266       484       2.6       7.1      73.2      7.60
   06/17/2020 10:50      70.9      69.3       54     52.8      0.00     17.48      78.9     0.48      1015.1     3.4       S   169   6.7     SSW     210     266       312       2.3       6.7      72.5      7.60
   06/17/2020 10:40      70.7      68.8       56     53.0      0.00     17.48      79.0     0.48      1015.2     2.8       S   173   7.1      SE     136     267       139       1.6       6.3      71.9      7.60
   06/17/2020 10:30      71.7      70.4       53     53.3      0.00     17.48      79.0     0.48      1015.2     2.6     ESE   121   6.7      SE     130     266       309       1.6       6.0      72.0      7.61
   06/17/2020 10:20      70.8      69.3       55     53.3      0.00     17.48      79.1     0.48      1015.2     3.0       E    94   7.1     ENE      79     266       554       1.9       5.8      71.7      7.61
   06/17/2020 10:10      72.7      69.3       53     53.1      0.00     17.48      79.1     0.48      1015.3     2.4      SE   131   6.9      SE     132     266       363       1.4       5.5      71.0      7.61
   06/17/2020 10:00      71.4      70.3       53     52.9      0.00     17.48      79.1     0.48      1015.3     2.0     ESE   113   5.9      NE      42     265       542       1.4       5.2      70.5      7.61
   06/17/2020 09:50      70.9      69.1       54     52.9      0.00     17.48      79.3     0.48      1015.3     2.1     ENE    57   4.8     ESE     114     266       533       1.2       5.0      69.8      7.61
   06/17/2020 09:40      70.4      69.1       55     52.9      0.00     17.48      79.3     0.48      1015.3     2.6       E    85   5.1       E      90     266       467       1.3       4.8      69.0      7.61
   06/17/2020 09:30      69.8      69.2       56     53.0      0.00     17.48      79.3     0.48      1015.3     2.2     NNE    22   5.0       N       0     266       441       0.9       4.6      68.7      7.61
   06/17/2020 09:20      69.7      68.3       57     53.1      0.00     17.48      79.3     0.48      1015.4     1.9      NE    50   4.3     NNE      15     266       467       1.0       4.4      68.2      7.61
   06/17/2020 09:10      68.3      66.4       61     53.1      0.00     17.48      79.5     0.48      1015.4     1.6     ENE    75   3.7     ENE      78     267       294       0.8       4.3      67.4      7.61
   06/17/2020 09:00      66.6      65.5       64     53.4      0.00     17.48      79.4     0.48      1015.4     2.1     ESE   114   5.7       E      94     268       204       1.2       4.1      67.2      7.61
   06/17/2020 08:50      66.3      65.5       64     53.5      0.00     17.48      79.5     0.48      1015.4     2.2     ESE   113   6.0     SSE     154     268       134       1.2       3.9      67.0      7.61
   06/17/2020 08:40      65.8      65.2       67     54.1      0.00     17.48      79.6     0.48      1015.3     2.5     ESE   106   6.5      SE     138     269       133       1.3       3.7      66.8      7.61
   06/17/2020 08:30      65.5      65.0       67     54.0      0.00     17.48      79.7     0.48      1015.3     2.3     SSE   163   4.3     SSW     193     269       117       1.3       3.5      66.7      7.61
   06/17/2020 08:20      65.6      64.9       67     53.9      0.00     17.48      79.7     0.48      1015.3     1.9      SE   134   4.1       E      92     269       112       1.1       3.3      66.6      7.61
   06/17/2020 08:10      65.4      65.0       67     54.1      0.00     17.48      79.7     0.48      1015.2     2.3     SSE   153   5.1      SE     134     269       123       1.4       3.1      66.4      7.61
   06/17/2020 08:00      65.1      64.2       68     54.0      0.00     17.48      79.8     0.48      1015.1     1.5     ESE   117   4.7     ENE      70     269       111       0.7       2.9      66.3      7.61
   06/17/2020 07:50      64.4      63.5       70     54.0      0.00     17.48      79.8     0.48      1015.0     1.5     ESE   122   4.4      SE     141     270        97       0.8       2.8      66.3      7.61
   06/17/2020 07:40      64.1      63.3       71     54.1      0.00     17.48      79.9     0.49      1015.0     2.3     ESE   122   5.1     ESE     116     270        70       1.4       2.6      66.2      7.61
   06/17/2020 07:30      63.5      63.2       72     54.2      0.00     17.48      80.0     0.48      1014.9     2.1     ESE   109   5.5     ENE      66     270        23       1.1       2.4      66.2      7.61
   06/17/2020 07:20      63.6      63.3       72     54.4      0.00     17.48      80.0     0.49      1014.7     2.1      SE   143   4.7      SE     143     270        -5       1.0       2.2      66.3      7.61
   06/17/2020 07:10      63.5      62.9       73     54.5      0.00     17.48      80.1     0.49      1014.7     1.7       E    91   4.2     ENE      68     270        24       0.8       2.0      66.3      7.61
   06/17/2020 07:00      63.2      62.9       74     54.4      0.00     17.48      80.1     0.49      1014.7     1.4     ESE   113   3.6     ESE     110     270        16       0.6       1.9      66.3      7.61
   06/17/2020 06:50      63.1      62.6       74     54.5      0.00     17.48      80.1     0.49      1014.7     1.0       E    86   2.2     ENE      69     270         8       0.2       1.8      66.3      7.62
   06/17/2020 06:40      62.8      62.3       75     54.5      0.00     17.48      80.2     0.49      1014.7     1.0       E    96   2.4      NE      50     271         5       0.5       1.8      66.3      7.62
   06/17/2020 06:30      62.6      62.3       75     54.5      0.00     17.48      80.3     0.49      1014.6     1.1     ESE   103   2.4       E      85     271       -14       0.5       1.7      66.4      7.62
   06/17/2020 06:20      62.6      62.3       76     54.7      0.00     17.48      80.3     0.49      1014.4     0.6      SE   137   2.0      NE      55     271       -23       0.0       1.6      66.4      7.62
   06/17/2020 06:10      62.6      62.3       76     54.8      0.00     17.48      80.3     0.49      1014.4     0.6      SE   136   1.7     SSE     164     271       -20       0.2       1.6      66.5      7.62
   06/17/2020 06:00      62.5      62.2       76     54.8      0.00     17.48      80.3     0.49      1014.3     0.3     ESE   107   1.7       E      87     271       -22       0.0       1.6      66.5      7.62
   06/17/2020 05:50      62.5      62.1       77     54.9      0.00     17.48      80.4     0.49      1014.2     0.7      SE   125   2.3     ESE     121     271       -19       0.2       1.6      66.7      7.62
   06/17/2020 05:40      62.4      62.1       77     54.8      0.00     17.48      80.5     0.49      1014.1     1.6     ESE   122   3.4     ESE     115     271       -20       0.7       1.5      66.8      7.62
   06/17/2020 05:30      62.4      62.1       76     54.8      0.00     17.48      80.5     0.49      1014.0     1.6     ESE   123   3.3     ESE     113     271       -20       0.8       1.4      66.9      7.62
   06/17/2020 05:20      62.5      62.1       76     54.8      0.00     17.48      80.6     0.49      1014.0     2.0      SE   141   4.0     SSE     152     271       -18       0.7       1.3      67.0      7.62
   06/17/2020 05:10      62.5      62.2       76     54.9      0.00     17.48      80.6     0.49      1013.9     2.0      SE   132   4.4      SE     140     271       -20       0.7       1.2      67.1      7.62
   06/17/2020 05:00      62.6      62.3       77     55.0      0.00     17.48      80.6     0.49      1013.8     1.0     ESE   124   2.8      SE     131     271       -24       0.3       1.0      67.3      7.62
   06/17/2020 04:50      62.6      62.3       76     54.9      0.00     17.48      80.8     0.49      1013.7     1.7     ESE   111   3.4     ENE      67     271       -16       0.8       1.0      67.4      7.62
   06/17/2020 04:40      62.6      62.3       76     54.8      0.00     17.48      80.8     0.49      1013.7     1.7      SE   128   3.6      SE     136     271       -22       0.8       0.9      67.5      7.62
   06/17/2020 04:30      62.6      62.4       75     54.6      0.00     17.48      80.8     0.49      1013.6     2.1     ESE   115   5.3     SSE     148     271       -15       0.8       0.7      67.7      7.62
   06/17/2020 04:20      62.8      62.4       75     54.4      0.00     17.48      80.9     0.49      1013.6     1.1     ESE   115   2.3      SE     140     271       -17       0.3       0.6      67.8      7.62
   06/17/2020 04:10      62.6      62.1       75     54.4      0.00     17.48      81.0     0.49      1013.6     0.5     ESE   110   1.5      SE     141     270       -15       0.0       0.6      67.9      7.62
   06/17/2020 04:00      62.5      62.0       76     54.7      0.00     17.48      81.0     0.49      1013.6     1.5     ESE   103   3.4     ENE      69     271       -15       0.7       0.5      68.0      7.62
   06/17/2020 03:50      62.5      62.0       78     55.1      0.00     17.48      81.1     0.49      1013.5     0.6       E    81   1.5     ENE      61     271       -15       0.2       0.4      68.2      7.62
   06/17/2020 03:40      62.4      62.0       78     55.1      0.00     17.48      81.1     0.49      1013.6     0.7       E    85   2.2     ENE      71     271       -15       0.3       0.4      68.3      7.62
   06/17/2020 03:30      62.3      61.8       78     55.1      0.00     17.48      81.2     0.49      1013.6     1.0     ENE    65   2.2       E      94     271       -15       0.2       0.4      68.4      7.62
   06/17/2020 03:20      62.0      61.7       79     55.1      0.00     17.48      81.2     0.49      1013.7     0.8      NE    52   2.3     ESE     102     271       -15       0.0       0.3      68.5      7.62
   06/17/2020 03:10      61.9      61.5       79     55.0      0.00     17.48      81.3     0.49      1013.7     0.9      NE    55   2.2     ENE      59     271       -14       0.0       0.3      68.7      7.62
   06/17/2020 03:00      61.5      61.3       79     54.7      0.00     17.48      81.3     0.49      1013.8     0.7     ENE    73   1.4     WNW     296     271       -14       0.1       0.3      68.8      7.62
   06/17/2020 02:50      61.5      61.2       79     54.6      0.00     17.48      81.4     0.49      1013.9     0.4       E    89   2.0     ENE      78     271       -14       0.1       0.3      69.0      7.62
   06/17/2020 02:40      61.4      60.9       79     54.5      0.00     17.48      81.4     0.49      1013.9     0.4      SW   236   1.4       W     261     271       -13       0.2       0.3      69.0      7.62
   06/17/2020 02:30      61.1      60.8       79     54.3      0.00     17.48      81.5     0.49      1014.0     0.1       S   185   1.0       S     183     271       -13       0.0       0.2      69.1      7.62
   06/17/2020 02:20      61.2      60.8       78     54.1      0.00     17.48      81.5     0.49      1014.1     0.9       S   189   3.0     SSE     149     271       -13       0.1       0.2      69.2      7.62
   06/17/2020 02:10      60.9      60.4       78     54.0      0.00     17.48      81.5     0.49      1014.2     0.1     SSE   154   1.3      SE     144     271       -13       0.0       0.2      69.4      7.62
   06/17/2020 02:00      60.6      60.2       79     53.8      0.00     17.48      81.7     0.49      1014.2     0.3     ESE   104   1.3      NE      55     271       -12       0.1       0.2      69.5      7.62
   06/17/2020 01:50      60.4      59.9       80     53.9      0.00     17.48      81.7     0.49      1014.2     0.8      SE   140   2.1     ESE     109     272       -12       0.3       0.2      69.7      7.62
   06/17/2020 01:40      60.1      59.4       81     53.9      0.00     17.48      81.7     0.49      1014.2     0.8     ESE   122   2.0       E     100     272       -13       0.2       0.1      69.8      7.63
   06/17/2020 01:30      59.6      58.5       83     54.0      0.00     17.48      81.8     0.49      1014.2     1.6      SE   126   3.7      SE     131     272       -17       0.5       0.0      70.0      7.63
   06/17/2020 01:20      58.5      58.1       85     53.7      0.00     17.48      81.8     0.49      1014.2     0.5      SE   135   1.7      SE     125     273       -30       0.0       0.0      70.3      7.63
   06/17/2020 01:10      58.7      58.1       83     53.4      0.00     17.48      81.9     0.49      1014.2     0.0       N     0   0.0     ENE      69     226       -55       0.0       0.0      70.7      7.63
   06/17/2020 01:00      58.9      58.6       83     53.6      0.00     17.48      81.9     0.49      1014.2     0.0       E    85   0.9     ENE      70     241       -59       0.0       0.0      70.9      7.63
   06/17/2020 00:50      59.2      58.6       83     53.7      0.00     17.48      82.0     0.49      1014.1     0.0     SSE   150   0.5     SSE     150     250       -60       0.0       0.0      71.2      7.63
   06/17/2020 00:40      59.3      58.9       83     53.9      0.00     17.48      81.9     0.49      1014.1     0.3     ESE   118   1.2     ENE      60     256       -62       0.0       0.0      71.5      7.63
   06/17/2020 00:30      59.2      58.9       83     53.8      0.00     17.48      82.0     0.49      1014.1     0.1       E    91   0.8     ENE      73     261       -63       0.0       0.0      71.7      7.63
   06/17/2020 00:20      59.5      59.1       82     53.9      0.00     17.48      82.0     0.49      1014.2     0.0     ESE   107   1.5       E      84     250       -63       0.0       0.0      72.1      7.63
   06/17/2020 00:10      59.7      59.3       82     54.0      0.00     17.48      82.0     0.49      1014.1     0.0       N     0   0.0      SE     143     258       -63       0.0       0.0      72.5      7.63
   06/17/2020 00:00      60.1      59.5       81     54.0      0.00     17.48      82.1     0.49      1014.1     0.0       N     0   0.0     SSE     150     266       -64       0.0      26.3      72.8      7.63
   06/16/2020 23:50      60.4      59.8       80     54.0      0.00     17.48      82.1     0.49      1014.1     0.0     ESE   122   0.9     ESE     114     268       -66       0.0      26.3      73.1      7.63
   06/16/2020 23:40      60.6      60.2       80     54.2      0.00     17.48      82.2     0.49      1014.0     0.1     ESE   116   0.7      SE     133     270       -67       0.0      26.3      73.3      7.63
   06/16/2020 23:30      61.1      60.4       79     54.4      0.00     17.48      82.3     0.49      1014.1     0.2      SE   124   1.0     SSE     147     272       -67       0.0      26.3      73.7      7.63
   06/16/2020 23:20      61.4      61.0       79     54.5      0.00     17.48      82.3     0.49      1014.0     0.3     ESE   117   1.3      SE     134     272       -68       0.0      26.3      74.0      7.63
   06/16/2020 23:10      61.8      61.3       78     54.5      0.00     17.48      82.3     0.49      1014.1     0.5     ESE   113   2.3     ESE     109     272       -69       0.1      26.3      74.3      7.64
   06/16/2020 23:00      62.2      61.6       76     54.4      0.00     17.48      82.2     0.49      1014.1     0.1     ENE    73   1.2     ENE      63     272       -69       0.0      26.3      74.6      7.64
   06/16/2020 22:50      62.6      62.0       76     54.6      0.00     17.48      82.4     0.49      1014.2     0.6     ENE    70   1.9     NNE      19     271       -69       0.0      26.3      74.9      7.64
   06/16/2020 22:40      62.8      62.4       75     54.6      0.00     17.48      82.3     0.49      1014.2     1.2     ENE    64   2.4       E      82     270       -70       0.2      26.3      75.3      7.64
   06/16/2020 22:30      63.1      62.8       74     54.5      0.00     17.48      82.4     0.49      1014.1     0.9     ENE    59   2.1     ENE      67     270       -70       0.2      26.3      75.7      7.64
   06/16/2020 22:20      63.5      63.1       73     54.5      0.00     17.48      82.4     0.49      1014.1     0.6     ENE    60   2.2     NNE      31     270       -71       0.1      26.2      76.0      7.64
   06/16/2020 22:10      63.6      63.3       72     54.4      0.00     17.48      82.4     0.49      1014.0     0.9     ENE    56   2.4      NE      41     270       -71       0.0      26.2      76.4      7.64
   06/16/2020 22:00      64.0      63.4       71     54.3      0.00     17.48      82.4     0.49      1013.9     1.0     ENE    70   2.1       E      84     270       -71       0.2      26.2      76.7      7.64
   06/16/2020 21:50      65.0      63.9       70     54.4      0.00     17.48      82.4     0.49      1013.7     1.3     ENE    73   3.6     ENE      68     270       -71       0.6      26.2      77.2      7.65
   06/16/2020 21:40      65.4      64.8       68     54.5      0.00     17.48      82.4     0.49      1013.6     1.2     ENE    74   2.7      NE      51     269       -72       0.4      26.1      77.7      7.65
   06/16/2020 21:30      65.4      65.1       68     54.6      0.00     17.48      82.4     0.49      1013.5     0.5     ENE    79   2.2      NE      42     269       -72       0.1      26.0      78.0      7.65
   06/16/2020 21:20      65.6      65.2       68     54.5      0.00     17.48      82.5     0.49      1013.3     1.0     SSE   168   2.7     SSE     167     269       -72       0.3      26.0      78.5      7.65
   06/16/2020 21:10      65.9      65.4       67     54.5      0.00     17.48      82.4     0.49      1013.2     1.3       S   176   3.0       S     185     269       -72       0.6      25.9      78.9      7.65
   06/16/2020 21:00      66.2      65.7       67     54.6      0.00     17.48      82.4     0.49      1013.2     2.2       S   187   4.4     SSW     204     269       -73       1.2      25.8      79.3      7.65
   06/16/2020 20:50      66.7      66.1       66     54.8      0.00     17.48      82.4     0.49      1013.2     2.8     SSW   192   4.3       S     169     268       -74       1.6      25.6      79.8      7.66
   06/16/2020 20:40      67.3      66.5       65     54.8      0.00     17.48      82.4     0.49      1013.1     2.5       S   191   5.2       S     186     268       -75       1.3      25.4      80.2      7.66
   06/16/2020 20:30      68.1      67.1       64     54.9      0.00     17.48      82.3     0.49      1013.0     2.5       S   181   3.9     SSW     200     268       -76       1.7      25.2      80.8      7.66
   06/16/2020 20:20      69.0      67.9       62     55.0      0.00     17.48      82.3     0.49      1012.9     2.6       S   190   4.6     SSW     197     268       -75       1.6      24.9      81.3      7.66
   06/16/2020 20:10      71.1      69.0       58     54.7      0.00     17.48      82.3     0.49      1012.9     2.0       S   184   4.2       S     179     268       -74       1.0      24.6      81.9      7.67
   06/16/2020 20:00      71.7      71.0       55     54.4      0.00     17.48      82.3     0.49      1012.8     0.7      NW   309   2.3     WNW     295     268       -71       0.4      24.4      82.4      7.67
   06/16/2020 19:50      72.3      71.5       54     54.5      0.00     17.48      82.2     0.49      1012.7     1.0      NW   317   2.9       N       3     268       -66       0.9      24.4      82.9      7.67
   06/16/2020 19:40      73.9      72.3       52     54.5      0.00     17.48      82.2     0.49      1012.6     2.3       W   278   5.5     WSW     256     267       -57       1.9      24.2      83.3      7.67
   06/16/2020 19:30      74.4      73.8       51     54.8      0.00     17.48      82.1     0.49      1012.6     1.2      NW   311   4.0     WNW     298     267       -39       1.1      23.9      83.8      7.68
   06/16/2020 19:20      74.7      74.1       50     54.8      0.00     17.48      82.1     0.49      1012.5     1.5     WNW   282   4.4       W     261     267       -22       1.3      23.7      84.2      7.68
   06/16/2020 19:10      74.8      74.2       50     54.8      0.00     17.48      82.0     0.49      1012.5     1.8     WNW   299   5.7     WSW     254     267        -2       1.4      23.5      84.7      7.68
   06/16/2020 19:00      75.3      74.4       50     54.8      0.00     17.48      82.0     0.49      1012.5     2.9       W   276   7.7     WNW     294     267        21       2.2      23.3      85.1      7.68
   06/16/2020 18:50      76.6      74.9       49     55.0      0.00     17.48      81.9     0.49      1012.4     2.9     WNW   282   6.1     WSW     245     266        42       2.3      22.9      85.4      7.69
   06/16/2020 18:40      76.6      75.9       48     55.4      0.00     17.48      81.8     0.49      1012.3     1.0      NW   313   2.4      NW     305     266        65       1.3      22.5      85.8      7.69
   06/16/2020 18:30      76.9      75.8       48     55.5      0.00     17.48      81.8     0.49      1012.3     2.6     WNW   285   6.9       W     276     266        89       1.9      22.3      86.2      7.70
   06/16/2020 18:20      76.9      75.8       48     55.5      0.00     17.48      81.7     0.49      1012.3     3.0       W   270   6.0       W     260     266       117       2.4      22.0      86.4      7.70
   06/16/2020 18:10      77.5      76.7       47     55.7      0.00     17.48      81.6     0.49      1012.3     2.8     WNW   295   8.3       W     264     266       141       2.1      21.6      86.8      7.70
   06/16/2020 18:00      77.3      76.3       48     55.7      0.00     17.48      81.6     0.49      1012.3     2.6     WNW   290   7.3       W     266     266       166       2.1      21.3      87.0      7.70
   06/16/2020 17:50      77.5      77.0       47     55.8      0.00     17.48      81.5     0.49      1012.3     3.4       W   271   7.6     WNW     282     266       190       2.7      20.9      87.3      7.71
   06/16/2020 17:40      77.4      76.8       48     55.9      0.00     17.48      81.5     0.49      1012.3     3.1       W   281   7.9     WNW     286     266       216       2.1      20.4      87.5      7.71
   06/16/2020 17:30      78.5      77.4       47     56.1      0.00     17.48      81.3     0.49      1012.3     4.1       W   272   8.5     WSW     247     266       238       3.2      20.1      87.7      7.71
   06/16/2020 17:20      78.2      77.6       47     56.3      0.00     17.48      81.3     0.49      1012.4     1.8      NW   319   5.4       N     350     266       247       1.5      19.6      87.8      7.72
   06/16/2020 17:10      77.8      77.1       49     56.6      0.00     17.48      81.2     0.49      1012.3     2.8     WSW   253   7.5      SW     219     266       224       2.2      19.3      87.9      7.72
   06/16/2020 17:00      78.5      77.1       48     56.5      0.00     17.48      81.1     0.49      1012.3     3.4     WSW   243   9.0       W     269     266       174       2.7      18.9      88.1      7.72
   06/16/2020 16:50      78.5      77.8       48     56.9      0.00     17.48      81.1     0.48      1012.3     3.6     WSW   242   7.8     WSW     248     266       331       2.8      18.5      88.2      7.73
   06/16/2020 16:40      78.3      77.3       48     56.8      0.00     17.48      81.0     0.48      1012.5     2.2     SSE   167   5.9     SSW     209     266       349       1.6      18.0      88.1      7.73
   06/16/2020 16:30      78.4      77.0       49     57.0      0.00     17.48      81.0     0.48      1012.6     3.6     SSW   203   7.5       S     189     266       379       2.5      17.8      88.1      7.73
   06/16/2020 16:20      77.5      76.8       50     56.9      0.00     17.48      80.9     0.48      1012.7     3.4       S   181   8.4      SW     216     266       416       2.2      17.4      87.9      7.74
   06/16/2020 16:10      77.5      76.1       50     56.9      0.00     17.48      80.8     0.48      1012.8     2.9       S   185   6.4     SSW     196     266       400       2.0      17.0      87.8      7.74
   06/16/2020 16:00      77.5      76.4       50     56.9      0.00     17.48      80.8     0.48      1013.0     3.7       S   185   7.4     SSE     150     266       442       2.6      16.7      87.7      7.74
   06/16/2020 15:50      77.2      76.2       50     56.9      0.00     17.48      80.7     0.48      1013.1     3.3     SSE   146   7.2     SSE     165     266       456       2.1      16.2      87.5      7.74
   06/16/2020 15:40      77.3      75.7       51     56.9      0.00     17.48      80.8     0.48      1013.2     3.3     SSE   165   7.3     SSW     205     266       440       2.2      15.9      87.3      7.75
   06/16/2020 15:30      77.4      76.4       50     56.8      0.00     17.48      80.7     0.48      1013.3     4.6       S   184   9.5      SE     141     266       521       3.0      15.5      87.0      7.75
   06/16/2020 15:20      77.0      76.3       50     56.8      0.00     17.48      80.7     0.48      1013.4     4.0       S   172   8.5       S     180     266       496       2.7      15.0      86.7      7.75
   06/16/2020 15:10      76.9      75.6       51     56.6      0.00     17.48      80.7     0.48      1013.6     3.9       S   190   7.7      SW     221     266       531       2.6      14.6      86.3      7.76
   06/16/2020 15:00      76.9      75.3       51     56.6      0.00     17.48      80.6     0.48      1013.7     3.9       S   180   6.9     SSW     197     266       533       2.6      14.1      86.0      7.76
   06/16/2020 14:50      76.1      74.8       52     56.4      0.00     17.48      80.5     0.48      1013.8     4.1       S   176   9.2     SSW     195     266       553       2.7      13.7      85.7      7.76
   06/16/2020 14:40      76.3      75.2       51     56.5      0.00     17.48      80.6     0.48      1013.9     4.3     SSW   201   8.7      SW     215     266       563       3.1      13.3      85.1      7.76
   06/16/2020 14:30      76.1      75.1       52     56.5      0.00     17.48      80.5     0.48      1013.9     5.2       S   180   8.7       S     182     266       556       3.5      12.7      84.7      7.77
   06/16/2020 14:20      76.6      75.2       52     56.7      0.00     17.48      80.5     0.48      1013.9     4.9     SSE   157  12.2      SW     217     266       561       2.9      12.2      84.6      7.77
   06/16/2020 14:10      76.4      75.0       52     56.8      0.00     17.48      80.4     0.48      1013.9     4.6       S   172   8.1       S     182     266       574       2.7      11.7      83.7      7.78
   06/16/2020 14:00      75.8      74.8       52     56.6      0.00     17.48      80.4     0.48      1014.0     4.6       S   174   9.3      SE     134     266       256       2.8      11.2      83.0      7.78
   06/16/2020 13:50      80.0      75.8       49     56.9      0.00     17.48      80.5     0.48      1014.0     4.0     SSE   152   6.8     SSE     168     266       199       2.1      10.7      83.1      7.78
   06/16/2020 13:40      80.2      77.3       46     56.4      0.00     17.48      80.5     0.48      1014.0     1.9     ENE    59   6.7       S     174     266       606       1.2      10.4      82.7      7.78
   06/16/2020 13:30      78.7      77.0       46     55.3      0.00     17.48      80.5     0.48      1014.1     2.8      SE   128   7.0       E      94     266       651       2.0      10.2      82.1      7.79
   06/16/2020 13:20      79.0      76.9       45     55.1      0.00     17.48      80.5     0.48      1014.2     2.5     ESE   102   7.7      SE     135     266       619       1.4       9.9      81.4      7.79
   06/16/2020 13:10      78.4      77.2       46     55.3      0.00     17.48      80.5     0.48      1014.3     1.9       N   354   5.6      NE      37     266       603       1.3       9.6      80.6      7.79
   06/16/2020 13:00      77.5      76.0       47     55.1      0.00     17.48      80.5     0.48      1014.5     2.2      NE    47   4.3     ENE      61     266       606       1.1       9.4      79.7      7.79
   06/16/2020 12:50      76.1      73.3       50     54.9      0.00     17.48      80.5     0.48      1014.6     1.7     ENE    63   4.6     ENE      61     266       607       1.2       9.2      79.0      7.79
   06/16/2020 12:40      73.6      73.3       52     54.7      0.00     17.48      80.6     0.48      1014.8     3.0     SSW   197   6.2      SW     217     266       607       2.3       9.0      78.1      7.79
   06/16/2020 12:30      75.6      73.5       51     55.3      0.00     17.48      80.6     0.48      1014.9     2.3      SE   135   5.8      SE     141     266       602       1.4       8.6      77.3      7.80
   06/16/2020 12:20      75.7      74.9       50     55.6      0.00     17.48      80.7     0.48      1015.1     1.5      NE    36   4.7       E     100     265       587       1.3       8.4      76.2      7.80
   06/16/2020 12:10      75.0      72.9       53     55.5      0.00     17.48      80.6     0.48      1015.2     1.4     NNE    16   5.0      NE      52     266       588       1.0       8.2      75.6      7.80
   06/16/2020 12:00      73.3      72.5       54     55.4      0.00     17.48      80.6     0.48      1015.4     2.0     ENE    73   6.8     ENE      74     266       584       1.1       8.0      75.0      7.80
   06/16/2020 11:50      73.0      71.0       55     55.2      0.00     17.48      80.6     0.48      1015.5     2.3     WNW   286   6.9     SSW     198     266       605       1.7       7.8      74.2      7.80
   06/16/2020 11:40      72.8      71.3       56     55.2      0.00     17.48      80.7     0.48      1015.6     1.5       E    80   4.8     ENE      61     266       626       1.0       7.5      73.4      7.80
   06/16/2020 11:30      71.5      70.3       57     55.1      0.00     17.48      80.7     0.48      1015.7     2.1       N     3   5.3      NE      35     266       609       0.6       7.4      72.5      7.80
   06/16/2020 11:20      71.4      69.9       58     55.1      0.00     17.48      80.6     0.48      1015.7     1.3       N     3   3.0      NE      39     266       416       0.7       7.3      71.9      7.80
   06/16/2020 11:10      70.3      68.9       60     54.8      0.00     17.48      80.6     0.48      1015.7     1.6     ENE    62   3.8     SSE     157     267       423       0.9       7.2      71.2      7.80
   06/16/2020 11:00      69.0      68.0       61     54.7      0.00     17.48      80.6     0.48      1015.7     2.1       E    83   4.1     ENE      58     268       385       1.6       7.0      70.6      7.80
   06/16/2020 10:50      68.1      67.6       63     54.7      0.00     17.48      80.6     0.48      1015.8     1.3      SE   128   3.8     ESE     123     268       261       0.9       6.7      70.1      7.80
   06/16/2020 10:40      67.9      67.1       64     54.7      0.00     17.48      80.6     0.48      1015.8     1.6      NE    42   4.7     NNW     340     268       205       0.7       6.6      69.8      7.80
   06/16/2020 10:30      67.3      66.5       65     54.6      0.00     17.48      80.6     0.49      1015.9     1.2     ESE   107   3.2       E      81     268       162       1.0       6.5      69.5      7.80
   06/16/2020 10:20      67.4      66.7       64     54.6      0.00     17.48      80.6     0.49      1015.9     1.7       E    88   4.0      SE     146     268       162       0.8       6.3      69.4      7.80
   06/16/2020 10:10      67.0      66.5       65     54.5      0.00     17.48      80.6     0.49      1015.8     1.3      NE    40   3.2     ENE      61     268       175       0.5       6.2      69.2      7.80
   06/16/2020 10:00      66.8      66.4       65     54.7      0.00     17.48      80.6     0.49      1015.8     1.7     ENE    59   3.6       E      92     268       187       0.8       6.1      69.0      7.80
   06/16/2020 09:50      66.7      65.8       66     54.8      0.00     17.48      80.6     0.49      1015.8     0.8     ENE    65   2.5     NNE      29     269       142       0.5       5.9      68.8      7.81
   06/16/2020 09:40      66.1      65.4       67     54.7      0.00     17.48      80.7     0.49      1015.9     1.3     ENE    64   3.6      NE      49     269       117       0.5       5.9      68.6      7.81
   06/16/2020 09:30      65.7      64.4       69     54.6      0.00     17.48      80.7     0.49      1015.8     0.7     ESE   115   2.8       E      88     269       119       0.5       5.8      68.5      7.81
   06/16/2020 09:20      65.1      64.4       69     54.4      0.00     17.48      80.7     0.49      1015.8     2.5     SSE   169   5.1       S     189     269       131       1.5       5.7      68.3      7.81
   06/16/2020 09:10      65.0      64.5       69     54.5      0.00     17.48      80.7     0.49      1015.8     1.9     SSE   168   3.9       S     183     269       129       1.3       5.4      68.1      7.81
   06/16/2020 09:00      65.1      63.9       70     54.7      0.00     17.48      80.8     0.49      1015.7     2.0     SSE   164   4.4      SE     135     269       135       1.1       5.2      68.0      7.81
   06/16/2020 08:50      64.2      63.7       71     54.5      0.00     17.48      80.8     0.49      1015.7     2.9     ESE   122   5.7     ESE     104     269       148       1.7       5.0      68.0      7.81
   06/16/2020 08:40      64.0      63.5       72     54.5      0.00     17.48      80.8     0.49      1015.7     2.1     ESE   114   4.8      SE     129     270       105       1.0       4.7      67.8      7.81
   06/16/2020 08:30      63.7      63.3       73     54.5      0.00     17.48      80.8     0.49      1015.7     1.8      SE   130   4.5     ESE     119     270        90       1.0       4.6      67.7      7.81
   06/16/2020 08:20      63.4      62.8       73     54.5      0.00     17.48      80.8     0.49      1015.6     1.9     SSE   165   4.7     SSE     165     270        88       1.1       4.4      67.6      7.81
   06/16/2020 08:10      63.2      62.7       74     54.6      0.00     17.48      80.8     0.49      1015.6     2.2       S   172   3.8       S     178     270        68       1.2       4.2      67.5      7.81
   06/16/2020 08:00      63.1      62.8       74     54.6      0.00     17.48      80.9     0.49      1015.6     1.2       E    89   4.3      SE     128     270        37       0.5       4.0      67.4      7.81
   06/16/2020 07:50      63.4      62.8       74     54.7      0.00     17.48      80.9     0.49      1015.5     1.4     ENE    78   3.4     ENE      70     270        24       0.3       4.0      67.4      7.81
   06/16/2020 07:40      63.1      62.5       75     54.7      0.00     17.48      80.9     0.49      1015.4     0.9       E    80   2.3      SE     142     270        23       0.2       3.9      67.4      7.81
   06/16/2020 07:30      62.6      62.2       75     54.5      0.00     17.48      81.0     0.49      1015.3     0.6     ESE   120   1.5     SSW     211     270        18       0.1       3.9      67.5      7.81
   06/16/2020 07:20      62.5      62.1       76     54.5      0.00     17.48      80.9     0.49      1015.3     1.0     ESE   121   2.4     ESE     122     270         9       0.5       3.8      67.3      7.81
   06/16/2020 07:10      62.5      62.1       76     54.5      0.00     17.48      80.9     0.49      1015.2     1.3     ESE   118   3.8      SE     134     270         6       0.4       3.7      67.3      7.81
   06/16/2020 07:00      62.4      62.1       76     54.6      0.00     17.48      81.0     0.49      1015.0     1.1     SSE   147   3.3      SE     136     270         5       0.4       3.7      67.3      7.81
   06/16/2020 06:50      62.4      61.9       76     54.5      0.00     17.48      80.9     0.49      1014.9     1.1     SSE   163   3.1       E      97     270         3       0.4       3.6      67.3      7.81
   06/16/2020 06:40      62.3      61.9       76     54.5      0.00     17.48      81.1     0.49      1014.7     1.3     SSE   163   3.2       S     191     271         0       0.7       3.5      67.5      7.81
   06/16/2020 06:30      62.3      62.0       76     54.6      0.00     17.48      81.1     0.49      1014.6     1.6       E   101   3.6     NNE      27     271        -2       0.7       3.4      67.5      7.81
   06/16/2020 06:20      62.5      62.1       76     54.6      0.00     17.48      81.1     0.49      1014.6     2.2     ESE   106   4.7     SSE     157     271        -6       1.0       3.3      67.6      7.81
   06/16/2020 06:10      62.6      62.2       75     54.5      0.00     17.48      80.9     0.49      1014.5     3.0      SE   138   5.0      SE     129     270        -9       1.2       3.1      67.6      7.81
   06/16/2020 06:00      62.6      62.3       75     54.6      0.00     17.48      81.0     0.49      1014.5     1.1     ESE   105   3.1      SE     128     270       -12       0.5       2.9      67.7      7.82
   06/16/2020 05:50      62.6      62.3       76     54.7      0.00     17.48      81.0     0.49      1014.4     1.0     ESE   112   3.3     ESE     121     271       -13       0.4       2.9      67.9      7.82
   06/16/2020 05:40      62.6      62.3       75     54.5      0.00     17.48      81.0     0.49      1014.4     1.0     ENE    78   3.0     ENE      66     271       -14       0.4       2.8      67.9      7.82
   06/16/2020 05:30      62.6      62.3       75     54.5      0.00     17.48      81.0     0.49      1014.5     0.3       E    87   1.4       E      96     271       -15       0.2       2.7      68.0      7.82
   06/16/2020 05:20      62.4      62.1       76     54.6      0.00     17.48      81.1     0.49      1014.5     0.8     ESE   104   3.4       E      99     271       -15       0.3       2.7      68.2      7.82
   06/16/2020 05:10      62.5      62.1       76     54.5      0.00     17.48      81.0     0.49      1014.5     1.0      SE   140   3.5      SE     142     271       -16       0.6       2.6      68.3      7.82
   06/16/2020 05:00      62.4      62.1       76     54.8      0.00     17.48      81.1     0.49      1014.6     1.2     ENE    61   2.1     ENE      71     270       -15       0.3       2.5      68.4      7.82
   06/16/2020 04:50      62.3      61.8       77     54.8      0.00     17.48      81.2     0.49      1014.5     1.1       E    92   2.4       E      80     271       -15       0.5       2.5      68.6      7.82
   06/16/2020 04:40      62.4      61.9       77     54.7      0.00     17.48      81.2     0.49      1014.3     2.4     ESE   121   4.3     ESE     113     271       -18       1.2       2.4      68.7      7.82
   06/16/2020 04:30      62.4      62.1       77     55.0      0.00     17.48      81.3     0.49      1014.2     1.9     ESE   119   4.5     ESE     115     271       -20       1.0       2.2      68.9      7.82
   06/16/2020 04:20      62.4      62.2       77     55.2      0.00     17.48      81.3     0.49      1014.2     1.9     ESE   114   3.5      SE     128     271       -22       1.1       2.0      69.0      7.82
   06/16/2020 04:10      62.6      62.2       78     55.3      0.00     17.48      81.3     0.49      1014.2     1.6       E   100   3.8     ESE     105     271       -16       0.7       1.9      69.2      7.82
   06/16/2020 04:00      62.6      62.3       78     55.4      0.00     17.48      81.4     0.49      1014.1     1.7       E    84   5.0       E      85     271       -17       0.7       1.7      69.4      7.82
   06/16/2020 03:50      62.6      62.4       78     55.5      0.00     17.48      81.5     0.49      1014.2     1.3     ENE    56   3.0      SE     146     271       -15       0.3       1.6      69.5      7.82
   06/16/2020 03:40      62.5      62.1       79     55.6      0.00     17.48      81.5     0.49      1014.2     1.1      NE    51   2.9     ENE      71     271       -15       0.1       1.6      69.7      7.82
   06/16/2020 03:30      62.4      61.9       80     55.8      0.00     17.48      81.6     0.49      1014.1     1.4       E    91   4.4       E      86     271       -15       0.7       1.6      69.8      7.82
   06/16/2020 03:20      62.2      61.9       80     55.7      0.00     17.48      81.6     0.49      1014.1     1.5     ENE    78   4.1      SE     135     271       -15       0.6       1.4      70.0      7.82
   06/16/2020 03:10      62.1      61.8       80     55.8      0.00     17.48      81.7     0.49      1014.2     1.5     ENE    69   3.3       E      91     271       -15       0.6       1.3      70.1      7.82
   06/16/2020 03:00      62.0      61.8       81     55.9      0.00     17.48      81.7     0.49      1014.2     1.6       E    86   4.3       E      84     271       -14       0.5       1.2      70.3      7.82
   06/16/2020 02:50      62.3      61.8       81     56.0      0.00     17.48      81.8     0.49      1014.3     2.0       E   100   5.0     ESE     106     272       -15       1.1       1.2      70.5      7.83
   06/16/2020 02:40      62.5      62.1       80     56.2      0.00     17.48      81.8     0.49      1014.4     1.6       E    89   6.0     ENE      70     271       -14       0.8       1.0      70.7      7.83
   06/16/2020 02:30      62.6      62.1       80     56.1      0.00     17.48      81.8     0.49      1014.4     1.4     ENE    69   3.5     ENE      67     271       -14       0.5       0.9      70.9      7.83
   06/16/2020 02:20      62.6      62.2       80     56.1      0.00     17.48      81.9     0.49      1014.3     1.5     ENE    70   4.2       E      95     271       -15       0.5       0.8      71.1      7.83
   06/16/2020 02:10      62.5      62.3       80     56.1      0.00     17.48      81.9     0.49      1014.3     1.3       E    79   2.8       E      90     271       -15       0.6       0.7      71.3      7.83
   06/16/2020 02:00      62.5      62.2       80     56.2      0.00     17.48      82.0     0.49      1014.2     1.3     ENE    78   2.8     ENE      63     271       -16       0.6       0.6      71.5      7.83
   06/16/2020 01:50      62.5      62.0       80     56.2      0.00     17.48      82.1     0.49      1014.3     0.9     ENE    77   2.3     ENE      71     271       -16       0.2       0.5      71.7      7.83
   06/16/2020 01:40      62.3      61.8       81     56.1      0.00     17.48      82.0     0.49      1014.4     0.9     ESE   115   2.6     ESE     107     271       -16       0.5       0.5      71.9      7.83
   06/16/2020 01:30      62.1      61.8       81     56.0      0.00     17.48      82.1     0.49      1014.6     1.4       E    88   3.4      SE     133     272       -15       0.6       0.4      72.1      7.83
   06/16/2020 01:20      62.0      61.7       81     56.1      0.00     17.48      82.1     0.49      1014.6     1.2     ESE   114   2.7      SE     126     272       -14       0.4       0.3      72.3      7.83
   06/16/2020 01:10      62.0      61.5       82     56.3      0.00     17.48      82.2     0.49      1014.6     1.1       E    80   3.7      SE     124     272       -14       0.4       0.2      72.5      7.83
   06/16/2020 01:00      61.7      61.2       83     56.1      0.00     17.48      82.2     0.49      1014.6     1.2     ENE    78   3.1       E      82     272       -22       0.4       0.1      72.8      7.83
   06/16/2020 00:50      61.6      60.8       83     56.1      0.00     17.48      82.4     0.49      1014.6     0.9     ENE    75   2.7     ENE      69     272       -46       0.3       0.0      73.0      7.83
   06/16/2020 00:40      60.9      60.3       84     55.7      0.00     17.48      82.3     0.49      1014.6     0.4       E    86   1.7      NE      44     272       -50       0.1       0.0      73.3      7.83
   06/16/2020 00:30      60.7      60.1       84     55.4      0.00     17.48      82.3     0.49      1014.5     0.4      SE   128   1.6     ESE     122     272       -45       0.0       0.0      73.6      7.83
   06/16/2020 00:20      60.7      60.3       83     55.4      0.00     17.48      82.4     0.49      1014.5     0.0       S   175   0.4       S     169     270       -51       0.0       0.0      73.9      7.84
   06/16/2020 00:10      60.9      60.5       83     55.5      0.00     17.48      82.4     0.49      1014.5     0.0       N     0   0.0       S     171     266       -64       0.0       0.0      74.1      7.84
   06/16/2020 00:00      61.2      60.8       83     55.7      0.00     17.48      82.5     0.49      1014.6     0.7     SSE   168   2.7       S     180     270       -65       0.4      18.8      74.5      7.84
   06/15/2020 23:50      61.4      60.9       83     56.0      0.00     17.48      82.6     0.49      1014.6     1.6     SSE   163   2.7       S     188     272       -62       0.7      18.7      74.8      7.84
   06/15/2020 23:40      61.4      61.1       83     56.0      0.00     17.48      82.6     0.49      1014.7     0.9       S   182   2.9     SSW     203     272       -60       0.3      18.6      75.1      7.84
   06/15/2020 23:30      61.5      61.1       82     55.9      0.00     17.48      82.6     0.49      1014.7     2.6       S   180   5.7     SSW     193     272       -41       1.7      18.6      75.5      7.84
   06/15/2020 23:20      62.1      61.5       82     56.4      0.00     17.48      82.6     0.49      1014.8     1.8      SE   143   4.6     SSW     206     271       -36       1.0      18.3      75.8      7.84
   06/15/2020 23:10      62.6      62.0       82     56.6      0.00     17.48      82.7     0.49      1014.8     1.2     ENE    76   3.0       E      79     271       -42       0.4      18.1      76.2      7.84
   06/15/2020 23:00      62.9      62.4       81     56.6      0.00     17.48      82.7     0.49      1014.8     1.1      NE    44   2.4     NNE      32     272       -63       0.3      18.0      76.6      7.84
   06/15/2020 22:50      63.3      62.8       80     56.7      0.00     17.48      82.7     0.49      1014.7     1.1      NE    35   2.9     NNE      16     271       -64       0.1      18.0      76.9      7.85
   06/15/2020 22:40      63.6      63.1       79     56.7      0.00     17.48      82.7     0.49      1014.6     1.5     ENE    59   2.8     ESE     116     271       -64       0.4      18.0      77.3      7.85
   06/15/2020 22:30      64.0      63.5       78     56.6      0.00     17.48      82.7     0.49      1014.6     1.2     ENE    72   3.9      NE      46     270       -65       0.4      17.9      77.7      7.85
   06/15/2020 22:20      64.5      63.9       76     56.6      0.00     17.48      82.8     0.49      1014.4     1.1     ENE    63   2.8     ENE      57     270       -67       0.2      17.8      78.1      7.85
   06/15/2020 22:10      65.0      64.3       75     56.6      0.00     17.48      82.7     0.49      1014.3     1.5      NE    50   3.1     NNE      29     270       -68       0.3      17.8      78.5      7.85
   06/15/2020 22:00      65.0      64.8       75     56.7      0.00     17.48      82.8     0.49      1014.1     1.4      NE    45   2.7     NNE      26     270       -68       0.3      17.8      78.9      7.85
   06/15/2020 21:50      65.2      64.8       74     56.7      0.00     17.48      82.7     0.49      1014.0     1.0      NE    53   3.2     ENE      77     270       -68       0.4      17.7      79.3      7.85
   06/15/2020 21:40      65.8      64.9       73     56.5      0.00     17.48      82.8     0.49      1013.8     1.3     ENE    67   3.6       E      91     270       -70       0.8      17.6      79.8      7.86
   06/15/2020 21:30      66.3      65.6       72     56.6      0.00     17.48      82.8     0.49      1013.7     1.2      NE    38   2.7     ENE      65     269       -70       0.3      17.5      80.2      7.86
   06/15/2020 21:20      67.0      66.2       70     56.6      0.00     17.48      82.7     0.49      1013.7     1.4      NE    50   2.7     NNE      29     269       -69       0.4      17.4      80.8      7.86
   06/15/2020 21:10      67.4      66.7       69     56.6      0.00     17.48      82.7     0.49      1013.5     1.5      NE    37   3.0      NE      56     268       -68       0.4      17.4      81.2      7.86
   06/15/2020 21:00      68.1      67.2       67     56.5      0.00     17.48      82.7     0.49      1013.5     1.3     ENE    69   2.5      NE      36     268       -69       0.7      17.3      81.6      7.86
   06/15/2020 20:50      68.8      68.1       66     56.5      0.00     17.48      82.7     0.49      1013.4     1.1     ENE    65   4.1     ENE      66     268       -72       0.4      17.2      82.2      7.87
   06/15/2020 20:40      70.3      68.7       63     56.5      0.00     17.48      82.7     0.49      1013.4     1.7     ENE    58   4.2      NE      48     268       -75       0.7      17.1      82.7      7.87
   06/15/2020 20:30      70.9      70.2       61     56.5      0.00     17.48      82.7     0.49      1013.4     1.2     NNE    31   2.9      NE      46     268       -79       0.4      17.0      83.2      7.87
   06/15/2020 20:20      71.9      70.9       59     56.5      0.00     17.48      82.6     0.49      1013.3     1.4      NE    40   2.7     NNE      16     267       -80       0.2      16.9      83.6      7.87
   06/15/2020 20:10      72.6      71.6       58     56.6      0.00     17.48      82.7     0.49      1013.1     1.2     ENE    59   2.4      NE      55     267       -81       0.4      16.9      84.1      7.88
   06/15/2020 20:00      73.9      72.6       56     56.7      0.00     17.48      82.6     0.49      1013.2     1.1      NE    48   4.4       E      80     267       -80       0.5      16.9      84.8      7.88
   06/15/2020 19:50      74.9      73.7       54     56.8      0.00     17.48      82.7     0.49      1013.2     1.0     ENE    61   2.4     ENE      73     266       -75       0.5      16.8      85.4      7.88
   06/15/2020 19:40      76.3      74.8       53     56.9      0.00     17.48      82.6     0.49      1013.1     1.0      NE    55   2.5       N     354     266       -67       0.4      16.7      85.9      7.88
   06/15/2020 19:30      78.2      76.1       48     56.0      0.00     17.48      82.5     0.49      1013.1     1.4      NE    46   3.9      NE      51     265       -63       0.7      16.6      86.4      7.89
   06/15/2020 19:20      79.5      78.3       40     52.8      0.00     17.48      82.5     0.49      1013.1     1.6       N   355   4.9       N     353     265       -57       1.0      16.5      87.0      7.89
   06/15/2020 19:10      81.4      79.4       40     53.4      0.00     17.48      82.5     0.49      1012.9     1.4       N   352   4.9       N       3     265       -46       0.5      16.4      87.4      7.89
   06/15/2020 19:00      81.7      81.3       35     51.0      0.00     17.48      82.3     0.49      1012.8     0.9     NNW   338   3.3      NW     325     265        -1       0.5      16.3      87.9      7.90
   06/15/2020 18:50      82.4      81.5       33     50.3      0.00     17.48      82.3     0.49      1012.7     1.0      NW   314   3.2      NW     309     264       -17       0.7      16.2      88.4      7.90
   06/15/2020 18:40      82.5      82.0       33     50.0      0.00     17.48      82.5     0.49      1012.7     1.2     NNW   329   4.0     NNE      27     264        25       0.7      16.1      88.8      7.90
   06/15/2020 18:30      83.3      82.2       32     49.7      0.00     17.48      82.4     0.49      1012.5     3.2     WNW   291   6.2     WSW     253     264        67       2.2      15.9      89.2      7.91
   06/15/2020 18:20      83.5      82.9       31     49.6      0.00     17.48      82.4     0.49      1012.5     2.2     WNW   289   6.0       W     264     264        98       1.5      15.6      89.7      7.91
   06/15/2020 18:10      83.9      83.0       31     49.6      0.00     17.48      82.2     0.49      1012.7     2.3      NW   305   8.3     WNW     283     264       119       1.6      15.3      90.0      7.91
   06/15/2020 18:00      83.8      83.3       31     49.8      0.00     17.48      82.2     0.49      1012.7     2.2      NW   305   5.0     NNW     335     264       159       1.7      15.1      90.2      7.92
   06/15/2020 17:50      84.7      83.3       31     49.9      0.00     17.48      82.2     0.49      1012.7     2.8     WNW   289   7.5       W     278     264       183       2.1      14.8      90.6      7.92
   06/15/2020 17:40      85.1      84.4       30     50.1      0.00     17.48      82.2     0.49      1012.7     1.9      NW   319   4.7       N     354     264       205       1.6      14.4      90.9      7.93
   06/15/2020 17:30      85.3      84.7       30     50.5      0.00     17.48      82.0     0.49      1012.7     2.0      NW   314   5.2       N       4     264       229       1.9      14.2      91.1      7.93
   06/15/2020 17:20      85.6      85.0       30     50.2      0.00     17.48      82.0     0.49      1012.7     2.3      NW   311   7.0     WNW     294     264       257       1.9      13.8      91.3      7.94
   06/15/2020 17:10      85.5      84.7       29     49.3      0.00     17.48      81.8     0.49      1012.7     2.5     WNW   302   6.0      NW     315     264       242       2.0      13.5      91.5      7.94
   06/15/2020 17:00      85.8      85.0       28     48.9      0.00     17.48      81.7     0.49      1012.7     2.5      NW   314   5.8     ENE      62     264       234       1.6      13.2      91.9      7.95
   06/15/2020 16:50      86.2      85.5       28     48.7      0.00     17.48      81.5     0.48      1012.9     2.4      NW   318   6.9       W     267     264       324       1.8      12.9      91.8      7.95
   06/15/2020 16:40      86.2      85.6       28     49.4      0.00     17.48      81.3     0.48      1013.0     2.7     WNW   302   7.0     NNW     329     264       344       2.4      12.6      91.8      7.96
   06/15/2020 16:30      86.9      85.8       28     49.1      0.00     17.48      81.2     0.48      1013.0     2.6     NNW   333   8.5      NW     305     264       348       1.8      12.3      91.8      7.96
   06/15/2020 16:20      86.4      85.5       27     48.5      0.00     17.48      81.1     0.48      1013.0     3.8      NW   309   9.7     WNW     282     264       389       3.4      11.9      91.8      7.97
   06/15/2020 16:10      87.1      86.4       28     49.4      0.00     17.48      80.9     0.48      1013.0     3.8     WNW   292  10.9       W     265     264       403       3.0      11.4      92.0      7.97
   06/15/2020 16:00      86.9      86.0       35     55.3      0.00     17.48      80.7     0.48      1012.9     2.8     WSW   247  10.0     WSW     257     264       385       2.3      10.9      91.9      7.98
   06/15/2020 15:50      87.6      86.0       36     56.9      0.00     17.48      80.4     0.48      1013.0     2.2     ENE    61   4.8     ENE      74     265       430       1.3      10.5      91.6      7.98
   06/15/2020 15:40      87.1      85.8       36     56.2      0.00     17.48      80.3     0.48      1013.1     2.5       E    86   6.0      SW     222     265       452       1.4      10.3      91.1      7.98
   06/15/2020 15:30      86.3      85.0       36     55.7      0.00     17.48      80.2     0.48      1013.1     2.6       S   173   5.7     SSW     202     264       461       1.9      10.1      90.8      7.99
   06/15/2020 15:20      84.9      84.1       37     55.5      0.00     17.48      80.0     0.48      1013.2     3.2       S   178   6.6       S     189     264       482       2.5       9.8      90.4      7.99
   06/15/2020 15:10      85.0      84.1       37     55.7      0.00     17.48      79.9     0.48      1013.2     4.8     SSE   169   8.0     SSE     149     265       506       3.0       9.3      89.8      7.99
   06/15/2020 15:00      84.9      83.8       38     55.8      0.00     17.48      79.7     0.48      1013.3     3.5     SSW   210  10.2     WSW     245     265       515       2.8       8.9      89.4      8.00
   06/15/2020 14:50      85.4      84.2       38     56.0      0.00     17.48      79.5     0.48      1013.4     4.8     SSW   204   9.1     WSW     249     265       523       3.2       8.4      89.1      8.00
   06/15/2020 14:40      84.6      83.1       39     56.2      0.00     17.48      79.5     0.48      1013.4     3.8     SSW   197   7.1      SW     222     265       537       2.8       7.9      88.6      8.00
   06/15/2020 14:30      84.5      83.1       39     56.2      0.00     17.48      79.2     0.48      1013.5     4.0       S   186   7.8      SW     219     265       540       2.7       7.4      88.0      8.00
   06/15/2020 14:20      84.7      84.0       39     56.5      0.00     17.48      79.1     0.48      1013.6     2.8     SSE   168   6.2     SSE     147     265       555       2.0       7.0      87.6      8.01
   06/15/2020 14:10      84.9      83.5       39     56.6      0.00     17.48      78.9     0.48      1013.7     2.9     SSE   161   6.4     SSW     202     265       563       2.1       6.6      87.0      8.01
   06/15/2020 14:00      84.5      83.0       40     56.9      0.00     17.48      78.7     0.48      1013.8     2.7      SE   139   6.9       S     184     265       566       2.0       6.3      86.1      8.01
   06/15/2020 13:50      83.6      82.5       41     56.9      0.00     17.48      78.6     0.48      1013.8     2.9      SE   125   8.2      SE     141     265       573       1.8       5.9      85.4      8.02
   06/15/2020 13:40      84.1      82.4       39     56.0      0.00     17.48      78.8     0.48      1013.9     2.8     ESE   107   7.0     SSE     151     263       578       1.8       5.7      84.6      8.02
   06/15/2020 13:30      83.4      82.4       40     55.9      0.00     17.48      78.8     0.48      1014.1     3.0       E    94   6.2       E      94     263       576       1.9       5.4      83.9      8.02
   06/15/2020 13:20      84.8      82.8       39     56.1      0.00     17.48      78.7     0.48      1014.1     3.6       E    88   7.6     ESE     111     264       593       2.1       5.0      83.3      8.02
   06/15/2020 13:10      86.1      84.7       36     55.0      0.00     17.48      78.8     0.48      1014.2     2.6      NE    46   5.9     ENE      63     263       589       1.3       4.7      82.5      8.03
   06/15/2020 13:00      85.5      83.3       34     53.0      0.00     17.48      78.8     0.48      1014.3     1.6     NNE    21   3.7      NW     324     263       590       1.0       4.5      81.5      8.03
   06/15/2020 12:50      84.1      82.8       35     53.2      0.00     17.48      78.7     0.48      1014.3     2.4       E    95   5.7       E      94     263       590       1.8       4.3      81.1      8.03
   06/15/2020 12:40      83.4      81.9       37     53.4      0.00     17.48      78.7     0.48      1014.4     2.3       E    88   6.2      SE     138     263       594       1.4       4.0      80.0      8.03
   06/15/2020 12:30      83.0      81.7       36     52.9      0.00     17.48      78.6     0.48      1014.5     2.2       E    94   4.9      SE     136     263       588       1.4       3.8      79.2      8.03
   06/15/2020 12:20      83.2      81.7       36     52.9      0.00     17.48      78.7     0.48      1014.6     2.0       E    98   6.4     ENE      68     263       584       1.3       3.6      78.3      8.04
   06/15/2020 12:10      82.9      81.4       36     52.7      0.00     17.48      78.7     0.48      1014.7     1.5     NNE    14   4.7      NE      42     263       579       1.1       3.3      77.4      8.04
   06/15/2020 12:00      82.6      81.6       37     53.0      0.00     17.48      78.7     0.48      1014.7     2.4      NE    37   4.7       E      93     264       577       1.1       3.2      76.5      8.04
   06/15/2020 11:50      81.6      79.2       39     52.9      0.00     17.48      78.7     0.48      1014.8     1.9       E    99   5.0      SE     135     263       575       1.5       3.0      75.5      8.04
   06/15/2020 11:40      80.8      79.0       39     53.1      0.00     17.48      78.7     0.48      1014.8     2.4     ESE   122   5.4       E      96     264       565       1.4       2.7      74.6      8.04
   06/15/2020 11:30      80.5      78.5       40     53.1      0.00     17.48      78.7     0.48      1014.9     1.8       N   358   3.5     NNE      32     263       556       1.2       2.5      73.7      8.05
   06/15/2020 11:20      79.8      78.9       40     53.2      0.00     17.48      78.6     0.48      1015.0     2.0     ENE    62   5.9       E      80     264       549       1.2       2.3      72.7      8.05
   06/15/2020 11:10      79.4      77.5       42     53.1      0.00     17.48      78.0     0.48      1015.0     1.6     NNE    31   4.0     ENE      65     264       538       0.9       2.1      71.3      8.05
   06/15/2020 11:00      78.1      77.2       44     53.8      0.00     17.48      78.0     0.48      1014.9     2.2     NNE    27   4.6     NNE      30     264       527       1.1       1.9      70.4      8.05
   06/15/2020 10:50      78.5      77.7       43     53.6      0.00     17.48      78.1     0.48      1014.9     1.6     ENE    60   3.5      NE      49     264       515       1.2       1.8      70.0      8.05
   06/15/2020 10:40      77.6      76.9       45     54.4      0.00     17.48      78.1     0.48      1015.0     1.7     NNE    25   4.6       E      83     264       503       0.9       1.6      69.2      8.05
   06/15/2020 10:30      77.1      75.3       47     54.4      0.00     17.48      78.2     0.48      1015.0     1.4      NE    45   3.3       N     355     264       489       0.7       1.4      68.7      8.05
   06/15/2020 10:20      75.8      75.2       47     53.6      0.00     17.48      78.3     0.48      1015.1     1.9     ENE    57   4.2     ENE      66     264       476       0.8       1.3      68.1      8.05
   06/15/2020 10:10      75.3      74.1       48     53.4      0.00     17.48      78.3     0.48      1015.1     1.5     NNE    24   3.7     NNW     348     265       458       0.6       1.2      67.4      8.05
   06/15/2020 10:00      74.4      73.3       48     53.2      0.00     17.48      78.4     0.48      1015.2     1.7     NNE    33   4.2     NNE      28     265       442       0.5       1.1      66.6      8.05
   06/15/2020 09:50      74.1      73.4       48     53.1      0.00     17.48      78.5     0.48      1015.3     1.8      NE    38   4.0     NNE      33     265       425       0.7       1.0      66.0      8.05
   06/15/2020 09:40      73.8      72.0       49     52.8      0.00     17.48      78.5     0.48      1015.3     1.3      NE    35   3.3     ENE      66     265       408       0.8       0.9      65.7      8.05
   06/15/2020 09:30      72.2      71.7       50     52.5      0.00     17.48      78.6     0.48      1015.4     1.5     NNE    25   4.0     ENE      74     265       391       0.6       0.7      65.1      8.05
   06/15/2020 09:20      71.9      70.6       51     52.4      0.00     17.48      78.7     0.48      1015.4     1.5     NNE    25   3.4     NNE      15     265       376       0.4       0.6      64.7      8.05
   06/15/2020 09:10      70.7      69.6       52     51.9      0.00     17.48      78.7     0.48      1015.4     1.5      NE    46   4.3     NNW     346     266       362       0.8       0.6      64.3      8.05
   06/15/2020 09:00      70.2      68.2       53     51.7      0.00     17.48      78.7     0.49      1015.4     1.3      NE    40   3.9      NE      46     266       362       0.3       0.4      63.9      8.05
   06/15/2020 08:50      68.2      67.2       57     51.6      0.00     17.48      78.8     0.49      1015.4     1.3      NE    49   3.4      SE     137     267       300       0.5       0.4      63.5      8.05
   06/15/2020 08:40      67.2      66.3       58     51.5      0.00     17.48      78.9     0.49      1015.3     1.1      NE    43   3.6       E      81     269         4       0.2       0.3      62.7      8.05
   06/15/2020 08:30      66.5      65.8       59     51.6      0.00     17.48      79.0     0.49      1015.3     1.1      NE    36   3.8     NNE      27     269       -18       0.2       0.2      62.7      8.05
   06/15/2020 08:20      66.0      65.3       61     51.6      0.00     17.48      79.0     0.49      1015.3     0.7      NE    46   3.2       N       9     269       -23       0.2       0.2      62.7      8.05
   06/15/2020 08:10      65.5      64.8       62     51.6      0.00     17.48      79.1     0.49      1015.3     1.1      NE    35   2.7      NE      48     269       -22       0.0       0.2      62.7      8.05
   06/15/2020 08:00      64.9      63.8       63     51.6      0.00     17.48      79.1     0.49      1015.2     0.4     ENE    69   2.1     ENE      57     269       -22       0.0       0.2      62.8      8.05
   06/15/2020 07:50      64.0      63.2       64     51.3      0.00     17.48      79.2     0.49      1015.1     0.6     ENE    71   2.4      NE      46     270       -18       0.0       0.2      62.8      8.05
   06/15/2020 07:40      63.5      62.9       65     51.2      0.00     17.48      79.3     0.49      1015.0     0.3     NNW   327   1.3       W     278     270        -6       0.1       0.1      62.8      8.05
   06/15/2020 07:30      63.0      61.9       66     51.0      0.00     17.48      79.3     0.49      1015.0     0.5     ESE   111   2.2     ESE     110     270         0       0.3       0.1      62.9      8.05
   06/15/2020 07:20      62.0      61.1       67     50.7      0.00     17.48      79.4     0.49      1014.9     0.4     ESE   107   1.4       E      95     270       -29       0.0       0.0      62.9      8.05
   06/15/2020 07:10      61.1      60.3       70     50.7      0.00     17.48      79.5     0.49      1014.8     0.2     NNW   337   1.8       N       0     270       -32       0.0       0.0      63.0      8.05
   06/15/2020 07:00      60.3      59.4       72     50.8      0.00     17.48      79.5     0.49      1014.7     0.0     SSW   204   0.6      SW     229     271       -34       0.0       0.0      63.0      8.05
   06/15/2020 06:50      59.5      57.9       75     50.8      0.00     17.48      79.5     0.49      1014.7     0.0       E    93   0.6       E      79     272       -35       0.0       0.0      63.0      8.05
   06/15/2020 06:40      58.0      57.0       78     50.7      0.00     17.48      79.6     0.49      1014.6     0.0      SE   142   0.7      SE     141     272       -35       0.0       0.0      63.2      8.05
   06/15/2020 06:30      57.1      56.0       80     50.5      0.00     17.48      79.7     0.49      1014.5     0.0       N     0   0.0      SE     144     272       -38       0.0       0.0      63.2      8.05
   06/15/2020 06:20      56.2      55.8       81     50.2      0.00     17.48      79.7     0.49      1014.4     0.0      SE   144   0.5      SE     143     271       -40       0.0       0.0      63.3      8.05
   06/15/2020 06:10      55.9      55.4       82     50.0      0.00     17.48      79.7     0.49      1014.3     0.4     SSE   149   1.0     SSE     154     272       -38       0.0       0.0      63.4      8.05
   06/15/2020 06:00      55.5      54.9       82     49.7      0.00     17.48      79.8     0.49      1014.2     0.2     SSE   162   0.8     SSE     154     265       -45       0.0       0.0      63.6      8.05
   06/15/2020 05:50      55.3      54.9       81     49.5      0.00     17.48      79.9     0.49      1014.1     0.1       S   170   0.6       S     189     251       -49       0.0       0.0      63.8      8.05
   06/15/2020 05:40      55.5      55.0       82     49.8      0.00     17.48      80.0     0.49      1014.0     0.2     SSE   152   0.6     SSE     151     248       -52       0.0       0.0      64.1      8.05
   06/15/2020 05:30      55.4      55.0       81     49.6      0.00     17.48      80.0     0.49      1013.9     0.4      SE   142   0.9      SE     143     246       -55       0.0       0.0      64.3      8.05
   06/15/2020 05:20      55.9      55.2       80     49.6      0.00     17.48      80.0     0.49      1013.7     0.4     SSE   157   1.5      SE     145     259       -56       0.0       0.0      64.5      8.05
   06/15/2020 05:10      56.0      55.6       80     49.8      0.00     17.48      80.1     0.49      1013.7     0.3     SSE   160   1.2      SE     145     255       -56       0.0       0.0      64.8      8.05
   06/15/2020 05:00      55.8      55.4       80     49.7      0.00     17.48      80.1     0.49      1013.6     0.0     SSE   147   0.7     SSE     147     260       -58       0.0       0.0      65.0      8.05
   06/15/2020 04:50      55.8      55.4       80     49.5      0.00     17.48      80.2     0.49      1013.5     0.1     SSE   160   0.9       S     177     263       -60       0.0       0.0      65.3      8.05
   06/15/2020 04:40      56.2      55.4       78     49.0      0.00     17.48      80.2     0.49      1013.4     0.3     SSE   159   1.3      SE     146     264       -62       0.0       0.0      65.6      8.06
   06/15/2020 04:30      56.2      55.6       79     49.4      0.00     17.48      80.3     0.49      1013.3     0.4     SSE   165   0.9     SSW     198     267       -62       0.0       0.0      65.8      8.06
   06/15/2020 04:20      56.1      55.7       78     49.1      0.00     17.48      80.3     0.49      1013.2     0.3     SSE   152   1.0      SE     141     268       -64       0.0       0.0      66.1      8.06
   06/15/2020 04:10      56.4      55.9       76     48.8      0.00     17.48      80.4     0.49      1013.2     0.5     SSE   154   1.4      SE     135     270       -65       0.0       0.0      66.4      8.06
   06/15/2020 04:00      56.5      56.2       77     49.2      0.00     17.48      80.4     0.49      1013.1     0.5     SSE   152   1.7      SE     139     270       -64       0.0       0.0      66.7      8.06
   06/15/2020 03:50      57.3      56.4       75     49.1      0.00     17.48      80.4     0.49      1013.2     0.4     SSE   159   0.9     SSE     147     270       -64       0.0       0.0      66.9      8.06
   06/15/2020 03:40      57.5      57.0       75     49.4      0.00     17.48      80.5     0.49      1013.2     0.5     SSE   150   1.1      SE     142     270       -64       0.0       0.0      67.2      8.06
   06/15/2020 03:30      57.6      57.1       75     49.5      0.00     17.48      80.5     0.49      1013.2     0.3     SSE   161   0.9     SSE     158     270       -63       0.0       0.0      67.5      8.06
   06/15/2020 03:20      57.6      57.2       75     49.6      0.00     17.48      80.5     0.49      1013.1     0.2       S   172   0.8       S     183     270       -63       0.0       0.0      67.8      8.06
   06/15/2020 03:10      58.0      57.5       74     49.7      0.00     17.48      80.6     0.49      1013.1     0.4      SE   146   1.0     SSE     148     270       -63       0.0       0.0      68.1      8.06
   06/15/2020 03:00      58.4      57.8       74     49.7      0.00     17.48      80.7     0.49      1013.0     0.1     SSE   161   0.7       S     176     270       -64       0.0       0.0      68.4      8.06
   06/15/2020 02:50      58.3      57.8       74     50.0      0.00     17.48      80.7     0.49      1012.9     0.2     SSE   152   0.8     SSE     148     270       -64       0.0       0.0      68.7      8.06
   06/15/2020 02:40      58.1      57.7       75     49.9      0.00     17.48      80.8     0.49      1012.9     0.0       S   179   0.7     SSE     165     270       -65       0.0       0.0      69.0      8.06
   06/15/2020 02:30      58.5      57.8       73     49.6      0.00     17.48      80.9     0.49      1012.9     0.2     SSE   156   0.8       S     186     270       -66       0.0       0.0      69.3      8.06
   06/15/2020 02:20      59.2      58.4       72     49.6      0.00     17.48      80.8     0.49      1012.9     0.3     SSE   151   1.0     SSE     164     270       -66       0.0       0.0      69.6      8.07
   06/15/2020 02:10      59.5      59.0       71     50.0      0.00     17.48      80.9     0.49      1013.0     0.3     SSE   163   0.8       S     173     270       -65       0.0       0.0      69.9      8.07
   06/15/2020 02:00      59.6      59.0       71     50.0      0.00     17.48      81.0     0.49      1013.0     0.3       S   174   0.9       S     175     270       -65       0.0       0.0      70.3      8.07
   06/15/2020 01:50      59.6      59.2       71     50.1      0.00     17.48      81.0     0.49      1013.0     0.2      SE   144   1.2      SE     142     270       -65       0.0       0.0      70.5      8.07
   06/15/2020 01:40      60.0      59.4       70     49.9      0.00     17.48      81.0     0.49      1013.0     0.8     SSE   159   2.1      SE     143     270       -67       0.0       0.0      70.9      8.07
   06/15/2020 01:30      59.7      59.4       70     50.0      0.00     17.48      81.0     0.49      1013.1     0.6     SSE   153   2.2      SE     141     270       -66       0.0       0.0      71.1      8.07
   06/15/2020 01:20      60.1      59.5       69     49.6      0.00     17.48      81.1     0.49      1013.1     0.5     SSE   158   1.2     SSE     151     270       -66       0.0       0.0      71.5      8.07
   06/15/2020 01:10      60.8      60.0       68     49.8      0.00     17.48      81.1     0.49      1013.1     0.7     SSE   160   1.6      SE     141     270       -67       0.0       0.0      71.9      8.07
   06/15/2020 01:00      60.9      60.6       68     50.1      0.00     17.48      81.1     0.49      1013.1     0.3       S   186   1.0     SSW     199     269       -66       0.0       0.0      72.1      8.07
   06/15/2020 00:50      60.9      60.5       67     49.8      0.00     17.48      81.2     0.49      1013.1     0.0      SE   129   0.6       S     179     269       -67       0.0       0.0      72.6      8.07
   06/15/2020 00:40      61.0      60.8       66     49.7      0.00     17.48      81.3     0.49      1013.1     0.3      SE   140   0.7      SE     130     269       -67       0.0       0.0      72.9      8.07
   06/15/2020 00:30      61.4      61.0       66     49.7      0.00     17.48      81.3     0.49      1013.1     0.3     SSE   158   1.0      SE     145     269       -67       0.0       0.0      73.2      8.08
   06/15/2020 00:20      61.6      61.0       65     49.6      0.00     17.48      81.4     0.49      1013.1     0.3     SSE   165   0.9     SSE     147     268       -68       0.2       0.0      73.5      8.08
   06/15/2020 00:10      61.6      61.4       65     49.7      0.00     17.48      81.4     0.49      1013.1     0.6     SSE   156   1.2     SSE     151     268       -67       0.0       0.0      73.9      8.08
   06/15/2020 00:00      62.5      61.6       63     49.3      0.00     17.48      81.4     0.49      1013.1     0.5     SSE   160   1.1      SE     143     268       -68       0.0      19.8      74.3      8.08
   06/14/2020 23:50      63.0      62.3       61     48.9      0.00     17.48      81.4     0.49      1013.1     0.4     SSE   148   1.3      SE     139     268       -67       0.0      19.8      74.6      8.08
   06/14/2020 23:40      63.3      62.9       60     49.1      0.00     17.48      81.4     0.49      1013.1     0.0     SSE   162   0.6       S     176     268       -67       0.0      19.8      74.9      8.08
   06/14/2020 23:30      64.5      63.1       58     48.7      0.00     17.48      81.4     0.49      1013.2     0.6     SSE   153   2.0     SSW     197     268       -68       0.1      19.8      75.3      8.08
   06/14/2020 23:20      64.4      63.7       57     48.7      0.00     17.48      81.5     0.49      1013.2     2.0     SSW   208   2.6     SSW     211     268       -67       0.4      19.8      75.7      8.09
   06/14/2020 23:10      63.9      63.5       58     48.7      0.00     17.48      81.5     0.49      1013.3     0.6     SSW   208   1.7      SW     225     268       -69       0.0      19.7      76.2      8.09
   06/14/2020 23:00      64.6      63.7       56     48.4      0.00     17.48      81.5     0.49      1013.5     0.0       S   174   0.5       S     173     267       -70       0.0      19.7      76.6      8.09
   06/14/2020 22:50      65.6      64.5       55     48.3      0.00     17.48      81.6     0.49      1013.5     0.2     SSE   157   1.2      SE     141     267       -71       0.0      19.7      77.0      8.09
   06/14/2020 22:40      66.0      65.5       53     48.3      0.00     17.48      81.5     0.49      1013.5     0.2     SSE   156   1.3     SSE     147     267       -71       0.0      19.7      77.3      8.09
   06/14/2020 22:30      66.4      65.8       52     48.2      0.00     17.48      81.5     0.49      1013.4     0.0       S   190   0.7      SW     226     267       -72       0.0      19.7      77.7      8.09
   06/14/2020 22:20      66.8      66.2       51     48.0      0.00     17.48      81.7     0.49      1013.4     0.5     ESE   114   1.8     ESE     106     267       -73       0.0      19.7      78.1      8.09
   06/14/2020 22:10      67.3      66.7       50     47.7      0.00     17.48      81.6     0.49      1013.3     0.4       E    97   2.3       E      81     266       -74       0.1      19.7      78.5      8.10
   06/14/2020 22:00      67.8      67.3       49     47.6      0.00     17.48      81.6     0.49      1013.2     0.6     ESE   102   2.5     ESE     116     266       -75       0.1      19.7      78.9      8.10
   06/14/2020 21:50      68.1      67.6       49     47.8      0.00     17.48      81.6     0.49      1013.1     1.0     ESE   115   2.0       E     101     266       -75       0.0      19.6      79.2      8.10
   06/14/2020 21:40      68.6      68.0       48     47.9      0.00     17.48      81.7     0.49      1013.1     1.0     ESE   117   2.3      SE     128     266       -76       0.4      19.6      79.7      8.10
   06/14/2020 21:30      69.3      68.6       47     47.7      0.00     17.48      81.6     0.49      1013.0     0.9     ESE   111   2.2     ENE      66     266       -76       0.0      19.6      80.1      8.10
   06/14/2020 21:20      70.1      69.2       46     47.8      0.00     17.48      81.6     0.49      1013.0     0.7       E    94   1.6     ENE      63     266       -77       0.1      19.6      80.6      8.11
   06/14/2020 21:10      71.5      70.1       45     48.5      0.00     17.48      81.5     0.49      1012.9     0.2     ESE   115   1.5     ESE     121     266       -78       0.0      19.5      81.0      8.11
   06/14/2020 21:00      72.2      71.4       44     48.8      0.00     17.48      81.6     0.49      1012.8     0.5      NE    41   1.5     NNE      12     266       -79       0.1      19.5      81.5      8.11
   06/14/2020 20:50      72.5      71.8       45     49.9      0.00     17.48      81.6     0.49      1012.7     0.6     NNW   345   1.7     NNE      17     266       -78       0.0      19.5      81.8      8.11
   06/14/2020 20:40      72.9      72.3       45     49.9      0.00     17.48      81.7     0.49      1012.5     1.1     SSW   198   2.9     SSW     200     266       -79       0.6      19.5      82.3      8.12
   06/14/2020 20:30      73.1      72.8       45     50.2      0.00     17.48      81.6     0.49      1012.5     1.8     WSW   239   3.9       W     263     266       -79       1.2      19.4      82.8      8.12
   06/14/2020 20:20      74.2      73.1       44     50.6      0.00     17.48      81.6     0.49      1012.4     0.8       S   172   1.9       S     189     266       -80       0.5      19.2      83.3      8.12
   06/14/2020 20:10      75.3      74.1       43     50.7      0.00     17.48      81.7     0.49      1012.3     0.9     ESE   117   2.3     ESE     121     266       -81       0.3      19.1      83.8      8.12
   06/14/2020 20:00      76.3      75.3       41     50.7      0.00     17.48      81.6     0.49      1012.2     1.0     ENE    58   2.1      NE      45     266       -77       0.3      19.1      84.3      8.13
   06/14/2020 19:50      77.7      76.3       40     50.9      0.00     17.48      81.7     0.49      1012.2     1.3     NNE    30   3.4      NE      43     266       -73       0.0      19.0      84.9      8.13
   06/14/2020 19:40      79.2      77.4       39     51.3      0.00     17.48      81.6     0.49      1012.1     1.2      NE    43   3.9      NE      51     266       -66       0.3      19.0      85.3      8.13
   06/14/2020 19:30      79.6      79.1       39     51.9      0.00     17.48      81.6     0.49      1012.0     1.0     WNW   299   3.6     WSW     257     266       -47       0.6      19.0      85.7      8.14
   06/14/2020 19:20      79.8      79.3       39     52.3      0.00     17.48      82.0     0.49      1011.9     0.8       N    10   2.3     NNE      24     266       -31       0.1      18.9      86.4      8.14
   06/14/2020 19:10      80.7      79.9       38     52.7      0.00     17.48      82.2     0.49      1011.8     1.2     NNW   346   4.6      NW     324     265       -12       0.7      18.9      87.0      8.14
   06/14/2020 19:00      80.7      80.1       39     53.4      0.00     17.48      82.1     0.49      1011.7     0.7       N     7   2.9       N     350     265        10       0.2      18.7      87.3      8.14
   06/14/2020 18:50      81.3      80.4       39     53.4      0.00     17.48      82.1     0.49      1011.7     1.0     NNW   347   4.0     WNW     299     265        33       0.8      18.7      87.6      8.15
   06/14/2020 18:40      82.2      81.2       35     51.2      0.00     17.48      81.7     0.49      1011.6     2.8     WNW   290   7.0     WNW     283     265        57       2.9      18.6      87.7      8.15
   06/14/2020 18:30      81.5      81.0       37     52.4      0.00     17.48      81.4     0.49      1011.5     1.8      SW   236   5.1     WSW     257     265        82       1.1      18.1      87.5      8.15
   06/14/2020 18:20      81.7      80.6       38     53.0      0.00     17.48      81.3     0.49      1011.5     1.7      SW   230   4.7       W     279     265       106       1.3      17.9      87.8      8.16
   06/14/2020 18:10      80.9      80.4       39     53.1      0.00     17.48      81.3     0.49      1011.5     2.1     SSW   196   4.8     SSW     194     265       132       1.5      17.7      88.0      8.16
   06/14/2020 18:00      81.1      80.3       39     53.3      0.00     17.48      81.3     0.49      1011.4     3.3     SSW   193   7.6      SW     222     265       157       2.4      17.4      88.2      8.16
   06/14/2020 17:50      81.4      80.5       39     53.4      0.00     17.48      81.2     0.49      1011.5     2.4       S   181   4.8     SSW     203     265       180       1.7      17.0      88.4      8.17
   06/14/2020 17:40      81.6      80.3       39     53.5      0.00     17.48      81.2     0.49      1011.6     4.3       S   185   6.7     SSW     202     265       205       2.7      16.8      88.6      8.17
   06/14/2020 17:30      82.3      81.3       38     53.5      0.00     17.48      81.0     0.49      1011.6     2.5      SW   216   7.3       S     180     265       227       1.7      16.3      88.7      8.17
   06/14/2020 17:20      82.4      80.8       38     53.6      0.00     17.48      81.0     0.49      1011.6     1.7     SSW   191   5.0      SW     235     265       250       1.5      16.0      88.7      8.18
   06/14/2020 17:10      81.4      80.4       39     53.6      0.00     17.48      80.9     0.49      1011.7     2.1     SSE   148   4.3       S     180     265       274       1.3      15.8      88.7      8.18
   06/14/2020 17:00      81.5      80.3       39     53.7      0.00     17.48      80.9     0.49      1011.8     3.3     SSE   167   8.0     SSW     206     265       298       2.3      15.5      88.8      8.18
   06/14/2020 16:50      81.4      80.2       39     53.6      0.00     17.48      80.8     0.49      1011.9     2.0      SE   144   4.6     SSW     197     265       320       1.5      15.2      88.8      8.19
   06/14/2020 16:40      81.4      80.2       39     53.8      0.00     17.48      80.8     0.48      1012.0     4.8     WSW   239   7.6      SW     230     265       343       3.7      14.9      88.9      8.19
   06/14/2020 16:30      81.6      80.5       39     53.7      0.00     17.48      80.6     0.48      1012.0     2.6     SSE   155   6.0      SE     130     265       363       1.7      14.3      88.7      8.19
   06/14/2020 16:20      81.4      79.8       40     53.8      0.00     17.48      80.6     0.48      1012.1     2.8      SW   228   5.9      SW     222     265       386       2.0      14.0      88.8      8.20
   06/14/2020 16:10      80.7      79.6       40     54.1      0.00     17.48      80.0     0.48      1012.2     4.6     SSW   205   7.2      SE     132     265       407       3.0      13.7      88.2      8.20
   06/14/2020 16:00      80.5      79.5       41     54.2      0.00     17.48      79.3     0.48      1012.2     3.7       S   176   7.6      SE     131     265       427       2.5      13.2      87.6      8.20
   06/14/2020 15:50      80.0      78.8       42     54.1      0.00     17.48      79.2     0.48      1012.2     4.8     SSE   165  10.1     SSW     211     265       446       3.0      12.8      87.5      8.21
   06/14/2020 15:40      80.4      78.8       41     54.1      0.00     17.48      79.1     0.48      1012.3     3.5     SSE   151   7.6      SE     124     265       462       2.1      12.3      87.1      8.21
   06/14/2020 15:30      80.6      79.6       41     54.1      0.00     17.48      78.9     0.48      1012.4     3.7      SE   134   6.7     SSW     199     265       477       2.3      11.9      86.8      8.21
   06/14/2020 15:20      79.8      78.8       42     54.2      0.00     17.48      78.8     0.48      1012.4     4.2       S   181   7.5      SW     231     265       493       3.0      11.5      86.2      8.22
   06/14/2020 15:10      79.4      78.4       43     54.1      0.00     17.48      78.8     0.48      1012.5     5.5      SE   144   9.4     SSE     156     265       509       2.9      11.0      86.1      8.22
   06/14/2020 15:00      79.9      79.2       42     54.3      0.00     17.48      78.7     0.48      1012.4     5.3     SSE   160   9.0     SSW     210     265       520       3.3      10.5      85.9      8.22
   06/14/2020 14:50      80.1      79.2       42     54.3      0.00     17.48      78.6     0.48      1012.5     4.9     SSW   194  10.6      SW     225     265       531       3.5      10.0      85.7      8.23
   06/14/2020 14:40      80.5      79.3       41     54.1      0.00     17.48      78.5     0.48      1012.5     5.5       S   186  10.6       S     174     265       543       3.5       9.4      85.2      8.23
   06/14/2020 14:30      80.7      79.4       41     54.1      0.00     17.48      78.5     0.48      1012.5     5.1     SSW   192   8.5     SSW     196     265       552       3.6       8.8      84.6      8.23
   06/14/2020 14:20      81.0      79.9       40     54.2      0.00     17.48      78.2     0.48      1012.5     2.5      SE   124   7.6     ENE      61     265       560       1.5       8.2      84.3      8.24
   06/14/2020 14:10      80.5      79.4       41     54.4      0.00     17.48      78.1     0.48      1012.5     3.5       E    85   6.5     ENE      73     265       569       2.1       8.0      83.8      8.24
   06/14/2020 14:00      80.3      79.2       42     54.4      0.00     17.48      78.1     0.48      1012.7     3.2     ESE   104  10.7       E      95     265       577       2.1       7.6      83.0      8.24
   06/14/2020 13:50      79.9      79.1       42     54.3      0.00     17.48      78.0     0.48      1012.8     4.0      SE   136   7.7     ESE     110     265       588       2.7       7.3      82.3      8.24
   06/14/2020 13:40      79.9      78.8       42     54.6      0.00     17.48      78.0     0.48      1012.8     3.4     ESE   115   7.5      SE     133     264       584       1.9       6.8      81.3      8.25
   06/14/2020 13:30      79.7      78.4       43     54.5      0.00     17.48      78.1     0.48      1012.9     3.2     SSE   161   7.4      SE     145     264       594       2.5       6.5      80.6      8.25
   06/14/2020 13:20      80.6      78.5       42     54.5      0.00     17.48      77.9     0.48      1012.9     4.9      SE   129  10.3     SSE     150     264       599       3.0       6.1      79.6      8.25
   06/14/2020 13:10      82.0      80.5       36     52.2      0.00     17.48      77.9     0.48      1013.0     3.1     ESE   119   6.6      SE     126     263       595       2.2       5.6      78.8      8.25
   06/14/2020 13:00      81.6      80.5       34     50.5      0.00     17.48      77.8     0.48      1013.0     1.9     ENE    75   5.1       S     183     263       594       1.5       5.2      78.0      8.25
   06/14/2020 12:50      80.6      78.1       36     50.0      0.00     17.48      77.9     0.48      1013.1     2.5     ENE    71   5.4      NE      47     263       596       1.6       5.0      77.2      8.26
   06/14/2020 12:40      80.1      78.5       35     49.7      0.00     17.48      77.6     0.48      1013.2     2.8      SE   128   7.1      SE     143     263       597       1.9       4.7      76.2      8.26
   06/14/2020 12:30      79.7      79.0       35     49.8      0.00     17.48      77.7     0.48      1013.4     1.9      SE   144   6.1     ESE     121     263       593       1.4       4.4      75.4      8.26
   06/14/2020 12:20      79.9      77.8       36     50.1      0.00     17.48      77.7     0.48      1013.4     2.2      NE    42   4.9     ENE      66     263       588       1.1       4.2      74.6      8.26
   06/14/2020 12:10      78.8      77.7       37     49.7      0.00     17.48      77.6     0.48      1013.4     2.2     SSW   200   5.3     ENE      78     263       586       1.6       4.0      73.7      8.26
   06/14/2020 12:00      78.0      76.1       40     50.5      0.00     17.48      77.6     0.48      1013.6     2.7      NE    54   5.7      SE     131     263       581       1.0       3.7      72.9      8.26
   06/14/2020 11:50      77.5      76.5       39     50.4      0.00     17.48      77.8     0.48      1013.6     2.6     NNE    18   5.0      NE      55     264       574       1.0       3.6      72.3      8.27
   06/14/2020 11:40      77.5      76.2       40     50.9      0.00     17.48      77.8     0.48      1013.7     2.0      NE    42   5.0     NNE      15     263       568       1.2       3.4      71.5      8.27
   06/14/2020 11:30      76.5      75.3       42     51.1      0.00     17.48      77.8     0.48      1013.8     2.1     ENE    57   6.0     ENE      68     264       560       1.1       3.2      70.5      8.27
   06/14/2020 11:20      76.0      74.7       43     51.1      0.00     17.48      77.8     0.48      1013.9     1.8     NNE    29   4.6     NNE      20     263       551       1.4       3.0      69.3      8.27
   06/14/2020 11:10      75.6      74.4       44     51.5      0.00     17.48      77.6     0.48      1014.0     2.3     NNE    28   5.9      NE      44     264       542       1.0       2.8      68.7      8.27
   06/14/2020 11:00      74.7      73.7       45     51.4      0.00     17.48      77.8     0.48      1014.0     2.4      NE    49   5.6      SW     230     264       532       1.5       2.6      68.0      8.27
   06/14/2020 10:50      75.4      74.5       43     51.2      0.00     17.48      78.0     0.48      1014.0     1.9     ENE    70   4.7       E      95     264       519       1.2       2.4      67.2      8.27
   06/14/2020 10:40      74.7      73.6       44     51.0      0.00     17.48      77.9     0.48      1014.0     1.5       N     7   3.5     NNE      28     264       506       1.1       2.1      66.5      8.27
   06/14/2020 10:30      73.5      72.2       46     51.0      0.00     17.48      78.1     0.48      1014.0     1.2       N    11   4.6     NNE      17     264       492       0.9       2.0      66.1      8.27
   06/14/2020 10:20      72.4      71.4       48     51.2      0.00     17.48      78.1     0.48      1014.1     2.1      NE    51   5.0     NNE      32     264       479       0.9       1.8      65.3      8.27
   06/14/2020 10:10      72.2      71.3       48     51.1      0.00     17.48      78.2     0.48      1014.1     1.6      NE    53   4.0      NE      38     264       462       0.7       1.7      64.8      8.27
   06/14/2020 10:00      71.9      71.3       49     51.3      0.00     17.48      78.3     0.48      1014.2     2.2     ENE    65   4.8     ESE     113     265       447       1.1       1.6      64.2      8.27
   06/14/2020 09:50      71.9      70.3       50     51.4      0.00     17.48      78.4     0.48      1014.2     0.9       N     8   2.8     NNE      32     265       430       0.8       1.4      63.6      8.27
   06/14/2020 09:40      70.4      69.6       51     51.1      0.00     17.48      78.4     0.48      1014.3     1.3     NNE    19   3.9     ENE      57     265       412       0.6       1.3      63.1      8.27
   06/14/2020 09:30      69.8      68.8       52     51.1      0.00     17.48      78.5     0.48      1014.3     0.9       N   355   4.5      NW     326     265       395       0.5       1.2      62.7      8.27
   06/14/2020 09:20      68.8      67.8       54     50.9      0.00     17.48      78.7     0.48      1014.4     1.1     NNE    18   3.2       N     355     266       378       0.6       1.1      62.3      8.27
   06/14/2020 09:10      67.8      66.6       55     50.7      0.00     17.48      78.7     0.49      1014.5     0.9      NE    49   3.1     NNE      27     266       365       0.6       1.0      61.9      8.27
   06/14/2020 09:00      66.7      65.2       58     50.7      0.00     17.48      78.7     0.49      1014.5     1.1      NE    51   3.4       E      86     266       365       0.7       0.9      61.5      8.27
   06/14/2020 08:50      65.2      64.2       61     50.8      0.00     17.48      78.9     0.49      1014.4     0.9       N   356   4.2     NNE      19     267       314       0.3       0.8      61.0      8.27
   06/14/2020 08:40      64.3      63.2       62     50.5      0.00     17.48      79.0     0.49      1014.3     0.8     NNW   348   2.5     NNW     340     269         0       0.2       0.7      60.4      8.27
   06/14/2020 08:30      63.4      62.8       63     50.2      0.00     17.48      79.0     0.49      1014.2     0.8      NE    45   2.2       E      92     269       -24       0.4       0.7      60.3      8.27
   06/14/2020 08:20      63.1      62.4       63     50.1      0.00     17.48      79.1     0.49      1014.3     1.4      NE    41   3.2     NNE      28     269       -30       0.4       0.6      60.3      8.27
   06/14/2020 08:10      62.5      61.8       64     50.0      0.00     17.48      79.1     0.49      1014.2     0.7       E    79   2.4      NE      51     270       -29       0.3       0.6      60.3      8.27
   06/14/2020 08:00      61.9      61.3       65     49.8      0.00     17.48      79.2     0.49      1014.2     0.5      NE    42   2.3       N       0     269       -28       0.1       0.5      60.3      8.27
   06/14/2020 07:50      61.6      61.0       65     49.5      0.00     17.48      79.3     0.49      1014.2     1.0      NE    55   3.0      NE      45     269       -24       0.2       0.5      60.4      8.27
   06/14/2020 07:40      61.0      60.5       66     49.3      0.00     17.48      79.3     0.49      1014.2     1.1     ESE   113   2.7     NNE      21     270       -10       0.3       0.4      60.4      8.27
   06/14/2020 07:30      60.6      59.4       68     49.4      0.00     17.48      79.4     0.49      1014.2     0.1       N     4   1.6     NNE      17     270        -3       0.0       0.4      60.4      8.27
   06/14/2020 07:20      59.6      58.9       69     49.2      0.00     17.48      79.3     0.49      1014.1     0.7     ENE    72   2.9       E      90     270       -36       0.2       0.4      60.5      8.27
   06/14/2020 07:10      59.0      58.4       71     49.2      0.00     17.48      79.4     0.49      1014.0     0.5      NE    56   1.7      NE      37     270       -37       0.2       0.4      60.5      8.27
   06/14/2020 07:00      58.4      57.6       72     49.1      0.00     17.48      79.5     0.49      1014.0     0.4       E    84   1.9       E      98     270       -39       0.0       0.3      60.5      8.27
   06/14/2020 06:50      57.6      56.8       73     48.7      0.00     17.48      79.6     0.49      1013.9     0.0     ENE    73   0.5       E      85     271       -41       0.0       0.3      60.5      8.27
   06/14/2020 06:40      56.7      55.0       77     48.6      0.00     17.48      79.7     0.49      1013.8     0.2      NE    55   1.1      NE      37     271       -43       0.0       0.3      60.6      8.27
   06/14/2020 06:30      55.2      54.5       78     48.2      0.00     17.48      79.6     0.49      1013.7     0.4      SE   136   1.2      SE     139     270       -48       0.0       0.3      60.8      8.27
   06/14/2020 06:20      54.6      53.5       79     47.8      0.00     17.48      79.7     0.49      1013.6     0.3      SE   140   0.9     ESE     110     270       -52       0.0       0.3      60.8      8.27
   06/14/2020 06:10      53.8      53.2       79     47.2      0.00     17.48      79.8     0.49      1013.4     0.6     SSE   151   1.4      SE     130     270       -49       0.0       0.3      60.9      8.27
   06/14/2020 06:00      53.7      53.3       79     47.2      0.00     17.48      79.8     0.49      1013.4     0.6     SSE   169   1.7       S     189     271       -54       0.0       0.3      61.1      8.27
   06/14/2020 05:50      53.6      53.5       79     47.1      0.00     17.48      79.8     0.49      1013.3     0.5     SSE   168   1.6     SSW     212     266       -57       0.0       0.3      61.2      8.27
   06/14/2020 05:40      53.8      53.5       79     47.2      0.00     17.48      79.9     0.49      1013.2     0.3     SSE   166   1.1     SSE     149     266       -60       0.0       0.3      61.5      8.27
   06/14/2020 05:30      53.8      53.1       77     46.5      0.00     17.48      80.0     0.49      1013.2     0.7       S   175   2.1     SSW     192     267       -61       0.0       0.3      61.6      8.27
   06/14/2020 05:20      54.3      53.8       76     46.8      0.00     17.48      80.0     0.49      1013.1     0.0      SW   214   0.6      SW     214     266       -62       0.0       0.3      61.8      8.27
   06/14/2020 05:10      53.9      53.2       77     46.5      0.00     17.48      80.0     0.49      1013.1     1.2       S   189   2.8      SW     220     269       -61       0.0       0.3      62.1      8.27
   06/14/2020 05:00      54.1      53.3       74     45.8      0.00     17.48      80.1     0.49      1013.0     0.6     SSE   160   1.3       S     181     270       -62       0.2       0.3      62.3      8.27
   06/14/2020 04:50      54.2      54.0       73     45.8      0.00     17.48      80.2     0.49      1012.9     0.9     SSW   192   2.2     SSW     207     270       -62       0.0       0.3      62.5      8.28
   06/14/2020 04:40      54.8      54.1       72     45.5      0.00     17.48      80.2     0.49      1012.8     0.3      SE   128   1.5     SSW     200     270       -63       0.0       0.3      62.8      8.28
   06/14/2020 04:30      54.8      54.0       73     45.7      0.00     17.48      80.2     0.49      1012.7     0.7     SSW   210   1.8      SW     216     270       -62       0.0       0.3      63.0      8.28
   06/14/2020 04:20      54.8      54.0       72     45.4      0.00     17.48      80.3     0.49      1012.6     0.3     SSE   165   0.9       S     179     270       -63       0.0       0.3      63.2      8.28
   06/14/2020 04:10      54.9      54.5       71     45.5      0.00     17.48      80.3     0.49      1012.6     0.8     SSE   162   1.3      SE     137     270       -63       0.0       0.2      63.5      8.28
   06/14/2020 04:00      54.7      54.1       72     45.6      0.00     17.48      80.3     0.49      1012.4     0.3       S   185   0.9      SE     134     270       -63       0.0       0.2      63.8      8.28
   06/14/2020 03:50      55.2      54.3       72     46.0      0.00     17.48      80.4     0.49      1012.5     0.3     SSE   155   1.1       S     174     270       -64       0.0       0.2      64.0      8.28
   06/14/2020 03:40      55.5      55.0       72     46.4      0.00     17.48      80.5     0.49      1012.3     0.7       S   179   1.4      SW     220     270       -63       0.0       0.2      64.3      8.28
   06/14/2020 03:30      55.3      54.8       74     46.9      0.00     17.48      80.4     0.49      1012.3     0.5     SSW   192   1.4       S     190     269       -63       0.0       0.2      64.5      8.28
   06/14/2020 03:20      55.3      54.7       73     46.5      0.00     17.48      80.5     0.49      1012.2     0.4     ESE   122   1.0       E      96     269       -65       0.0       0.2      64.7      8.28
   06/14/2020 03:10      56.2      55.3       72     46.8      0.00     17.48      80.6     0.49      1012.1     0.5      SE   138   1.1     SSE     149     269       -64       0.0       0.2      64.9      8.28
   06/14/2020 03:00      56.5      56.0       71     47.0      0.00     17.48      80.6     0.49      1012.1     0.4       S   181   1.5       S     190     269       -64       0.0       0.2      65.3      8.28
   06/14/2020 02:50      56.7      56.0       70     46.8      0.00     17.48      80.7     0.49      1012.1     0.9     SSW   209   2.2      SW     224     269       -64       0.2       0.2      65.5      8.28
   06/14/2020 02:40      57.0      56.2       70     47.1      0.00     17.48      80.7     0.49      1012.2     1.1       S   185   2.1     SSW     211     270       -64       0.3       0.2      65.8      8.28
   06/14/2020 02:30      57.0      56.2       71     47.5      0.00     17.48      80.8     0.49      1012.2     1.3      SE   138   2.4     SSW     212     270       -64       0.2       0.1      66.1      8.28
   06/14/2020 02:20      56.9      56.4       72     47.6      0.00     17.48      80.9     0.49      1012.2     0.4      SE   137   1.2       S     188     269       -66       0.0       0.1      66.3      8.28
   06/14/2020 02:10      57.5      56.8       70     47.6      0.00     17.48      80.8     0.49      1012.1     0.5     SSE   161   1.6     SSE     164     269       -66       0.1       0.1      66.7      8.29
   06/14/2020 02:00      57.7      57.2       71     48.0      0.00     17.48      80.8     0.49      1012.1     0.6       S   182   1.3     SSW     202     269       -66       0.0       0.0      66.8      8.29
   06/14/2020 01:50      57.6      57.0       72     48.2      0.00     17.48      80.9     0.49      1012.1     0.7       S   180   2.0       S     185     269       -67       0.1       0.0      67.1      8.29
   06/14/2020 01:40      57.5      57.1       71     48.1      0.00     17.48      81.0     0.49      1012.1     0.4     SSE   149   1.4      SE     133     269       -67       0.0       0.0      67.3      8.29
   06/14/2020 01:30      57.8      57.3       71     48.0      0.00     17.48      81.0     0.49      1012.2     0.4     SSE   158   1.4      SE     144     269       -68       0.1       0.0      67.6      8.29
   06/14/2020 01:20      58.4      57.5       69     47.7      0.00     17.48      81.0     0.49      1012.3     0.6     SSE   157   1.1       S     181     269       -68       0.0       0.0      67.8      8.29
   06/14/2020 01:10      58.9      58.3       67     47.7      0.00     17.48      81.1     0.49      1012.4     0.7     SSE   164   1.7     SSW     201     269       -68       0.1       0.0      68.1      8.29
   06/14/2020 01:00      59.0      58.5       67     47.7      0.00     17.48      80.8     0.49      1012.4     0.8     SSW   195   1.6     SSW     197     269       -67       0.0       0.0      68.2      8.29
   06/14/2020 00:50      59.4      58.5       66     47.7      0.00     17.48      80.8     0.49      1012.4     0.3      SE   141   1.5      SE     139     269       -69       0.0       0.0      68.6      8.29
   06/14/2020 00:40      59.4      59.0       66     47.9      0.00     17.48      80.9     0.49      1012.4     0.4     SSW   206   1.5     SSW     203     269       -68       0.0       0.0      68.9      8.29
   06/14/2020 00:30      59.7      59.2       66     48.2      0.00     17.48      80.9     0.49      1012.4     0.4     SSE   166   1.1       S     188     269       -70       0.0       0.0      69.2      8.29
   06/14/2020 00:20      59.7      59.3       67     48.4      0.00     17.48      80.9     0.49      1012.4     0.4     SSW   198   1.2     SSW     193     268       -70       0.0       0.0      69.4      8.30
   06/14/2020 00:10      59.9      59.4       66     48.1      0.00     17.48      81.0     0.49      1012.4     0.5       S   173   1.5       S     179     268       -71       0.0       0.0      69.7      8.30
   06/14/2020 00:00      60.0      59.4       65     48.1      0.00     17.48      81.1     0.49      1012.5     0.9       S   169   1.9      SE     135     268       -70       0.1      32.4      70.0      8.30
   06/13/2020 23:50      60.4      59.8       64     48.1      0.00     17.48      81.1     0.49      1012.6     0.2     SSE   147   1.3      SE     142     268       -70       0.0      32.4      70.4      8.30
   06/13/2020 23:40      61.2      60.3       63     48.0      0.00     17.48      81.2     0.49      1012.5     0.3     SSE   158   0.9     SSE     150     268       -71       0.0      32.4      70.7      8.30
   06/13/2020 23:30      62.0      61.0       60     47.8      0.00     17.48      81.8     0.49      1012.6     1.4     SSW   204   2.2       S     190     268       -69       0.3      32.4      71.5      8.30
   06/13/2020 23:20      62.2      61.6       60     47.9      0.00     17.48      81.7     0.49      1012.6     1.4     SSW   213   1.9     SSW     209     268       -70       0.0      32.4      71.8      8.30
   06/13/2020 23:10      62.4      61.8       61     48.3      0.00     17.48      81.8     0.49      1012.8     0.4     SSW   203   1.3     SSW     198     268       -70       0.0      32.4      72.2      8.30
   06/13/2020 23:00      62.9      62.3       59     48.3      0.00     17.48      81.9     0.49      1012.8     0.3     ESE   122   1.3       E      81     268       -71       0.0      32.4      72.5      8.30
   06/13/2020 22:50      64.0      62.8       58     48.4      0.00     17.48      81.9     0.49      1012.8     0.5      SE   141   1.2      SE     137     267       -73       0.0      32.4      72.8      8.31
   06/13/2020 22:40      63.9      63.0       58     48.5      0.00     17.48      81.9     0.49      1013.0     1.4       S   191   2.6     SSW     198     268       -72       0.6      32.4      73.1      8.31
   06/13/2020 22:30      63.8      63.1       57     48.1      0.00     17.48      81.9     0.49      1013.0     0.5     SSE   166   1.4      SE     126     267       -72       0.0      32.3      73.5      8.31
   06/13/2020 22:20      64.5      63.7       56     48.0      0.00     17.48      81.9     0.49      1013.0     0.9       S   185   2.2      SW     227     267       -71       0.0      32.3      73.8      8.31
   06/13/2020 22:10      64.2      63.7       56     48.1      0.00     17.48      81.9     0.49      1012.9     0.5     SSW   200   2.2      SW     226     267       -73       0.0      32.3      74.1      8.31
   06/13/2020 22:00      65.3      64.2       54     48.0      0.00     17.48      81.9     0.49      1012.8     0.3      SE   144   1.1      SE     142     267       -74       0.0      32.3      74.5      8.31
   06/13/2020 21:50      66.2      65.3       52     47.9      0.00     17.48      81.9     0.49      1012.7     0.6      SE   127   1.8      SE     141     267       -76       0.1      32.3      74.8      8.31
   06/13/2020 21:40      66.4      66.0       52     48.1      0.00     17.48      81.9     0.49      1012.7     1.3       S   177   2.2       S     184     266       -75       0.4      32.2      75.2      8.32
   06/13/2020 21:30      67.3      66.2       51     47.9      0.00     17.48      81.8     0.49      1012.6     0.2     SSW   197   1.5     SSW     198     266       -77       0.2      32.2      75.6      8.32
   06/13/2020 21:20      67.6      67.1       50     47.9      0.00     17.48      81.9     0.49      1012.6     0.5       S   178   2.4      SW     214     266       -79       0.3      32.1      76.0      8.32
   06/13/2020 21:10      67.9      67.4       48     47.4      0.00     17.48      81.9     0.49      1012.6     1.3      SW   215   3.2      SW     224     266       -79       0.5      32.1      76.3      8.32
   06/13/2020 21:00      68.3      67.7       46     46.7      0.00     17.48      81.8     0.49      1012.5     1.5     SSW   213   5.4      SW     220     266       -80       0.7      32.0      76.7      8.32
   06/13/2020 20:50      68.9      68.1       45     46.5      0.00     17.48      81.8     0.49      1012.5     2.0      SW   222   4.2     WSW     239     266       -81       1.0      31.9      77.1      8.32
   06/13/2020 20:40      69.3      68.6       45     46.5      0.00     17.48      81.8     0.49      1012.4     2.9      SW   234   4.8     WSW     244     266       -82       1.8      31.7      77.5      8.33
   06/13/2020 20:30      69.8      69.1       44     46.6      0.00     17.48      81.8     0.49      1012.4     3.5     WSW   239   6.9     WSW     258     266       -82       2.3      31.4      78.1      8.33
   06/13/2020 20:20      70.3      69.7       44     47.0      0.00     17.48      81.7     0.49      1012.4     2.7       W   268   5.7       W     270     266       -83       1.9      31.0      78.6      8.33
   06/13/2020 20:10      70.9      70.1       44     47.5      0.00     17.48      81.8     0.49      1012.4     3.1       W   265   7.9     WSW     243     266       -82       2.2      30.7      79.0      8.34
   06/13/2020 20:00      71.7      70.8       44     48.0      0.00     17.48      81.8     0.49      1012.4     2.4     WNW   296   6.8       W     269     266       -79       1.5      30.4      79.5      8.34
   06/13/2020 19:50      73.2      71.7       42     48.0      0.00     17.48      81.8     0.49      1012.4     2.2      NW   309   6.2       W     269     266       -76       1.3      30.1      80.1      8.34
   06/13/2020 19:40      74.4      73.1       39     47.4      0.00     17.48      81.7     0.49      1012.5     1.5      NW   307   5.3     WNW     294     265       -68       1.3      29.9      80.6      8.35
   06/13/2020 19:30      75.5      74.3       38     47.3      0.00     17.48      81.7     0.49      1012.5     1.9     WNW   302   4.4     NNW     333     265       -48       1.3      29.7      81.0      8.35
   06/13/2020 19:20      75.8      75.3       36     47.2      0.00     17.48      81.7     0.49      1012.4     1.2      NW   314   4.1     NNW     342     265       -31       1.2      29.5      81.3      8.35
   06/13/2020 19:10      75.7      75.2       36     46.5      0.00     17.48      81.6     0.49      1012.3     1.6      NW   304   4.6     WNW     293     264       -10       1.1      29.3      81.8      8.36
   06/13/2020 19:00      75.5      75.2       34     45.0      0.00     17.48      81.6     0.49      1012.3     3.1     WSW   256   6.2     WSW     251     264        13       2.3      29.1      82.1      8.36
   06/13/2020 18:50      75.6      74.9       34     44.9      0.00     17.48      81.6     0.49      1012.2     3.4     WSW   249   7.2       N       2     264        37       2.3      28.7      82.5      8.36
   06/13/2020 18:40      75.3      74.7       34     44.8      0.00     17.48      81.5     0.49      1012.2     4.5     WSW   238   8.3     WSW     254     264        61       3.2      28.3      82.9      8.37
   06/13/2020 18:30      76.4      75.0       34     45.0      0.00     17.48      81.6     0.49      1012.2     4.9      SW   232   9.2       W     262     264        86       3.5      27.8      83.4      8.37
   06/13/2020 18:20      77.2      76.4       33     45.6      0.00     17.48      81.5     0.49      1012.2     4.1     WSW   253   7.4      NW     313     264       110       3.3      27.2      83.8      8.37
   06/13/2020 18:10      77.3      76.8       33     45.7      0.00     17.48      81.5     0.49      1012.2     4.8     WSW   258   7.6     WSW     239     264       135       3.5      26.7      84.1      8.38
   06/13/2020 18:00      77.4      76.7       31     44.4      0.00     17.48      81.5     0.49      1012.3     5.2     WSW   254  10.3     SSW     204     263       160       3.8      26.1      84.4      8.38
   06/13/2020 17:50      78.5      77.2       29     43.1      0.00     17.48      81.3     0.49      1012.3     4.9     WSW   258   9.1       W     267     263       185       3.6      25.5      84.7      8.39
   06/13/2020 17:40      78.3      77.3       28     42.6      0.00     17.48      81.2     0.49      1012.3     4.6       W   262   9.6     WSW     248     263       210       3.4      24.9      85.0      8.39
   06/13/2020 17:30      79.1      77.6       22     36.6      0.00     17.48      81.2     0.49      1012.3     5.9      SW   224  11.2     WSW     251     263       233       4.2      24.3      85.3      8.40
   06/13/2020 17:20      79.1      78.4       21     35.1      0.00     17.48      81.0     0.49      1012.3     5.8      SW   235   8.7       W     275     263       255       4.2      23.6      85.6      8.40
   06/13/2020 17:10      79.3      78.8       21     35.3      0.00     17.48      81.0     0.49      1012.3     6.2     WSW   251   9.5       W     263     263       277       4.3      22.9      85.9      8.41
   06/13/2020 17:00      79.9      78.9       21     35.9      0.00     17.48      80.9     0.49      1012.4     5.0     WSW   246   9.5     WNW     290     263       299       3.9      22.2      86.1      8.41
   06/13/2020 16:50      79.0      78.4       21     35.8      0.00     17.48      80.9     0.49      1012.4     6.1      SW   221   9.3     SSW     209     263       325       4.2      21.5      86.2      8.42
   06/13/2020 16:40      79.2      78.3       25     39.9      0.00     17.48      80.9     0.49      1012.5     6.5      SW   233  11.4     SSW     196     263       347       4.6      20.8      86.4      8.43
   06/13/2020 16:30      80.2      78.4       26     41.6      0.00     17.48      80.8     0.49      1012.6     5.9      SW   219  10.9       W     272     263       367       4.1      20.1      86.5      8.43
   06/13/2020 16:20      79.6      78.4       27     42.1      0.00     17.48      80.8     0.49      1012.7     6.2     WSW   237  10.3     SSW     208     263       389       4.5      19.4      86.6      8.44
   06/13/2020 16:10      80.0      78.9       27     42.6      0.00     17.48      80.8     0.49      1012.8     5.8     WSW   243   9.5     WSW     255     263       408       4.1      18.6      86.7      8.44
   06/13/2020 16:00      80.8      79.3       25     41.1      0.00     17.48      80.0     0.49      1012.8     6.1     WSW   246  11.2       W     270     263       428       4.6      17.9      86.3      8.45
   06/13/2020 15:50      80.8      79.6       24     40.1      0.00     17.48      80.0     0.49      1012.8     6.3      SW   234  12.0     SSW     210     263       445       4.4      17.2      86.3      8.45
   06/13/2020 15:40      81.4      79.7       25     41.2      0.00     17.48      79.8     0.49      1012.8     6.0     SSW   213   9.5      SW     233     263       461       4.3      16.4      86.2      8.46
   06/13/2020 15:30      80.6      79.4       26     41.9      0.00     17.48      79.9     0.49      1012.9     4.3     SSW   197  10.0      SW     236     263       476       3.0      15.7      85.9      8.46
   06/13/2020 15:20      80.6      79.7       26     42.4      0.00     17.48      79.7     0.49      1013.1     5.4      SW   220   9.2      SW     225     263       492       3.7      15.2      85.9      8.47
   06/13/2020 15:10      81.2      79.9       26     42.7      0.00     17.48      79.7     0.49      1013.2     6.2     WSW   251  10.7     WSW     258     263       504       4.5      14.6      85.7      8.47
   06/13/2020 15:00      81.1      79.2       28     44.2      0.00     17.48      79.6     0.49      1013.3     3.8     SSW   193   8.1       S     170     263       518       2.7      13.9      85.3      8.47
   06/13/2020 14:50      80.2      79.5       28     44.2      0.00     17.48      79.5     0.49      1013.4     5.5     WSW   242  10.3      SW     221     263       531       4.1      13.4      85.0      8.48
   06/13/2020 14:40      80.4      79.4       28     43.6      0.00     17.48      79.5     0.49      1013.5     5.6      SW   234  10.1      SW     230     263       544       4.1      12.7      84.7      8.48
   06/13/2020 14:30      80.3      78.8       28     43.4      0.00     17.48      79.5     0.48      1013.6     5.0     WSW   240  10.5     WSW     242     263       553       3.6      12.1      84.4      8.48
   06/13/2020 14:20      80.4      79.9       27     43.5      0.00     17.48      79.4     0.48      1013.7     5.3     WSW   248  12.2     WSW     243     263       561       4.0      11.4      84.2      8.49
   06/13/2020 14:10      81.6      80.1       28     44.3      0.00     17.48      79.3     0.48      1013.9     4.7     WSW   256  10.8     WSW     240     264       569       3.4      10.8      83.7      8.49
   06/13/2020 14:00      81.7      80.1       30     46.3      0.00     17.48      79.3     0.48      1013.9     3.2       W   267   8.4     SSW     210     264       575       2.9      10.2      83.2      8.50
   06/13/2020 13:50      80.2      79.4       31     46.8      0.00     17.48      79.2     0.48      1014.0     4.6       W   263   9.9     WSW     258     264       584       3.8       9.7      82.8      8.50
   06/13/2020 13:40      79.5      78.6       34     48.6      0.00     17.48      79.2     0.48      1014.1     4.1      SW   228   9.0       W     268     263       590       2.9       9.1      82.2      8.50
   06/13/2020 13:30      79.6      78.3       37     50.7      0.00     17.48      79.1     0.48      1014.2     4.0     SSE   167   8.5      SW     230     264       598       2.5       8.6      81.4      8.50
   06/13/2020 13:20      79.5      76.8       39     50.7      0.00     17.48      79.0     0.48      1014.3     3.3      SE   146   7.8      SW     228     263       604       2.2       8.2      80.5      8.51
   06/13/2020 13:10      78.6      77.0       40     51.4      0.00     17.48      79.0     0.48      1014.4     4.2       S   181   8.5     ESE     119     264       609       2.7       7.8      79.9      8.51
   06/13/2020 13:00      77.5      76.1       41     51.4      0.00     17.48      78.9     0.48      1014.5     4.1       E   100  10.6       S     185     264       618       2.0       7.4      78.8      8.51
   06/13/2020 12:50      77.7      76.3       41     51.9      0.00     17.48      78.9     0.48      1014.5     5.2      SE   132  10.5     ESE     119     263       616       2.8       7.0      77.9      8.51
   06/13/2020 12:40      76.8      75.8       43     52.0      0.00     17.48      78.9     0.49      1014.7     5.6     ESE   121   9.8      SE     141     264       622       2.6       6.6      76.8      8.51
   06/13/2020 12:30      77.7      75.8       42     52.2      0.00     17.48      78.8     0.49      1014.7     4.2      SE   130   8.4      SE     141     263       599       2.4       6.1      75.6      8.51
   06/13/2020 12:20      77.7      75.9       43     52.5      0.00     17.48      78.8     0.49      1014.8     2.0     ESE   112   7.0      SE     142     265        68       1.2       5.7      75.2      8.52
   06/13/2020 12:10      79.7      77.7       41     53.0      0.00     17.48      78.8     0.48      1014.9     2.6     ENE    71   5.3      NE      41     263       395       1.7       5.5      75.3      8.52
   06/13/2020 12:00      79.3      77.9       38     51.1      0.00     17.48      78.8     0.48      1015.0     1.9     ENE    76   5.3     ENE      73     263       573       1.1       5.3      74.5      8.52
   06/13/2020 11:50      79.2      77.3       36     49.0      0.00     17.48      78.8     0.48      1015.0     2.5     ESE   106   6.3       E      88     263       572       1.5       5.1      73.6      8.52
   06/13/2020 11:40      79.4      77.9       33     47.4      0.00     17.48      78.8     0.48      1015.1     2.9       W   264   8.0     WSW     242     263       567       2.4       4.8      72.7      8.52
   06/13/2020 11:30      78.8      76.7       32     45.7      0.00     17.48      78.8     0.48      1015.2     2.0       W   275   6.8      SW     235     263       555       1.8       4.4      71.8      8.52
   06/13/2020 11:20      76.7      75.5       33     44.7      0.00     17.48      78.8     0.48      1015.2     2.2     SSW   191   6.7     SSW     205     263       549       1.8       4.1      71.1      8.52
   06/13/2020 11:10      77.4      76.4       31     43.9      0.00     17.48      78.9     0.48      1015.4     2.1     SSW   206   7.4       S     186     263       536       1.6       3.8      70.3      8.53
   06/13/2020 11:00      77.3      76.3       31     44.1      0.00     17.48      78.9     0.48      1015.3     1.4     NNW   346   4.5       N       0     263       526       0.8       3.6      69.5      8.53
   06/13/2020 10:50      76.9      75.2       32     44.0      0.00     17.48      79.0     0.48      1015.4     1.6       W   274   4.3      SW     222     263       516       1.4       3.4      68.9      8.53
   06/13/2020 10:40      75.1      73.6       33     43.3      0.00     17.48      79.0     0.48      1015.5     2.7       W   259   7.6       S     177     263       506       1.9       3.2      68.2      8.53
   06/13/2020 10:30      75.0      74.3       34     44.6      0.00     17.48      78.9     0.48      1015.4     2.2     SSW   211   5.0     WSW     251     263       489       1.7       2.9      67.6      8.53
   06/13/2020 10:20      74.8      73.8       37     46.3      0.00     17.48      78.8     0.49      1015.2     1.4       N   360   4.1     ENE      60     263       473       0.9       2.6      66.8      8.53
   06/13/2020 10:10      74.3      73.2       38     46.5      0.00     17.48      78.7     0.49      1015.4     1.9     NNE    22   5.7       N       9     264       457       0.8       2.4      66.2      8.53
   06/13/2020 10:00      74.0      73.2       39     46.9      0.00     17.48      78.8     0.49      1015.5     1.3      NE    39   3.5       E      95     264       442       1.0       2.3      65.5      8.53
   06/13/2020 09:50      73.7      72.0       41     47.8      0.00     17.48      78.8     0.49      1015.5     1.3     ENE    63   3.8     SSE     163     264       425       1.1       2.1      64.9      8.53
   06/13/2020 09:40      72.0      70.9       44     48.2      0.00     17.48      78.8     0.49      1015.7     1.4     NNE    26   3.2     NNE      21     264       407       0.8       2.0      64.4      8.53
   06/13/2020 09:30      71.6      70.6       44     48.3      0.00     17.48      79.5     0.49      1015.9     1.6      NE    35   3.9      NE      54     264       390       0.6       1.8      64.1      8.53
   06/13/2020 09:20      71.0      69.9       46     48.9      0.00     17.48      79.8     0.49      1016.0     1.3      NE    50   2.7      NE      54     264       373       0.3       1.7      63.9      8.53
   06/13/2020 09:10      69.9      68.3       48     48.8      0.00     17.48      79.8     0.49      1015.9     1.2      NE    53   2.7      NE      34     266       360       0.4       1.7      63.4      8.53
   06/13/2020 09:00      68.4      67.1       51     49.2      0.00     17.48      79.9     0.49      1016.1     1.2       N     0   2.7     ENE      64     266       360       0.5       1.6      63.1      8.53
   06/13/2020 08:50      66.9      65.8       55     49.7      0.00     17.48      79.9     0.49      1016.1     0.7      NE    39   2.2      NE      43     267       301       0.5       1.5      62.7      8.53
   06/13/2020 08:40      65.8      64.9       57     49.9      0.00     17.48      80.0     0.49      1016.1     0.5      NE    45   2.1     NNE      26     269        -3       0.3       1.5      62.0      8.53
   06/13/2020 08:30      65.0      64.3       60     50.4      0.00     17.48      80.0     0.49      1016.1     0.8     NNW   338   2.8      NE      44     269       -22       0.2       1.4      61.9      8.53
   06/13/2020 08:20      64.4      63.8       61     50.4      0.00     17.48      80.1     0.49      1015.9     1.2     ESE   103   3.0     ENE      68     270       -28       0.5       1.4      61.9      8.53
   06/13/2020 08:10      63.8      63.2       62     50.3      0.00     17.48      80.2     0.49      1015.9     0.7       E    88   2.5     ESE     124     270       -29       0.4       1.3      62.0      8.53
   06/13/2020 08:00      63.4      62.3       65     50.6      0.00     17.48      80.3     0.49      1015.9     0.6       E    97   1.8     ESE     116     270       -31       0.3       1.2      62.0      8.53
   06/13/2020 07:50      62.3      61.7       67     50.9      0.00     17.48      80.3     0.49      1015.9     0.3      NE    49   1.7      SW     220     270       -27       0.0       1.2      62.0      8.53
   06/13/2020 07:40      61.8      61.1       69     51.3      0.00     17.48      80.3     0.49      1015.9     1.4     WSW   256   2.7     WSW     252     270        -7       0.7       1.2      62.0      8.53
   06/13/2020 07:30      61.1      60.3       71     51.5      0.00     17.48      80.4     0.49      1015.9     2.4     WSW   248   3.9     WSW     253     271        24       1.7       1.0      62.0      8.53
   06/13/2020 07:20      60.5      59.8       74     51.7      0.00     17.48      80.5     0.49      1015.9     1.3     WSW   244   4.3     WSW     247     271         4       0.9       0.8      62.0      8.53
   06/13/2020 07:10      60.0      59.4       75     51.7      0.00     17.48      80.5     0.49      1015.7     0.3      SE   137   1.3     SSW     198     279         4       0.0       0.6      62.1      8.53
   06/13/2020 07:00      59.5      58.4       78     52.0      0.00     17.48      80.6     0.49      1015.8     1.5      SW   219   2.8       S     172     294         9       0.9       0.6      62.2      8.53
   06/13/2020 06:50      58.5      56.9       83     52.6      0.00     17.48      80.6     0.49      1015.8     2.2     SSW   207   3.4     SSW     207     303        21       1.2       0.5      62.3      8.53
   06/13/2020 06:40      57.0      55.4       88     52.6      0.00     17.48      80.7     0.49      1015.8     0.7     SSW   206   2.3     SSW     203     314        23       0.1       0.3      62.4      8.53
   06/13/2020 06:30      55.5      54.5       89     51.7      0.00     17.48      80.7     0.49      1015.7     0.0       N     0   0.0       E      92     326        12       0.0       0.2      62.4      8.53
   06/13/2020 06:20      54.6      54.0       89     51.0      0.00     17.48      80.8     0.49      1015.5     0.2      SE   130   0.9      SE     131     333         0       0.0       0.2      62.4      8.53
   06/13/2020 06:10      54.1      53.6       89     50.8      0.00     17.48      80.8     0.49      1015.5     0.4     SSE   168   1.1     SSE     150     360        -3       0.0       0.2      62.4      8.53
   06/13/2020 06:00      53.8      53.5       89     50.6      0.00     17.48      80.9     0.49      1015.5     0.4       S   183   0.9     WSW     252     361       -12       0.0       0.2      62.6      8.53
   06/13/2020 05:50      53.8      53.5       89     50.6      0.00     17.48      81.0     0.49      1015.4     0.4      SE   139   1.2      SE     141     358       -19       0.0       0.2      62.8      8.53
   06/13/2020 05:40      54.0      53.4       89     50.5      0.00     17.48      81.0     0.49      1015.5     0.4       S   178   1.0     SSE     168     352       -23       0.0       0.2      63.1      8.53
   06/13/2020 05:30      54.1      53.5       89     50.7      0.00     17.48      81.0     0.49      1015.6     0.3     SSE   147   1.2      SE     131     350       -25       0.0       0.2      63.2      8.53
   06/13/2020 05:20      54.0      53.5       88     50.4      0.00     17.48      81.1     0.49      1015.5     0.6     SSE   159   1.4       S     177     342       -27       0.1       0.2      63.4      8.53
   06/13/2020 05:10      54.5      53.8       88     50.7      0.00     17.48      81.1     0.49      1015.5     0.7     SSE   163   1.6     SSW     211     337       -27       0.0       0.2      63.6      8.53
   06/13/2020 05:00      54.6      54.2       88     51.1      0.00     17.48      81.1     0.49      1015.5     0.7       S   190   1.8      SW     218     328       -28       0.2       0.2      64.0      8.53
   06/13/2020 04:50      54.7      54.2       88     51.0      0.00     17.48      81.2     0.49      1015.4     0.0      SE   141   0.7      SE     144     322       -31       0.0       0.1      64.2      8.53
   06/13/2020 04:40      54.8      54.5       88     51.1      0.00     17.48      81.3     0.49      1015.4     0.2     SSE   164   0.9       S     187     315       -32       0.0       0.1      64.4      8.53
   06/13/2020 04:30      55.1      54.6       87     51.1      0.00     17.48      81.4     0.49      1015.4     0.8       S   178   1.5       S     181     305       -33       0.1       0.1      64.7      8.53
   06/13/2020 04:20      55.5      54.7       86     51.0      0.00     17.48      81.4     0.49      1015.3     0.4       S   171   1.4       S     180     296       -36       0.0       0.0      64.9      8.53
   06/13/2020 04:10      55.8      55.1       86     51.2      0.00     17.48      81.5     0.49      1015.3     0.5       S   179   1.9       S     186     283       -38       0.0       0.0      65.1      8.53
   06/13/2020 04:00      56.2      55.4       85     51.4      0.00     17.48      81.5     0.49      1015.3     0.2     SSE   166   1.0       S     178     269       -40       0.0       0.0      65.4      8.54
   06/13/2020 03:50      56.2      55.9       85     51.5      0.00     17.48      81.6     0.49      1015.3     0.2       S   178   1.0       S     187     253       -43       0.0       0.0      65.7      8.54
   06/13/2020 03:40      56.7      56.0       84     51.8      0.00     17.48      81.7     0.49      1015.3     0.0     SSW   209   0.6      SW     219     243       -45       0.0       0.0      65.9      8.54
   06/13/2020 03:30      56.8      56.5       84     51.9      0.00     17.48      81.7     0.49      1015.3     0.2       S   191   0.9     SSW     193     236       -48       0.0       0.0      66.2      8.54
   06/13/2020 03:20      56.7      56.3       84     51.7      0.00     17.48      81.6     0.49      1015.3     0.2       S   188   1.0     SSW     196     230       -53       0.0       0.0      66.4      8.54
   06/13/2020 03:10      56.7      56.2       83     51.2      0.00     17.48      81.7     0.49      1015.2     0.0       S   188   1.0       S     188     226       -57       0.0       0.0      66.7      8.54
   06/13/2020 03:00      57.1      56.4       81     51.0      0.00     17.48      81.8     0.49      1015.3     0.0       S   179   0.5       S     185     223       -61       0.0       0.0      66.9      8.54
   06/13/2020 02:50      57.8      57.1       81     51.8      0.00     17.48      81.9     0.49      1015.4     0.3     SSE   167   0.9       S     171     226       -60       0.0       0.0      67.2      8.54
   06/13/2020 02:40      58.0      57.6       81     51.9      0.00     17.48      81.9     0.50      1015.4     0.2      SE   144   0.7      SE     135     247       -62       0.0       0.0      67.5      8.54
   06/13/2020 02:30      58.4      57.9       80     51.9      0.00     17.48      82.0     0.50      1015.4     0.0       N     0   0.0       S     175     251       -64       0.0       0.0      67.8      8.54
   06/13/2020 02:20      58.6      58.1       79     52.0      0.00     17.48      82.0     0.50      1015.4     0.2     SSW   193   0.8       S     183     262       -65       0.0       0.0      68.0      8.54
   06/13/2020 02:10      58.4      57.7       79     51.6      0.00     17.48      82.1     0.50      1015.5     0.3       S   175   1.3       S     191     268       -66       0.0       0.0      68.3      8.54
   06/13/2020 02:00      58.1      57.7       78     51.2      0.00     17.48      82.2     0.50      1015.5     0.2      SE   141   1.1     SSE     150     266       -67       0.0       0.0      68.6      8.54
   06/13/2020 01:50      58.1      57.6       78     51.0      0.00     17.48      82.1     0.50      1015.6     0.5       S   189   1.5     SSW     197     268       -66       0.0       0.0      68.9      8.54
   06/13/2020 01:40      58.5      57.9       78     51.5      0.00     17.48      82.2     0.50      1015.5     0.2      SE   128   0.9      SE     132     269       -67       0.0       0.0      69.2      8.54
   06/13/2020 01:30      58.7      58.3       78     51.8      0.00     17.48      82.3     0.50      1015.5     0.0       N     0   0.0     SSE     158     260       -68       0.0       0.0      69.5      8.55
   06/13/2020 01:20      59.1      58.6       78     52.0      0.00     17.48      82.3     0.50      1015.5     0.2     SSE   164   0.7     SSE     157     264       -68       0.0       0.0      69.8      8.55
   06/13/2020 01:10      59.5      58.9       77     51.9      0.00     17.48      82.4     0.50      1015.5     0.1     SSE   149   0.8     SSE     157     267       -69       0.0       0.0      70.1      8.55
   06/13/2020 01:00      59.8      59.3       75     51.7      0.00     17.48      82.4     0.50      1015.6     0.7     SSW   201   1.8     SSW     200     270       -70       0.0       0.0      70.5      8.55
   06/13/2020 00:50      60.4      59.8       75     52.0      0.00     17.48      82.5     0.50      1015.6     0.2     SSW   212   1.2      SW     222     270       -70       0.0       0.0      70.7      8.55
   06/13/2020 00:40      60.6      60.0       73     51.8      0.00     17.48      82.5     0.50      1015.7     0.1       E    81   0.8      NE      37     270       -71       0.0       0.0      71.0      8.55
   06/13/2020 00:30      61.1      60.6       72     51.9      0.00     17.48      82.5     0.50      1015.8     0.2       S   184   1.6       S     184     270       -72       0.1       0.0      71.3      8.55
   06/13/2020 00:20      61.4      60.9       71     51.8      0.00     17.48      82.6     0.50      1015.8     0.4     ESE   102   1.5      SE     129     270       -73       0.0       0.0      71.7      8.55
   06/13/2020 00:10      61.9      61.3       70     51.7      0.00     17.48      82.7     0.50      1015.7     0.2      SE   125   1.3     ESE     110     270       -73       0.0       0.0      72.0      8.55
   06/13/2020 00:00      62.3      61.8       69     51.9      0.00     17.48      82.7     0.50      1015.7     0.6     ESE   114   1.7     ENE      60     270       -73       0.0      27.1      72.3      8.55
   06/12/2020 23:50      62.5      62.2       69     52.0      0.00     17.48      82.7     0.50      1015.7     0.7     ESE   112   1.7       E      99     270       -73       0.0      27.1      72.5      8.55
   06/12/2020 23:40      62.5      62.1       69     51.8      0.00     17.48      82.8     0.50      1015.8     0.7      SE   138   1.5     ESE     119     269       -72       0.0      27.1      72.9      8.56
   06/12/2020 23:30      62.7      62.4       68     51.9      0.00     17.48      82.8     0.50      1015.9     0.4     SSE   168   1.2      SE     145     269       -72       0.0      27.1      73.1      8.56
   06/12/2020 23:20      63.4      62.5       66     51.6      0.00     17.48      82.8     0.50      1015.9     0.2     SSE   156   0.9      SE     137     269       -73       0.0      27.1      73.5      8.56
   06/12/2020 23:10      63.5      63.1       66     51.7      0.00     17.48      82.8     0.50      1016.0     0.3       E   100   2.1     NNE      23     269       -75       0.0      27.1      73.7      8.56
   06/12/2020 23:00      63.3      62.9       65     51.2      0.00     17.48      82.9     0.50      1016.0     0.1      SE   130   1.2     NNE      30     269       -74       0.0      27.1      74.1      8.56
   06/12/2020 22:50      63.7      63.2       62     50.2      0.00     17.48      82.9     0.50      1016.0     0.0       N     0   0.0     SSE     159     268       -74       0.0      27.1      74.4      8.56
   06/12/2020 22:40      64.5      63.6       60     49.7      0.00     17.48      82.9     0.50      1016.1     0.4     SSE   163   1.6       S     191     268       -76       0.0      27.1      74.8      8.56
   06/12/2020 22:30      64.6      64.2       59     49.7      0.00     17.48      82.9     0.50      1016.1     0.7      SE   145   1.5     SSW     206     267       -76       0.2      27.1      75.1      8.56
   06/12/2020 22:20      65.3      64.5       58     49.9      0.00     17.48      83.0     0.50      1016.2     1.4       S   182   3.0     SSW     207     267       -76       0.4      27.1      75.5      8.57
   06/12/2020 22:10      65.9      65.0       58     50.3      0.00     17.48      82.9     0.50      1016.3     0.9     SSW   212   2.3     WSW     239     267       -76       0.1      27.0      75.9      8.57
   06/12/2020 22:00      66.7      65.8       57     50.5      0.00     17.48      83.0     0.50      1016.3     0.2     SSW   194   1.0       S     188     267       -78       0.0      27.0      76.4      8.57
   06/12/2020 21:50      67.4      66.5       53     49.1      0.00     17.48      83.0     0.50      1016.3     0.1     SSE   156   1.2      NE      54     267       -79       0.0      27.0      76.7      8.57
   06/12/2020 21:40      68.1      67.4       49     48.1      0.00     17.48      83.0     0.50      1016.2     1.3     SSW   206   2.3     SSW     207     266       -78       0.3      27.0      77.0      8.57
   06/12/2020 21:30      67.9      67.4       49     47.7      0.00     17.48      83.0     0.50      1016.1     1.3      SW   223   2.6     SSW     205     266       -79       0.3      26.9      77.4      8.57
   06/12/2020 21:20      68.4      67.7       49     47.8      0.00     17.48      83.0     0.50      1016.0     1.2      SW   232   2.5      SW     224     266       -80       0.3      26.9      77.8      8.57
   06/12/2020 21:10      69.7      68.3       47     47.9      0.00     17.48      83.0     0.50      1015.8     0.2       S   175   1.0       S     188     266       -84       0.2      26.8      78.3      8.58
   06/12/2020 21:00      70.9      69.5       45     48.0      0.00     17.48      83.0     0.50      1015.7     0.8       S   181   3.3     WSW     241     266       -88       0.4      26.8      78.7      8.58
   06/12/2020 20:50      71.2      70.8       44     48.2      0.00     17.48      83.1     0.50      1015.7     1.8       W   276   4.6     WSW     257     266       -90       1.1      26.7      79.2      8.58
   06/12/2020 20:40      71.4      70.9       44     48.0      0.00     17.48      83.1     0.50      1015.8     3.6     WSW   241   7.3       W     265     266       -90       2.4      26.5      79.7      8.58
   06/12/2020 20:30      71.9      71.3       42     47.6      0.00     17.48      83.1     0.50      1015.8     4.0     WSW   248   9.8     WSW     255     266       -91       2.7      26.1      80.2      8.59
   06/12/2020 20:20      72.2      71.8       41     47.0      0.00     17.48      83.0     0.50      1015.7     5.0     WSW   244   9.1     WSW     251     265       -92       3.4      25.7      80.8      8.59
   06/12/2020 20:10      73.0      72.2       38     45.7      0.00     17.48      83.1     0.50      1015.7     4.8      SW   225   9.1      SW     235     265       -92       3.3      25.1      81.5      8.60
   06/12/2020 20:00      73.5      72.9       34     43.2      0.00     17.48      83.1     0.50      1015.6     3.5      SW   223   6.7      SW     228     264       -91       2.3      24.6      82.1      8.60
   06/12/2020 19:50      73.9      73.3       30     40.5      0.00     17.48      83.1     0.50      1015.7     4.2      SW   229   8.1       W     265     264       -87       2.8      24.2      82.9      8.60
   06/12/2020 19:40      74.5      73.8       28     39.4      0.00     17.48      83.0     0.50      1015.8     4.3      SW   232   7.4       S     181     264       -79       2.9      23.7      83.5      8.61
   06/12/2020 19:30      76.0      74.4       27     39.1      0.00     17.48      82.9     0.50      1015.9     5.7      SW   224   9.2      SW     223     264       -52       3.8      23.2      84.3      8.61
   06/12/2020 19:20      77.0      76.0       36     47.2      0.00     17.48      83.0     0.50      1015.7     4.5       W   268   7.7     WSW     258     264       -33       3.2      22.6      84.9      8.62
   06/12/2020 19:10      77.6      76.8       34     46.9      0.00     17.48      82.9     0.50      1015.7     2.6     WNW   295   7.2       W     263     264       -15       2.1      22.1      85.5      8.62
   06/12/2020 19:00      78.0      77.3       33     46.5      0.00     17.48      82.9     0.50      1015.5     3.0     WNW   296   7.2     WSW     243     264         4       2.2      21.7      86.1      8.62
   06/12/2020 18:50      78.5      77.8       34     47.8      0.00     17.48      82.9     0.50      1015.5     2.7     WNW   303   7.9     WSW     249     264        30       2.1      21.4      86.6      8.63
   06/12/2020 18:40      78.5      77.8       36     48.9      0.00     17.48      82.8     0.49      1015.5     3.9       W   273   8.3       W     276     264        56       3.0      21.0      87.1      8.63
   06/12/2020 18:30      79.6      77.9       36     49.8      0.00     17.48      82.9     0.49      1015.5     4.3     WSW   259   8.1       W     268     264        82       3.0      20.5      87.5      8.64
   06/12/2020 18:20      79.7      79.2       38     51.5      0.00     17.48      82.7     0.49      1015.6     2.7     WNW   283   6.6     WNW     296     264       106       2.5      20.0      87.9      8.64
   06/12/2020 18:10      79.5      79.1       39     52.5      0.00     17.48      82.6     0.49      1015.6     3.3     WNW   289   6.8     WSW     256     264       131       2.3      19.6      88.2      8.65
   06/12/2020 18:00      79.2      78.4       40     52.2      0.00     17.48      82.2     0.49      1015.4     4.2       W   267  10.2       W     265     264       157       3.4      19.2      88.1      8.65
   06/12/2020 17:50      80.8      79.0       38     52.2      0.00     17.48      81.4     0.49      1015.3     5.8       W   261  10.5       W     264     264       180       4.2      18.6      87.9      8.66
   06/12/2020 17:40      80.3      79.2       37     50.6      0.00     17.48      81.2     0.49      1015.3     3.6      SW   219   9.2     WSW     250     264       202       2.5      17.9      88.0      8.66
   06/12/2020 17:30      80.0      78.4       33     48.0      0.00     17.48      81.2     0.49      1015.4     3.4       S   190   8.2      SW     223     263       227       2.4      17.5      88.0      8.67
   06/12/2020 17:20      79.7      78.6       32     46.6      0.00     17.48      81.0     0.49      1015.4     4.8     SSE   153   9.3      SE     133     263       252       2.3      17.1      88.2      8.67
   06/12/2020 17:10      79.8      79.2       31     46.1      0.00     17.48      81.2     0.49      1015.5     5.7     SSW   198   9.3      SW     217     263       274       3.8      16.7      88.6      8.67
   06/12/2020 17:00      81.3      79.8       30     46.1      0.00     17.48      80.7     0.49      1015.6     5.3     SSW   200   8.6     SSW     206     263       288       3.5      16.1      88.6      8.68
   06/12/2020 16:50      82.4      80.7       28     45.2      0.00     17.48      80.5     0.49      1015.4     5.2     SSW   202   7.9     SSW     210     263       309       3.6      15.5      88.4      8.69
   06/12/2020 16:40      82.9      81.9       27     44.6      0.00     17.48      80.5     0.49      1015.4     4.6       S   184   8.0     SSE     164     263       333       3.1      14.9      88.5      8.69
   06/12/2020 16:30      83.5      82.4       26     44.3      0.00     17.48      80.4     0.49      1015.4     3.5       S   171   6.0       S     188     263       353       2.2      14.4      88.6      8.69
   06/12/2020 16:20      83.6      82.3       25     43.8      0.00     17.48      80.4     0.49      1015.5     4.4      SW   216   8.3      SW     214     263       375       3.0      14.0      88.5      8.70
   06/12/2020 16:10      84.2      82.8       22     41.0      0.00     17.48      80.3     0.49      1015.7     3.8      SW   235   7.1      SW     228     263       396       2.7      13.5      88.5      8.70
   06/12/2020 16:00      84.6      82.7       20     38.0      0.00     17.48      80.4     0.49      1015.8     3.6     SSW   198   6.8     SSW     198     263       416       2.7      13.1      88.7      8.70
   06/12/2020 15:50      83.7      82.4       19     36.8      0.00     17.48      80.3     0.49      1016.0     4.1     SSW   195   8.1       S     186     263       437       2.9      12.6      88.7      8.71
   06/12/2020 15:40      84.2      81.9       21     38.6      0.00     17.48      80.4     0.49      1016.2     5.0      SW   215   9.1      SW     226     263       453       3.4      12.1      88.7      8.71
   06/12/2020 15:30      84.7      83.1       21     40.2      0.00     17.48      80.1     0.49      1016.4     4.4     SSW   210   8.8      SW     230     263       470       3.1      11.6      88.7      8.72
   06/12/2020 15:20      83.9      82.2       24     42.7      0.00     17.48      80.1     0.49      1016.3     3.1     SSE   157   6.8     SSW     198     263       488       2.2      11.0      88.4      8.72
   06/12/2020 15:10      82.5      82.1       26     44.0      0.00     17.48      80.1     0.49      1016.4     5.2       S   183   8.8       S     186     263       506       3.8      10.7      88.2      8.73
   06/12/2020 15:00      83.8      81.9       26     44.2      0.00     17.48      80.0     0.49      1016.6     5.4       S   176   9.4       S     176     263       518       3.9      10.0      88.1      8.73
   06/12/2020 14:50      83.8      82.7       22     40.7      0.00     17.48      79.8     0.49      1016.6     3.4      SE   133   8.6      SW     236     263       526       2.4       9.4      87.9      8.73
   06/12/2020 14:40      83.0      82.3       22     40.1      0.00     17.48      79.8     0.49      1016.6     3.2     ESE   102   7.7      SE     139     263       538       2.0       9.0      87.5      8.74
   06/12/2020 14:30      83.5      82.0       27     45.2      0.00     17.48      79.8     0.49      1016.6     3.7      SE   131   8.8      SE     136     263       551       2.2       8.7      87.0      8.74
   06/12/2020 14:20      84.6      83.5       28     47.8      0.00     17.48      79.8     0.49      1016.7     2.9      SE   131   6.9      SW     227     263       559       2.3       8.3      86.5      8.74
   06/12/2020 14:10      84.6      83.5       27     47.2      0.00     17.48      79.8     0.49      1016.9     3.0       E    79   6.2     ESE     107     263       566       1.8       7.9      86.0      8.74
   06/12/2020 14:00      84.4      82.8       26     44.8      0.00     17.48      79.8     0.49      1017.0     3.5       E   100   7.3       E      98     263       576       1.8       7.6      85.7      8.75
   06/12/2020 13:50      85.2      83.5       26     45.7      0.00     17.48      79.8     0.49      1016.9     3.1       E    88   8.5       E      94     263       590       1.7       7.3      84.9      8.75
   06/12/2020 13:40      84.0      82.7       27     46.3      0.00     17.48      79.7     0.49      1016.9     2.7      SE   133   8.5      SE     127     263       604       1.7       7.0      84.2      8.75
   06/12/2020 13:30      84.1      82.5       27     46.2      0.00     17.48      79.8     0.49      1017.0     2.9       S   181   7.3     SSE     166     263       578       2.2       6.7      83.8      8.75
   06/12/2020 13:20      83.4      81.3       27     45.3      0.00     17.48      80.2     0.49      1017.1     2.6     SSE   162   7.1      SE     125     263       486       1.8       6.4      83.7      8.76
   06/12/2020 13:10      84.1      81.4       26     44.1      0.00     17.48      80.2     0.49      1017.1     4.7     SSE   158  10.1      SE     145     262       555       3.0       6.1      83.0      8.76
   06/12/2020 13:00      84.4      81.9       23     40.9      0.00     17.48      80.1     0.49      1017.2     3.0      SE   141   8.7      SW     214     261       610       1.9       5.6      82.1      8.76
   06/12/2020 12:50      83.3      82.1       20     37.2      0.00     17.48      80.0     0.49      1017.2     4.2      SE   130   8.2     SSE     153     262       609       2.3       5.3      81.1      8.76
   06/12/2020 12:40      82.8      82.1       23     40.8      0.00     17.48      79.9     0.49      1017.3     3.8     ESE   103   6.7      SE     125     263       614       2.1       4.9      80.0      8.77
   06/12/2020 12:30      84.0      82.1       25     43.1      0.00     17.48      79.9     0.49      1017.4     2.6     ENE    75   6.8       E      81     262       568       1.5       4.5      79.3      8.77
   06/12/2020 12:20      84.3      83.0       24     43.1      0.00     17.48      79.8     0.49      1017.4     2.2       E    89   5.8     ENE      76     263       544       1.4       4.3      78.6      8.77
   06/12/2020 12:10      83.7      82.8       26     45.0      0.00     17.48      79.7     0.49      1017.6     1.7     ENE    76   5.8      SE     136     263       584       1.0       4.1      77.7      8.77
   06/12/2020 12:00      83.2      81.5       31     49.0      0.00     17.48      79.7     0.49      1017.6     1.7     NNE    24   6.7     ESE     116     263       604       1.0       3.9      76.9      8.77
   06/12/2020 11:50      81.6      79.3       37     52.0      0.00     17.48      79.6     0.49      1017.8     1.6     NNW   337   3.6     WNW     295     263       595       1.7       3.7      75.7      8.77
   06/12/2020 11:40      79.6      78.6       40     52.7      0.00     17.48      79.6     0.49      1017.9     2.1       N     5   5.4     NNE      30     263       590       0.9       3.4      74.8      8.77
   06/12/2020 11:30      78.9      77.8       41     52.8      0.00     17.48      79.5     0.49      1018.0     1.8       N     7   5.7       N       4     264       515       0.7       3.3      73.8      8.77
   06/12/2020 11:20      78.2      77.4       43     53.2      0.00     17.48      79.4     0.49      1018.0     1.9      NE    37   4.2      NE      36     263       476       0.8       3.2      73.0      8.77
   06/12/2020 11:10      77.8      76.1       44     53.4      0.00     17.48      79.4     0.49      1018.0     2.0     NNE    20   4.4       E      82     263       466       0.9       3.1      72.1      8.77
   06/12/2020 11:00      78.0      76.2       45     54.2      0.00     17.48      79.4     0.49      1018.0     2.1     NNE    29   4.9     ENE      59     265       294       0.9       2.9      71.6      8.77
   06/12/2020 10:50      77.5      76.9       45     54.3      0.00     17.48      79.4     0.49      1018.1     2.3      NE    36   5.5     ENE      59     264       551       1.0       2.7      71.1      8.77
   06/12/2020 10:40      76.9      75.6       48     54.7      0.00     17.48      79.4     0.49      1018.3     1.7     NNE    18   3.7     NNW     345     264       561       0.9       2.6      70.3      8.77
   06/12/2020 10:30      75.9      74.2       49     54.9      0.00     17.48      79.3     0.49      1018.2     1.4     NNE    32   4.7       E      82     264       429       0.9       2.4      69.3      8.77
   06/12/2020 10:20      74.2      72.8       51     54.3      0.00     17.48      79.3     0.49      1018.1     2.1      NE    44   6.9       E      86     265       356       0.9       2.3      68.5      8.77
   06/12/2020 10:10      74.3      72.8       53     55.2      0.00     17.48      79.3     0.49      1018.1     1.6     NNE    12   4.0     NNE      16     264       421       0.4       2.1      67.9      8.77
   06/12/2020 10:00      72.9      71.6       55     55.0      0.00     17.48      79.3     0.49      1018.3     2.6      NE    39   4.6      NE      51     265       482       1.0       2.1      67.3      8.77
   06/12/2020 09:50      71.7      70.2       57     55.0      0.00     17.48      79.3     0.49      1018.4     1.5     NNE    15   2.8      NE      40     266       432       0.7       1.9      66.7      8.77
   06/12/2020 09:40      71.4      70.3       57     55.0      0.00     17.48      79.4     0.49      1018.6     2.0      NE    41   5.3     NNE      30     265       446       1.0       1.8      66.1      8.77
   06/12/2020 09:30      70.6      69.1       60     55.0      0.00     17.48      79.3     0.49      1018.7     1.3     NNW   338   4.1     NNW     331     266       393       0.6       1.6      65.5      8.77
   06/12/2020 09:20      69.3      68.0       62     54.9      0.00     17.48      79.5     0.49      1018.7     1.7       N     2   4.5     NNE      12     266       342       0.6       1.5      65.0      8.78
   06/12/2020 09:10      68.2      67.2       63     54.5      0.00     17.48      79.5     0.49      1018.7     1.4      NE    40   3.6     ENE      77     266       314       0.5       1.4      64.4      8.78
   06/12/2020 09:00      67.2      66.3       64     54.2      0.00     17.48      79.6     0.49      1018.8     1.8     NNE    30   3.4     ENE      73     267       254       0.4       1.3      64.2      8.77
   06/12/2020 08:50      66.3      65.0       66     54.2      0.00     17.48      79.5     0.49      1018.7     1.5     ENE    64   3.5     NNE      33     267       283       0.4       1.3      63.8      8.77
   06/12/2020 08:40      65.3      64.5       67     53.6      0.00     17.48      79.6     0.49      1018.7     1.1      NE    48   3.5     NNE      13     269        32       0.7       1.2      63.3      8.77
   06/12/2020 08:30      64.6      63.8       68     53.4      0.00     17.48      79.7     0.49      1018.6     1.1       E    84   3.9      SE     127     269        21       0.5       1.1      63.1      8.77
   06/12/2020 08:20      63.8      63.1       70     53.8      0.00     17.48      79.7     0.49      1018.5     1.2      NE    38   3.1       E      82     270        17       0.3       1.0      63.0      8.77
   06/12/2020 08:10      63.1      62.0       73     53.7      0.00     17.48      79.7     0.49      1018.4     1.2     NNE    22   2.6     NNE      32     270        24       0.2       0.9      63.0      8.77
   06/12/2020 08:00      62.2      61.2       76     54.0      0.00     17.48      79.7     0.49      1018.4     1.2      NE    45   3.2       E      89     270        10       0.3       0.9      63.0      8.77
   06/12/2020 07:50      61.4      60.7       78     54.2      0.00     17.48      79.8     0.49      1018.3     0.4     NNW   341   2.1     NNW     342     270        -7       0.3       0.9      63.0      8.77
   06/12/2020 07:40      60.7      60.1       80     54.2      0.00     17.48      79.8     0.49      1018.2     0.5     ENE    73   1.7     ESE     107     271         2       0.2       0.8      63.0      8.77
   06/12/2020 07:30      60.1      59.3       82     54.4      0.00     17.48      79.9     0.49      1018.2     0.8     NNE    13   2.3      NE      35     271        13       0.3       0.8      63.0      8.78
   06/12/2020 07:20      59.6      58.5       84     54.1      0.00     17.48      79.9     0.49      1018.3     1.4       E    92   3.2     SSE     154     271        42       0.6       0.7      63.1      8.78
   06/12/2020 07:10      58.8      58.4       85     54.1      0.00     17.48      80.0     0.49      1018.4     1.7       E    99   3.5       E      80     271        38       0.9       0.6      63.0      8.78
   06/12/2020 07:00      58.9      58.4       86     54.5      0.00     17.48      80.1     0.49      1018.4     1.1      NE    35   3.3     ESE     117     271        39       0.4       0.5      62.9      8.78
   06/12/2020 06:50      58.6      57.9       88     54.6      0.00     17.48      80.2     0.49      1018.4     0.2       E    80   2.1     ENE      68     271        25       0.2       0.4      62.8      8.78
   06/12/2020 06:40      58.2      57.6       88     54.3      0.00     17.48      80.2     0.49      1018.5     0.9     ENE    73   3.3       E      91     270        17       0.4       0.4      62.8      8.77
   06/12/2020 06:30      57.6      57.3       88     54.0      0.00     17.48      80.3     0.49      1018.3     1.3       E    80   4.7     ENE      73     270        13       0.6       0.3      62.8      8.77
   06/12/2020 06:20      57.5      56.8       88     53.5      0.00     17.48      80.3     0.49      1018.2     1.1     ENE    76   3.2       S     172     264         8       0.6       0.2      62.8      8.77
   06/12/2020 06:10      57.0      55.4       86     52.1      0.00     17.48      80.4     0.49      1018.2     0.7     ENE    61   2.2       E      82     227        -1       0.2       0.1      62.9      8.77
   06/12/2020 06:00      55.4      54.8       83     50.2      0.00     17.48      80.5     0.49      1018.1     0.1       E    95   1.8       E      89     241       -37       0.0       0.0      63.1      8.77
   06/12/2020 05:50      55.1      54.6       81     49.1      0.00     17.48      80.6     0.49      1018.1     0.0       E    87   1.6       E      89     232       -52       0.0       0.0      63.3      8.78
   06/12/2020 05:40      54.9      54.5       81     48.8      0.00     17.48      80.6     0.50      1018.0     0.0       N     0   0.0     SSE     162     226       -59       0.0       0.0      63.5      8.78
   06/12/2020 05:30      54.8      54.3       79     48.2      0.00     17.48      80.7     0.49      1017.9     0.0      SE   140   0.5      SE     142     246       -64       0.0       0.0      63.7      8.78
   06/12/2020 05:20      54.7      54.3       78     47.7      0.00     17.48      80.7     0.50      1017.9     0.0     SSE   154   0.4     SSE     154     256       -66       0.0       0.0      64.0      8.78
   06/12/2020 05:10      55.1      54.5       77     47.6      0.00     17.48      80.8     0.50      1017.8     0.0     SSE   165   0.7     SSE     167     262       -68       0.0       0.0      64.3      8.78
   06/12/2020 05:00      55.1      54.9       76     47.7      0.00     17.48      80.9     0.50      1017.8     0.6     SSE   160   1.0     SSE     148     260       -66       0.0       0.0      64.6      8.78
   06/12/2020 04:50      55.3      54.8       75     47.4      0.00     17.48      81.0     0.50      1017.7     0.3     SSE   164   1.0      SE     141     261       -67       0.0       0.0      64.8      8.78
   06/12/2020 04:40      55.7      55.3       75     47.5      0.00     17.48      81.0     0.50      1017.5     0.3     SSE   151   1.0      SE     131     263       -68       0.0       0.0      65.1      8.78
   06/12/2020 04:30      55.6      55.3       74     47.2      0.00     17.48      81.1     0.50      1017.4     0.8     SSW   202   1.9       S     191     264       -68       0.0       0.0      65.3      8.78
   06/12/2020 04:20      55.5      55.3       75     47.5      0.00     17.48      81.1     0.50      1017.3     0.1     SSW   195   1.0     SSW     207     264       -67       0.0       0.0      65.6      8.78
   06/12/2020 04:10      55.7      55.3       75     47.8      0.00     17.48      81.2     0.50      1017.1     0.0     SSE   152   0.8     SSE     152     261       -69       0.0       0.0      66.0      8.78
   06/12/2020 04:00      56.2      55.5       74     47.7      0.00     17.48      81.0     0.50      1017.0     0.0     SSE   159   0.0     SSE     157     262       -70       0.0       0.0      66.1      8.78
   06/12/2020 03:50      56.7      56.0       72     47.4      0.00     17.48      80.8     0.50      1017.0     0.0      SE   132   0.6      SE     133     263       -71       0.0       0.0      66.1      8.78
   06/12/2020 03:40      57.1      56.5       72     47.9      0.00     17.48      80.8     0.50      1016.9     1.2      SE   141   2.0     SSE     146     264       -72       0.0       0.0      66.4      8.78
   06/12/2020 03:30      57.1      56.4       72     47.7      0.00     17.48      80.9     0.50      1016.9     1.4      SE   145   2.1     SSE     165     266       -72       0.0       0.0      66.6      8.78
   06/12/2020 03:20      56.8      56.4       71     47.2      0.00     17.48      80.9     0.50      1016.9     0.7      SE   146   1.6      SE     145     266       -71       0.0       0.0      67.0      8.79
   06/12/2020 03:10      57.6      56.7       69     47.2      0.00     17.48      81.0     0.50      1016.9     0.7     SSE   154   1.5      SE     142     266       -71       0.0       0.0      67.3      8.79
   06/12/2020 03:00      57.9      57.6       69     47.8      0.00     17.48      81.1     0.50      1017.0     0.3     SSE   153   1.1      SE     144     266       -70       0.0       0.0      67.5      8.79
   06/12/2020 02:50      59.0      57.9       67     47.5      0.00     17.48      81.1     0.50      1017.1     0.2     SSE   164   0.8     SSE     159     266       -71       0.0       0.0      67.8      8.79
   06/12/2020 02:40      59.7      59.0       67     48.5      0.00     17.48      81.1     0.50      1017.2     0.2     SSE   159   0.9     SSE     161     266       -70       0.0       0.0      68.1      8.79
   06/12/2020 02:30      59.5      58.8       65     47.7      0.00     17.48      81.2     0.50      1017.3     0.5       S   179   1.2       S     176     266       -70       0.0       0.0      68.3      8.79
   06/12/2020 02:20      58.8      57.9       62     45.4      0.00     17.48      81.2     0.50      1017.3     0.3       S   173   1.1     SSE     168     266       -70       0.0       0.0      68.7      8.79
   06/12/2020 02:10      58.2      57.8       61     44.5      0.00     17.48      81.3     0.50      1017.4     0.5     SSE   155   1.6      SE     144     266       -71       0.0       0.0      69.0      8.79
   06/12/2020 02:00      59.1      58.1       59     44.2      0.00     17.48      81.4     0.50      1017.5     0.5     SSE   162   0.9     SSE     161     266       -71       0.0       0.0      69.3      8.79
   06/12/2020 01:50      59.6      58.7       58     44.2      0.00     17.48      81.4     0.50      1017.6     0.4       S   179   1.2     SSW     192     266       -71       0.1       0.0      69.7      8.79
   06/12/2020 01:40      60.1      59.5       56     44.2      0.00     17.48      81.5     0.50      1017.6     0.2     SSE   159   0.7      SE     143     266       -72       0.0       0.0      70.0      8.80
   06/12/2020 01:30      59.7      59.5       56     43.8      0.00     17.48      81.5     0.50      1017.7     0.4     SSE   161   0.9     SSE     158     266       -73       0.0       0.0      70.3      8.80
   06/12/2020 01:20      60.7      59.5       53     43.0      0.00     17.48      81.6     0.50      1017.6     0.3     SSE   166   0.9       S     169     266       -75       0.0       0.0      70.6      8.80
   06/12/2020 01:10      60.9      60.5       52     42.9      0.00     17.48      81.6     0.50      1017.6     0.6     SSE   157   1.0     SSE     148     266       -75       0.0       0.0      71.0      8.80
   06/12/2020 01:00      60.7      60.3       52     42.8      0.00     17.48      81.7     0.50      1017.5     0.3     SSE   159   0.9       S     185     266       -75       0.0       0.0      71.4      8.80
   06/12/2020 00:50      60.6      60.3       52     42.7      0.00     17.48      82.4     0.50      1017.5     0.3     SSW   192   1.2     SSW     196     266       -76       0.0       0.0      72.3      8.80
   06/12/2020 00:40      60.6      60.0       51     42.1      0.00     17.48      82.5     0.50      1017.5     0.4     SSE   160   1.3     SSW     195     266       -76       0.0       0.0      72.7      8.80
   06/12/2020 00:30      61.0      60.0       51     42.3      0.00     17.48      82.5     0.50      1017.4     0.2      SE   143   1.0      SE     134     266       -78       0.0       0.0      73.2      8.80
   06/12/2020 00:20      61.0      60.7       50     42.0      0.00     17.48      82.6     0.50      1017.3     0.8     SSE   154   1.7     SSE     152     266       -79       0.0       0.0      73.5      8.81
   06/12/2020 00:10      61.7      60.8       49     41.8      0.00     17.48      82.6     0.50      1017.3     0.6     SSE   158   1.3     SSE     158     266       -79       0.0       0.0      73.9      8.81
   06/12/2020 00:00      63.0      61.7       48     42.3      0.00     17.48      82.6     0.50      1017.3     0.6     SSE   169   1.2     SSE     156     266       -79       0.0      23.5      74.3      8.81
   06/11/2020 23:50      63.3      62.8       49     43.3      0.00     17.48      82.7     0.50      1017.3     0.7       S   188   1.7     SSW     199     266       -79       0.0      23.5      74.7      8.81
   06/11/2020 23:40      63.5      62.8       49     43.6      0.00     17.48      82.6     0.50      1017.3     0.5     SSE   158   1.4      SE     140     266       -81       0.2      23.5      75.1      8.81
   06/11/2020 23:30      64.0      63.5       48     43.5      0.00     17.48      82.6     0.50      1017.2     0.8     SSW   208   2.0     WSW     250     266       -81       0.0      23.5      75.5      8.81
   06/11/2020 23:20      64.5      63.7       47     43.8      0.00     17.48      82.7     0.50      1017.3     0.4       S   170   1.3       S     171     266       -81       0.0      23.5      76.0      8.81
   06/11/2020 23:10      65.1      64.5       46     43.7      0.00     17.48      82.8     0.50      1017.4     0.0       S   182   0.5       S     182     265       -81       0.0      23.5      76.3      8.82
   06/11/2020 23:00      66.6      65.0       44     43.1      0.00     17.48      82.8     0.50      1017.3     0.4     SSE   163   1.2     SSE     155     265       -82       0.2      23.5      76.7      8.82
   06/11/2020 22:50      66.6      66.1       42     42.8      0.00     17.48      82.8     0.50      1017.3     1.3      SW   216   2.5      SW     218     264       -81       0.2      23.4      77.2      8.82
   06/11/2020 22:40      66.9      66.1       42     42.7      0.00     17.48      82.8     0.50      1017.2     0.9     SSW   207   2.4      SW     218     264       -83       0.0      23.4      77.7      8.82
   06/11/2020 22:30      67.8      66.9       40     42.2      0.00     17.48      82.9     0.50      1017.1     0.3       S   172   1.0       S     173     264       -84       0.1      23.4      78.2      8.83
   06/11/2020 22:20      68.5      67.2       38     41.0      0.00     17.48      82.8     0.50      1017.0     0.5       S   173   1.2     SSE     168     264       -85       0.0      23.4      78.5      8.83
   06/11/2020 22:10      69.7      68.5       36     40.8      0.00     17.48      82.9     0.50      1017.0     0.4       S   177   1.0       S     188     264       -85       0.0      23.4      79.0      8.83
   06/11/2020 22:00      69.9      69.5       35     40.6      0.00     17.48      82.9     0.50      1016.9     0.3       S   179   1.2     SSW     205     264       -85       0.0      23.4      79.4      8.83
   06/11/2020 21:50      71.2      69.7       34     40.5      0.00     17.48      82.9     0.50      1016.7     0.1       S   176   0.6       S     179     264       -87       0.0      23.4      79.9      8.84
   06/11/2020 21:40      72.0      71.2       32     40.3      0.00     17.48      82.9     0.50      1016.6     0.0     SSE   157   0.7       E      88     263       -90       0.0      23.4      80.4      8.84
   06/11/2020 21:30      72.2      71.7       31     39.4      0.00     17.48      82.9     0.50      1016.6     0.2     SSE   166   1.3      SW     222     263       -90       0.0      23.4      80.7      8.84
   06/11/2020 21:20      72.4      72.0       26     35.2      0.00     17.48      82.8     0.50      1016.5     0.0       E   101   1.2       E      99     263       -89       0.0      23.4      81.3      8.84
   06/11/2020 21:10      73.3      72.2       23     33.2      0.00     17.48      82.8     0.50      1016.3     0.7     SSW   193   2.1      SW     236     263       -89       0.0      23.4      81.8      8.85
   06/11/2020 21:00      74.5      73.3       22     32.9      0.00     17.48      82.8     0.50      1016.2     0.4       S   171   1.3      SE     139     262       -92       0.0      23.4      82.3      8.85
   06/11/2020 20:50      74.8      74.2       21     31.8      0.00     17.48      82.9     0.50      1016.0     0.5       S   189   2.0     SSW     206     262       -93       0.2      23.4      82.8      8.85
   06/11/2020 20:40      76.2      74.7       20     31.1      0.00     17.48      82.9     0.50      1015.8     0.5       S   179   2.5       S     189     262       -95       0.1      23.3      83.4      8.86
   06/11/2020 20:30      77.9      75.9       19     31.6      0.00     17.48      82.9     0.50      1015.8     0.2       S   174   1.0     SSE     167     262       -96       0.1      23.3      83.9      8.86
   06/11/2020 20:20      79.9      77.9       17     30.3      0.00     17.48      82.8     0.50      1015.8     0.5     SSE   164   1.6     SSE     155     261      -100       0.2      23.3      84.5      8.87
   06/11/2020 20:10      81.6      79.9       15     29.2      0.00     17.48      82.9     0.50      1015.7     1.7       S   173   3.0      SE     126     261      -101       0.9      23.2      85.0      8.87
   06/11/2020 20:00      82.1      81.3       15     29.4      0.00     17.48      82.9     0.50      1015.6     2.0       S   176   3.6       S     187     261      -101       0.9      23.1      85.5      8.87
   06/11/2020 19:50      83.7      82.1       14     28.9      0.00     17.48      82.9     0.50      1015.6     2.1       S   174   3.9       S     187     261       -99       1.2      22.9      86.0      8.88
   06/11/2020 19:40      85.4      83.8       13     28.9      0.00     17.48      82.9     0.50      1015.5     2.5       S   190   4.3     SSW     197     261       -95       1.4      22.7      86.6      8.88
   06/11/2020 19:30      86.1      85.4       13     29.3      0.00     17.48      82.8     0.50      1015.5     2.2       S   183   3.9       S     183     261       -70       1.3      22.5      87.1      8.89
   06/11/2020 19:20      86.8      86.0       12     28.7      0.00     17.48      82.8     0.50      1015.4     2.3       S   176   4.4     SSW     204     261       -52       1.5      22.3      87.6      8.90
   06/11/2020 19:10      88.0      86.7       12     28.6      0.00     17.48      82.7     0.50      1015.4     2.8       S   171   5.4     SSW     200     261       -31       1.9      22.0      88.0      8.90
   06/11/2020 19:00      88.5      87.9       11     27.4      0.00     17.48      82.7     0.50      1015.3     2.4       S   172   4.3       S     173     261        -8       1.7      21.7      88.5      8.90
   06/11/2020 18:50      89.0      88.1       11     26.9      0.00     17.48      82.7     0.50      1015.3     3.1       S   174   6.0       S     184     261        15       2.3      21.4      89.0      8.91
   06/11/2020 18:40      89.6      88.8       11     26.9      0.00     17.48      82.5     0.50      1015.3     3.3       S   183   5.5     SSE     161     261        36       2.1      21.1      89.4      8.91
   06/11/2020 18:30      89.9      89.6       10     26.4      0.00     17.48      82.5     0.50      1015.3     2.7       S   176   6.1     SSW     197     261        59       1.7      20.7      89.8      8.92
   06/11/2020 18:20      90.1      89.6       10     26.1      0.00     17.48      82.6     0.50      1015.3     3.5       S   175   8.0       S     178     261        84       2.2      20.4      90.2      8.92
   06/11/2020 18:10      90.4      89.8       10     25.9      0.00     17.48      82.5     0.49      1015.3     3.7     SSE   166   6.3      SE     135     261       109       2.4      20.0      90.7      8.93
   06/11/2020 18:00      91.1      90.2       10     27.2      0.00     17.48      82.5     0.49      1015.3     3.9     SSE   161   6.8      SE     130     261       132       2.2      19.6      90.9      8.93
   06/11/2020 17:50      91.0      90.5       11     28.2      0.00     17.48      82.4     0.49      1015.3     4.1     SSE   165   7.2      SE     140     261       156       2.2      19.3      91.3      8.94
   06/11/2020 17:40      91.3      90.9       11     28.6      0.00     17.48      82.4     0.49      1015.3     4.2       S   182   6.8      SW     216     261       181       2.9      18.9      91.6      8.94
   06/11/2020 17:30      91.9      90.8       11     29.5      0.00     17.48      82.4     0.49      1015.3     4.6       S   175   8.5       S     176     261       206       3.2      18.4      91.9      8.95
   06/11/2020 17:20      92.0      91.4       11     29.7      0.00     17.48      82.3     0.49      1015.3     4.6       S   170   6.9      SW     229     261       230       2.9      17.9      92.2      8.95
   06/11/2020 17:10      92.1      91.6       11     29.1      0.00     17.48      82.1     0.49      1015.3     4.5     SSE   162   7.8      SW     222     261       253       2.6      17.4      92.4      8.96
   06/11/2020 17:00      92.5      91.8       10     28.9      0.00     17.48      82.0     0.49      1015.2     4.7       S   176   8.9     SSW     198     261       277       3.2      17.0      92.4      8.97
   06/11/2020 16:50      92.9      92.1       10     28.1      0.00     17.48      81.8     0.49      1015.2     4.3       S   176   7.2     SSW     214     261       300       3.1      16.4      92.7      8.97
   06/11/2020 16:40      93.2      92.1        9     26.7      0.00     17.48      81.6     0.49      1015.2     5.1       S   174   8.2     SSW     192     261       323       3.4      15.9      92.9      8.98
   06/11/2020 16:30      93.5      92.6        9     26.4      0.00     17.48      81.5     0.49      1015.3     4.5     SSE   164   7.0     SSW     192     261       345       2.8      15.3      92.9      8.99
   06/11/2020 16:20      93.6      92.4        9     25.5      0.00     17.48      81.3     0.49      1015.3     5.3       S   169   8.2     SSE     164     261       368       3.3      14.9      92.8      8.99
   06/11/2020 16:10      93.9      92.6        9     26.7      0.00     17.48      81.1     0.49      1015.3     4.5     SSE   158   9.3      SE     125     261       390       2.6      14.3      92.7      9.00
   06/11/2020 16:00      93.6      92.8        9     27.2      0.00     17.48      80.9     0.49      1015.3     5.0     SSE   158   8.2      SE     132     261       410       3.0      13.9      92.7      9.01
   06/11/2020 15:50      93.8      92.8        9     26.9      0.00     17.48      80.8     0.49      1015.4     5.6     SSE   160   9.5     SSW     204     261       427       3.3      13.4      92.6      9.02
   06/11/2020 15:40      93.7      92.8        9     27.0      0.00     17.48      80.6     0.49      1015.4     5.1     SSE   156   9.5     SSW     202     261       444       2.8      12.8      92.4      9.02
   06/11/2020 15:30      94.0      93.2        9     27.4      0.00     17.48      80.3     0.49      1015.5     5.5     SSE   165   9.4     SSW     198     261       459       3.1      12.4      92.2      9.03
   06/11/2020 15:20      95.1      93.9        9     28.0      0.00     17.48      80.2     0.49      1015.6     5.6     SSW   195   8.6     SSE     151     261       473       3.9      11.9      92.0      9.03
   06/11/2020 15:10      94.8      93.9       10     29.1      0.00     17.48      79.9     0.49      1015.5     5.1     SSE   167   9.5     SSW     213     261       491       3.3      11.2      91.7      9.04
   06/11/2020 15:00      94.7      94.0       10     28.6      0.00     17.48      79.8     0.49      1015.6     5.8     SSE   159  10.7     SSE     151     261       504       3.5      10.7      91.4      9.04
   06/11/2020 14:50      94.7      93.8       11     30.8      0.00     17.48      79.6     0.49      1015.6     4.7      SE   141   9.8      SE     142     261       518       2.9      10.1      91.1      9.05
   06/11/2020 14:40      95.0      92.8       11     31.4      0.00     17.48      79.5     0.49      1015.7     6.0      SE   136  11.4     SSE     167     261       530       3.1       9.6      90.8      9.06
   06/11/2020 14:30      94.8      93.7       12     33.4      0.00     17.48      79.2     0.49      1015.7     5.1     SSE   151   9.4      SE     124     261       539       2.5       9.1      90.2      9.06
   06/11/2020 14:20      95.0      93.3       12     33.0      0.00     17.48      78.9     0.49      1015.7     5.7       S   176  11.1       S     175     261       547       3.7       8.7      89.8      9.07
   06/11/2020 14:10      95.0      94.0       12     33.5      0.00     17.48      78.8     0.49      1015.7     4.6       S   170   7.9       S     174     261       552       3.0       8.1      89.4      9.07
   06/11/2020 14:00      95.0      93.4       13     35.2      0.00     17.48      78.7     0.49      1015.7     5.2       S   176  11.5       S     189     262       561       3.5       7.5      88.8      9.08
   06/11/2020 13:50      94.8      93.7       13     36.1      0.00     17.48      78.6     0.49      1015.8     5.1       S   190  10.3     SSW     201     261       569       3.4       7.0      88.2      9.08
   06/11/2020 13:40      94.8      93.6       13     36.5      0.00     17.48      78.4     0.48      1015.8     4.9       S   169   8.4     SSW     208     261       572       3.1       6.4      87.7      9.09
   06/11/2020 13:30      95.0      94.0       14     37.4      0.00     17.48      78.3     0.48      1015.8     4.6       S   181   8.3     SSE     152     261       577       3.1       5.9      86.8      9.09
   06/11/2020 13:20      94.3      93.0       14     37.6      0.00     17.48      78.2     0.48      1015.8     4.6     SSW   199   9.9      SW     221     261       579       3.2       5.4      85.9      9.09
   06/11/2020 13:10      94.3      93.1       14     38.3      0.00     17.48      78.1     0.48      1015.8     4.0     SSE   151   6.3     SSE     164     261       582       2.4       4.8      85.3      9.10
   06/11/2020 13:00      95.5      93.6       15     38.9      0.00     17.48      78.1     0.48      1015.8     3.9      SW   217   7.6      SW     224     261       580       3.0       4.4      84.5      9.10
   06/11/2020 12:50      95.5      93.4       15     39.5      0.00     17.48      78.1     0.48      1015.8     1.7       E    90   6.4       S     182     261       581       1.3       3.9      83.8      9.10
   06/11/2020 12:40      95.2      93.3       16     41.3      0.00     17.48      78.1     0.48      1015.8     3.4       E   100  10.6      SE     136     261       577       2.1       3.7      82.9      9.10
   06/11/2020 12:30      94.9      93.9       17     43.2      0.00     17.48      79.0     0.48      1015.9     2.0     ENE    71   5.0     SSE     148     261       574       1.3       3.4      82.9      9.10
   06/11/2020 12:20      94.2      93.3       18     44.0      0.00     17.48      79.5     0.48      1016.0     2.6     ENE    58   5.2     ENE      57     261       571       1.4       3.2      82.5      9.11
   06/11/2020 12:10      94.5      93.1       18     44.5      0.00     17.48      79.4     0.48      1016.1     2.7     ENE    75   5.7     ESE     113     261       563       1.3       2.9      81.4      9.11
   06/11/2020 12:00      94.8      93.9       18     43.9      0.00     17.48      79.4     0.48      1016.1     1.9     NNE    24   4.9     ENE      57     261       556       0.9       2.7      80.3      9.11
   06/11/2020 11:50      94.2      93.2       17     42.1      0.00     17.48      79.3     0.48      1016.1     2.2     ENE    57   5.0     ENE      56     261       555       1.4       2.6      79.3      9.11
   06/11/2020 11:40      94.1      93.4       16     40.8      0.00     17.48      79.3     0.48      1016.2     1.8      NE    40   4.1     ENE      61     261       546       0.8       2.3      78.1      9.11
   06/11/2020 11:30      93.9      92.2       16     40.7      0.00     17.48      79.2     0.48      1016.2     1.3       N     5   4.2     ENE      58     261       539       0.9       2.2      76.9      9.11
   06/11/2020 11:20      92.8      91.8       17     40.4      0.00     17.48      79.2     0.48      1016.1     1.7       N     9   3.7      NE      40     261       533       1.2       2.0      75.8      9.11
   06/11/2020 11:10      92.0      90.7       17     39.6      0.00     17.48      79.2     0.48      1016.1     1.3       N   357   3.1     NNW     347     261       526       0.6       1.8      74.8      9.11
   06/11/2020 11:00      90.9      89.8       16     38.6      0.00     17.48      79.2     0.49      1016.2     1.5     ENE    59   3.1      NE      40     261       516       1.0       1.7      74.0      9.11
   06/11/2020 10:50      90.1      88.2       17     38.5      0.00     17.48      79.3     0.49      1016.2     1.1     NNE    19   2.7     ESE     105     261       506       0.6       1.6      73.0      9.11
   06/11/2020 10:40      88.9      88.1       18     39.1      0.00     17.48      79.4     0.49      1016.2     1.7      NE    43   3.1     ESE     109     261       494       0.9       1.5      72.2      9.11
   06/11/2020 10:30      88.6      87.0       18     39.5      0.00     17.48      79.5     0.49      1016.2     1.3       N   356   3.3     ENE      58     261       473       1.1       1.3      71.3      9.12
   06/11/2020 10:20      87.1      86.3       19     38.9      0.00     17.48      79.4     0.49      1016.2     1.1     NNW   344   2.6     NNE      25     261       463       0.7       1.2      70.6      9.12
   06/11/2020 10:10      86.6      85.8       18     38.3      0.00     17.48      79.5     0.49      1016.2     1.3      NE    46   2.7       E      87     261       448       0.6       1.0      69.8      9.12
   06/11/2020 10:00      86.1      84.3       18     37.3      0.00     17.48      79.7     0.49      1016.2     0.7     WNW   297   2.2     WSW     238     261       433       0.7       0.9      69.0      9.12
   06/11/2020 09:50      84.7      83.4       18     36.5      0.00     17.48      79.8     0.49      1016.3     1.0      SW   236   2.8      SW     223     261       417       0.7       0.8      68.4      9.12
   06/11/2020 09:40      83.7      82.2       18     35.8      0.00     17.48      79.9     0.49      1016.4     0.9     WSW   246   2.9     WSW     255     261       400       0.8       0.7      67.8      9.12
   06/11/2020 09:30      82.4      81.4       20     36.3      0.00     17.48      79.9     0.49      1016.5     1.0     WNW   285   3.0       W     269     261       386       0.9       0.6      67.1      9.12
   06/11/2020 09:20      81.7      80.6       20     36.7      0.00     17.48      80.0     0.49      1016.5     0.8     NNW   343   2.6     NNW     336     261       370       0.5       0.4      66.4      9.12
   06/11/2020 09:10      80.7      79.3       20     35.9      0.00     17.48      79.9     0.49      1016.5     0.6     NNW   347   2.3      NE      52     261       358       0.3       0.3      65.9      9.12
   06/11/2020 09:00      79.3      77.0       23     37.1      0.00     17.48      80.0     0.49      1016.6     0.4       E    91   1.8       E      94     262       359       0.2       0.3      65.4      9.12
   06/11/2020 08:50      76.9      74.8       24     36.3      0.00     17.48      80.1     0.49      1016.6     0.8     ENE    71   2.2     NNE      31     263       305       0.2       0.3      64.8      9.12
   06/11/2020 08:40      75.0      73.5       25     36.2      0.00     17.48      80.1     0.49      1016.5     0.9     ENE    73   2.5     ENE      62     264       -14       0.3       0.2      64.2      9.12
   06/11/2020 08:30      73.5      72.5       29     38.5      0.00     17.48      80.1     0.49      1016.6     0.3       N     7   1.9       N     354     264       -21       0.0       0.2      64.0      9.12
   06/11/2020 08:20      72.5      71.5       31     39.9      0.00     17.48      79.8     0.49      1016.6     0.0     WNW   299   0.9     WNW     285     264       -32       0.0       0.2      63.7      9.12
   06/11/2020 08:10      71.5      70.6       34     41.2      0.00     17.48      79.5     0.49      1016.6     0.4     NNE    15   1.1      NE      35     265       -29       0.0       0.2      63.4      9.12
   06/11/2020 08:00      70.6      69.6       35     41.5      0.00     17.48      79.5     0.49      1016.5     0.6     NNE    30   2.0     NNE      24     265       -27       0.0       0.2      63.4      9.12
   06/11/2020 07:50      69.7      68.0       36     41.1      0.00     17.48      79.6     0.49      1016.4     0.8     WSW   237   1.9       W     269     265       -22       0.3       0.2      63.4      9.12
   06/11/2020 07:40      68.1      66.3       42     43.6      0.00     17.48      79.6     0.49      1016.4     0.3     NNE    12   1.9     WSW     251     266        -0       0.0       0.1      63.3      9.12
   06/11/2020 07:30      66.5      64.8       46     44.5      0.00     17.48      79.6     0.49      1016.3     0.0       N     0   0.0     ESE     112     266        -2       0.0       0.1      63.3      9.12
   06/11/2020 07:20      64.8      63.7       47     43.6      0.00     17.48      79.8     0.49      1016.3     0.0       N     0   0.0     NNE      17     266       -34       0.0       0.1      63.3      9.12
   06/11/2020 07:10      63.9      62.8       47     43.0      0.00     17.48      79.8     0.49      1016.2     0.1     NNE    18   0.8     NNE      18     266       -35       0.0       0.1      63.4      9.12
   06/11/2020 07:00      62.8      61.4       49     42.5      0.00     17.48      79.9     0.49      1016.1     0.6      SE   129   1.1      SE     136     266       -39       0.0       0.1      63.4      9.12
   06/11/2020 06:50      61.6      60.5       50     42.1      0.00     17.48      80.0     0.49      1016.0     0.2      SE   135   1.4      SE     134     266       -42       0.0       0.1      63.5      9.12
   06/11/2020 06:40      60.6      59.5       50     41.7      0.00     17.48      80.1     0.49      1015.9     0.6     ESE   121   1.7      SE     136     266       -44       0.0       0.1      63.6      9.12
   06/11/2020 06:30      59.6      58.6       50     40.7      0.00     17.48      80.1     0.49      1015.9     0.3     SSE   152   1.1      SE     137     266       -49       0.0       0.1      63.7      9.13
   06/11/2020 06:20      58.8      58.0       51     40.3      0.00     17.48      80.1     0.49      1015.8     0.2     SSE   167   0.9     SSE     167     266       -52       0.0       0.1      63.8      9.13
   06/11/2020 06:10      58.2      57.9       52     40.6      0.00     17.48      80.2     0.49      1015.7     0.0       N     0   0.0     SSE     164     266       -49       0.0       0.1      63.9      9.13
   06/11/2020 06:00      58.1      57.6       52     40.5      0.00     17.48      80.2     0.49      1015.6     0.4     SSE   166   0.8     SSE     166     266       -55       0.0       0.1      64.1      9.13
   06/11/2020 05:50      58.1      57.7       49     39.1      0.00     17.48      80.3     0.50      1015.6     0.5      SE   145   1.0      SE     140     266       -59       0.0       0.1      64.3      9.13
   06/11/2020 05:40      58.3      57.8       47     38.0      0.00     17.48      80.3     0.50      1015.5     0.1      SW   217   1.1      SE     140     266       -60       0.0       0.1      64.6      9.13
   06/11/2020 05:30      58.2      57.8       49     39.0      0.00     17.48      80.4     0.50      1015.4     0.3     SSW   210   1.3      SW     217     266       -61       0.1       0.1      64.9      9.13
   06/11/2020 05:20      58.1      57.3       49     38.5      0.00     17.48      80.5     0.50      1015.4     0.3     SSE   158   1.2     SSE     164     266       -62       0.0       0.0      65.2      9.13
   06/11/2020 05:10      57.9      57.3       52     40.0      0.00     17.48      80.5     0.50      1015.4     0.1     SSE   153   0.9     SSE     149     266       -63       0.0       0.0      65.4      9.13
   06/11/2020 05:00      58.6      57.9       51     40.1      0.00     17.48      80.6     0.50      1015.4     0.3     SSE   163   1.4      SE     143     266       -64       0.0       0.0      65.7      9.13
   06/11/2020 04:50      59.2      58.3       48     39.1      0.00     17.48      80.6     0.50      1015.4     0.4      SE   146   1.0      SE     138     266       -64       0.0       0.0      65.9      9.14
   06/11/2020 04:40      59.4      58.9       46     38.6      0.00     17.48      80.7     0.50      1015.4     0.4       S   170   1.0     SSW     196     266       -64       0.0       0.0      66.2      9.14
   06/11/2020 04:30      59.3      58.7       47     38.6      0.00     17.48      80.8     0.50      1015.3     0.2     SSE   165   0.9     SSE     168     266       -65       0.0       0.0      66.5      9.14
   06/11/2020 04:20      59.5      59.0       46     38.5      0.00     17.48      80.8     0.50      1015.3     0.3     SSE   150   1.1      SE     143     266       -65       0.0       0.0      66.8      9.14
   06/11/2020 04:10      59.5      58.9       46     38.5      0.00     17.48      80.9     0.50      1015.2     0.0       S   174   0.5     SSW     210     266       -65       0.0       0.0      67.0      9.14
   06/11/2020 04:00      60.1      59.4       47     39.2      0.00     17.48      80.9     0.50      1015.2     0.3     SSE   157   0.9      SE     139     266       -66       0.0       0.0      67.3      9.14
   06/11/2020 03:50      60.5      59.9       45     38.7      0.00     17.48      80.9     0.50      1015.2     0.7     SSE   153   1.4     SSE     155     266       -65       0.0       0.0      67.5      9.14
   06/11/2020 03:40      60.9      59.9       45     38.7      0.00     17.48      80.9     0.50      1015.3     0.3     SSE   167   1.2       S     172     266       -66       0.0       0.0      67.8      9.14
   06/11/2020 03:30      61.1      60.6       44     38.9      0.00     17.48      81.1     0.50      1015.2     0.2     SSE   153   1.0     SSE     152     266       -65       0.0       0.0      68.1      9.15
   06/11/2020 03:20      61.4      60.9       45     39.4      0.00     17.48      81.1     0.50      1015.2     0.2      SE   142   1.0     SSE     150     266       -66       0.0       0.0      68.4      9.15
   06/11/2020 03:10      61.5      61.0       46     40.6      0.00     17.48      81.1     0.50      1015.1     0.6     SSE   151   1.3      SE     143     266       -67       0.0       0.0      68.6      9.15
   06/11/2020 03:00      61.5      60.8       48     41.4      0.00     17.48      81.2     0.50      1015.1     0.5     SSE   147   1.4      SE     137     266       -68       0.0       0.0      69.0      9.15
   06/11/2020 02:50      61.9      60.9       47     40.9      0.00     17.48      81.2     0.50      1015.2     0.9     SSE   160   1.6      SE     138     266       -68       0.1       0.0      69.2      9.15
   06/11/2020 02:40      62.4      61.7       42     38.9      0.00     17.48      81.2     0.50      1015.2     0.4     SSE   155   1.5      SE     141     265       -68       0.0       0.0      69.5      9.15
   06/11/2020 02:30      62.8      62.2       42     38.9      0.00     17.48      81.3     0.50      1015.3     0.2      SE   145   0.8      SE     146     265       -67       0.0       0.0      69.8      9.15
   06/11/2020 02:20      62.8      62.3       42     39.0      0.00     17.48      81.4     0.50      1015.3     0.1     SSE   149   0.7      SE     145     265       -68       0.0       0.0      70.2      9.16
   06/11/2020 02:10      63.1      62.6       41     38.6      0.00     17.48      81.4     0.50      1015.3     0.1     SSE   149   0.7      SE     145     265       -68       0.0       0.0      70.5      9.16
   06/11/2020 02:00      63.0      62.4       41     38.8      0.00     17.48      81.5     0.50      1015.3     0.2     SSE   158   0.7     SSE     163     265       -69       0.0       0.0      70.8      9.16
   06/11/2020 01:50      63.8      62.8       39     37.9      0.00     17.48      81.6     0.50      1015.4     0.3     SSE   154   1.2      SE     145     265       -70       0.0       0.0      71.1      9.16
   06/11/2020 01:40      63.9      63.2       39     37.9      0.00     17.48      81.6     0.50      1015.4     0.5      SE   141   1.3     SSE     154     264       -70       0.0       0.0      71.4      9.16
   06/11/2020 01:30      64.1      63.3       38     37.8      0.00     17.48      81.6     0.50      1015.4     0.5     SSE   158   1.2     SSE     147     264       -71       0.0       0.0      71.7      9.16
   06/11/2020 01:20      64.1      63.5       38     37.6      0.00     17.48      81.6     0.50      1015.5     0.8     SSE   160   1.3      SE     142     264       -72       0.0       0.0      72.1      9.17
   06/11/2020 01:10      65.3      63.7       36     37.2      0.00     17.48      81.7     0.50      1015.5     0.8     SSE   167   1.6     SSE     152     264       -74       0.1       0.0      72.4      9.17
   06/11/2020 01:00      65.7      65.0       34     36.1      0.00     17.48      81.6     0.50      1015.6     0.5     SSE   158   1.4       S     171     264       -73       0.0       0.0      72.7      9.17
   06/11/2020 00:50      65.5      65.2       33     35.4      0.00     17.48      81.7     0.50      1015.5     0.4     SSE   163   1.2     SSE     147     264       -74       0.0       0.0      73.2      9.17
   06/11/2020 00:40      65.6      64.9       33     35.7      0.00     17.48      81.6     0.50      1015.5     0.2       S   189   1.1       S     182     264       -74       0.0       0.0      73.5      9.17
   06/11/2020 00:30      66.7      65.6       33     36.0      0.00     17.48      81.3     0.50      1015.4     0.6     SSE   154   1.6      SE     145     264       -75       0.0       0.0      73.5      9.17
   06/11/2020 00:20      66.9      66.1       32     36.1      0.00     17.48      81.3     0.50      1015.5     0.4       S   169   1.3     SSE     152     264       -75       0.0       0.0      73.9      9.18
   06/11/2020 00:10      66.8      66.2       33     36.6      0.00     17.48      81.3     0.50      1015.4     0.2     SSE   156   0.8      SE     138     264       -77       0.0       0.0      74.3      9.18
   06/11/2020 00:00      68.4      66.7       31     35.8      0.00     17.48      81.4     0.50      1015.4     0.6       S   170   1.2       S     180     264       -76       0.0      25.7      74.6      9.18
   06/10/2020 23:50      69.2      68.4       27     33.4      0.00     17.48      81.3     0.50      1015.4     0.8       S   177   1.6     SSW     192     263       -77       0.2      25.7      75.0      9.18
   06/10/2020 23:40      70.0      69.1       27     33.8      0.00     17.48      81.3     0.50      1015.3     0.1       S   172   1.0       S     188     263       -77       0.1      25.7      75.4      9.18
   06/10/2020 23:30      70.5      69.7       26     33.6      0.00     17.48      81.5     0.50      1015.3     0.8       S   176   2.0     SSW     207     263       -77       0.0      25.7      75.8      9.19
   06/10/2020 23:20      70.6      70.0       26     33.7      0.00     17.48      81.5     0.50      1015.3     0.7     SSW   197   3.1     SSW     212     263       -79       0.2      25.7      76.3      9.19
   06/10/2020 23:10      72.5      70.3       25     33.8      0.00     17.48      81.4     0.50      1015.3     0.2       E    97   1.0       E      92     263       -82       0.1      25.6      76.6      9.19
   06/10/2020 23:00      73.6      72.4       23     33.3      0.00     17.48      81.5     0.50      1015.3     0.7       S   185   2.3     SSW     200     263       -83       0.2      25.6      77.0      9.19
   06/10/2020 22:50      75.3      73.8       21     32.7      0.00     17.48      81.5     0.50      1015.4     0.6       E    89   1.7     SSE     151     262       -87       0.3      25.6      77.3      9.20
   06/10/2020 22:40      76.3      75.2       21     32.4      0.00     17.48      81.5     0.50      1015.4     0.6      SE   144   2.0     SSE     164     262       -88       0.2      25.5      77.8      9.20
   06/10/2020 22:30      77.7      76.3       19     32.0      0.00     17.48      81.5     0.50      1015.3     1.9       S   174   4.0     SSE     153     262       -90       1.0      25.5      78.3      9.20
   06/10/2020 22:20      78.2      77.5       18     31.5      0.00     17.48      81.8     0.50      1015.3     2.4       S   187   3.7       S     190     262       -91       1.2      25.3      78.8      9.20
   06/10/2020 22:10      78.7      78.2       18     31.2      0.00     17.48      82.4     0.50      1015.2     2.6     SSW   194   4.2     SSW     203     262       -91       1.4      25.1      79.9      9.21
   06/10/2020 22:00      79.5      78.5       17     30.9      0.00     17.48      82.5     0.50      1015.1     2.4     SSW   194   3.7     SSW     211     262       -92       1.2      24.9      80.3      9.21
   06/10/2020 21:50      79.9      79.2       17     30.5      0.00     17.48      82.5     0.50      1015.0     2.1     SSW   195   3.6      SW     221     262       -94       1.0      24.7      80.8      9.21
   06/10/2020 21:40      80.4      79.8       16     30.3      0.00     17.48      82.6     0.50      1014.8     3.0     SSW   198   6.2     SSW     195     261       -95       1.6      24.5      81.4      9.22
   06/10/2020 21:30      80.6      80.1       16     29.9      0.00     17.48      82.6     0.50      1014.6     2.6     SSW   201   4.4       S     189     261       -95       1.5      24.3      81.8      9.22
   06/10/2020 21:20      81.3      80.5       15     29.4      0.00     17.48      82.5     0.50      1014.5     2.5     SSW   209   4.8      SW     225     261       -96       1.4      24.0      82.2      9.22
   06/10/2020 21:10      81.6      81.1       15     29.0      0.00     17.48      82.6     0.50      1014.4     3.1     SSW   201   4.5       S     178     261       -97       1.8      23.8      82.7      9.23
   06/10/2020 21:00      82.1      81.5       14     28.6      0.00     17.48      82.6     0.50      1014.2     2.8     SSW   196   5.0       S     181     261       -97       1.3      23.5      83.3      9.23
   06/10/2020 20:50      82.3      81.8       14     28.4      0.00     17.48      82.6     0.50      1014.2     2.6     SSW   201   5.2      SW     225     261       -98       1.4      23.3      83.8      9.23
   06/10/2020 20:40      82.6      81.9       14     27.7      0.00     17.48      82.6     0.50      1014.1     2.6     SSW   199   4.1     SSW     205     261       -98       1.3      23.0      84.3      9.24
   06/10/2020 20:30      83.6      82.4       13     26.9      0.00     17.48      82.6     0.50      1014.0     2.0     SSW   197   3.7       S     190     261       -97       0.9      22.8      84.8      9.24
   06/10/2020 20:20      84.6      83.5       12     25.5      0.00     17.48      82.6     0.50      1013.9     1.7     SSW   194   2.7     SSW     203     261       -98       0.6      22.7      85.4      9.25
   06/10/2020 20:10      85.8      84.5       11     24.2      0.00     17.48      82.6     0.50      1013.9     1.6     SSW   208   2.8     WSW     243     261       -99       0.6      22.6      86.0      9.25
   06/10/2020 20:00      86.8      85.8       10     23.7      0.00     17.48      82.6     0.50      1013.9     2.1      SW   231   5.0      SW     222     261       -99       1.1      22.5      86.5      9.25
   06/10/2020 19:50      88.0      86.7       10     23.6      0.00     17.48      82.5     0.50      1013.8     2.1      SW   226   5.7      SW     231     261       -97       1.0      22.3      87.0      9.26
   06/10/2020 19:40      89.5      88.0        9     23.7      0.00     17.48      82.4     0.50      1013.8     2.2      SW   234   4.3      SW     236     261       -93       1.2      22.1      87.5      9.26
   06/10/2020 19:30      89.9      89.1        9     23.5      0.00     17.48      82.3     0.50      1013.7     2.7     WSW   244   5.1      SW     223     261       -71       1.8      21.9      88.1      9.27
   06/10/2020 19:20      90.9      89.8        9     24.4      0.00     17.48      82.2     0.50      1013.7     3.0     WSW   246   5.5     NNW     333     261       -54       2.2      21.6      88.7      9.28
   06/10/2020 19:10      90.7      90.4       10     26.4      0.00     17.48      82.2     0.50      1013.6     2.3     WNW   286   4.9     WSW     242     261       -33       1.7      21.2      89.2      9.28
   06/10/2020 19:00      91.5      90.4       10     26.5      0.00     17.48      82.0     0.50      1013.5     3.2     WNW   286   8.0       W     276     261       -10       2.0      20.9      89.6      9.29
   06/10/2020 18:50      91.7      91.0       10     26.9      0.00     17.48      81.8     0.50      1013.5     2.3     WNW   296   6.6       N       4     261        13       1.8      20.6      90.0      9.29
   06/10/2020 18:40      92.6      91.7       10     27.4      0.00     17.48      81.6     0.49      1013.4     2.6     WNW   293   8.8     WNW     295     261        35       2.2      20.3      90.4      9.30
   06/10/2020 18:30      93.7      92.4       10     27.6      0.00     17.48      81.5     0.49      1013.3     2.2      NW   315   6.2      NW     307     261        58       1.7      19.9      90.9      9.30
   06/10/2020 18:20      94.2      93.2       10     28.4      0.00     17.48      81.3     0.49      1013.2     1.7      NW   313   6.3       N     355     261        82       1.3      19.6      90.9      9.31
   06/10/2020 18:10      95.0      94.2        9     28.2      0.00     17.48      80.7     0.49      1013.2     3.3       W   276   8.3       W     259     261       106       2.7      19.4      90.5      9.31
   06/10/2020 18:00      95.1      94.6        9     27.3      0.00     17.48      80.7     0.49      1013.3     3.2     WNW   295  10.0       W     279     261       133       2.7      19.0      90.8      9.32
   06/10/2020 17:50      95.9      94.7        8     24.9      0.00     17.48      80.6     0.49      1013.3     5.3     WSW   238   8.7     SSW     196     261       159       3.9      18.5      91.2      9.33
   06/10/2020 17:40      96.0      95.0        7     20.3      0.00     17.48      80.5     0.49      1013.3     3.8     SSW   212   6.7      SW     225     261       181       2.5      17.9      91.8      9.33
   06/10/2020 17:30      95.5      95.0        7     21.1      0.00     17.48      80.4     0.49      1013.4     5.4      SW   218   8.7     SSW     203     261       204       3.7      17.4      92.0      9.34
   06/10/2020 17:20      95.8      94.9        7     20.5      0.00     17.48      80.3     0.49      1013.4     4.9     SSW   203   8.6     SSE     156     261       228       3.4      16.8      92.4      9.35
   06/10/2020 17:10      96.7      95.5        6     20.2      0.00     17.48      80.3     0.49      1013.4     6.1      SW   220  10.7     WSW     237     261       257       4.1      16.3      92.7      9.36
   06/10/2020 17:00      96.9      96.0        6     19.1      0.00     17.48      80.1     0.49      1013.4     5.3      SW   228   8.9      SW     229     261       278       3.6      15.6      93.0      9.36
   06/10/2020 16:50      97.8      95.9        6     19.0      0.00     17.48      80.0     0.49      1013.4     5.5      SW   235  10.5      SW     222     261       299       3.8      15.0      93.2      9.37
   06/10/2020 16:40      98.0      96.6        6     20.6      0.00     17.48      80.0     0.49      1013.4     3.9      SW   220   5.9     WSW     257     261       319       2.9      14.3      93.5      9.38
   06/10/2020 16:30      97.1      96.1        6     20.7      0.00     17.48      80.0     0.49      1013.5     5.1     SSW   208  10.9      SW     225     261       341       3.8      13.8      93.7      9.39
   06/10/2020 16:20      98.1      96.7        6     20.8      0.00     17.48      79.9     0.49      1013.5     4.2     SSW   203   7.5     SSW     196     261       359       2.9      13.2      93.9      9.40
   06/10/2020 16:10      97.7      96.6        6     19.4      0.00     17.48      79.9     0.49      1013.6     4.8       S   184   7.8     SSW     211     261       380       3.1      12.7      94.0      9.40
   06/10/2020 16:00      97.6      96.8        6     19.9      0.00     17.48      79.8     0.49      1013.6     4.9       S   173   7.5      SE     129     261       399       2.9      12.2      94.1      9.41
   06/10/2020 15:50      98.2      97.2        7     21.6      0.00     17.48      79.8     0.49      1013.6     4.8       S   178   9.7       S     182     261       416       3.0      11.8      94.3      9.41
   06/10/2020 15:40      98.6      97.7        6     21.1      0.00     17.48      79.8     0.49      1013.6     3.7     SSE   160   6.8      SE     135     261       430       2.3      11.2      94.2      9.42
   06/10/2020 15:30      98.6      97.4        6     21.2      0.00     17.48      79.6     0.49      1013.6     4.8       S   169   7.4      SE     136     261       446       3.0      10.8      94.2      9.43
   06/10/2020 15:20      98.8      97.2        6     20.8      0.00     17.48      79.7     0.49      1013.7     4.8       S   187   8.7     SSW     207     260       460       3.3      10.3      94.0      9.43
   06/10/2020 15:10      98.5      97.5        6     20.5      0.00     17.48      79.6     0.49      1013.8     4.0     SSW   196   7.2     SSW     213     261       478       2.9       9.8      94.0      9.44
   06/10/2020 15:00      99.4      97.5        6     21.1      0.00     17.48      79.5     0.49      1013.8     4.0     SSE   166   8.5     SSE     154     261       491       2.5       9.3      93.8      9.44
   06/10/2020 14:50      98.9      98.1        6     21.3      0.00     17.48      79.4     0.49      1013.8     3.3       S   176   7.5     SSW     212     261       503       2.4       8.9      93.5      9.45
   06/10/2020 14:40      98.9      98.1        6     21.6      0.00     17.48      79.2     0.49      1013.8     4.2     SSW   200   7.9     WSW     238     261       513       3.2       8.5      93.1      9.46
   06/10/2020 14:30      98.2      97.5        6     21.6      0.00     17.48      79.0     0.48      1013.9     3.8       S   177   7.9       S     176     261       523       2.5       8.0      92.7      9.47
   06/10/2020 14:20      98.6      97.8        7     22.4      0.00     17.48      78.9     0.48      1013.9     3.8     SSE   158   8.0      SE     135     261       533       2.7       7.6      92.5      9.47
   06/10/2020 14:10      98.6      96.8        7     22.7      0.00     17.48      78.7     0.48      1014.0     4.8     SSW   201   9.6     SSW     200     261       543       3.5       7.1      92.2      9.47
   06/10/2020 14:00      98.3      96.9        7     23.7      0.00     17.48      78.6     0.48      1014.1     4.8     SSW   199   9.6     SSW     209     261       551       3.3       6.5      91.7      9.48
   06/10/2020 13:50      99.1      97.7        8     25.9      0.00     17.48      78.4     0.48      1014.1     3.6      SE   140   7.8     SSW     211     261       551       2.5       6.0      91.2      9.48
   06/10/2020 13:40      99.1      98.2        8     26.0      0.00     17.48      78.3     0.48      1014.2     3.2     SSE   169   6.6     SSE     153     261       552       2.3       5.6      90.4      9.49
   06/10/2020 13:30     101.0      97.0        7     25.0      0.00     17.48      78.1     0.48      1014.4     2.9     SSE   148   7.3      SE     130     260       553       1.8       5.2      89.6      9.49
   06/10/2020 13:20     100.9      98.8        8     27.3      0.00     17.48      77.9     0.48      1014.4     1.3     NNE    23   3.4      NE      50     260       557       0.8       4.9      88.7      9.49
   06/10/2020 13:10      99.4      97.4        8     26.1      0.00     17.48      77.1     0.48      1014.5     2.6      NE    45   4.4      NE      46     260       566       1.6       4.7      87.1      9.49
   06/10/2020 13:00      98.9      96.6        8     25.8      0.00     17.48      77.0     0.48      1014.6     2.7      SW   217   6.6     ESE     116     260       574       2.1       4.5      86.1      9.50
   06/10/2020 12:50      99.7      97.8        8     27.1      0.00     17.48      76.8     0.48      1014.7     1.5     ENE    77   4.9      SE     143     260       570       1.2       4.1      85.3      9.50
   06/10/2020 12:40      97.7      96.1        8     25.8      0.00     17.48      76.7     0.48      1014.7     2.0       E    80   4.6      SE     128     260       572       1.4       3.9      84.2      9.50
   06/10/2020 12:30      97.6      96.1        8     26.7      0.00     17.48      76.7     0.48      1014.8     1.8      NE    42   5.1     SSE     148     260       567       1.0       3.7      83.4      9.50
   06/10/2020 12:20      97.2      95.8        8     26.1      0.00     17.48      76.7     0.48      1014.9     2.3     NNE    22   5.9      NE      35     260       566       1.1       3.5      82.5      9.50
   06/10/2020 12:10      96.9      95.9        8     26.3      0.00     17.48      77.9     0.48      1015.1     1.7     ENE    75   3.8      SE     137     260       563       1.4       3.4      83.1      9.50
   06/10/2020 12:00      97.5      96.1        8     26.9      0.00     17.48      77.7     0.48      1015.1     2.1     ENE    67   6.3       E     101     260       555       1.0       3.1      82.1      9.50
   06/10/2020 11:50      97.0      95.0       10     30.0      0.00     17.48      77.7     0.48      1015.2     1.8     NNE    22   4.2      NE      43     260       550       0.9       2.9      81.3      9.50
   06/10/2020 11:40      95.5      94.9       10     29.7      0.00     17.48      77.7     0.48      1015.3     2.1      NE    42   5.2     NNE      17     260       545       0.9       2.8      80.1      9.50
   06/10/2020 11:30      94.9      94.0       11     32.3      0.00     17.48      77.5     0.48      1015.3     1.9      NE    37   3.7     NNE      29     261       538       0.9       2.6      79.1      9.50
   06/10/2020 11:20      94.6      93.5       11     32.4      0.00     17.48      77.5     0.48      1015.4     2.2     NNE    21   4.1     NNE      13     260       530       0.9       2.5      78.2      9.50
   06/10/2020 11:10      94.4      93.9       11     31.2      0.00     17.48      77.3     0.48      1015.4     1.6      NE    47   3.9     ENE      68     261       522       0.8       2.3      77.3      9.50
   06/10/2020 11:00      94.7      93.7       11     31.4      0.00     17.48      77.2     0.48      1015.4     1.2       N    10   4.8     NNE      31     260       513       1.0       2.2      76.2      9.50
   06/10/2020 10:50      94.2      92.5       11     31.9      0.00     17.48      77.1     0.48      1015.4     0.9      NE    50   3.2     ENE      75     260       505       0.5       2.0      75.2      9.50
   06/10/2020 10:40      92.5      91.0       11     30.8      0.00     17.48      77.1     0.48      1015.4     1.2     ENE    63   3.0     NNE      24     260       498       0.7       2.0      74.3      9.50
   06/10/2020 10:30      92.0      90.6       12     31.5      0.00     17.48      77.0     0.48      1015.5     1.1     NNE    15   3.5     ENE      74     260       482       1.1       1.9      72.8      9.53
   06/10/2020 10:20      90.6      89.8       12     30.5      0.00     17.48      77.0     0.48      1015.5     1.1     NNW   348   3.5       N       0     261       463       0.6       1.7      70.0      3.75
   06/10/2020 10:10      90.2      89.2       13     32.0      0.00     17.48      77.0     0.48      1015.6     1.3      NE    47   2.7      SE     143     261       450       0.7       1.6      68.0      3.75
   06/10/2020 10:00      89.5      88.9       13     32.7      0.00     17.48      76.9     0.49      1015.6     1.2     NNE    22   3.2     ENE      69     261       435       0.4       1.4      66.3      3.75
   06/10/2020 09:50      89.7      88.0       13     32.2      0.00     17.48      77.1     0.49      1015.6     1.6       E    83   3.7      NE      46     261       420       0.9       1.4      64.5      3.75
   06/10/2020 09:40      88.4      87.9       13     31.9      0.00     17.48      76.9     0.49      1015.6     1.4     ESE   102   3.0     ENE      64     261       405       0.6       1.2      62.8      3.75
   06/10/2020 09:30      87.9      87.1       15     34.0      0.00     17.48      77.1     0.49      1015.6     1.5     ESE   104   4.7      SE     131     261       390       0.7       1.1      61.3      3.75
   06/10/2020 09:20      87.1      85.5       16     35.2      0.00     17.48      76.9     0.49      1015.6     1.0       E    88   2.7     ENE      69     260       376       0.3       1.0      59.7      3.75
   06/10/2020 09:10      85.7      83.8       20     39.6      0.00     17.48      77.1     0.49      1015.6     1.4     ESE   115   3.2       E      80     261       366       0.9       1.0      58.4      3.75
   06/10/2020 09:00      83.7      81.1       25     42.8      0.00     17.48      77.0     0.49      1015.7     0.6       N    11   1.8     NNE      33     261       369       0.0       0.8      56.9      3.75
   06/10/2020 08:50      81.1      78.8       28     43.5      0.00     17.48      77.1     0.49      1015.7     0.6      NE    41   1.5       E      90     264       323       0.0       0.8      55.7      3.75
   06/10/2020 08:40      78.8      77.5       31     45.0      0.00     17.48      77.2     0.49      1015.7     0.7     NNE    13   1.9       N     354     264       -24       0.0       0.8      54.1      3.75
   06/10/2020 08:30      77.6      76.0       32     44.5      0.00     17.48      77.3     0.49      1015.7     0.4     NNE    19   1.4     NNW     328     265       -26       0.0       0.8      53.7      3.75
   06/10/2020 08:20      76.0      73.4       33     44.1      0.00     17.48      77.1     0.49      1015.7     0.8       N     2   2.3     NNW     346     265       -38       0.0       0.8      53.5      3.75
   06/10/2020 08:10      73.4      71.8       35     43.2      0.00     17.48      77.3     0.49      1015.6     0.0       N     0   0.0     NNE      32     265       -36       0.0       0.8      53.4      3.75
   06/10/2020 08:00      72.0      70.4       35     42.2      0.00     17.48      77.5     0.49      1015.7     0.3     NNE    27   1.2      NE      35     265       -32       0.0       0.8      53.4      3.75
   06/10/2020 07:50      70.4      68.8       37     42.0      0.00     17.48      77.4     0.49      1015.7     0.5     NNE    31   1.3     NNE      27     265       -27       0.0       0.8      53.1      3.75
   06/10/2020 07:40      68.8      67.6       37     40.7      0.00     17.48      77.5     0.49      1015.7     0.2     ENE    59   1.1      NE      55     265        -4       0.0       0.8      53.0      3.75
   06/10/2020 07:30      67.6      65.2       38     40.1      0.00     17.48      77.6     0.49      1015.7     0.8     NNE    23   1.4     NNE      13     266        -6       0.0       0.8      53.0      3.75
   06/10/2020 07:20      65.2      63.4       41     39.8      0.00     17.48      77.7     0.49      1015.6     0.2     NNE    21   1.5     NNE      17     266       -40       0.0       0.8      53.0      3.75
   06/10/2020 07:10      63.5      62.2       42     39.4      0.00     17.48      79.0     0.49      1015.7     0.0     SSW   212   1.0     SSW     212     266       -41       0.0       0.8      53.7      3.75
   06/10/2020 07:00      62.3      61.3       43     39.3      0.00     17.48      78.9     0.49      1015.7     0.5     WSW   245   1.7       N       0     266       -44       0.0       0.8      53.7      3.75
   06/10/2020 06:50      61.4      60.4       44     39.1      0.00     17.48      78.9     0.49      1015.7     0.4      SE   141   2.1       S     185     265       -47       0.2       0.8      53.7      3.75
   06/10/2020 06:40      60.4      58.7       46     38.9      0.00     17.48      78.8     0.49      1015.7     1.5     SSE   162   3.7     SSW     206     266       -48       0.8       0.8      53.7      3.75
   06/10/2020 06:30      58.9      57.9       46     37.6      0.00     17.48      79.2     0.49      1015.6     0.5     SSE   148   2.0     SSE     147     266       -53       0.2       0.6      53.8      3.75
   06/10/2020 06:20      58.0      57.3       46     37.2      0.00     17.48      79.3     0.49      1015.6     0.0     SSW   204   0.6     SSW     210     265       -57       0.0       0.6      53.8      3.75
   06/10/2020 06:10      57.4      56.5       47     36.7      0.00     17.48      79.3     0.49      1015.4     0.2     NNE    20   1.3     NNE      18     265       -51       0.0       0.6      53.9      3.75
   06/10/2020 06:00      56.9      56.4       48     37.0      0.00     17.48      79.2     0.49      1015.4     0.6       S   179   2.3       S     179     266       -56       0.5       0.6      54.1      3.75
   06/10/2020 05:50      57.0      56.7       46     36.4      0.00     17.48      79.2     0.49      1015.4     0.5     SSE   157   1.3       S     172     266       -59       0.0       0.5      54.2      3.75
   06/10/2020 05:40      57.1      56.4       45     35.9      0.00     17.48      79.3     0.49      1015.4     0.4     SSE   164   1.3      SE     139     266       -62       0.0       0.5      54.4      3.75
   06/10/2020 05:30      57.0      56.3       47     36.4      0.00     17.48      79.3     0.49      1015.4     0.6     SSE   158   1.6     SSE     161     266       -63       0.3       0.5      54.6      3.75
   06/10/2020 05:20      57.6      56.8       43     35.2      0.00     17.48      79.4     0.49      1015.4     0.5     SSE   152   1.2     SSE     146     266       -62       0.0       0.4      54.9      3.75
   06/10/2020 05:10      57.6      57.0       43     35.0      0.00     17.48      79.4     0.49      1015.4     0.7       S   182   1.7       S     172     266       -62       0.0       0.4      55.1      3.75
   06/10/2020 05:00      57.3      56.9       45     36.0      0.00     17.48      79.5     0.49      1015.4     0.4       S   170   1.7       S     188     266       -63       0.0       0.4      55.3      3.75
   06/10/2020 04:50      57.3      56.9       45     36.0      0.00     17.48      79.5     0.49      1015.4     0.3     SSW   194   1.2     SSW     208     266       -63       0.1       0.4      55.6      3.75
   06/10/2020 04:40      57.9      57.0       44     36.0      0.00     17.48      79.7     0.49      1015.4     0.3     SSE   154   0.9       S     175     266       -64       0.0       0.4      55.8      3.75
   06/10/2020 04:30      58.1      57.7       42     35.1      0.00     17.48      79.7     0.49      1015.4     0.5     SSE   161   1.1       S     188     265       -63       0.0       0.4      56.0      3.75
   06/10/2020 04:20      58.7      57.9       39     33.7      0.00     17.48      79.8     0.49      1015.4     0.4      SE   145   1.8      SE     141     265       -64       0.0       0.4      56.3      3.75
   06/10/2020 04:10      58.7      58.2       40     34.2      0.00     17.48      79.8     0.49      1015.4     0.5      SW   219   1.6      SW     215     265       -64       0.2       0.4      56.6      3.75
   06/10/2020 04:00      59.0      58.4       40     34.3      0.00     17.48      79.8     0.49      1015.4     0.8       S   172   2.7     SSW     192     265       -64       0.3       0.3      56.8      3.75
   06/10/2020 03:50      59.4      58.9       38     33.5      0.00     17.48      79.9     0.49      1015.5     0.2     SSE   168   1.5       S     183     265       -64       0.0       0.3      57.0      3.75
   06/10/2020 03:40      59.7      59.1       38     33.5      0.00     17.48      80.0     0.49      1015.5     0.2     SSE   168   1.4      SE     140     264       -64       0.0       0.3      57.3      3.75
   06/10/2020 03:30      59.7      59.3       39     34.5      0.00     17.48      80.0     0.49      1015.5     0.2       S   172   0.9     SSW     196     264       -64       0.0       0.3      57.6      3.75
   06/10/2020 03:20      59.8      59.4       38     34.1      0.00     17.48      80.2     0.50      1015.5     0.5     SSE   151   0.9      SE     138     264       -64       0.0       0.3      57.9      3.75
   06/10/2020 03:10      60.0      59.3       37     33.5      0.00     17.48      80.1     0.50      1015.6     0.3     SSE   163   1.1     SSE     158     264       -65       0.0       0.3      58.2      3.75
   06/10/2020 03:00      60.4      59.8       36     32.8      0.00     17.48      80.1     0.50      1015.7     0.4      SE   146   1.2       S     182     264       -66       0.0       0.3      58.4      3.75
   06/10/2020 02:50      60.6      59.9       34     31.5      0.00     17.48      80.1     0.50      1015.7     0.5     SSE   163   1.2      SE     146     264       -67       0.0       0.3      58.7      3.75
   06/10/2020 02:40      61.2      60.6       31     30.3      0.00     17.48      80.2     0.50      1015.8     1.2       S   189   3.1      SW     223     264       -66       0.0       0.3      59.0      3.75
   06/10/2020 02:30      61.1      60.4       32     30.9      0.00     17.48      80.3     0.50      1015.9     0.2     SSW   206   1.1     SSW     196     264       -67       0.0       0.3      59.3      3.75
   06/10/2020 02:20      62.0      61.1       32     31.1      0.00     17.48      80.3     0.50      1015.9     0.0     ESE   114   0.8     ENE      75     264       -67       0.0       0.2      59.6      3.75
   06/10/2020 02:10      62.6      61.9       28     29.0      0.00     17.48      80.4     0.50      1015.9     0.5     SSE   148   1.5       S     172     264       -66       0.1       0.2      59.9      3.75
   06/10/2020 02:00      63.1      62.5       25     26.4      0.00     17.48      80.5     0.50      1016.0     0.4     SSE   147   1.7     SSE     147     264       -66       0.0       0.2      60.2      3.75
   06/10/2020 01:50      63.0      62.5       24     25.6      0.00     17.48      80.5     0.50      1016.1     0.0     WSW   248   0.6     WNW     300     263       -66       0.0       0.2      60.6      3.75
   06/10/2020 01:40      63.0      62.4       25     26.0      0.00     17.48      80.5     0.50      1016.1     0.8     SSE   155   1.6     SSE     146     263       -66       0.2       0.2      61.0      3.75
   06/10/2020 01:30      63.9      62.9       23     25.5      0.00     17.48      80.7     0.50      1016.2     0.5     SSE   162   1.1     SSE     154     263       -67       0.0       0.2      61.1      3.75
   06/10/2020 01:20      63.8      63.3       23     24.9      0.00     17.48      80.6     0.50      1016.3     0.5     SSE   164   1.2      SE     143     263       -67       0.0       0.2      61.5      3.75
   06/10/2020 01:10      63.6      63.0       23     25.1      0.00     17.48      80.8     0.50      1016.3     0.8       S   189   1.4       S     176     263       -67       0.3       0.2      62.0      3.75
   06/10/2020 01:00      63.9      63.4       22     24.6      0.00     17.48      80.7     0.50      1016.3     0.2       S   171   1.1       S     187     263       -68       0.0       0.1      62.3      3.75
   06/10/2020 00:50      64.5      63.7       22     24.9      0.00     17.48      80.7     0.50      1016.4     0.5       S   172   1.4     SSE     147     263       -69       0.0       0.1      62.6      3.75
   06/10/2020 00:40      64.9      64.4       22     25.5      0.00     17.48      80.6     0.50      1016.5     0.7       S   173   2.5     SSE     168     263       -70       0.3       0.0      63.0      3.75
   06/10/2020 00:30      65.0      64.5       22     24.8      0.00     17.48      80.6     0.50      1016.6     0.8       S   178   2.3       S     180     263       -70       0.2       0.0      63.4      3.75
   06/10/2020 00:20      65.3      64.7       21     23.9      0.00     17.48      80.6     0.50      1016.6     0.2     SSW   211   2.4     SSW     209     263       -71       0.0       0.0      63.8      3.75
   06/10/2020 00:10      65.3      64.6       21     24.6      0.00     17.48      80.7     0.50      1016.6     0.1     SSW   195   1.2       S     189     263       -71       0.1       0.0      64.2      3.75
   06/10/2020 00:00      65.6      65.2       22     25.3      0.00     17.48      81.0     0.50      1016.7     0.0     ESE   103   0.3     ESE     102     263       -72       0.0      36.5      64.6      3.75
   06/09/2020 23:50      65.9      65.4       22     25.3      0.00     17.48      80.9     0.50      1016.8     0.3      SE   133   1.4      SE     128     263       -73       0.0      36.5      65.0      3.75
   06/09/2020 23:40      66.7      65.8       21     24.9      0.00     17.48      80.9     0.50      1016.9     0.4       S   170   1.4      SE     127     263       -75       0.0      36.5      65.5      3.75
   06/09/2020 23:30      68.0      66.7       20     25.4      0.00     17.48      80.8     0.50      1017.1     0.8      SE   145   1.7     ESE     118     263       -77       0.1      36.5      65.9      3.75
   06/09/2020 23:20      68.4      67.9       19     24.8      0.00     17.48      80.8     0.50      1017.1     1.4     SSE   158   2.4      SE     138     262       -78       0.8      36.5      66.4      3.75
   06/09/2020 23:10      68.9      68.2       19     25.0      0.00     17.48      80.8     0.50      1017.2     1.2     SSE   158   2.1       S     170     262       -79       1.0      36.4      66.7      3.75
   06/09/2020 23:00      70.5      68.7       19     25.3      0.00     17.48      80.9     0.50      1017.3     1.3     SSE   164   1.9     SSE     168     262       -79       1.0      36.2      67.2      3.75
   06/09/2020 22:50      73.0      70.3       16     23.1      0.00     17.48      80.9     0.50      1017.4     1.3     SSE   163   2.4       S     184     262       -81       0.7      36.0      67.7      3.75
   06/09/2020 22:40      73.5      72.7       14     20.4      0.00     17.48      81.0     0.50      1017.5     1.9     SSW   198   2.8     SSW     198     262       -82       0.8      35.9      68.1      3.75
   06/09/2020 22:30      73.3      72.3       14     20.5      0.00     17.48      80.9     0.50      1017.5     2.2     SSW   207   4.2     WSW     246     261       -83       1.1      35.8      68.6      3.75
   06/09/2020 22:20      72.6      71.4       15     21.4      0.00     17.48      80.9     0.50      1017.5     1.2     SSW   204   2.8      SW     233     262       -84       0.4      35.6      69.0      3.75
   06/09/2020 22:10      74.8      72.5       14     21.2      0.00     17.48      80.9     0.50      1017.5     1.0     SSE   159   2.7      SE     141     261       -87       0.1      35.5      69.7      3.75
   06/09/2020 22:00      75.0      74.2       13     20.0      0.00     17.48      80.7     0.50      1017.4     1.9     SSW   210   4.1     SSW     208     261       -87       0.9      35.5      70.1      3.75
   06/09/2020 21:50      74.3      73.3       13     20.3      0.00     17.48      80.7     0.50      1017.4     2.5     WSW   237   5.0     WSW     255     261       -85       1.0      35.4      70.5      3.75
   06/09/2020 21:40      73.8      73.2       14     21.4      0.00     17.48      80.8     0.50      1017.3     1.0     WSW   244   2.1     SSW     213     262       -87       0.2      35.2      71.0      3.75
   06/09/2020 21:30      74.4      73.3       14     21.4      0.00     17.48      80.6     0.50      1017.2     0.6     SSW   195   2.4     SSE     169     262       -88       0.2      35.2      71.7      3.75
   06/09/2020 21:20      76.3      74.3       13     21.3      0.00     17.48      80.6     0.50      1017.1     0.1      SE   133   0.7      SE     141     261       -93       0.0      35.1      72.2      3.75
   06/09/2020 21:10      77.3      76.1       12     20.8      0.00     17.48      80.6     0.50      1017.0     1.1     SSW   200   3.6     SSW     208     261       -97       0.4      35.1      72.7      3.75
   06/09/2020 21:00      77.7      77.1       12     20.4      0.00     17.48      80.5     0.50      1016.9     2.9     SSW   204   5.0      SW     222     261       -99       1.7      35.0      73.3      3.75
   06/09/2020 20:50      78.2      77.5       11     20.1      0.00     17.48      80.5     0.50      1016.8     2.9     SSW   198   5.1     SSW     209     261      -101       1.8      34.8      73.8      3.75
   06/09/2020 20:40      78.6      78.0       11     19.8      0.00     17.48      80.3     0.50      1016.7     3.0     SSW   203   4.5      SW     230     261      -103       1.6      34.5      74.3      3.75
   06/09/2020 20:30      79.3      78.5       11     19.5      0.00     17.48      80.4     0.50      1016.7     2.9     SSW   203   4.4     SSW     193     261      -104       1.7      34.2      74.8      3.75
   06/09/2020 20:20      80.5      79.3       11     19.7      0.00     17.48      80.4     0.50      1016.7     2.3     SSW   213   5.1     WSW     254     261      -106       1.5      33.9      75.3      3.75
   06/09/2020 20:10      81.6      80.5       10     19.8      0.00     17.48      80.3     0.50      1016.7     4.2      SW   232   6.7     WSW     246     261      -105       2.9      33.7      76.0      3.75
   06/09/2020 20:00      82.6      81.6       10     19.2      0.00     17.48      80.2     0.50      1016.6     4.9     WSW   238   7.4       W     261     261      -103       3.1      33.2      76.7      3.75
   06/09/2020 19:50      83.4      82.4        9     17.8      0.00     17.48      80.2     0.49      1016.5     5.0     WSW   238   8.5     WSW     249     261      -101       3.3      32.7      77.8      3.75
   06/09/2020 19:40      84.9      83.3        7     14.9      0.00     17.48      79.7     0.49      1016.4     4.4     WSW   237   8.0     WSW     248     261       -97       2.9      32.1      78.5      3.75
   06/09/2020 19:30      85.5      84.8        6     12.3      0.00     17.48      79.4     0.49      1016.4     4.5      SW   233   7.3     WSW     256     261       -69       3.1      31.6      79.2      3.75
   06/09/2020 19:20      86.2      85.2        6     11.5      0.00     17.48      79.3     0.49      1016.3     4.9     WSW   236   8.4     SSW     211     261       -52       3.5      31.1      80.1      3.75
   06/09/2020 19:10      86.7      86.0        6     12.9      0.00     17.48      79.3     0.49      1016.2     4.8       W   267  10.5       W     268     261       -29       3.6      30.5      81.0      3.75
   06/09/2020 19:00      87.7      86.7        7     16.3      0.00     17.48      79.2     0.49      1016.0     4.8       W   264   9.5     WSW     238     261        -5       3.8      29.9      81.8      3.75
   06/09/2020 18:50      87.6      86.8        7     14.7      0.00     17.48      79.2     0.49      1015.9     5.4     WSW   244   9.5     WSW     251     261        20       3.9      29.3      82.9      3.75
   06/09/2020 18:40      88.1      87.6        6     13.2      0.00     17.48      79.0     0.49      1015.9     5.4     WSW   241   9.9       W     273     261        44       4.0      28.6      83.6      3.75
   06/09/2020 18:30      88.5      87.5        6     12.3      0.00     17.48      79.0     0.49      1015.8     6.9      SW   234  12.2     WSW     236     261        69       5.1      27.9      84.9      3.75
   06/09/2020 18:20      90.0      88.5        6     14.1      0.00     17.48      79.0     0.49      1015.8     6.2      SW   236  11.8     WSW     238     261        93       4.4      27.1      85.9      3.75
   06/09/2020 18:10      89.9      89.2        7     15.7      0.00     17.48      78.9     0.49      1015.8     4.7     WSW   256   8.3     WSW     247     261       119       3.9      26.4      86.7      3.75
   06/09/2020 18:00      89.9      89.3        6     14.6      0.00     17.48      78.8     0.49      1015.7     6.9     WSW   257  12.2       W     267     261       144       5.0      25.7      87.7      3.75
   06/09/2020 17:50      90.4      89.7        7     16.1      0.00     17.48      78.8     0.49      1015.9     6.7       W   267  13.4     WSW     239     261       168       5.0      24.9      88.9      3.75
   06/09/2020 17:40      91.3      90.3        6     15.6      0.00     17.48      78.7     0.49      1015.8     7.2       W   259  11.2     WSW     251     261       191       4.8      24.1      90.4      3.75
   06/09/2020 17:30      91.8      91.1        6     13.6      0.00     17.48      78.6     0.49      1015.8     5.3      SW   236  11.0      SW     224     261       213       4.0      23.3      91.3      3.75
   06/09/2020 17:20      91.2      90.5        6     13.4      0.00     17.48      78.5     0.49      1015.9     6.3      SW   228  10.1     WSW     253     261       239       4.5      22.6      92.3      3.75
   06/09/2020 17:10      92.4      90.8        5     12.9      0.00     17.48      78.6     0.49      1015.9     6.8     WSW   240  14.5      SW     222     261       261       5.1      21.8      93.3      3.75
   06/09/2020 17:00      91.8      91.2        5     11.3      0.00     17.48      78.6     0.49      1015.9     6.4     SSW   204  10.9     SSW     204     261       283       4.5      21.0      94.5      3.75
   06/09/2020 16:50      92.3      91.3        5     11.7      0.00     17.48      78.5     0.49      1015.9     6.0     SSW   198   9.9       S     189     261       305       4.1      20.2      94.9      3.75
   06/09/2020 16:40      92.6      91.3        5     11.4      0.00     17.48      78.4     0.49      1016.0     6.2     SSW   206  10.5     SSW     203     261       327       4.3      19.6      96.0      3.75
   06/09/2020 16:30      92.6      91.8        5     12.1      0.00     17.48      78.2     0.49      1016.0     6.1     SSW   203  12.3     SSW     203     260       348       4.4      18.8      96.9      3.75
   06/09/2020 16:20      92.7      91.7        5     12.7      0.00     17.48      78.1     0.49      1016.0     6.1     SSW   207  12.2     SSW     197     261       370       4.5      18.1      97.4      3.75
   06/09/2020 16:10      92.1      91.4        5     12.7      0.00     17.48      78.2     0.49      1016.1     6.9     SSW   202  10.3     SSW     209     261       391       4.8      17.4      98.5      3.75
   06/09/2020 16:00      92.6      91.2        5     12.9      0.00     17.48      77.8     0.49      1016.3     7.4     SSW   193  14.1      SE     136     261       409       4.9      16.6      99.2      3.75
   06/09/2020 15:50      93.1      91.8        6     15.0      0.00     17.48      77.7     0.49      1016.4     6.0     SSW   203  13.3      SW     218     261       425       4.0      15.8      99.8      3.75
   06/09/2020 15:40      93.4      92.7        6     15.9      0.00     17.48      77.6     0.49      1016.4     7.7      SW   233  13.2     WSW     243     261       442       5.5      15.1     100.7      3.75
   06/09/2020 15:30      93.9      93.2        6     17.4      0.00     17.48      77.5     0.49      1016.3     6.6      SW   222  11.7      SW     219     261       453       4.8      14.2     101.2      3.75
   06/09/2020 15:20      94.6      93.3        6     18.3      0.00     17.48      77.4     0.49      1016.3     4.9     SSW   196   8.9     WSW     237     261       465       3.3      13.4     101.6      3.75
   06/09/2020 15:10      96.7      94.0        6     17.6      0.00     17.48      77.3     0.49      1016.4     3.7     SSW   195  11.6       S     170     261       471       2.4      12.8     101.5      3.75
   06/09/2020 15:00      96.4      94.7        6     17.0      0.00     17.48      77.2     0.49      1016.5     2.3       W   274   5.5     WSW     242     261       483       2.0      12.4     101.5      3.75
   06/09/2020 14:50      95.4      94.4        5     15.2      0.00     17.48      77.1     0.48      1016.7     2.6     WSW   240   4.9      SW     232     261       496       2.2      12.1     101.3      3.75
   06/09/2020 14:40      96.1      94.5        6     17.3      0.00     17.48      77.0     0.48      1016.9     1.7       W   275   4.7       W     262     261       505       1.3      11.7     101.0      3.75
   06/09/2020 14:30      94.8      93.4        6     16.4      0.00     17.48      76.9     0.48      1017.0     2.0       W   265   4.9      SW     227     261       518       1.5      11.5     100.5      3.75
   06/09/2020 14:20      96.5      94.5        6     17.0      0.00     17.48      76.8     0.48      1017.1     2.3      SE   135   8.0     WSW     240     261       524       1.7      11.3     100.2      3.75
   06/09/2020 14:10      97.0      96.1        6     19.5      0.00     17.48      76.7     0.48      1017.3     1.5     NNE    28   3.9      NE      52     261       530       0.9      11.0      99.7      3.75
   06/09/2020 14:00      96.1      95.0        6     19.1      0.00     17.48      76.6     0.48      1017.4     1.6     NNW   348   4.6       N       8     261       540       0.6      10.8      98.8      3.75
   06/09/2020 13:50      95.1      93.2        6     16.9      0.00     17.48      76.5     0.48      1017.5     1.7     WNW   293   3.7     SSW     201     261       550       1.2      10.7      98.0      3.75
   06/09/2020 13:40      94.2      92.4        6     17.0      0.00     17.48      76.4     0.48      1017.7     1.4       W   262   3.3     WSW     251     260       558       1.6      10.5      97.1      3.75
   06/09/2020 13:30      94.5      92.5        6     14.6      0.00     17.48      76.3     0.48      1017.8     2.8     WSW   248   5.7       W     278     260       564       2.3      10.3      96.0      3.75
   06/09/2020 13:20      94.7      93.3        6     17.5      0.00     17.48      76.3     0.48      1017.9     1.6     NNW   331   3.9      NW     312     260       566       1.4       9.9      94.9      3.75
   06/09/2020 13:10      93.8      92.7        6     16.0      0.00     17.48      76.3     0.48      1018.0     1.8      NW   305   5.7     WSW     251     260       571       1.7       9.7      93.9      3.75
   06/09/2020 13:00      94.5      92.5        6     16.4      0.00     17.48      76.1     0.48      1018.0     2.3     WNW   291   8.2       W     268     260       571       2.1       9.4      92.8      3.75
   06/09/2020 12:50      92.9      91.9        6     14.2      0.00     17.48      76.1     0.48      1018.1     1.9     WNW   296   4.2     NNE      21     260       573       1.1       9.0      91.5      3.75
   06/09/2020 12:40      94.0      92.3        6     14.5      0.00     17.48      76.0     0.48      1018.2     2.3     WSW   255   5.2     WNW     292     260       574       2.1       8.8      90.2      3.75
   06/09/2020 12:30      94.0      92.0        6     16.8      0.00     17.48      76.0     0.48      1018.2     1.2      NW   306   4.3     NNW     327     260       574       1.1       8.5      89.0      3.75
   06/09/2020 12:20      93.1      92.0        6     16.6      0.00     17.48      75.9     0.48      1018.3     2.2      NW   324   6.7      NW     323     260       570       1.3       8.3      87.9      3.75
   06/09/2020 12:10      93.1      92.1        6     16.5      0.00     17.48      75.8     0.48      1018.3     1.8       W   272   5.4       W     261     260       566       1.7       8.1      86.3      3.75
   06/09/2020 12:00      92.9      91.4        6     16.5      0.00     17.48      75.8     0.48      1018.4     1.2      NW   308   3.4       W     274     260       561       1.0       7.8      84.9      3.75
   06/09/2020 11:50      91.8      91.3        6     15.8      0.00     17.48      75.7     0.48      1018.5     1.4      NW   326   4.2     WSW     253     259       555       1.1       7.6      83.1      3.75
   06/09/2020 11:40      91.5      89.3        7     18.6      0.00     17.48      75.9     0.48      1018.6     1.7     WNW   289   6.0      SW     236     260       553       1.8       7.5      81.5      3.75
   06/09/2020 11:30      89.6      88.9        7     18.4      0.00     17.48      75.9     0.48      1018.6     2.9     WSW   254   7.8       W     268     260       547       2.4       7.2      79.6      3.75
   06/09/2020 11:20      89.6      88.7        8     20.8      0.00     17.48      75.9     0.48      1018.7     2.4       W   260   5.6     WNW     292     260       536       2.0       6.8      77.5      3.75
   06/09/2020 11:10      89.8      88.7        8     20.8      0.00     17.48      75.9     0.48      1018.7     1.8      NW   318   4.0     WNW     283     260       528       1.7       6.4      75.6      3.75
   06/09/2020 11:00      90.0      88.5        9     22.9      0.00     17.48      76.1     0.48      1018.7     1.3     NNW   342   3.5     ENE      60     260       514       1.1       6.1      74.2      3.75
   06/09/2020 10:50      88.9      88.1        9     21.2      0.00     17.48      76.1     0.48      1018.7     1.7     WNW   287   5.1     WSW     248     260       506       1.2       6.0      72.8      3.75
   06/09/2020 10:40      88.4      87.0       10     23.6      0.00     17.48      76.1     0.48      1018.7     1.6     NNW   331   5.1     NNE      32     260       494       1.2       5.8      71.0      3.75
   06/09/2020 10:30      88.1      87.5       10     24.0      0.00     17.48      76.2     0.48      1018.7     1.9     NNE    17   5.7     NNE      33     260       481       0.9       5.6      68.7      3.75
   06/09/2020 10:20      87.5      86.6       10     24.8      0.00     17.48      76.3     0.48      1018.7     1.7     NNW   334   4.7     NNE      31     261       469       1.1       5.4      67.0      3.75
   06/09/2020 10:10      86.7      85.1       11     24.5      0.00     17.48      76.3     0.48      1018.8     1.6     NNW   330   4.4       N      10     260       456       0.8       5.2      65.3      3.75
   06/09/2020 10:00      85.8      84.7       10     23.4      0.00     17.48      76.4     0.48      1018.8     2.2       N   359   6.3       N     349     260       440       1.3       5.1      63.7      3.75
   06/09/2020 09:50      85.6      84.5       11     24.3      0.00     17.48      76.5     0.48      1018.9     1.4     NNW   339   5.1     NNW     347     260       423       0.7       4.9      62.5      3.75
   06/09/2020 09:40      84.9      84.4       12     26.2      0.00     17.48      76.5     0.48      1018.9     1.2     NNE    17   4.1       N       0     261       406       0.8       4.8      61.4      3.75
   06/09/2020 09:30      84.4      83.6       13     27.4      0.00     17.48      76.6     0.49      1018.9     1.0     NNE    30   2.9     ESE     102     261       390       0.6       4.7      59.8      3.75
   06/09/2020 09:20      83.9      82.3       14     28.4      0.00     17.48      76.7     0.49      1018.9     0.9     WSW   254   2.8     WNW     286     261       377       0.6       4.6      58.5      3.75
   06/09/2020 09:10      82.6      80.5       15     29.3      0.00     17.48      76.7     0.49      1019.0     0.5       N     4   2.3     NNW     331     261       366       0.3       4.5      57.4      3.75
   06/09/2020 09:00      80.5      78.3       15     28.3      0.00     17.48      76.8     0.49      1018.9     0.5       W   275   2.1     SSW     203     261       368       0.4       4.4      56.4      3.75
   06/09/2020 08:50      78.5      76.7       17     29.1      0.00     17.48      76.8     0.49      1019.0     0.7      NW   318   2.3      NW     308     262       322       0.4       4.3      55.5      3.75
   06/09/2020 08:40      76.7      75.8       17     28.0      0.00     17.48      76.8     0.49      1019.0     0.4       N     8   2.0      NE      48     263       -39       0.0       4.3      54.3      3.75
   06/09/2020 08:30      75.9      75.4       17     27.8      0.00     17.48      76.9     0.49      1019.0     1.0       N   352   4.0     NNE      19     264       -37       0.1       4.3      53.7      3.75
   06/09/2020 08:20      75.5      74.7       17     26.8      0.00     17.48      77.0     0.49      1019.0     1.5       N    11   5.1     NNE      22     264       -51       0.3       4.2      53.6      3.75
   06/09/2020 08:10      74.9      74.3       17     27.2      0.00     17.48      77.1     0.49      1018.9     0.4       W   278   2.1       W     264     264       -48       0.2       4.2      53.5      3.75
   06/09/2020 08:00      74.4      73.9       18     27.8      0.00     17.48      77.2     0.49      1018.8     1.0     WSW   250   2.9     WSW     254     264       -44       0.4       4.2      53.5      3.75
   06/09/2020 07:50      74.0      72.9       19     29.2      0.00     17.48      77.2     0.49      1018.8     1.2     SSE   162   2.7      SE     132     264       -41       0.6       4.1      53.3      3.75
   06/09/2020 07:40      72.9      71.8       23     31.8      0.00     17.48      77.3     0.49      1018.8     0.9     SSE   150   2.0       S     189     264        -8       0.2       4.0      53.1      3.75
   06/09/2020 07:30      72.0      69.2       24     31.4      0.00     17.48      77.3     0.49      1018.7     0.9     SSW   198   3.1     SSW     211     264       -14       0.3       4.0      53.1      3.75
   06/09/2020 07:20      69.3      68.0       27     33.7      0.00     17.48      77.4     0.49      1018.7     0.5     SSE   148   1.5      SE     134     264       -50       0.0       3.9      53.1      3.75
   06/09/2020 07:10      68.4      67.7       28     33.9      0.00     17.48      77.4     0.49      1018.6     1.0     ESE   115   2.2      SE     140     264       -50       0.2       3.9      53.1      3.75
   06/09/2020 07:00      70.0      68.2       24     30.3      0.00     17.48      77.5     0.49      1018.5     2.3       S   176   4.5      SW     217     264       -53       1.0       3.9      53.0      3.75
   06/09/2020 06:50      68.4      63.3       26     29.4      0.00     17.48      77.6     0.49      1018.4     1.9     WSW   255   3.9     WSW     255     265       -51       0.4       3.7      53.0      3.75
   06/09/2020 06:40      63.3      61.4       32     32.4      0.00     17.48      77.5     0.49      1018.4     0.7      SE   136   1.7     SSW     192     265       -53       0.2       3.7      52.9      3.75
   06/09/2020 06:30      61.4      59.7       34     32.0      0.00     17.48      77.0     0.49      1018.4     1.3      SE   135   2.4      SE     139     265       -59       0.3       3.6      52.8      3.75
   06/09/2020 06:20      59.8      58.8       35     31.3      0.00     17.48      77.0     0.49      1018.3     1.2     SSE   154   2.6      SE     140     264       -62       0.6       3.6      52.9      3.75
   06/09/2020 06:10      59.5      58.4       33     29.6      0.00     17.48      77.1     0.49      1018.2     0.6      SE   125   2.4      NE      52     264       -56       0.3       3.5      53.0      3.75
   06/09/2020 06:00      59.0      58.4       32     29.2      0.00     17.48      77.1     0.49      1018.1     1.0     SSE   151   3.0       S     188     265       -61       0.3       3.4      53.2      3.75
   06/09/2020 05:50      59.6      58.7       32     29.6      0.00     17.48      77.2     0.49      1018.1     1.5     SSE   160   3.4      SE     133     266       -65       0.1       3.4      53.3      3.75
   06/09/2020 05:40      60.0      59.2       30     28.1      0.00     17.48      77.2     0.49      1018.1     0.6     SSE   154   1.7      SE     142     265       -67       0.3       3.4      53.5      3.75
   06/09/2020 05:30      59.7      59.0       30     28.1      0.00     17.48      77.3     0.49      1018.0     0.6       S   188   2.3     SSE     163     265       -67       0.1       3.3      53.7      3.75
   06/09/2020 05:20      59.7      59.2       31     28.7      0.00     17.48      77.3     0.49      1017.9     0.9      SE   145   1.9      SE     130     265       -69       0.3       3.3      54.0      3.75
   06/09/2020 05:10      60.5      59.0       30     28.4      0.00     17.48      77.7     0.49      1017.9     0.5      SE   145   1.8       S     171     265       -69       0.2       3.2      54.3      3.75
   06/09/2020 05:00      61.3      59.5       31     29.1      0.00     17.48      78.2     0.49      1017.9     1.2     SSE   167   2.9       S     190     265       -69       0.4       3.2      54.7      3.75
   06/09/2020 04:50      62.5      61.3       28     28.3      0.00     17.48      78.2     0.49      1017.8     1.8     SSE   166   4.3     SSW     191     265       -70       0.8       3.1      54.9      3.75
   06/09/2020 04:40      61.6      60.1       30     28.6      0.00     17.48      78.3     0.49      1017.8     1.1     SSE   166   2.6       S     180     265       -70       0.5       3.0      55.1      3.75
   06/09/2020 04:30      60.4      58.9       32     29.4      0.00     17.48      78.3     0.49      1017.9     1.5     SSE   162   3.2       S     181     265       -69       0.9       2.9      55.3      3.75
   06/09/2020 04:20      59.7      59.0       32     29.6      0.00     17.48      78.3     0.49      1017.8     0.9      SE   132   2.7     SSE     149     265       -72       0.5       2.7      55.6      3.75
   06/09/2020 04:10      59.8      59.4       31     29.1      0.00     17.48      78.4     0.49      1017.8     1.2     SSE   164   2.9       S     179     265       -71       0.5       2.7      55.8      3.75
   06/09/2020 04:00      59.8      59.2       32     29.5      0.00     17.48      78.4     0.49      1017.8     1.0       S   180   3.5       S     178     265       -71       0.6       2.6      56.1      3.75
   06/09/2020 03:50      59.3      58.3       33     29.8      0.00     17.48      78.4     0.49      1017.8     1.3      SE   127   2.2       S     179     265       -70       0.3       2.5      56.3      3.75
   06/09/2020 03:40      59.4      58.4       34     30.6      0.00     17.48      78.5     0.49      1017.8     0.9       S   170   2.3      SE     138     265       -71       0.4       2.4      56.6      3.75
   06/09/2020 03:30      60.0      59.4       33     30.4      0.00     17.48      78.6     0.49      1017.8     1.2     SSE   150   3.4     SSW     193     265       -71       0.7       2.4      56.9      3.75
   06/09/2020 03:20      60.8      59.5       30     29.0      0.00     17.48      78.5     0.49      1017.8     2.0       S   175   3.5       S     185     265       -70       0.6       2.2      57.1      3.75
   06/09/2020 03:10      61.2      59.6       32     30.1      0.00     17.48      78.6     0.49      1017.9     1.1     SSE   159   2.8      SE     132     265       -73       0.4       2.1      57.4      3.75
   06/09/2020 03:00      62.2      60.3       29     29.0      0.00     17.48      78.7     0.49      1017.8     1.4      SE   144   4.2     SSW     210     265       -72       0.7       2.1      57.7      3.75
   06/09/2020 02:50      61.9      60.3       30     29.8      0.00     17.48      78.7     0.49      1017.8     0.9     SSE   161   2.2     SSE     151     265       -73       0.4       2.0      58.0      3.75
   06/09/2020 02:40      63.8      61.7       29     29.9      0.00     17.48      78.8     0.49      1017.8     1.1     SSE   154   3.4       S     185     264       -75       0.6       1.9      58.3      3.75
   06/09/2020 02:30      65.0      61.7       27     28.9      0.00     17.48      78.8     0.49      1017.9     2.5      SW   217   6.2       S     182     264       -74       1.5       1.8      58.6      3.75
   06/09/2020 02:20      61.7      59.7       32     30.6      0.00     17.48      78.9     0.49      1017.9     1.9     ESE   123   5.5     SSW     202     265       -74       1.0       1.5      58.9      3.75
   06/09/2020 02:10      60.6      59.7       33     31.2      0.00     17.48      78.9     0.49      1018.0     1.2     SSW   208   2.7      SW     222     265       -74       0.6       1.4      59.2      3.75
   06/09/2020 02:00      61.0      60.1       33     31.3      0.00     17.48      78.9     0.49      1018.0     1.1       E    90   3.2     SSE     154     265       -74       0.7       1.3      59.5      3.75
   06/09/2020 01:50      60.9      60.0       33     31.0      0.00     17.48      79.0     0.49      1018.0     0.9     SSE   167   2.3       S     182     265       -74       0.5       1.1      59.9      3.75
   06/09/2020 01:40      61.5      60.0       33     31.8      0.00     17.48      79.0     0.49      1018.0     0.8       S   178   2.4       S     179     265       -75       0.6       1.0      60.3      3.75
   06/09/2020 01:30      62.8      61.0       31     31.3      0.00     17.48      79.1     0.49      1018.0     1.0       S   169   3.0     SSE     164     265       -75       0.6       0.9      60.6      3.75
   06/09/2020 01:20      63.3      61.9       30     31.2      0.00     17.48      79.1     0.49      1018.0     1.1       S   180   2.9      SE     134     264       -77       0.4       0.8      61.0      3.75
   06/09/2020 01:10      63.2      62.0       31     31.4      0.00     17.48      79.1     0.49      1018.0     2.1     SSE   164   4.0     SSW     202     265       -75       0.9       0.8      61.3      3.75
   06/09/2020 01:00      63.3      62.4       30     31.4      0.00     17.48      79.2     0.49      1018.1     1.5       S   172   3.6     SSW     207     264       -77       0.7       0.6      61.7      3.75
   06/09/2020 00:50      62.8      62.3       31     31.6      0.00     17.48      79.2     0.49      1018.1     1.5     SSE   161   3.8       S     186     264       -77       0.5       0.5      62.1      3.75
   06/09/2020 00:40      63.7      62.5       31     32.0      0.00     17.48      79.3     0.49      1018.1     1.5     SSE   161   3.6     SSW     208     264       -77       0.6       0.4      62.5      3.75
   06/09/2020 00:30      62.8      62.2       32     32.6      0.00     17.48      79.3     0.49      1018.2     1.5      SE   138   4.9     SSW     202     265       -79       0.7       0.3      62.9      3.75
   06/09/2020 00:20      62.8      62.3       33     32.6      0.00     17.48      79.3     0.49      1018.3     1.6      SE   145   4.3       S     179     264       -79       0.9       0.2      63.2      3.75
   06/09/2020 00:10      64.2      62.5       32     32.7      0.00     17.48      79.3     0.49      1018.3     1.2     SSE   148   3.3       S     174     264       -80       0.4       0.0      63.6      3.75
   06/09/2020 00:00      64.1      62.8       32     32.9      0.00     17.48      79.3     0.49      1018.3     1.8     SSE   149   3.3     ESE     122     264       -80       0.5      36.3      64.0      3.75
   06/08/2020 23:50      63.9      63.0       32     33.1      0.00     17.48      79.4     0.49      1018.3     1.6     SSE   154   3.5      SE     132     264       -80       0.4      36.2      64.5      3.75
   06/08/2020 23:40      64.5      63.1       31     32.3      0.00     17.48      79.4     0.49      1018.3     2.4       S   176   3.8     SSW     193     264       -79       1.0      36.1      65.0      3.75
   06/08/2020 23:30      65.6      63.5       30     32.7      0.00     17.48      79.4     0.49      1018.4     0.9     SSE   159   2.3     SSE     149     264       -81       0.4      36.0      65.4      3.75
   06/08/2020 23:20      69.4      65.6       26     31.3      0.00     17.48      79.5     0.49      1018.4     1.1     SSE   158   2.6       S     191     264       -82       0.1      35.9      65.8      3.75
   06/08/2020 23:10      71.9      69.4       22     29.9      0.00     17.48      79.5     0.49      1018.4     0.7       S   175   2.6     NNW     345     264       -86       0.3      35.9      66.2      3.75
   06/08/2020 23:00      71.8      70.8       21     29.8      0.00     17.48      79.5     0.49      1018.4     0.8       N    10   4.5      NW     310     264       -87       0.3      35.8      66.6      3.75
   06/08/2020 22:50      71.0      70.4       22     30.4      0.00     17.48      79.5     0.49      1018.5     1.1      NW   322   4.2       N     351     264       -85       0.5      35.8      66.9      3.75
   06/08/2020 22:40      70.5      68.0       24     31.0      0.00     17.48      79.6     0.49      1018.5     0.7     NNW   332   2.3       N       6     264       -85       0.0      35.7      67.4      3.75
   06/08/2020 22:30      67.9      64.9       29     32.7      0.00     17.48      79.5     0.49      1018.5     0.8     NNW   337   3.1     NNW     344     264       -84       0.5      35.7      67.8      3.75
   06/08/2020 22:20      65.3      64.9       32     34.3      0.00     17.48      79.6     0.50      1018.5     0.4     SSE   150   2.1       S     184     264       -84       0.2      35.6      68.3      3.75
   06/08/2020 22:10      66.0      64.8       31     34.1      0.00     17.48      79.6     0.49      1018.5     1.0     SSE   161   2.7     SSW     193     264       -84       0.2      35.6      68.9      3.75
   06/08/2020 22:00      68.1      65.7       29     33.8      0.00     17.48      79.6     0.49      1018.3     1.3     SSE   154   2.4      SE     136     264       -85       0.3      35.5      69.6      3.75
   06/08/2020 21:50      69.2      68.1       26     32.9      0.00     17.48      79.6     0.49      1018.2     1.6       S   185   2.6       S     178     264       -86       0.3      35.5      70.2      3.75
   06/08/2020 21:40      71.0      68.8       25     32.5      0.00     17.48      79.6     0.49      1018.1     1.4     SSW   206   2.3     SSW     198     264       -89       0.2      35.4      70.7      3.75
   06/08/2020 21:30      71.7      70.8       24     32.2      0.00     17.48      79.6     0.49      1017.9     2.9     SSW   207   4.6     SSW     201     263       -92       1.6      35.4      71.2      3.75
   06/08/2020 21:20      72.3      71.5       23     31.7      0.00     17.48      79.6     0.49      1017.8     1.8     WSW   256   3.6       W     269     263       -93       0.8      35.1      71.9      3.75
   06/08/2020 21:10      72.8      72.2       22     31.1      0.00     17.48      79.6     0.49      1017.8     2.2     WSW   250   5.3       W     260     263       -96       1.1      35.0      72.5      3.75
   06/08/2020 21:00      72.3      71.6       21     30.0      0.00     17.48      79.6     0.49      1017.8     2.3       W   272   6.1      SW     219     263       -95       1.9      34.8      73.2      3.75
   06/08/2020 20:50      73.3      71.9       20     29.4      0.00     17.48      79.5     0.49      1017.8     2.0      SW   225   5.0     WSW     241     263       -98       1.0      34.5      73.9      3.75
   06/08/2020 20:40      74.1      73.3       20     29.5      0.00     17.48      79.5     0.49      1017.8     3.3     WSW   252   6.3     WSW     239     263      -101       2.4      34.4      74.6      3.75
   06/08/2020 20:30      74.4      73.8       19     29.5      0.00     17.48      79.4     0.49      1017.6     3.3     WSW   251   5.9      SW     232     263      -102       2.3      34.0      75.3      3.75
   06/08/2020 20:20      74.8      74.2       19     29.6      0.00     17.48      79.5     0.49      1017.5     4.4     WSW   240   7.5      SW     215     262      -103       2.9      33.6      76.1      3.75
   06/08/2020 20:10      76.7      74.7       19     30.0      0.00     17.48      79.3     0.49      1017.4     4.1      SW   235   7.4     WSW     258     262      -103       2.7      33.1      76.8      3.75
   06/08/2020 20:00      78.2      76.5       16     27.3      0.00     17.48      79.2     0.49      1017.3     5.0     WSW   244   8.0      SW     224     262      -102       3.6      32.6      77.8      3.75
   06/08/2020 19:50      80.1      78.2       14     26.2      0.00     17.48      79.3     0.49      1017.2     3.8       W   274   8.3       W     266     262      -100       3.0      32.0      78.7      3.75
   06/08/2020 19:40      83.3      80.2       10     20.1      0.00     17.48      79.1     0.49      1017.0     2.4     WNW   294   6.5     WSW     251     261       -99       2.4      31.5      79.6      3.75
   06/08/2020 19:30      83.5      83.0        6      8.7      0.00     17.48      79.0     0.49      1016.8     2.5       N   358   6.3     NNW     340     261       -74       1.0      31.1      80.5      3.75
   06/08/2020 19:20      83.8      83.4        6      9.3      0.00     17.48      78.9     0.49      1016.7     2.6       N    10   5.2       N     351     261       -56       1.0      30.9      81.3      3.75
   06/08/2020 19:10      84.0      83.6        6      8.7      0.00     17.48      78.9     0.49      1016.5     3.5       N     3   7.0       E      80     261       -34       0.8      30.8      81.9      3.75
   06/08/2020 19:00      84.3      83.8        6      8.4      0.00     17.48      78.8     0.49      1016.4     3.5       N   355  10.2     NNW     343     261       -10       1.4      30.6      82.6      3.75
   06/08/2020 18:50      84.7      84.1        6      8.4      0.00     17.48      78.6     0.49      1016.3     4.2     NNE    19  10.7      NE      46     261        14       1.4      30.4      83.4      3.75
   06/08/2020 18:40      85.1      84.6        6      8.8      0.00     17.48      78.5     0.49      1016.1     3.3     NNE    17   7.0     NNE      29     261        39       1.1      30.2      84.0      3.75
   06/08/2020 18:30      85.6      84.7        6      9.1      0.00     17.48      78.3     0.49      1016.0     3.7     NNE    12   7.8     NNE      30     261        65       1.5      30.0      84.7      3.75
   06/08/2020 18:20      85.9      85.2        6     10.3      0.00     17.48      78.3     0.49      1015.9     2.6     NNE    15   6.6      NE      56     261        90       0.7      29.7      85.3      3.75
   06/08/2020 18:10      85.7      85.0        6      9.4      0.00     17.48      78.0     0.49      1015.9     3.8     NNE    13  11.8     NNE      17     261       116       1.3      29.6      85.8      3.75
   06/08/2020 18:00      85.7      85.2        6     10.3      0.00     17.48      77.8     0.49      1015.9     3.7       N     9   8.4     ENE      76     261       141       1.4      29.4      86.4      3.75
   06/08/2020 17:50      86.3      85.3        6     10.3      0.00     17.48      77.7     0.49      1015.8     3.7       N     7  11.4     NNE      19     261       166       1.4      29.2      87.0      3.75
   06/08/2020 17:40      86.7      86.1        6     10.5      0.00     17.48      77.6     0.49      1015.7     4.1     NNE    18   8.9     NNE      22     261       190       1.3      28.9      87.6      3.76
   06/08/2020 17:30      86.7      86.0        6     11.3      0.00     17.48      77.4     0.49      1015.8     2.8       N   351   7.1       W     260     261       214       1.2      28.7      87.8      3.76
   06/08/2020 17:20      86.6      85.8        6     11.1      0.00     17.48      77.2     0.49      1015.9     4.1       N     7   9.8       N       7     261       239       1.2      28.5      88.2      3.76
   06/08/2020 17:10      86.8      86.0        6     11.1      0.00     17.48      77.0     0.49      1015.9     3.7       N     6   7.4     NNW     327     261       264       1.3      28.3      88.7      3.76
   06/08/2020 17:00      86.4      85.8        6     11.1      0.00     17.48      76.8     0.49      1016.0     3.9     NNW   347   8.2     NNW     345     261       287       1.7      28.1      89.0      3.76
   06/08/2020 16:50      86.8      86.0        6     11.9      0.00     17.48      76.7     0.49      1015.9     4.8       N   356  11.4     NNE      14     261       308       1.5      27.8      89.3      3.76
   06/08/2020 16:40      86.9      86.2        6     11.9      0.00     17.48      76.5     0.49      1015.8     3.2       N     9   8.5     NNW     331     261       330       1.1      27.6      89.5      3.76
   06/08/2020 16:30      86.8      85.7        6     11.7      0.00     17.48      76.4     0.49      1015.9     4.4       N     9   9.3     NNW     336     261       353       1.5      27.4      89.8      3.76
   06/08/2020 16:20      87.4      86.1        6     11.5      0.00     17.48      76.2     0.49      1015.8     3.5     NNE    26   7.3       N       7     261       372       1.3      27.1      89.8      3.77
   06/08/2020 16:10      86.3      85.8        6     11.1      0.00     17.48      76.1     0.49      1015.9     4.2       N   358   9.4      NW     321     261       397       1.6      26.9      90.0      3.77
   06/08/2020 16:00      86.8      86.0        6     11.8      0.00     17.48      76.0     0.49      1016.0     4.1       N     7   9.1     WSW     241     261       415       1.5      26.7      90.1      3.77
   06/08/2020 15:50      87.2      86.3        6     12.0      0.00     17.48      75.9     0.49      1016.1     4.2     NNE    16   9.9     NNW     329     261       432       1.5      26.4      90.2      3.77
   06/08/2020 15:40      87.1      85.6        6     12.3      0.00     17.48      75.9     0.49      1016.3     3.2     NNE    17   7.7     NNE      33     261       452       1.4      26.2      90.0      3.77
   06/08/2020 15:30      85.9      85.1        6     12.0      0.00     17.48      75.9     0.49      1016.3     4.5       N     9   8.5     NNE      12     261       475       1.6      25.9      90.0      3.77
   06/08/2020 15:20      85.8      85.0        7     13.2      0.00     17.48      75.7     0.49      1016.4     4.6     NNE    12  13.0     NNE      21     261       473       1.6      25.7      90.2      3.78
   06/08/2020 15:10      85.8      84.8        6     12.6      0.00     17.48      75.7     0.49      1016.5     4.6     NNE    18  10.9      NE      47     261       465       1.7      25.4      90.3      3.78
   06/08/2020 15:00      84.9      84.3        7     12.1      0.00     17.48      76.4     0.49      1016.6     4.9       N     4  14.9      NE      37     261       485       1.8      25.1      91.3      3.78
   06/08/2020 14:50      85.5      84.4        7     13.1      0.00     17.48      76.4     0.49      1016.7     5.3       N     2  11.4       N       0     261       460       1.7      24.8      91.3      3.79
   06/08/2020 14:40      85.5      83.8        7     13.3      0.00     17.48      76.4     0.49      1016.8     4.3     NNE    16   7.4      NW     321     261       549       1.6      24.5      91.1      3.79
   06/08/2020 14:30      84.1      83.5        7     12.9      0.00     17.48      76.4     0.49      1016.9     5.7       N     6  13.9     WNW     302     261       560       1.7      24.3      90.8      3.80
   06/08/2020 14:20      83.8      83.0        7     13.0      0.00     17.48      76.4     0.49      1017.1     5.6       N     7  12.0     NNE      24     261       546       1.9      24.0      90.9      3.80
   06/08/2020 14:10      83.3      82.8        7     13.0      0.00     17.48      76.4     0.49      1017.1     5.4       N   352  10.7      NW     307     261       559       1.5      23.7      90.6      3.81
   06/08/2020 14:00      83.5      82.5        7     13.2      0.00     17.48      76.4     0.49      1017.3     5.1     NNE    20  13.9      NE      38     261       528       1.4      23.4      90.5      3.81
   06/08/2020 13:50      83.5      82.4        7     13.1      0.00     17.48      76.4     0.49      1017.4     3.9       N   356  10.5      NW     321     261       490       1.5      23.2      90.4      3.82
   06/08/2020 13:40      83.3      81.9        7     12.8      0.00     17.48      76.4     0.49      1017.6     4.9     NNE    20  11.2     NNE      16     261       554       1.9      22.9      90.1      3.83
   06/08/2020 13:30      83.9      82.3        7     13.7      0.00     17.48      76.4     0.49      1017.7     4.3       N   358  11.8     ENE      58     261       568       1.5      22.6      89.4      3.83
   06/08/2020 13:20      83.5      81.6        7     13.7      0.00     17.48      76.3     0.48      1017.8     4.2     NNE    28  11.3     NNE      15     261       595       1.9      22.4      88.3      3.84
   06/08/2020 13:10      81.9      81.3        7     12.4      0.00     17.48      76.3     0.49      1017.8     5.7       N    10  10.1       N       0     261       591       2.1      22.0      87.5      3.84
   06/08/2020 13:00      82.4      81.0        8     14.0      0.00     17.48      76.3     0.48      1018.0     4.2     NNE    26   8.5      NE      40     261       615       1.6      21.7      86.8      3.85
   06/08/2020 12:50      81.1      80.1        8     13.7      0.00     17.48      76.4     0.49      1018.1     4.7      NE    35  10.6     NNW     342     261       563       1.7      21.4      85.8      3.85
   06/08/2020 12:40      81.1      79.7        8     15.0      0.00     17.48      76.3     0.49      1018.1     5.2     NNE    21  11.0     NNE      30     261       476       1.7      21.1      84.9      3.86
   06/08/2020 12:30      80.8      79.9        9     15.9      0.00     17.48      76.3     0.48      1018.1     5.3     NNE    12  12.4     NNE      16     261       580       1.9      20.9      84.2      3.86
   06/08/2020 12:20      80.4      79.4        9     16.9      0.00     17.48      76.3     0.48      1018.1     5.2     NNE    13   9.8       N       2     261       541       2.0      20.5      83.2      3.86
   06/08/2020 12:10      79.5      78.3       10     18.2      0.00     17.48      76.2     0.48      1018.2     4.6     NNE    33  10.4     NNE      13     261       595       1.8      20.2      82.2      3.87
   06/08/2020 12:00      79.3      78.5       11     19.2      0.00     17.48      76.2     0.49      1018.3     5.4     NNE    25  10.5     NNE      25     261       607       2.2      19.9      80.8      3.87
   06/08/2020 11:50      78.9      78.3       11     19.9      0.00     17.48      76.2     0.48      1018.4     4.8       N    10  11.3       N       3     261       589       1.9      19.6      79.3      3.87
   06/08/2020 11:40      79.0      78.3       11     19.5      0.00     17.48      76.2     0.49      1018.3     5.4     NNE    33  17.1      NW     315     261       580       2.3      19.2      77.8      3.88
   06/08/2020 11:30      78.7      77.4       11     19.5      0.00     17.48      75.0     0.49      1018.2     5.4     NNE    26  12.5      NE      55     261       573       2.3      18.9      75.2      3.88
   06/08/2020 11:20      78.1      77.4       11     19.3      0.00     17.48      74.8     0.49      1018.2     5.5     NNE    14  10.8     NNE      34     261       562       2.2      18.5      73.5      3.88
   06/08/2020 11:10      77.9      76.6       12     20.1      0.00     17.48      74.8     0.49      1018.0     5.8     NNE    32  12.1     NNE      14     261       553       2.2      18.1      71.9      3.88
   06/08/2020 11:00      77.7      76.8       12     20.7      0.00     17.48      74.9     0.49      1018.1     5.2     NNE    25  10.4     NNW     334     261       540       1.7      17.7      70.9      3.89
   06/08/2020 10:50      77.9      76.6       13     22.9      0.00     17.48      75.0     0.49      1017.8     3.9     NNE    21   7.8     ENE      56     261       525       1.5      17.4      69.6      3.89
   06/08/2020 10:40      76.6      75.3       14     23.0      0.00     17.48      75.1     0.49      1017.8     4.8       N    10  11.0       W     278     262       515       1.9      17.2      68.2      3.89
   06/08/2020 10:30      75.7      74.3       15     24.2      0.00     17.48      75.5     0.49      1017.8     3.9       N     5   9.6     NNW     330     261       498       1.6      16.9      67.2      3.89
   06/08/2020 10:20      74.5      73.7       15     23.9      0.00     17.48      75.8     0.49      1017.7     5.1       N    10  12.3      NE      51     262       486       2.1      16.6      65.9      3.89
   06/08/2020 10:10      74.3      73.2       16     24.3      0.00     17.48      75.8     0.49      1017.5     4.6     NNE    23  10.4       N       1     262       472       1.9      16.3      64.5      3.89
   06/08/2020 10:00      73.4      72.2       16     24.8      0.00     17.48      75.8     0.49      1017.6     4.8       N     9  11.7     NNE      19     262       455       1.8      15.9      63.1      3.90
   06/08/2020 09:50      72.3      71.4       17     24.3      0.00     17.48      75.9     0.49      1017.7     5.5       N     4  12.9      NE      55     262       438       1.8      15.6      61.9      3.90
   06/08/2020 09:40      71.9      70.9       18     25.3      0.00     17.48      75.9     0.49      1017.7     5.4     NNE    16  10.0       N       0     262       420       2.5      15.3      60.5      3.90
   06/08/2020 09:30      71.6      71.0       19     26.5      0.00     17.48      76.0     0.49      1017.7     4.9     NNE    13  11.2       N       0     262       399       1.7      14.9      59.2      3.90
   06/08/2020 09:20      71.0      69.5       19     26.5      0.00     17.48      76.0     0.49      1017.5     4.6       N     7   9.9     NNE      17     263       383       1.9      14.6      58.1      3.90
   06/08/2020 09:10      69.8      68.7       20     26.5      0.00     17.48      76.0     0.49      1017.5     4.7     NNE    12   8.8     NNE      19     262       368       1.7      14.3      57.0      3.90
   06/08/2020 09:00      69.1      68.1       21     26.7      0.00     17.48      76.0     0.49      1017.4     5.2       N     8  14.2      NW     311     263       366       1.9      14.0      56.0      3.90
   06/08/2020 08:50      68.0      67.3       22     27.2      0.00     17.48      76.0     0.49      1017.5     4.1       N    10   9.5       N     355     264       321       1.6      13.7      55.0      3.90
   06/08/2020 08:40      67.5      66.6       22     27.2      0.00     17.48      76.2     0.49      1017.5     3.7       N   359   8.4     NNW     349     264        -8       1.7      13.4      53.9      3.90
   06/08/2020 08:30      66.7      65.8       22     26.7      0.00     17.48      76.2     0.49      1017.4     4.0       N   360   9.7     NNE      17     265       -43       1.9      13.1      53.5      3.90
   06/08/2020 08:20      66.0      64.7       26     29.1      0.00     17.48      76.2     0.49      1017.4     3.4       N     9   9.9     NNE      16     265       -55       1.7      12.8      53.3      3.90
   06/08/2020 08:10      64.7      64.0       28     30.7      0.00     17.48      76.3     0.49      1017.5     1.9       N   353   4.8     NNE      28     265       -52       0.8      12.5      53.2      3.90
   06/08/2020 08:00      64.2      63.3       30     31.4      0.00     17.48      76.3     0.49      1017.4     2.5     NNW   328   6.5     WNW     298     265       -49       1.4      12.4      53.2      3.90
   06/08/2020 07:50      63.4      62.8       31     31.9      0.00     17.48      76.3     0.49      1017.3     1.9      NW   319   7.5     WNW     286     265       -41       1.6      12.2      53.2      3.90
   06/08/2020 07:40      63.1      62.5       31     31.7      0.00     17.48      76.4     0.49      1017.2     2.7     NNW   338   7.4      NW     323     266       -25       1.3      11.9      53.1      3.90
   06/08/2020 07:30      62.7      62.0       32     32.3      0.00     17.48      76.4     0.49      1017.1     2.1     NNW   340   7.1      NW     319     266       -26       1.0      11.7      53.2      3.90
   06/08/2020 07:20      62.3      61.9       34     33.1      0.00     17.48      76.5     0.49      1017.3     1.6       N   351   3.8     NNW     343     266       -58       1.0      11.5      53.2      3.91
   06/08/2020 07:10      62.0      61.7       33     32.6      0.00     17.48      76.5     0.49      1017.5     2.3     NNW   339   7.9       N       5     266       -59       1.0      11.3      53.2      3.91
   06/08/2020 07:00      62.0      61.8       33     32.5      0.00     17.48      76.6     0.49      1017.5     2.8       N   360   6.4     NNE      13     266       -62       0.9      11.2      53.2      3.91
   06/08/2020 06:50      62.1      61.7       33     32.3      0.00     17.48      76.6     0.49      1017.4     2.5       N     5   8.8     NNW     332     266       -65       1.2      11.0      53.3      3.91
   06/08/2020 06:40      61.9      61.4       32     31.7      0.00     17.48      76.6     0.49      1017.2     2.2       N   350   6.7     NNW     336     266       -66       1.0      10.8      53.3      3.91
   06/08/2020 06:30      61.7      60.8       33     32.1      0.00     17.48      76.7     0.49      1017.1     2.5       N   359   9.2       N       3     266       -72       1.0      10.7      53.4      3.91
   06/08/2020 06:20      61.1      60.5       35     33.3      0.00     17.48      76.8     0.49      1016.9     2.6     NNW   343   9.0       W     280     265       -76       1.1      10.5      53.4      3.91
   06/08/2020 06:10      60.9      60.5       36     33.7      0.00     17.48      76.8     0.49      1016.6     2.9       N   353   6.1     WNW     303     265       -73       1.0      10.3      53.5      3.91
   06/08/2020 06:00      61.3      60.8       35     33.2      0.00     17.48      76.9     0.49      1016.2     4.6     NNW   337  10.7     NNW     341     266       -82       2.3      10.2      53.6      3.91
   06/08/2020 05:50      61.2      60.5       35     32.9      0.00     17.48      76.9     0.49      1016.0     3.9     NNW   334  11.8       N       9     266       -85       2.0       9.8      53.7      3.91
   06/08/2020 05:40      60.8      60.4       36     33.8      0.00     17.48      76.9     0.49      1016.0     3.5       N   352  10.0      NE      46     266       -87       2.2       9.4      53.8      3.92
   06/08/2020 05:30      60.8      60.4       37     33.9      0.00     17.48      77.0     0.49      1015.7     2.7     ESE   113  11.7     ESE     109     266       -89       1.9       9.1      54.0      3.92
   06/08/2020 05:20      60.6      60.3       37     34.3      0.00     17.48      77.0     0.49      1015.7     3.1      NW   306   8.8      NE      37     266       -88       2.0       8.7      54.1      3.92
   06/08/2020 05:10      61.0      60.4       38     34.7      0.00     17.48      77.0     0.49      1015.7     2.2     NNW   336   9.8      SW     218     266       -87       1.6       8.4      54.3      3.92
   06/08/2020 05:00      61.0      60.7       38     34.8      0.00     17.48      77.1     0.49      1015.8     3.4       N   356   9.3     NNW     334     266       -86       1.9       8.2      54.4      3.92
   06/08/2020 04:50      61.1      60.8       37     34.7      0.00     17.48      77.1     0.49      1015.9     2.2     NNW   341   8.7       N       0     266       -87       1.2       7.8      54.6      3.92
   06/08/2020 04:40      61.4      60.9       37     34.7      0.00     17.48      77.2     0.49      1015.8     2.6       N   357   9.5     WNW     303     266       -87       1.4       7.6      54.8      3.92
   06/08/2020 04:30      61.6      61.2       37     34.6      0.00     17.48      77.2     0.49      1015.6     4.1       N     7  10.4       N       4     266       -88       1.4       7.4      55.0      3.92
   06/08/2020 04:20      62.0      61.4       36     34.4      0.00     17.48      77.3     0.49      1015.6     6.4       N     4  15.0     WNW     290     266       -89       2.3       7.2      55.1      3.92
   06/08/2020 04:10      62.3      61.8       35     33.8      0.00     17.48      77.3     0.49      1015.5     5.5       N    10  10.3     NNE      20     266       -89       1.9       6.8      55.2      3.92
   06/08/2020 04:00      62.3      61.8       34     33.7      0.00     17.48      77.3     0.49      1015.5     4.2     NNW   345  11.1     NNW     340     266       -89       1.9       6.5      55.4      3.92
   06/08/2020 03:50      62.3      61.8       36     34.5      0.00     17.48      77.4     0.49      1015.5     3.2     NNW   348   9.8     NNE      20     266       -88       1.4       6.2      55.6      3.92
   06/08/2020 03:40      62.5      62.1       35     34.1      0.00     17.48      77.5     0.49      1015.7     5.1       N     8  15.2       N       0     266       -87       2.1       5.9      55.8      3.92
   06/08/2020 03:30      62.6      62.3       34     33.5      0.00     17.48      77.5     0.49      1015.6     4.3       N   354  11.4     NNE      24     266       -87       1.8       5.6      55.9      3.92
   06/08/2020 03:20      63.0      62.4       33     33.2      0.00     17.48      77.5     0.49      1015.3     4.0       N   353  11.2       N     351     266       -88       1.6       5.3      56.1      3.93
   06/08/2020 03:10      62.9      62.7       33     33.0      0.00     17.48      77.5     0.49      1015.3     4.9       N     0   9.8       N       7     266       -89       2.4       5.0      56.3      3.93
   06/08/2020 03:00      63.1      62.6       32     32.7      0.00     17.48      77.6     0.49      1015.2     3.6     NNW   346  11.8       N      10     265       -89       2.0       4.6      56.5      3.93
   06/08/2020 02:50      63.2      62.8       30     31.1      0.00     17.48      77.7     0.49      1015.3     3.6     NNW   349   8.2       N       6     265       -89       2.4       4.3      56.8      3.93
   06/08/2020 02:40      63.4      63.1       28     29.5      0.00     17.48      77.7     0.49      1015.5     4.3       N     1  11.3     NNW     346     265       -88       1.6       3.9      57.0      3.93
   06/08/2020 02:30      63.5      63.1       27     28.7      0.00     17.48      77.7     0.49      1015.5     3.0       N     0   6.7       W     279     265       -88       1.1       3.6      57.3      3.93
   06/08/2020 02:20      63.9      63.4       26     28.2      0.00     17.48      77.7     0.50      1015.5     2.6       N    11   5.7     NNW     349     265       -89       0.9       3.4      57.5      3.93
   06/08/2020 02:10      64.3      63.7       25     27.9      0.00     17.48      77.8     0.49      1015.4     3.7     NNE    15  10.1      NW     319     265       -89       1.4       3.3      57.8      3.93
   06/08/2020 02:00      64.5      63.9       25     27.8      0.00     17.48      77.9     0.49      1015.4     3.4       N     8   8.0     ENE      64     265       -89       1.4       3.0      58.1      3.93
   06/08/2020 01:50      64.5      64.1       25     27.7      0.00     17.48      77.8     0.50      1015.5     3.1       N     2   9.8     WNW     298     265       -89       1.2       2.8      58.3      3.93
   06/08/2020 01:40      64.7      64.2       24     27.0      0.00     17.48      77.9     0.50      1015.5     3.3       N     9   7.7      NE      50     264       -89       1.2       2.6      58.6      3.93
   06/08/2020 01:30      65.0      64.5       24     27.1      0.00     17.48      78.0     0.50      1015.5     4.0     NNE    12  10.5       N       5     264       -90       1.6       2.4      58.9      3.94
   06/08/2020 01:20      65.1      64.7       24     27.2      0.00     17.48      78.0     0.50      1015.5     4.2       N     7  11.6      NW     316     264       -89       1.7       2.1      59.2      3.94
   06/08/2020 01:10      65.2      64.9       22     25.2      0.00     17.48      78.0     0.50      1015.4     5.4       N    11  11.0       N       5     264       -90       2.0       1.9      59.6      3.94
   06/08/2020 01:00      65.2      64.8       22     24.7      0.00     17.48      78.0     0.50      1015.4     4.0     NNE    15  10.9       N       0     264       -90       1.8       1.5      59.9      3.94
   06/08/2020 00:50      65.1      64.8       22     24.6      0.00     17.48      78.1     0.50      1015.3     3.3       N     4   8.9     NNE      20     264       -90       1.5       1.2      60.3      3.94
   06/08/2020 00:40      65.3      64.8       20     23.1      0.00     17.48      78.2     0.50      1015.3     2.8       N     7   6.2      NW     322     264       -90       1.2       1.0      60.8      3.94
   06/08/2020 00:30      65.5      65.2       18     20.8      0.00     17.48      78.1     0.50      1015.2     3.5       N     3   9.4     NNE      32     264       -91       1.7       0.8      61.1      3.94
   06/08/2020 00:20      65.7      65.3       17     19.7      0.00     17.48      78.2     0.50      1015.2     3.2     NNE    11   9.7     NNE      20     264       -91       1.4       0.5      61.6      3.94
   06/08/2020 00:10      65.9      65.4       18     20.7      0.00     17.48      78.2     0.50      1015.2     2.7       N    10   6.8       N       9     264       -90       1.5       0.2      62.1      3.94
   06/08/2020 00:00      65.8      65.5       19     21.8      0.00     17.48      78.3     0.50      1015.2     3.0     NNE    13   9.6      NE      35     264       -90       1.6      32.2      62.5      3.96
   06/07/2020 23:50      66.1      65.7       19     23.0      0.00     17.48      78.3     0.50      1015.2     3.0     NNE    21   8.9      NE      44     264       -89       1.5      32.0      63.0      3.96
   06/07/2020 23:40      66.1      65.6       20     23.5      0.00     17.48      78.3     0.50      1015.1     2.6       N     0   8.4     NNE      16     264       -88       1.1      31.7      63.4      3.96
   06/07/2020 23:30      66.1      65.6       21     24.9      0.00     17.48      78.4     0.50      1015.1     1.6       N     2   4.4     NNE      32     264       -88       0.9      31.5      63.9      3.96
   06/07/2020 23:20      66.3      65.9       22     26.2      0.00     17.48      78.4     0.50      1015.0     2.1       N   360   6.4     NNE      24     265       -87       1.1      31.4      64.4      3.96
   06/07/2020 23:10      66.4      66.1       23     27.3      0.00     17.48      78.3     0.50      1014.9     2.6       N   359   6.2     WNW     283     264       -87       0.8      31.2      64.9      3.96
   06/07/2020 23:00      66.4      66.1       24     28.4      0.00     17.48      78.4     0.50      1014.9     2.4       N     4   7.7     NNE      21     265       -87       0.9      31.1      65.3      3.96
   06/07/2020 22:50      66.5      66.2       25     29.1      0.00     17.48      78.4     0.50      1014.9     2.0       N     3   4.9     NNW     341     265       -86       1.0      30.9      65.8      3.96
   06/07/2020 22:40      66.6      66.2       25     29.6      0.00     17.48      78.4     0.50      1014.9     1.1     NNW   340   4.1       W     265     265       -86       0.8      30.8      66.3      3.96
   06/07/2020 22:30      66.9      66.4       25     29.7      0.00     17.48      78.5     0.50      1014.8     1.2     NNW   339   3.8      NW     306     265       -85       0.6      30.6      66.8      3.97
   06/07/2020 22:20      66.9      66.6       25     29.6      0.00     17.48      78.5     0.50      1014.7     1.1     NNW   334   4.4      NE      48     265       -85       0.5      30.5      67.3      3.97
   06/07/2020 22:10      67.4      66.7       25     29.8      0.00     17.48      78.4     0.50      1014.7     1.1       N   351   4.2     NNE      15     266       -85       0.4      30.4      67.7      3.97
   06/07/2020 22:00      67.4      67.1       25     30.0      0.00     17.48      78.4     0.50      1014.6     1.4     NNE    15   3.3     NNW     343     266       -86       0.5      30.4      68.2      3.97
   06/07/2020 21:50      67.2      65.8       25     30.1      0.00     17.48      78.5     0.50      1014.5     1.4       N   354   7.4     NNE      17     266       -85       0.6      30.3      68.7      3.97
   06/07/2020 21:40      65.8      62.9       32     33.7      0.00     17.48      78.5     0.50      1014.4     1.0     NNE    16   3.5     NNE      21     266       -83       0.3      30.2      69.3      3.97
   06/07/2020 21:30      62.5      61.3       42     38.6      0.00     17.48      78.5     0.50      1014.3     1.4      SW   220   4.5     NNE      16     266       -81       0.8      30.1      69.9      3.97
   06/07/2020 21:20      63.5      62.3       42     39.5      0.00     17.48      78.5     0.50      1014.2     0.5     SSE   165   1.4     SSE     162     266       -82       0.1      30.0      70.7      3.97
   06/07/2020 21:10      64.0      63.4       42     40.3      0.00     17.48      78.5     0.50      1014.1     0.2       S   180   1.0     SSE     157     266       -82       0.0      30.0      71.3      3.98
   06/07/2020 21:00      65.1      63.8       41     40.4      0.00     17.48      78.5     0.50      1014.0     0.3     SSE   155   1.0     SSE     158     266       -84       0.0      30.0      72.0      3.98
   06/07/2020 20:50      66.8      64.9       39     40.2      0.00     17.48      78.5     0.50      1014.0     0.8     SSW   193   1.7      SW     225     266       -86       0.0      30.0      72.5      3.98
   06/07/2020 20:40      67.9      66.9       37     40.5      0.00     17.48      78.4     0.50      1013.9     0.3       W   263   1.1     SSW     202     266       -89       0.0      30.0      73.1      3.98
   06/07/2020 20:30      68.4      67.7       36     40.3      0.00     17.48      78.4     0.50      1013.8     1.1       W   277   3.0     WSW     249     266       -91       0.7      29.9      73.8      3.98
   06/07/2020 20:20      69.3      67.9       35     39.9      0.00     17.48      78.4     0.50      1013.7     0.7      SW   235   2.1     WSW     255     266       -92       0.3      29.8      74.4      3.98
   06/07/2020 20:10      70.2      69.2       34     40.4      0.00     17.48      78.4     0.50      1013.6     1.2       W   274   4.0     WNW     282     266       -93       0.7      29.8      74.9      3.98
   06/07/2020 20:00      70.9      70.1       34     40.6      0.00     17.48      78.4     0.50      1013.5     0.8      NW   313   2.6     WNW     285     266       -90       0.3      29.6      75.5      3.98
   06/07/2020 19:50      71.6      70.8       31     38.9      0.00     17.48      78.4     0.50      1013.5     0.6      NW   321   2.6     WNW     288     265       -86       0.4      29.6      76.1      3.98
   06/07/2020 19:40      72.6      71.5       29     38.0      0.00     17.48      78.4     0.50      1013.5     0.8      NW   324   2.9     NNW     328     265       -82       0.7      29.5      76.8      3.99
   06/07/2020 19:30      73.1      72.5       27     37.0      0.00     17.48      78.3     0.50      1013.5     2.2      NW   310   4.8      NW     312     265       -59       1.2      29.4      77.6      3.99
   06/07/2020 19:20      73.6      73.1       28     38.3      0.00     17.48      78.1     0.50      1013.4     2.7     WNW   294   7.1     WNW     288     265       -41       2.0      29.2      78.5      3.99
   06/07/2020 19:10      73.9      73.5       29     39.9      0.00     17.48      78.0     0.50      1013.4     2.2      NW   312   5.8      NW     307     265       -20       1.7      28.9      79.1      3.99
   06/07/2020 19:00      74.2      73.5       28     38.9      0.00     17.48      77.9     0.50      1013.2     3.6     WNW   287   7.8     WSW     249     265         4       3.2      28.6      79.8      3.99
   06/07/2020 18:50      74.5      74.1       29     39.7      0.00     17.48      77.8     0.50      1013.1     2.6     WNW   288   8.3     WSW     255     264        28       2.4      28.1      80.5      4.00
   06/07/2020 18:40      75.4      74.3       28     39.0      0.00     17.48      77.5     0.50      1013.0     3.5     WNW   296   8.7       W     260     264        52       2.5      27.7      81.4      4.00
   06/07/2020 18:30      75.6      75.2       29     41.1      0.00     17.48      77.5     0.50      1012.9     2.7     WNW   283   6.3       W     278     264        77       2.2      27.2      82.2      4.00
   06/07/2020 18:20      75.8      75.3       30     42.0      0.00     17.48      77.6     0.50      1012.9     2.7      NW   322   8.3       W     273     265       103       2.1      26.9      82.7      4.00
   06/07/2020 18:10      76.0      75.0       30     41.8      0.00     17.48      77.5     0.50      1012.9     4.8       W   272  11.0       W     263     265       130       3.8      26.5      83.5      4.01
   06/07/2020 18:00      76.0      75.0       31     43.1      0.00     17.48      77.7     0.49      1012.9     5.6       W   260  11.6     WSW     249     265       156       4.3      25.9      84.3      4.01
   06/07/2020 17:50      76.1      75.4       31     43.2      0.00     17.48      78.1     0.49      1012.9     5.3       W   266   9.7       W     275     264       180       3.9      25.2      85.4      4.01
   06/07/2020 17:40      75.8      75.2       31     42.8      0.00     17.48      77.8     0.49      1012.9     6.3     WSW   258  10.5     WSW     253     265       206       4.8      24.5      86.3      4.02
   06/07/2020 17:30      77.0      75.4       30     42.8      0.00     17.48      77.9     0.49      1012.9     6.7     WSW   256  11.6      NW     317     265       230       5.1      23.7      87.0      4.02
   06/07/2020 17:20      77.2      75.6       30     42.9      0.00     17.48      77.8     0.49      1012.9     4.8     WSW   250  10.7      SW     227     264       255       3.6      22.9      87.6      4.02
   06/07/2020 17:10      76.9      76.3       30     43.2      0.00     17.48      77.8     0.49      1012.9     6.4     WSW   241  11.0      SW     219     264       278       4.7      22.3      88.4      4.03
   06/07/2020 17:00      76.5      75.7       31     43.5      0.00     17.48      77.8     0.49      1012.8     6.5     WSW   244  13.8     WSW     240     264       302       5.0      21.5      88.8      4.03
   06/07/2020 16:50      76.7      75.8       32     43.9      0.00     17.48      77.7     0.49      1012.9     6.9      SW   228  10.9      SW     227     265       325       5.0      20.6      89.7      4.04
   06/07/2020 16:40      77.0      76.2       32     44.5      0.00     17.48      77.7     0.49      1012.9     6.5     WSW   243  10.4      SW     226     264       348       4.8      19.8      90.2      4.04
   06/07/2020 16:30      76.5      75.9       33     44.8      0.00     17.48      77.5     0.49      1012.8     6.1     WSW   257  11.7       W     262     264       369       4.7      19.0      90.7      4.04
   06/07/2020 16:20      77.2      76.0       33     45.1      0.00     17.48      77.5     0.49      1012.9     6.5     WSW   239  11.6     WSW     239     265       392       4.9      18.2      91.3      4.05
   06/07/2020 16:10      77.5      76.6       33     45.6      0.00     17.48      77.4     0.49      1012.9     5.7       W   266  15.1       W     263     265       413       4.4      17.4      91.7      4.05
   06/07/2020 16:00      77.8      76.7       33     46.1      0.00     17.48      77.2     0.49      1013.0     5.7       W   266  11.4     WSW     257     265       434       4.7      16.7      91.9      4.06
   06/07/2020 15:50      76.8      76.0       34     46.4      0.00     17.48      77.0     0.49      1013.1     5.5     WSW   256  11.4       W     277     265       453       4.3      15.9      92.4      4.07
   06/07/2020 15:40      76.7      76.0       35     46.4      0.00     17.48      76.9     0.49      1013.1     7.2      SW   231   9.9      SW     221     265       469       5.0      15.2      92.8      4.07
   06/07/2020 15:30      77.4      76.4       34     46.8      0.00     17.48      76.8     0.49      1013.1     6.0     WSW   251  11.1     WSW     244     265       496       4.7      14.3      93.2      4.08
   06/07/2020 15:20      76.8      74.5       37     47.2      0.00     17.48      76.6     0.49      1013.2     4.6      SW   224  13.7      SW     217     266       268       3.1      13.6      93.5      4.08
   06/07/2020 15:10      78.2      75.7       36     48.0      0.00     17.48      76.5     0.49      1013.3     5.9      SW   232  11.2       S     186     265       253       4.3      13.0      94.3      4.08
   06/07/2020 15:00      78.0      76.4       36     48.4      0.00     17.48      76.3     0.49      1013.4     4.0     WNW   282   8.2       N       0     265       502       3.4      12.3      94.5      4.09
   06/07/2020 14:50      77.8      76.4       36     48.2      0.00     17.48      76.1     0.49      1013.4     5.5      SW   226   9.5      SW     225     265       584       3.9      11.8      94.5      4.09
   06/07/2020 14:40      77.0      76.1       36     47.9      0.00     17.48      76.2     0.49      1013.4     5.5      SW   217  12.6     WSW     256     265       581       4.1      11.1      94.1      4.10
   06/07/2020 14:30      77.3      76.4       34     46.4      0.00     17.48      76.1     0.49      1013.4     5.5     SSW   214  12.6      SW     227     264       575       4.0      10.4      93.5      4.10
   06/07/2020 14:20      78.4      76.5       32     45.6      0.00     17.48      76.0     0.49      1013.5     5.8      SW   235  10.3      NW     304     264       561       4.3       9.8      93.4      4.11
   06/07/2020 14:10      78.2      76.9       29     42.9      0.00     17.48      76.0     0.49      1013.6     3.6     WSW   237   7.6      SW     228     264       576       3.0       9.0      93.3      4.11
   06/07/2020 14:00      78.3      77.0       23     37.0      0.00     17.48      75.7     0.49      1013.7     4.4      SW   216   8.8     WSW     252     263       580       3.3       8.5      92.4      4.12
   06/07/2020 13:50      79.6      77.4       20     34.4      0.00     17.48      75.5     0.49      1013.8     4.5       S   183   9.4     SSW     198     263       585       3.2       8.0      91.6      4.12
   06/07/2020 13:40      79.7      78.2       20     34.6      0.00     17.48      75.5     0.49      1013.9     2.1     WSW   257   5.3     WSW     241     263       586       2.1       7.5      90.8      4.13
   06/07/2020 13:30      79.1      77.5       21     35.3      0.00     17.48      75.3     0.49      1013.9     1.7      NE    34   4.2     NNE      29     263       593       1.1       7.1      89.8      4.13
   06/07/2020 13:20      78.8      77.4       21     34.5      0.00     17.48      75.1     0.49      1014.0     2.1      NE    49   4.9     NNE      33     263       597       1.3       6.9      88.6      4.13
   06/07/2020 13:10      78.6      77.5       22     35.8      0.00     17.48      75.1     0.49      1014.2     1.9     NNE    16   5.9      NE      40     262       598       1.2       6.7      87.6      4.13
   06/07/2020 13:00      78.8      77.7       22     36.7      0.00     17.48      74.9     0.49      1014.2     1.6      NE    38   7.1     ESE     105     263       603       1.5       6.5      86.6      4.14
   06/07/2020 12:50      77.6      75.2       24     36.4      0.00     17.48      74.8     0.49      1014.3     1.9       W   263   5.5     WSW     242     263       605       1.6       6.3      85.5      4.14
   06/07/2020 12:40      75.6      74.7       24     36.3      0.00     17.48      74.8     0.49      1014.4     2.7      SE   142   5.9     ESE     119     263       607       1.8       6.0      84.5      4.14
   06/07/2020 12:30      75.4      74.7       25     36.5      0.00     17.48      74.7     0.49      1014.5     2.8     ESE   109   6.7      SE     127     263       605       1.7       5.7      83.1      4.14
   06/07/2020 12:20      75.8      74.1       25     36.6      0.00     17.48      74.5     0.49      1014.6     2.0     ESE   111   7.4     SSE     155     263       600       1.2       5.4      82.0      4.15
   06/07/2020 12:10      74.8      72.6       26     36.8      0.00     17.48      74.6     0.49      1014.7     2.5       E   100   5.2       S     190     263       597       1.7       5.2      80.8      4.15
   06/07/2020 12:00      73.0      71.9       27     36.6      0.00     17.48      74.4     0.49      1014.8     2.7       S   183   6.6     SSW     206     263       594       1.9       4.9      79.5      4.15
   06/07/2020 11:50      73.8      71.8       26     36.6      0.00     17.48      74.3     0.49      1014.8     3.2      SE   136   7.6      SE     133     263       585       1.9       4.6      77.9      4.16
   06/07/2020 11:40      74.5      73.6       27     38.0      0.00     17.48      74.4     0.49      1014.9     1.5       N   351   3.4     NNW     331     263       575       1.2       4.3      76.5      4.16
   06/07/2020 11:30      74.0      73.5       28     38.6      0.00     17.48      74.3     0.49      1014.9     2.4       N     5   6.4       N       5     263       568       1.0       4.1      74.4      4.16
   06/07/2020 11:20      73.8      72.5       29     39.0      0.00     17.48      74.2     0.49      1014.9     2.0      NW   313   5.1       N     355     263       560       1.4       3.9      72.8      4.16
   06/07/2020 11:10      73.5      72.5       32     41.4      0.00     17.48      74.3     0.49      1014.9     2.0     NNW   330   6.4       W     260     264       550       1.5       3.7      71.3      4.16
   06/07/2020 11:00      73.9      72.8       28     38.3      0.00     17.48      74.1     0.49      1014.9     2.4       N     9   7.1     ENE      78     264       539       1.3       3.4      70.0      4.16
   06/07/2020 10:50      73.9      72.0       29     39.5      0.00     17.48      74.2     0.49      1014.8     1.2     NNE    32   3.5     NNE      29     263       526       1.1       3.2      68.9      4.16
   06/07/2020 10:40      72.0      71.2       30     38.9      0.00     17.48      74.1     0.49      1014.8     1.6      NE    54   3.4     ENE      78     264       515       1.1       3.0      67.1      4.17
   06/07/2020 10:30      71.9      70.3       31     39.3      0.00     17.48      74.3     0.49      1014.8     1.7      NE    53   4.4     ENE      74     264       500       1.1       2.9      65.7      4.17
   06/07/2020 10:20      70.3      69.5       32     39.0      0.00     17.48      74.2     0.49      1014.8     2.3     SSW   197   4.7     SSW     206     264       486       1.8       2.7      64.4      4.17
   06/07/2020 10:10      71.1      69.5       33     39.6      0.00     17.48      74.1     0.49      1014.8     1.7       W   264   5.2     WSW     249     264       469       1.1       2.4      63.1      4.17
   06/07/2020 10:00      70.3      69.2       33     39.1      0.00     17.48      74.2     0.49      1014.7     1.5     NNW   327   4.2       N     353     264       452       1.1       2.2      62.1      4.17
   06/07/2020 09:50      69.4      68.5       34     39.2      0.00     17.48      74.4     0.49      1014.7     1.3      NE    37   4.3     NNW     341     264       434       0.7       2.0      60.8      4.17
   06/07/2020 09:40      69.0      67.8       34     39.2      0.00     17.48      74.4     0.49      1014.7     2.0      SE   136   5.2      SE     131     264       418       1.4       1.9      59.6      4.17
   06/07/2020 09:30      68.4      67.8       35     39.3      0.00     17.48      74.5     0.49      1014.7     1.6     ESE   119   3.7     ESE     118     264       400       1.0       1.7      58.3      4.17
   06/07/2020 09:20      68.0      67.1       37     40.1      0.00     17.48      74.5     0.49      1014.7     1.7      NE    55   4.4     ENE      65     264       383       0.6       1.5      57.3      4.17
   06/07/2020 09:10      67.5      67.0       37     40.3      0.00     17.48      74.5     0.49      1014.7     1.4      NE    44   3.4     NNE      26     265       369       0.6       1.4      56.2      4.17
   06/07/2020 09:00      67.0      64.6       39     40.0      0.00     17.48      74.6     0.49      1014.7     0.8     SSE   155   2.9      SE     129     265       366       0.6       1.3      55.3      4.16
   06/07/2020 08:50      64.7      63.5       41     40.0      0.00     17.48      74.6     0.49      1014.7     1.9       N     2   3.9      NE      51     266       338       0.7       1.2      54.6      4.16
   06/07/2020 08:40      63.8      63.2       43     40.4      0.00     17.48      74.7     0.49      1014.7     1.4      NE    41   2.9      NE      45     268       -20       0.4       1.1      53.4      4.16
   06/07/2020 08:30      63.3      62.5       41     39.0      0.00     17.48      74.7     0.49      1014.7     1.4     SSW   196   3.1     WNW     294     276        -9       1.1       1.0      52.8      4.16
   06/07/2020 08:20      62.7      61.9       43     39.6      0.00     17.48      74.8     0.49      1014.6     1.4      NW   308   4.7       W     261     305       -37       1.1       0.8      52.7      4.16
   06/07/2020 08:10      62.1      61.4       46     40.7      0.00     17.48      74.8     0.49      1014.5     0.8     NNE    21   3.0       N      11     324       -35       0.1       0.7      52.7      4.17
   06/07/2020 08:00      61.4      60.8       48     41.1      0.00     17.48      74.9     0.49      1014.4     0.6       N    10   2.1     NNE      13     333       -26       0.2       0.6      52.6      4.17
   06/07/2020 07:50      60.9      60.2       51     42.3      0.00     17.48      74.8     0.49      1014.3     0.8     NNE    28   2.6     ENE      59     342         5       0.5       0.6      52.6      4.17
   06/07/2020 07:40      60.5      59.8       54     43.3      0.00     17.48      75.0     0.49      1014.2     1.1       W   276   4.2       W     271     346        24       0.8       0.5      52.5      4.17
   06/07/2020 07:30      59.9      58.7       58     44.5      0.00     17.48      75.1     0.49      1014.1     0.7      SW   218   2.4       W     266     350        41       0.3       0.4      52.6      4.17
   06/07/2020 07:20      58.7      57.1       66     46.9      0.00     17.48      76.2     0.49      1014.1     0.9     SSE   146   2.1      SE     140     363        12       0.0       0.3      53.4      4.17
   06/07/2020 07:10      57.1      54.6       79     49.6      0.00     17.48      76.2     0.49      1014.0     0.7      SE   142   1.8      SE     135     380        12       0.0       0.3      53.4      4.17
   06/07/2020 07:00      54.8      54.1       87     50.9      0.00     17.48      76.3     0.49      1014.0     0.0     WSW   243   0.9       S     187     398        10       0.0       0.3      53.4      4.17
   06/07/2020 06:50      54.5      53.7       89     50.9      0.00     17.48      76.4     0.49      1014.0     0.1       E    87   0.6      SE     131     402         7       0.0       0.3      53.5      4.17
   06/07/2020 06:40      53.8      52.5       90     50.2      0.00     17.48      76.4     0.49      1013.9     0.2     ENE    58   1.1      SE     144     401         4       0.0       0.3      53.5      4.17
   06/07/2020 06:30      52.8      52.1       90     49.8      0.00     17.48      76.5     0.49      1013.8     0.2     SSE   147   1.3     SSE     147     399        -3       0.0       0.3      53.6      4.17
   06/07/2020 06:20      52.3      51.7       91     49.4      0.00     17.48      76.5     0.49      1013.8     0.0       N     0   0.0     ENE      67     395        -9       0.0       0.3      53.7      4.17
   06/07/2020 06:10      51.8      51.3       91     48.9      0.00     17.48      76.6     0.49      1013.7     0.2     SSE   151   1.0     SSE     150     399        -7       0.0       0.3      53.7      4.17
   06/07/2020 06:00      51.8      51.1       91     48.9      0.00     17.48      76.7     0.49      1013.7     1.0     SSE   155   2.7      SE     141     403       -12       0.3       0.3      53.9      4.17
   06/07/2020 05:50      51.9      51.1       91     48.9      0.00     17.48      75.9     0.49      1013.6     1.6      SE   130   3.5      SE     142     407       -16       0.5       0.3      53.5      4.17
   06/07/2020 05:40      51.9      51.1       91     49.0      0.00     17.48      76.0     0.49      1013.5     0.5      SE   144   2.3      SE     135     403       -18       0.4       0.2      53.7      4.17
   06/07/2020 05:30      51.9      51.3       91     49.0      0.00     17.48      76.0     0.49      1013.4     0.6     SSE   150   2.0       W     276     399       -19       0.1       0.2      53.9      4.17
   06/07/2020 05:20      52.1      51.8       91     49.3      0.00     17.48      76.0     0.49      1013.3     0.2     SSE   159   1.3     SSE     152     395       -19       0.0       0.1      54.1      4.17
   06/07/2020 05:10      52.2      51.8       91     49.3      0.00     17.48      76.1     0.49      1013.2     0.1       S   180   0.9     SSW     200     393       -20       0.0       0.1      54.4      4.17
   06/07/2020 05:00      52.7      51.8       90     49.5      0.00     17.48      76.1     0.49      1013.2     0.0     SSE   150   0.9     SSE     149     389       -20       0.0       0.1      54.5      4.17
   06/07/2020 04:50      52.7      52.4       91     49.9      0.00     17.48      76.0     0.49      1013.2     0.2     SSE   164   0.8     SSW     196     386       -21       0.0       0.1      54.6      4.17
   06/07/2020 04:40      52.8      52.3       90     49.8      0.00     17.48      76.0     0.49      1013.2     0.3     SSE   148   0.8     SSE     147     380       -21       0.0       0.1      54.8      4.17
   06/07/2020 04:30      53.3      52.5       90     50.0      0.00     17.48      76.1     0.49      1013.2     0.2     SSE   151   1.1      SE     135     371       -21       0.0       0.1      55.0      4.17
   06/07/2020 04:20      53.3      53.0       90     50.3      0.00     17.48      76.2     0.49      1013.2     0.9     SSE   164   2.1     SSW     204     367       -21       0.2       0.1      55.2      4.17
   06/07/2020 04:10      53.0      52.6       90     49.9      0.00     17.48      76.2     0.50      1013.2     0.4     SSE   158   1.5      SE     134     360       -22       0.0       0.0      55.5      4.17
   06/07/2020 04:00      52.9      52.5       89     49.7      0.00     17.48      76.2     0.50      1013.2     0.3       S   169   1.5       S     185     355       -23       0.0       0.0      55.7      4.17
   06/07/2020 03:50      53.2      52.7       89     49.7      0.00     17.48      76.3     0.50      1013.2     0.4     SSE   151   1.3      SE     142     350       -24       0.0       0.0      55.8      4.17
   06/07/2020 03:40      53.5      52.6       88     49.7      0.00     17.48      76.3     0.50      1013.2     0.2     SSE   156   1.0       S     184     341       -24       0.0       0.0      56.1      4.17
   06/07/2020 03:30      53.8      53.2       88     50.1      0.00     17.48      76.4     0.50      1013.2     0.3     SSE   158   0.8     SSE     168     334       -24       0.0       0.0      56.2      4.17
   06/07/2020 03:20      53.7      53.5       88     50.1      0.00     17.48      76.4     0.50      1013.3     0.4     SSE   168   1.2       S     181     326       -25       0.0       0.0      56.5      4.17
   06/07/2020 03:10      53.9      53.5       87     50.0      0.00     17.48      76.5     0.50      1013.4     0.2     SSE   154   0.7     SSE     162     321       -26       0.0       0.0      56.8      4.17
   06/07/2020 03:00      54.3      53.8       87     50.3      0.00     17.48      76.5     0.50      1013.4     0.0     SSE   149   0.6     SSE     149     313       -27       0.0       0.0      57.0      4.17
   06/07/2020 02:50      54.5      54.1       87     50.5      0.00     17.48      76.5     0.50      1013.5     0.3     SSW   198   1.3     SSW     195     309       -28       0.1       0.0      57.2      4.17
   06/07/2020 02:40      54.5      54.0       87     50.5      0.00     17.48      76.6     0.50      1013.6     0.7      SE   145   1.7      SE     140     302       -30       0.0       0.0      57.5      4.17
   06/07/2020 02:30      54.5      54.1       87     50.5      0.00     17.48      76.6     0.50      1013.6     0.7     SSE   154   1.5      SE     146     298       -30       0.0       0.0      57.7      4.17
   06/07/2020 02:20      54.8      54.0       86     50.4      0.00     17.48      76.7     0.50      1013.7     0.7     SSE   150   1.7      SE     139     291       -31       0.0       0.0      57.9      4.17
   06/07/2020 02:10      54.9      54.5       86     50.5      0.00     17.48      76.7     0.50      1013.7     0.4     SSE   168   1.4       S     182     286       -32       0.0       0.0      58.1      4.17
   06/07/2020 02:00      55.1      54.7       86     50.7      0.00     17.48      76.7     0.50      1013.9     0.2     SSE   153   0.7     SSE     154     281       -33       0.0       0.0      58.4      4.17
   06/07/2020 01:50      55.4      54.9       85     50.8      0.00     17.48      76.7     0.50      1013.9     0.1     SSE   163   0.7     SSE     149     277       -36       0.0       0.0      58.6      4.17
   06/07/2020 01:40      55.3      54.8       85     50.7      0.00     17.48      76.8     0.50      1014.0     0.3     SSE   164   0.7     SSW     199     270       -37       0.0       0.0      58.9      4.17
   06/07/2020 01:30      55.3      54.9       85     50.7      0.00     17.48      76.8     0.50      1013.9     0.0     SSE   156   0.3     SSE     157     266       -40       0.0       0.0      59.1      4.17
   06/07/2020 01:20      55.4      55.1       85     50.8      0.00     17.48      76.9     0.50      1014.0     0.3     SSE   157   0.8     SSE     157     258       -42       0.0       0.0      59.4      4.17
   06/07/2020 01:10      55.3      55.0       85     50.7      0.00     17.48      76.8     0.50      1013.9     0.0       N     0   0.0       S     178     252       -45       0.0       0.0      59.7      4.17
   06/07/2020 01:00      55.5      54.9       84     50.5      0.00     17.48      77.0     0.50      1014.0     0.3       S   174   0.9       S     179     248       -48       0.0       0.0      60.0      4.17
   06/07/2020 00:50      55.8      55.4       84     50.8      0.00     17.48      77.0     0.50      1014.0     0.2     SSE   157   0.8     SSE     163     245       -50       0.0       0.0      60.2      4.17
   06/07/2020 00:40      55.7      55.1       84     50.7      0.00     17.48      77.0     0.50      1014.0     0.2      SE   144   1.0     SSE     147     244       -53       0.0       0.0      60.5      4.17
   06/07/2020 00:30      55.7      55.1       82     50.2      0.00     17.48      77.0     0.50      1013.9     0.4     SSE   169   0.8       S     169     247       -56       0.0       0.0      60.8      4.17
   06/07/2020 00:20      56.0      55.5       82     50.5      0.00     17.48      77.1     0.50      1013.9     0.1     SSE   158   0.7     SSE     156     250       -57       0.0       0.0      61.2      4.17
   06/07/2020 00:10      56.7      55.9       81     50.4      0.00     17.48      77.1     0.50      1013.9     0.4     SSE   159   1.1       S     177     262       -59       0.0       0.0      61.5      4.17
   06/07/2020 00:00      56.7      56.4       81     50.8      0.00     17.48      77.1     0.50      1013.9     0.2     SSE   159   0.7     SSE     158     267       -58       0.0      29.1      61.7      4.17
   06/06/2020 23:50      56.7      56.4       81     50.5      0.00     17.48      77.1     0.50      1013.9     0.0     SSE   165   0.7     SSE     165     268       -60       0.0      29.1      62.0      4.17
   06/06/2020 23:40      57.1      56.5       80     50.6      0.00     17.48      77.2     0.50      1013.9     0.2     SSE   161   0.9      SE     135     272       -61       0.0      29.1      62.3      4.17
   06/06/2020 23:30      57.5      56.9       79     50.7      0.00     17.48      77.2     0.50      1014.0     0.6     SSE   148   1.1     SSE     155     273       -61       0.0      29.1      62.7      4.18
   06/06/2020 23:20      57.6      57.4       78     50.8      0.00     17.48      77.2     0.50      1014.0     0.4     SSE   156   1.0     SSE     155     273       -62       0.0      29.1      63.0      4.18
   06/06/2020 23:10      58.0      57.5       77     50.7      0.00     17.48      77.3     0.50      1014.0     0.5       S   176   1.4       S     188     273       -62       0.1      29.1      63.2      4.18
   06/06/2020 23:00      58.5      58.0       76     51.0      0.00     17.48      77.3     0.50      1014.0     0.0     SSE   165   0.4     SSE     165     272       -62       0.0      29.1      63.6      4.18
   06/06/2020 22:50      59.0      58.2       75     50.6      0.00     17.48      77.3     0.50      1014.0     0.2     SSE   168   0.9       S     169     272       -62       0.0      29.1      63.9      4.18
   06/06/2020 22:40      59.4      58.7       73     50.6      0.00     17.48      77.4     0.50      1014.1     0.4     SSE   168   1.1       S     180     271       -62       0.0      29.1      64.2      4.18
   06/06/2020 22:30      59.8      59.1       72     50.5      0.00     17.48      77.3     0.50      1014.2     0.2       S   179   0.6       S     190     271       -62       0.0      29.1      64.6      4.18
   06/06/2020 22:20      60.0      59.7       72     50.6      0.00     17.48      77.3     0.50      1014.2     0.0     SSE   168   0.7       S     170     270       -63       0.0      29.1      65.0      4.18
   06/06/2020 22:10      60.1      59.8       71     50.5      0.00     17.48      77.4     0.50      1014.1     0.2     SSW   201   0.9     SSW     201     270       -63       0.0      29.1      65.4      4.18
   06/06/2020 22:00      60.0      59.6       71     50.3      0.00     17.48      77.4     0.50      1014.0     0.0     SSE   150   0.8     ESE     117     270       -64       0.0      29.1      65.7      4.18
   06/06/2020 21:50      60.3      59.8       70     50.1      0.00     17.48      77.4     0.50      1014.0     0.0       N     0   0.0     SSE     155     270       -64       0.0      29.1      66.0      4.18
   06/06/2020 21:40      60.9      60.2       69     50.1      0.00     17.48      77.5     0.50      1013.9     0.0     SSE   158   0.5     SSE     159     270       -64       0.0      29.1      66.4      4.18
   06/06/2020 21:30      61.2      60.7       68     50.3      0.00     17.48      77.5     0.50      1013.9     0.0     SSE   151   0.5     SSE     151     270       -64       0.0      29.1      66.8      4.18
   06/06/2020 21:20      61.8      61.0       67     50.3      0.00     17.48      77.5     0.50      1013.9     0.0       N     0   0.0       E      90     270       -64       0.0      29.1      67.2      4.18
   06/06/2020 21:10      61.9      61.5       66     50.3      0.00     17.48      77.5     0.50      1013.8     0.2       S   186   1.7       S     187     269       -65       0.1      29.1      67.6      4.18
   06/06/2020 21:00      62.4      61.6       65     50.0      0.00     17.48      77.5     0.50      1013.7     0.6       S   183   1.8       S     185     269       -66       0.1      29.1      68.1      4.18
   06/06/2020 20:50      63.4      62.4       63     49.9      0.00     17.48      77.5     0.50      1013.7     0.5       S   181   1.8     SSW     192     269       -67       0.0      29.1      68.4      4.18
   06/06/2020 20:40      64.0      63.2       62     50.1      0.00     17.48      77.5     0.50      1013.5     1.0       S   190   1.5     SSW     201     268       -67       0.0      29.1      68.9      4.19
   06/06/2020 20:30      65.5      63.8       58     50.0      0.00     17.48      77.4     0.50      1013.5     0.8     ESE   123   1.6      SE     143     268       -70       0.0      29.0      69.3      4.19
   06/06/2020 20:20      65.7      65.3       58     50.1      0.00     17.48      77.5     0.50      1013.6     0.3     SSE   158   1.4      SW     224     268       -71       0.0      29.0      69.6      4.19
   06/06/2020 20:10      66.6      65.7       56     50.0      0.00     17.48      77.6     0.50      1013.5     1.9       S   179   3.1       S     186     268       -71       1.2      29.0      70.1      4.19
   06/06/2020 20:00      67.3      66.5       54     49.9      0.00     17.48      77.6     0.50      1013.5     1.7       S   178   3.5     SSW     213     268       -63       1.0      28.9      70.4      4.19
   06/06/2020 19:50      67.4      67.1       53     49.6      0.00     17.48      77.5     0.50      1013.4     2.6      SE   143   5.7      SE     136     268       -49       1.0      28.7      70.8      4.19
   06/06/2020 19:40      67.9      67.4       53     49.8      0.00     17.48      77.6     0.50      1013.3     2.7     SSE   154   5.7      SE     141     268       -36       1.5      28.5      71.1      4.19
   06/06/2020 19:30      68.4      67.7       53     49.9      0.00     17.48      77.5     0.50      1013.4     2.8     SSE   151   5.8      SE     142     268       -13       1.7      28.3      71.4      4.19
   06/06/2020 19:20      68.9      68.1       52     50.1      0.00     17.48      77.5     0.50      1013.4     3.2     ESE   122   8.0      SE     129     268        -4       1.6      28.0      71.7      4.19
   06/06/2020 19:10      69.0      68.2       52     50.0      0.00     17.48      77.6     0.50      1013.3     2.1     ESE   117   4.8      SE     130     267        23       1.0      27.7      72.0      4.19
   06/06/2020 19:00      68.5      68.2       52     49.9      0.00     17.48      77.6     0.50      1013.4     1.5       E    98   3.9     ESE     117     268        -8       0.7      27.6      72.3      4.20
   06/06/2020 18:50      68.8      68.4       51     49.9      0.00     17.48      77.5     0.50      1013.5     2.2      SE   146   4.0     SSE     157     267        -9       1.4      27.4      72.6      4.20
   06/06/2020 18:40      68.8      68.1       52     50.0      0.00     17.48      77.6     0.50      1013.4     1.8     SSE   151   3.7     ESE     116     267        13       1.1      27.2      72.8      4.20
   06/06/2020 18:30      68.5      68.2       52     49.9      0.00     17.48      77.6     0.50      1013.5     3.2      SE   135   6.3      SE     141     267        27       1.3      27.0      73.0      4.20
   06/06/2020 18:20      68.4      68.1       52     50.0      0.00     17.48      77.6     0.50      1013.5     3.5     ESE   120   6.1      SE     138     267        40       1.7      26.8      73.4      4.20
   06/06/2020 18:10      68.5      68.0       52     50.1      0.00     17.48      77.6     0.50      1013.5     3.6     ESE   119   7.0      SE     139     267        44       1.8      26.5      73.7      4.20
   06/06/2020 18:00      68.6      68.3       52     50.2      0.00     17.48      77.5     0.50      1013.5     3.1     ESE   121   5.7      SE     145     267        51       1.7      26.2      73.9      4.20
   06/06/2020 17:50      68.5      68.1       52     50.2      0.00     17.48      77.5     0.50      1013.5     3.2      SE   129   7.0      SE     141     267        52       1.6      25.9      74.2      4.20
   06/06/2020 17:40      68.5      68.1       53     50.5      0.00     17.48      77.7     0.50      1013.5     3.8      SE   127   6.8     ESE     123     267        54       1.9      25.7      74.5      4.20
   06/06/2020 17:30      68.7      68.2       53     50.8      0.00     17.48      77.7     0.50      1013.7     2.8      SE   124   6.7      SE     142     267        51       1.3      25.4      74.8      4.20
   06/06/2020 17:20      68.7      68.2       53     50.8      0.00     17.48      77.7     0.50      1013.8     2.6     ESE   115   5.0      SE     132     267        45       1.4      25.1      75.3      4.21
   06/06/2020 17:10      68.9      68.5       53     50.9      0.00     17.48      77.6     0.50      1013.8     2.2     ESE   120   5.2     ESE     123     267        44       1.1      24.9      75.6      4.21
   06/06/2020 17:00      69.0      68.5       53     50.8      0.00     17.48      77.5     0.50      1013.9     2.1      SE   132   5.7     ENE      65     267        40       1.5      24.7      75.9      4.21
   06/06/2020 16:50      68.9      68.4       53     50.8      0.00     17.48      77.6     0.50      1014.0     2.4     SSE   164   6.0      SE     129     267        38       1.5      24.5      76.1      4.21
   06/06/2020 16:40      68.9      68.4       53     50.8      0.00     17.48      77.6     0.50      1014.1     2.7      SE   134   5.5      SE     135     267        39       1.5      24.2      76.6      4.21
   06/06/2020 16:30      69.0      68.7       52     50.7      0.00     17.48      77.6     0.50      1014.0     2.2      SE   128   5.7     ESE     118     267        39       1.4      24.0      77.0      4.21
   06/06/2020 16:20      69.2      68.7       52     50.5      0.00     17.48      77.6     0.50      1013.9     2.8      SE   130   7.8      SE     143     267        42       1.5      23.8      77.4      4.22
   06/06/2020 16:10      69.2      68.8       51     50.4      0.00     17.48      77.5     0.50      1013.9     2.9      SE   124   6.6     SSE     148     267        39       1.6      23.5      77.7      4.22
   06/06/2020 16:00      69.5      69.0       51     50.6      0.00     17.48      77.6     0.50      1013.9     3.0     ESE   123   5.7      SE     126     267        51       1.9      23.2      78.1      4.22
   06/06/2020 15:50      70.5      69.3       50     50.3      0.00     17.48      77.5     0.50      1013.9     3.0       E    86   6.4     ESE     121     267        67       1.7      22.9      78.6      4.22
   06/06/2020 15:40      70.3      69.6       50     50.3      0.00     17.48      77.5     0.50      1014.0     2.2     ESE   119   7.0      SE     125     266       113       1.2      22.6      78.8      4.23
   06/06/2020 15:30      70.6      70.1       49     50.4      0.00     17.48      77.4     0.50      1014.0     3.1       E    94   6.4     ENE      71     266       138       1.8      22.4      79.3      4.23
   06/06/2020 15:20      70.9      70.3       48     50.2      0.00     17.48      77.5     0.50      1014.0     3.7      SE   138   6.6       E      96     266       191       1.8      22.1      79.4      4.23
   06/06/2020 15:10      71.1      70.5       48     50.2      0.00     17.48      77.4     0.50      1014.0     2.0      SE   127   5.0     ENE      72     266       199       1.3      21.8      79.5      4.23
   06/06/2020 15:00      70.7      70.0       49     50.2      0.00     17.48      77.3     0.50      1014.1     3.2     ESE   111   8.2     ENE      66     267       164       1.6      21.6      79.4      4.23
   06/06/2020 14:50      70.9      70.3       48     49.9      0.00     17.48      77.4     0.50      1014.1     3.2     SSE   148   6.2       S     191     266       156       1.9      21.3      79.5      4.24
   06/06/2020 14:40      70.8      69.8       48     49.6      0.00     17.48      77.4     0.50      1014.2     2.1      SE   137   5.7      SE     129     266       158       1.2      21.0      79.6      4.24
   06/06/2020 14:30      70.6      69.8       49     50.2      0.00     17.48      77.2     0.50      1014.2     3.4     ESE   121   7.4      SE     139     267       150       1.7      20.8      79.6      4.24
   06/06/2020 14:20      70.6      69.9       49     50.4      0.00     17.48      77.3     0.50      1014.2     4.0     ESE   114   8.9     ESE     110     267       200       2.1      20.5      79.5      4.24
   06/06/2020 14:10      70.8      69.6       49     50.5      0.00     17.48      77.2     0.50      1014.4     4.2      SE   125   9.2      SE     145     266       476       2.1      20.2      79.3      4.25
   06/06/2020 14:00      69.8      69.2       50     50.3      0.00     17.48      77.3     0.50      1014.3     4.8     ESE   115  10.4      SE     139     267       302       2.6      19.9      78.9      4.25
   06/06/2020 13:50      71.2      70.0       49     50.4      0.00     17.48      77.2     0.50      1014.3     4.8     ESE   114  10.7      SE     126     266       480       2.4      19.4      78.6      4.25
   06/06/2020 13:40      70.6      69.2       50     50.3      0.00     17.48      77.2     0.50      1014.5     4.1     ESE   119   9.5     ESE     120     267       372       2.4      19.0      78.0      4.25
   06/06/2020 13:30      70.6      69.3       50     50.3      0.00     17.48      77.3     0.50      1014.5     4.0     ESE   120   7.8       E      93     266       238       2.2      18.6      77.7      4.25
   06/06/2020 13:20      71.2      69.7       49     50.7      0.00     17.48      77.2     0.50      1014.5     3.9     ESE   120   8.1      SE     129     266       464       2.1      18.3      77.5      4.25
   06/06/2020 13:10      70.2      69.3       50     50.6      0.00     17.48      77.1     0.50      1014.7     3.8      SE   142   8.0     SSE     148     267       309       2.2      17.9      76.6      4.26
   06/06/2020 13:00      70.4      69.3       50     50.4      0.00     17.48      77.2     0.50      1014.6     3.7     SSE   159   6.9      SE     133     266       399       2.3      17.5      76.1      4.26
   06/06/2020 12:50      69.7      69.0       50     50.1      0.00     17.48      77.2     0.50      1014.6     4.0       S   187   9.5     SSW     201     266       301       2.7      17.1      75.5      4.26
   06/06/2020 12:40      69.5      68.6       51     50.0      0.00     17.48      77.1     0.50      1014.6     3.0     SSE   166   6.0     SSE     168     267       192       1.9      16.7      75.3      4.26
   06/06/2020 12:30      69.5      68.6       51     50.1      0.00     17.48      77.2     0.50      1014.6     3.7       S   179   8.4     SSW     207     267       242       2.4      16.4      75.2      4.27
   06/06/2020 12:20      69.3      68.6       51     50.1      0.00     17.48      77.1     0.50      1014.6     3.6     SSE   153   5.8       S     178     267       189       2.1      16.0      75.0      4.27
   06/06/2020 12:10      68.9      68.5       51     49.9      0.00     17.48      77.3     0.50      1014.6     2.8      SE   143   6.2      SE     124     267       243       1.7      15.6      74.5      4.27
   06/06/2020 12:00      69.0      68.4       51     50.0      0.00     17.48      77.2     0.50      1014.6     3.4      SE   138   7.5      SE     135     267       215       1.9      15.3      74.5      4.27
   06/06/2020 11:50      69.1      68.1       52     50.1      0.00     17.48      77.0     0.50      1014.6     3.0     ESE   123   6.9     ENE      64     266       269       1.9      15.0      73.8      4.27
   06/06/2020 11:40      70.2      68.6       50     49.9      0.00     17.48      77.2     0.50      1014.6     3.1       S   171   6.3       S     190     267       172       2.0      14.7      73.4      4.27
   06/06/2020 11:30      70.2      69.1       50     50.4      0.00     17.48      77.1     0.50      1014.6     2.6     ESE   122   6.1      SE     141     266       375       1.4      14.4      72.9      4.27
   06/06/2020 11:20      69.3      68.1       52     50.3      0.00     17.48      77.1     0.50      1014.5     3.7      SE   142   6.7      SE     137     266       475       2.3      14.1      71.8      4.27
   06/06/2020 11:10      68.4      67.9       52     50.0      0.00     17.48      77.1     0.50      1014.5     3.6     SSW   201   7.6       S     189     267       342       2.7      13.7      71.0      4.28
   06/06/2020 11:00      68.0      67.4       53     49.8      0.00     17.48      77.2     0.50      1014.5     3.7       S   171   7.4       S     190     267       331       2.3      13.3      70.3      4.28
   06/06/2020 10:50      67.7      66.7       53     49.5      0.00     17.48      77.1     0.50      1014.5     3.6     SSE   157   8.0      SE     143     267       265       2.1      12.9      69.8      4.28
   06/06/2020 10:40      67.2      66.4       54     49.5      0.00     17.48      77.1     0.50      1014.6     4.0       S   170   7.0     SSW     208     268       230       2.8      12.5      69.1      4.28
   06/06/2020 10:30      67.0      66.2       54     49.2      0.00     17.48      77.3     0.50      1014.5     3.9     SSW   195   9.1     SSW     199     268       213       2.7      12.1      68.8      4.28
   06/06/2020 10:20      66.7      66.2       53     48.6      0.00     17.48      77.1     0.50      1014.4     4.1       S   179   9.5     SSW     192     268       202       2.8      11.6      68.4      4.28
   06/06/2020 10:10      67.4      65.8       53     48.9      0.00     17.48      77.3     0.50      1014.3     5.0       S   188   9.3       S     191     267       241       3.4      11.2      68.2      4.28
   06/06/2020 10:00      67.0      66.0       55     50.0      0.00     17.48      77.2     0.50      1014.1     3.3     ESE   117   6.3     NNE      30     267       347       1.9      10.6      67.5      4.28
   06/06/2020 09:50      66.7      65.9       56     50.3      0.00     17.48      77.7     0.50      1014.2     3.8      SE   126   7.7      SE     133     267       272       2.1      10.3      66.9      4.28
   06/06/2020 09:40      66.4      65.7       56     50.1      0.00     17.48      77.9     0.50      1014.2     3.8       S   185   8.7     WSW     249     268       234       2.6       9.9      66.5      4.28
   06/06/2020 09:30      66.8      65.7       56     50.0      0.00     17.48      77.8     0.50      1014.4     3.8     SSW   195   7.6       S     174     268       181       2.4       9.5      66.0      4.28
   06/06/2020 09:20      66.6      65.3       58     51.1      0.00     17.48      77.8     0.50      1014.5     2.1     SSE   167   5.0     SSE     163     268       288       1.3       9.1      65.7      4.28
   06/06/2020 09:10      65.3      64.2       62     51.2      0.00     17.48      77.9     0.50      1014.6     2.3       S   174   4.4     SSW     193     268       215       1.6       8.9      64.8      4.28
   06/06/2020 09:00      64.6      64.2       62     51.2      0.00     17.48      77.8     0.50      1014.5     3.3     SSE   162   6.0      SE     143     268       141       2.0       8.6      64.4      4.28
   06/06/2020 08:50      64.5      63.9       62     51.1      0.00     17.48      77.3     0.50      1014.5     3.1     SSE   166   6.5     SSE     155     269       124       1.8       8.3      63.5      4.28
   06/06/2020 08:40      64.6      63.7       62     51.2      0.00     17.48      76.8     0.50      1014.4     2.7     SSE   153   5.1       S     174     268       126       1.5       8.0      62.7      4.28
   06/06/2020 08:30      64.1      63.8       63     51.0      0.00     17.48      76.8     0.50      1014.4     3.6     SSE   161   7.1      SE     133     268       129       1.9       7.7      62.1      4.28
   06/06/2020 08:20      64.3      63.8       64     51.5      0.00     17.48      76.9     0.50      1014.3     2.2     SSE   161   4.3      SE     143     269        94       1.1       7.4      61.7      4.29
   06/06/2020 08:10      64.5      64.1       64     51.8      0.00     17.48      76.9     0.50      1014.2     2.1       S   183   5.5      SE     128     269       119       1.2       7.2      61.4      4.29
   06/06/2020 08:00      64.5      64.3       64     52.1      0.00     17.48      77.0     0.50      1014.1     1.5       E   100   3.3     SSE     159     269       109       0.9       7.0      60.9      4.29
   06/06/2020 07:50      64.4      63.6       65     52.1      0.00     17.48      77.0     0.50      1013.9     0.2     ENE    60   1.8      SE     127     269        88       0.2       6.9      60.7      4.29
   06/06/2020 07:40      63.7      63.2       66     52.0      0.00     17.48      77.1     0.50      1013.7     0.7      NE    43   2.1     ENE      58     269        89       0.2       6.8      60.5      4.29
   06/06/2020 07:30      63.3      62.0       68     51.9      0.00     17.48      77.0     0.50      1013.7     0.3      NW   318   1.5     NNW     343     269        92       0.2       6.8      60.5      4.29
   06/06/2020 07:20      62.1      61.2       70     51.7      0.00     17.48      77.1     0.50      1013.6     0.7     WNW   297   2.7       W     279     270        50       0.4       6.8      60.3      4.29
   06/06/2020 07:10      61.4      61.0       70     51.5      0.00     17.48      77.2     0.50      1013.6     1.4       W   267   3.7     WSW     249     270       -14       1.1       6.7      60.4      4.29
   06/06/2020 07:00      61.2      60.7       71     51.3      0.00     17.48      77.2     0.50      1013.4     0.6       W   271   1.7       W     279     270       -27       0.1       6.5      60.5      4.29
   06/06/2020 06:50      61.0      60.4       71     51.2      0.00     17.48      77.2     0.50      1013.4     1.3      SW   236   2.5      SW     230     270       -25       0.6       6.5      60.5      4.29
   06/06/2020 06:40      60.5      59.9       71     51.0      0.00     17.48      77.2     0.50      1013.4     1.7     SSW   212   3.4     WSW     254     270       -20       1.0       6.4      60.6      4.29
   06/06/2020 06:30      60.4      59.9       71     50.6      0.00     17.48      77.3     0.50      1013.2     1.2     SSW   205   2.1     SSW     209     270       -38       0.9       6.2      60.7      4.29
   06/06/2020 06:20      60.9      60.3       70     50.5      0.00     17.48      77.3     0.50      1013.0     0.8     SSW   199   1.7     SSW     200     270       -47       0.3       6.1      60.8      4.29
   06/06/2020 06:10      61.3      60.7       68     50.5      0.00     17.48      77.3     0.50      1013.0     1.5     SSW   203   2.6     SSW     211     270       -52       0.7       6.0      61.0      4.29
   06/06/2020 06:00      61.6      61.2       67     50.5      0.00     17.48      77.4     0.50      1013.0     2.2      SW   228   3.6     SSW     210     270       -45       1.4       5.9      61.1      4.29
   06/06/2020 05:50      62.0      61.4       67     50.7      0.00     17.48      77.3     0.50      1012.9     1.6      SW   225   3.9      SW     235     270       -45       0.8       5.7      61.1      4.29
   06/06/2020 05:40      62.0      61.7       67     50.7      0.00     17.48      77.5     0.50      1012.9     1.9     WSW   237   3.3     WSW     257     270       -28       1.2       5.5      61.2      4.29
   06/06/2020 05:30      62.1      61.8       67     50.8      0.00     17.48      77.5     0.50      1012.7     1.4     WSW   242   2.6       W     264     270       -28       0.7       5.3      61.3      4.29
   06/06/2020 05:20      62.1      61.8       67     51.0      0.00     17.48      77.6     0.50      1012.6     1.1      SW   234   2.5     SSW     214     270       -23       0.6       5.2      61.3      4.29
   06/06/2020 05:10      62.1      61.8       68     51.1      0.00     17.48      77.5     0.50      1012.5     0.9      SW   227   2.8     WSW     238     270       -19       0.4       5.1      61.3      4.29
   06/06/2020 05:00      62.0      61.7       70     51.9      0.00     17.48      77.6     0.50      1012.5     1.2      SW   223   3.1     WSW     237     270       -18       0.6       5.1      61.3      4.29
   06/06/2020 04:50      62.0      61.7       71     52.3      0.00     17.48      77.7     0.50      1012.4     0.2     SSW   194   1.4     SSW     209     270       -18       0.0       5.0      61.4      4.29
   06/06/2020 04:40      61.9      61.6       71     52.3      0.00     17.48      77.7     0.50      1012.4     0.8       S   173   2.0     SSW     195     270       -18       0.3       5.0      61.4      4.29
   06/06/2020 04:30      62.0      61.6       71     52.3      0.00     17.48      77.7     0.50      1012.2     0.9      SE   136   2.2     SSW     199     270       -18       0.4       4.9      61.5      4.29
   06/06/2020 04:20      61.9      61.6       71     52.3      0.00     17.48      77.8     0.50      1012.1     0.8      SE   129   2.4      SE     134     270       -18       0.3       4.8      61.6      4.29
   06/06/2020 04:10      61.9      61.5       71     52.3      0.00     17.48      77.8     0.50      1012.0     0.8      SE   138   2.5      SE     136     270       -18       0.2       4.8      61.6      4.29
   06/06/2020 04:00      61.8      61.5       71     52.3      0.00     17.48      77.8     0.50      1012.0     1.3      SE   127   2.4      SE     139     270       -18       0.4       4.8      61.7      4.29
   06/06/2020 03:50      61.8      61.5       71     52.3      0.00     17.48      77.9     0.50      1012.0     1.1     SSE   167   2.2     SSW     210     270       -18       0.5       4.7      61.7      4.29
   06/06/2020 03:40      61.7      61.5       71     52.2      0.00     17.48      77.9     0.50      1012.1     1.2     SSE   161   2.2       S     172     270       -17       0.3       4.6      61.8      4.29
   06/06/2020 03:30      61.7      61.5       71     52.3      0.00     17.48      78.0     0.50      1012.1     1.6       S   191   3.0     SSW     194     270       -16       0.9       4.6      61.8      4.29
   06/06/2020 03:20      61.9      61.5       71     52.4      0.00     17.48      77.9     0.50      1012.0     1.8       S   182   3.2     SSE     168     270       -15       1.1       4.4      61.9      4.29
   06/06/2020 03:10      61.9      61.6       72     52.6      0.00     17.48      78.0     0.50      1012.1     1.9     SSW   204   2.9      SW     233     270       -16       1.1       4.2      61.9      4.29
   06/06/2020 03:00      61.8      61.5       72     52.7      0.00     17.48      78.1     0.50      1012.0     1.8     SSW   193   3.4     SSE     163     270       -16       1.1       4.0      61.9      4.29
   06/06/2020 02:50      61.9      61.5       72     52.6      0.00     17.48      78.1     0.50      1011.9     1.4     SSW   201   2.3       S     188     270       -16       0.9       3.9      61.9      4.29
   06/06/2020 02:40      61.9      61.6       73     52.8      0.00     17.48      78.1     0.50      1011.8     1.7       S   187   3.2     SSE     151     270       -15       0.9       3.7      62.0      4.29
   06/06/2020 02:30      61.9      61.6       72     52.7      0.00     17.48      78.2     0.50      1011.7     1.1     SSE   167   2.3     SSE     154     270       -16       0.5       3.6      62.0      4.29
   06/06/2020 02:20      61.8      61.5       73     52.8      0.00     17.48      78.2     0.50      1011.7     1.2       S   184   3.4     SSW     212     270       -17       0.7       3.5      62.0      4.29
   06/06/2020 02:10      61.8      61.4       73     52.7      0.00     17.48      78.2     0.50      1011.7     1.6       S   172   3.6     SSE     156     270       -19       0.9       3.4      62.1      4.29
   06/06/2020 02:00      61.6      61.4       72     52.6      0.00     17.48      78.3     0.50      1011.7     1.7       S   170   3.7       S     180     270       -18       1.0       3.2      62.1      4.29
   06/06/2020 01:50      61.6      61.4       72     52.6      0.00     17.48      78.3     0.50      1011.8     2.1     SSW   193   3.9       S     184     270       -18       1.2       3.0      62.2      4.29
   06/06/2020 01:40      61.8      61.5       72     52.7      0.00     17.48      78.3     0.50      1011.9     2.7      SW   224   4.8      SW     233     270       -19       1.8       2.8      62.3      4.29
   06/06/2020 01:30      62.0      61.7       72     52.6      0.00     17.48      78.3     0.50      1012.0     2.5      SW   234   4.3     WSW     245     270       -19       1.7       2.5      62.4      4.29
   06/06/2020 01:20      62.1      61.7       71     52.5      0.00     17.48      78.4     0.50      1012.0     1.9       W   261   6.1     WSW     239     270       -19       1.4       2.3      62.5      4.29
   06/06/2020 01:10      61.9      61.7       71     52.3      0.00     17.48      78.5     0.50      1012.1     2.3      SW   235   4.2      SW     219     270       -19       1.5       2.0      62.6      4.29
   06/06/2020 01:00      62.0      61.7       71     52.3      0.00     17.48      78.5     0.50      1012.1     1.5      SW   229   3.5     WNW     298     270       -19       0.9       1.8      62.6      4.29
   06/06/2020 00:50      62.0      61.5       71     52.4      0.00     17.48      78.5     0.50      1012.2     3.1     WSW   243   5.0     SSW     213     270       -19       2.3       1.6      62.7      4.29
   06/06/2020 00:40      61.9      61.5       72     52.4      0.00     17.48      78.5     0.50      1012.2     3.3     WSW   236   5.3     WNW     301     270       -20       2.4       1.2      62.8      4.29
   06/06/2020 00:30      61.8      61.5       72     52.4      0.00     17.48      78.6     0.50      1012.3     3.4     WSW   237   5.6       W     267     270       -20       2.3       0.8      63.0      4.29
   06/06/2020 00:20      61.6      61.5       72     52.3      0.00     17.48      78.6     0.50      1012.1     2.2      SW   230   4.4      SW     226     270       -20       1.5       0.5      63.1      4.30
   06/06/2020 00:10      61.8      61.4       71     52.2      0.00     17.48      78.7     0.50      1012.0     2.0      SW   233   3.2     SSW     214     270       -20       1.2       0.2      63.2      4.30
   06/06/2020 00:00      61.7      61.4       71     52.2      0.00     17.48      78.7     0.50      1012.0     3.1     WSW   238   4.9     WSW     247     270       -22       2.2      37.8      63.4      4.30
   06/05/2020 23:50      61.5      61.4       71     52.1      0.00     17.48      78.7     0.50      1012.0     3.1      SW   230   5.9      SW     229     270       -23       2.2      37.4      63.6      4.30
   06/05/2020 23:40      61.6      61.3       71     52.0      0.00     17.48      78.7     0.50      1012.1     4.1      SW   232   7.6       W     264     270       -22       2.7      37.0      63.8      4.30
   06/05/2020 23:30      62.0      61.5       70     51.7      0.00     17.48      78.8     0.50      1012.0     5.4     WSW   239   8.9     SSW     211     270       -45       3.8      36.6      64.0      4.30
   06/05/2020 23:20      62.5      61.9       67     51.3      0.00     17.48      78.8     0.50      1011.9     4.2     WSW   244   7.0     WSW     258     269       -41       3.0      36.0      64.3      4.30
   06/05/2020 23:10      62.6      62.3       66     51.0      0.00     17.48      78.8     0.50      1011.9     3.3       W   268   6.1     WSW     244     269       -47       2.4      35.5      64.5      4.30
   06/05/2020 23:00      63.1      62.6       65     51.0      0.00     17.48      78.9     0.50      1011.8     2.5     WSW   257   6.1     WSW     237     269       -53       1.6      35.0      64.8      4.30
   06/05/2020 22:50      63.4      62.8       65     51.1      0.00     17.48      78.9     0.51      1012.0     2.5      SW   229   4.5      SW     236     269       -42       1.6      34.8      65.2      4.30
   06/05/2020 22:40      63.4      63.0       65     51.3      0.00     17.48      79.0     0.51      1011.9     2.8      SW   224   5.7      SW     235     269       -49       1.9      34.5      65.4      4.30
   06/05/2020 22:30      63.5      63.2       65     51.3      0.00     17.48      79.0     0.51      1012.0     3.5      SW   221   5.9      SW     220     269       -29       2.2      34.2      65.5      4.30
   06/05/2020 22:20      63.5      63.1       65     51.2      0.00     17.48      79.0     0.51      1012.1     3.3      SW   225   6.2       W     279     269       -23       2.1      33.8      65.8      4.30
   06/05/2020 22:10      63.5      63.2       65     51.2      0.00     17.48      79.0     0.51      1011.9     2.8      SW   233   5.3     WSW     242     269       -49       1.9      33.5      66.2      4.30
   06/05/2020 22:00      63.8      63.4       64     51.2      0.00     17.48      79.1     0.51      1011.7     3.2     WSW   240   6.2      SW     234     269       -48       2.2      33.2      66.5      4.31
   06/05/2020 21:50      63.8      63.5       65     51.6      0.00     17.48      79.1     0.51      1011.8     2.7     SSW   213   5.7      SW     233     269       -23       1.8      32.8      66.7      4.31
   06/05/2020 21:40      63.9      63.5       65     51.8      0.00     17.48      79.1     0.51      1011.7     1.8      SW   217   3.4     SSW     213     269       -23       1.3      32.5      66.9      4.31
   06/05/2020 21:30      63.9      63.5       65     51.8      0.00     17.48      79.1     0.51      1011.6     2.6      SW   231   4.6     WSW     252     269       -23       1.7      32.3      67.2      4.31
   06/05/2020 21:20      63.9      63.4       66     52.0      0.00     17.48      79.1     0.51      1011.7     3.1     SSW   213   4.7     SSW     204     269       -23       2.1      32.0      67.4      4.31
   06/05/2020 21:10      64.1      63.7       65     51.9      0.00     17.48      79.2     0.51      1011.6     3.2      SW   220   6.1      SW     230     269       -22       2.1      31.7      67.7      4.31
   06/05/2020 21:00      64.4      63.9       64     52.0      0.00     17.48      79.2     0.51      1011.5     4.0     WSW   249   6.7       W     269     269       -22       2.6      31.3      68.0      4.31
   06/05/2020 20:50      64.6      64.2       64     52.0      0.00     17.48      79.2     0.51      1011.4     2.8      SW   218   4.8     SSW     200     269       -22       2.0      30.9      68.2      4.31
   06/05/2020 20:40      64.6      64.2       64     52.1      0.00     17.48      79.2     0.51      1011.4     2.7      SW   228   4.7      SW     236     269       -23       1.8      30.5      68.5      4.31
   06/05/2020 20:30      64.5      63.8       65     52.2      0.00     17.48      79.2     0.51      1011.3     2.1     SSW   211   4.1     SSW     207     269       -23       1.4      30.2      68.7      4.31
   06/05/2020 20:20      64.4      63.9       65     52.2      0.00     17.48      79.2     0.51      1011.0     1.4     SSW   197   2.4       S     178     269       -41       0.6      30.0      68.8      4.31
   06/05/2020 20:10      65.0      64.2       64     52.3      0.00     17.48      79.2     0.51      1010.8     2.0       S   185   4.2     SSW     192     269       -62       1.0      29.9      69.3      4.31
   06/05/2020 20:00      65.4      64.8       63     52.4      0.00     17.48      79.2     0.51      1010.8     1.5       S   191   3.3     SSW     196     269       -48       0.8      29.7      69.6      4.31
   06/05/2020 19:50      65.5      65.2       63     52.3      0.00     17.48      79.4     0.51      1010.8     1.8      SW   227   5.1      SW     227     268       -35       1.1      29.6      70.0      4.31
   06/05/2020 19:40      65.6      65.2       62     52.1      0.00     17.48      79.9     0.51      1010.8     2.8     WSW   243   5.0     WSW     239     268       -36       1.9      29.4      70.6      4.32
   06/05/2020 19:30      65.8      65.4       62     52.2      0.00     17.48      79.8     0.51      1010.8     2.6      SW   227   4.6     SSW     192     268       -29       1.9      29.1      71.0      4.32
   06/05/2020 19:20      65.9      65.4       62     52.2      0.00     17.48      79.9     0.51      1010.9     3.3      SW   234   6.9     WSW     255     269       -21       2.3      28.8      71.5      4.32
   06/05/2020 19:10      65.8      65.4       63     52.5      0.00     17.48      80.0     0.51      1010.9     3.6      SW   230   6.5     WSW     246     269        -8       2.5      28.4      71.7      4.32
   06/05/2020 19:00      66.1      65.6       63     52.8      0.00     17.48      79.9     0.51      1010.9     4.0      SW   235   6.3     WSW     247     268         8       2.8      28.0      72.1      4.32
   06/05/2020 18:50      66.5      65.8       62     52.7      0.00     17.48      80.1     0.51      1010.9     3.7      SW   228   5.7     SSW     201     268        23       2.7      27.5      72.3      4.32
   06/05/2020 18:40      66.5      66.0       62     52.6      0.00     17.48      80.2     0.51      1010.9     3.3     WSW   257   6.8      SW     220     268        25       2.6      27.1      73.2      4.32
   06/05/2020 18:30      66.4      65.9       61     52.5      0.00     17.48      80.3     0.51      1011.0     3.9     WSW   251   6.5      SW     223     268        28       2.7      26.6      73.6      4.32
   06/05/2020 18:20      67.4      66.3       60     52.5      0.00     17.48      80.4     0.51      1011.2     2.9     WSW   246   6.0     WSW     240     268         5       2.1      26.2      74.0      4.33
   06/05/2020 18:10      67.7      67.3       59     52.7      0.00     17.48      80.2     0.51      1011.2     1.3      NW   321   4.1       W     272     268         7       0.6      25.8      74.2      4.33
   06/05/2020 18:00      67.8      67.3       58     52.2      0.00     17.48      80.3     0.51      1011.2     1.3       W   279   4.2     ENE      79     268        11       1.0      25.7      74.5      4.33
   06/05/2020 17:50      67.6      67.1       57     51.7      0.00     17.48      80.3     0.51      1011.1     1.6      SE   145   4.1     SSE     148     268        54       1.0      25.6      74.6      4.33
   06/05/2020 17:40      67.7      67.1       57     51.5      0.00     17.48      80.5     0.51      1011.1     3.0     SSW   206   6.9     SSW     209     268        79       2.0      25.4      74.8      4.33
   06/05/2020 17:30      68.0      67.4       57     51.8      0.00     17.48      80.2     0.51      1011.2     2.0      SW   226   5.1      SW     218     268        84       1.5      25.1      74.8      4.33
   06/05/2020 17:20      68.3      67.2       58     52.5      0.00     17.48      80.2     0.51      1011.2     1.6      SE   140   5.5     SSW     198     268       110       1.1      24.8      74.9      4.33
   06/05/2020 17:10      67.5      67.0       59     52.5      0.00     17.48      80.0     0.51      1011.2     2.3      SE   127   5.4      SE     136     268       158       1.2      24.6      74.5      4.33
   06/05/2020 17:00      67.3      66.9       58     51.8      0.00     17.48      79.9     0.51      1011.3     2.7     SSE   156   6.0      SE     137     268       105       1.6      24.4      74.4      4.33
   06/05/2020 16:50      67.4      66.7       57     51.3      0.00     17.48      79.9     0.51      1011.3     2.2       S   175   4.0     SSW     214     268        67       1.4      24.1      74.4      4.34
   06/05/2020 16:40      67.0      66.5       58     51.2      0.00     17.48      79.9     0.51      1011.3     2.7     SSW   200   5.2     SSW     201     268        65       1.8      23.9      74.6      4.34
   06/05/2020 16:30      67.3      66.7       57     51.4      0.00     17.48      79.9     0.51      1011.3     2.7     SSW   214   6.0      SW     230     268        60       1.9      23.6      74.7      4.34
   06/05/2020 16:20      67.5      66.8       57     51.4      0.00     17.48      79.9     0.51      1011.3     3.1       S   181   6.2       S     178     268        76       2.1      23.3      75.1      4.34
   06/05/2020 16:10      67.6      67.0       57     51.5      0.00     17.48      80.0     0.51      1011.3     2.2     SSE   163   4.9      SE     128     268       116       1.3      22.9      75.1      4.34
   06/05/2020 16:00      67.4      66.7       57     51.3      0.00     17.48      79.9     0.51      1011.3     3.6       S   182   7.1       S     190     268       166       2.3      22.7      75.1      4.34
   06/05/2020 15:50      67.1      66.3       57     51.1      0.00     17.48      79.9     0.51      1011.5     4.3     SSW   198   7.4     WSW     239     268       179       2.7      22.4      75.0      4.34
   06/05/2020 15:40      66.5      66.0       58     51.3      0.00     17.48      80.0     0.51      1011.7     4.6      SW   221   8.3      SW     215     268       116       3.4      21.9      75.2      4.35
   06/05/2020 15:30      67.1      66.2       58     51.6      0.00     17.48      79.9     0.51      1011.8     3.7     SSW   194   7.5      SW     217     268        99       2.5      21.3      75.4      4.35
   06/05/2020 15:20      67.3      66.6       58     51.7      0.00     17.48      80.0     0.51      1011.8     2.6     SSW   195   5.7     SSE     148     268       134       1.5      20.9      75.5      4.35
   06/05/2020 15:10      66.9      66.3       59     51.9      0.00     17.48      80.2     0.51      1011.7     4.5      SW   216   9.4      SW     229     268       192       3.2      20.7      75.7      4.35
   06/05/2020 15:00      66.8      66.2       60     52.0      0.00     17.48      80.0     0.51      1011.8     4.5     SSW   194   8.5     SSW     201     268       183       3.1      20.1      75.6      4.35
   06/05/2020 14:50      67.0      66.6       59     52.0      0.00     17.48      80.2     0.51      1011.8     4.4     SSW   197   7.7      SW     217     268       169       3.2      19.6      75.6      4.36
   06/05/2020 14:40      68.1      66.7       58     52.0      0.00     17.48      80.2     0.51      1012.0     4.9       S   182   9.4       S     190     268       138       3.2      19.1      75.8      4.36
   06/05/2020 14:30      68.2      67.3       57     52.0      0.00     17.48      80.2     0.51      1011.9     5.3     SSW   191   9.6     SSW     202     268       255       3.5      18.5      75.9      4.36
   06/05/2020 14:20      67.3      66.8       59     52.2      0.00     17.48      80.2     0.51      1011.8     4.6     SSE   162   8.3       S     182     268       265       2.8      18.0      75.5      4.36
   06/05/2020 14:10      67.7      67.1       59     52.5      0.00     17.48      80.3     0.51      1012.0     4.4       S   188   7.3     SSW     203     268       161       3.1      17.5      75.4      4.36
   06/05/2020 14:00      68.5      67.2       58     52.4      0.00     17.48      80.3     0.51      1011.9     4.3     SSW   206   9.5     SSW     201     268       173       2.9      17.0      75.4      4.36
   06/05/2020 13:50      68.8      67.4       57     52.3      0.00     17.48      80.3     0.50      1012.0     2.8     SSE   146   6.1       S     180     267       390       1.8      16.5      75.0      4.37
   06/05/2020 13:40      68.1      67.0       57     52.0      0.00     17.48      80.4     0.51      1012.1     4.1      SW   214   9.0     SSW     205     267       365       2.9      16.2      74.3      4.37
   06/05/2020 13:30      68.0      67.3       57     52.0      0.00     17.48      80.4     0.51      1012.2     4.4       S   181  10.0       S     181     268       345       3.0      15.7      73.9      4.37
   06/05/2020 13:20      68.2      67.4       57     52.0      0.00     17.48      80.5     0.51      1012.1     4.5       S   177   8.5       S     178     267       386       2.8      15.2      73.2      4.37
   06/05/2020 13:10      68.1      67.1       58     52.2      0.00     17.48      80.5     0.51      1012.2     4.3     SSE   166   8.9       S     190     268       347       2.5      14.7      72.5      4.37
   06/05/2020 13:00      68.0      67.1       58     52.1      0.00     17.48      80.5     0.51      1012.3     3.4     ESE   116   6.3      NE      40     268       275       1.8      14.3      72.0      4.37
   06/05/2020 12:50      67.5      67.0       58     52.0      0.00     17.48      80.6     0.51      1012.3     3.0      SE   143   6.2       E      89     268       304       1.8      14.0      71.4      4.37
   06/05/2020 12:40      67.2      66.2       59     52.0      0.00     17.48      80.5     0.51      1012.4     3.2     SSE   168   6.3       S     185     268       253       2.3      13.7      70.9      4.37
   06/05/2020 12:30      66.7      66.1       60     52.1      0.00     17.48      80.6     0.51      1012.4     2.9       S   172   7.9      SW     227     268       150       1.9      13.3      70.5      4.37
   06/05/2020 12:20      66.4      65.6       61     52.2      0.00     17.48      80.6     0.51      1012.4     3.6       S   187   8.4     SSW     194     268       234       2.4      13.0      70.1      4.37
   06/05/2020 12:10      66.4      65.9       61     52.3      0.00     17.48      80.5     0.51      1012.4     3.4      SE   138   9.3      SE     129     268       290       2.0      12.6      69.7      4.37
   06/05/2020 12:00      66.5      65.7       61     52.5      0.00     17.48      80.6     0.51      1012.5     2.8     SSE   148   7.3     SSE     157     268       315       1.7      12.3      69.0      4.37
   06/05/2020 11:50      65.8      65.3       63     52.6      0.00     17.48      80.6     0.51      1012.4     2.7     ESE   121   6.4      SE     128     268       277       1.7      12.0      68.3      4.37
   06/05/2020 11:40      65.8      65.0       63     52.5      0.00     17.48      80.6     0.51      1012.4     2.5       E    86   5.9       E      96     268       183       1.4      11.7      68.0      4.37
   06/05/2020 11:30      65.3      64.8       63     52.2      0.00     17.48      80.6     0.51      1012.5     2.3     ESE   115   4.3       E      91     269       149       1.2      11.4      67.7      4.38
   06/05/2020 11:20      65.1      64.8       63     52.1      0.00     17.48      80.5     0.51      1012.4     2.0     ESE   117   5.3     SSE     151     269        91       1.1      11.3      67.5      4.38
   06/05/2020 11:10      65.0      64.4       63     51.9      0.00     17.48      80.6     0.51      1012.4     2.1      SE   145   5.1     SSW     199     269       111       1.1      11.1      67.3      4.38
   06/05/2020 11:00      64.7      64.0       64     51.8      0.00     17.48      80.6     0.51      1012.3     2.9       S   186   5.1       S     171     269        88       2.0      10.9      67.1      4.38
   06/05/2020 10:50      64.8      64.1       64     51.9      0.00     17.48      80.7     0.51      1012.2     3.1     SSW   200   4.9     SSW     195     269       108       2.3      10.5      66.9      4.38
   06/05/2020 10:40      64.2      63.7       65     51.8      0.00     17.48      80.7     0.51      1012.1     1.7     SSE   167   5.1       S     176     269        88       1.1      10.2      66.6      4.38
   06/05/2020 10:30      64.3      63.8       66     52.5      0.00     17.48      80.7     0.51      1012.1     1.5      SW   215   4.4      SW     234     269        64       1.0      10.0      66.5      4.38
   06/05/2020 10:20      64.0      63.6       67     52.9      0.00     17.48      80.8     0.51      1012.1     0.8     ENE    66   2.6     ESE     110     269        38       0.3       9.8      66.3      4.38
   06/05/2020 10:10      64.1      63.3       69     53.4      0.00     17.48      80.8     0.51      1012.2     0.5     SSE   167   2.6      SE     128     270        41       0.5       9.8      66.3      4.38
   06/05/2020 10:00      63.4      63.0       70     53.3      0.00     17.48      80.7     0.51      1012.2     1.3     ESE   108   4.1      SE     134     270        60       0.6       9.7      66.2      4.38
   06/05/2020 09:50      63.6      63.3       69     53.2      0.00     17.48      80.8     0.51      1012.2     2.3       S   174   4.5      SE     135     270        59       1.2       9.6      66.1      4.38
   06/05/2020 09:40      63.6      63.3       69     53.3      0.00     17.48      80.2     0.51      1012.0     2.8       S   181   5.1     SSE     154     270        81       1.9       9.4      65.2      4.38
   06/05/2020 09:30      63.6      63.3       68     52.8      0.00     17.48      80.3     0.51      1012.0     2.6      SE   134   4.9      SE     133     269       115       1.5       9.1      65.0      4.38
   06/05/2020 09:20      63.9      63.3       68     52.8      0.00     17.48      80.4     0.51      1011.8     2.7     ESE   112   6.2      SE     127     269        93       1.5       8.8      64.8      4.38
   06/05/2020 09:10      63.6      63.0       70     53.4      0.00     17.48      80.4     0.51      1011.8     1.4       E    90   3.8     ESE     111     269       106       0.7       8.6      64.7      4.38
   06/05/2020 09:00      63.3      62.7       71     53.5      0.00     17.48      80.4     0.51      1011.8     0.9     NNE    15   2.1     NNE      26     270        65       0.1       8.4      64.5      4.38
   06/05/2020 08:50      62.9      62.5       72     53.6      0.00     17.48      80.4     0.51      1011.9     1.1     ENE    62   3.1     ENE      75     270        58       0.4       8.4      64.3      4.38
   06/05/2020 08:40      63.1      62.4       72     53.7      0.00     17.48      80.5     0.51      1011.9     1.0      NE    42   3.1       N     355     270         6       0.3       8.3      64.3      4.38
   06/05/2020 08:30      62.9      62.6       72     53.8      0.00     17.48      80.5     0.51      1011.7     0.7      NE    41   2.0      NE      48     270        25       0.3       8.3      64.3      4.38
   06/05/2020 08:20      62.9      62.6       72     53.5      0.00     17.48      80.6     0.51      1011.8     1.1      NE    56   3.3       E      95     270        22       0.3       8.3      64.3      4.38
   06/05/2020 08:10      63.4      62.5       70     53.0      0.00     17.48      80.7     0.51      1011.6     1.0     ESE   105   3.7     ESE     117     270        37       0.4       8.2      64.2      4.38
   06/05/2020 08:00      63.5      62.0       71     53.3      0.00     17.48      80.7     0.51      1011.6     0.5      SE   136   2.9      SE     130     269        84       0.4       8.1      64.1      4.38
   06/05/2020 07:50      62.1      61.3       73     52.9      0.00     17.48      80.8     0.51      1011.6     1.4     ENE    72   3.9     ESE     102     270        78       0.7       8.1      63.9      4.38
   06/05/2020 07:40      61.8      61.3       73     52.7      0.00     17.48      80.8     0.51      1011.6     2.1     ESE   109   4.0     ENE      77     270        28       1.0       8.0      63.8      4.38
   06/05/2020 07:30      62.0      61.6       74     53.5      0.00     17.48      80.8     0.51      1011.5     1.3       E    79   3.5     ESE     103     270        45       0.5       7.8      63.7      4.38
   06/05/2020 07:20      61.7      61.2       76     53.7      0.00     17.48      80.9     0.51      1011.4     0.7      NE    34   2.3      NE      53     270        35       0.1       7.7      63.6      4.38
   06/05/2020 07:10      61.4      60.9       76     53.5      0.00     17.48      81.0     0.51      1011.5     0.8     ENE    70   2.3     ESE     105     270        24       0.2       7.7      63.7      4.38
   06/05/2020 07:00      60.9      60.4       76     53.3      0.00     17.48      81.0     0.51      1011.4     1.2       E    82   4.0     ENE      71     270        20       0.3       7.6      63.6      4.38
   06/05/2020 06:50      61.0      60.5       76     53.1      0.00     17.48      81.0     0.51      1011.5     2.6     ESE   123   6.2      SE     143     270         1       1.4       7.6      63.7      4.38
   06/05/2020 06:40      61.4      60.8       75     53.0      0.00     17.48      81.0     0.51      1011.6     2.4       E    92   5.4      SE     128     270        -6       1.0       7.4      63.8      4.38
   06/05/2020 06:30      61.4      61.1       74     52.8      0.00     17.48      81.1     0.51      1011.5     1.8       E    97   4.2     ESE     117     270       -10       0.9       7.2      63.9      4.38
   06/05/2020 06:20      61.5      61.2       72     52.4      0.00     17.48      81.1     0.51      1011.4     2.0     ESE   110   4.6      SE     128     270       -12       1.0       7.0      64.0      4.38
   06/05/2020 06:10      61.6      61.3       71     52.2      0.00     17.48      81.2     0.51      1011.3     1.3       E    79   3.4     ESE     104     270       -14       0.6       6.9      64.2      4.39
   06/05/2020 06:00      61.6      61.3       72     52.2      0.00     17.48      81.3     0.51      1011.2     1.1     ENE    72   3.4     ESE     102     270       -16       0.4       6.8      64.3      4.39
   06/05/2020 05:50      61.5      61.2       72     52.4      0.00     17.48      81.3     0.51      1011.2     1.3     SSE   149   3.1     ESE     124     270       -17       0.7       6.7      64.4      4.39
   06/05/2020 05:40      61.5      61.2       73     52.8      0.00     17.48      81.4     0.51      1011.1     1.1       S   182   3.2     SSW     203     270       -17       0.6       6.6      64.5      4.39
   06/05/2020 05:30      61.5      61.2       74     53.0      0.00     17.48      81.4     0.51      1011.2     2.3     SSE   167   4.5     WSW     240     270       -16       1.4       6.5      64.6      4.39
   06/05/2020 05:20      61.6      61.3       74     53.0      0.00     17.48      81.5     0.51      1011.0     1.9       S   171   3.8       S     173     270       -17       1.0       6.2      64.7      4.39
   06/05/2020 05:10      61.9      61.5       73     52.9      0.00     17.48      81.6     0.51      1010.8     1.5       S   172   3.2       S     179     270       -17       0.8       6.1      64.8      4.39
   06/05/2020 05:00      61.8      61.5       73     52.8      0.00     17.48      81.5     0.51      1010.8     2.5     SSE   157   5.6      SE     134     270       -17       1.1       5.9      64.9      4.39
   06/05/2020 04:50      61.9      61.5       73     53.0      0.00     17.48      81.6     0.51      1010.8     3.2       S   172   6.6       S     174     270       -17       2.1       5.7      65.1      4.39
   06/05/2020 04:40      62.0      61.5       74     53.3      0.00     17.48      81.6     0.51      1010.7     2.3      SE   144   5.4      SE     138     270       -17       1.5       5.4      65.3      4.39
   06/05/2020 04:30      61.9      61.6       74     53.4      0.00     17.48      81.7     0.51      1010.8     2.7      SE   133   5.3      SE     125     270       -18       1.4       5.1      65.4      4.39
   06/05/2020 04:20      62.0      61.5       74     53.6      0.00     17.48      81.7     0.51      1010.7     2.5      SE   145   5.2      SE     133     270       -17       1.3       4.9      65.6      4.39
   06/05/2020 04:10      61.9      61.4       76     53.9      0.00     17.48      82.0     0.51      1010.8     3.7     SSE   150   7.8      SE     124     270       -17       1.6       4.7      65.8      4.39
   06/05/2020 04:00      62.1      61.8       76     54.3      0.00     17.48      82.1     0.51      1010.6     2.4     ESE   121   6.2      SE     133     270       -17       1.2       4.4      66.2      4.39
   06/05/2020 03:50      62.1      61.8       76     54.4      0.00     17.48      82.1     0.51      1010.6     2.4     SSE   151   6.1       E      97     270       -17       1.2       4.2      66.3      4.39
   06/05/2020 03:40      62.1      61.8       77     54.7      0.00     17.48      82.2     0.51      1010.5     2.1       S   173   4.4       S     185     270       -17       1.4       4.0      66.4      4.39
   06/05/2020 03:30      62.1      61.8       77     54.8      0.00     17.48      82.2     0.51      1010.5     2.0     SSE   167   4.8       S     178     270       -17       1.1       3.8      66.6      4.39
   06/05/2020 03:20      62.6      62.0       76     54.7      0.00     17.48      82.2     0.51      1010.6     2.6       S   179   6.3     SSW     194     270       -16       1.7       3.6      66.8      4.39
   06/05/2020 03:10      62.9      62.5       75     54.6      0.00     17.48      82.3     0.51      1010.6     2.2      SE   132   5.4     ESE     114     270       -16       1.1       3.3      67.0      4.39
   06/05/2020 03:00      63.0      62.7       74     54.5      0.00     17.48      82.5     0.51      1010.5     2.3     SSE   153   5.4     SSE     166     270       -17       1.0       3.1      67.2      4.39
   06/05/2020 02:50      62.9      62.6       75     54.7      0.00     17.48      82.4     0.51      1010.4     2.4     SSE   150   4.5      SE     131     270       -16       1.3       3.0      67.3      4.39
   06/05/2020 02:40      62.9      62.6       75     54.8      0.00     17.48      82.5     0.51      1010.4     2.3     SSE   167   4.4     ENE      74     270       -16       1.4       2.8      67.5      4.39
   06/05/2020 02:30      62.9      62.6       76     55.0      0.00     17.48      82.6     0.51      1010.3     2.6      SE   145   4.8      SE     135     270       -17       1.1       2.5      67.6      4.39
   06/05/2020 02:20      63.1      62.8       76     55.1      0.00     17.48      82.5     0.51      1010.4     2.4     ESE   122   5.1     ESE     104     270       -17       1.2       2.4      67.8      4.39
   06/05/2020 02:10      63.1      62.7       75     55.0      0.00     17.48      82.6     0.51      1010.5     1.7      SE   130   4.6     ESE     115     270       -17       1.0       2.2      68.0      4.39
   06/05/2020 02:00      62.9      62.6       76     55.2      0.00     17.48      82.6     0.51      1010.5     1.6      SE   127   6.0      SE     140     270       -17       1.0       2.0      68.2      4.39
   06/05/2020 01:50      62.9      62.6       77     55.4      0.00     17.48      82.6     0.51      1010.6     2.2      SE   146   4.1       S     188     270       -17       1.1       1.8      68.2      4.39
   06/05/2020 01:40      62.8      62.3       77     55.4      0.00     17.48      82.7     0.51      1010.6     1.2     ESE   119   2.6     NNE      15     270       -16       0.7       1.6      68.5      4.39
   06/05/2020 01:30      62.5      62.1       79     55.6      0.00     17.48      82.7     0.51      1010.6     1.6     ESE   105   4.6       E      96     270       -16       0.7       1.5      68.6      4.39
   06/05/2020 01:20      62.3      62.0       79     55.6      0.00     17.48      82.9     0.51      1010.8     1.8     ESE   118   4.2      SE     133     271       -16       1.1       1.4      68.8      4.40
   06/05/2020 01:10      62.1      61.8       79     55.5      0.00     17.48      82.8     0.51      1010.8     1.9       E   101   3.7       E      85     271       -16       1.1       1.2      69.1      4.40
   06/05/2020 01:00      62.3      61.9       79     55.7      0.00     17.48      82.8     0.51      1010.9     2.2     ESE   106   5.0      SE     130     271       -16       1.1       1.0      69.3      4.40
   06/05/2020 00:50      62.5      62.1       79     55.8      0.00     17.48      82.8     0.51      1011.1     2.1       E    86   4.1       E      80     270       -16       1.2       0.8      69.5      4.40
   06/05/2020 00:40      62.5      62.0       80     56.0      0.00     17.48      82.8     0.51      1011.2     1.3     ESE   111   4.6      SE     126     270       -16       0.5       0.6      69.7      4.40
   06/05/2020 00:30      62.5      62.0       80     56.0      0.00     17.48      82.9     0.51      1011.2     2.2      SE   126   4.5     ESE     115     270       -16       1.2       0.6      70.0      4.40
   06/05/2020 00:20      62.2      61.9       80     56.0      0.00     17.48      83.1     0.52      1011.2     2.4      SE   136   4.2     ESE     112     271       -16       1.2       0.4      70.2      4.40
   06/05/2020 00:10      62.1      61.7       81     56.0      0.00     17.48      83.0     0.51      1011.3     2.1      SE   132   4.5       S     173     271       -16       0.9       0.2      70.5      4.40
   06/05/2020 00:00      62.3      61.7       81     56.0      0.00     17.48      83.0     0.51      1011.5     3.1     SSE   154   4.8      SE     145     270       -16       1.5      22.9      70.7      4.40
   06/04/2020 23:50      62.8      62.2       80     56.2      0.00     17.48      83.0     0.52      1011.7     3.0     SSE   167   5.4     SSW     207     270       -17       1.9      22.6      71.0      4.40
   06/04/2020 23:40      63.0      62.6       79     56.4      0.00     17.48      83.1     0.52      1011.6     2.2     SSE   151   4.5       S     188     270       -17       1.0      22.3      71.3      4.40
   06/04/2020 23:30      63.1      62.7       79     56.4      0.00     17.48      83.1     0.52      1011.6     1.6     SSE   156   4.3     SSW     196     270       -17       1.1      22.1      71.6      4.40
   06/04/2020 23:20      63.1      62.8       80     56.5      0.00     17.48      83.1     0.52      1011.5     1.7       S   177   3.0     SSE     146     270       -17       1.0      22.0      71.8      4.41
   06/04/2020 23:10      63.0      62.6       80     56.5      0.00     17.48      83.1     0.52      1011.5     1.4     SSE   156   3.0     SSE     152     270       -17       0.7      21.8      72.1      4.40
   06/04/2020 23:00      63.0      62.7       79     56.3      0.00     17.48      83.2     0.52      1011.6     2.3       S   186   3.9     SSW     200     270       -17       1.5      21.7      72.4      4.41
   06/04/2020 22:50      63.0      62.6       79     56.2      0.00     17.48      83.2     0.52      1011.6     1.5       S   179   2.9     SSE     165     270       -17       0.9      21.4      72.7      4.41
   06/04/2020 22:40      62.7      62.3       79     56.0      0.00     17.48      83.2     0.52      1011.6     2.1       S   187   3.7     SSW     194     270       -16       1.4      21.3      73.0      4.41
   06/04/2020 22:30      62.6      62.0       80     55.9      0.00     17.48      83.2     0.52      1011.6     2.4     SSE   160   4.4      SE     134     270       -17       1.4      21.1      73.3      4.41
   06/04/2020 22:20      62.1      61.8       80     55.8      0.00     17.48      83.2     0.52      1011.6     3.3       S   180   5.6       S     186     270       -23       2.2      20.8      73.8      4.41
   06/04/2020 22:10      62.1      61.8       80     55.7      0.00     17.48      83.2     0.52      1011.4     3.2       S   186   5.4     SSW     208     271       -33       2.0      20.5      74.3      4.41
   06/04/2020 22:00      62.3      62.0       79     55.5      0.00     17.48      83.2     0.52      1011.3     1.2       S   169   2.6      SE     140     271       -64       0.7      20.1      74.9      4.41
   06/04/2020 21:50      62.5      62.1       78     55.5      0.00     17.48      83.2     0.52      1011.2     1.4       S   177   2.3     SSE     161     271       -72       0.8      20.0      75.3      4.41
   06/04/2020 21:40      62.7      62.4       78     55.6      0.00     17.48      83.3     0.52      1011.1     1.0     SSE   159   2.4       S     188     271       -73       0.4      19.9      75.9      4.41
   06/04/2020 21:30      62.9      62.5       78     55.8      0.00     17.48      83.2     0.52      1011.0     1.0     SSE   151   2.2     ESE     120     271       -73       0.4      19.8      76.4      4.41
   06/04/2020 21:20      62.7      62.4       79     55.9      0.00     17.48      83.2     0.52      1010.9     1.6       S   174   2.9     SSE     159     270       -73       0.8      19.7      76.9      4.41
   06/04/2020 21:10      63.1      62.6       78     55.9      0.00     17.48      83.1     0.52      1010.8     2.7       S   183   4.5     SSW     211     270       -73       1.7      19.6      77.5      4.42
   06/04/2020 21:00      63.5      62.9       77     55.9      0.00     17.48      83.2     0.52      1010.8     2.7       S   173   4.6     SSE     167     270       -74       1.8      19.3      78.2      4.42
   06/04/2020 20:50      64.0      63.4       76     55.9      0.00     17.48      83.3     0.52      1010.8     3.0       S   175   6.5     SSW     208     270       -75       1.9      19.0      79.0      4.42
   06/04/2020 20:40      64.3      63.8       75     56.0      0.00     17.48      83.0     0.52      1010.6     2.8       S   179   5.0       S     170     270       -75       1.8      18.7      79.8      4.42
   06/04/2020 20:30      65.0      64.3       74     56.1      0.00     17.48      83.1     0.52      1010.5     3.3       S   182   5.4       S     188     269       -75       2.3      18.4      80.7      4.42
   06/04/2020 20:20      66.0      64.8       72     56.1      0.00     17.48      83.1     0.52      1010.4     3.6       S   184   6.0     SSW     200     269       -77       2.4      18.0      81.6      4.42
   06/04/2020 20:10      67.1      65.8       68     55.9      0.00     17.48      83.0     0.52      1010.4     3.0     SSE   165   5.5     SSW     198     268       -77       1.9      17.6      82.4      4.43
   06/04/2020 20:00      68.3      67.0       66     55.8      0.00     17.48      82.9     0.52      1010.4     4.0      SE   130   7.1      SE     128     268       -74       1.9      17.3      83.3      4.43
   06/04/2020 19:50      68.9      68.1       64     55.8      0.00     17.48      82.9     0.52      1010.3     2.3     ESE   123   5.0      SE     132     268       -71       1.1      17.0      84.2      4.43
   06/04/2020 19:40      69.4      68.6       63     55.8      0.00     17.48      82.8     0.52      1010.3     2.7      SE   143   6.0      SE     139     268       -66       1.4      16.8      85.0      4.43
   06/04/2020 19:30      70.4      69.2       62     56.1      0.00     17.48      82.7     0.52      1010.2     3.9      SE   130   7.9      SE     136     267       -48       2.1      16.6      85.8      4.43
   06/04/2020 19:20      71.5      70.3       60     56.4      0.00     17.48      82.3     0.51      1010.1     3.0     ESE   116   6.2       E      95     267       -33       1.7      16.2      86.4      4.44
   06/04/2020 19:10      72.7      71.7       58     56.5      0.00     17.48      82.0     0.51      1009.9     2.9     ESE   115   6.5      SE     141     267       -14       1.7      15.9      87.1      4.44
   06/04/2020 19:00      74.3      72.8       55     56.5      0.00     17.48      82.0     0.51      1009.8     3.4     ESE   123   7.0     SSE     160     267         7       1.8      15.6      87.9      4.44
   06/04/2020 18:50      74.8      74.0       54     56.4      0.00     17.48      81.9     0.51      1009.7     2.9      SE   133   6.0     ESE     108     266        29       1.3      15.3      88.6      4.45
   06/04/2020 18:40      75.5      74.7       52     56.2      0.00     17.48      81.8     0.51      1009.7     2.4      SE   125   4.5      SE     137     266        51       1.3      15.1      89.3      4.45
   06/04/2020 18:30      76.9      75.3       50     56.2      0.00     17.48      81.8     0.51      1009.7     3.3     ESE   116   5.7      SE     127     266        76       1.8      14.9      90.1      4.45
   06/04/2020 18:20      76.9      76.4       49     56.0      0.00     17.48      81.7     0.51      1009.6     2.1     ESE   115   5.6       E      91     266        99       1.4      14.6      90.9      4.45
   06/04/2020 18:10      77.7      76.9       47     55.8      0.00     17.48      81.6     0.51      1009.6     1.9      SE   126   5.2      SE     132     265       122       1.2      14.3      91.4      4.46
   06/04/2020 18:00      78.1      76.5       47     55.5      0.00     17.48      81.5     0.51      1009.6     3.7     SSE   150   7.3      SE     139     265       148       1.9      14.2      91.9      4.46
   06/04/2020 17:50      78.2      77.6       47     55.8      0.00     17.48      81.5     0.51      1009.7     2.7      SE   138   5.8     SSE     149     265       171       1.7      13.8      92.5      4.46
   06/04/2020 17:40      78.5      77.3       48     56.2      0.00     17.48      81.4     0.51      1009.8     3.8     SSE   149   6.9      SE     137     265       197       2.2      13.6      93.2      4.47
   06/04/2020 17:30      79.5      77.8       47     56.5      0.00     17.48      81.3     0.51      1009.9     3.9      SE   131   8.1      SE     130     265       221       2.3      13.2      93.7      4.47
   06/04/2020 17:20      79.7      79.3       45     56.5      0.00     17.48      81.2     0.51      1009.9     3.0     ESE   114   6.7      SE     130     265       244       2.1      12.8      94.2      4.47
   06/04/2020 17:10      81.1      79.4       44     56.1      0.00     17.48      81.1     0.51      1010.0     3.3      SE   128   6.7      SE     134     265       266       2.0      12.5      94.7      4.48
   06/04/2020 17:00      81.9      80.5       43     56.6      0.00     17.48      81.7     0.51      1010.0     3.0     ESE   115   5.6     SSW     200     265       287       1.8      12.1      95.9      4.48
   06/04/2020 16:50      81.7      81.1       41     55.5      0.00     17.48      82.0     0.51      1010.0     2.9       E    87   6.2     ENE      63     265       310       1.7      11.8      96.7      4.48
   06/04/2020 16:40      82.0      81.2       41     55.8      0.00     17.48      81.7     0.51      1009.9     3.3     ENE    71   6.5       E     101     265       330       1.6      11.5      97.2      4.49
   06/04/2020 16:30      82.9      81.9       40     55.5      0.00     17.48      81.7     0.51      1010.0     3.0     ENE    73   5.3     ESE     109     265       349       1.7      11.3      97.6      4.50
   06/04/2020 16:20      83.3      81.9       38     54.5      0.00     17.48      81.6     0.51      1010.0     2.2       E    93   7.5     ENE      60     265       372       1.4      11.0      97.7      4.50
   06/04/2020 16:10      83.0      81.6       37     53.8      0.00     17.48      81.4     0.51      1010.1     2.5      SE   143   6.4      SE     144     265       393       1.6      10.8      98.0      4.50
   06/04/2020 16:00      82.0      80.7       39     54.0      0.00     17.48      81.3     0.51      1010.2     3.4     ESE   120   8.3      SE     140     265       415       1.9      10.5      98.0      4.51
   06/04/2020 15:50      82.3      80.8       39     54.6      0.00     17.48      81.2     0.51      1010.3     3.8     ESE   102   8.9       E      93     265       433       2.5      10.2      98.5      4.51
   06/04/2020 15:40      82.8      81.6       39     54.9      0.00     17.48      81.1     0.51      1010.3     3.5       E    91   7.3      SE     145     265       449       1.8       9.8      98.5      4.52
   06/04/2020 15:30      83.5      81.9       38     54.5      0.00     17.48      81.0     0.51      1010.4     3.2       E    95   6.7     ENE      77     265       463       2.0       9.5      98.7      4.52
   06/04/2020 15:20      84.0      82.7       37     54.7      0.00     17.48      80.9     0.51      1010.5     2.8       E    91   6.7     SSE     157     265       477       1.9       9.1      98.7      4.53
   06/04/2020 15:10      84.3      83.5       37     55.0      0.00     17.48      80.7     0.51      1010.6     3.0     ESE   110   8.5     SSE     158     265       492       1.9       8.8      98.6      4.53
   06/04/2020 15:00      84.4      83.4       38     55.5      0.00     17.48      80.5     0.51      1010.6     3.3     ENE    68   7.2     ESE     107     265       505       1.9       8.5      98.6      4.54
   06/04/2020 14:50      85.4      84.3       37     55.5      0.00     17.48      80.3     0.51      1010.6     2.9      NE    49   6.0     NNE      23     265       515       1.5       8.2      98.4      4.54
   06/04/2020 14:40      86.5      84.4       35     55.1      0.00     17.48      80.3     0.51      1010.7     2.9     ENE    69   8.0     ESE     121     265       525       1.7       7.9      98.1      4.55
   06/04/2020 14:30      86.2      84.1       36     55.3      0.00     17.48      80.1     0.51      1010.8     2.2      NE    54   5.2      NE      36     265       535       1.5       7.7      97.9      4.55
   06/04/2020 14:20      84.6      84.0       37     55.0      0.00     17.48      80.0     0.50      1010.9     3.1      NE    44   5.8      NE      41     265       546       1.7       7.4      97.5      4.55
   06/04/2020 14:10      84.3      83.3       36     54.0      0.00     17.48      79.8     0.50      1011.0     2.5       E    99   7.5      SE     130     265       557       1.6       7.1      97.3      4.56
   06/04/2020 14:00      85.1      83.0       36     54.3      0.00     17.48      79.7     0.50      1011.0     3.3      SE   137   7.8       S     174     265       566       1.7       6.9      96.7      4.56
   06/04/2020 13:50      85.4      83.9       36     55.0      0.00     17.48      79.7     0.50      1011.1     2.4     ESE   120   6.0     ESE     115     265       573       1.5       6.6      96.0      4.57
   06/04/2020 13:40      84.7      83.8       37     55.2      0.00     17.48      79.5     0.50      1011.2     3.0     ENE    60   7.0       E      90     265       575       1.7       6.3      95.3      4.57
   06/04/2020 13:30      84.6      83.5       37     55.1      0.00     17.48      79.5     0.50      1011.4     2.9      NE    43   5.1      NE      44     265       578       1.4       6.0      94.7      4.57
   06/04/2020 13:20      84.4      83.5       38     55.4      0.00     17.48      79.8     0.50      1011.4     3.0      NE    38   5.9     ENE      61     265       584       1.3       5.8      94.6      4.58
   06/04/2020 13:10      84.6      83.8       37     55.1      0.00     17.48      79.8     0.50      1011.4     2.9      NE    48   5.6      NE      38     264       587       1.3       5.6      93.5      4.58
   06/04/2020 13:00      84.4      83.2       37     55.0      0.00     17.48      79.8     0.50      1011.5     2.5      NE    47   4.6     ENE      64     264       589       1.4       5.4      92.4      4.58
   06/04/2020 12:50      83.6      82.8       40     56.5      0.00     17.48      79.8     0.50      1011.6     2.8      NE    52   5.6       E     101     264       589       1.5       5.1      91.9      4.59
   06/04/2020 12:40      82.6      81.9       41     56.6      0.00     17.48      79.7     0.50      1011.7     2.5      NE    52   4.8       E      90     265       591       1.5       4.9      91.0      4.59
   06/04/2020 12:30      82.6      82.1       41     56.3      0.00     17.48      79.6     0.50      1011.7     3.0      NE    47   5.9      NE      53     264       586       1.3       4.6      90.1      4.59
   06/04/2020 12:20      82.6      81.9       41     56.5      0.00     17.48      79.5     0.50      1011.8     2.6      NE    35   4.6     NNE      20     265       582       1.2       4.4      88.9      4.59
   06/04/2020 12:10      82.5      81.0       42     56.2      0.00     17.48      79.5     0.50      1011.9     2.6      NE    43   5.5     NNW     340     264       580       1.1       4.2      87.7      4.60
   06/04/2020 12:00      81.1      80.4       42     55.5      0.00     17.48      79.5     0.50      1012.0     2.8      NE    46   6.1     ENE      60     265       577       1.3       4.0      86.6      4.60
   06/04/2020 11:50      80.8      79.9       42     55.4      0.00     17.48      79.7     0.50      1012.1     3.0      NE    41   4.9      NE      49     265       570       1.2       3.8      85.4      4.60
   06/04/2020 11:40      80.2      79.4       43     55.6      0.00     17.48      79.7     0.50      1012.2     3.2      NE    54   5.4      SE     146     265       565       1.2       3.6      84.1      4.60
   06/04/2020 11:30      79.7      79.3       44     55.6      0.00     17.48      79.8     0.50      1012.2     3.4      NE    54   5.9      NE      53     265       554       1.2       3.4      82.7      4.60
   06/04/2020 11:20      80.0      78.9       45     56.4      0.00     17.48      79.6     0.50      1012.2     2.7      NE    46   6.9     NNE      26     265       544       1.3       3.2      81.2      4.60
   06/04/2020 11:10      79.1      78.5       48     57.6      0.00     17.48      79.7     0.50      1012.2     2.6     NNE    33   4.9      NE      50     265       532       1.1       3.0      79.8      4.60
   06/04/2020 11:00      79.0      77.9       48     57.4      0.00     17.48      79.7     0.50      1012.3     2.3     NNE    31   5.3      NE      41     266       522       1.2       2.8      78.7      4.60
   06/04/2020 10:50      78.6      77.2       50     57.5      0.00     17.48      79.8     0.50      1012.3     1.8      NE    50   4.0     NNW     339     266       509       0.9       2.6      77.5      4.60
   06/04/2020 10:40      77.3      76.6       51     57.7      0.00     17.48      79.8     0.50      1012.3     2.3      NE    43   5.3       E      80     265       496       1.0       2.5      76.4      4.60
   06/04/2020 10:30      76.7      75.8       53     57.5      0.00     17.48      79.8     0.50      1012.4     1.7      NE    43   4.3      NE      42     266       483       0.9       2.3      75.2      4.60
   06/04/2020 10:20      76.0      74.5       55     57.9      0.00     17.48      80.0     0.51      1012.4     1.8     NNE    19   6.4     NNE      33     266       468       0.8       2.2      74.0      4.60
   06/04/2020 10:10      75.0      74.1       56     57.6      0.00     17.48      79.9     0.51      1012.4     1.9     NNE    26   5.4      NE      55     266       453       0.8       2.0      72.8      4.60
   06/04/2020 10:00      74.1      72.4       58     57.3      0.00     17.48      79.9     0.51      1012.4     1.8      NE    41   4.5     ENE      78     266       438       0.9       1.9      71.7      4.60
   06/04/2020 09:50      72.7      71.1       59     56.9      0.00     17.48      80.0     0.51      1012.5     2.2     ENE    69   5.1     ENE      65     266       422       1.4       1.7      70.5      4.60
   06/04/2020 09:40      71.4      70.8       61     57.1      0.00     17.48      80.0     0.51      1012.5     2.2      NE    44   4.0     NNE      33     266       403       0.8       1.5      69.5      4.60
   06/04/2020 09:30      71.4      70.3       62     57.4      0.00     17.48      80.1     0.51      1012.5     2.0       E    82   4.2       E      80     266       384       1.2       1.4      68.5      4.60
   06/04/2020 09:20      70.3      69.1       65     57.4      0.00     17.48      80.2     0.51      1012.6     1.7      NE    56   4.1     NNE      12     266       365       0.8       1.2      67.5      4.60
   06/04/2020 09:10      69.3      68.6       67     57.5      0.00     17.48      80.2     0.51      1012.6     1.7     NNE    14   3.9     ENE      59     267       347       0.6       1.0      66.7      4.60
   06/04/2020 09:00      68.6      66.4       71     57.7      0.00     17.48      80.3     0.51      1012.6     1.2     ENE    60   3.3     NNE      20     267       339       0.4       0.9      65.9      4.60
   06/04/2020 08:50      66.4      65.3       75     57.7      0.00     17.48      80.3     0.51      1012.6     1.6     ENE    63   4.2     ESE     106     268       331       0.8       0.9      65.2      4.60
   06/04/2020 08:40      65.5      64.9       76     57.6      0.00     17.48      80.4     0.51      1012.6     2.1     ENE    73   4.7     ENE      63     270        37       0.7       0.7      64.4      4.60
   06/04/2020 08:30      65.1      64.8       76     57.3      0.00     17.48      80.5     0.51      1012.5     2.0      NE    43   4.3     ENE      57     271        25       0.3       0.6      63.9      4.60
   06/04/2020 08:20      65.2      64.3       77     57.4      0.00     17.48      80.5     0.51      1012.5     2.2      NE    39   3.7     NNE      15     271         5       0.4       0.6      63.8      4.60
   06/04/2020 08:10      65.2      64.3       76     57.2      0.00     17.48      80.4     0.51      1012.5     2.4      NE    52   5.1      NE      46     271        -2       0.7       0.5      63.7      4.60
   06/04/2020 08:00      65.3      64.8       77     57.5      0.00     17.48      80.4     0.51      1012.5     2.0      NE    36   4.1      NE      41     271         2       0.4       0.4      63.6      4.60
   06/04/2020 07:50      65.5      65.0       76     57.6      0.00     17.48      80.5     0.51      1012.4     2.1      NE    43   4.4     NNE      28     270        -2       0.2       0.3      63.6      4.60
   06/04/2020 07:40      65.5      65.1       76     57.5      0.00     17.48      80.5     0.51      1012.3     2.0      NE    37   3.8      NE      38     271        -4       0.2       0.3      63.4      4.60
   06/04/2020 07:30      65.6      65.1       76     57.7      0.00     17.48      80.6     0.51      1012.2     1.6      NE    48   3.3     NNE      19     272        19       0.4       0.2      63.4      4.60
   06/04/2020 07:20      65.2      64.6       78     57.9      0.00     17.48      80.6     0.51      1012.1     1.4      NE    34   2.6     ENE      60     272       -15       0.0       0.2      63.3      4.60
   06/04/2020 07:10      64.9      64.4       79     58.0      0.00     17.48      80.7     0.51      1012.1     1.0      NE    55   3.0     ENE      79     272       -19       0.2       0.2      63.3      4.60
   06/04/2020 07:00      64.5      63.9       80     58.0      0.00     17.48      80.7     0.51      1012.0     0.9       E    81   2.6     ENE      62     272       -21       0.3       0.1      63.4      4.60
   06/04/2020 06:50      63.8      63.1       81     57.4      0.00     17.48      80.8     0.51      1011.9     0.9     ESE   115   3.7       N       4     272       -27       0.3       0.0      63.3      4.60
   06/04/2020 06:40      63.1      61.9       82     57.0      0.00     17.48      80.7     0.51      1011.7     0.5      SE   127   1.8       E      97     272       -29       0.0       0.0      63.4      4.60
   06/04/2020 06:30      62.0      61.4       83     56.4      0.00     17.48      80.9     0.51      1011.6     0.2      SE   139   0.9      SE     141     273       -34       0.0       0.0      63.5      4.60
   06/04/2020 06:20      61.4      60.8       83     55.9      0.00     17.48      80.9     0.51      1011.5     0.1       S   177   0.9       S     177     273       -38       0.0       0.0      63.6      4.60
   06/04/2020 06:10      60.9      60.4       84     55.6      0.00     17.48      80.9     0.51      1011.4     0.0      SE   135   0.4      SE     130     273       -37       0.0       0.0      63.7      4.60
   06/04/2020 06:00      60.6      60.2       83     55.4      0.00     17.48      81.1     0.51      1011.3     0.2       S   174   0.8     SSE     153     266       -42       0.0       0.0      63.9      4.60
   06/04/2020 05:50      60.6      60.3       83     55.1      0.00     17.48      81.0     0.51      1011.2     0.0     SSE   149   0.6     SSE     150     255       -48       0.0       0.0      64.0      4.61
   06/04/2020 05:40      60.8      60.4       82     55.2      0.00     17.48      81.1     0.51      1011.2     0.0     SSE   169   0.4     SSE     168     255       -52       0.0       0.0      64.2      4.60
   06/04/2020 05:30      60.8      60.3       82     54.9      0.00     17.48      81.2     0.51      1011.1     0.2     SSE   162   0.7     SSE     148     266       -54       0.0       0.0      64.4      4.60
   06/04/2020 05:20      61.1      60.6       81     55.0      0.00     17.48      81.2     0.51      1011.1     0.5       S   171   1.1     SSW     203     271       -55       0.0       0.0      64.6      4.60
   06/04/2020 05:10      61.1      60.8       80     54.9      0.00     17.48      81.2     0.51      1011.0     0.9     SSW   197   1.4      SW     217     270       -54       0.0       0.0      64.8      4.60
   06/04/2020 05:00      61.1      60.8       81     55.1      0.00     17.48      81.3     0.51      1011.0     0.2       S   190   0.9       S     183     269       -54       0.0       0.0      65.1      4.61
   06/04/2020 04:50      61.2      60.8       81     55.3      0.00     17.48      81.3     0.51      1011.0     0.0     SSW   196   0.6     SSW     195     269       -54       0.0       0.0      65.3      4.61
   06/04/2020 04:40      61.3      60.8       82     55.5      0.00     17.48      81.4     0.51      1011.0     0.0       S   190   0.9     SSW     195     271       -54       0.0       0.0      65.5      4.61
   06/04/2020 04:30      61.2      60.9       82     55.4      0.00     17.48      81.4     0.51      1011.0     0.0       S   182   0.5       S     182     268       -54       0.0       0.0      65.8      4.61
   06/04/2020 04:20      61.2      60.8       81     55.2      0.00     17.48      81.4     0.51      1011.1     0.0       N     0   0.0      SE     136     271       -55       0.0       0.0      66.0      4.61
   06/04/2020 04:10      61.4      60.9       81     55.4      0.00     17.48      81.5     0.51      1011.2     0.0     SSE   167   0.4     SSE     165     272       -55       0.0       0.0      66.3      4.61
   06/04/2020 04:00      61.7      61.3       81     55.7      0.00     17.48      81.6     0.51      1011.2     0.0     SSE   151   0.7     SSE     151     272       -56       0.0       0.0      66.5      4.61
   06/04/2020 03:50      61.7      61.4       81     55.6      0.00     17.48      81.6     0.51      1011.2     0.0       N     0   0.0       S     170     272       -56       0.0       0.0      66.7      4.61
   06/04/2020 03:40      62.4      61.5       80     55.5      0.00     17.48      81.6     0.51      1011.2     0.0     SSE   157   0.6     SSE     151     272       -56       0.0       0.0      67.0      4.61
   06/04/2020 03:30      62.6      62.2       80     56.0      0.00     17.48      81.7     0.51      1011.2     0.0     SSE   156   0.6     SSE     154     273       -56       0.0       0.0      67.2      4.61
   06/04/2020 03:20      62.5      62.3       79     55.8      0.00     17.48      81.7     0.51      1011.2     0.0       N     0   0.0       S     183     273       -57       0.0       0.0      67.4      4.61
   06/04/2020 03:10      63.1      62.3       78     55.9      0.00     17.48      81.7     0.51      1011.3     0.3       S   180   1.2       S     187     272       -57       0.0       0.0      67.7      4.61
   06/04/2020 03:00      63.1      62.8       80     56.8      0.00     17.48      81.8     0.51      1011.3     1.3     SSW   195   1.6     SSW     193     272       -57       0.0       0.0      67.9      4.61
   06/04/2020 02:50      62.9      62.6       80     56.6      0.00     17.48      81.9     0.51      1011.4     0.7       S   173   1.7       S     181     272       -58       0.0       0.0      68.2      4.61
   06/04/2020 02:40      63.1      62.8       80     56.8      0.00     17.48      81.9     0.51      1011.4     0.4       S   177   1.0       S     171     272       -57       0.0       0.0      68.5      4.61
   06/04/2020 02:30      63.0      62.6       80     56.5      0.00     17.48      81.9     0.51      1011.5     0.0       N     0   0.0       S     179     272       -57       0.0       0.0      68.8      4.61
   06/04/2020 02:20      63.2      62.5       79     56.2      0.00     17.48      82.0     0.52      1011.7     0.0       S   191   0.7       S     184     272       -58       0.0       0.0      69.1      4.61
   06/04/2020 02:10      63.3      62.9       79     56.4      0.00     17.48      82.0     0.52      1011.8     0.0       S   177   0.4       S     177     272       -58       0.0       0.0      69.3      4.61
   06/04/2020 02:00      63.5      63.1       78     56.5      0.00     17.48      82.0     0.52      1011.9     0.0       N     0   0.0     SSW     194     272       -59       0.0       0.0      69.7      4.61
   06/04/2020 01:50      63.5      63.2       78     56.4      0.00     17.48      82.0     0.52      1012.0     0.3     SSW   192   0.8       S     185     271       -59       0.0       0.0      69.9      4.61
   06/04/2020 01:40      63.9      63.3       77     56.3      0.00     17.48      82.0     0.52      1012.0     0.1     SSE   169   0.6     SSE     165     271       -60       0.0       0.0      70.3      4.61
   06/04/2020 01:30      63.9      63.7       77     56.5      0.00     17.48      82.0     0.51      1012.2     0.2       S   180   0.9       S     176     271       -61       0.0       0.0      70.6      4.61
   06/04/2020 01:20      64.0      63.7       77     56.4      0.00     17.48      82.1     0.51      1012.3     0.0       S   172   0.7       S     176     271       -62       0.0       0.0      71.0      4.61
   06/04/2020 01:10      64.5      63.9       76     56.3      0.00     17.48      82.1     0.52      1012.5     0.0       N     0   0.0     SSE     167     270       -62       0.0       0.0      71.3      4.62
   06/04/2020 01:00      65.0      64.3       74     56.3      0.00     17.48      82.2     0.52      1012.5     0.0       N     0   0.0     SSE     152     270       -63       0.0       0.0      71.7      4.62
   06/04/2020 00:50      65.5      64.8       73     56.4      0.00     17.48      82.1     0.51      1012.5     0.1     SSE   160   0.8     SSE     148     270       -64       0.0       0.0      72.1      4.62
   06/04/2020 00:40      65.8      65.3       73     56.6      0.00     17.48      82.2     0.52      1012.6     0.0       E    81   0.6     ENE      64     270       -65       0.0       0.0      72.4      4.62
   06/04/2020 00:30      66.3      65.6       72     56.5      0.00     17.48      82.2     0.52      1012.7     0.2       E   100   1.3       E      94     270       -67       0.0       0.0      72.7      4.62
   06/04/2020 00:20      66.3      65.9       72     56.7      0.00     17.48      82.2     0.52      1012.7     0.7      NE    48   1.7      NE      37     269       -68       0.0       0.0      73.0      4.62
   06/04/2020 00:10      66.4      65.9       71     56.5      0.00     17.48      82.2     0.52      1012.8     0.3     ENE    77   1.6     NNE      31     269       -68       0.2       0.0      73.3      4.62
   06/04/2020 00:00      66.8      66.4       70     56.5      0.00     17.48      82.2     0.52      1012.9     0.9     ENE    67   2.9     ENE      75     269       -69       0.3      23.2      73.7      4.62
   06/03/2020 23:50      67.1      66.7       69     56.5      0.00     17.48      82.2     0.52      1012.9     1.3      NE    47   3.0       E     100     268       -69       0.2      23.1      74.1      4.62
   06/03/2020 23:40      67.3      67.0       69     56.5      0.00     17.48      82.3     0.52      1012.9     1.6      NE    45   3.7      NE      45     268       -70       0.2      23.1      74.5      4.62
   06/03/2020 23:30      67.5      67.2       67     56.2      0.00     17.48      82.3     0.52      1013.0     1.5      NE    51   3.5     ENE      65     268       -70       0.3      23.1      75.0      4.62
   06/03/2020 23:20      67.9      67.4       67     56.1      0.00     17.48      82.2     0.52      1013.0     1.5      NE    43   2.5     ESE     115     268       -70       0.2      23.0      75.4      4.63
   06/03/2020 23:10      68.2      67.6       65     55.9      0.00     17.48      82.3     0.52      1013.1     1.4      NE    50   3.1      NE      49     268       -71       0.4      23.0      75.9      4.63
   06/03/2020 23:00      68.4      68.1       65     55.9      0.00     17.48      82.3     0.52      1013.1     1.3      NE    42   2.9     ENE      64     268       -71       0.2      22.9      76.3      4.63
   06/03/2020 22:50      68.8      68.3       64     55.8      0.00     17.48      82.2     0.52      1013.0     1.5      NE    47   3.7     ENE      78     267       -72       0.1      22.9      76.9      4.63
   06/03/2020 22:40      68.6      68.1       59     53.5      0.00     17.48      82.3     0.52      1012.9     0.7      NE    51   2.0      NE      55     268       -70       0.0      22.9      77.5      4.63
   06/03/2020 22:30      69.2      68.4       58     53.3      0.00     17.48      82.3     0.52      1012.9     0.3       S   183   1.5       S     184     267       -72       0.0      22.9      77.8      4.63
   06/03/2020 22:20      70.0      69.1       56     53.2      0.00     17.48      82.2     0.52      1012.9     0.8     SSW   210   2.0     SSW     213     267       -74       0.2      22.9      78.4      4.63
   06/03/2020 22:10      70.0      69.6       56     53.4      0.00     17.48      82.2     0.52      1012.7     2.2      SE   137   4.0      SE     140     267       -76       1.2      22.8      78.9      4.63
   06/03/2020 22:00      70.2      69.6       59     55.0      0.00     17.48      82.2     0.52      1012.5     1.1      SE   144   4.3      SE     146     267       -76       0.5      22.6      79.4      4.63